<?xml version="1.0" encoding="UTF-8" standalone="no" ?>
<gpx xmlns="http://www.topografix.com/GPX/1/1" xmlns:xsi="http://www.w3.org/2001/XMLSchema-instance" xsi:schemaLocation="http://www.topografix.com/GPX/1/1 http://www.topografix.com/GPX/1/1/gpx.xsd" version="1.1" creator="VisuGPX - https://www.visugpx.com">
  <metadata>
    <name>Tullins Saint Marcellin Gravel</name>
    <desc><![CDATA[Utilisation du Gravel mais douleurs +++ poignet , très inconfortable. 
Beau parcours sinon]]></desc>
  </metadata>
  <trk>
    <name><![CDATA[Tullins Saint Marcellin Gravel]]></name>
    <trkseg>
      <trkpt lat="45.30102" lon="5.49199">
        <ele>201</ele>
        <time>2022-04-28T10:39:16Z</time>
      </trkpt>
      <trkpt lat="45.30101" lon="5.49196">
        <ele>201</ele>
        <time>2022-04-28T10:39:17Z</time>
      </trkpt>
      <trkpt lat="45.30101" lon="5.49195">
        <ele>201</ele>
        <time>2022-04-28T10:39:18Z</time>
      </trkpt>
      <trkpt lat="45.301" lon="5.49191">
        <ele>200.9</ele>
        <time>2022-04-28T10:39:19Z</time>
      </trkpt>
      <trkpt lat="45.30099" lon="5.4919">
        <ele>200.9</ele>
        <time>2022-04-28T10:39:20Z</time>
      </trkpt>
      <trkpt lat="45.30099" lon="5.49189">
        <ele>200.9</ele>
        <time>2022-04-28T10:39:21Z</time>
      </trkpt>
      <trkpt lat="45.30099" lon="5.49188">
        <ele>200.9</ele>
        <time>2022-04-28T10:39:22Z</time>
      </trkpt>
      <trkpt lat="45.30098" lon="5.49188">
        <ele>200.9</ele>
        <time>2022-04-28T10:39:23Z</time>
      </trkpt>
      <trkpt lat="45.30098" lon="5.49188">
        <ele>200.9</ele>
        <time>2022-04-28T10:39:24Z</time>
      </trkpt>
      <trkpt lat="45.30098" lon="5.49187">
        <ele>200.7</ele>
        <time>2022-04-28T10:39:25Z</time>
      </trkpt>
      <trkpt lat="45.30098" lon="5.49187">
        <ele>200.7</ele>
        <time>2022-04-28T10:39:26Z</time>
      </trkpt>
      <trkpt lat="45.30099" lon="5.49187">
        <ele>200.7</ele>
        <time>2022-04-28T10:39:27Z</time>
      </trkpt>
      <trkpt lat="45.30099" lon="5.49187">
        <ele>200.7</ele>
        <time>2022-04-28T10:39:28Z</time>
      </trkpt>
      <trkpt lat="45.301" lon="5.49186">
        <ele>200.8</ele>
        <time>2022-04-28T10:39:29Z</time>
      </trkpt>
      <trkpt lat="45.301" lon="5.49186">
        <ele>200.8</ele>
        <time>2022-04-28T10:39:30Z</time>
      </trkpt>
      <trkpt lat="45.301" lon="5.49185">
        <ele>200.8</ele>
        <time>2022-04-28T10:39:31Z</time>
      </trkpt>
      <trkpt lat="45.301" lon="5.49185">
        <ele>200.8</ele>
        <time>2022-04-28T10:39:32Z</time>
      </trkpt>
      <trkpt lat="45.301" lon="5.49185">
        <ele>200.8</ele>
        <time>2022-04-28T10:39:33Z</time>
      </trkpt>
      <trkpt lat="45.301" lon="5.49185">
        <ele>200.8</ele>
        <time>2022-04-28T10:39:34Z</time>
      </trkpt>
      <trkpt lat="45.301" lon="5.49185">
        <ele>200.8</ele>
        <time>2022-04-28T10:39:35Z</time>
      </trkpt>
      <trkpt lat="45.301" lon="5.49185">
        <ele>200.8</ele>
        <time>2022-04-28T10:39:36Z</time>
      </trkpt>
      <trkpt lat="45.301" lon="5.49185">
        <ele>200.8</ele>
        <time>2022-04-28T10:39:37Z</time>
      </trkpt>
      <trkpt lat="45.301" lon="5.49185">
        <ele>200.8</ele>
        <time>2022-04-28T10:39:38Z</time>
      </trkpt>
      <trkpt lat="45.301" lon="5.49185">
        <ele>200.8</ele>
        <time>2022-04-28T10:39:39Z</time>
      </trkpt>
      <trkpt lat="45.301" lon="5.49185">
        <ele>200.8</ele>
        <time>2022-04-28T10:39:40Z</time>
      </trkpt>
      <trkpt lat="45.301" lon="5.49185">
        <ele>200.8</ele>
        <time>2022-04-28T10:39:41Z</time>
      </trkpt>
      <trkpt lat="45.30101" lon="5.49181">
        <ele>200.8</ele>
        <time>2022-04-28T10:40:05Z</time>
      </trkpt>
      <trkpt lat="45.30102" lon="5.49178">
        <ele>200.9</ele>
        <time>2022-04-28T10:40:06Z</time>
      </trkpt>
      <trkpt lat="45.30103" lon="5.49177">
        <ele>201</ele>
        <time>2022-04-28T10:40:07Z</time>
      </trkpt>
      <trkpt lat="45.30103" lon="5.49176">
        <ele>201</ele>
        <time>2022-04-28T10:40:08Z</time>
      </trkpt>
      <trkpt lat="45.30104" lon="5.49176">
        <ele>201</ele>
        <time>2022-04-28T10:40:09Z</time>
      </trkpt>
      <trkpt lat="45.30104" lon="5.49175">
        <ele>201</ele>
        <time>2022-04-28T10:40:10Z</time>
      </trkpt>
      <trkpt lat="45.30103" lon="5.49175">
        <ele>201</ele>
        <time>2022-04-28T10:40:11Z</time>
      </trkpt>
      <trkpt lat="45.30103" lon="5.49175">
        <ele>201</ele>
        <time>2022-04-28T10:40:12Z</time>
      </trkpt>
      <trkpt lat="45.30103" lon="5.49175">
        <ele>201</ele>
        <time>2022-04-28T10:40:13Z</time>
      </trkpt>
      <trkpt lat="45.30103" lon="5.49175">
        <ele>201</ele>
        <time>2022-04-28T10:40:14Z</time>
      </trkpt>
      <trkpt lat="45.30103" lon="5.49175">
        <ele>201</ele>
        <time>2022-04-28T10:40:15Z</time>
      </trkpt>
      <trkpt lat="45.30103" lon="5.49175">
        <ele>201</ele>
        <time>2022-04-28T10:40:16Z</time>
      </trkpt>
      <trkpt lat="45.30103" lon="5.49175">
        <ele>201</ele>
        <time>2022-04-28T10:40:17Z</time>
      </trkpt>
      <trkpt lat="45.30103" lon="5.49175">
        <ele>201</ele>
        <time>2022-04-28T10:40:18Z</time>
      </trkpt>
      <trkpt lat="45.30103" lon="5.49176">
        <ele>201</ele>
        <time>2022-04-28T10:40:19Z</time>
      </trkpt>
      <trkpt lat="45.30103" lon="5.49176">
        <ele>201</ele>
        <time>2022-04-28T10:40:20Z</time>
      </trkpt>
      <trkpt lat="45.30103" lon="5.49176">
        <ele>201</ele>
        <time>2022-04-28T10:40:21Z</time>
      </trkpt>
      <trkpt lat="45.30103" lon="5.49181">
        <ele>201</ele>
        <time>2022-04-28T10:41:19Z</time>
      </trkpt>
      <trkpt lat="45.30103" lon="5.49181">
        <ele>201</ele>
        <time>2022-04-28T10:41:20Z</time>
      </trkpt>
      <trkpt lat="45.30103" lon="5.49181">
        <ele>201</ele>
        <time>2022-04-28T10:41:21Z</time>
      </trkpt>
      <trkpt lat="45.30103" lon="5.49181">
        <ele>201</ele>
        <time>2022-04-28T10:41:22Z</time>
      </trkpt>
      <trkpt lat="45.30103" lon="5.49181">
        <ele>201</ele>
        <time>2022-04-28T10:41:23Z</time>
      </trkpt>
      <trkpt lat="45.30103" lon="5.49181">
        <ele>201</ele>
        <time>2022-04-28T10:41:24Z</time>
      </trkpt>
      <trkpt lat="45.30103" lon="5.49181">
        <ele>201</ele>
        <time>2022-04-28T10:41:25Z</time>
      </trkpt>
      <trkpt lat="45.30103" lon="5.49181">
        <ele>201</ele>
        <time>2022-04-28T10:41:26Z</time>
      </trkpt>
      <trkpt lat="45.30103" lon="5.49181">
        <ele>201</ele>
        <time>2022-04-28T10:41:27Z</time>
      </trkpt>
      <trkpt lat="45.30103" lon="5.49181">
        <ele>201</ele>
        <time>2022-04-28T10:41:28Z</time>
      </trkpt>
      <trkpt lat="45.30103" lon="5.49181">
        <ele>201</ele>
        <time>2022-04-28T10:41:29Z</time>
      </trkpt>
      <trkpt lat="45.30103" lon="5.49181">
        <ele>201</ele>
        <time>2022-04-28T10:41:30Z</time>
      </trkpt>
      <trkpt lat="45.30103" lon="5.49181">
        <ele>201</ele>
        <time>2022-04-28T10:41:31Z</time>
      </trkpt>
      <trkpt lat="45.30103" lon="5.49181">
        <ele>201</ele>
        <time>2022-04-28T10:41:32Z</time>
      </trkpt>
      <trkpt lat="45.30103" lon="5.49181">
        <ele>201</ele>
        <time>2022-04-28T10:41:33Z</time>
      </trkpt>
      <trkpt lat="45.30103" lon="5.49181">
        <ele>201</ele>
        <time>2022-04-28T10:41:34Z</time>
      </trkpt>
      <trkpt lat="45.30103" lon="5.49181">
        <ele>201</ele>
        <time>2022-04-28T10:41:35Z</time>
      </trkpt>
      <trkpt lat="45.30103" lon="5.49181">
        <ele>201</ele>
        <time>2022-04-28T10:41:36Z</time>
      </trkpt>
      <trkpt lat="45.30102" lon="5.4918">
        <ele>201</ele>
        <time>2022-04-28T10:41:37Z</time>
      </trkpt>
      <trkpt lat="45.30101" lon="5.4918">
        <ele>201</ele>
        <time>2022-04-28T10:41:38Z</time>
      </trkpt>
      <trkpt lat="45.301" lon="5.49178">
        <ele>201</ele>
        <time>2022-04-28T10:41:39Z</time>
      </trkpt>
      <trkpt lat="45.301" lon="5.49178">
        <ele>201</ele>
        <time>2022-04-28T10:41:41Z</time>
      </trkpt>
      <trkpt lat="45.301" lon="5.49177">
        <ele>201</ele>
        <time>2022-04-28T10:41:42Z</time>
      </trkpt>
      <trkpt lat="45.30101" lon="5.49176">
        <ele>201</ele>
        <time>2022-04-28T10:41:43Z</time>
      </trkpt>
      <trkpt lat="45.30101" lon="5.49172">
        <ele>201</ele>
        <time>2022-04-28T10:41:45Z</time>
      </trkpt>
      <trkpt lat="45.30101" lon="5.4917">
        <ele>201</ele>
        <time>2022-04-28T10:41:46Z</time>
      </trkpt>
      <trkpt lat="45.301" lon="5.49169">
        <ele>201</ele>
        <time>2022-04-28T10:41:47Z</time>
      </trkpt>
      <trkpt lat="45.301" lon="5.49168">
        <ele>201</ele>
        <time>2022-04-28T10:41:48Z</time>
      </trkpt>
      <trkpt lat="45.30099" lon="5.49167">
        <ele>201</ele>
        <time>2022-04-28T10:41:49Z</time>
      </trkpt>
      <trkpt lat="45.30098" lon="5.49166">
        <ele>201</ele>
        <time>2022-04-28T10:41:50Z</time>
      </trkpt>
      <trkpt lat="45.30098" lon="5.49165">
        <ele>201</ele>
        <time>2022-04-28T10:41:51Z</time>
      </trkpt>
      <trkpt lat="45.30097" lon="5.49164">
        <ele>201</ele>
        <time>2022-04-28T10:41:52Z</time>
      </trkpt>
      <trkpt lat="45.30097" lon="5.49162">
        <ele>201</ele>
        <time>2022-04-28T10:41:54Z</time>
      </trkpt>
      <trkpt lat="45.30096" lon="5.49161">
        <ele>201</ele>
        <time>2022-04-28T10:41:55Z</time>
      </trkpt>
      <trkpt lat="45.30095" lon="5.4916">
        <ele>201</ele>
        <time>2022-04-28T10:42:36Z</time>
      </trkpt>
      <trkpt lat="45.30095" lon="5.49159">
        <ele>201.1</ele>
        <time>2022-04-28T10:42:37Z</time>
      </trkpt>
      <trkpt lat="45.30094" lon="5.49158">
        <ele>201.1</ele>
        <time>2022-04-28T10:42:38Z</time>
      </trkpt>
      <trkpt lat="45.30094" lon="5.49154">
        <ele>201.1</ele>
        <time>2022-04-28T10:42:39Z</time>
      </trkpt>
      <trkpt lat="45.30093" lon="5.49149">
        <ele>201.1</ele>
        <time>2022-04-28T10:42:40Z</time>
      </trkpt>
      <trkpt lat="45.30093" lon="5.49144">
        <ele>201.1</ele>
        <time>2022-04-28T10:42:41Z</time>
      </trkpt>
      <trkpt lat="45.30094" lon="5.49139">
        <ele>201.1</ele>
        <time>2022-04-28T10:42:42Z</time>
      </trkpt>
      <trkpt lat="45.30094" lon="5.49132">
        <ele>201.1</ele>
        <time>2022-04-28T10:42:43Z</time>
      </trkpt>
      <trkpt lat="45.30094" lon="5.49127">
        <ele>201.1</ele>
        <time>2022-04-28T10:42:44Z</time>
      </trkpt>
      <trkpt lat="45.30095" lon="5.49115">
        <ele>201.1</ele>
        <time>2022-04-28T10:42:46Z</time>
      </trkpt>
      <trkpt lat="45.30094" lon="5.49107">
        <ele>201.2</ele>
        <time>2022-04-28T10:42:47Z</time>
      </trkpt>
      <trkpt lat="45.30094" lon="5.49098">
        <ele>201.3</ele>
        <time>2022-04-28T10:42:49Z</time>
      </trkpt>
      <trkpt lat="45.30095" lon="5.49088">
        <ele>201.3</ele>
        <time>2022-04-28T10:42:50Z</time>
      </trkpt>
      <trkpt lat="45.30095" lon="5.49082">
        <ele>201.4</ele>
        <time>2022-04-28T10:42:51Z</time>
      </trkpt>
      <trkpt lat="45.30096" lon="5.49076">
        <ele>201.4</ele>
        <time>2022-04-28T10:42:52Z</time>
      </trkpt>
      <trkpt lat="45.30095" lon="5.4907">
        <ele>201.5</ele>
        <time>2022-04-28T10:42:53Z</time>
      </trkpt>
      <trkpt lat="45.30096" lon="5.49065">
        <ele>201.6</ele>
        <time>2022-04-28T10:42:54Z</time>
      </trkpt>
      <trkpt lat="45.30103" lon="5.49063">
        <ele>201.8</ele>
        <time>2022-04-28T10:42:56Z</time>
      </trkpt>
      <trkpt lat="45.30106" lon="5.49059">
        <ele>201.8</ele>
        <time>2022-04-28T10:42:57Z</time>
      </trkpt>
      <trkpt lat="45.30106" lon="5.49056">
        <ele>201.8</ele>
        <time>2022-04-28T10:42:58Z</time>
      </trkpt>
      <trkpt lat="45.30108" lon="5.49055">
        <ele>201.8</ele>
        <time>2022-04-28T10:43:00Z</time>
      </trkpt>
      <trkpt lat="45.30112" lon="5.49057">
        <ele>201.9</ele>
        <time>2022-04-28T10:43:01Z</time>
      </trkpt>
      <trkpt lat="45.30113" lon="5.49057">
        <ele>201.9</ele>
        <time>2022-04-28T10:43:02Z</time>
      </trkpt>
      <trkpt lat="45.30115" lon="5.49058">
        <ele>201.9</ele>
        <time>2022-04-28T10:43:03Z</time>
      </trkpt>
      <trkpt lat="45.30116" lon="5.49058">
        <ele>201.9</ele>
        <time>2022-04-28T10:43:04Z</time>
      </trkpt>
      <trkpt lat="45.30116" lon="5.49059">
        <ele>201.9</ele>
        <time>2022-04-28T10:43:05Z</time>
      </trkpt>
      <trkpt lat="45.30116" lon="5.49059">
        <ele>201.9</ele>
        <time>2022-04-28T10:43:06Z</time>
      </trkpt>
      <trkpt lat="45.30116" lon="5.4906">
        <ele>201.9</ele>
        <time>2022-04-28T10:43:07Z</time>
      </trkpt>
      <trkpt lat="45.30116" lon="5.4906">
        <ele>201.9</ele>
        <time>2022-04-28T10:43:08Z</time>
      </trkpt>
      <trkpt lat="45.30116" lon="5.4906">
        <ele>201.9</ele>
        <time>2022-04-28T10:43:09Z</time>
      </trkpt>
      <trkpt lat="45.30116" lon="5.4906">
        <ele>201.9</ele>
        <time>2022-04-28T10:43:10Z</time>
      </trkpt>
      <trkpt lat="45.30116" lon="5.4906">
        <ele>201.9</ele>
        <time>2022-04-28T10:43:11Z</time>
      </trkpt>
      <trkpt lat="45.30117" lon="5.4906">
        <ele>202</ele>
        <time>2022-04-28T10:43:12Z</time>
      </trkpt>
      <trkpt lat="45.30119" lon="5.49061">
        <ele>202</ele>
        <time>2022-04-28T10:43:13Z</time>
      </trkpt>
      <trkpt lat="45.30121" lon="5.4906">
        <ele>202</ele>
        <time>2022-04-28T10:43:14Z</time>
      </trkpt>
      <trkpt lat="45.30123" lon="5.49062">
        <ele>202</ele>
        <time>2022-04-28T10:43:15Z</time>
      </trkpt>
      <trkpt lat="45.30126" lon="5.49064">
        <ele>202.1</ele>
        <time>2022-04-28T10:43:16Z</time>
      </trkpt>
      <trkpt lat="45.30128" lon="5.49065">
        <ele>202.2</ele>
        <time>2022-04-28T10:43:17Z</time>
      </trkpt>
      <trkpt lat="45.30131" lon="5.49068">
        <ele>202.2</ele>
        <time>2022-04-28T10:43:18Z</time>
      </trkpt>
      <trkpt lat="45.30132" lon="5.49069">
        <ele>202.3</ele>
        <time>2022-04-28T10:43:19Z</time>
      </trkpt>
      <trkpt lat="45.30135" lon="5.49071">
        <ele>202.3</ele>
        <time>2022-04-28T10:43:20Z</time>
      </trkpt>
      <trkpt lat="45.30137" lon="5.49073">
        <ele>202.4</ele>
        <time>2022-04-28T10:43:21Z</time>
      </trkpt>
      <trkpt lat="45.3014" lon="5.49074">
        <ele>202.5</ele>
        <time>2022-04-28T10:43:22Z</time>
      </trkpt>
      <trkpt lat="45.30143" lon="5.49077">
        <ele>202.6</ele>
        <time>2022-04-28T10:43:23Z</time>
      </trkpt>
      <trkpt lat="45.30143" lon="5.49078">
        <ele>202.7</ele>
        <time>2022-04-28T10:43:24Z</time>
      </trkpt>
      <trkpt lat="45.30146" lon="5.4908">
        <ele>202.7</ele>
        <time>2022-04-28T10:43:25Z</time>
      </trkpt>
      <trkpt lat="45.30147" lon="5.4908">
        <ele>202.7</ele>
        <time>2022-04-28T10:43:26Z</time>
      </trkpt>
      <trkpt lat="45.30149" lon="5.4908">
        <ele>202.7</ele>
        <time>2022-04-28T10:43:27Z</time>
      </trkpt>
      <trkpt lat="45.3015" lon="5.49078">
        <ele>202.7</ele>
        <time>2022-04-28T10:43:28Z</time>
      </trkpt>
      <trkpt lat="45.3015" lon="5.49074">
        <ele>202.8</ele>
        <time>2022-04-28T10:43:29Z</time>
      </trkpt>
      <trkpt lat="45.30151" lon="5.49071">
        <ele>202.8</ele>
        <time>2022-04-28T10:43:30Z</time>
      </trkpt>
      <trkpt lat="45.30151" lon="5.49064">
        <ele>202.9</ele>
        <time>2022-04-28T10:43:31Z</time>
      </trkpt>
      <trkpt lat="45.30149" lon="5.49058">
        <ele>203</ele>
        <time>2022-04-28T10:43:32Z</time>
      </trkpt>
      <trkpt lat="45.30148" lon="5.49053">
        <ele>203.1</ele>
        <time>2022-04-28T10:43:33Z</time>
      </trkpt>
      <trkpt lat="45.30144" lon="5.49048">
        <ele>203.2</ele>
        <time>2022-04-28T10:43:34Z</time>
      </trkpt>
      <trkpt lat="45.30141" lon="5.49045">
        <ele>203.3</ele>
        <time>2022-04-28T10:43:35Z</time>
      </trkpt>
      <trkpt lat="45.30136" lon="5.49044">
        <ele>203.2</ele>
        <time>2022-04-28T10:43:36Z</time>
      </trkpt>
      <trkpt lat="45.30132" lon="5.49044">
        <ele>203</ele>
        <time>2022-04-28T10:43:37Z</time>
      </trkpt>
      <trkpt lat="45.30125" lon="5.49043">
        <ele>202.8</ele>
        <time>2022-04-28T10:43:39Z</time>
      </trkpt>
      <trkpt lat="45.30115" lon="5.49038">
        <ele>202.6</ele>
        <time>2022-04-28T10:43:40Z</time>
      </trkpt>
      <trkpt lat="45.30111" lon="5.49035">
        <ele>202.6</ele>
        <time>2022-04-28T10:43:41Z</time>
      </trkpt>
      <trkpt lat="45.30107" lon="5.49033">
        <ele>202.5</ele>
        <time>2022-04-28T10:43:42Z</time>
      </trkpt>
      <trkpt lat="45.30103" lon="5.49029">
        <ele>202.5</ele>
        <time>2022-04-28T10:43:43Z</time>
      </trkpt>
      <trkpt lat="45.30099" lon="5.49024">
        <ele>202.4</ele>
        <time>2022-04-28T10:43:44Z</time>
      </trkpt>
      <trkpt lat="45.30097" lon="5.49019">
        <ele>202.4</ele>
        <time>2022-04-28T10:43:45Z</time>
      </trkpt>
      <trkpt lat="45.30095" lon="5.49012">
        <ele>202.4</ele>
        <time>2022-04-28T10:43:46Z</time>
      </trkpt>
      <trkpt lat="45.30094" lon="5.49005">
        <ele>202.4</ele>
        <time>2022-04-28T10:43:47Z</time>
      </trkpt>
      <trkpt lat="45.30093" lon="5.48999">
        <ele>202.5</ele>
        <time>2022-04-28T10:43:48Z</time>
      </trkpt>
      <trkpt lat="45.30093" lon="5.48992">
        <ele>202.5</ele>
        <time>2022-04-28T10:43:49Z</time>
      </trkpt>
      <trkpt lat="45.30093" lon="5.48986">
        <ele>202.6</ele>
        <time>2022-04-28T10:43:50Z</time>
      </trkpt>
      <trkpt lat="45.30094" lon="5.48978">
        <ele>202.7</ele>
        <time>2022-04-28T10:43:51Z</time>
      </trkpt>
      <trkpt lat="45.30095" lon="5.48974">
        <ele>202.8</ele>
        <time>2022-04-28T10:43:52Z</time>
      </trkpt>
      <trkpt lat="45.30095" lon="5.48967">
        <ele>202.8</ele>
        <time>2022-04-28T10:43:53Z</time>
      </trkpt>
      <trkpt lat="45.30095" lon="5.48961">
        <ele>202.9</ele>
        <time>2022-04-28T10:43:54Z</time>
      </trkpt>
      <trkpt lat="45.30095" lon="5.48955">
        <ele>203</ele>
        <time>2022-04-28T10:43:55Z</time>
      </trkpt>
      <trkpt lat="45.30096" lon="5.48948">
        <ele>203.1</ele>
        <time>2022-04-28T10:43:56Z</time>
      </trkpt>
      <trkpt lat="45.30096" lon="5.48944">
        <ele>203.1</ele>
        <time>2022-04-28T10:43:57Z</time>
      </trkpt>
      <trkpt lat="45.30096" lon="5.48937">
        <ele>203.1</ele>
        <time>2022-04-28T10:43:59Z</time>
      </trkpt>
      <trkpt lat="45.30095" lon="5.48924">
        <ele>203.1</ele>
        <time>2022-04-28T10:44:00Z</time>
      </trkpt>
      <trkpt lat="45.30095" lon="5.48919">
        <ele>203.2</ele>
        <time>2022-04-28T10:44:01Z</time>
      </trkpt>
      <trkpt lat="45.30093" lon="5.48911">
        <ele>203.4</ele>
        <time>2022-04-28T10:44:03Z</time>
      </trkpt>
      <trkpt lat="45.30094" lon="5.48903">
        <ele>203.6</ele>
        <time>2022-04-28T10:44:04Z</time>
      </trkpt>
      <trkpt lat="45.30093" lon="5.48898">
        <ele>203.7</ele>
        <time>2022-04-28T10:44:05Z</time>
      </trkpt>
      <trkpt lat="45.30094" lon="5.48891">
        <ele>203.9</ele>
        <time>2022-04-28T10:44:07Z</time>
      </trkpt>
      <trkpt lat="45.30095" lon="5.48884">
        <ele>204.1</ele>
        <time>2022-04-28T10:44:08Z</time>
      </trkpt>
      <trkpt lat="45.30095" lon="5.48877">
        <ele>204.3</ele>
        <time>2022-04-28T10:44:09Z</time>
      </trkpt>
      <trkpt lat="45.30096" lon="5.4887">
        <ele>204.5</ele>
        <time>2022-04-28T10:44:10Z</time>
      </trkpt>
      <trkpt lat="45.30097" lon="5.48864">
        <ele>204.7</ele>
        <time>2022-04-28T10:44:11Z</time>
      </trkpt>
      <trkpt lat="45.30097" lon="5.48859">
        <ele>204.9</ele>
        <time>2022-04-28T10:44:12Z</time>
      </trkpt>
      <trkpt lat="45.30098" lon="5.48853">
        <ele>205</ele>
        <time>2022-04-28T10:44:13Z</time>
      </trkpt>
      <trkpt lat="45.30098" lon="5.48842">
        <ele>205.2</ele>
        <time>2022-04-28T10:44:15Z</time>
      </trkpt>
      <trkpt lat="45.30098" lon="5.48835">
        <ele>205.3</ele>
        <time>2022-04-28T10:44:16Z</time>
      </trkpt>
      <trkpt lat="45.30098" lon="5.48827">
        <ele>205.5</ele>
        <time>2022-04-28T10:44:18Z</time>
      </trkpt>
      <trkpt lat="45.30096" lon="5.48819">
        <ele>205.6</ele>
        <time>2022-04-28T10:44:19Z</time>
      </trkpt>
      <trkpt lat="45.30094" lon="5.48814">
        <ele>205.7</ele>
        <time>2022-04-28T10:44:20Z</time>
      </trkpt>
      <trkpt lat="45.3009" lon="5.48807">
        <ele>205.9</ele>
        <time>2022-04-28T10:44:22Z</time>
      </trkpt>
      <trkpt lat="45.30086" lon="5.48802">
        <ele>206</ele>
        <time>2022-04-28T10:44:23Z</time>
      </trkpt>
      <trkpt lat="45.30082" lon="5.48797">
        <ele>206.1</ele>
        <time>2022-04-28T10:44:24Z</time>
      </trkpt>
      <trkpt lat="45.30078" lon="5.48791">
        <ele>206.3</ele>
        <time>2022-04-28T10:44:25Z</time>
      </trkpt>
      <trkpt lat="45.30074" lon="5.48785">
        <ele>206.4</ele>
        <time>2022-04-28T10:44:26Z</time>
      </trkpt>
      <trkpt lat="45.30072" lon="5.4878">
        <ele>206.5</ele>
        <time>2022-04-28T10:44:27Z</time>
      </trkpt>
      <trkpt lat="45.30069" lon="5.48775">
        <ele>206.7</ele>
        <time>2022-04-28T10:44:28Z</time>
      </trkpt>
      <trkpt lat="45.30066" lon="5.4877">
        <ele>206.8</ele>
        <time>2022-04-28T10:44:29Z</time>
      </trkpt>
      <trkpt lat="45.30063" lon="5.48764">
        <ele>207</ele>
        <time>2022-04-28T10:44:30Z</time>
      </trkpt>
      <trkpt lat="45.30061" lon="5.48759">
        <ele>207.1</ele>
        <time>2022-04-28T10:44:31Z</time>
      </trkpt>
      <trkpt lat="45.30059" lon="5.48755">
        <ele>207.3</ele>
        <time>2022-04-28T10:44:32Z</time>
      </trkpt>
      <trkpt lat="45.30056" lon="5.48748">
        <ele>207.5</ele>
        <time>2022-04-28T10:44:33Z</time>
      </trkpt>
      <trkpt lat="45.30054" lon="5.48744">
        <ele>207.6</ele>
        <time>2022-04-28T10:44:34Z</time>
      </trkpt>
      <trkpt lat="45.30052" lon="5.48737">
        <ele>207.9</ele>
        <time>2022-04-28T10:44:36Z</time>
      </trkpt>
      <trkpt lat="45.3005" lon="5.4873">
        <ele>208.1</ele>
        <time>2022-04-28T10:44:37Z</time>
      </trkpt>
      <trkpt lat="45.30048" lon="5.48727">
        <ele>208.2</ele>
        <time>2022-04-28T10:44:38Z</time>
      </trkpt>
      <trkpt lat="45.30046" lon="5.48722">
        <ele>208.4</ele>
        <time>2022-04-28T10:44:39Z</time>
      </trkpt>
      <trkpt lat="45.30043" lon="5.48716">
        <ele>208.6</ele>
        <time>2022-04-28T10:44:40Z</time>
      </trkpt>
      <trkpt lat="45.30039" lon="5.48709">
        <ele>208.9</ele>
        <time>2022-04-28T10:44:41Z</time>
      </trkpt>
      <trkpt lat="45.30036" lon="5.48704">
        <ele>209.1</ele>
        <time>2022-04-28T10:44:42Z</time>
      </trkpt>
      <trkpt lat="45.30032" lon="5.48696">
        <ele>209.4</ele>
        <time>2022-04-28T10:44:44Z</time>
      </trkpt>
      <trkpt lat="45.30029" lon="5.48692">
        <ele>209.6</ele>
        <time>2022-04-28T10:44:45Z</time>
      </trkpt>
      <trkpt lat="45.30025" lon="5.48685">
        <ele>209.8</ele>
        <time>2022-04-28T10:44:46Z</time>
      </trkpt>
      <trkpt lat="45.30023" lon="5.48682">
        <ele>209.9</ele>
        <time>2022-04-28T10:44:47Z</time>
      </trkpt>
      <trkpt lat="45.30021" lon="5.48679">
        <ele>210</ele>
        <time>2022-04-28T10:44:48Z</time>
      </trkpt>
      <trkpt lat="45.30017" lon="5.48674">
        <ele>210.1</ele>
        <time>2022-04-28T10:44:50Z</time>
      </trkpt>
      <trkpt lat="45.30013" lon="5.48668">
        <ele>210.3</ele>
        <time>2022-04-28T10:44:51Z</time>
      </trkpt>
      <trkpt lat="45.30009" lon="5.4866">
        <ele>210.6</ele>
        <time>2022-04-28T10:44:53Z</time>
      </trkpt>
      <trkpt lat="45.30006" lon="5.48657">
        <ele>210.8</ele>
        <time>2022-04-28T10:44:54Z</time>
      </trkpt>
      <trkpt lat="45.30002" lon="5.48649">
        <ele>211.3</ele>
        <time>2022-04-28T10:44:56Z</time>
      </trkpt>
      <trkpt lat="45.30001" lon="5.48645">
        <ele>211.5</ele>
        <time>2022-04-28T10:44:57Z</time>
      </trkpt>
      <trkpt lat="45.29998" lon="5.48641">
        <ele>211.8</ele>
        <time>2022-04-28T10:44:58Z</time>
      </trkpt>
      <trkpt lat="45.29998" lon="5.48639">
        <ele>211.9</ele>
        <time>2022-04-28T10:44:59Z</time>
      </trkpt>
      <trkpt lat="45.29996" lon="5.48635">
        <ele>212.1</ele>
        <time>2022-04-28T10:45:00Z</time>
      </trkpt>
      <trkpt lat="45.29994" lon="5.48631">
        <ele>212.3</ele>
        <time>2022-04-28T10:45:01Z</time>
      </trkpt>
      <trkpt lat="45.29991" lon="5.48623">
        <ele>212.8</ele>
        <time>2022-04-28T10:45:03Z</time>
      </trkpt>
      <trkpt lat="45.2999" lon="5.4862">
        <ele>213</ele>
        <time>2022-04-28T10:45:04Z</time>
      </trkpt>
      <trkpt lat="45.29988" lon="5.48616">
        <ele>213.2</ele>
        <time>2022-04-28T10:45:05Z</time>
      </trkpt>
      <trkpt lat="45.29986" lon="5.48613">
        <ele>213.4</ele>
        <time>2022-04-28T10:45:06Z</time>
      </trkpt>
      <trkpt lat="45.29984" lon="5.48609">
        <ele>213.6</ele>
        <time>2022-04-28T10:45:07Z</time>
      </trkpt>
      <trkpt lat="45.29983" lon="5.48605">
        <ele>213.8</ele>
        <time>2022-04-28T10:45:08Z</time>
      </trkpt>
      <trkpt lat="45.29981" lon="5.48601">
        <ele>213.9</ele>
        <time>2022-04-28T10:45:09Z</time>
      </trkpt>
      <trkpt lat="45.29979" lon="5.48597">
        <ele>214</ele>
        <time>2022-04-28T10:45:10Z</time>
      </trkpt>
      <trkpt lat="45.29976" lon="5.48591">
        <ele>214.2</ele>
        <time>2022-04-28T10:45:12Z</time>
      </trkpt>
      <trkpt lat="45.29974" lon="5.48588">
        <ele>214.3</ele>
        <time>2022-04-28T10:45:13Z</time>
      </trkpt>
      <trkpt lat="45.29971" lon="5.48583">
        <ele>214.5</ele>
        <time>2022-04-28T10:45:14Z</time>
      </trkpt>
      <trkpt lat="45.29969" lon="5.4858">
        <ele>214.6</ele>
        <time>2022-04-28T10:45:15Z</time>
      </trkpt>
      <trkpt lat="45.29967" lon="5.48576">
        <ele>214.7</ele>
        <time>2022-04-28T10:45:16Z</time>
      </trkpt>
      <trkpt lat="45.29965" lon="5.48574">
        <ele>214.9</ele>
        <time>2022-04-28T10:45:17Z</time>
      </trkpt>
      <trkpt lat="45.29962" lon="5.4857">
        <ele>215.1</ele>
        <time>2022-04-28T10:45:18Z</time>
      </trkpt>
      <trkpt lat="45.29959" lon="5.48567">
        <ele>215.2</ele>
        <time>2022-04-28T10:45:19Z</time>
      </trkpt>
      <trkpt lat="45.29957" lon="5.48565">
        <ele>215.3</ele>
        <time>2022-04-28T10:45:20Z</time>
      </trkpt>
      <trkpt lat="45.29954" lon="5.48563">
        <ele>215.4</ele>
        <time>2022-04-28T10:45:21Z</time>
      </trkpt>
      <trkpt lat="45.29953" lon="5.48562">
        <ele>215.5</ele>
        <time>2022-04-28T10:45:22Z</time>
      </trkpt>
      <trkpt lat="45.29949" lon="5.48559">
        <ele>215.8</ele>
        <time>2022-04-28T10:45:23Z</time>
      </trkpt>
      <trkpt lat="45.29947" lon="5.48557">
        <ele>215.9</ele>
        <time>2022-04-28T10:45:24Z</time>
      </trkpt>
      <trkpt lat="45.29944" lon="5.48554">
        <ele>216.2</ele>
        <time>2022-04-28T10:45:26Z</time>
      </trkpt>
      <trkpt lat="45.29941" lon="5.48551">
        <ele>216.4</ele>
        <time>2022-04-28T10:45:27Z</time>
      </trkpt>
      <trkpt lat="45.29938" lon="5.48549">
        <ele>216.6</ele>
        <time>2022-04-28T10:45:28Z</time>
      </trkpt>
      <trkpt lat="45.29933" lon="5.48546">
        <ele>216.9</ele>
        <time>2022-04-28T10:45:29Z</time>
      </trkpt>
      <trkpt lat="45.2993" lon="5.48543">
        <ele>217.2</ele>
        <time>2022-04-28T10:45:30Z</time>
      </trkpt>
      <trkpt lat="45.29926" lon="5.48541">
        <ele>217.4</ele>
        <time>2022-04-28T10:45:31Z</time>
      </trkpt>
      <trkpt lat="45.29921" lon="5.48538">
        <ele>217.7</ele>
        <time>2022-04-28T10:45:33Z</time>
      </trkpt>
      <trkpt lat="45.29917" lon="5.48537">
        <ele>218</ele>
        <time>2022-04-28T10:45:34Z</time>
      </trkpt>
      <trkpt lat="45.29913" lon="5.48535">
        <ele>218.2</ele>
        <time>2022-04-28T10:45:35Z</time>
      </trkpt>
      <trkpt lat="45.2991" lon="5.48534">
        <ele>218.4</ele>
        <time>2022-04-28T10:45:36Z</time>
      </trkpt>
      <trkpt lat="45.29905" lon="5.48532">
        <ele>218.7</ele>
        <time>2022-04-28T10:45:38Z</time>
      </trkpt>
      <trkpt lat="45.299" lon="5.48531">
        <ele>219</ele>
        <time>2022-04-28T10:45:39Z</time>
      </trkpt>
      <trkpt lat="45.29896" lon="5.4853">
        <ele>219.2</ele>
        <time>2022-04-28T10:45:40Z</time>
      </trkpt>
      <trkpt lat="45.29892" lon="5.48529">
        <ele>219.4</ele>
        <time>2022-04-28T10:45:41Z</time>
      </trkpt>
      <trkpt lat="45.29889" lon="5.48528">
        <ele>219.6</ele>
        <time>2022-04-28T10:45:42Z</time>
      </trkpt>
      <trkpt lat="45.29886" lon="5.48526">
        <ele>219.8</ele>
        <time>2022-04-28T10:45:43Z</time>
      </trkpt>
      <trkpt lat="45.29882" lon="5.48526">
        <ele>220</ele>
        <time>2022-04-28T10:45:44Z</time>
      </trkpt>
      <trkpt lat="45.29879" lon="5.48523">
        <ele>220.2</ele>
        <time>2022-04-28T10:45:45Z</time>
      </trkpt>
      <trkpt lat="45.29875" lon="5.48521">
        <ele>220.5</ele>
        <time>2022-04-28T10:45:46Z</time>
      </trkpt>
      <trkpt lat="45.29872" lon="5.48519">
        <ele>220.7</ele>
        <time>2022-04-28T10:45:47Z</time>
      </trkpt>
      <trkpt lat="45.29865" lon="5.48516">
        <ele>221</ele>
        <time>2022-04-28T10:45:49Z</time>
      </trkpt>
      <trkpt lat="45.29862" lon="5.48514">
        <ele>221.3</ele>
        <time>2022-04-28T10:45:50Z</time>
      </trkpt>
      <trkpt lat="45.29858" lon="5.48512">
        <ele>221.4</ele>
        <time>2022-04-28T10:45:51Z</time>
      </trkpt>
      <trkpt lat="45.29853" lon="5.4851">
        <ele>221.8</ele>
        <time>2022-04-28T10:45:53Z</time>
      </trkpt>
      <trkpt lat="45.2985" lon="5.48508">
        <ele>221.9</ele>
        <time>2022-04-28T10:45:54Z</time>
      </trkpt>
      <trkpt lat="45.29846" lon="5.48507">
        <ele>222.2</ele>
        <time>2022-04-28T10:45:55Z</time>
      </trkpt>
      <trkpt lat="45.29842" lon="5.48505">
        <ele>222.4</ele>
        <time>2022-04-28T10:45:56Z</time>
      </trkpt>
      <trkpt lat="45.29839" lon="5.48504">
        <ele>222.6</ele>
        <time>2022-04-28T10:45:57Z</time>
      </trkpt>
      <trkpt lat="45.29836" lon="5.48502">
        <ele>222.7</ele>
        <time>2022-04-28T10:45:58Z</time>
      </trkpt>
      <trkpt lat="45.29833" lon="5.48502">
        <ele>222.8</ele>
        <time>2022-04-28T10:45:59Z</time>
      </trkpt>
      <trkpt lat="45.2983" lon="5.48501">
        <ele>222.9</ele>
        <time>2022-04-28T10:46:00Z</time>
      </trkpt>
      <trkpt lat="45.29826" lon="5.485">
        <ele>223</ele>
        <time>2022-04-28T10:46:01Z</time>
      </trkpt>
      <trkpt lat="45.29825" lon="5.485">
        <ele>223.1</ele>
        <time>2022-04-28T10:46:02Z</time>
      </trkpt>
      <trkpt lat="45.29821" lon="5.48499">
        <ele>223.2</ele>
        <time>2022-04-28T10:46:03Z</time>
      </trkpt>
      <trkpt lat="45.2982" lon="5.48498">
        <ele>223.3</ele>
        <time>2022-04-28T10:46:04Z</time>
      </trkpt>
      <trkpt lat="45.29817" lon="5.48498">
        <ele>223.4</ele>
        <time>2022-04-28T10:46:05Z</time>
      </trkpt>
      <trkpt lat="45.29815" lon="5.48497">
        <ele>223.4</ele>
        <time>2022-04-28T10:46:06Z</time>
      </trkpt>
      <trkpt lat="45.29812" lon="5.48495">
        <ele>223.6</ele>
        <time>2022-04-28T10:46:08Z</time>
      </trkpt>
      <trkpt lat="45.29807" lon="5.48493">
        <ele>223.8</ele>
        <time>2022-04-28T10:46:09Z</time>
      </trkpt>
      <trkpt lat="45.29804" lon="5.4849">
        <ele>223.9</ele>
        <time>2022-04-28T10:46:10Z</time>
      </trkpt>
      <trkpt lat="45.29802" lon="5.48485">
        <ele>224.2</ele>
        <time>2022-04-28T10:46:11Z</time>
      </trkpt>
      <trkpt lat="45.298" lon="5.48481">
        <ele>224.5</ele>
        <time>2022-04-28T10:46:12Z</time>
      </trkpt>
      <trkpt lat="45.29797" lon="5.48476">
        <ele>224.7</ele>
        <time>2022-04-28T10:46:13Z</time>
      </trkpt>
      <trkpt lat="45.29797" lon="5.48474">
        <ele>224.8</ele>
        <time>2022-04-28T10:46:14Z</time>
      </trkpt>
      <trkpt lat="45.29794" lon="5.48466">
        <ele>225.3</ele>
        <time>2022-04-28T10:46:16Z</time>
      </trkpt>
      <trkpt lat="45.29794" lon="5.48462">
        <ele>225.5</ele>
        <time>2022-04-28T10:46:17Z</time>
      </trkpt>
      <trkpt lat="45.29793" lon="5.48457">
        <ele>225.8</ele>
        <time>2022-04-28T10:46:18Z</time>
      </trkpt>
      <trkpt lat="45.29793" lon="5.48455">
        <ele>225.8</ele>
        <time>2022-04-28T10:46:19Z</time>
      </trkpt>
      <trkpt lat="45.29792" lon="5.4845">
        <ele>226.1</ele>
        <time>2022-04-28T10:46:20Z</time>
      </trkpt>
      <trkpt lat="45.29792" lon="5.48448">
        <ele>226.2</ele>
        <time>2022-04-28T10:46:21Z</time>
      </trkpt>
      <trkpt lat="45.29792" lon="5.48444">
        <ele>226.4</ele>
        <time>2022-04-28T10:46:22Z</time>
      </trkpt>
      <trkpt lat="45.29792" lon="5.48443">
        <ele>226.5</ele>
        <time>2022-04-28T10:46:23Z</time>
      </trkpt>
      <trkpt lat="45.29792" lon="5.48438">
        <ele>226.8</ele>
        <time>2022-04-28T10:46:24Z</time>
      </trkpt>
      <trkpt lat="45.29792" lon="5.48436">
        <ele>227</ele>
        <time>2022-04-28T10:46:25Z</time>
      </trkpt>
      <trkpt lat="45.2979" lon="5.4843">
        <ele>227.3</ele>
        <time>2022-04-28T10:46:26Z</time>
      </trkpt>
      <trkpt lat="45.2979" lon="5.48429">
        <ele>227.4</ele>
        <time>2022-04-28T10:46:27Z</time>
      </trkpt>
      <trkpt lat="45.29787" lon="5.48425">
        <ele>227.7</ele>
        <time>2022-04-28T10:46:28Z</time>
      </trkpt>
      <trkpt lat="45.29785" lon="5.48422">
        <ele>228</ele>
        <time>2022-04-28T10:46:29Z</time>
      </trkpt>
      <trkpt lat="45.29783" lon="5.4842">
        <ele>228.2</ele>
        <time>2022-04-28T10:46:30Z</time>
      </trkpt>
      <trkpt lat="45.29781" lon="5.48416">
        <ele>228.5</ele>
        <time>2022-04-28T10:46:31Z</time>
      </trkpt>
      <trkpt lat="45.2978" lon="5.48411">
        <ele>228.8</ele>
        <time>2022-04-28T10:46:32Z</time>
      </trkpt>
      <trkpt lat="45.2978" lon="5.48409">
        <ele>228.9</ele>
        <time>2022-04-28T10:46:33Z</time>
      </trkpt>
      <trkpt lat="45.29781" lon="5.48406">
        <ele>229.1</ele>
        <time>2022-04-28T10:46:34Z</time>
      </trkpt>
      <trkpt lat="45.29782" lon="5.48401">
        <ele>229.4</ele>
        <time>2022-04-28T10:46:35Z</time>
      </trkpt>
      <trkpt lat="45.29783" lon="5.48396">
        <ele>229.7</ele>
        <time>2022-04-28T10:46:36Z</time>
      </trkpt>
      <trkpt lat="45.29785" lon="5.48392">
        <ele>230</ele>
        <time>2022-04-28T10:46:37Z</time>
      </trkpt>
      <trkpt lat="45.29787" lon="5.48387">
        <ele>230.3</ele>
        <time>2022-04-28T10:46:38Z</time>
      </trkpt>
      <trkpt lat="45.29788" lon="5.48383">
        <ele>230.5</ele>
        <time>2022-04-28T10:46:39Z</time>
      </trkpt>
      <trkpt lat="45.29789" lon="5.48379">
        <ele>230.8</ele>
        <time>2022-04-28T10:46:40Z</time>
      </trkpt>
      <trkpt lat="45.2979" lon="5.48375">
        <ele>231</ele>
        <time>2022-04-28T10:46:41Z</time>
      </trkpt>
      <trkpt lat="45.29791" lon="5.4837">
        <ele>231.3</ele>
        <time>2022-04-28T10:46:42Z</time>
      </trkpt>
      <trkpt lat="45.29792" lon="5.48366">
        <ele>231.5</ele>
        <time>2022-04-28T10:46:43Z</time>
      </trkpt>
      <trkpt lat="45.29793" lon="5.4836">
        <ele>231.9</ele>
        <time>2022-04-28T10:46:44Z</time>
      </trkpt>
      <trkpt lat="45.29793" lon="5.48359">
        <ele>232</ele>
        <time>2022-04-28T10:46:45Z</time>
      </trkpt>
      <trkpt lat="45.29795" lon="5.48355">
        <ele>232.1</ele>
        <time>2022-04-28T10:46:46Z</time>
      </trkpt>
      <trkpt lat="45.29798" lon="5.48351">
        <ele>232.3</ele>
        <time>2022-04-28T10:46:48Z</time>
      </trkpt>
      <trkpt lat="45.29799" lon="5.48347">
        <ele>232.6</ele>
        <time>2022-04-28T10:46:49Z</time>
      </trkpt>
      <trkpt lat="45.29801" lon="5.48343">
        <ele>232.8</ele>
        <time>2022-04-28T10:46:50Z</time>
      </trkpt>
      <trkpt lat="45.29803" lon="5.48338">
        <ele>233.1</ele>
        <time>2022-04-28T10:46:51Z</time>
      </trkpt>
      <trkpt lat="45.29804" lon="5.48337">
        <ele>233.2</ele>
        <time>2022-04-28T10:46:52Z</time>
      </trkpt>
      <trkpt lat="45.29805" lon="5.48332">
        <ele>233.4</ele>
        <time>2022-04-28T10:46:54Z</time>
      </trkpt>
      <trkpt lat="45.29806" lon="5.48328">
        <ele>233.6</ele>
        <time>2022-04-28T10:46:55Z</time>
      </trkpt>
      <trkpt lat="45.29806" lon="5.48324">
        <ele>233.8</ele>
        <time>2022-04-28T10:46:56Z</time>
      </trkpt>
      <trkpt lat="45.29805" lon="5.48318">
        <ele>234</ele>
        <time>2022-04-28T10:46:57Z</time>
      </trkpt>
      <trkpt lat="45.29806" lon="5.48316">
        <ele>234.1</ele>
        <time>2022-04-28T10:46:58Z</time>
      </trkpt>
      <trkpt lat="45.29808" lon="5.48313">
        <ele>234.3</ele>
        <time>2022-04-28T10:46:59Z</time>
      </trkpt>
      <trkpt lat="45.29812" lon="5.48312">
        <ele>234.5</ele>
        <time>2022-04-28T10:47:00Z</time>
      </trkpt>
      <trkpt lat="45.29812" lon="5.48313">
        <ele>234.6</ele>
        <time>2022-04-28T10:47:01Z</time>
      </trkpt>
      <trkpt lat="45.29813" lon="5.48313">
        <ele>234.6</ele>
        <time>2022-04-28T10:47:02Z</time>
      </trkpt>
      <trkpt lat="45.29814" lon="5.48313">
        <ele>234.7</ele>
        <time>2022-04-28T10:47:03Z</time>
      </trkpt>
      <trkpt lat="45.29818" lon="5.48309">
        <ele>235</ele>
        <time>2022-04-28T10:47:05Z</time>
      </trkpt>
      <trkpt lat="45.29821" lon="5.48306">
        <ele>235.3</ele>
        <time>2022-04-28T10:47:06Z</time>
      </trkpt>
      <trkpt lat="45.29825" lon="5.48303">
        <ele>235.5</ele>
        <time>2022-04-28T10:47:07Z</time>
      </trkpt>
      <trkpt lat="45.29828" lon="5.48301">
        <ele>235.8</ele>
        <time>2022-04-28T10:47:08Z</time>
      </trkpt>
      <trkpt lat="45.2983" lon="5.483">
        <ele>235.9</ele>
        <time>2022-04-28T10:47:09Z</time>
      </trkpt>
      <trkpt lat="45.29833" lon="5.48297">
        <ele>236.2</ele>
        <time>2022-04-28T10:47:11Z</time>
      </trkpt>
      <trkpt lat="45.29837" lon="5.48294">
        <ele>236.4</ele>
        <time>2022-04-28T10:47:12Z</time>
      </trkpt>
      <trkpt lat="45.29839" lon="5.48293">
        <ele>236.6</ele>
        <time>2022-04-28T10:47:13Z</time>
      </trkpt>
      <trkpt lat="45.29842" lon="5.4829">
        <ele>236.9</ele>
        <time>2022-04-28T10:47:14Z</time>
      </trkpt>
      <trkpt lat="45.29845" lon="5.48287">
        <ele>237.1</ele>
        <time>2022-04-28T10:47:15Z</time>
      </trkpt>
      <trkpt lat="45.29847" lon="5.48285">
        <ele>237.3</ele>
        <time>2022-04-28T10:47:16Z</time>
      </trkpt>
      <trkpt lat="45.2985" lon="5.48282">
        <ele>237.6</ele>
        <time>2022-04-28T10:47:17Z</time>
      </trkpt>
      <trkpt lat="45.29853" lon="5.48279">
        <ele>237.8</ele>
        <time>2022-04-28T10:47:18Z</time>
      </trkpt>
      <trkpt lat="45.29853" lon="5.48279">
        <ele>237.9</ele>
        <time>2022-04-28T10:47:19Z</time>
      </trkpt>
      <trkpt lat="45.29859" lon="5.48275">
        <ele>238.4</ele>
        <time>2022-04-28T10:47:21Z</time>
      </trkpt>
      <trkpt lat="45.29862" lon="5.48273">
        <ele>238.7</ele>
        <time>2022-04-28T10:47:22Z</time>
      </trkpt>
      <trkpt lat="45.29865" lon="5.48271">
        <ele>239</ele>
        <time>2022-04-28T10:47:23Z</time>
      </trkpt>
      <trkpt lat="45.29866" lon="5.4827">
        <ele>239</ele>
        <time>2022-04-28T10:47:24Z</time>
      </trkpt>
      <trkpt lat="45.29869" lon="5.48268">
        <ele>239.3</ele>
        <time>2022-04-28T10:47:25Z</time>
      </trkpt>
      <trkpt lat="45.29871" lon="5.48265">
        <ele>239.6</ele>
        <time>2022-04-28T10:47:26Z</time>
      </trkpt>
      <trkpt lat="45.29872" lon="5.48265">
        <ele>239.7</ele>
        <time>2022-04-28T10:47:27Z</time>
      </trkpt>
      <trkpt lat="45.29873" lon="5.48263">
        <ele>239.8</ele>
        <time>2022-04-28T10:47:28Z</time>
      </trkpt>
      <trkpt lat="45.29875" lon="5.4826">
        <ele>240.2</ele>
        <time>2022-04-28T10:47:30Z</time>
      </trkpt>
      <trkpt lat="45.29878" lon="5.48257">
        <ele>240.7</ele>
        <time>2022-04-28T10:47:31Z</time>
      </trkpt>
      <trkpt lat="45.2988" lon="5.48254">
        <ele>241.2</ele>
        <time>2022-04-28T10:47:32Z</time>
      </trkpt>
      <trkpt lat="45.2988" lon="5.48253">
        <ele>241.3</ele>
        <time>2022-04-28T10:47:33Z</time>
      </trkpt>
      <trkpt lat="45.29883" lon="5.4825">
        <ele>241.8</ele>
        <time>2022-04-28T10:47:34Z</time>
      </trkpt>
      <trkpt lat="45.29883" lon="5.48249">
        <ele>241.9</ele>
        <time>2022-04-28T10:47:35Z</time>
      </trkpt>
      <trkpt lat="45.29884" lon="5.48246">
        <ele>242.2</ele>
        <time>2022-04-28T10:47:36Z</time>
      </trkpt>
      <trkpt lat="45.29886" lon="5.48243">
        <ele>242.7</ele>
        <time>2022-04-28T10:47:38Z</time>
      </trkpt>
      <trkpt lat="45.29889" lon="5.4824">
        <ele>243.2</ele>
        <time>2022-04-28T10:47:39Z</time>
      </trkpt>
      <trkpt lat="45.29891" lon="5.48237">
        <ele>243</ele>
        <time>2022-04-28T10:47:40Z</time>
      </trkpt>
      <trkpt lat="45.29892" lon="5.48235">
        <ele>243.1</ele>
        <time>2022-04-28T10:47:41Z</time>
      </trkpt>
      <trkpt lat="45.29894" lon="5.48233">
        <ele>243.3</ele>
        <time>2022-04-28T10:47:42Z</time>
      </trkpt>
      <trkpt lat="45.29895" lon="5.48232">
        <ele>243.4</ele>
        <time>2022-04-28T10:47:43Z</time>
      </trkpt>
      <trkpt lat="45.29898" lon="5.48229">
        <ele>243.7</ele>
        <time>2022-04-28T10:47:44Z</time>
      </trkpt>
      <trkpt lat="45.29899" lon="5.48229">
        <ele>243.8</ele>
        <time>2022-04-28T10:47:45Z</time>
      </trkpt>
      <trkpt lat="45.29901" lon="5.48227">
        <ele>244</ele>
        <time>2022-04-28T10:47:46Z</time>
      </trkpt>
      <trkpt lat="45.29902" lon="5.48226">
        <ele>244.1</ele>
        <time>2022-04-28T10:47:47Z</time>
      </trkpt>
      <trkpt lat="45.29904" lon="5.48223">
        <ele>244.3</ele>
        <time>2022-04-28T10:47:48Z</time>
      </trkpt>
      <trkpt lat="45.29905" lon="5.48223">
        <ele>244.4</ele>
        <time>2022-04-28T10:47:49Z</time>
      </trkpt>
      <trkpt lat="45.29907" lon="5.4822">
        <ele>244.6</ele>
        <time>2022-04-28T10:47:50Z</time>
      </trkpt>
      <trkpt lat="45.29908" lon="5.48219">
        <ele>244.7</ele>
        <time>2022-04-28T10:47:51Z</time>
      </trkpt>
      <trkpt lat="45.29909" lon="5.48218">
        <ele>244.9</ele>
        <time>2022-04-28T10:47:52Z</time>
      </trkpt>
      <trkpt lat="45.2991" lon="5.48216">
        <ele>245</ele>
        <time>2022-04-28T10:47:53Z</time>
      </trkpt>
      <trkpt lat="45.29912" lon="5.48213">
        <ele>245.3</ele>
        <time>2022-04-28T10:47:54Z</time>
      </trkpt>
      <trkpt lat="45.29913" lon="5.48212">
        <ele>245.4</ele>
        <time>2022-04-28T10:47:55Z</time>
      </trkpt>
      <trkpt lat="45.29914" lon="5.48209">
        <ele>245.5</ele>
        <time>2022-04-28T10:47:56Z</time>
      </trkpt>
      <trkpt lat="45.29915" lon="5.48208">
        <ele>245.7</ele>
        <time>2022-04-28T10:47:57Z</time>
      </trkpt>
      <trkpt lat="45.29916" lon="5.48206">
        <ele>245.8</ele>
        <time>2022-04-28T10:47:58Z</time>
      </trkpt>
      <trkpt lat="45.29917" lon="5.48205">
        <ele>245.9</ele>
        <time>2022-04-28T10:47:59Z</time>
      </trkpt>
      <trkpt lat="45.29919" lon="5.48203">
        <ele>246.1</ele>
        <time>2022-04-28T10:48:00Z</time>
      </trkpt>
      <trkpt lat="45.2992" lon="5.48202">
        <ele>246.2</ele>
        <time>2022-04-28T10:48:01Z</time>
      </trkpt>
      <trkpt lat="45.29922" lon="5.48201">
        <ele>246.4</ele>
        <time>2022-04-28T10:48:02Z</time>
      </trkpt>
      <trkpt lat="45.29923" lon="5.48199">
        <ele>246.5</ele>
        <time>2022-04-28T10:48:03Z</time>
      </trkpt>
      <trkpt lat="45.29926" lon="5.48197">
        <ele>246.8</ele>
        <time>2022-04-28T10:48:04Z</time>
      </trkpt>
      <trkpt lat="45.29926" lon="5.48196">
        <ele>246.8</ele>
        <time>2022-04-28T10:48:05Z</time>
      </trkpt>
      <trkpt lat="45.29929" lon="5.48194">
        <ele>247.1</ele>
        <time>2022-04-28T10:48:06Z</time>
      </trkpt>
      <trkpt lat="45.2993" lon="5.48193">
        <ele>247.2</ele>
        <time>2022-04-28T10:48:07Z</time>
      </trkpt>
      <trkpt lat="45.29934" lon="5.4819">
        <ele>247.5</ele>
        <time>2022-04-28T10:48:08Z</time>
      </trkpt>
      <trkpt lat="45.29935" lon="5.4819">
        <ele>247.6</ele>
        <time>2022-04-28T10:48:09Z</time>
      </trkpt>
      <trkpt lat="45.29938" lon="5.48187">
        <ele>247.9</ele>
        <time>2022-04-28T10:48:10Z</time>
      </trkpt>
      <trkpt lat="45.29939" lon="5.48186">
        <ele>248</ele>
        <time>2022-04-28T10:48:11Z</time>
      </trkpt>
      <trkpt lat="45.29941" lon="5.48184">
        <ele>248.3</ele>
        <time>2022-04-28T10:48:12Z</time>
      </trkpt>
      <trkpt lat="45.29942" lon="5.48183">
        <ele>248.4</ele>
        <time>2022-04-28T10:48:13Z</time>
      </trkpt>
      <trkpt lat="45.29944" lon="5.48181">
        <ele>248.6</ele>
        <time>2022-04-28T10:48:14Z</time>
      </trkpt>
      <trkpt lat="45.29945" lon="5.48179">
        <ele>248.8</ele>
        <time>2022-04-28T10:48:16Z</time>
      </trkpt>
      <trkpt lat="45.29947" lon="5.48177">
        <ele>249</ele>
        <time>2022-04-28T10:48:17Z</time>
      </trkpt>
      <trkpt lat="45.2995" lon="5.48173">
        <ele>249.3</ele>
        <time>2022-04-28T10:48:19Z</time>
      </trkpt>
      <trkpt lat="45.29951" lon="5.48171">
        <ele>249.5</ele>
        <time>2022-04-28T10:48:20Z</time>
      </trkpt>
      <trkpt lat="45.29952" lon="5.48169">
        <ele>249.6</ele>
        <time>2022-04-28T10:48:22Z</time>
      </trkpt>
      <trkpt lat="45.29952" lon="5.48168">
        <ele>249.7</ele>
        <time>2022-04-28T10:48:23Z</time>
      </trkpt>
      <trkpt lat="45.29953" lon="5.48167">
        <ele>249.8</ele>
        <time>2022-04-28T10:48:24Z</time>
      </trkpt>
      <trkpt lat="45.29953" lon="5.48167">
        <ele>249.8</ele>
        <time>2022-04-28T10:48:25Z</time>
      </trkpt>
      <trkpt lat="45.29953" lon="5.48167">
        <ele>249.8</ele>
        <time>2022-04-28T10:48:26Z</time>
      </trkpt>
      <trkpt lat="45.29953" lon="5.48167">
        <ele>249.8</ele>
        <time>2022-04-28T10:48:27Z</time>
      </trkpt>
      <trkpt lat="45.29953" lon="5.48167">
        <ele>249.8</ele>
        <time>2022-04-28T10:48:28Z</time>
      </trkpt>
      <trkpt lat="45.29953" lon="5.48167">
        <ele>249.8</ele>
        <time>2022-04-28T10:48:29Z</time>
      </trkpt>
      <trkpt lat="45.29953" lon="5.48167">
        <ele>249.8</ele>
        <time>2022-04-28T10:48:30Z</time>
      </trkpt>
      <trkpt lat="45.29953" lon="5.48167">
        <ele>249.8</ele>
        <time>2022-04-28T10:48:31Z</time>
      </trkpt>
      <trkpt lat="45.29953" lon="5.48167">
        <ele>249.8</ele>
        <time>2022-04-28T10:48:32Z</time>
      </trkpt>
      <trkpt lat="45.29953" lon="5.48166">
        <ele>249.9</ele>
        <time>2022-04-28T10:48:33Z</time>
      </trkpt>
      <trkpt lat="45.29953" lon="5.48166">
        <ele>249.9</ele>
        <time>2022-04-28T10:48:59Z</time>
      </trkpt>
      <trkpt lat="45.29953" lon="5.48165">
        <ele>250</ele>
        <time>2022-04-28T10:49:00Z</time>
      </trkpt>
      <trkpt lat="45.29953" lon="5.48164">
        <ele>250</ele>
        <time>2022-04-28T10:49:01Z</time>
      </trkpt>
      <trkpt lat="45.29953" lon="5.48162">
        <ele>250.2</ele>
        <time>2022-04-28T10:49:02Z</time>
      </trkpt>
      <trkpt lat="45.29954" lon="5.48158">
        <ele>250.5</ele>
        <time>2022-04-28T10:49:04Z</time>
      </trkpt>
      <trkpt lat="45.29956" lon="5.48155">
        <ele>250.8</ele>
        <time>2022-04-28T10:49:05Z</time>
      </trkpt>
      <trkpt lat="45.29958" lon="5.48151">
        <ele>251.1</ele>
        <time>2022-04-28T10:49:06Z</time>
      </trkpt>
      <trkpt lat="45.29959" lon="5.48147">
        <ele>251.4</ele>
        <time>2022-04-28T10:49:07Z</time>
      </trkpt>
      <trkpt lat="45.2996" lon="5.48145">
        <ele>251.5</ele>
        <time>2022-04-28T10:49:08Z</time>
      </trkpt>
      <trkpt lat="45.29961" lon="5.48142">
        <ele>251.9</ele>
        <time>2022-04-28T10:49:09Z</time>
      </trkpt>
      <trkpt lat="45.29962" lon="5.48141">
        <ele>252</ele>
        <time>2022-04-28T10:49:10Z</time>
      </trkpt>
      <trkpt lat="45.29964" lon="5.48137">
        <ele>252.3</ele>
        <time>2022-04-28T10:49:11Z</time>
      </trkpt>
      <trkpt lat="45.29964" lon="5.48135">
        <ele>252.4</ele>
        <time>2022-04-28T10:49:12Z</time>
      </trkpt>
      <trkpt lat="45.29966" lon="5.48131">
        <ele>252.7</ele>
        <time>2022-04-28T10:49:13Z</time>
      </trkpt>
      <trkpt lat="45.29966" lon="5.4813">
        <ele>252.8</ele>
        <time>2022-04-28T10:49:14Z</time>
      </trkpt>
      <trkpt lat="45.29968" lon="5.48126">
        <ele>253.2</ele>
        <time>2022-04-28T10:49:15Z</time>
      </trkpt>
      <trkpt lat="45.29969" lon="5.48125">
        <ele>253.3</ele>
        <time>2022-04-28T10:49:16Z</time>
      </trkpt>
      <trkpt lat="45.29971" lon="5.48121">
        <ele>253.7</ele>
        <time>2022-04-28T10:49:17Z</time>
      </trkpt>
      <trkpt lat="45.29972" lon="5.4812">
        <ele>253.8</ele>
        <time>2022-04-28T10:49:18Z</time>
      </trkpt>
      <trkpt lat="45.29974" lon="5.48116">
        <ele>254.2</ele>
        <time>2022-04-28T10:49:19Z</time>
      </trkpt>
      <trkpt lat="45.29975" lon="5.48115">
        <ele>254.3</ele>
        <time>2022-04-28T10:49:20Z</time>
      </trkpt>
      <trkpt lat="45.29977" lon="5.48111">
        <ele>254.7</ele>
        <time>2022-04-28T10:49:21Z</time>
      </trkpt>
      <trkpt lat="45.29978" lon="5.4811">
        <ele>254.8</ele>
        <time>2022-04-28T10:49:22Z</time>
      </trkpt>
      <trkpt lat="45.29981" lon="5.48108">
        <ele>255.1</ele>
        <time>2022-04-28T10:49:23Z</time>
      </trkpt>
      <trkpt lat="45.29981" lon="5.48107">
        <ele>255.2</ele>
        <time>2022-04-28T10:49:24Z</time>
      </trkpt>
      <trkpt lat="45.29983" lon="5.48106">
        <ele>255.3</ele>
        <time>2022-04-28T10:49:25Z</time>
      </trkpt>
      <trkpt lat="45.29984" lon="5.48105">
        <ele>255.5</ele>
        <time>2022-04-28T10:49:26Z</time>
      </trkpt>
      <trkpt lat="45.29986" lon="5.48104">
        <ele>255.7</ele>
        <time>2022-04-28T10:49:27Z</time>
      </trkpt>
      <trkpt lat="45.29987" lon="5.48104">
        <ele>255.9</ele>
        <time>2022-04-28T10:49:28Z</time>
      </trkpt>
      <trkpt lat="45.29989" lon="5.48102">
        <ele>256.1</ele>
        <time>2022-04-28T10:49:29Z</time>
      </trkpt>
      <trkpt lat="45.2999" lon="5.481">
        <ele>256.3</ele>
        <time>2022-04-28T10:49:30Z</time>
      </trkpt>
      <trkpt lat="45.29991" lon="5.48098">
        <ele>256.5</ele>
        <time>2022-04-28T10:49:31Z</time>
      </trkpt>
      <trkpt lat="45.29992" lon="5.48097">
        <ele>256.7</ele>
        <time>2022-04-28T10:49:32Z</time>
      </trkpt>
      <trkpt lat="45.29993" lon="5.48093">
        <ele>257</ele>
        <time>2022-04-28T10:49:33Z</time>
      </trkpt>
      <trkpt lat="45.29994" lon="5.48092">
        <ele>257.1</ele>
        <time>2022-04-28T10:49:34Z</time>
      </trkpt>
      <trkpt lat="45.29995" lon="5.48088">
        <ele>257.4</ele>
        <time>2022-04-28T10:49:35Z</time>
      </trkpt>
      <trkpt lat="45.29996" lon="5.48086">
        <ele>257.6</ele>
        <time>2022-04-28T10:49:36Z</time>
      </trkpt>
      <trkpt lat="45.29996" lon="5.48084">
        <ele>257.8</ele>
        <time>2022-04-28T10:49:37Z</time>
      </trkpt>
      <trkpt lat="45.29996" lon="5.48081">
        <ele>258</ele>
        <time>2022-04-28T10:49:38Z</time>
      </trkpt>
      <trkpt lat="45.29995" lon="5.48076">
        <ele>258.1</ele>
        <time>2022-04-28T10:49:40Z</time>
      </trkpt>
      <trkpt lat="45.29996" lon="5.48073">
        <ele>258.4</ele>
        <time>2022-04-28T10:49:41Z</time>
      </trkpt>
      <trkpt lat="45.29996" lon="5.48072">
        <ele>258.4</ele>
        <time>2022-04-28T10:49:42Z</time>
      </trkpt>
      <trkpt lat="45.29996" lon="5.4807">
        <ele>258.6</ele>
        <time>2022-04-28T10:49:43Z</time>
      </trkpt>
      <trkpt lat="45.29996" lon="5.48068">
        <ele>258.8</ele>
        <time>2022-04-28T10:49:44Z</time>
      </trkpt>
      <trkpt lat="45.29996" lon="5.48066">
        <ele>258.9</ele>
        <time>2022-04-28T10:49:45Z</time>
      </trkpt>
      <trkpt lat="45.29996" lon="5.48062">
        <ele>259.2</ele>
        <time>2022-04-28T10:49:46Z</time>
      </trkpt>
      <trkpt lat="45.29995" lon="5.48061">
        <ele>259.3</ele>
        <time>2022-04-28T10:49:47Z</time>
      </trkpt>
      <trkpt lat="45.29995" lon="5.48056">
        <ele>259.6</ele>
        <time>2022-04-28T10:49:48Z</time>
      </trkpt>
      <trkpt lat="45.29994" lon="5.48055">
        <ele>259.8</ele>
        <time>2022-04-28T10:49:49Z</time>
      </trkpt>
      <trkpt lat="45.29993" lon="5.4805">
        <ele>260.1</ele>
        <time>2022-04-28T10:49:50Z</time>
      </trkpt>
      <trkpt lat="45.29993" lon="5.48048">
        <ele>260.3</ele>
        <time>2022-04-28T10:49:51Z</time>
      </trkpt>
      <trkpt lat="45.29992" lon="5.48045">
        <ele>260.5</ele>
        <time>2022-04-28T10:49:52Z</time>
      </trkpt>
      <trkpt lat="45.2999" lon="5.48041">
        <ele>260.8</ele>
        <time>2022-04-28T10:49:54Z</time>
      </trkpt>
      <trkpt lat="45.29989" lon="5.48038">
        <ele>261</ele>
        <time>2022-04-28T10:49:55Z</time>
      </trkpt>
      <trkpt lat="45.29988" lon="5.48034">
        <ele>261.3</ele>
        <time>2022-04-28T10:49:56Z</time>
      </trkpt>
      <trkpt lat="45.29987" lon="5.48032">
        <ele>261.4</ele>
        <time>2022-04-28T10:49:57Z</time>
      </trkpt>
      <trkpt lat="45.29985" lon="5.48028">
        <ele>261.8</ele>
        <time>2022-04-28T10:49:59Z</time>
      </trkpt>
      <trkpt lat="45.29983" lon="5.48026">
        <ele>262</ele>
        <time>2022-04-28T10:50:00Z</time>
      </trkpt>
      <trkpt lat="45.29982" lon="5.48025">
        <ele>262.1</ele>
        <time>2022-04-28T10:50:01Z</time>
      </trkpt>
      <trkpt lat="45.29979" lon="5.48022">
        <ele>262.4</ele>
        <time>2022-04-28T10:50:02Z</time>
      </trkpt>
      <trkpt lat="45.29979" lon="5.48021">
        <ele>262.5</ele>
        <time>2022-04-28T10:50:03Z</time>
      </trkpt>
      <trkpt lat="45.29977" lon="5.4802">
        <ele>262.6</ele>
        <time>2022-04-28T10:50:04Z</time>
      </trkpt>
      <trkpt lat="45.29976" lon="5.48019">
        <ele>262.8</ele>
        <time>2022-04-28T10:50:05Z</time>
      </trkpt>
      <trkpt lat="45.29974" lon="5.48018">
        <ele>262.9</ele>
        <time>2022-04-28T10:50:06Z</time>
      </trkpt>
      <trkpt lat="45.29971" lon="5.48015">
        <ele>263.2</ele>
        <time>2022-04-28T10:50:08Z</time>
      </trkpt>
      <trkpt lat="45.29968" lon="5.48013">
        <ele>263.5</ele>
        <time>2022-04-28T10:50:09Z</time>
      </trkpt>
      <trkpt lat="45.29968" lon="5.48012">
        <ele>263.6</ele>
        <time>2022-04-28T10:50:10Z</time>
      </trkpt>
      <trkpt lat="45.29965" lon="5.4801">
        <ele>263.8</ele>
        <time>2022-04-28T10:50:11Z</time>
      </trkpt>
      <trkpt lat="45.29965" lon="5.48009">
        <ele>263.9</ele>
        <time>2022-04-28T10:50:12Z</time>
      </trkpt>
      <trkpt lat="45.29962" lon="5.48006">
        <ele>264.2</ele>
        <time>2022-04-28T10:50:13Z</time>
      </trkpt>
      <trkpt lat="45.29962" lon="5.48006">
        <ele>264.3</ele>
        <time>2022-04-28T10:50:14Z</time>
      </trkpt>
      <trkpt lat="45.2996" lon="5.48003">
        <ele>264.5</ele>
        <time>2022-04-28T10:50:15Z</time>
      </trkpt>
      <trkpt lat="45.29959" lon="5.48002">
        <ele>264.6</ele>
        <time>2022-04-28T10:50:16Z</time>
      </trkpt>
      <trkpt lat="45.29957" lon="5.47999">
        <ele>264.9</ele>
        <time>2022-04-28T10:50:17Z</time>
      </trkpt>
      <trkpt lat="45.29956" lon="5.47998">
        <ele>265</ele>
        <time>2022-04-28T10:50:18Z</time>
      </trkpt>
      <trkpt lat="45.29953" lon="5.47995">
        <ele>265.3</ele>
        <time>2022-04-28T10:50:19Z</time>
      </trkpt>
      <trkpt lat="45.29953" lon="5.47994">
        <ele>265.4</ele>
        <time>2022-04-28T10:50:20Z</time>
      </trkpt>
      <trkpt lat="45.2995" lon="5.4799">
        <ele>265.8</ele>
        <time>2022-04-28T10:50:22Z</time>
      </trkpt>
      <trkpt lat="45.29948" lon="5.47986">
        <ele>266</ele>
        <time>2022-04-28T10:50:23Z</time>
      </trkpt>
      <trkpt lat="45.29948" lon="5.47985">
        <ele>266.1</ele>
        <time>2022-04-28T10:50:24Z</time>
      </trkpt>
      <trkpt lat="45.29946" lon="5.47983">
        <ele>266.3</ele>
        <time>2022-04-28T10:50:25Z</time>
      </trkpt>
      <trkpt lat="45.29945" lon="5.47982">
        <ele>266.4</ele>
        <time>2022-04-28T10:50:26Z</time>
      </trkpt>
      <trkpt lat="45.29944" lon="5.47979">
        <ele>266.7</ele>
        <time>2022-04-28T10:50:27Z</time>
      </trkpt>
      <trkpt lat="45.29943" lon="5.47978">
        <ele>266.8</ele>
        <time>2022-04-28T10:50:28Z</time>
      </trkpt>
      <trkpt lat="45.29941" lon="5.47974">
        <ele>267.1</ele>
        <time>2022-04-28T10:50:30Z</time>
      </trkpt>
      <trkpt lat="45.29939" lon="5.47972">
        <ele>267.4</ele>
        <time>2022-04-28T10:50:31Z</time>
      </trkpt>
      <trkpt lat="45.29936" lon="5.47969">
        <ele>267.8</ele>
        <time>2022-04-28T10:50:33Z</time>
      </trkpt>
      <trkpt lat="45.29935" lon="5.47968">
        <ele>267.9</ele>
        <time>2022-04-28T10:50:34Z</time>
      </trkpt>
      <trkpt lat="45.29934" lon="5.47965">
        <ele>268.1</ele>
        <time>2022-04-28T10:50:35Z</time>
      </trkpt>
      <trkpt lat="45.29932" lon="5.47962">
        <ele>268.4</ele>
        <time>2022-04-28T10:50:36Z</time>
      </trkpt>
      <trkpt lat="45.29931" lon="5.47961">
        <ele>268.5</ele>
        <time>2022-04-28T10:50:37Z</time>
      </trkpt>
      <trkpt lat="45.2993" lon="5.47959">
        <ele>268.7</ele>
        <time>2022-04-28T10:50:38Z</time>
      </trkpt>
      <trkpt lat="45.29926" lon="5.47956">
        <ele>269.1</ele>
        <time>2022-04-28T10:50:40Z</time>
      </trkpt>
      <trkpt lat="45.29923" lon="5.47954">
        <ele>269.5</ele>
        <time>2022-04-28T10:50:42Z</time>
      </trkpt>
      <trkpt lat="45.2992" lon="5.47951">
        <ele>269.8</ele>
        <time>2022-04-28T10:50:43Z</time>
      </trkpt>
      <trkpt lat="45.29919" lon="5.4795">
        <ele>269.9</ele>
        <time>2022-04-28T10:50:44Z</time>
      </trkpt>
      <trkpt lat="45.29918" lon="5.47949">
        <ele>270.1</ele>
        <time>2022-04-28T10:50:45Z</time>
      </trkpt>
      <trkpt lat="45.29917" lon="5.47948">
        <ele>270.3</ele>
        <time>2022-04-28T10:50:46Z</time>
      </trkpt>
      <trkpt lat="45.29913" lon="5.47944">
        <ele>270.8</ele>
        <time>2022-04-28T10:50:48Z</time>
      </trkpt>
      <trkpt lat="45.29911" lon="5.47943">
        <ele>270.9</ele>
        <time>2022-04-28T10:50:49Z</time>
      </trkpt>
      <trkpt lat="45.2991" lon="5.47943">
        <ele>271.1</ele>
        <time>2022-04-28T10:50:50Z</time>
      </trkpt>
      <trkpt lat="45.29907" lon="5.47942">
        <ele>271.4</ele>
        <time>2022-04-28T10:50:51Z</time>
      </trkpt>
      <trkpt lat="45.29906" lon="5.47941">
        <ele>271.5</ele>
        <time>2022-04-28T10:50:52Z</time>
      </trkpt>
      <trkpt lat="45.29903" lon="5.4794">
        <ele>271.8</ele>
        <time>2022-04-28T10:50:53Z</time>
      </trkpt>
      <trkpt lat="45.29902" lon="5.47939">
        <ele>271.9</ele>
        <time>2022-04-28T10:50:54Z</time>
      </trkpt>
      <trkpt lat="45.29901" lon="5.47938">
        <ele>272.1</ele>
        <time>2022-04-28T10:50:55Z</time>
      </trkpt>
      <trkpt lat="45.29899" lon="5.47937">
        <ele>272.3</ele>
        <time>2022-04-28T10:50:56Z</time>
      </trkpt>
      <trkpt lat="45.29898" lon="5.47935">
        <ele>272.5</ele>
        <time>2022-04-28T10:50:57Z</time>
      </trkpt>
      <trkpt lat="45.29896" lon="5.47934">
        <ele>272.7</ele>
        <time>2022-04-28T10:50:58Z</time>
      </trkpt>
      <trkpt lat="45.29895" lon="5.47932">
        <ele>272.9</ele>
        <time>2022-04-28T10:50:59Z</time>
      </trkpt>
      <trkpt lat="45.29893" lon="5.4793">
        <ele>273.1</ele>
        <time>2022-04-28T10:51:01Z</time>
      </trkpt>
      <trkpt lat="45.29891" lon="5.47928">
        <ele>273.4</ele>
        <time>2022-04-28T10:51:02Z</time>
      </trkpt>
      <trkpt lat="45.29889" lon="5.47927">
        <ele>273.6</ele>
        <time>2022-04-28T10:51:03Z</time>
      </trkpt>
      <trkpt lat="45.29888" lon="5.47925">
        <ele>273.8</ele>
        <time>2022-04-28T10:51:04Z</time>
      </trkpt>
      <trkpt lat="45.29886" lon="5.47922">
        <ele>274.1</ele>
        <time>2022-04-28T10:51:06Z</time>
      </trkpt>
      <trkpt lat="45.29884" lon="5.47919">
        <ele>274.4</ele>
        <time>2022-04-28T10:51:07Z</time>
      </trkpt>
      <trkpt lat="45.29883" lon="5.47917">
        <ele>274.5</ele>
        <time>2022-04-28T10:51:08Z</time>
      </trkpt>
      <trkpt lat="45.29882" lon="5.47914">
        <ele>274.8</ele>
        <time>2022-04-28T10:51:09Z</time>
      </trkpt>
      <trkpt lat="45.29881" lon="5.47913">
        <ele>274.9</ele>
        <time>2022-04-28T10:51:10Z</time>
      </trkpt>
      <trkpt lat="45.2988" lon="5.47909">
        <ele>275.2</ele>
        <time>2022-04-28T10:51:11Z</time>
      </trkpt>
      <trkpt lat="45.29879" lon="5.47906">
        <ele>275.5</ele>
        <time>2022-04-28T10:51:12Z</time>
      </trkpt>
      <trkpt lat="45.29878" lon="5.47904">
        <ele>275.6</ele>
        <time>2022-04-28T10:51:13Z</time>
      </trkpt>
      <trkpt lat="45.29877" lon="5.479">
        <ele>275.9</ele>
        <time>2022-04-28T10:51:15Z</time>
      </trkpt>
      <trkpt lat="45.29875" lon="5.47898">
        <ele>276.1</ele>
        <time>2022-04-28T10:51:16Z</time>
      </trkpt>
      <trkpt lat="45.29874" lon="5.47897">
        <ele>276.3</ele>
        <time>2022-04-28T10:51:17Z</time>
      </trkpt>
      <trkpt lat="45.29873" lon="5.47895">
        <ele>276.5</ele>
        <time>2022-04-28T10:51:18Z</time>
      </trkpt>
      <trkpt lat="45.29872" lon="5.47893">
        <ele>276.7</ele>
        <time>2022-04-28T10:51:19Z</time>
      </trkpt>
      <trkpt lat="45.29869" lon="5.4789">
        <ele>277.1</ele>
        <time>2022-04-28T10:51:20Z</time>
      </trkpt>
      <trkpt lat="45.29868" lon="5.47889">
        <ele>277.2</ele>
        <time>2022-04-28T10:51:21Z</time>
      </trkpt>
      <trkpt lat="45.29868" lon="5.47887">
        <ele>277.3</ele>
        <time>2022-04-28T10:51:22Z</time>
      </trkpt>
      <trkpt lat="45.29867" lon="5.47884">
        <ele>277.5</ele>
        <time>2022-04-28T10:51:23Z</time>
      </trkpt>
      <trkpt lat="45.29865" lon="5.4788">
        <ele>277.9</ele>
        <time>2022-04-28T10:51:24Z</time>
      </trkpt>
      <trkpt lat="45.29865" lon="5.47879">
        <ele>278</ele>
        <time>2022-04-28T10:51:25Z</time>
      </trkpt>
      <trkpt lat="45.29863" lon="5.47875">
        <ele>278.3</ele>
        <time>2022-04-28T10:51:26Z</time>
      </trkpt>
      <trkpt lat="45.29863" lon="5.47874">
        <ele>278.4</ele>
        <time>2022-04-28T10:51:27Z</time>
      </trkpt>
      <trkpt lat="45.29861" lon="5.47871">
        <ele>278.7</ele>
        <time>2022-04-28T10:51:29Z</time>
      </trkpt>
      <trkpt lat="45.2986" lon="5.47868">
        <ele>278.9</ele>
        <time>2022-04-28T10:51:30Z</time>
      </trkpt>
      <trkpt lat="45.29859" lon="5.47864">
        <ele>279.2</ele>
        <time>2022-04-28T10:51:31Z</time>
      </trkpt>
      <trkpt lat="45.29858" lon="5.47863">
        <ele>279.3</ele>
        <time>2022-04-28T10:51:32Z</time>
      </trkpt>
      <trkpt lat="45.29858" lon="5.47861">
        <ele>279.5</ele>
        <time>2022-04-28T10:51:33Z</time>
      </trkpt>
      <trkpt lat="45.29857" lon="5.47859">
        <ele>279.7</ele>
        <time>2022-04-28T10:51:34Z</time>
      </trkpt>
      <trkpt lat="45.29856" lon="5.47857">
        <ele>279.8</ele>
        <time>2022-04-28T10:51:35Z</time>
      </trkpt>
      <trkpt lat="45.29854" lon="5.47855">
        <ele>280</ele>
        <time>2022-04-28T10:51:36Z</time>
      </trkpt>
      <trkpt lat="45.29852" lon="5.47852">
        <ele>280.3</ele>
        <time>2022-04-28T10:51:37Z</time>
      </trkpt>
      <trkpt lat="45.29851" lon="5.47852">
        <ele>280.4</ele>
        <time>2022-04-28T10:51:38Z</time>
      </trkpt>
      <trkpt lat="45.2985" lon="5.4785">
        <ele>280.6</ele>
        <time>2022-04-28T10:51:39Z</time>
      </trkpt>
      <trkpt lat="45.29849" lon="5.47848">
        <ele>280.8</ele>
        <time>2022-04-28T10:51:40Z</time>
      </trkpt>
      <trkpt lat="45.29847" lon="5.47845">
        <ele>281.1</ele>
        <time>2022-04-28T10:51:41Z</time>
      </trkpt>
      <trkpt lat="45.29847" lon="5.47844">
        <ele>281.2</ele>
        <time>2022-04-28T10:51:42Z</time>
      </trkpt>
      <trkpt lat="45.29844" lon="5.47841">
        <ele>281.5</ele>
        <time>2022-04-28T10:51:43Z</time>
      </trkpt>
      <trkpt lat="45.29844" lon="5.4784">
        <ele>281.6</ele>
        <time>2022-04-28T10:51:44Z</time>
      </trkpt>
      <trkpt lat="45.29842" lon="5.47838">
        <ele>281.8</ele>
        <time>2022-04-28T10:51:45Z</time>
      </trkpt>
      <trkpt lat="45.2984" lon="5.47837">
        <ele>282</ele>
        <time>2022-04-28T10:51:47Z</time>
      </trkpt>
      <trkpt lat="45.29838" lon="5.47834">
        <ele>282.3</ele>
        <time>2022-04-28T10:51:48Z</time>
      </trkpt>
      <trkpt lat="45.29837" lon="5.47833">
        <ele>282.4</ele>
        <time>2022-04-28T10:51:49Z</time>
      </trkpt>
      <trkpt lat="45.29836" lon="5.47831">
        <ele>282.6</ele>
        <time>2022-04-28T10:51:50Z</time>
      </trkpt>
      <trkpt lat="45.29835" lon="5.47831">
        <ele>282.7</ele>
        <time>2022-04-28T10:51:51Z</time>
      </trkpt>
      <trkpt lat="45.29832" lon="5.47828">
        <ele>283</ele>
        <time>2022-04-28T10:51:53Z</time>
      </trkpt>
      <trkpt lat="45.2983" lon="5.47825">
        <ele>283.3</ele>
        <time>2022-04-28T10:51:54Z</time>
      </trkpt>
      <trkpt lat="45.29827" lon="5.4782">
        <ele>283.7</ele>
        <time>2022-04-28T10:51:56Z</time>
      </trkpt>
      <trkpt lat="45.29826" lon="5.47819">
        <ele>283.9</ele>
        <time>2022-04-28T10:51:57Z</time>
      </trkpt>
      <trkpt lat="45.29825" lon="5.47817">
        <ele>284</ele>
        <time>2022-04-28T10:51:58Z</time>
      </trkpt>
      <trkpt lat="45.29823" lon="5.47814">
        <ele>284.3</ele>
        <time>2022-04-28T10:51:59Z</time>
      </trkpt>
      <trkpt lat="45.29822" lon="5.47813">
        <ele>284.4</ele>
        <time>2022-04-28T10:52:00Z</time>
      </trkpt>
      <trkpt lat="45.29819" lon="5.4781">
        <ele>284.7</ele>
        <time>2022-04-28T10:52:01Z</time>
      </trkpt>
      <trkpt lat="45.29819" lon="5.47809">
        <ele>284.8</ele>
        <time>2022-04-28T10:52:02Z</time>
      </trkpt>
      <trkpt lat="45.29815" lon="5.47804">
        <ele>285.3</ele>
        <time>2022-04-28T10:52:04Z</time>
      </trkpt>
      <trkpt lat="45.29814" lon="5.47803">
        <ele>285.5</ele>
        <time>2022-04-28T10:52:05Z</time>
      </trkpt>
      <trkpt lat="45.29813" lon="5.47801">
        <ele>285.6</ele>
        <time>2022-04-28T10:52:06Z</time>
      </trkpt>
      <trkpt lat="45.2981" lon="5.47797">
        <ele>285.9</ele>
        <time>2022-04-28T10:52:07Z</time>
      </trkpt>
      <trkpt lat="45.2981" lon="5.47796">
        <ele>286</ele>
        <time>2022-04-28T10:52:08Z</time>
      </trkpt>
      <trkpt lat="45.29809" lon="5.47794">
        <ele>286.2</ele>
        <time>2022-04-28T10:52:09Z</time>
      </trkpt>
      <trkpt lat="45.29808" lon="5.47792">
        <ele>286.3</ele>
        <time>2022-04-28T10:52:10Z</time>
      </trkpt>
      <trkpt lat="45.29806" lon="5.47789">
        <ele>286.6</ele>
        <time>2022-04-28T10:52:11Z</time>
      </trkpt>
      <trkpt lat="45.29805" lon="5.47788">
        <ele>286.7</ele>
        <time>2022-04-28T10:52:12Z</time>
      </trkpt>
      <trkpt lat="45.29804" lon="5.47787">
        <ele>286.9</ele>
        <time>2022-04-28T10:52:13Z</time>
      </trkpt>
      <trkpt lat="45.29802" lon="5.47784">
        <ele>287.2</ele>
        <time>2022-04-28T10:52:15Z</time>
      </trkpt>
      <trkpt lat="45.29799" lon="5.47781">
        <ele>287.5</ele>
        <time>2022-04-28T10:52:16Z</time>
      </trkpt>
      <trkpt lat="45.29797" lon="5.47779">
        <ele>287.8</ele>
        <time>2022-04-28T10:52:17Z</time>
      </trkpt>
      <trkpt lat="45.29794" lon="5.47776">
        <ele>288.1</ele>
        <time>2022-04-28T10:52:19Z</time>
      </trkpt>
      <trkpt lat="45.29791" lon="5.47772">
        <ele>288.5</ele>
        <time>2022-04-28T10:52:20Z</time>
      </trkpt>
      <trkpt lat="45.2979" lon="5.47771">
        <ele>288.7</ele>
        <time>2022-04-28T10:52:21Z</time>
      </trkpt>
      <trkpt lat="45.29787" lon="5.47769">
        <ele>289</ele>
        <time>2022-04-28T10:52:22Z</time>
      </trkpt>
      <trkpt lat="45.29786" lon="5.47769">
        <ele>289.1</ele>
        <time>2022-04-28T10:52:23Z</time>
      </trkpt>
      <trkpt lat="45.29783" lon="5.47767">
        <ele>289.4</ele>
        <time>2022-04-28T10:52:24Z</time>
      </trkpt>
      <trkpt lat="45.29782" lon="5.47766">
        <ele>289.6</ele>
        <time>2022-04-28T10:52:25Z</time>
      </trkpt>
      <trkpt lat="45.29779" lon="5.47765">
        <ele>290</ele>
        <time>2022-04-28T10:52:26Z</time>
      </trkpt>
      <trkpt lat="45.29778" lon="5.47764">
        <ele>290.1</ele>
        <time>2022-04-28T10:52:27Z</time>
      </trkpt>
      <trkpt lat="45.29775" lon="5.47763">
        <ele>290.5</ele>
        <time>2022-04-28T10:52:28Z</time>
      </trkpt>
      <trkpt lat="45.29774" lon="5.47762">
        <ele>290.7</ele>
        <time>2022-04-28T10:52:29Z</time>
      </trkpt>
      <trkpt lat="45.29771" lon="5.47761">
        <ele>291.1</ele>
        <time>2022-04-28T10:52:30Z</time>
      </trkpt>
      <trkpt lat="45.2977" lon="5.47761">
        <ele>291.3</ele>
        <time>2022-04-28T10:52:31Z</time>
      </trkpt>
      <trkpt lat="45.29766" lon="5.47759">
        <ele>291.8</ele>
        <time>2022-04-28T10:52:33Z</time>
      </trkpt>
      <trkpt lat="45.29764" lon="5.47756">
        <ele>292.2</ele>
        <time>2022-04-28T10:52:34Z</time>
      </trkpt>
      <trkpt lat="45.29763" lon="5.47755">
        <ele>292.4</ele>
        <time>2022-04-28T10:52:35Z</time>
      </trkpt>
      <trkpt lat="45.29762" lon="5.47751">
        <ele>293.5</ele>
        <time>2022-04-28T10:52:36Z</time>
      </trkpt>
      <trkpt lat="45.29762" lon="5.4775">
        <ele>293.6</ele>
        <time>2022-04-28T10:52:37Z</time>
      </trkpt>
      <trkpt lat="45.29762" lon="5.47745">
        <ele>293.8</ele>
        <time>2022-04-28T10:52:38Z</time>
      </trkpt>
      <trkpt lat="45.29762" lon="5.47743">
        <ele>293.9</ele>
        <time>2022-04-28T10:52:39Z</time>
      </trkpt>
      <trkpt lat="45.29764" lon="5.47739">
        <ele>294.1</ele>
        <time>2022-04-28T10:52:40Z</time>
      </trkpt>
      <trkpt lat="45.29765" lon="5.47738">
        <ele>294.2</ele>
        <time>2022-04-28T10:52:41Z</time>
      </trkpt>
      <trkpt lat="45.29769" lon="5.47735">
        <ele>294.5</ele>
        <time>2022-04-28T10:52:43Z</time>
      </trkpt>
      <trkpt lat="45.29773" lon="5.47734">
        <ele>294.8</ele>
        <time>2022-04-28T10:52:44Z</time>
      </trkpt>
      <trkpt lat="45.29774" lon="5.47733">
        <ele>294.9</ele>
        <time>2022-04-28T10:52:45Z</time>
      </trkpt>
      <trkpt lat="45.29779" lon="5.47734">
        <ele>295.3</ele>
        <time>2022-04-28T10:52:47Z</time>
      </trkpt>
      <trkpt lat="45.29784" lon="5.47737">
        <ele>295.7</ele>
        <time>2022-04-28T10:52:49Z</time>
      </trkpt>
      <trkpt lat="45.29787" lon="5.4774">
        <ele>295.9</ele>
        <time>2022-04-28T10:52:50Z</time>
      </trkpt>
      <trkpt lat="45.29788" lon="5.47741">
        <ele>296</ele>
        <time>2022-04-28T10:52:51Z</time>
      </trkpt>
      <trkpt lat="45.29791" lon="5.47743">
        <ele>296.3</ele>
        <time>2022-04-28T10:52:52Z</time>
      </trkpt>
      <trkpt lat="45.29792" lon="5.47744">
        <ele>296.3</ele>
        <time>2022-04-28T10:52:53Z</time>
      </trkpt>
      <trkpt lat="45.29795" lon="5.47747">
        <ele>296.6</ele>
        <time>2022-04-28T10:52:54Z</time>
      </trkpt>
      <trkpt lat="45.29796" lon="5.47748">
        <ele>296.7</ele>
        <time>2022-04-28T10:52:55Z</time>
      </trkpt>
      <trkpt lat="45.29798" lon="5.47751">
        <ele>297</ele>
        <time>2022-04-28T10:52:56Z</time>
      </trkpt>
      <trkpt lat="45.29799" lon="5.47751">
        <ele>297</ele>
        <time>2022-04-28T10:52:57Z</time>
      </trkpt>
      <trkpt lat="45.29802" lon="5.47753">
        <ele>297.3</ele>
        <time>2022-04-28T10:52:58Z</time>
      </trkpt>
      <trkpt lat="45.29803" lon="5.47754">
        <ele>297.4</ele>
        <time>2022-04-28T10:52:59Z</time>
      </trkpt>
      <trkpt lat="45.29806" lon="5.47756">
        <ele>297.6</ele>
        <time>2022-04-28T10:53:00Z</time>
      </trkpt>
      <trkpt lat="45.29807" lon="5.47757">
        <ele>297.7</ele>
        <time>2022-04-28T10:53:01Z</time>
      </trkpt>
      <trkpt lat="45.29809" lon="5.47758">
        <ele>297.9</ele>
        <time>2022-04-28T10:53:02Z</time>
      </trkpt>
      <trkpt lat="45.29813" lon="5.47761">
        <ele>298.3</ele>
        <time>2022-04-28T10:53:04Z</time>
      </trkpt>
      <trkpt lat="45.29816" lon="5.47762">
        <ele>298.5</ele>
        <time>2022-04-28T10:53:05Z</time>
      </trkpt>
      <trkpt lat="45.29816" lon="5.47763">
        <ele>298.6</ele>
        <time>2022-04-28T10:53:06Z</time>
      </trkpt>
      <trkpt lat="45.29819" lon="5.47765">
        <ele>298.8</ele>
        <time>2022-04-28T10:53:07Z</time>
      </trkpt>
      <trkpt lat="45.2982" lon="5.47765">
        <ele>298.9</ele>
        <time>2022-04-28T10:53:08Z</time>
      </trkpt>
      <trkpt lat="45.29823" lon="5.47767">
        <ele>299.2</ele>
        <time>2022-04-28T10:53:09Z</time>
      </trkpt>
      <trkpt lat="45.29824" lon="5.47767">
        <ele>299.3</ele>
        <time>2022-04-28T10:53:10Z</time>
      </trkpt>
      <trkpt lat="45.29827" lon="5.47768">
        <ele>299.6</ele>
        <time>2022-04-28T10:53:11Z</time>
      </trkpt>
      <trkpt lat="45.29828" lon="5.47769">
        <ele>299.6</ele>
        <time>2022-04-28T10:53:12Z</time>
      </trkpt>
      <trkpt lat="45.29829" lon="5.4777">
        <ele>299.8</ele>
        <time>2022-04-28T10:53:13Z</time>
      </trkpt>
      <trkpt lat="45.29832" lon="5.47771">
        <ele>300.1</ele>
        <time>2022-04-28T10:53:15Z</time>
      </trkpt>
      <trkpt lat="45.29835" lon="5.47773">
        <ele>300.4</ele>
        <time>2022-04-28T10:53:16Z</time>
      </trkpt>
      <trkpt lat="45.29836" lon="5.47774">
        <ele>300.4</ele>
        <time>2022-04-28T10:53:17Z</time>
      </trkpt>
      <trkpt lat="45.29839" lon="5.47775">
        <ele>300.7</ele>
        <time>2022-04-28T10:53:18Z</time>
      </trkpt>
      <trkpt lat="45.2984" lon="5.47775">
        <ele>300.8</ele>
        <time>2022-04-28T10:53:19Z</time>
      </trkpt>
      <trkpt lat="45.29843" lon="5.47776">
        <ele>301</ele>
        <time>2022-04-28T10:53:20Z</time>
      </trkpt>
      <trkpt lat="45.29844" lon="5.47777">
        <ele>301.1</ele>
        <time>2022-04-28T10:53:21Z</time>
      </trkpt>
      <trkpt lat="45.29846" lon="5.47778">
        <ele>301.3</ele>
        <time>2022-04-28T10:53:22Z</time>
      </trkpt>
      <trkpt lat="45.29847" lon="5.47778">
        <ele>301.4</ele>
        <time>2022-04-28T10:53:23Z</time>
      </trkpt>
      <trkpt lat="45.2985" lon="5.4778">
        <ele>301.6</ele>
        <time>2022-04-28T10:53:24Z</time>
      </trkpt>
      <trkpt lat="45.29851" lon="5.4778">
        <ele>301.7</ele>
        <time>2022-04-28T10:53:25Z</time>
      </trkpt>
      <trkpt lat="45.29853" lon="5.47782">
        <ele>301.9</ele>
        <time>2022-04-28T10:53:26Z</time>
      </trkpt>
      <trkpt lat="45.29854" lon="5.47783">
        <ele>302</ele>
        <time>2022-04-28T10:53:27Z</time>
      </trkpt>
      <trkpt lat="45.29857" lon="5.47786">
        <ele>302.2</ele>
        <time>2022-04-28T10:53:28Z</time>
      </trkpt>
      <trkpt lat="45.29858" lon="5.47787">
        <ele>302.3</ele>
        <time>2022-04-28T10:53:29Z</time>
      </trkpt>
      <trkpt lat="45.2986" lon="5.47789">
        <ele>302.6</ele>
        <time>2022-04-28T10:53:30Z</time>
      </trkpt>
      <trkpt lat="45.29861" lon="5.4779">
        <ele>302.7</ele>
        <time>2022-04-28T10:53:31Z</time>
      </trkpt>
      <trkpt lat="45.29863" lon="5.4779">
        <ele>302.8</ele>
        <time>2022-04-28T10:53:32Z</time>
      </trkpt>
      <trkpt lat="45.29864" lon="5.47791">
        <ele>302.9</ele>
        <time>2022-04-28T10:53:33Z</time>
      </trkpt>
      <trkpt lat="45.29867" lon="5.47793">
        <ele>303.2</ele>
        <time>2022-04-28T10:53:34Z</time>
      </trkpt>
      <trkpt lat="45.29868" lon="5.47794">
        <ele>303.3</ele>
        <time>2022-04-28T10:53:35Z</time>
      </trkpt>
      <trkpt lat="45.2987" lon="5.47796">
        <ele>303.5</ele>
        <time>2022-04-28T10:53:36Z</time>
      </trkpt>
      <trkpt lat="45.29871" lon="5.47797">
        <ele>303.6</ele>
        <time>2022-04-28T10:53:37Z</time>
      </trkpt>
      <trkpt lat="45.29874" lon="5.47799">
        <ele>303.8</ele>
        <time>2022-04-28T10:53:38Z</time>
      </trkpt>
      <trkpt lat="45.29875" lon="5.478">
        <ele>303.9</ele>
        <time>2022-04-28T10:53:39Z</time>
      </trkpt>
      <trkpt lat="45.29878" lon="5.47802">
        <ele>304.2</ele>
        <time>2022-04-28T10:53:40Z</time>
      </trkpt>
      <trkpt lat="45.29879" lon="5.47802">
        <ele>304.2</ele>
        <time>2022-04-28T10:53:41Z</time>
      </trkpt>
      <trkpt lat="45.29882" lon="5.47805">
        <ele>304.5</ele>
        <time>2022-04-28T10:53:42Z</time>
      </trkpt>
      <trkpt lat="45.29883" lon="5.47806">
        <ele>304.6</ele>
        <time>2022-04-28T10:53:43Z</time>
      </trkpt>
      <trkpt lat="45.29885" lon="5.47809">
        <ele>304.8</ele>
        <time>2022-04-28T10:53:44Z</time>
      </trkpt>
      <trkpt lat="45.29886" lon="5.4781">
        <ele>304.9</ele>
        <time>2022-04-28T10:53:45Z</time>
      </trkpt>
      <trkpt lat="45.29889" lon="5.47813">
        <ele>305.2</ele>
        <time>2022-04-28T10:53:46Z</time>
      </trkpt>
      <trkpt lat="45.2989" lon="5.47814">
        <ele>305.3</ele>
        <time>2022-04-28T10:53:47Z</time>
      </trkpt>
      <trkpt lat="45.29893" lon="5.47816">
        <ele>305.5</ele>
        <time>2022-04-28T10:53:48Z</time>
      </trkpt>
      <trkpt lat="45.29894" lon="5.47817">
        <ele>305.6</ele>
        <time>2022-04-28T10:53:49Z</time>
      </trkpt>
      <trkpt lat="45.29896" lon="5.47819">
        <ele>305.8</ele>
        <time>2022-04-28T10:53:50Z</time>
      </trkpt>
      <trkpt lat="45.29897" lon="5.4782">
        <ele>305.9</ele>
        <time>2022-04-28T10:53:51Z</time>
      </trkpt>
      <trkpt lat="45.299" lon="5.47823">
        <ele>306.2</ele>
        <time>2022-04-28T10:53:52Z</time>
      </trkpt>
      <trkpt lat="45.29901" lon="5.47823">
        <ele>306.3</ele>
        <time>2022-04-28T10:53:53Z</time>
      </trkpt>
      <trkpt lat="45.29904" lon="5.47827">
        <ele>306.6</ele>
        <time>2022-04-28T10:53:55Z</time>
      </trkpt>
      <trkpt lat="45.29906" lon="5.47829">
        <ele>306.8</ele>
        <time>2022-04-28T10:53:56Z</time>
      </trkpt>
      <trkpt lat="45.29908" lon="5.47832">
        <ele>307</ele>
        <time>2022-04-28T10:53:57Z</time>
      </trkpt>
      <trkpt lat="45.29909" lon="5.47833">
        <ele>307.1</ele>
        <time>2022-04-28T10:53:58Z</time>
      </trkpt>
      <trkpt lat="45.29911" lon="5.47836">
        <ele>307.4</ele>
        <time>2022-04-28T10:53:59Z</time>
      </trkpt>
      <trkpt lat="45.29912" lon="5.47837">
        <ele>307.4</ele>
        <time>2022-04-28T10:54:00Z</time>
      </trkpt>
      <trkpt lat="45.29915" lon="5.4784">
        <ele>307.7</ele>
        <time>2022-04-28T10:54:01Z</time>
      </trkpt>
      <trkpt lat="45.29916" lon="5.47841">
        <ele>307.8</ele>
        <time>2022-04-28T10:54:02Z</time>
      </trkpt>
      <trkpt lat="45.29919" lon="5.47843">
        <ele>308.1</ele>
        <time>2022-04-28T10:54:03Z</time>
      </trkpt>
      <trkpt lat="45.2992" lon="5.47844">
        <ele>308.2</ele>
        <time>2022-04-28T10:54:04Z</time>
      </trkpt>
      <trkpt lat="45.29922" lon="5.47846">
        <ele>308.3</ele>
        <time>2022-04-28T10:54:05Z</time>
      </trkpt>
      <trkpt lat="45.29925" lon="5.47848">
        <ele>308.6</ele>
        <time>2022-04-28T10:54:07Z</time>
      </trkpt>
      <trkpt lat="45.29926" lon="5.4785">
        <ele>308.7</ele>
        <time>2022-04-28T10:54:08Z</time>
      </trkpt>
      <trkpt lat="45.29929" lon="5.47852">
        <ele>309</ele>
        <time>2022-04-28T10:54:10Z</time>
      </trkpt>
      <trkpt lat="45.29932" lon="5.47855">
        <ele>309.3</ele>
        <time>2022-04-28T10:54:11Z</time>
      </trkpt>
      <trkpt lat="45.29933" lon="5.47857">
        <ele>309.4</ele>
        <time>2022-04-28T10:54:12Z</time>
      </trkpt>
      <trkpt lat="45.29936" lon="5.4786">
        <ele>309.6</ele>
        <time>2022-04-28T10:54:13Z</time>
      </trkpt>
      <trkpt lat="45.29936" lon="5.47861">
        <ele>309.7</ele>
        <time>2022-04-28T10:54:14Z</time>
      </trkpt>
      <trkpt lat="45.29939" lon="5.47864">
        <ele>310</ele>
        <time>2022-04-28T10:54:15Z</time>
      </trkpt>
      <trkpt lat="45.2994" lon="5.47865">
        <ele>310</ele>
        <time>2022-04-28T10:54:16Z</time>
      </trkpt>
      <trkpt lat="45.29942" lon="5.47866">
        <ele>310.3</ele>
        <time>2022-04-28T10:54:17Z</time>
      </trkpt>
      <trkpt lat="45.29943" lon="5.47867">
        <ele>310.4</ele>
        <time>2022-04-28T10:54:18Z</time>
      </trkpt>
      <trkpt lat="45.29945" lon="5.47869">
        <ele>310.5</ele>
        <time>2022-04-28T10:54:19Z</time>
      </trkpt>
      <trkpt lat="45.29949" lon="5.47872">
        <ele>310.9</ele>
        <time>2022-04-28T10:54:21Z</time>
      </trkpt>
      <trkpt lat="45.29951" lon="5.47875">
        <ele>311.2</ele>
        <time>2022-04-28T10:54:22Z</time>
      </trkpt>
      <trkpt lat="45.29952" lon="5.47876">
        <ele>311.2</ele>
        <time>2022-04-28T10:54:23Z</time>
      </trkpt>
      <trkpt lat="45.29955" lon="5.47878">
        <ele>311.5</ele>
        <time>2022-04-28T10:54:24Z</time>
      </trkpt>
      <trkpt lat="45.29956" lon="5.47879">
        <ele>311.6</ele>
        <time>2022-04-28T10:54:25Z</time>
      </trkpt>
      <trkpt lat="45.29958" lon="5.47881">
        <ele>311.8</ele>
        <time>2022-04-28T10:54:26Z</time>
      </trkpt>
      <trkpt lat="45.29959" lon="5.47882">
        <ele>311.9</ele>
        <time>2022-04-28T10:54:27Z</time>
      </trkpt>
      <trkpt lat="45.29962" lon="5.47885">
        <ele>312.2</ele>
        <time>2022-04-28T10:54:28Z</time>
      </trkpt>
      <trkpt lat="45.29963" lon="5.47886">
        <ele>312.3</ele>
        <time>2022-04-28T10:54:29Z</time>
      </trkpt>
      <trkpt lat="45.29966" lon="5.47888">
        <ele>312.5</ele>
        <time>2022-04-28T10:54:30Z</time>
      </trkpt>
      <trkpt lat="45.29967" lon="5.47889">
        <ele>312.6</ele>
        <time>2022-04-28T10:54:31Z</time>
      </trkpt>
      <trkpt lat="45.29971" lon="5.47892">
        <ele>312.9</ele>
        <time>2022-04-28T10:54:33Z</time>
      </trkpt>
      <trkpt lat="45.29973" lon="5.47894">
        <ele>313.2</ele>
        <time>2022-04-28T10:54:34Z</time>
      </trkpt>
      <trkpt lat="45.29974" lon="5.47895">
        <ele>313.3</ele>
        <time>2022-04-28T10:54:35Z</time>
      </trkpt>
      <trkpt lat="45.29978" lon="5.47897">
        <ele>313.5</ele>
        <time>2022-04-28T10:54:36Z</time>
      </trkpt>
      <trkpt lat="45.29979" lon="5.47898">
        <ele>313.6</ele>
        <time>2022-04-28T10:54:37Z</time>
      </trkpt>
      <trkpt lat="45.29981" lon="5.479">
        <ele>313.8</ele>
        <time>2022-04-28T10:54:38Z</time>
      </trkpt>
      <trkpt lat="45.29982" lon="5.47901">
        <ele>313.9</ele>
        <time>2022-04-28T10:54:39Z</time>
      </trkpt>
      <trkpt lat="45.29985" lon="5.47903">
        <ele>314.1</ele>
        <time>2022-04-28T10:54:40Z</time>
      </trkpt>
      <trkpt lat="45.29986" lon="5.47904">
        <ele>314.2</ele>
        <time>2022-04-28T10:54:41Z</time>
      </trkpt>
      <trkpt lat="45.29989" lon="5.47906">
        <ele>314.5</ele>
        <time>2022-04-28T10:54:42Z</time>
      </trkpt>
      <trkpt lat="45.2999" lon="5.47907">
        <ele>314.6</ele>
        <time>2022-04-28T10:54:43Z</time>
      </trkpt>
      <trkpt lat="45.29992" lon="5.47909">
        <ele>314.8</ele>
        <time>2022-04-28T10:54:44Z</time>
      </trkpt>
      <trkpt lat="45.29993" lon="5.4791">
        <ele>314.9</ele>
        <time>2022-04-28T10:54:45Z</time>
      </trkpt>
      <trkpt lat="45.29996" lon="5.47912">
        <ele>315.1</ele>
        <time>2022-04-28T10:54:46Z</time>
      </trkpt>
      <trkpt lat="45.29997" lon="5.47912">
        <ele>315.1</ele>
        <time>2022-04-28T10:54:47Z</time>
      </trkpt>
      <trkpt lat="45.3" lon="5.47915">
        <ele>315.4</ele>
        <time>2022-04-28T10:54:48Z</time>
      </trkpt>
      <trkpt lat="45.3" lon="5.47915">
        <ele>315.5</ele>
        <time>2022-04-28T10:54:49Z</time>
      </trkpt>
      <trkpt lat="45.30003" lon="5.47917">
        <ele>315.7</ele>
        <time>2022-04-28T10:54:50Z</time>
      </trkpt>
      <trkpt lat="45.30004" lon="5.47918">
        <ele>315.7</ele>
        <time>2022-04-28T10:54:51Z</time>
      </trkpt>
      <trkpt lat="45.30005" lon="5.4792">
        <ele>315.9</ele>
        <time>2022-04-28T10:54:52Z</time>
      </trkpt>
      <trkpt lat="45.30009" lon="5.47923">
        <ele>316.2</ele>
        <time>2022-04-28T10:54:54Z</time>
      </trkpt>
      <trkpt lat="45.30012" lon="5.47925">
        <ele>316.5</ele>
        <time>2022-04-28T10:54:55Z</time>
      </trkpt>
      <trkpt lat="45.30013" lon="5.47926">
        <ele>316.6</ele>
        <time>2022-04-28T10:54:56Z</time>
      </trkpt>
      <trkpt lat="45.30016" lon="5.47929">
        <ele>316.8</ele>
        <time>2022-04-28T10:54:57Z</time>
      </trkpt>
      <trkpt lat="45.30017" lon="5.47929">
        <ele>316.9</ele>
        <time>2022-04-28T10:54:58Z</time>
      </trkpt>
      <trkpt lat="45.3002" lon="5.47931">
        <ele>317.2</ele>
        <time>2022-04-28T10:54:59Z</time>
      </trkpt>
      <trkpt lat="45.3002" lon="5.47932">
        <ele>317.3</ele>
        <time>2022-04-28T10:55:00Z</time>
      </trkpt>
      <trkpt lat="45.30023" lon="5.47934">
        <ele>317.5</ele>
        <time>2022-04-28T10:55:01Z</time>
      </trkpt>
      <trkpt lat="45.30024" lon="5.47935">
        <ele>317.6</ele>
        <time>2022-04-28T10:55:02Z</time>
      </trkpt>
      <trkpt lat="45.30026" lon="5.47937">
        <ele>317.8</ele>
        <time>2022-04-28T10:55:03Z</time>
      </trkpt>
      <trkpt lat="45.30027" lon="5.47938">
        <ele>317.9</ele>
        <time>2022-04-28T10:55:04Z</time>
      </trkpt>
      <trkpt lat="45.3003" lon="5.47939">
        <ele>318.1</ele>
        <time>2022-04-28T10:55:05Z</time>
      </trkpt>
      <trkpt lat="45.30031" lon="5.4794">
        <ele>318.2</ele>
        <time>2022-04-28T10:55:06Z</time>
      </trkpt>
      <trkpt lat="45.30034" lon="5.47943">
        <ele>318.5</ele>
        <time>2022-04-28T10:55:08Z</time>
      </trkpt>
      <trkpt lat="45.30036" lon="5.47946">
        <ele>318.7</ele>
        <time>2022-04-28T10:55:09Z</time>
      </trkpt>
      <trkpt lat="45.30039" lon="5.47948">
        <ele>319</ele>
        <time>2022-04-28T10:55:10Z</time>
      </trkpt>
      <trkpt lat="45.30039" lon="5.47949">
        <ele>319</ele>
        <time>2022-04-28T10:55:11Z</time>
      </trkpt>
      <trkpt lat="45.30042" lon="5.47952">
        <ele>319.3</ele>
        <time>2022-04-28T10:55:12Z</time>
      </trkpt>
      <trkpt lat="45.30043" lon="5.47953">
        <ele>319.4</ele>
        <time>2022-04-28T10:55:13Z</time>
      </trkpt>
      <trkpt lat="45.30045" lon="5.47955">
        <ele>319.6</ele>
        <time>2022-04-28T10:55:15Z</time>
      </trkpt>
      <trkpt lat="45.30047" lon="5.47958">
        <ele>319.8</ele>
        <time>2022-04-28T10:55:16Z</time>
      </trkpt>
      <trkpt lat="45.3005" lon="5.4796">
        <ele>320.1</ele>
        <time>2022-04-28T10:55:18Z</time>
      </trkpt>
      <trkpt lat="45.30053" lon="5.47963">
        <ele>320.3</ele>
        <time>2022-04-28T10:55:19Z</time>
      </trkpt>
      <trkpt lat="45.30055" lon="5.47966">
        <ele>320.6</ele>
        <time>2022-04-28T10:55:20Z</time>
      </trkpt>
      <trkpt lat="45.30056" lon="5.47967">
        <ele>320.6</ele>
        <time>2022-04-28T10:55:21Z</time>
      </trkpt>
      <trkpt lat="45.30059" lon="5.47969">
        <ele>320.9</ele>
        <time>2022-04-28T10:55:22Z</time>
      </trkpt>
      <trkpt lat="45.3006" lon="5.4797">
        <ele>321</ele>
        <time>2022-04-28T10:55:23Z</time>
      </trkpt>
      <trkpt lat="45.30063" lon="5.47972">
        <ele>321.2</ele>
        <time>2022-04-28T10:55:24Z</time>
      </trkpt>
      <trkpt lat="45.30064" lon="5.47973">
        <ele>321.3</ele>
        <time>2022-04-28T10:55:25Z</time>
      </trkpt>
      <trkpt lat="45.30067" lon="5.47975">
        <ele>321.6</ele>
        <time>2022-04-28T10:55:26Z</time>
      </trkpt>
      <trkpt lat="45.30068" lon="5.47976">
        <ele>321.6</ele>
        <time>2022-04-28T10:55:27Z</time>
      </trkpt>
      <trkpt lat="45.30071" lon="5.47977">
        <ele>321.9</ele>
        <time>2022-04-28T10:55:28Z</time>
      </trkpt>
      <trkpt lat="45.30072" lon="5.47977">
        <ele>322</ele>
        <time>2022-04-28T10:55:29Z</time>
      </trkpt>
      <trkpt lat="45.30075" lon="5.47977">
        <ele>322.2</ele>
        <time>2022-04-28T10:55:30Z</time>
      </trkpt>
      <trkpt lat="45.30076" lon="5.47977">
        <ele>322.2</ele>
        <time>2022-04-28T10:55:31Z</time>
      </trkpt>
      <trkpt lat="45.30079" lon="5.47976">
        <ele>322.5</ele>
        <time>2022-04-28T10:55:32Z</time>
      </trkpt>
      <trkpt lat="45.3008" lon="5.47975">
        <ele>322.6</ele>
        <time>2022-04-28T10:55:33Z</time>
      </trkpt>
      <trkpt lat="45.30083" lon="5.47973">
        <ele>322.8</ele>
        <time>2022-04-28T10:55:34Z</time>
      </trkpt>
      <trkpt lat="45.30083" lon="5.47972">
        <ele>322.9</ele>
        <time>2022-04-28T10:55:35Z</time>
      </trkpt>
      <trkpt lat="45.30086" lon="5.47969">
        <ele>323.1</ele>
        <time>2022-04-28T10:55:36Z</time>
      </trkpt>
      <trkpt lat="45.30087" lon="5.47968">
        <ele>323.2</ele>
        <time>2022-04-28T10:55:37Z</time>
      </trkpt>
      <trkpt lat="45.3009" lon="5.47965">
        <ele>323.5</ele>
        <time>2022-04-28T10:55:38Z</time>
      </trkpt>
      <trkpt lat="45.3009" lon="5.47964">
        <ele>323.6</ele>
        <time>2022-04-28T10:55:39Z</time>
      </trkpt>
      <trkpt lat="45.30093" lon="5.4796">
        <ele>323.8</ele>
        <time>2022-04-28T10:55:40Z</time>
      </trkpt>
      <trkpt lat="45.30093" lon="5.47959">
        <ele>323.9</ele>
        <time>2022-04-28T10:55:41Z</time>
      </trkpt>
      <trkpt lat="45.30095" lon="5.47955">
        <ele>324.2</ele>
        <time>2022-04-28T10:55:42Z</time>
      </trkpt>
      <trkpt lat="45.30096" lon="5.47954">
        <ele>324.3</ele>
        <time>2022-04-28T10:55:43Z</time>
      </trkpt>
      <trkpt lat="45.30098" lon="5.47949">
        <ele>324.5</ele>
        <time>2022-04-28T10:55:44Z</time>
      </trkpt>
      <trkpt lat="45.30099" lon="5.47948">
        <ele>324.6</ele>
        <time>2022-04-28T10:55:45Z</time>
      </trkpt>
      <trkpt lat="45.301" lon="5.47944">
        <ele>324.9</ele>
        <time>2022-04-28T10:55:46Z</time>
      </trkpt>
      <trkpt lat="45.30101" lon="5.47943">
        <ele>325</ele>
        <time>2022-04-28T10:55:47Z</time>
      </trkpt>
      <trkpt lat="45.30102" lon="5.47939">
        <ele>325.2</ele>
        <time>2022-04-28T10:55:48Z</time>
      </trkpt>
      <trkpt lat="45.30103" lon="5.47938">
        <ele>325.3</ele>
        <time>2022-04-28T10:55:49Z</time>
      </trkpt>
      <trkpt lat="45.30105" lon="5.47934">
        <ele>325.6</ele>
        <time>2022-04-28T10:55:50Z</time>
      </trkpt>
      <trkpt lat="45.30105" lon="5.47932">
        <ele>325.7</ele>
        <time>2022-04-28T10:55:51Z</time>
      </trkpt>
      <trkpt lat="45.30108" lon="5.47928">
        <ele>325.9</ele>
        <time>2022-04-28T10:55:52Z</time>
      </trkpt>
      <trkpt lat="45.30108" lon="5.47927">
        <ele>326</ele>
        <time>2022-04-28T10:55:53Z</time>
      </trkpt>
      <trkpt lat="45.30111" lon="5.47924">
        <ele>326.3</ele>
        <time>2022-04-28T10:55:54Z</time>
      </trkpt>
      <trkpt lat="45.30111" lon="5.47923">
        <ele>326.4</ele>
        <time>2022-04-28T10:55:55Z</time>
      </trkpt>
      <trkpt lat="45.30114" lon="5.47919">
        <ele>326.6</ele>
        <time>2022-04-28T10:55:56Z</time>
      </trkpt>
      <trkpt lat="45.30114" lon="5.47918">
        <ele>326.7</ele>
        <time>2022-04-28T10:55:57Z</time>
      </trkpt>
      <trkpt lat="45.30118" lon="5.47916">
        <ele>327</ele>
        <time>2022-04-28T10:55:58Z</time>
      </trkpt>
      <trkpt lat="45.30119" lon="5.47915">
        <ele>327.1</ele>
        <time>2022-04-28T10:55:59Z</time>
      </trkpt>
      <trkpt lat="45.30122" lon="5.47914">
        <ele>327.4</ele>
        <time>2022-04-28T10:56:01Z</time>
      </trkpt>
      <trkpt lat="45.30126" lon="5.47912">
        <ele>327.8</ele>
        <time>2022-04-28T10:56:03Z</time>
      </trkpt>
      <trkpt lat="45.30129" lon="5.47912">
        <ele>328</ele>
        <time>2022-04-28T10:56:05Z</time>
      </trkpt>
      <trkpt lat="45.30131" lon="5.47912">
        <ele>328.3</ele>
        <time>2022-04-28T10:56:06Z</time>
      </trkpt>
      <trkpt lat="45.30134" lon="5.47913">
        <ele>328.5</ele>
        <time>2022-04-28T10:56:07Z</time>
      </trkpt>
      <trkpt lat="45.30137" lon="5.47914">
        <ele>328.8</ele>
        <time>2022-04-28T10:56:08Z</time>
      </trkpt>
      <trkpt lat="45.30138" lon="5.47915">
        <ele>328.9</ele>
        <time>2022-04-28T10:56:09Z</time>
      </trkpt>
      <trkpt lat="45.30141" lon="5.47917">
        <ele>329.2</ele>
        <time>2022-04-28T10:56:10Z</time>
      </trkpt>
      <trkpt lat="45.30143" lon="5.47918">
        <ele>329.3</ele>
        <time>2022-04-28T10:56:11Z</time>
      </trkpt>
      <trkpt lat="45.30145" lon="5.47919">
        <ele>329.5</ele>
        <time>2022-04-28T10:56:12Z</time>
      </trkpt>
      <trkpt lat="45.30149" lon="5.47922">
        <ele>329.9</ele>
        <time>2022-04-28T10:56:14Z</time>
      </trkpt>
      <trkpt lat="45.30152" lon="5.47924">
        <ele>330.3</ele>
        <time>2022-04-28T10:56:15Z</time>
      </trkpt>
      <trkpt lat="45.30153" lon="5.47925">
        <ele>330.4</ele>
        <time>2022-04-28T10:56:16Z</time>
      </trkpt>
      <trkpt lat="45.30156" lon="5.47928">
        <ele>330.7</ele>
        <time>2022-04-28T10:56:17Z</time>
      </trkpt>
      <trkpt lat="45.30157" lon="5.47928">
        <ele>330.8</ele>
        <time>2022-04-28T10:56:18Z</time>
      </trkpt>
      <trkpt lat="45.30159" lon="5.47932">
        <ele>331.1</ele>
        <time>2022-04-28T10:56:19Z</time>
      </trkpt>
      <trkpt lat="45.3016" lon="5.47933">
        <ele>331.2</ele>
        <time>2022-04-28T10:56:20Z</time>
      </trkpt>
      <trkpt lat="45.30163" lon="5.47937">
        <ele>331.5</ele>
        <time>2022-04-28T10:56:21Z</time>
      </trkpt>
      <trkpt lat="45.30163" lon="5.47938">
        <ele>331.5</ele>
        <time>2022-04-28T10:56:22Z</time>
      </trkpt>
      <trkpt lat="45.30166" lon="5.47942">
        <ele>331.9</ele>
        <time>2022-04-28T10:56:23Z</time>
      </trkpt>
      <trkpt lat="45.30167" lon="5.47943">
        <ele>332</ele>
        <time>2022-04-28T10:56:24Z</time>
      </trkpt>
      <trkpt lat="45.30168" lon="5.47946">
        <ele>332.2</ele>
        <time>2022-04-28T10:56:25Z</time>
      </trkpt>
      <trkpt lat="45.3017" lon="5.47951">
        <ele>332.5</ele>
        <time>2022-04-28T10:56:26Z</time>
      </trkpt>
      <trkpt lat="45.30171" lon="5.47952">
        <ele>332.6</ele>
        <time>2022-04-28T10:56:27Z</time>
      </trkpt>
      <trkpt lat="45.30172" lon="5.47956">
        <ele>332.9</ele>
        <time>2022-04-28T10:56:28Z</time>
      </trkpt>
      <trkpt lat="45.30173" lon="5.47958">
        <ele>333</ele>
        <time>2022-04-28T10:56:29Z</time>
      </trkpt>
      <trkpt lat="45.30174" lon="5.47963">
        <ele>333.3</ele>
        <time>2022-04-28T10:56:30Z</time>
      </trkpt>
      <trkpt lat="45.30175" lon="5.47964">
        <ele>333.4</ele>
        <time>2022-04-28T10:56:31Z</time>
      </trkpt>
      <trkpt lat="45.30176" lon="5.47969">
        <ele>333.7</ele>
        <time>2022-04-28T10:56:32Z</time>
      </trkpt>
      <trkpt lat="45.30177" lon="5.4797">
        <ele>333.8</ele>
        <time>2022-04-28T10:56:33Z</time>
      </trkpt>
      <trkpt lat="45.30178" lon="5.47973">
        <ele>334</ele>
        <time>2022-04-28T10:56:34Z</time>
      </trkpt>
      <trkpt lat="45.3018" lon="5.47977">
        <ele>334.3</ele>
        <time>2022-04-28T10:56:35Z</time>
      </trkpt>
      <trkpt lat="45.30181" lon="5.47979">
        <ele>334.4</ele>
        <time>2022-04-28T10:56:36Z</time>
      </trkpt>
      <trkpt lat="45.30183" lon="5.47983">
        <ele>334.7</ele>
        <time>2022-04-28T10:56:37Z</time>
      </trkpt>
      <trkpt lat="45.30183" lon="5.47984">
        <ele>334.8</ele>
        <time>2022-04-28T10:56:38Z</time>
      </trkpt>
      <trkpt lat="45.30185" lon="5.47988">
        <ele>335.1</ele>
        <time>2022-04-28T10:56:39Z</time>
      </trkpt>
      <trkpt lat="45.30186" lon="5.47989">
        <ele>335.2</ele>
        <time>2022-04-28T10:56:40Z</time>
      </trkpt>
      <trkpt lat="45.30187" lon="5.47993">
        <ele>335.4</ele>
        <time>2022-04-28T10:56:41Z</time>
      </trkpt>
      <trkpt lat="45.30187" lon="5.47994">
        <ele>335.5</ele>
        <time>2022-04-28T10:56:42Z</time>
      </trkpt>
      <trkpt lat="45.30189" lon="5.47999">
        <ele>335.8</ele>
        <time>2022-04-28T10:56:44Z</time>
      </trkpt>
      <trkpt lat="45.30189" lon="5.48">
        <ele>335.9</ele>
        <time>2022-04-28T10:56:45Z</time>
      </trkpt>
      <trkpt lat="45.30191" lon="5.48004">
        <ele>336.2</ele>
        <time>2022-04-28T10:56:46Z</time>
      </trkpt>
      <trkpt lat="45.30192" lon="5.48007">
        <ele>336.4</ele>
        <time>2022-04-28T10:56:47Z</time>
      </trkpt>
      <trkpt lat="45.30194" lon="5.48011">
        <ele>336.7</ele>
        <time>2022-04-28T10:56:49Z</time>
      </trkpt>
      <trkpt lat="45.30196" lon="5.48016">
        <ele>337</ele>
        <time>2022-04-28T10:56:50Z</time>
      </trkpt>
      <trkpt lat="45.30197" lon="5.48018">
        <ele>337.1</ele>
        <time>2022-04-28T10:56:51Z</time>
      </trkpt>
      <trkpt lat="45.30199" lon="5.48022">
        <ele>337.5</ele>
        <time>2022-04-28T10:56:53Z</time>
      </trkpt>
      <trkpt lat="45.30202" lon="5.48027">
        <ele>337.8</ele>
        <time>2022-04-28T10:56:54Z</time>
      </trkpt>
      <trkpt lat="45.30203" lon="5.48028">
        <ele>337.9</ele>
        <time>2022-04-28T10:56:55Z</time>
      </trkpt>
      <trkpt lat="45.30204" lon="5.48031">
        <ele>338.1</ele>
        <time>2022-04-28T10:56:56Z</time>
      </trkpt>
      <trkpt lat="45.30206" lon="5.48034">
        <ele>338.4</ele>
        <time>2022-04-28T10:56:58Z</time>
      </trkpt>
      <trkpt lat="45.30209" lon="5.48037">
        <ele>338.7</ele>
        <time>2022-04-28T10:56:59Z</time>
      </trkpt>
      <trkpt lat="45.30211" lon="5.4804">
        <ele>339</ele>
        <time>2022-04-28T10:57:00Z</time>
      </trkpt>
      <trkpt lat="45.30212" lon="5.48041">
        <ele>339.1</ele>
        <time>2022-04-28T10:57:01Z</time>
      </trkpt>
      <trkpt lat="45.30215" lon="5.48045">
        <ele>339.4</ele>
        <time>2022-04-28T10:57:02Z</time>
      </trkpt>
      <trkpt lat="45.30215" lon="5.48045">
        <ele>339.4</ele>
        <time>2022-04-28T10:57:03Z</time>
      </trkpt>
      <trkpt lat="45.30219" lon="5.48048">
        <ele>339.8</ele>
        <time>2022-04-28T10:57:05Z</time>
      </trkpt>
      <trkpt lat="45.30221" lon="5.48049">
        <ele>340</ele>
        <time>2022-04-28T10:57:06Z</time>
      </trkpt>
      <trkpt lat="45.30222" lon="5.4805">
        <ele>340.1</ele>
        <time>2022-04-28T10:57:07Z</time>
      </trkpt>
      <trkpt lat="45.30225" lon="5.48052">
        <ele>340.3</ele>
        <time>2022-04-28T10:57:08Z</time>
      </trkpt>
      <trkpt lat="45.30228" lon="5.48054">
        <ele>340.6</ele>
        <time>2022-04-28T10:57:09Z</time>
      </trkpt>
      <trkpt lat="45.30229" lon="5.48055">
        <ele>340.7</ele>
        <time>2022-04-28T10:57:10Z</time>
      </trkpt>
      <trkpt lat="45.3023" lon="5.48056">
        <ele>340.8</ele>
        <time>2022-04-28T10:57:11Z</time>
      </trkpt>
      <trkpt lat="45.30232" lon="5.48059">
        <ele>341.1</ele>
        <time>2022-04-28T10:57:13Z</time>
      </trkpt>
      <trkpt lat="45.30234" lon="5.48062">
        <ele>341.4</ele>
        <time>2022-04-28T10:57:14Z</time>
      </trkpt>
      <trkpt lat="45.30236" lon="5.48065">
        <ele>341.7</ele>
        <time>2022-04-28T10:57:15Z</time>
      </trkpt>
      <trkpt lat="45.30237" lon="5.48067">
        <ele>341.8</ele>
        <time>2022-04-28T10:57:16Z</time>
      </trkpt>
      <trkpt lat="45.30239" lon="5.48073">
        <ele>342.1</ele>
        <time>2022-04-28T10:57:18Z</time>
      </trkpt>
      <trkpt lat="45.3024" lon="5.48075">
        <ele>342.3</ele>
        <time>2022-04-28T10:57:19Z</time>
      </trkpt>
      <trkpt lat="45.30241" lon="5.48082">
        <ele>342.7</ele>
        <time>2022-04-28T10:57:21Z</time>
      </trkpt>
      <trkpt lat="45.30242" lon="5.48086">
        <ele>343</ele>
        <time>2022-04-28T10:57:23Z</time>
      </trkpt>
      <trkpt lat="45.30243" lon="5.4809">
        <ele>343.3</ele>
        <time>2022-04-28T10:57:24Z</time>
      </trkpt>
      <trkpt lat="45.30245" lon="5.48096">
        <ele>343.6</ele>
        <time>2022-04-28T10:57:25Z</time>
      </trkpt>
      <trkpt lat="45.30246" lon="5.48099">
        <ele>343.8</ele>
        <time>2022-04-28T10:57:26Z</time>
      </trkpt>
      <trkpt lat="45.30251" lon="5.48103">
        <ele>344.2</ele>
        <time>2022-04-28T10:57:28Z</time>
      </trkpt>
      <trkpt lat="45.30254" lon="5.48104">
        <ele>344.4</ele>
        <time>2022-04-28T10:57:29Z</time>
      </trkpt>
      <trkpt lat="45.30258" lon="5.48104">
        <ele>344.7</ele>
        <time>2022-04-28T10:57:30Z</time>
      </trkpt>
      <trkpt lat="45.3026" lon="5.48104">
        <ele>344.8</ele>
        <time>2022-04-28T10:57:31Z</time>
      </trkpt>
      <trkpt lat="45.30263" lon="5.48104">
        <ele>345</ele>
        <time>2022-04-28T10:57:32Z</time>
      </trkpt>
      <trkpt lat="45.30265" lon="5.48103">
        <ele>345.2</ele>
        <time>2022-04-28T10:57:33Z</time>
      </trkpt>
      <trkpt lat="45.30268" lon="5.48102">
        <ele>345.4</ele>
        <time>2022-04-28T10:57:34Z</time>
      </trkpt>
      <trkpt lat="45.30271" lon="5.481">
        <ele>345.5</ele>
        <time>2022-04-28T10:57:35Z</time>
      </trkpt>
      <trkpt lat="45.30275" lon="5.48097">
        <ele>345.8</ele>
        <time>2022-04-28T10:57:37Z</time>
      </trkpt>
      <trkpt lat="45.30278" lon="5.48094">
        <ele>346.1</ele>
        <time>2022-04-28T10:57:38Z</time>
      </trkpt>
      <trkpt lat="45.30281" lon="5.48091">
        <ele>346.4</ele>
        <time>2022-04-28T10:57:39Z</time>
      </trkpt>
      <trkpt lat="45.30281" lon="5.4809">
        <ele>346.5</ele>
        <time>2022-04-28T10:57:40Z</time>
      </trkpt>
      <trkpt lat="45.30284" lon="5.48087">
        <ele>346.8</ele>
        <time>2022-04-28T10:57:41Z</time>
      </trkpt>
      <trkpt lat="45.30285" lon="5.48086">
        <ele>346.9</ele>
        <time>2022-04-28T10:57:42Z</time>
      </trkpt>
      <trkpt lat="45.30288" lon="5.48082">
        <ele>347.2</ele>
        <time>2022-04-28T10:57:43Z</time>
      </trkpt>
      <trkpt lat="45.30289" lon="5.4808">
        <ele>347.3</ele>
        <time>2022-04-28T10:57:44Z</time>
      </trkpt>
      <trkpt lat="45.30291" lon="5.48077">
        <ele>347.5</ele>
        <time>2022-04-28T10:57:45Z</time>
      </trkpt>
      <trkpt lat="45.30294" lon="5.48073">
        <ele>347.9</ele>
        <time>2022-04-28T10:57:46Z</time>
      </trkpt>
      <trkpt lat="45.30295" lon="5.48072">
        <ele>348</ele>
        <time>2022-04-28T10:57:47Z</time>
      </trkpt>
      <trkpt lat="45.30298" lon="5.48068">
        <ele>348.3</ele>
        <time>2022-04-28T10:57:48Z</time>
      </trkpt>
      <trkpt lat="45.30299" lon="5.48067">
        <ele>348.4</ele>
        <time>2022-04-28T10:57:49Z</time>
      </trkpt>
      <trkpt lat="45.30301" lon="5.48063">
        <ele>348.7</ele>
        <time>2022-04-28T10:57:50Z</time>
      </trkpt>
      <trkpt lat="45.30302" lon="5.48062">
        <ele>348.8</ele>
        <time>2022-04-28T10:57:51Z</time>
      </trkpt>
      <trkpt lat="45.30305" lon="5.48059">
        <ele>349.1</ele>
        <time>2022-04-28T10:57:52Z</time>
      </trkpt>
      <trkpt lat="45.30306" lon="5.48058">
        <ele>349.2</ele>
        <time>2022-04-28T10:57:53Z</time>
      </trkpt>
      <trkpt lat="45.30308" lon="5.48055">
        <ele>349.5</ele>
        <time>2022-04-28T10:57:54Z</time>
      </trkpt>
      <trkpt lat="45.30309" lon="5.48054">
        <ele>349.6</ele>
        <time>2022-04-28T10:57:55Z</time>
      </trkpt>
      <trkpt lat="45.3031" lon="5.48052">
        <ele>349.8</ele>
        <time>2022-04-28T10:57:56Z</time>
      </trkpt>
      <trkpt lat="45.30312" lon="5.48049">
        <ele>350</ele>
        <time>2022-04-28T10:57:58Z</time>
      </trkpt>
      <trkpt lat="45.30315" lon="5.48045">
        <ele>350.3</ele>
        <time>2022-04-28T10:57:59Z</time>
      </trkpt>
      <trkpt lat="45.30316" lon="5.48043">
        <ele>350.5</ele>
        <time>2022-04-28T10:58:00Z</time>
      </trkpt>
      <trkpt lat="45.30318" lon="5.4804">
        <ele>350.8</ele>
        <time>2022-04-28T10:58:01Z</time>
      </trkpt>
      <trkpt lat="45.30319" lon="5.48039">
        <ele>350.8</ele>
        <time>2022-04-28T10:58:02Z</time>
      </trkpt>
      <trkpt lat="45.30322" lon="5.48034">
        <ele>351.2</ele>
        <time>2022-04-28T10:58:04Z</time>
      </trkpt>
      <trkpt lat="45.30325" lon="5.48032">
        <ele>351.5</ele>
        <time>2022-04-28T10:58:05Z</time>
      </trkpt>
      <trkpt lat="45.30326" lon="5.48031">
        <ele>351.6</ele>
        <time>2022-04-28T10:58:06Z</time>
      </trkpt>
      <trkpt lat="45.3033" lon="5.48028">
        <ele>352</ele>
        <time>2022-04-28T10:58:08Z</time>
      </trkpt>
      <trkpt lat="45.30333" lon="5.48024">
        <ele>352.3</ele>
        <time>2022-04-28T10:58:10Z</time>
      </trkpt>
      <trkpt lat="45.30336" lon="5.4802">
        <ele>352.7</ele>
        <time>2022-04-28T10:58:11Z</time>
      </trkpt>
      <trkpt lat="45.30337" lon="5.48019">
        <ele>352.8</ele>
        <time>2022-04-28T10:58:12Z</time>
      </trkpt>
      <trkpt lat="45.30339" lon="5.48016">
        <ele>353.1</ele>
        <time>2022-04-28T10:58:13Z</time>
      </trkpt>
      <trkpt lat="45.3034" lon="5.48015">
        <ele>353.2</ele>
        <time>2022-04-28T10:58:14Z</time>
      </trkpt>
      <trkpt lat="45.30343" lon="5.48012">
        <ele>353.4</ele>
        <time>2022-04-28T10:58:15Z</time>
      </trkpt>
      <trkpt lat="45.30345" lon="5.48009">
        <ele>353.8</ele>
        <time>2022-04-28T10:58:17Z</time>
      </trkpt>
      <trkpt lat="45.30348" lon="5.48006">
        <ele>354</ele>
        <time>2022-04-28T10:58:18Z</time>
      </trkpt>
      <trkpt lat="45.3035" lon="5.48004">
        <ele>354.3</ele>
        <time>2022-04-28T10:58:19Z</time>
      </trkpt>
      <trkpt lat="45.30353" lon="5.48001">
        <ele>354.6</ele>
        <time>2022-04-28T10:58:20Z</time>
      </trkpt>
      <trkpt lat="45.30354" lon="5.48">
        <ele>354.7</ele>
        <time>2022-04-28T10:58:21Z</time>
      </trkpt>
      <trkpt lat="45.30356" lon="5.47998">
        <ele>354.9</ele>
        <time>2022-04-28T10:58:22Z</time>
      </trkpt>
      <trkpt lat="45.30359" lon="5.47994">
        <ele>355.2</ele>
        <time>2022-04-28T10:58:23Z</time>
      </trkpt>
      <trkpt lat="45.3036" lon="5.47993">
        <ele>355.3</ele>
        <time>2022-04-28T10:58:24Z</time>
      </trkpt>
      <trkpt lat="45.30363" lon="5.47989">
        <ele>355.7</ele>
        <time>2022-04-28T10:58:25Z</time>
      </trkpt>
      <trkpt lat="45.30364" lon="5.47988">
        <ele>355.8</ele>
        <time>2022-04-28T10:58:26Z</time>
      </trkpt>
      <trkpt lat="45.30367" lon="5.47985">
        <ele>356</ele>
        <time>2022-04-28T10:58:27Z</time>
      </trkpt>
      <trkpt lat="45.30368" lon="5.47984">
        <ele>356</ele>
        <time>2022-04-28T10:58:28Z</time>
      </trkpt>
      <trkpt lat="45.30371" lon="5.47981">
        <ele>356.1</ele>
        <time>2022-04-28T10:58:29Z</time>
      </trkpt>
      <trkpt lat="45.30372" lon="5.47979">
        <ele>356.1</ele>
        <time>2022-04-28T10:58:30Z</time>
      </trkpt>
      <trkpt lat="45.30374" lon="5.47976">
        <ele>356.2</ele>
        <time>2022-04-28T10:58:31Z</time>
      </trkpt>
      <trkpt lat="45.30375" lon="5.47975">
        <ele>356.2</ele>
        <time>2022-04-28T10:58:32Z</time>
      </trkpt>
      <trkpt lat="45.30377" lon="5.47971">
        <ele>356.3</ele>
        <time>2022-04-28T10:58:33Z</time>
      </trkpt>
      <trkpt lat="45.30378" lon="5.4797">
        <ele>356.4</ele>
        <time>2022-04-28T10:58:34Z</time>
      </trkpt>
      <trkpt lat="45.3038" lon="5.47966">
        <ele>356.7</ele>
        <time>2022-04-28T10:58:36Z</time>
      </trkpt>
      <trkpt lat="45.30383" lon="5.47963">
        <ele>357</ele>
        <time>2022-04-28T10:58:37Z</time>
      </trkpt>
      <trkpt lat="45.30384" lon="5.47962">
        <ele>357.1</ele>
        <time>2022-04-28T10:58:38Z</time>
      </trkpt>
      <trkpt lat="45.30385" lon="5.4796">
        <ele>357.3</ele>
        <time>2022-04-28T10:58:39Z</time>
      </trkpt>
      <trkpt lat="45.30389" lon="5.47956">
        <ele>357.6</ele>
        <time>2022-04-28T10:58:41Z</time>
      </trkpt>
      <trkpt lat="45.30392" lon="5.47952">
        <ele>358</ele>
        <time>2022-04-28T10:58:43Z</time>
      </trkpt>
      <trkpt lat="45.30394" lon="5.47949">
        <ele>358.2</ele>
        <time>2022-04-28T10:58:44Z</time>
      </trkpt>
      <trkpt lat="45.30397" lon="5.47946">
        <ele>358.6</ele>
        <time>2022-04-28T10:58:46Z</time>
      </trkpt>
      <trkpt lat="45.30399" lon="5.47942">
        <ele>358.8</ele>
        <time>2022-04-28T10:58:47Z</time>
      </trkpt>
      <trkpt lat="45.30401" lon="5.4794">
        <ele>359.1</ele>
        <time>2022-04-28T10:58:48Z</time>
      </trkpt>
      <trkpt lat="45.30402" lon="5.47939">
        <ele>359.2</ele>
        <time>2022-04-28T10:58:49Z</time>
      </trkpt>
      <trkpt lat="45.30405" lon="5.47936">
        <ele>359.5</ele>
        <time>2022-04-28T10:58:50Z</time>
      </trkpt>
      <trkpt lat="45.30406" lon="5.47934">
        <ele>359.6</ele>
        <time>2022-04-28T10:58:51Z</time>
      </trkpt>
      <trkpt lat="45.30408" lon="5.47932">
        <ele>359.8</ele>
        <time>2022-04-28T10:58:52Z</time>
      </trkpt>
      <trkpt lat="45.30411" lon="5.47929">
        <ele>360.1</ele>
        <time>2022-04-28T10:58:54Z</time>
      </trkpt>
      <trkpt lat="45.30413" lon="5.47925">
        <ele>360.4</ele>
        <time>2022-04-28T10:58:55Z</time>
      </trkpt>
      <trkpt lat="45.30415" lon="5.47923">
        <ele>360.6</ele>
        <time>2022-04-28T10:58:56Z</time>
      </trkpt>
      <trkpt lat="45.30418" lon="5.4792">
        <ele>360.9</ele>
        <time>2022-04-28T10:58:58Z</time>
      </trkpt>
      <trkpt lat="45.30421" lon="5.47917">
        <ele>361.2</ele>
        <time>2022-04-28T10:58:59Z</time>
      </trkpt>
      <trkpt lat="45.30423" lon="5.47915">
        <ele>361.5</ele>
        <time>2022-04-28T10:59:00Z</time>
      </trkpt>
      <trkpt lat="45.30426" lon="5.47912">
        <ele>361.7</ele>
        <time>2022-04-28T10:59:02Z</time>
      </trkpt>
      <trkpt lat="45.30428" lon="5.47909">
        <ele>362</ele>
        <time>2022-04-28T10:59:03Z</time>
      </trkpt>
      <trkpt lat="45.30431" lon="5.47907">
        <ele>362.4</ele>
        <time>2022-04-28T10:59:04Z</time>
      </trkpt>
      <trkpt lat="45.30434" lon="5.47905">
        <ele>362.6</ele>
        <time>2022-04-28T10:59:05Z</time>
      </trkpt>
      <trkpt lat="45.30436" lon="5.47903">
        <ele>362.9</ele>
        <time>2022-04-28T10:59:06Z</time>
      </trkpt>
      <trkpt lat="45.3044" lon="5.47901">
        <ele>363.2</ele>
        <time>2022-04-28T10:59:07Z</time>
      </trkpt>
      <trkpt lat="45.30441" lon="5.479">
        <ele>363.3</ele>
        <time>2022-04-28T10:59:08Z</time>
      </trkpt>
      <trkpt lat="45.30444" lon="5.47898">
        <ele>363.7</ele>
        <time>2022-04-28T10:59:09Z</time>
      </trkpt>
      <trkpt lat="45.30445" lon="5.47897">
        <ele>363.8</ele>
        <time>2022-04-28T10:59:10Z</time>
      </trkpt>
      <trkpt lat="45.30448" lon="5.47896">
        <ele>364.1</ele>
        <time>2022-04-28T10:59:11Z</time>
      </trkpt>
      <trkpt lat="45.30449" lon="5.47895">
        <ele>364.2</ele>
        <time>2022-04-28T10:59:12Z</time>
      </trkpt>
      <trkpt lat="45.30452" lon="5.47894">
        <ele>364.5</ele>
        <time>2022-04-28T10:59:13Z</time>
      </trkpt>
      <trkpt lat="45.30453" lon="5.47894">
        <ele>364.6</ele>
        <time>2022-04-28T10:59:14Z</time>
      </trkpt>
      <trkpt lat="45.30456" lon="5.47892">
        <ele>364.9</ele>
        <time>2022-04-28T10:59:15Z</time>
      </trkpt>
      <trkpt lat="45.30457" lon="5.47891">
        <ele>365</ele>
        <time>2022-04-28T10:59:16Z</time>
      </trkpt>
      <trkpt lat="45.3046" lon="5.47889">
        <ele>365.4</ele>
        <time>2022-04-28T10:59:17Z</time>
      </trkpt>
      <trkpt lat="45.30461" lon="5.47888">
        <ele>365.5</ele>
        <time>2022-04-28T10:59:18Z</time>
      </trkpt>
      <trkpt lat="45.30465" lon="5.47886">
        <ele>365.8</ele>
        <time>2022-04-28T10:59:19Z</time>
      </trkpt>
      <trkpt lat="45.30466" lon="5.47885">
        <ele>365.9</ele>
        <time>2022-04-28T10:59:20Z</time>
      </trkpt>
      <trkpt lat="45.30468" lon="5.47883">
        <ele>366.2</ele>
        <time>2022-04-28T10:59:21Z</time>
      </trkpt>
      <trkpt lat="45.30469" lon="5.47883">
        <ele>366.3</ele>
        <time>2022-04-28T10:59:22Z</time>
      </trkpt>
      <trkpt lat="45.30472" lon="5.47882">
        <ele>366.6</ele>
        <time>2022-04-28T10:59:23Z</time>
      </trkpt>
      <trkpt lat="45.30473" lon="5.47881">
        <ele>366.7</ele>
        <time>2022-04-28T10:59:24Z</time>
      </trkpt>
      <trkpt lat="45.30476" lon="5.47879">
        <ele>367</ele>
        <time>2022-04-28T10:59:25Z</time>
      </trkpt>
      <trkpt lat="45.30477" lon="5.47879">
        <ele>367.1</ele>
        <time>2022-04-28T10:59:26Z</time>
      </trkpt>
      <trkpt lat="45.30479" lon="5.47878">
        <ele>367.2</ele>
        <time>2022-04-28T10:59:27Z</time>
      </trkpt>
      <trkpt lat="45.3048" lon="5.47878">
        <ele>367.4</ele>
        <time>2022-04-28T10:59:28Z</time>
      </trkpt>
      <trkpt lat="45.30483" lon="5.47877">
        <ele>367.7</ele>
        <time>2022-04-28T10:59:29Z</time>
      </trkpt>
      <trkpt lat="45.30484" lon="5.47876">
        <ele>367.8</ele>
        <time>2022-04-28T10:59:30Z</time>
      </trkpt>
      <trkpt lat="45.30488" lon="5.47874">
        <ele>368.2</ele>
        <time>2022-04-28T10:59:32Z</time>
      </trkpt>
      <trkpt lat="45.30491" lon="5.47872">
        <ele>368.4</ele>
        <time>2022-04-28T10:59:33Z</time>
      </trkpt>
      <trkpt lat="45.30492" lon="5.47872">
        <ele>368.5</ele>
        <time>2022-04-28T10:59:34Z</time>
      </trkpt>
      <trkpt lat="45.30495" lon="5.47869">
        <ele>368.8</ele>
        <time>2022-04-28T10:59:36Z</time>
      </trkpt>
      <trkpt lat="45.30498" lon="5.47867">
        <ele>369.1</ele>
        <time>2022-04-28T10:59:37Z</time>
      </trkpt>
      <trkpt lat="45.30502" lon="5.47863">
        <ele>369.6</ele>
        <time>2022-04-28T10:59:39Z</time>
      </trkpt>
      <trkpt lat="45.30504" lon="5.47862">
        <ele>369.7</ele>
        <time>2022-04-28T10:59:40Z</time>
      </trkpt>
      <trkpt lat="45.30505" lon="5.47861">
        <ele>369.8</ele>
        <time>2022-04-28T10:59:41Z</time>
      </trkpt>
      <trkpt lat="45.30508" lon="5.47859">
        <ele>370.1</ele>
        <time>2022-04-28T10:59:42Z</time>
      </trkpt>
      <trkpt lat="45.30511" lon="5.47857">
        <ele>370.4</ele>
        <time>2022-04-28T10:59:44Z</time>
      </trkpt>
      <trkpt lat="45.30514" lon="5.47855">
        <ele>370.7</ele>
        <time>2022-04-28T10:59:45Z</time>
      </trkpt>
      <trkpt lat="45.30516" lon="5.47852">
        <ele>370.9</ele>
        <time>2022-04-28T10:59:46Z</time>
      </trkpt>
      <trkpt lat="45.30517" lon="5.47852">
        <ele>371</ele>
        <time>2022-04-28T10:59:47Z</time>
      </trkpt>
      <trkpt lat="45.30519" lon="5.47849">
        <ele>371.2</ele>
        <time>2022-04-28T10:59:48Z</time>
      </trkpt>
      <trkpt lat="45.30519" lon="5.47848">
        <ele>371.3</ele>
        <time>2022-04-28T10:59:49Z</time>
      </trkpt>
      <trkpt lat="45.30522" lon="5.47845">
        <ele>371.6</ele>
        <time>2022-04-28T10:59:50Z</time>
      </trkpt>
      <trkpt lat="45.30523" lon="5.47844">
        <ele>371.7</ele>
        <time>2022-04-28T10:59:51Z</time>
      </trkpt>
      <trkpt lat="45.30525" lon="5.47842">
        <ele>371.9</ele>
        <time>2022-04-28T10:59:52Z</time>
      </trkpt>
      <trkpt lat="45.30528" lon="5.4784">
        <ele>372.2</ele>
        <time>2022-04-28T10:59:54Z</time>
      </trkpt>
      <trkpt lat="45.30532" lon="5.47838">
        <ele>372.5</ele>
        <time>2022-04-28T10:59:55Z</time>
      </trkpt>
      <trkpt lat="45.30533" lon="5.47837">
        <ele>372.6</ele>
        <time>2022-04-28T10:59:56Z</time>
      </trkpt>
      <trkpt lat="45.30536" lon="5.47835">
        <ele>372.9</ele>
        <time>2022-04-28T10:59:58Z</time>
      </trkpt>
      <trkpt lat="45.30537" lon="5.47833">
        <ele>373.1</ele>
        <time>2022-04-28T10:59:59Z</time>
      </trkpt>
      <trkpt lat="45.30539" lon="5.4783">
        <ele>373.4</ele>
        <time>2022-04-28T11:00:00Z</time>
      </trkpt>
      <trkpt lat="45.3054" lon="5.47829">
        <ele>373.5</ele>
        <time>2022-04-28T11:00:01Z</time>
      </trkpt>
      <trkpt lat="45.30543" lon="5.47825">
        <ele>373.8</ele>
        <time>2022-04-28T11:00:03Z</time>
      </trkpt>
      <trkpt lat="45.30543" lon="5.47824">
        <ele>373.9</ele>
        <time>2022-04-28T11:00:04Z</time>
      </trkpt>
      <trkpt lat="45.30544" lon="5.47823">
        <ele>374.1</ele>
        <time>2022-04-28T11:00:05Z</time>
      </trkpt>
      <trkpt lat="45.30545" lon="5.47822">
        <ele>374.3</ele>
        <time>2022-04-28T11:00:06Z</time>
      </trkpt>
      <trkpt lat="45.30547" lon="5.4782">
        <ele>374.4</ele>
        <time>2022-04-28T11:00:07Z</time>
      </trkpt>
      <trkpt lat="45.3055" lon="5.47819">
        <ele>374.7</ele>
        <time>2022-04-28T11:00:09Z</time>
      </trkpt>
      <trkpt lat="45.30554" lon="5.47819">
        <ele>375</ele>
        <time>2022-04-28T11:00:10Z</time>
      </trkpt>
      <trkpt lat="45.30555" lon="5.47819">
        <ele>375</ele>
        <time>2022-04-28T11:00:11Z</time>
      </trkpt>
      <trkpt lat="45.30558" lon="5.4782">
        <ele>375.3</ele>
        <time>2022-04-28T11:00:12Z</time>
      </trkpt>
      <trkpt lat="45.3056" lon="5.4782">
        <ele>375.5</ele>
        <time>2022-04-28T11:00:13Z</time>
      </trkpt>
      <trkpt lat="45.30562" lon="5.4782">
        <ele>375.7</ele>
        <time>2022-04-28T11:00:14Z</time>
      </trkpt>
      <trkpt lat="45.30565" lon="5.47821">
        <ele>375.9</ele>
        <time>2022-04-28T11:00:16Z</time>
      </trkpt>
      <trkpt lat="45.30569" lon="5.47823">
        <ele>376.2</ele>
        <time>2022-04-28T11:00:17Z</time>
      </trkpt>
      <trkpt lat="45.30574" lon="5.47825">
        <ele>376.6</ele>
        <time>2022-04-28T11:00:19Z</time>
      </trkpt>
      <trkpt lat="45.30575" lon="5.47826">
        <ele>376.7</ele>
        <time>2022-04-28T11:00:20Z</time>
      </trkpt>
      <trkpt lat="45.30576" lon="5.47826">
        <ele>376.9</ele>
        <time>2022-04-28T11:00:21Z</time>
      </trkpt>
      <trkpt lat="45.3058" lon="5.47828">
        <ele>377.2</ele>
        <time>2022-04-28T11:00:22Z</time>
      </trkpt>
      <trkpt lat="45.30582" lon="5.47828">
        <ele>377.3</ele>
        <time>2022-04-28T11:00:23Z</time>
      </trkpt>
      <trkpt lat="45.30585" lon="5.47829">
        <ele>377.5</ele>
        <time>2022-04-28T11:00:24Z</time>
      </trkpt>
      <trkpt lat="45.30586" lon="5.4783">
        <ele>377.6</ele>
        <time>2022-04-28T11:00:25Z</time>
      </trkpt>
      <trkpt lat="45.30589" lon="5.47831">
        <ele>377.9</ele>
        <time>2022-04-28T11:00:26Z</time>
      </trkpt>
      <trkpt lat="45.3059" lon="5.47831">
        <ele>378</ele>
        <time>2022-04-28T11:00:27Z</time>
      </trkpt>
      <trkpt lat="45.30593" lon="5.47831">
        <ele>378.2</ele>
        <time>2022-04-28T11:00:28Z</time>
      </trkpt>
      <trkpt lat="45.30594" lon="5.47831">
        <ele>378.3</ele>
        <time>2022-04-28T11:00:29Z</time>
      </trkpt>
      <trkpt lat="45.30598" lon="5.4783">
        <ele>378.6</ele>
        <time>2022-04-28T11:00:30Z</time>
      </trkpt>
      <trkpt lat="45.30599" lon="5.4783">
        <ele>378.7</ele>
        <time>2022-04-28T11:00:31Z</time>
      </trkpt>
      <trkpt lat="45.30602" lon="5.47829">
        <ele>378.9</ele>
        <time>2022-04-28T11:00:32Z</time>
      </trkpt>
      <trkpt lat="45.30605" lon="5.47827">
        <ele>379.2</ele>
        <time>2022-04-28T11:00:34Z</time>
      </trkpt>
      <trkpt lat="45.30609" lon="5.47824">
        <ele>379.5</ele>
        <time>2022-04-28T11:00:35Z</time>
      </trkpt>
      <trkpt lat="45.30611" lon="5.47823">
        <ele>379.7</ele>
        <time>2022-04-28T11:00:36Z</time>
      </trkpt>
      <trkpt lat="45.30613" lon="5.47822">
        <ele>379.9</ele>
        <time>2022-04-28T11:00:37Z</time>
      </trkpt>
      <trkpt lat="45.30616" lon="5.47818">
        <ele>380.2</ele>
        <time>2022-04-28T11:00:38Z</time>
      </trkpt>
      <trkpt lat="45.30617" lon="5.47817">
        <ele>380.3</ele>
        <time>2022-04-28T11:00:39Z</time>
      </trkpt>
      <trkpt lat="45.30619" lon="5.47814">
        <ele>380.5</ele>
        <time>2022-04-28T11:00:40Z</time>
      </trkpt>
      <trkpt lat="45.30622" lon="5.47811">
        <ele>380.8</ele>
        <time>2022-04-28T11:00:41Z</time>
      </trkpt>
      <trkpt lat="45.30623" lon="5.47811">
        <ele>380.9</ele>
        <time>2022-04-28T11:00:42Z</time>
      </trkpt>
      <trkpt lat="45.30626" lon="5.47807">
        <ele>381.2</ele>
        <time>2022-04-28T11:00:43Z</time>
      </trkpt>
      <trkpt lat="45.30627" lon="5.47806">
        <ele>381.3</ele>
        <time>2022-04-28T11:00:44Z</time>
      </trkpt>
      <trkpt lat="45.3063" lon="5.47803">
        <ele>381.5</ele>
        <time>2022-04-28T11:00:45Z</time>
      </trkpt>
      <trkpt lat="45.30631" lon="5.47803">
        <ele>381.6</ele>
        <time>2022-04-28T11:00:46Z</time>
      </trkpt>
      <trkpt lat="45.30634" lon="5.47802">
        <ele>381.9</ele>
        <time>2022-04-28T11:00:47Z</time>
      </trkpt>
      <trkpt lat="45.30635" lon="5.47802">
        <ele>381.9</ele>
        <time>2022-04-28T11:00:48Z</time>
      </trkpt>
      <trkpt lat="45.30639" lon="5.47799">
        <ele>382.3</ele>
        <time>2022-04-28T11:00:50Z</time>
      </trkpt>
      <trkpt lat="45.3064" lon="5.47798">
        <ele>382.4</ele>
        <time>2022-04-28T11:00:51Z</time>
      </trkpt>
      <trkpt lat="45.30642" lon="5.47797">
        <ele>382.6</ele>
        <time>2022-04-28T11:00:52Z</time>
      </trkpt>
      <trkpt lat="45.30645" lon="5.47795">
        <ele>382.8</ele>
        <time>2022-04-28T11:00:53Z</time>
      </trkpt>
      <trkpt lat="45.30647" lon="5.47793">
        <ele>383.1</ele>
        <time>2022-04-28T11:00:55Z</time>
      </trkpt>
      <trkpt lat="45.3065" lon="5.47792">
        <ele>383.3</ele>
        <time>2022-04-28T11:00:56Z</time>
      </trkpt>
      <trkpt lat="45.30653" lon="5.47789">
        <ele>383.6</ele>
        <time>2022-04-28T11:00:57Z</time>
      </trkpt>
      <trkpt lat="45.30654" lon="5.47788">
        <ele>383.7</ele>
        <time>2022-04-28T11:00:58Z</time>
      </trkpt>
      <trkpt lat="45.30657" lon="5.47786">
        <ele>384</ele>
        <time>2022-04-28T11:00:59Z</time>
      </trkpt>
      <trkpt lat="45.30657" lon="5.47785">
        <ele>384.1</ele>
        <time>2022-04-28T11:01:00Z</time>
      </trkpt>
      <trkpt lat="45.3066" lon="5.47784">
        <ele>384.4</ele>
        <time>2022-04-28T11:01:01Z</time>
      </trkpt>
      <trkpt lat="45.30661" lon="5.47784">
        <ele>384.4</ele>
        <time>2022-04-28T11:01:02Z</time>
      </trkpt>
      <trkpt lat="45.30665" lon="5.47781">
        <ele>384.8</ele>
        <time>2022-04-28T11:01:04Z</time>
      </trkpt>
      <trkpt lat="45.30667" lon="5.4778">
        <ele>385</ele>
        <time>2022-04-28T11:01:05Z</time>
      </trkpt>
      <trkpt lat="45.30668" lon="5.47779">
        <ele>385.1</ele>
        <time>2022-04-28T11:01:06Z</time>
      </trkpt>
      <trkpt lat="45.3067" lon="5.47778">
        <ele>385.2</ele>
        <time>2022-04-28T11:01:07Z</time>
      </trkpt>
      <trkpt lat="45.30671" lon="5.47777">
        <ele>385.4</ele>
        <time>2022-04-28T11:01:08Z</time>
      </trkpt>
      <trkpt lat="45.30673" lon="5.47776">
        <ele>385.6</ele>
        <time>2022-04-28T11:01:09Z</time>
      </trkpt>
      <trkpt lat="45.30676" lon="5.47773">
        <ele>385.8</ele>
        <time>2022-04-28T11:01:11Z</time>
      </trkpt>
      <trkpt lat="45.3068" lon="5.47772">
        <ele>386.1</ele>
        <time>2022-04-28T11:01:12Z</time>
      </trkpt>
      <trkpt lat="45.30681" lon="5.47772">
        <ele>386.2</ele>
        <time>2022-04-28T11:01:13Z</time>
      </trkpt>
      <trkpt lat="45.30684" lon="5.4777">
        <ele>386.5</ele>
        <time>2022-04-28T11:01:14Z</time>
      </trkpt>
      <trkpt lat="45.30685" lon="5.47769">
        <ele>386.6</ele>
        <time>2022-04-28T11:01:15Z</time>
      </trkpt>
      <trkpt lat="45.30687" lon="5.47766">
        <ele>386.9</ele>
        <time>2022-04-28T11:01:16Z</time>
      </trkpt>
      <trkpt lat="45.30688" lon="5.47764">
        <ele>387</ele>
        <time>2022-04-28T11:01:17Z</time>
      </trkpt>
      <trkpt lat="45.3069" lon="5.4776">
        <ele>387.4</ele>
        <time>2022-04-28T11:01:18Z</time>
      </trkpt>
      <trkpt lat="45.30691" lon="5.47759">
        <ele>387.5</ele>
        <time>2022-04-28T11:01:19Z</time>
      </trkpt>
      <trkpt lat="45.30692" lon="5.47755">
        <ele>387.7</ele>
        <time>2022-04-28T11:01:20Z</time>
      </trkpt>
      <trkpt lat="45.30693" lon="5.47754">
        <ele>387.8</ele>
        <time>2022-04-28T11:01:21Z</time>
      </trkpt>
      <trkpt lat="45.30694" lon="5.47751">
        <ele>388.1</ele>
        <time>2022-04-28T11:01:22Z</time>
      </trkpt>
      <trkpt lat="45.30695" lon="5.47746">
        <ele>388.4</ele>
        <time>2022-04-28T11:01:23Z</time>
      </trkpt>
      <trkpt lat="45.30696" lon="5.47745">
        <ele>388.5</ele>
        <time>2022-04-28T11:01:24Z</time>
      </trkpt>
      <trkpt lat="45.30696" lon="5.47741">
        <ele>388.7</ele>
        <time>2022-04-28T11:01:25Z</time>
      </trkpt>
      <trkpt lat="45.30697" lon="5.47736">
        <ele>389.1</ele>
        <time>2022-04-28T11:01:27Z</time>
      </trkpt>
      <trkpt lat="45.30698" lon="5.47733">
        <ele>389.3</ele>
        <time>2022-04-28T11:01:28Z</time>
      </trkpt>
      <trkpt lat="45.30699" lon="5.47731">
        <ele>389.4</ele>
        <time>2022-04-28T11:01:29Z</time>
      </trkpt>
      <trkpt lat="45.307" lon="5.47727">
        <ele>389.7</ele>
        <time>2022-04-28T11:01:30Z</time>
      </trkpt>
      <trkpt lat="45.307" lon="5.47726">
        <ele>389.8</ele>
        <time>2022-04-28T11:01:31Z</time>
      </trkpt>
      <trkpt lat="45.307" lon="5.47722">
        <ele>390</ele>
        <time>2022-04-28T11:01:32Z</time>
      </trkpt>
      <trkpt lat="45.30701" lon="5.4772">
        <ele>390.1</ele>
        <time>2022-04-28T11:01:33Z</time>
      </trkpt>
      <trkpt lat="45.30702" lon="5.47716">
        <ele>390.4</ele>
        <time>2022-04-28T11:01:35Z</time>
      </trkpt>
      <trkpt lat="45.30703" lon="5.47712">
        <ele>390.6</ele>
        <time>2022-04-28T11:01:36Z</time>
      </trkpt>
      <trkpt lat="45.30704" lon="5.47708">
        <ele>390.9</ele>
        <time>2022-04-28T11:01:37Z</time>
      </trkpt>
      <trkpt lat="45.30705" lon="5.47707">
        <ele>391</ele>
        <time>2022-04-28T11:01:38Z</time>
      </trkpt>
      <trkpt lat="45.30705" lon="5.47704">
        <ele>391.1</ele>
        <time>2022-04-28T11:01:39Z</time>
      </trkpt>
      <trkpt lat="45.30705" lon="5.477">
        <ele>391.4</ele>
        <time>2022-04-28T11:01:41Z</time>
      </trkpt>
      <trkpt lat="45.30705" lon="5.47695">
        <ele>391.6</ele>
        <time>2022-04-28T11:01:42Z</time>
      </trkpt>
      <trkpt lat="45.30706" lon="5.47694">
        <ele>391.7</ele>
        <time>2022-04-28T11:01:43Z</time>
      </trkpt>
      <trkpt lat="45.30707" lon="5.47691">
        <ele>391.9</ele>
        <time>2022-04-28T11:01:44Z</time>
      </trkpt>
      <trkpt lat="45.30709" lon="5.47685">
        <ele>392.3</ele>
        <time>2022-04-28T11:01:46Z</time>
      </trkpt>
      <trkpt lat="45.30712" lon="5.47679">
        <ele>392.7</ele>
        <time>2022-04-28T11:01:48Z</time>
      </trkpt>
      <trkpt lat="45.30713" lon="5.47677">
        <ele>392.8</ele>
        <time>2022-04-28T11:01:49Z</time>
      </trkpt>
      <trkpt lat="45.30714" lon="5.47676">
        <ele>392.9</ele>
        <time>2022-04-28T11:01:50Z</time>
      </trkpt>
      <trkpt lat="45.30715" lon="5.4767">
        <ele>393.2</ele>
        <time>2022-04-28T11:01:51Z</time>
      </trkpt>
      <trkpt lat="45.30715" lon="5.47668">
        <ele>393.3</ele>
        <time>2022-04-28T11:01:52Z</time>
      </trkpt>
      <trkpt lat="45.30717" lon="5.47665">
        <ele>393.5</ele>
        <time>2022-04-28T11:01:53Z</time>
      </trkpt>
      <trkpt lat="45.30717" lon="5.47663">
        <ele>393.6</ele>
        <time>2022-04-28T11:01:54Z</time>
      </trkpt>
      <trkpt lat="45.30719" lon="5.4766">
        <ele>393.9</ele>
        <time>2022-04-28T11:01:55Z</time>
      </trkpt>
      <trkpt lat="45.30722" lon="5.47658">
        <ele>394.1</ele>
        <time>2022-04-28T11:01:56Z</time>
      </trkpt>
      <trkpt lat="45.30724" lon="5.47655">
        <ele>394.3</ele>
        <time>2022-04-28T11:01:57Z</time>
      </trkpt>
      <trkpt lat="45.30728" lon="5.47652">
        <ele>394.6</ele>
        <time>2022-04-28T11:01:59Z</time>
      </trkpt>
      <trkpt lat="45.3073" lon="5.47649">
        <ele>394.8</ele>
        <time>2022-04-28T11:02:00Z</time>
      </trkpt>
      <trkpt lat="45.30733" lon="5.47646">
        <ele>395.1</ele>
        <time>2022-04-28T11:02:01Z</time>
      </trkpt>
      <trkpt lat="45.30734" lon="5.47644">
        <ele>395.3</ele>
        <time>2022-04-28T11:02:02Z</time>
      </trkpt>
      <trkpt lat="45.30736" lon="5.47642">
        <ele>395.5</ele>
        <time>2022-04-28T11:02:03Z</time>
      </trkpt>
      <trkpt lat="45.30739" lon="5.47639">
        <ele>395.7</ele>
        <time>2022-04-28T11:02:04Z</time>
      </trkpt>
      <trkpt lat="45.3074" lon="5.47639">
        <ele>395.8</ele>
        <time>2022-04-28T11:02:05Z</time>
      </trkpt>
      <trkpt lat="45.30743" lon="5.47637">
        <ele>396.1</ele>
        <time>2022-04-28T11:02:06Z</time>
      </trkpt>
      <trkpt lat="45.30744" lon="5.47636">
        <ele>396.1</ele>
        <time>2022-04-28T11:02:07Z</time>
      </trkpt>
      <trkpt lat="45.30746" lon="5.47634">
        <ele>396.3</ele>
        <time>2022-04-28T11:02:08Z</time>
      </trkpt>
      <trkpt lat="45.30748" lon="5.47632">
        <ele>396.4</ele>
        <time>2022-04-28T11:02:10Z</time>
      </trkpt>
      <trkpt lat="45.30751" lon="5.47629">
        <ele>396.6</ele>
        <time>2022-04-28T11:02:11Z</time>
      </trkpt>
      <trkpt lat="45.30752" lon="5.47629">
        <ele>396.7</ele>
        <time>2022-04-28T11:02:12Z</time>
      </trkpt>
      <trkpt lat="45.30754" lon="5.47626">
        <ele>396.9</ele>
        <time>2022-04-28T11:02:13Z</time>
      </trkpt>
      <trkpt lat="45.30755" lon="5.47625">
        <ele>396.9</ele>
        <time>2022-04-28T11:02:14Z</time>
      </trkpt>
      <trkpt lat="45.30757" lon="5.47623">
        <ele>397.1</ele>
        <time>2022-04-28T11:02:16Z</time>
      </trkpt>
      <trkpt lat="45.30759" lon="5.4762">
        <ele>397.2</ele>
        <time>2022-04-28T11:02:17Z</time>
      </trkpt>
      <trkpt lat="45.30762" lon="5.47616">
        <ele>397.5</ele>
        <time>2022-04-28T11:02:18Z</time>
      </trkpt>
      <trkpt lat="45.30763" lon="5.47615">
        <ele>397.5</ele>
        <time>2022-04-28T11:02:19Z</time>
      </trkpt>
      <trkpt lat="45.30764" lon="5.47612">
        <ele>397.7</ele>
        <time>2022-04-28T11:02:20Z</time>
      </trkpt>
      <trkpt lat="45.30766" lon="5.47608">
        <ele>397.8</ele>
        <time>2022-04-28T11:02:22Z</time>
      </trkpt>
      <trkpt lat="45.30767" lon="5.47605">
        <ele>398</ele>
        <time>2022-04-28T11:02:23Z</time>
      </trkpt>
      <trkpt lat="45.30767" lon="5.47601">
        <ele>398.2</ele>
        <time>2022-04-28T11:02:24Z</time>
      </trkpt>
      <trkpt lat="45.30767" lon="5.47597">
        <ele>398.4</ele>
        <time>2022-04-28T11:02:25Z</time>
      </trkpt>
      <trkpt lat="45.30765" lon="5.47592">
        <ele>398.6</ele>
        <time>2022-04-28T11:02:26Z</time>
      </trkpt>
      <trkpt lat="45.30764" lon="5.4759">
        <ele>398.7</ele>
        <time>2022-04-28T11:02:27Z</time>
      </trkpt>
      <trkpt lat="45.30762" lon="5.47587">
        <ele>398.9</ele>
        <time>2022-04-28T11:02:28Z</time>
      </trkpt>
      <trkpt lat="45.30761" lon="5.47585">
        <ele>398.9</ele>
        <time>2022-04-28T11:02:29Z</time>
      </trkpt>
      <trkpt lat="45.30759" lon="5.47584">
        <ele>399.1</ele>
        <time>2022-04-28T11:02:30Z</time>
      </trkpt>
      <trkpt lat="45.30755" lon="5.47582">
        <ele>399.4</ele>
        <time>2022-04-28T11:02:32Z</time>
      </trkpt>
      <trkpt lat="45.30751" lon="5.47583">
        <ele>399.6</ele>
        <time>2022-04-28T11:02:33Z</time>
      </trkpt>
      <trkpt lat="45.3075" lon="5.47583">
        <ele>399.7</ele>
        <time>2022-04-28T11:02:34Z</time>
      </trkpt>
      <trkpt lat="45.30747" lon="5.47585">
        <ele>399.8</ele>
        <time>2022-04-28T11:02:35Z</time>
      </trkpt>
      <trkpt lat="45.30743" lon="5.47589">
        <ele>400.3</ele>
        <time>2022-04-28T11:02:37Z</time>
      </trkpt>
      <trkpt lat="45.30741" lon="5.47591">
        <ele>400.5</ele>
        <time>2022-04-28T11:02:38Z</time>
      </trkpt>
      <trkpt lat="45.3074" lon="5.47593">
        <ele>400.6</ele>
        <time>2022-04-28T11:02:39Z</time>
      </trkpt>
      <trkpt lat="45.30738" lon="5.47596">
        <ele>400.9</ele>
        <time>2022-04-28T11:02:40Z</time>
      </trkpt>
      <trkpt lat="45.30737" lon="5.47598">
        <ele>401</ele>
        <time>2022-04-28T11:02:41Z</time>
      </trkpt>
      <trkpt lat="45.30734" lon="5.47601">
        <ele>401.3</ele>
        <time>2022-04-28T11:02:42Z</time>
      </trkpt>
      <trkpt lat="45.30733" lon="5.47602">
        <ele>401.3</ele>
        <time>2022-04-28T11:02:43Z</time>
      </trkpt>
      <trkpt lat="45.30731" lon="5.47606">
        <ele>401.6</ele>
        <time>2022-04-28T11:02:44Z</time>
      </trkpt>
      <trkpt lat="45.3073" lon="5.47607">
        <ele>401.7</ele>
        <time>2022-04-28T11:02:45Z</time>
      </trkpt>
      <trkpt lat="45.30728" lon="5.47611">
        <ele>401.9</ele>
        <time>2022-04-28T11:02:46Z</time>
      </trkpt>
      <trkpt lat="45.30727" lon="5.47612">
        <ele>402</ele>
        <time>2022-04-28T11:02:47Z</time>
      </trkpt>
      <trkpt lat="45.30724" lon="5.47615">
        <ele>402.3</ele>
        <time>2022-04-28T11:02:48Z</time>
      </trkpt>
      <trkpt lat="45.30722" lon="5.47618">
        <ele>402.5</ele>
        <time>2022-04-28T11:02:49Z</time>
      </trkpt>
      <trkpt lat="45.30721" lon="5.4762">
        <ele>402.6</ele>
        <time>2022-04-28T11:02:50Z</time>
      </trkpt>
      <trkpt lat="45.30719" lon="5.47623">
        <ele>402.8</ele>
        <time>2022-04-28T11:02:51Z</time>
      </trkpt>
      <trkpt lat="45.30718" lon="5.47624">
        <ele>402.9</ele>
        <time>2022-04-28T11:02:52Z</time>
      </trkpt>
      <trkpt lat="45.30716" lon="5.47628">
        <ele>403.2</ele>
        <time>2022-04-28T11:02:53Z</time>
      </trkpt>
      <trkpt lat="45.30715" lon="5.47629">
        <ele>403.3</ele>
        <time>2022-04-28T11:02:54Z</time>
      </trkpt>
      <trkpt lat="45.30713" lon="5.47632">
        <ele>403.5</ele>
        <time>2022-04-28T11:02:55Z</time>
      </trkpt>
      <trkpt lat="45.30712" lon="5.47633">
        <ele>403.6</ele>
        <time>2022-04-28T11:02:56Z</time>
      </trkpt>
      <trkpt lat="45.3071" lon="5.47636">
        <ele>403.8</ele>
        <time>2022-04-28T11:02:57Z</time>
      </trkpt>
      <trkpt lat="45.30709" lon="5.47636">
        <ele>403.9</ele>
        <time>2022-04-28T11:02:58Z</time>
      </trkpt>
      <trkpt lat="45.30708" lon="5.47639">
        <ele>404.2</ele>
        <time>2022-04-28T11:02:59Z</time>
      </trkpt>
      <trkpt lat="45.30707" lon="5.4764">
        <ele>404.2</ele>
        <time>2022-04-28T11:03:00Z</time>
      </trkpt>
      <trkpt lat="45.30705" lon="5.47643">
        <ele>404.4</ele>
        <time>2022-04-28T11:03:01Z</time>
      </trkpt>
      <trkpt lat="45.30704" lon="5.47645">
        <ele>404.6</ele>
        <time>2022-04-28T11:03:03Z</time>
      </trkpt>
      <trkpt lat="45.30704" lon="5.47646">
        <ele>404.7</ele>
        <time>2022-04-28T11:03:04Z</time>
      </trkpt>
      <trkpt lat="45.30703" lon="5.47648">
        <ele>404.9</ele>
        <time>2022-04-28T11:03:05Z</time>
      </trkpt>
      <trkpt lat="45.30701" lon="5.47651">
        <ele>405.1</ele>
        <time>2022-04-28T11:03:06Z</time>
      </trkpt>
      <trkpt lat="45.30699" lon="5.47652">
        <ele>405.2</ele>
        <time>2022-04-28T11:03:07Z</time>
      </trkpt>
      <trkpt lat="45.30698" lon="5.47654">
        <ele>405.4</ele>
        <time>2022-04-28T11:03:08Z</time>
      </trkpt>
      <trkpt lat="45.30697" lon="5.47656">
        <ele>405.5</ele>
        <time>2022-04-28T11:03:09Z</time>
      </trkpt>
      <trkpt lat="45.30694" lon="5.47659">
        <ele>405.9</ele>
        <time>2022-04-28T11:03:11Z</time>
      </trkpt>
      <trkpt lat="45.30691" lon="5.47662">
        <ele>406.2</ele>
        <time>2022-04-28T11:03:12Z</time>
      </trkpt>
      <trkpt lat="45.30689" lon="5.47663">
        <ele>406.3</ele>
        <time>2022-04-28T11:03:13Z</time>
      </trkpt>
      <trkpt lat="45.30687" lon="5.47665">
        <ele>406.6</ele>
        <time>2022-04-28T11:03:14Z</time>
      </trkpt>
      <trkpt lat="45.30686" lon="5.47666">
        <ele>406.7</ele>
        <time>2022-04-28T11:03:15Z</time>
      </trkpt>
      <trkpt lat="45.30685" lon="5.47667">
        <ele>406.8</ele>
        <time>2022-04-28T11:03:16Z</time>
      </trkpt>
      <trkpt lat="45.30683" lon="5.47668">
        <ele>407</ele>
        <time>2022-04-28T11:03:17Z</time>
      </trkpt>
      <trkpt lat="45.30681" lon="5.4767">
        <ele>407.2</ele>
        <time>2022-04-28T11:03:18Z</time>
      </trkpt>
      <trkpt lat="45.3068" lon="5.47671">
        <ele>407.3</ele>
        <time>2022-04-28T11:03:19Z</time>
      </trkpt>
      <trkpt lat="45.30679" lon="5.47672">
        <ele>407.4</ele>
        <time>2022-04-28T11:03:20Z</time>
      </trkpt>
      <trkpt lat="45.30677" lon="5.47673">
        <ele>407.6</ele>
        <time>2022-04-28T11:03:21Z</time>
      </trkpt>
      <trkpt lat="45.30674" lon="5.47676">
        <ele>407.9</ele>
        <time>2022-04-28T11:03:22Z</time>
      </trkpt>
      <trkpt lat="45.30674" lon="5.47677">
        <ele>408</ele>
        <time>2022-04-28T11:03:23Z</time>
      </trkpt>
      <trkpt lat="45.30671" lon="5.47679">
        <ele>408.3</ele>
        <time>2022-04-28T11:03:24Z</time>
      </trkpt>
      <trkpt lat="45.3067" lon="5.4768">
        <ele>408.4</ele>
        <time>2022-04-28T11:03:25Z</time>
      </trkpt>
      <trkpt lat="45.30666" lon="5.47683">
        <ele>408.8</ele>
        <time>2022-04-28T11:03:27Z</time>
      </trkpt>
      <trkpt lat="45.30665" lon="5.47684">
        <ele>408.9</ele>
        <time>2022-04-28T11:03:28Z</time>
      </trkpt>
      <trkpt lat="45.30662" lon="5.47686">
        <ele>409.2</ele>
        <time>2022-04-28T11:03:29Z</time>
      </trkpt>
      <trkpt lat="45.30661" lon="5.47686">
        <ele>409.3</ele>
        <time>2022-04-28T11:03:30Z</time>
      </trkpt>
      <trkpt lat="45.30657" lon="5.47688">
        <ele>409.7</ele>
        <time>2022-04-28T11:03:32Z</time>
      </trkpt>
      <trkpt lat="45.30654" lon="5.4769">
        <ele>409.8</ele>
        <time>2022-04-28T11:03:33Z</time>
      </trkpt>
      <trkpt lat="45.30651" lon="5.47691">
        <ele>409.9</ele>
        <time>2022-04-28T11:03:34Z</time>
      </trkpt>
      <trkpt lat="45.30648" lon="5.47692">
        <ele>410.1</ele>
        <time>2022-04-28T11:03:35Z</time>
      </trkpt>
      <trkpt lat="45.30646" lon="5.47693">
        <ele>410.1</ele>
        <time>2022-04-28T11:03:36Z</time>
      </trkpt>
      <trkpt lat="45.30643" lon="5.47694">
        <ele>410.2</ele>
        <time>2022-04-28T11:03:38Z</time>
      </trkpt>
      <trkpt lat="45.3064" lon="5.47694">
        <ele>410.3</ele>
        <time>2022-04-28T11:03:39Z</time>
      </trkpt>
      <trkpt lat="45.30637" lon="5.47694">
        <ele>410.5</ele>
        <time>2022-04-28T11:03:40Z</time>
      </trkpt>
      <trkpt lat="45.30636" lon="5.47693">
        <ele>410.6</ele>
        <time>2022-04-28T11:03:41Z</time>
      </trkpt>
      <trkpt lat="45.30633" lon="5.4769">
        <ele>410.9</ele>
        <time>2022-04-28T11:03:42Z</time>
      </trkpt>
      <trkpt lat="45.30632" lon="5.4769">
        <ele>411</ele>
        <time>2022-04-28T11:03:43Z</time>
      </trkpt>
      <trkpt lat="45.3063" lon="5.47686">
        <ele>411.3</ele>
        <time>2022-04-28T11:03:44Z</time>
      </trkpt>
      <trkpt lat="45.30629" lon="5.47685">
        <ele>411.4</ele>
        <time>2022-04-28T11:03:45Z</time>
      </trkpt>
      <trkpt lat="45.30626" lon="5.4768">
        <ele>411.8</ele>
        <time>2022-04-28T11:03:47Z</time>
      </trkpt>
      <trkpt lat="45.30625" lon="5.47678">
        <ele>411.9</ele>
        <time>2022-04-28T11:03:48Z</time>
      </trkpt>
      <trkpt lat="45.30624" lon="5.47676">
        <ele>412</ele>
        <time>2022-04-28T11:03:49Z</time>
      </trkpt>
      <trkpt lat="45.30623" lon="5.47672">
        <ele>412.3</ele>
        <time>2022-04-28T11:03:50Z</time>
      </trkpt>
      <trkpt lat="45.30623" lon="5.4767">
        <ele>412.4</ele>
        <time>2022-04-28T11:03:51Z</time>
      </trkpt>
      <trkpt lat="45.30621" lon="5.47665">
        <ele>412.8</ele>
        <time>2022-04-28T11:03:53Z</time>
      </trkpt>
      <trkpt lat="45.3062" lon="5.47663">
        <ele>412.9</ele>
        <time>2022-04-28T11:03:54Z</time>
      </trkpt>
      <trkpt lat="45.3062" lon="5.47661">
        <ele>413</ele>
        <time>2022-04-28T11:03:55Z</time>
      </trkpt>
      <trkpt lat="45.30618" lon="5.47657">
        <ele>413.3</ele>
        <time>2022-04-28T11:03:56Z</time>
      </trkpt>
      <trkpt lat="45.30616" lon="5.47654">
        <ele>413.5</ele>
        <time>2022-04-28T11:03:57Z</time>
      </trkpt>
      <trkpt lat="45.30616" lon="5.47653">
        <ele>413.6</ele>
        <time>2022-04-28T11:03:58Z</time>
      </trkpt>
      <trkpt lat="45.30613" lon="5.47651">
        <ele>413.9</ele>
        <time>2022-04-28T11:03:59Z</time>
      </trkpt>
      <trkpt lat="45.30612" lon="5.4765">
        <ele>414</ele>
        <time>2022-04-28T11:04:00Z</time>
      </trkpt>
      <trkpt lat="45.30609" lon="5.47648">
        <ele>414.2</ele>
        <time>2022-04-28T11:04:01Z</time>
      </trkpt>
      <trkpt lat="45.30608" lon="5.47647">
        <ele>414.3</ele>
        <time>2022-04-28T11:04:02Z</time>
      </trkpt>
      <trkpt lat="45.30606" lon="5.47645">
        <ele>414.5</ele>
        <time>2022-04-28T11:04:03Z</time>
      </trkpt>
      <trkpt lat="45.30605" lon="5.47645">
        <ele>414.6</ele>
        <time>2022-04-28T11:04:04Z</time>
      </trkpt>
      <trkpt lat="45.30602" lon="5.47644">
        <ele>414.9</ele>
        <time>2022-04-28T11:04:05Z</time>
      </trkpt>
      <trkpt lat="45.306" lon="5.47644">
        <ele>415</ele>
        <time>2022-04-28T11:04:06Z</time>
      </trkpt>
      <trkpt lat="45.30597" lon="5.47644">
        <ele>415.3</ele>
        <time>2022-04-28T11:04:07Z</time>
      </trkpt>
      <trkpt lat="45.30596" lon="5.47643">
        <ele>415.3</ele>
        <time>2022-04-28T11:04:08Z</time>
      </trkpt>
      <trkpt lat="45.30593" lon="5.47643">
        <ele>415.6</ele>
        <time>2022-04-28T11:04:09Z</time>
      </trkpt>
      <trkpt lat="45.30592" lon="5.47643">
        <ele>415.7</ele>
        <time>2022-04-28T11:04:10Z</time>
      </trkpt>
      <trkpt lat="45.30589" lon="5.47644">
        <ele>416</ele>
        <time>2022-04-28T11:04:11Z</time>
      </trkpt>
      <trkpt lat="45.30588" lon="5.47644">
        <ele>416.1</ele>
        <time>2022-04-28T11:04:12Z</time>
      </trkpt>
      <trkpt lat="45.30585" lon="5.47644">
        <ele>416.4</ele>
        <time>2022-04-28T11:04:13Z</time>
      </trkpt>
      <trkpt lat="45.30583" lon="5.47644">
        <ele>416.5</ele>
        <time>2022-04-28T11:04:14Z</time>
      </trkpt>
      <trkpt lat="45.3058" lon="5.47646">
        <ele>416.8</ele>
        <time>2022-04-28T11:04:16Z</time>
      </trkpt>
      <trkpt lat="45.30579" lon="5.47646">
        <ele>416.9</ele>
        <time>2022-04-28T11:04:17Z</time>
      </trkpt>
      <trkpt lat="45.30576" lon="5.47647">
        <ele>417.2</ele>
        <time>2022-04-28T11:04:18Z</time>
      </trkpt>
      <trkpt lat="45.30572" lon="5.47649">
        <ele>417.5</ele>
        <time>2022-04-28T11:04:19Z</time>
      </trkpt>
      <trkpt lat="45.30571" lon="5.47649">
        <ele>417.6</ele>
        <time>2022-04-28T11:04:20Z</time>
      </trkpt>
      <trkpt lat="45.30569" lon="5.47651">
        <ele>417.8</ele>
        <time>2022-04-28T11:04:21Z</time>
      </trkpt>
      <trkpt lat="45.30567" lon="5.47652">
        <ele>418</ele>
        <time>2022-04-28T11:04:23Z</time>
      </trkpt>
      <trkpt lat="45.30563" lon="5.47654">
        <ele>418.3</ele>
        <time>2022-04-28T11:04:24Z</time>
      </trkpt>
      <trkpt lat="45.30562" lon="5.47655">
        <ele>418.4</ele>
        <time>2022-04-28T11:04:25Z</time>
      </trkpt>
      <trkpt lat="45.30559" lon="5.47657">
        <ele>418.7</ele>
        <time>2022-04-28T11:04:26Z</time>
      </trkpt>
      <trkpt lat="45.30557" lon="5.47659">
        <ele>418.8</ele>
        <time>2022-04-28T11:04:27Z</time>
      </trkpt>
      <trkpt lat="45.30554" lon="5.47662">
        <ele>419.1</ele>
        <time>2022-04-28T11:04:29Z</time>
      </trkpt>
      <trkpt lat="45.30552" lon="5.47666">
        <ele>419.4</ele>
        <time>2022-04-28T11:04:30Z</time>
      </trkpt>
      <trkpt lat="45.3055" lon="5.47669">
        <ele>419.6</ele>
        <time>2022-04-28T11:04:31Z</time>
      </trkpt>
      <trkpt lat="45.30549" lon="5.47671">
        <ele>419.7</ele>
        <time>2022-04-28T11:04:32Z</time>
      </trkpt>
      <trkpt lat="45.30547" lon="5.47674">
        <ele>420</ele>
        <time>2022-04-28T11:04:33Z</time>
      </trkpt>
      <trkpt lat="45.30547" lon="5.47676">
        <ele>420.1</ele>
        <time>2022-04-28T11:04:34Z</time>
      </trkpt>
      <trkpt lat="45.30546" lon="5.47678">
        <ele>420.2</ele>
        <time>2022-04-28T11:04:35Z</time>
      </trkpt>
      <trkpt lat="45.30544" lon="5.47681">
        <ele>420.4</ele>
        <time>2022-04-28T11:04:37Z</time>
      </trkpt>
      <trkpt lat="45.30542" lon="5.47684">
        <ele>420.7</ele>
        <time>2022-04-28T11:04:38Z</time>
      </trkpt>
      <trkpt lat="45.3054" lon="5.47687">
        <ele>420.9</ele>
        <time>2022-04-28T11:04:39Z</time>
      </trkpt>
      <trkpt lat="45.30539" lon="5.47688">
        <ele>421</ele>
        <time>2022-04-28T11:04:40Z</time>
      </trkpt>
      <trkpt lat="45.30536" lon="5.47691">
        <ele>421.3</ele>
        <time>2022-04-28T11:04:41Z</time>
      </trkpt>
      <trkpt lat="45.30536" lon="5.47692">
        <ele>421.4</ele>
        <time>2022-04-28T11:04:42Z</time>
      </trkpt>
      <trkpt lat="45.30533" lon="5.47694">
        <ele>421.6</ele>
        <time>2022-04-28T11:04:44Z</time>
      </trkpt>
      <trkpt lat="45.3053" lon="5.47696">
        <ele>421.9</ele>
        <time>2022-04-28T11:04:45Z</time>
      </trkpt>
      <trkpt lat="45.30528" lon="5.47698">
        <ele>422.1</ele>
        <time>2022-04-28T11:04:46Z</time>
      </trkpt>
      <trkpt lat="45.30527" lon="5.47698">
        <ele>422.2</ele>
        <time>2022-04-28T11:04:47Z</time>
      </trkpt>
      <trkpt lat="45.30524" lon="5.477">
        <ele>422.5</ele>
        <time>2022-04-28T11:04:48Z</time>
      </trkpt>
      <trkpt lat="45.30523" lon="5.47701">
        <ele>422.5</ele>
        <time>2022-04-28T11:04:49Z</time>
      </trkpt>
      <trkpt lat="45.3052" lon="5.47702">
        <ele>422.8</ele>
        <time>2022-04-28T11:04:50Z</time>
      </trkpt>
      <trkpt lat="45.30519" lon="5.47702">
        <ele>422.9</ele>
        <time>2022-04-28T11:04:51Z</time>
      </trkpt>
      <trkpt lat="45.30517" lon="5.47703">
        <ele>423</ele>
        <time>2022-04-28T11:04:52Z</time>
      </trkpt>
      <trkpt lat="45.30514" lon="5.47704">
        <ele>423.3</ele>
        <time>2022-04-28T11:04:54Z</time>
      </trkpt>
      <trkpt lat="45.30511" lon="5.47705">
        <ele>423.6</ele>
        <time>2022-04-28T11:04:55Z</time>
      </trkpt>
      <trkpt lat="45.30508" lon="5.47705">
        <ele>423.8</ele>
        <time>2022-04-28T11:04:56Z</time>
      </trkpt>
      <trkpt lat="45.30507" lon="5.47706">
        <ele>423.9</ele>
        <time>2022-04-28T11:04:57Z</time>
      </trkpt>
      <trkpt lat="45.30504" lon="5.47706">
        <ele>424.1</ele>
        <time>2022-04-28T11:04:58Z</time>
      </trkpt>
      <trkpt lat="45.30503" lon="5.47706">
        <ele>424.2</ele>
        <time>2022-04-28T11:04:59Z</time>
      </trkpt>
      <trkpt lat="45.30501" lon="5.47707">
        <ele>424.4</ele>
        <time>2022-04-28T11:05:00Z</time>
      </trkpt>
      <trkpt lat="45.30498" lon="5.47707">
        <ele>424.6</ele>
        <time>2022-04-28T11:05:02Z</time>
      </trkpt>
      <trkpt lat="45.30495" lon="5.47708">
        <ele>424.8</ele>
        <time>2022-04-28T11:05:03Z</time>
      </trkpt>
      <trkpt lat="45.30492" lon="5.47708">
        <ele>425.1</ele>
        <time>2022-04-28T11:05:05Z</time>
      </trkpt>
      <trkpt lat="45.30489" lon="5.47708">
        <ele>425.3</ele>
        <time>2022-04-28T11:05:06Z</time>
      </trkpt>
      <trkpt lat="45.30487" lon="5.47708">
        <ele>425.5</ele>
        <time>2022-04-28T11:05:07Z</time>
      </trkpt>
      <trkpt lat="45.30484" lon="5.47707">
        <ele>425.8</ele>
        <time>2022-04-28T11:05:09Z</time>
      </trkpt>
      <trkpt lat="45.3048" lon="5.47706">
        <ele>426.1</ele>
        <time>2022-04-28T11:05:10Z</time>
      </trkpt>
      <trkpt lat="45.30476" lon="5.47705">
        <ele>426.5</ele>
        <time>2022-04-28T11:05:12Z</time>
      </trkpt>
      <trkpt lat="45.30474" lon="5.47704">
        <ele>426.6</ele>
        <time>2022-04-28T11:05:13Z</time>
      </trkpt>
      <trkpt lat="45.30472" lon="5.47704">
        <ele>426.8</ele>
        <time>2022-04-28T11:05:14Z</time>
      </trkpt>
      <trkpt lat="45.30469" lon="5.47703">
        <ele>427</ele>
        <time>2022-04-28T11:05:15Z</time>
      </trkpt>
      <trkpt lat="45.30468" lon="5.47703">
        <ele>427.1</ele>
        <time>2022-04-28T11:05:16Z</time>
      </trkpt>
      <trkpt lat="45.30464" lon="5.47702">
        <ele>427.5</ele>
        <time>2022-04-28T11:05:18Z</time>
      </trkpt>
      <trkpt lat="45.30462" lon="5.47701">
        <ele>427.6</ele>
        <time>2022-04-28T11:05:19Z</time>
      </trkpt>
      <trkpt lat="45.30461" lon="5.47701">
        <ele>427.7</ele>
        <time>2022-04-28T11:05:20Z</time>
      </trkpt>
      <trkpt lat="45.30458" lon="5.47699">
        <ele>428</ele>
        <time>2022-04-28T11:05:21Z</time>
      </trkpt>
      <trkpt lat="45.30457" lon="5.47699">
        <ele>428.1</ele>
        <time>2022-04-28T11:05:22Z</time>
      </trkpt>
      <trkpt lat="45.30453" lon="5.47698">
        <ele>428.4</ele>
        <time>2022-04-28T11:05:23Z</time>
      </trkpt>
      <trkpt lat="45.30452" lon="5.47698">
        <ele>428.5</ele>
        <time>2022-04-28T11:05:24Z</time>
      </trkpt>
      <trkpt lat="45.30449" lon="5.47698">
        <ele>428.7</ele>
        <time>2022-04-28T11:05:25Z</time>
      </trkpt>
      <trkpt lat="45.30448" lon="5.47698">
        <ele>428.8</ele>
        <time>2022-04-28T11:05:26Z</time>
      </trkpt>
      <trkpt lat="45.30445" lon="5.47698">
        <ele>429</ele>
        <time>2022-04-28T11:05:28Z</time>
      </trkpt>
      <trkpt lat="45.30442" lon="5.47697">
        <ele>429.3</ele>
        <time>2022-04-28T11:05:29Z</time>
      </trkpt>
      <trkpt lat="45.30439" lon="5.47696">
        <ele>429.6</ele>
        <time>2022-04-28T11:05:30Z</time>
      </trkpt>
      <trkpt lat="45.30438" lon="5.47696">
        <ele>429.7</ele>
        <time>2022-04-28T11:05:31Z</time>
      </trkpt>
      <trkpt lat="45.30435" lon="5.47695">
        <ele>430</ele>
        <time>2022-04-28T11:05:32Z</time>
      </trkpt>
      <trkpt lat="45.30433" lon="5.47695">
        <ele>430</ele>
        <time>2022-04-28T11:05:33Z</time>
      </trkpt>
      <trkpt lat="45.30431" lon="5.47694">
        <ele>430.3</ele>
        <time>2022-04-28T11:05:34Z</time>
      </trkpt>
      <trkpt lat="45.3043" lon="5.47693">
        <ele>430.4</ele>
        <time>2022-04-28T11:05:35Z</time>
      </trkpt>
      <trkpt lat="45.30427" lon="5.47691">
        <ele>430.6</ele>
        <time>2022-04-28T11:05:36Z</time>
      </trkpt>
      <trkpt lat="45.30426" lon="5.47691">
        <ele>430.7</ele>
        <time>2022-04-28T11:05:37Z</time>
      </trkpt>
      <trkpt lat="45.30424" lon="5.4769">
        <ele>430.9</ele>
        <time>2022-04-28T11:05:38Z</time>
      </trkpt>
      <trkpt lat="45.30422" lon="5.47687">
        <ele>431.1</ele>
        <time>2022-04-28T11:05:40Z</time>
      </trkpt>
      <trkpt lat="45.30421" lon="5.47682">
        <ele>431.4</ele>
        <time>2022-04-28T11:05:41Z</time>
      </trkpt>
      <trkpt lat="45.3042" lon="5.4768">
        <ele>431.6</ele>
        <time>2022-04-28T11:05:42Z</time>
      </trkpt>
      <trkpt lat="45.3042" lon="5.47676">
        <ele>431.8</ele>
        <time>2022-04-28T11:05:43Z</time>
      </trkpt>
      <trkpt lat="45.30421" lon="5.47672">
        <ele>432.1</ele>
        <time>2022-04-28T11:05:45Z</time>
      </trkpt>
      <trkpt lat="45.30421" lon="5.47666">
        <ele>432.4</ele>
        <time>2022-04-28T11:05:46Z</time>
      </trkpt>
      <trkpt lat="45.30421" lon="5.47661">
        <ele>432.6</ele>
        <time>2022-04-28T11:05:47Z</time>
      </trkpt>
      <trkpt lat="45.30423" lon="5.47656">
        <ele>433</ele>
        <time>2022-04-28T11:05:49Z</time>
      </trkpt>
      <trkpt lat="45.30425" lon="5.47655">
        <ele>433.2</ele>
        <time>2022-04-28T11:05:50Z</time>
      </trkpt>
      <trkpt lat="45.30427" lon="5.47653">
        <ele>433.3</ele>
        <time>2022-04-28T11:05:51Z</time>
      </trkpt>
      <trkpt lat="45.3043" lon="5.47653">
        <ele>433.5</ele>
        <time>2022-04-28T11:05:52Z</time>
      </trkpt>
      <trkpt lat="45.30434" lon="5.47652">
        <ele>433.8</ele>
        <time>2022-04-28T11:05:53Z</time>
      </trkpt>
      <trkpt lat="45.30437" lon="5.47652">
        <ele>434</ele>
        <time>2022-04-28T11:05:54Z</time>
      </trkpt>
      <trkpt lat="45.3044" lon="5.47653">
        <ele>434.2</ele>
        <time>2022-04-28T11:05:56Z</time>
      </trkpt>
      <trkpt lat="45.30443" lon="5.47654">
        <ele>434.4</ele>
        <time>2022-04-28T11:05:57Z</time>
      </trkpt>
      <trkpt lat="45.30447" lon="5.47656">
        <ele>434.7</ele>
        <time>2022-04-28T11:05:59Z</time>
      </trkpt>
      <trkpt lat="45.3045" lon="5.47657">
        <ele>434.9</ele>
        <time>2022-04-28T11:06:00Z</time>
      </trkpt>
      <trkpt lat="45.30453" lon="5.47657">
        <ele>435</ele>
        <time>2022-04-28T11:06:01Z</time>
      </trkpt>
      <trkpt lat="45.30457" lon="5.47658">
        <ele>435.3</ele>
        <time>2022-04-28T11:06:02Z</time>
      </trkpt>
      <trkpt lat="45.3046" lon="5.47657">
        <ele>435.5</ele>
        <time>2022-04-28T11:06:03Z</time>
      </trkpt>
      <trkpt lat="45.30463" lon="5.47657">
        <ele>435.6</ele>
        <time>2022-04-28T11:06:04Z</time>
      </trkpt>
      <trkpt lat="45.30467" lon="5.47657">
        <ele>435.8</ele>
        <time>2022-04-28T11:06:06Z</time>
      </trkpt>
      <trkpt lat="45.30471" lon="5.47656">
        <ele>436</ele>
        <time>2022-04-28T11:06:07Z</time>
      </trkpt>
      <trkpt lat="45.30475" lon="5.47656">
        <ele>436.2</ele>
        <time>2022-04-28T11:06:08Z</time>
      </trkpt>
      <trkpt lat="45.3048" lon="5.47654">
        <ele>436.5</ele>
        <time>2022-04-28T11:06:09Z</time>
      </trkpt>
      <trkpt lat="45.30483" lon="5.47652">
        <ele>436.7</ele>
        <time>2022-04-28T11:06:10Z</time>
      </trkpt>
      <trkpt lat="45.30486" lon="5.4765">
        <ele>436.9</ele>
        <time>2022-04-28T11:06:11Z</time>
      </trkpt>
      <trkpt lat="45.30489" lon="5.47648">
        <ele>437</ele>
        <time>2022-04-28T11:06:12Z</time>
      </trkpt>
      <trkpt lat="45.30494" lon="5.47645">
        <ele>437.3</ele>
        <time>2022-04-28T11:06:14Z</time>
      </trkpt>
      <trkpt lat="45.30497" lon="5.47643">
        <ele>437.5</ele>
        <time>2022-04-28T11:06:15Z</time>
      </trkpt>
      <trkpt lat="45.30502" lon="5.47638">
        <ele>437.9</ele>
        <time>2022-04-28T11:06:17Z</time>
      </trkpt>
      <trkpt lat="45.30505" lon="5.47636">
        <ele>438</ele>
        <time>2022-04-28T11:06:18Z</time>
      </trkpt>
      <trkpt lat="45.30507" lon="5.47633">
        <ele>438.2</ele>
        <time>2022-04-28T11:06:19Z</time>
      </trkpt>
      <trkpt lat="45.3051" lon="5.47629">
        <ele>438.4</ele>
        <time>2022-04-28T11:06:20Z</time>
      </trkpt>
      <trkpt lat="45.30511" lon="5.47628">
        <ele>438.5</ele>
        <time>2022-04-28T11:06:21Z</time>
      </trkpt>
      <trkpt lat="45.30514" lon="5.47624">
        <ele>438.7</ele>
        <time>2022-04-28T11:06:22Z</time>
      </trkpt>
      <trkpt lat="45.30515" lon="5.47623">
        <ele>438.8</ele>
        <time>2022-04-28T11:06:23Z</time>
      </trkpt>
      <trkpt lat="45.30517" lon="5.4762">
        <ele>439</ele>
        <time>2022-04-28T11:06:24Z</time>
      </trkpt>
      <trkpt lat="45.3052" lon="5.47616">
        <ele>439.2</ele>
        <time>2022-04-28T11:06:25Z</time>
      </trkpt>
      <trkpt lat="45.30521" lon="5.47615">
        <ele>439.3</ele>
        <time>2022-04-28T11:06:26Z</time>
      </trkpt>
      <trkpt lat="45.30524" lon="5.47611">
        <ele>439.5</ele>
        <time>2022-04-28T11:06:27Z</time>
      </trkpt>
      <trkpt lat="45.30525" lon="5.4761">
        <ele>439.6</ele>
        <time>2022-04-28T11:06:28Z</time>
      </trkpt>
      <trkpt lat="45.30527" lon="5.47606">
        <ele>439.8</ele>
        <time>2022-04-28T11:06:29Z</time>
      </trkpt>
      <trkpt lat="45.30528" lon="5.47605">
        <ele>439.9</ele>
        <time>2022-04-28T11:06:30Z</time>
      </trkpt>
      <trkpt lat="45.30531" lon="5.47602">
        <ele>440</ele>
        <time>2022-04-28T11:06:31Z</time>
      </trkpt>
      <trkpt lat="45.30534" lon="5.47599">
        <ele>440.3</ele>
        <time>2022-04-28T11:06:33Z</time>
      </trkpt>
      <trkpt lat="45.30537" lon="5.47597">
        <ele>440.5</ele>
        <time>2022-04-28T11:06:34Z</time>
      </trkpt>
      <trkpt lat="45.3054" lon="5.47595">
        <ele>440.6</ele>
        <time>2022-04-28T11:06:35Z</time>
      </trkpt>
      <trkpt lat="45.30542" lon="5.47594">
        <ele>440.8</ele>
        <time>2022-04-28T11:06:36Z</time>
      </trkpt>
      <trkpt lat="45.30545" lon="5.47593">
        <ele>441</ele>
        <time>2022-04-28T11:06:38Z</time>
      </trkpt>
      <trkpt lat="45.3055" lon="5.47591">
        <ele>441.3</ele>
        <time>2022-04-28T11:06:39Z</time>
      </trkpt>
      <trkpt lat="45.30553" lon="5.4759">
        <ele>441.5</ele>
        <time>2022-04-28T11:06:40Z</time>
      </trkpt>
      <trkpt lat="45.30556" lon="5.47588">
        <ele>441.7</ele>
        <time>2022-04-28T11:06:41Z</time>
      </trkpt>
      <trkpt lat="45.30559" lon="5.47587">
        <ele>441.9</ele>
        <time>2022-04-28T11:06:42Z</time>
      </trkpt>
      <trkpt lat="45.30564" lon="5.47585">
        <ele>442.2</ele>
        <time>2022-04-28T11:06:44Z</time>
      </trkpt>
      <trkpt lat="45.30567" lon="5.47584">
        <ele>442.4</ele>
        <time>2022-04-28T11:06:45Z</time>
      </trkpt>
      <trkpt lat="45.3057" lon="5.47583">
        <ele>442.6</ele>
        <time>2022-04-28T11:06:46Z</time>
      </trkpt>
      <trkpt lat="45.30573" lon="5.47583">
        <ele>442.8</ele>
        <time>2022-04-28T11:06:47Z</time>
      </trkpt>
      <trkpt lat="45.30575" lon="5.47583">
        <ele>442.9</ele>
        <time>2022-04-28T11:06:48Z</time>
      </trkpt>
      <trkpt lat="45.30578" lon="5.4758">
        <ele>443.1</ele>
        <time>2022-04-28T11:06:50Z</time>
      </trkpt>
      <trkpt lat="45.3058" lon="5.47577">
        <ele>443.3</ele>
        <time>2022-04-28T11:06:51Z</time>
      </trkpt>
      <trkpt lat="45.30582" lon="5.47572">
        <ele>443.5</ele>
        <time>2022-04-28T11:06:52Z</time>
      </trkpt>
      <trkpt lat="45.30583" lon="5.47569">
        <ele>443.6</ele>
        <time>2022-04-28T11:06:53Z</time>
      </trkpt>
      <trkpt lat="45.30585" lon="5.47566">
        <ele>443.8</ele>
        <time>2022-04-28T11:06:54Z</time>
      </trkpt>
      <trkpt lat="45.30587" lon="5.47561">
        <ele>443.9</ele>
        <time>2022-04-28T11:06:55Z</time>
      </trkpt>
      <trkpt lat="45.30589" lon="5.47558">
        <ele>444.1</ele>
        <time>2022-04-28T11:06:56Z</time>
      </trkpt>
      <trkpt lat="45.30591" lon="5.47555">
        <ele>444.3</ele>
        <time>2022-04-28T11:06:57Z</time>
      </trkpt>
      <trkpt lat="45.30593" lon="5.47552">
        <ele>444.4</ele>
        <time>2022-04-28T11:06:58Z</time>
      </trkpt>
      <trkpt lat="45.30596" lon="5.47548">
        <ele>444.6</ele>
        <time>2022-04-28T11:06:59Z</time>
      </trkpt>
      <trkpt lat="45.30599" lon="5.47544">
        <ele>444.8</ele>
        <time>2022-04-28T11:07:01Z</time>
      </trkpt>
      <trkpt lat="45.30601" lon="5.4754">
        <ele>445</ele>
        <time>2022-04-28T11:07:02Z</time>
      </trkpt>
      <trkpt lat="45.30602" lon="5.47538">
        <ele>445.1</ele>
        <time>2022-04-28T11:07:03Z</time>
      </trkpt>
      <trkpt lat="45.30604" lon="5.47535">
        <ele>445.2</ele>
        <time>2022-04-28T11:07:04Z</time>
      </trkpt>
      <trkpt lat="45.30606" lon="5.47532">
        <ele>445.4</ele>
        <time>2022-04-28T11:07:05Z</time>
      </trkpt>
      <trkpt lat="45.30609" lon="5.47527">
        <ele>445.6</ele>
        <time>2022-04-28T11:07:06Z</time>
      </trkpt>
      <trkpt lat="45.3061" lon="5.47524">
        <ele>445.8</ele>
        <time>2022-04-28T11:07:07Z</time>
      </trkpt>
      <trkpt lat="45.30612" lon="5.4752">
        <ele>445.9</ele>
        <time>2022-04-28T11:07:08Z</time>
      </trkpt>
      <trkpt lat="45.30613" lon="5.47517">
        <ele>446.1</ele>
        <time>2022-04-28T11:07:09Z</time>
      </trkpt>
      <trkpt lat="45.30616" lon="5.47512">
        <ele>446.2</ele>
        <time>2022-04-28T11:07:10Z</time>
      </trkpt>
      <trkpt lat="45.30616" lon="5.47511">
        <ele>446.3</ele>
        <time>2022-04-28T11:07:11Z</time>
      </trkpt>
      <trkpt lat="45.30619" lon="5.47508">
        <ele>446.5</ele>
        <time>2022-04-28T11:07:12Z</time>
      </trkpt>
      <trkpt lat="45.3062" lon="5.47506">
        <ele>446.6</ele>
        <time>2022-04-28T11:07:13Z</time>
      </trkpt>
      <trkpt lat="45.30622" lon="5.47502">
        <ele>446.8</ele>
        <time>2022-04-28T11:07:14Z</time>
      </trkpt>
      <trkpt lat="45.30623" lon="5.47501">
        <ele>446.8</ele>
        <time>2022-04-28T11:07:15Z</time>
      </trkpt>
      <trkpt lat="45.30626" lon="5.47497">
        <ele>447</ele>
        <time>2022-04-28T11:07:16Z</time>
      </trkpt>
      <trkpt lat="45.30627" lon="5.47496">
        <ele>447.1</ele>
        <time>2022-04-28T11:07:17Z</time>
      </trkpt>
      <trkpt lat="45.30629" lon="5.47492">
        <ele>447.3</ele>
        <time>2022-04-28T11:07:18Z</time>
      </trkpt>
      <trkpt lat="45.3063" lon="5.4749">
        <ele>447.4</ele>
        <time>2022-04-28T11:07:19Z</time>
      </trkpt>
      <trkpt lat="45.30632" lon="5.47487">
        <ele>447.6</ele>
        <time>2022-04-28T11:07:20Z</time>
      </trkpt>
      <trkpt lat="45.30634" lon="5.47484">
        <ele>447.8</ele>
        <time>2022-04-28T11:07:21Z</time>
      </trkpt>
      <trkpt lat="45.30636" lon="5.47481">
        <ele>447.9</ele>
        <time>2022-04-28T11:07:22Z</time>
      </trkpt>
      <trkpt lat="45.30638" lon="5.47478">
        <ele>448.1</ele>
        <time>2022-04-28T11:07:23Z</time>
      </trkpt>
      <trkpt lat="45.3064" lon="5.47475">
        <ele>448.2</ele>
        <time>2022-04-28T11:07:24Z</time>
      </trkpt>
      <trkpt lat="45.30643" lon="5.47471">
        <ele>448.5</ele>
        <time>2022-04-28T11:07:25Z</time>
      </trkpt>
      <trkpt lat="45.30644" lon="5.4747">
        <ele>448.6</ele>
        <time>2022-04-28T11:07:26Z</time>
      </trkpt>
      <trkpt lat="45.30646" lon="5.47467">
        <ele>448.7</ele>
        <time>2022-04-28T11:07:27Z</time>
      </trkpt>
      <trkpt lat="45.30649" lon="5.47463">
        <ele>448.9</ele>
        <time>2022-04-28T11:07:28Z</time>
      </trkpt>
      <trkpt lat="45.3065" lon="5.47462">
        <ele>449</ele>
        <time>2022-04-28T11:07:29Z</time>
      </trkpt>
      <trkpt lat="45.30653" lon="5.47459">
        <ele>449.2</ele>
        <time>2022-04-28T11:07:30Z</time>
      </trkpt>
      <trkpt lat="45.30655" lon="5.47457">
        <ele>449.3</ele>
        <time>2022-04-28T11:07:31Z</time>
      </trkpt>
      <trkpt lat="45.30657" lon="5.47454">
        <ele>449.5</ele>
        <time>2022-04-28T11:07:32Z</time>
      </trkpt>
      <trkpt lat="45.30659" lon="5.47451">
        <ele>449.7</ele>
        <time>2022-04-28T11:07:33Z</time>
      </trkpt>
      <trkpt lat="45.30663" lon="5.47449">
        <ele>449.9</ele>
        <time>2022-04-28T11:07:34Z</time>
      </trkpt>
      <trkpt lat="45.30664" lon="5.47448">
        <ele>450</ele>
        <time>2022-04-28T11:07:35Z</time>
      </trkpt>
      <trkpt lat="45.30666" lon="5.47446">
        <ele>450.2</ele>
        <time>2022-04-28T11:07:36Z</time>
      </trkpt>
      <trkpt lat="45.30669" lon="5.47441">
        <ele>450.5</ele>
        <time>2022-04-28T11:07:38Z</time>
      </trkpt>
      <trkpt lat="45.30673" lon="5.47436">
        <ele>450.8</ele>
        <time>2022-04-28T11:07:39Z</time>
      </trkpt>
      <trkpt lat="45.30675" lon="5.47434">
        <ele>450.9</ele>
        <time>2022-04-28T11:07:40Z</time>
      </trkpt>
      <trkpt lat="45.30678" lon="5.4743">
        <ele>451.1</ele>
        <time>2022-04-28T11:07:41Z</time>
      </trkpt>
      <trkpt lat="45.30679" lon="5.47429">
        <ele>451.2</ele>
        <time>2022-04-28T11:07:42Z</time>
      </trkpt>
      <trkpt lat="45.30682" lon="5.47426">
        <ele>451.4</ele>
        <time>2022-04-28T11:07:44Z</time>
      </trkpt>
      <trkpt lat="45.30684" lon="5.47422">
        <ele>451.7</ele>
        <time>2022-04-28T11:07:45Z</time>
      </trkpt>
      <trkpt lat="45.30686" lon="5.47418">
        <ele>451.9</ele>
        <time>2022-04-28T11:07:46Z</time>
      </trkpt>
      <trkpt lat="45.30689" lon="5.47414">
        <ele>452.1</ele>
        <time>2022-04-28T11:07:47Z</time>
      </trkpt>
      <trkpt lat="45.30691" lon="5.4741">
        <ele>452.3</ele>
        <time>2022-04-28T11:07:48Z</time>
      </trkpt>
      <trkpt lat="45.30692" lon="5.47408">
        <ele>452.4</ele>
        <time>2022-04-28T11:07:49Z</time>
      </trkpt>
      <trkpt lat="45.30693" lon="5.47405">
        <ele>452.6</ele>
        <time>2022-04-28T11:07:50Z</time>
      </trkpt>
      <trkpt lat="45.30694" lon="5.47402">
        <ele>452.7</ele>
        <time>2022-04-28T11:07:51Z</time>
      </trkpt>
      <trkpt lat="45.30695" lon="5.47398">
        <ele>452.9</ele>
        <time>2022-04-28T11:07:53Z</time>
      </trkpt>
      <trkpt lat="45.30697" lon="5.47393">
        <ele>453.1</ele>
        <time>2022-04-28T11:07:54Z</time>
      </trkpt>
      <trkpt lat="45.30697" lon="5.47392">
        <ele>453.2</ele>
        <time>2022-04-28T11:07:55Z</time>
      </trkpt>
      <trkpt lat="45.307" lon="5.47388">
        <ele>453.3</ele>
        <time>2022-04-28T11:07:56Z</time>
      </trkpt>
      <trkpt lat="45.307" lon="5.47386">
        <ele>453.5</ele>
        <time>2022-04-28T11:07:57Z</time>
      </trkpt>
      <trkpt lat="45.30702" lon="5.47381">
        <ele>453.7</ele>
        <time>2022-04-28T11:07:58Z</time>
      </trkpt>
      <trkpt lat="45.30703" lon="5.47379">
        <ele>453.9</ele>
        <time>2022-04-28T11:07:59Z</time>
      </trkpt>
      <trkpt lat="45.30704" lon="5.47374">
        <ele>454.1</ele>
        <time>2022-04-28T11:08:00Z</time>
      </trkpt>
      <trkpt lat="45.30705" lon="5.47373">
        <ele>454.2</ele>
        <time>2022-04-28T11:08:01Z</time>
      </trkpt>
      <trkpt lat="45.30706" lon="5.47368">
        <ele>454.5</ele>
        <time>2022-04-28T11:08:02Z</time>
      </trkpt>
      <trkpt lat="45.30707" lon="5.47366">
        <ele>454.6</ele>
        <time>2022-04-28T11:08:03Z</time>
      </trkpt>
      <trkpt lat="45.30708" lon="5.47361">
        <ele>454.9</ele>
        <time>2022-04-28T11:08:05Z</time>
      </trkpt>
      <trkpt lat="45.30709" lon="5.47358">
        <ele>455.1</ele>
        <time>2022-04-28T11:08:06Z</time>
      </trkpt>
      <trkpt lat="45.30711" lon="5.47355">
        <ele>455.3</ele>
        <time>2022-04-28T11:08:07Z</time>
      </trkpt>
      <trkpt lat="45.30713" lon="5.47352">
        <ele>455.5</ele>
        <time>2022-04-28T11:08:08Z</time>
      </trkpt>
      <trkpt lat="45.30716" lon="5.47347">
        <ele>455.8</ele>
        <time>2022-04-28T11:08:10Z</time>
      </trkpt>
      <trkpt lat="45.30718" lon="5.47344">
        <ele>456</ele>
        <time>2022-04-28T11:08:11Z</time>
      </trkpt>
      <trkpt lat="45.30721" lon="5.47339">
        <ele>456.3</ele>
        <time>2022-04-28T11:08:12Z</time>
      </trkpt>
      <trkpt lat="45.30724" lon="5.47335">
        <ele>456.5</ele>
        <time>2022-04-28T11:08:14Z</time>
      </trkpt>
      <trkpt lat="45.30727" lon="5.4733">
        <ele>456.7</ele>
        <time>2022-04-28T11:08:15Z</time>
      </trkpt>
      <trkpt lat="45.3073" lon="5.47325">
        <ele>457</ele>
        <time>2022-04-28T11:08:17Z</time>
      </trkpt>
      <trkpt lat="45.30733" lon="5.47323">
        <ele>457.2</ele>
        <time>2022-04-28T11:08:18Z</time>
      </trkpt>
      <trkpt lat="45.30736" lon="5.47319">
        <ele>457.3</ele>
        <time>2022-04-28T11:08:20Z</time>
      </trkpt>
      <trkpt lat="45.30739" lon="5.47315">
        <ele>457.5</ele>
        <time>2022-04-28T11:08:21Z</time>
      </trkpt>
      <trkpt lat="45.30742" lon="5.4731">
        <ele>457.8</ele>
        <time>2022-04-28T11:08:23Z</time>
      </trkpt>
      <trkpt lat="45.30745" lon="5.47306">
        <ele>458</ele>
        <time>2022-04-28T11:08:24Z</time>
      </trkpt>
      <trkpt lat="45.30746" lon="5.47303">
        <ele>458.1</ele>
        <time>2022-04-28T11:08:25Z</time>
      </trkpt>
      <trkpt lat="45.30749" lon="5.47299">
        <ele>458.3</ele>
        <time>2022-04-28T11:08:26Z</time>
      </trkpt>
      <trkpt lat="45.3075" lon="5.47297">
        <ele>458.4</ele>
        <time>2022-04-28T11:08:27Z</time>
      </trkpt>
      <trkpt lat="45.30751" lon="5.47294">
        <ele>458.6</ele>
        <time>2022-04-28T11:08:28Z</time>
      </trkpt>
      <trkpt lat="45.30753" lon="5.47289">
        <ele>458.8</ele>
        <time>2022-04-28T11:08:29Z</time>
      </trkpt>
      <trkpt lat="45.30754" lon="5.47285">
        <ele>458.9</ele>
        <time>2022-04-28T11:08:30Z</time>
      </trkpt>
      <trkpt lat="45.30755" lon="5.4728">
        <ele>459.1</ele>
        <time>2022-04-28T11:08:31Z</time>
      </trkpt>
      <trkpt lat="45.30756" lon="5.47275">
        <ele>459.4</ele>
        <time>2022-04-28T11:08:32Z</time>
      </trkpt>
      <trkpt lat="45.30758" lon="5.47271">
        <ele>459.6</ele>
        <time>2022-04-28T11:08:33Z</time>
      </trkpt>
      <trkpt lat="45.30758" lon="5.47266">
        <ele>459.8</ele>
        <time>2022-04-28T11:08:34Z</time>
      </trkpt>
      <trkpt lat="45.3076" lon="5.47262">
        <ele>460</ele>
        <time>2022-04-28T11:08:35Z</time>
      </trkpt>
      <trkpt lat="45.30761" lon="5.47257">
        <ele>460.2</ele>
        <time>2022-04-28T11:08:36Z</time>
      </trkpt>
      <trkpt lat="45.30762" lon="5.47253">
        <ele>460.4</ele>
        <time>2022-04-28T11:08:37Z</time>
      </trkpt>
      <trkpt lat="45.30763" lon="5.47248">
        <ele>460.7</ele>
        <time>2022-04-28T11:08:38Z</time>
      </trkpt>
      <trkpt lat="45.30763" lon="5.47246">
        <ele>460.7</ele>
        <time>2022-04-28T11:08:39Z</time>
      </trkpt>
      <trkpt lat="45.30764" lon="5.47241">
        <ele>461</ele>
        <time>2022-04-28T11:08:40Z</time>
      </trkpt>
      <trkpt lat="45.30764" lon="5.47239">
        <ele>461</ele>
        <time>2022-04-28T11:08:41Z</time>
      </trkpt>
      <trkpt lat="45.30765" lon="5.47235">
        <ele>461.3</ele>
        <time>2022-04-28T11:08:42Z</time>
      </trkpt>
      <trkpt lat="45.30766" lon="5.47231">
        <ele>461.4</ele>
        <time>2022-04-28T11:08:43Z</time>
      </trkpt>
      <trkpt lat="45.30767" lon="5.47227">
        <ele>461.6</ele>
        <time>2022-04-28T11:08:44Z</time>
      </trkpt>
      <trkpt lat="45.30767" lon="5.47223">
        <ele>461.8</ele>
        <time>2022-04-28T11:08:45Z</time>
      </trkpt>
      <trkpt lat="45.30768" lon="5.4722">
        <ele>462</ele>
        <time>2022-04-28T11:08:46Z</time>
      </trkpt>
      <trkpt lat="45.30768" lon="5.47216">
        <ele>462.2</ele>
        <time>2022-04-28T11:08:48Z</time>
      </trkpt>
      <trkpt lat="45.30769" lon="5.47212">
        <ele>462.4</ele>
        <time>2022-04-28T11:08:49Z</time>
      </trkpt>
      <trkpt lat="45.30769" lon="5.47207">
        <ele>462.6</ele>
        <time>2022-04-28T11:08:50Z</time>
      </trkpt>
      <trkpt lat="45.30771" lon="5.47202">
        <ele>462.8</ele>
        <time>2022-04-28T11:08:52Z</time>
      </trkpt>
      <trkpt lat="45.30772" lon="5.47198">
        <ele>463.1</ele>
        <time>2022-04-28T11:08:53Z</time>
      </trkpt>
      <trkpt lat="45.30775" lon="5.47191">
        <ele>463.4</ele>
        <time>2022-04-28T11:08:55Z</time>
      </trkpt>
      <trkpt lat="45.30776" lon="5.47189">
        <ele>463.6</ele>
        <time>2022-04-28T11:08:56Z</time>
      </trkpt>
      <trkpt lat="45.30777" lon="5.47186">
        <ele>463.7</ele>
        <time>2022-04-28T11:08:57Z</time>
      </trkpt>
      <trkpt lat="45.30779" lon="5.47183">
        <ele>463.9</ele>
        <time>2022-04-28T11:08:58Z</time>
      </trkpt>
      <trkpt lat="45.30781" lon="5.4718">
        <ele>464.2</ele>
        <time>2022-04-28T11:08:59Z</time>
      </trkpt>
      <trkpt lat="45.30782" lon="5.47179">
        <ele>464.2</ele>
        <time>2022-04-28T11:09:00Z</time>
      </trkpt>
      <trkpt lat="45.30784" lon="5.47176">
        <ele>464.4</ele>
        <time>2022-04-28T11:09:01Z</time>
      </trkpt>
      <trkpt lat="45.30786" lon="5.47173">
        <ele>464.6</ele>
        <time>2022-04-28T11:09:03Z</time>
      </trkpt>
      <trkpt lat="45.30789" lon="5.47171">
        <ele>464.9</ele>
        <time>2022-04-28T11:09:04Z</time>
      </trkpt>
      <trkpt lat="45.30792" lon="5.47168">
        <ele>465.2</ele>
        <time>2022-04-28T11:09:05Z</time>
      </trkpt>
      <trkpt lat="45.30795" lon="5.47167">
        <ele>465.4</ele>
        <time>2022-04-28T11:09:07Z</time>
      </trkpt>
      <trkpt lat="45.30797" lon="5.47165">
        <ele>465.7</ele>
        <time>2022-04-28T11:09:08Z</time>
      </trkpt>
      <trkpt lat="45.30801" lon="5.47163">
        <ele>465.9</ele>
        <time>2022-04-28T11:09:09Z</time>
      </trkpt>
      <trkpt lat="45.30802" lon="5.47163">
        <ele>466</ele>
        <time>2022-04-28T11:09:10Z</time>
      </trkpt>
      <trkpt lat="45.30804" lon="5.47161">
        <ele>466.2</ele>
        <time>2022-04-28T11:09:11Z</time>
      </trkpt>
      <trkpt lat="45.30806" lon="5.47159">
        <ele>466.4</ele>
        <time>2022-04-28T11:09:13Z</time>
      </trkpt>
      <trkpt lat="45.30809" lon="5.47156">
        <ele>466.6</ele>
        <time>2022-04-28T11:09:14Z</time>
      </trkpt>
      <trkpt lat="45.30811" lon="5.47153">
        <ele>466.8</ele>
        <time>2022-04-28T11:09:15Z</time>
      </trkpt>
      <trkpt lat="45.30812" lon="5.47152">
        <ele>466.9</ele>
        <time>2022-04-28T11:09:16Z</time>
      </trkpt>
      <trkpt lat="45.30814" lon="5.47148">
        <ele>467.1</ele>
        <time>2022-04-28T11:09:17Z</time>
      </trkpt>
      <trkpt lat="45.30815" lon="5.47146">
        <ele>467.2</ele>
        <time>2022-04-28T11:09:18Z</time>
      </trkpt>
      <trkpt lat="45.30817" lon="5.47142">
        <ele>467.4</ele>
        <time>2022-04-28T11:09:19Z</time>
      </trkpt>
      <trkpt lat="45.30818" lon="5.47141">
        <ele>467.5</ele>
        <time>2022-04-28T11:09:20Z</time>
      </trkpt>
      <trkpt lat="45.3082" lon="5.47137">
        <ele>467.8</ele>
        <time>2022-04-28T11:09:21Z</time>
      </trkpt>
      <trkpt lat="45.30821" lon="5.47135">
        <ele>467.8</ele>
        <time>2022-04-28T11:09:22Z</time>
      </trkpt>
      <trkpt lat="45.30822" lon="5.47131">
        <ele>468.1</ele>
        <time>2022-04-28T11:09:23Z</time>
      </trkpt>
      <trkpt lat="45.30823" lon="5.4713">
        <ele>468.2</ele>
        <time>2022-04-28T11:09:24Z</time>
      </trkpt>
      <trkpt lat="45.30826" lon="5.47126">
        <ele>468.4</ele>
        <time>2022-04-28T11:09:25Z</time>
      </trkpt>
      <trkpt lat="45.30827" lon="5.47125">
        <ele>468.5</ele>
        <time>2022-04-28T11:09:26Z</time>
      </trkpt>
      <trkpt lat="45.3083" lon="5.47122">
        <ele>468.8</ele>
        <time>2022-04-28T11:09:28Z</time>
      </trkpt>
      <trkpt lat="45.30833" lon="5.47121">
        <ele>469</ele>
        <time>2022-04-28T11:09:29Z</time>
      </trkpt>
      <trkpt lat="45.30837" lon="5.4712">
        <ele>469.3</ele>
        <time>2022-04-28T11:09:31Z</time>
      </trkpt>
      <trkpt lat="45.30838" lon="5.4712">
        <ele>469.4</ele>
        <time>2022-04-28T11:09:32Z</time>
      </trkpt>
      <trkpt lat="45.30839" lon="5.4712">
        <ele>469.5</ele>
        <time>2022-04-28T11:09:33Z</time>
      </trkpt>
      <trkpt lat="45.30843" lon="5.47122">
        <ele>469.9</ele>
        <time>2022-04-28T11:09:35Z</time>
      </trkpt>
      <trkpt lat="45.30845" lon="5.47123">
        <ele>470</ele>
        <time>2022-04-28T11:09:36Z</time>
      </trkpt>
      <trkpt lat="45.30846" lon="5.47124">
        <ele>470.1</ele>
        <time>2022-04-28T11:09:37Z</time>
      </trkpt>
      <trkpt lat="45.30848" lon="5.47127">
        <ele>470.3</ele>
        <time>2022-04-28T11:09:38Z</time>
      </trkpt>
      <trkpt lat="45.30849" lon="5.47128">
        <ele>470.4</ele>
        <time>2022-04-28T11:09:39Z</time>
      </trkpt>
      <trkpt lat="45.30851" lon="5.47132">
        <ele>470.7</ele>
        <time>2022-04-28T11:09:40Z</time>
      </trkpt>
      <trkpt lat="45.30852" lon="5.47133">
        <ele>470.8</ele>
        <time>2022-04-28T11:09:41Z</time>
      </trkpt>
      <trkpt lat="45.30855" lon="5.47139">
        <ele>471.1</ele>
        <time>2022-04-28T11:09:43Z</time>
      </trkpt>
      <trkpt lat="45.30855" lon="5.47141">
        <ele>471.3</ele>
        <time>2022-04-28T11:09:44Z</time>
      </trkpt>
      <trkpt lat="45.30856" lon="5.47144">
        <ele>471.4</ele>
        <time>2022-04-28T11:09:45Z</time>
      </trkpt>
      <trkpt lat="45.30857" lon="5.47148">
        <ele>471.6</ele>
        <time>2022-04-28T11:09:46Z</time>
      </trkpt>
      <trkpt lat="45.30858" lon="5.47152">
        <ele>471.9</ele>
        <time>2022-04-28T11:09:48Z</time>
      </trkpt>
      <trkpt lat="45.3086" lon="5.47157">
        <ele>472.1</ele>
        <time>2022-04-28T11:09:49Z</time>
      </trkpt>
      <trkpt lat="45.30862" lon="5.47162">
        <ele>472.4</ele>
        <time>2022-04-28T11:09:51Z</time>
      </trkpt>
      <trkpt lat="45.30863" lon="5.47166">
        <ele>472.6</ele>
        <time>2022-04-28T11:09:52Z</time>
      </trkpt>
      <trkpt lat="45.30864" lon="5.47168">
        <ele>472.7</ele>
        <time>2022-04-28T11:09:53Z</time>
      </trkpt>
      <trkpt lat="45.30865" lon="5.47173">
        <ele>472.9</ele>
        <time>2022-04-28T11:09:54Z</time>
      </trkpt>
      <trkpt lat="45.30866" lon="5.47174">
        <ele>473</ele>
        <time>2022-04-28T11:09:55Z</time>
      </trkpt>
      <trkpt lat="45.30867" lon="5.47178">
        <ele>473.2</ele>
        <time>2022-04-28T11:09:56Z</time>
      </trkpt>
      <trkpt lat="45.30867" lon="5.4718">
        <ele>473.3</ele>
        <time>2022-04-28T11:09:57Z</time>
      </trkpt>
      <trkpt lat="45.30868" lon="5.47184">
        <ele>473.4</ele>
        <time>2022-04-28T11:09:58Z</time>
      </trkpt>
      <trkpt lat="45.30869" lon="5.47188">
        <ele>473.6</ele>
        <time>2022-04-28T11:09:59Z</time>
      </trkpt>
      <trkpt lat="45.30869" lon="5.4719">
        <ele>473.7</ele>
        <time>2022-04-28T11:10:00Z</time>
      </trkpt>
      <trkpt lat="45.3087" lon="5.47194">
        <ele>473.9</ele>
        <time>2022-04-28T11:10:01Z</time>
      </trkpt>
      <trkpt lat="45.30872" lon="5.47199">
        <ele>474.1</ele>
        <time>2022-04-28T11:10:02Z</time>
      </trkpt>
      <trkpt lat="45.30872" lon="5.47201">
        <ele>474.2</ele>
        <time>2022-04-28T11:10:03Z</time>
      </trkpt>
      <trkpt lat="45.30873" lon="5.47205">
        <ele>474.4</ele>
        <time>2022-04-28T11:10:04Z</time>
      </trkpt>
      <trkpt lat="45.30875" lon="5.47208">
        <ele>474.5</ele>
        <time>2022-04-28T11:10:05Z</time>
      </trkpt>
      <trkpt lat="45.30876" lon="5.47209">
        <ele>474.6</ele>
        <time>2022-04-28T11:10:06Z</time>
      </trkpt>
      <trkpt lat="45.30878" lon="5.47213">
        <ele>474.8</ele>
        <time>2022-04-28T11:10:07Z</time>
      </trkpt>
      <trkpt lat="45.30879" lon="5.47214">
        <ele>474.9</ele>
        <time>2022-04-28T11:10:08Z</time>
      </trkpt>
      <trkpt lat="45.30882" lon="5.47217">
        <ele>475.1</ele>
        <time>2022-04-28T11:10:09Z</time>
      </trkpt>
      <trkpt lat="45.30883" lon="5.47218">
        <ele>475.2</ele>
        <time>2022-04-28T11:10:10Z</time>
      </trkpt>
      <trkpt lat="45.30886" lon="5.47219">
        <ele>475.4</ele>
        <time>2022-04-28T11:10:11Z</time>
      </trkpt>
      <trkpt lat="45.3089" lon="5.47221">
        <ele>475.6</ele>
        <time>2022-04-28T11:10:12Z</time>
      </trkpt>
      <trkpt lat="45.30891" lon="5.47221">
        <ele>475.6</ele>
        <time>2022-04-28T11:10:13Z</time>
      </trkpt>
      <trkpt lat="45.30894" lon="5.47222">
        <ele>475.8</ele>
        <time>2022-04-28T11:10:14Z</time>
      </trkpt>
      <trkpt lat="45.30895" lon="5.47222">
        <ele>475.9</ele>
        <time>2022-04-28T11:10:15Z</time>
      </trkpt>
      <trkpt lat="45.30898" lon="5.47223">
        <ele>476.1</ele>
        <time>2022-04-28T11:10:16Z</time>
      </trkpt>
      <trkpt lat="45.30899" lon="5.47223">
        <ele>476.1</ele>
        <time>2022-04-28T11:10:17Z</time>
      </trkpt>
      <trkpt lat="45.30903" lon="5.47224">
        <ele>476.3</ele>
        <time>2022-04-28T11:10:18Z</time>
      </trkpt>
      <trkpt lat="45.30904" lon="5.47224">
        <ele>476.4</ele>
        <time>2022-04-28T11:10:19Z</time>
      </trkpt>
      <trkpt lat="45.30907" lon="5.47225">
        <ele>476.6</ele>
        <time>2022-04-28T11:10:20Z</time>
      </trkpt>
      <trkpt lat="45.30908" lon="5.47225">
        <ele>476.6</ele>
        <time>2022-04-28T11:10:21Z</time>
      </trkpt>
      <trkpt lat="45.30911" lon="5.47226">
        <ele>476.8</ele>
        <time>2022-04-28T11:10:22Z</time>
      </trkpt>
      <trkpt lat="45.30915" lon="5.47227">
        <ele>477</ele>
        <time>2022-04-28T11:10:23Z</time>
      </trkpt>
      <trkpt lat="45.30916" lon="5.47228">
        <ele>477.1</ele>
        <time>2022-04-28T11:10:24Z</time>
      </trkpt>
      <trkpt lat="45.30919" lon="5.47229">
        <ele>477.2</ele>
        <time>2022-04-28T11:10:25Z</time>
      </trkpt>
      <trkpt lat="45.30921" lon="5.47231">
        <ele>477.4</ele>
        <time>2022-04-28T11:10:26Z</time>
      </trkpt>
      <trkpt lat="45.30923" lon="5.47232">
        <ele>477.5</ele>
        <time>2022-04-28T11:10:27Z</time>
      </trkpt>
      <trkpt lat="45.30924" lon="5.47234">
        <ele>477.6</ele>
        <time>2022-04-28T11:10:28Z</time>
      </trkpt>
      <trkpt lat="45.30926" lon="5.47237">
        <ele>477.8</ele>
        <time>2022-04-28T11:10:29Z</time>
      </trkpt>
      <trkpt lat="45.30927" lon="5.47239">
        <ele>477.9</ele>
        <time>2022-04-28T11:10:30Z</time>
      </trkpt>
      <trkpt lat="45.30929" lon="5.47242">
        <ele>478</ele>
        <time>2022-04-28T11:10:31Z</time>
      </trkpt>
      <trkpt lat="45.3093" lon="5.47243">
        <ele>478.1</ele>
        <time>2022-04-28T11:10:32Z</time>
      </trkpt>
      <trkpt lat="45.30932" lon="5.47247">
        <ele>478.3</ele>
        <time>2022-04-28T11:10:33Z</time>
      </trkpt>
      <trkpt lat="45.30933" lon="5.47249">
        <ele>478.5</ele>
        <time>2022-04-28T11:10:34Z</time>
      </trkpt>
      <trkpt lat="45.30934" lon="5.47254">
        <ele>478.7</ele>
        <time>2022-04-28T11:10:35Z</time>
      </trkpt>
      <trkpt lat="45.30935" lon="5.47256">
        <ele>478.8</ele>
        <time>2022-04-28T11:10:36Z</time>
      </trkpt>
      <trkpt lat="45.30935" lon="5.4726">
        <ele>479</ele>
        <time>2022-04-28T11:10:37Z</time>
      </trkpt>
      <trkpt lat="45.30935" lon="5.47266">
        <ele>479.2</ele>
        <time>2022-04-28T11:10:39Z</time>
      </trkpt>
      <trkpt lat="45.30935" lon="5.4727">
        <ele>479.4</ele>
        <time>2022-04-28T11:10:40Z</time>
      </trkpt>
      <trkpt lat="45.30935" lon="5.47273">
        <ele>479.5</ele>
        <time>2022-04-28T11:10:41Z</time>
      </trkpt>
      <trkpt lat="45.30935" lon="5.47279">
        <ele>479.7</ele>
        <time>2022-04-28T11:10:43Z</time>
      </trkpt>
      <trkpt lat="45.30935" lon="5.47284">
        <ele>479.9</ele>
        <time>2022-04-28T11:10:44Z</time>
      </trkpt>
      <trkpt lat="45.30935" lon="5.47289">
        <ele>480.1</ele>
        <time>2022-04-28T11:10:45Z</time>
      </trkpt>
      <trkpt lat="45.30935" lon="5.47293">
        <ele>480.3</ele>
        <time>2022-04-28T11:10:46Z</time>
      </trkpt>
      <trkpt lat="45.30935" lon="5.47296">
        <ele>480.4</ele>
        <time>2022-04-28T11:10:47Z</time>
      </trkpt>
      <trkpt lat="45.30935" lon="5.47302">
        <ele>480.7</ele>
        <time>2022-04-28T11:10:49Z</time>
      </trkpt>
      <trkpt lat="45.30934" lon="5.47307">
        <ele>480.9</ele>
        <time>2022-04-28T11:10:50Z</time>
      </trkpt>
      <trkpt lat="45.30935" lon="5.47311">
        <ele>481.1</ele>
        <time>2022-04-28T11:10:51Z</time>
      </trkpt>
      <trkpt lat="45.30935" lon="5.47315">
        <ele>481.2</ele>
        <time>2022-04-28T11:10:52Z</time>
      </trkpt>
      <trkpt lat="45.30935" lon="5.47321">
        <ele>481.4</ele>
        <time>2022-04-28T11:10:54Z</time>
      </trkpt>
      <trkpt lat="45.30935" lon="5.47326">
        <ele>481.6</ele>
        <time>2022-04-28T11:10:55Z</time>
      </trkpt>
      <trkpt lat="45.30935" lon="5.47331">
        <ele>481.8</ele>
        <time>2022-04-28T11:10:56Z</time>
      </trkpt>
      <trkpt lat="45.30935" lon="5.47333">
        <ele>481.9</ele>
        <time>2022-04-28T11:10:57Z</time>
      </trkpt>
      <trkpt lat="45.30935" lon="5.47336">
        <ele>482</ele>
        <time>2022-04-28T11:10:58Z</time>
      </trkpt>
      <trkpt lat="45.30935" lon="5.4734">
        <ele>482.2</ele>
        <time>2022-04-28T11:11:00Z</time>
      </trkpt>
      <trkpt lat="45.30935" lon="5.47344">
        <ele>482.4</ele>
        <time>2022-04-28T11:11:01Z</time>
      </trkpt>
      <trkpt lat="45.30936" lon="5.47349">
        <ele>482.6</ele>
        <time>2022-04-28T11:11:02Z</time>
      </trkpt>
      <trkpt lat="45.30936" lon="5.47351">
        <ele>482.7</ele>
        <time>2022-04-28T11:11:03Z</time>
      </trkpt>
      <trkpt lat="45.30936" lon="5.47357">
        <ele>482.9</ele>
        <time>2022-04-28T11:11:04Z</time>
      </trkpt>
      <trkpt lat="45.30937" lon="5.47359">
        <ele>483</ele>
        <time>2022-04-28T11:11:05Z</time>
      </trkpt>
      <trkpt lat="45.30937" lon="5.47363">
        <ele>483.2</ele>
        <time>2022-04-28T11:11:06Z</time>
      </trkpt>
      <trkpt lat="45.30937" lon="5.47367">
        <ele>483.4</ele>
        <time>2022-04-28T11:11:07Z</time>
      </trkpt>
      <trkpt lat="45.30937" lon="5.47371">
        <ele>483.5</ele>
        <time>2022-04-28T11:11:08Z</time>
      </trkpt>
      <trkpt lat="45.30938" lon="5.47376">
        <ele>483.7</ele>
        <time>2022-04-28T11:11:10Z</time>
      </trkpt>
      <trkpt lat="45.30938" lon="5.4738">
        <ele>483.9</ele>
        <time>2022-04-28T11:11:11Z</time>
      </trkpt>
      <trkpt lat="45.30938" lon="5.47386">
        <ele>484.2</ele>
        <time>2022-04-28T11:11:12Z</time>
      </trkpt>
      <trkpt lat="45.30938" lon="5.47391">
        <ele>484.4</ele>
        <time>2022-04-28T11:11:13Z</time>
      </trkpt>
      <trkpt lat="45.30938" lon="5.47393">
        <ele>484.5</ele>
        <time>2022-04-28T11:11:14Z</time>
      </trkpt>
      <trkpt lat="45.30938" lon="5.47398">
        <ele>484.8</ele>
        <time>2022-04-28T11:11:15Z</time>
      </trkpt>
      <trkpt lat="45.30938" lon="5.474">
        <ele>484.9</ele>
        <time>2022-04-28T11:11:16Z</time>
      </trkpt>
      <trkpt lat="45.30938" lon="5.47405">
        <ele>485.2</ele>
        <time>2022-04-28T11:11:17Z</time>
      </trkpt>
      <trkpt lat="45.30938" lon="5.47407">
        <ele>485.3</ele>
        <time>2022-04-28T11:11:18Z</time>
      </trkpt>
      <trkpt lat="45.30938" lon="5.47412">
        <ele>485.5</ele>
        <time>2022-04-28T11:11:19Z</time>
      </trkpt>
      <trkpt lat="45.30937" lon="5.47413">
        <ele>485.6</ele>
        <time>2022-04-28T11:11:20Z</time>
      </trkpt>
      <trkpt lat="45.30938" lon="5.47419">
        <ele>485.9</ele>
        <time>2022-04-28T11:11:22Z</time>
      </trkpt>
      <trkpt lat="45.30939" lon="5.47424">
        <ele>486.2</ele>
        <time>2022-04-28T11:11:23Z</time>
      </trkpt>
      <trkpt lat="45.30939" lon="5.47426">
        <ele>486.3</ele>
        <time>2022-04-28T11:11:24Z</time>
      </trkpt>
      <trkpt lat="45.30939" lon="5.47431">
        <ele>486.5</ele>
        <time>2022-04-28T11:11:25Z</time>
      </trkpt>
      <trkpt lat="45.30939" lon="5.47435">
        <ele>486.7</ele>
        <time>2022-04-28T11:11:26Z</time>
      </trkpt>
      <trkpt lat="45.30939" lon="5.47437">
        <ele>486.8</ele>
        <time>2022-04-28T11:11:27Z</time>
      </trkpt>
      <trkpt lat="45.30941" lon="5.4744">
        <ele>487</ele>
        <time>2022-04-28T11:11:28Z</time>
      </trkpt>
      <trkpt lat="45.30941" lon="5.47442">
        <ele>487.1</ele>
        <time>2022-04-28T11:11:29Z</time>
      </trkpt>
      <trkpt lat="45.30943" lon="5.47447">
        <ele>487.4</ele>
        <time>2022-04-28T11:11:30Z</time>
      </trkpt>
      <trkpt lat="45.30943" lon="5.47449">
        <ele>487.5</ele>
        <time>2022-04-28T11:11:31Z</time>
      </trkpt>
      <trkpt lat="45.30943" lon="5.47454">
        <ele>487.7</ele>
        <time>2022-04-28T11:11:32Z</time>
      </trkpt>
      <trkpt lat="45.30943" lon="5.47458">
        <ele>487.9</ele>
        <time>2022-04-28T11:11:33Z</time>
      </trkpt>
      <trkpt lat="45.30942" lon="5.47462">
        <ele>488.1</ele>
        <time>2022-04-28T11:11:34Z</time>
      </trkpt>
      <trkpt lat="45.30942" lon="5.47466">
        <ele>488.3</ele>
        <time>2022-04-28T11:11:35Z</time>
      </trkpt>
      <trkpt lat="45.30942" lon="5.47471">
        <ele>488.6</ele>
        <time>2022-04-28T11:11:36Z</time>
      </trkpt>
      <trkpt lat="45.30942" lon="5.47473">
        <ele>488.7</ele>
        <time>2022-04-28T11:11:37Z</time>
      </trkpt>
      <trkpt lat="45.30943" lon="5.47477">
        <ele>488.9</ele>
        <time>2022-04-28T11:11:38Z</time>
      </trkpt>
      <trkpt lat="45.30943" lon="5.47481">
        <ele>489</ele>
        <time>2022-04-28T11:11:39Z</time>
      </trkpt>
      <trkpt lat="45.30943" lon="5.47486">
        <ele>489.2</ele>
        <time>2022-04-28T11:11:40Z</time>
      </trkpt>
      <trkpt lat="45.30943" lon="5.47488">
        <ele>489.3</ele>
        <time>2022-04-28T11:11:41Z</time>
      </trkpt>
      <trkpt lat="45.30944" lon="5.47493">
        <ele>489.6</ele>
        <time>2022-04-28T11:11:42Z</time>
      </trkpt>
      <trkpt lat="45.30944" lon="5.47495">
        <ele>489.7</ele>
        <time>2022-04-28T11:11:43Z</time>
      </trkpt>
      <trkpt lat="45.30945" lon="5.475">
        <ele>489.9</ele>
        <time>2022-04-28T11:11:44Z</time>
      </trkpt>
      <trkpt lat="45.30945" lon="5.47501">
        <ele>490</ele>
        <time>2022-04-28T11:11:45Z</time>
      </trkpt>
      <trkpt lat="45.30946" lon="5.47506">
        <ele>490.2</ele>
        <time>2022-04-28T11:11:46Z</time>
      </trkpt>
      <trkpt lat="45.30947" lon="5.47508">
        <ele>490.3</ele>
        <time>2022-04-28T11:11:47Z</time>
      </trkpt>
      <trkpt lat="45.30948" lon="5.47512">
        <ele>490.5</ele>
        <time>2022-04-28T11:11:48Z</time>
      </trkpt>
      <trkpt lat="45.30948" lon="5.47516">
        <ele>490.7</ele>
        <time>2022-04-28T11:11:50Z</time>
      </trkpt>
      <trkpt lat="45.3095" lon="5.4752">
        <ele>490.9</ele>
        <time>2022-04-28T11:11:51Z</time>
      </trkpt>
      <trkpt lat="45.30952" lon="5.47525">
        <ele>491.2</ele>
        <time>2022-04-28T11:11:53Z</time>
      </trkpt>
      <trkpt lat="45.30954" lon="5.47529">
        <ele>491.5</ele>
        <time>2022-04-28T11:11:54Z</time>
      </trkpt>
      <trkpt lat="45.30956" lon="5.47532">
        <ele>491.7</ele>
        <time>2022-04-28T11:11:55Z</time>
      </trkpt>
      <trkpt lat="45.30958" lon="5.47536">
        <ele>491.9</ele>
        <time>2022-04-28T11:11:57Z</time>
      </trkpt>
      <trkpt lat="45.30961" lon="5.4754">
        <ele>492.2</ele>
        <time>2022-04-28T11:11:58Z</time>
      </trkpt>
      <trkpt lat="45.30962" lon="5.47544">
        <ele>492.4</ele>
        <time>2022-04-28T11:11:59Z</time>
      </trkpt>
      <trkpt lat="45.30963" lon="5.47546">
        <ele>492.5</ele>
        <time>2022-04-28T11:12:00Z</time>
      </trkpt>
      <trkpt lat="45.30965" lon="5.47549">
        <ele>492.7</ele>
        <time>2022-04-28T11:12:01Z</time>
      </trkpt>
      <trkpt lat="45.30966" lon="5.47552">
        <ele>492.9</ele>
        <time>2022-04-28T11:12:03Z</time>
      </trkpt>
      <trkpt lat="45.30968" lon="5.47556">
        <ele>493.2</ele>
        <time>2022-04-28T11:12:04Z</time>
      </trkpt>
      <trkpt lat="45.30969" lon="5.47561">
        <ele>493.4</ele>
        <time>2022-04-28T11:12:05Z</time>
      </trkpt>
      <trkpt lat="45.30971" lon="5.47565">
        <ele>493.7</ele>
        <time>2022-04-28T11:12:06Z</time>
      </trkpt>
      <trkpt lat="45.30972" lon="5.47567">
        <ele>493.7</ele>
        <time>2022-04-28T11:12:07Z</time>
      </trkpt>
      <trkpt lat="45.30974" lon="5.4757">
        <ele>494</ele>
        <time>2022-04-28T11:12:09Z</time>
      </trkpt>
      <trkpt lat="45.30975" lon="5.47571">
        <ele>494.1</ele>
        <time>2022-04-28T11:12:10Z</time>
      </trkpt>
      <trkpt lat="45.30978" lon="5.47575">
        <ele>494.3</ele>
        <time>2022-04-28T11:12:11Z</time>
      </trkpt>
      <trkpt lat="45.30978" lon="5.47576">
        <ele>494.4</ele>
        <time>2022-04-28T11:12:12Z</time>
      </trkpt>
      <trkpt lat="45.3098" lon="5.47581">
        <ele>494.7</ele>
        <time>2022-04-28T11:12:13Z</time>
      </trkpt>
      <trkpt lat="45.30981" lon="5.47583">
        <ele>494.8</ele>
        <time>2022-04-28T11:12:14Z</time>
      </trkpt>
      <trkpt lat="45.30982" lon="5.47588">
        <ele>495.1</ele>
        <time>2022-04-28T11:12:15Z</time>
      </trkpt>
      <trkpt lat="45.30983" lon="5.47589">
        <ele>495.2</ele>
        <time>2022-04-28T11:12:16Z</time>
      </trkpt>
      <trkpt lat="45.30984" lon="5.47593">
        <ele>495.3</ele>
        <time>2022-04-28T11:12:17Z</time>
      </trkpt>
      <trkpt lat="45.30986" lon="5.47597">
        <ele>495.6</ele>
        <time>2022-04-28T11:12:19Z</time>
      </trkpt>
      <trkpt lat="45.30989" lon="5.476">
        <ele>495.8</ele>
        <time>2022-04-28T11:12:20Z</time>
      </trkpt>
      <trkpt lat="45.30989" lon="5.47602">
        <ele>495.9</ele>
        <time>2022-04-28T11:12:21Z</time>
      </trkpt>
      <trkpt lat="45.30991" lon="5.47606">
        <ele>496.2</ele>
        <time>2022-04-28T11:12:22Z</time>
      </trkpt>
      <trkpt lat="45.30992" lon="5.47607">
        <ele>496.2</ele>
        <time>2022-04-28T11:12:23Z</time>
      </trkpt>
      <trkpt lat="45.30993" lon="5.4761">
        <ele>496.4</ele>
        <time>2022-04-28T11:12:24Z</time>
      </trkpt>
      <trkpt lat="45.30997" lon="5.47614">
        <ele>496.7</ele>
        <time>2022-04-28T11:12:26Z</time>
      </trkpt>
      <trkpt lat="45.30999" lon="5.47617">
        <ele>496.9</ele>
        <time>2022-04-28T11:12:27Z</time>
      </trkpt>
      <trkpt lat="45.31002" lon="5.47619">
        <ele>497.1</ele>
        <time>2022-04-28T11:12:28Z</time>
      </trkpt>
      <trkpt lat="45.31003" lon="5.4762">
        <ele>497.2</ele>
        <time>2022-04-28T11:12:29Z</time>
      </trkpt>
      <trkpt lat="45.31006" lon="5.47622">
        <ele>497.3</ele>
        <time>2022-04-28T11:12:30Z</time>
      </trkpt>
      <trkpt lat="45.31008" lon="5.47623">
        <ele>497.5</ele>
        <time>2022-04-28T11:12:32Z</time>
      </trkpt>
      <trkpt lat="45.31011" lon="5.47625">
        <ele>497.7</ele>
        <time>2022-04-28T11:12:33Z</time>
      </trkpt>
      <trkpt lat="45.31014" lon="5.47627">
        <ele>497.9</ele>
        <time>2022-04-28T11:12:34Z</time>
      </trkpt>
      <trkpt lat="45.31015" lon="5.47628">
        <ele>498</ele>
        <time>2022-04-28T11:12:35Z</time>
      </trkpt>
      <trkpt lat="45.3102" lon="5.47631">
        <ele>498.3</ele>
        <time>2022-04-28T11:12:37Z</time>
      </trkpt>
      <trkpt lat="45.31021" lon="5.47632">
        <ele>498.4</ele>
        <time>2022-04-28T11:12:38Z</time>
      </trkpt>
      <trkpt lat="45.31023" lon="5.47634">
        <ele>498.5</ele>
        <time>2022-04-28T11:12:39Z</time>
      </trkpt>
      <trkpt lat="45.31027" lon="5.47635">
        <ele>498.8</ele>
        <time>2022-04-28T11:12:40Z</time>
      </trkpt>
      <trkpt lat="45.31029" lon="5.47636">
        <ele>498.9</ele>
        <time>2022-04-28T11:12:41Z</time>
      </trkpt>
      <trkpt lat="45.31032" lon="5.47638">
        <ele>499.1</ele>
        <time>2022-04-28T11:12:42Z</time>
      </trkpt>
      <trkpt lat="45.31034" lon="5.47638">
        <ele>499.2</ele>
        <time>2022-04-28T11:12:43Z</time>
      </trkpt>
      <trkpt lat="45.31037" lon="5.4764">
        <ele>499.5</ele>
        <time>2022-04-28T11:12:45Z</time>
      </trkpt>
      <trkpt lat="45.31041" lon="5.47641">
        <ele>499.7</ele>
        <time>2022-04-28T11:12:46Z</time>
      </trkpt>
      <trkpt lat="45.31043" lon="5.47641">
        <ele>499.8</ele>
        <time>2022-04-28T11:12:47Z</time>
      </trkpt>
      <trkpt lat="45.31046" lon="5.47642">
        <ele>500.1</ele>
        <time>2022-04-28T11:12:48Z</time>
      </trkpt>
      <trkpt lat="45.3105" lon="5.47643">
        <ele>500.3</ele>
        <time>2022-04-28T11:12:49Z</time>
      </trkpt>
      <trkpt lat="45.31051" lon="5.47644">
        <ele>500.4</ele>
        <time>2022-04-28T11:12:50Z</time>
      </trkpt>
      <trkpt lat="45.31053" lon="5.47644">
        <ele>500.6</ele>
        <time>2022-04-28T11:12:51Z</time>
      </trkpt>
      <trkpt lat="45.31057" lon="5.47644">
        <ele>500.8</ele>
        <time>2022-04-28T11:12:53Z</time>
      </trkpt>
      <trkpt lat="45.31059" lon="5.47645">
        <ele>501</ele>
        <time>2022-04-28T11:12:54Z</time>
      </trkpt>
      <trkpt lat="45.31062" lon="5.47646">
        <ele>501.2</ele>
        <time>2022-04-28T11:12:55Z</time>
      </trkpt>
      <trkpt lat="45.31065" lon="5.47647">
        <ele>501.3</ele>
        <time>2022-04-28T11:12:56Z</time>
      </trkpt>
      <trkpt lat="45.31068" lon="5.47647">
        <ele>501.6</ele>
        <time>2022-04-28T11:12:57Z</time>
      </trkpt>
      <trkpt lat="45.31073" lon="5.47648">
        <ele>501.8</ele>
        <time>2022-04-28T11:12:59Z</time>
      </trkpt>
      <trkpt lat="45.31076" lon="5.47648">
        <ele>502.1</ele>
        <time>2022-04-28T11:13:00Z</time>
      </trkpt>
      <trkpt lat="45.31078" lon="5.47649">
        <ele>502.2</ele>
        <time>2022-04-28T11:13:01Z</time>
      </trkpt>
      <trkpt lat="45.31082" lon="5.47649">
        <ele>502.4</ele>
        <time>2022-04-28T11:13:02Z</time>
      </trkpt>
      <trkpt lat="45.31083" lon="5.47649">
        <ele>502.5</ele>
        <time>2022-04-28T11:13:03Z</time>
      </trkpt>
      <trkpt lat="45.31087" lon="5.4765">
        <ele>502.8</ele>
        <time>2022-04-28T11:13:04Z</time>
      </trkpt>
      <trkpt lat="45.3109" lon="5.47649">
        <ele>503</ele>
        <time>2022-04-28T11:13:05Z</time>
      </trkpt>
      <trkpt lat="45.31094" lon="5.47648">
        <ele>503.2</ele>
        <time>2022-04-28T11:13:06Z</time>
      </trkpt>
      <trkpt lat="45.31095" lon="5.47648">
        <ele>503.3</ele>
        <time>2022-04-28T11:13:07Z</time>
      </trkpt>
      <trkpt lat="45.31099" lon="5.47647">
        <ele>503.6</ele>
        <time>2022-04-28T11:13:09Z</time>
      </trkpt>
      <trkpt lat="45.31102" lon="5.47646">
        <ele>503.8</ele>
        <time>2022-04-28T11:13:10Z</time>
      </trkpt>
      <trkpt lat="45.31106" lon="5.47645">
        <ele>504.1</ele>
        <time>2022-04-28T11:13:11Z</time>
      </trkpt>
      <trkpt lat="45.31107" lon="5.47644">
        <ele>504.1</ele>
        <time>2022-04-28T11:13:12Z</time>
      </trkpt>
      <trkpt lat="45.31111" lon="5.47643">
        <ele>504.4</ele>
        <time>2022-04-28T11:13:13Z</time>
      </trkpt>
      <trkpt lat="45.31112" lon="5.47643">
        <ele>504.5</ele>
        <time>2022-04-28T11:13:14Z</time>
      </trkpt>
      <trkpt lat="45.31115" lon="5.47641">
        <ele>504.7</ele>
        <time>2022-04-28T11:13:15Z</time>
      </trkpt>
      <trkpt lat="45.31119" lon="5.47639">
        <ele>504.9</ele>
        <time>2022-04-28T11:13:17Z</time>
      </trkpt>
      <trkpt lat="45.31122" lon="5.47639">
        <ele>505.2</ele>
        <time>2022-04-28T11:13:18Z</time>
      </trkpt>
      <trkpt lat="45.31125" lon="5.47638">
        <ele>505.4</ele>
        <time>2022-04-28T11:13:19Z</time>
      </trkpt>
      <trkpt lat="45.31128" lon="5.47638">
        <ele>505.6</ele>
        <time>2022-04-28T11:13:20Z</time>
      </trkpt>
      <trkpt lat="45.3113" lon="5.47637">
        <ele>505.7</ele>
        <time>2022-04-28T11:13:21Z</time>
      </trkpt>
      <trkpt lat="45.31133" lon="5.47636">
        <ele>505.9</ele>
        <time>2022-04-28T11:13:22Z</time>
      </trkpt>
      <trkpt lat="45.31136" lon="5.47635">
        <ele>506.2</ele>
        <time>2022-04-28T11:13:23Z</time>
      </trkpt>
      <trkpt lat="45.31138" lon="5.47634">
        <ele>506.3</ele>
        <time>2022-04-28T11:13:24Z</time>
      </trkpt>
      <trkpt lat="45.31142" lon="5.47633">
        <ele>506.6</ele>
        <time>2022-04-28T11:13:25Z</time>
      </trkpt>
      <trkpt lat="45.31143" lon="5.47632">
        <ele>506.7</ele>
        <time>2022-04-28T11:13:26Z</time>
      </trkpt>
      <trkpt lat="45.31146" lon="5.47631">
        <ele>506.9</ele>
        <time>2022-04-28T11:13:27Z</time>
      </trkpt>
      <trkpt lat="45.31148" lon="5.4763">
        <ele>507</ele>
        <time>2022-04-28T11:13:28Z</time>
      </trkpt>
      <trkpt lat="45.31151" lon="5.47629">
        <ele>507.3</ele>
        <time>2022-04-28T11:13:29Z</time>
      </trkpt>
      <trkpt lat="45.31152" lon="5.47629">
        <ele>507.4</ele>
        <time>2022-04-28T11:13:30Z</time>
      </trkpt>
      <trkpt lat="45.31156" lon="5.47627">
        <ele>507.7</ele>
        <time>2022-04-28T11:13:32Z</time>
      </trkpt>
      <trkpt lat="45.31159" lon="5.47626">
        <ele>507.9</ele>
        <time>2022-04-28T11:13:33Z</time>
      </trkpt>
      <trkpt lat="45.31162" lon="5.47625">
        <ele>508.1</ele>
        <time>2022-04-28T11:13:34Z</time>
      </trkpt>
      <trkpt lat="45.31165" lon="5.47623">
        <ele>508.3</ele>
        <time>2022-04-28T11:13:35Z</time>
      </trkpt>
      <trkpt lat="45.31169" lon="5.47622">
        <ele>508.6</ele>
        <time>2022-04-28T11:13:37Z</time>
      </trkpt>
      <trkpt lat="45.31172" lon="5.4762">
        <ele>508.9</ele>
        <time>2022-04-28T11:13:38Z</time>
      </trkpt>
      <trkpt lat="45.31176" lon="5.47617">
        <ele>509.2</ele>
        <time>2022-04-28T11:13:39Z</time>
      </trkpt>
      <trkpt lat="45.31177" lon="5.47616">
        <ele>509.3</ele>
        <time>2022-04-28T11:13:40Z</time>
      </trkpt>
      <trkpt lat="45.3118" lon="5.47614">
        <ele>509.6</ele>
        <time>2022-04-28T11:13:42Z</time>
      </trkpt>
      <trkpt lat="45.31184" lon="5.4761">
        <ele>509.9</ele>
        <time>2022-04-28T11:13:43Z</time>
      </trkpt>
      <trkpt lat="45.31185" lon="5.47609">
        <ele>510</ele>
        <time>2022-04-28T11:13:44Z</time>
      </trkpt>
      <trkpt lat="45.31188" lon="5.47604">
        <ele>510.3</ele>
        <time>2022-04-28T11:13:46Z</time>
      </trkpt>
      <trkpt lat="45.3119" lon="5.47601">
        <ele>510.4</ele>
        <time>2022-04-28T11:13:47Z</time>
      </trkpt>
      <trkpt lat="45.31192" lon="5.47595">
        <ele>510.7</ele>
        <time>2022-04-28T11:13:49Z</time>
      </trkpt>
      <trkpt lat="45.31194" lon="5.47592">
        <ele>510.9</ele>
        <time>2022-04-28T11:13:50Z</time>
      </trkpt>
      <trkpt lat="45.31196" lon="5.47588">
        <ele>511.2</ele>
        <time>2022-04-28T11:13:52Z</time>
      </trkpt>
      <trkpt lat="45.31197" lon="5.47585">
        <ele>511.4</ele>
        <time>2022-04-28T11:13:53Z</time>
      </trkpt>
      <trkpt lat="45.312" lon="5.47579">
        <ele>511.7</ele>
        <time>2022-04-28T11:13:55Z</time>
      </trkpt>
      <trkpt lat="45.31202" lon="5.47575">
        <ele>512</ele>
        <time>2022-04-28T11:13:56Z</time>
      </trkpt>
      <trkpt lat="45.31202" lon="5.47573">
        <ele>512.1</ele>
        <time>2022-04-28T11:13:57Z</time>
      </trkpt>
      <trkpt lat="45.31204" lon="5.47568">
        <ele>512.3</ele>
        <time>2022-04-28T11:13:58Z</time>
      </trkpt>
      <trkpt lat="45.31205" lon="5.47567">
        <ele>512.4</ele>
        <time>2022-04-28T11:13:59Z</time>
      </trkpt>
      <trkpt lat="45.31207" lon="5.47562">
        <ele>512.7</ele>
        <time>2022-04-28T11:14:00Z</time>
      </trkpt>
      <trkpt lat="45.31207" lon="5.4756">
        <ele>512.8</ele>
        <time>2022-04-28T11:14:01Z</time>
      </trkpt>
      <trkpt lat="45.31209" lon="5.47555">
        <ele>513.1</ele>
        <time>2022-04-28T11:14:02Z</time>
      </trkpt>
      <trkpt lat="45.3121" lon="5.47553">
        <ele>513.2</ele>
        <time>2022-04-28T11:14:03Z</time>
      </trkpt>
      <trkpt lat="45.31211" lon="5.47549">
        <ele>513.4</ele>
        <time>2022-04-28T11:14:04Z</time>
      </trkpt>
      <trkpt lat="45.31212" lon="5.47547">
        <ele>513.5</ele>
        <time>2022-04-28T11:14:05Z</time>
      </trkpt>
      <trkpt lat="45.31213" lon="5.47543">
        <ele>513.8</ele>
        <time>2022-04-28T11:14:06Z</time>
      </trkpt>
      <trkpt lat="45.31214" lon="5.47541">
        <ele>513.8</ele>
        <time>2022-04-28T11:14:07Z</time>
      </trkpt>
      <trkpt lat="45.31216" lon="5.47536">
        <ele>514.1</ele>
        <time>2022-04-28T11:14:08Z</time>
      </trkpt>
      <trkpt lat="45.31217" lon="5.47535">
        <ele>514.2</ele>
        <time>2022-04-28T11:14:09Z</time>
      </trkpt>
      <trkpt lat="45.31219" lon="5.4753">
        <ele>514.5</ele>
        <time>2022-04-28T11:14:10Z</time>
      </trkpt>
      <trkpt lat="45.31219" lon="5.47529">
        <ele>514.6</ele>
        <time>2022-04-28T11:14:11Z</time>
      </trkpt>
      <trkpt lat="45.31221" lon="5.47524">
        <ele>514.9</ele>
        <time>2022-04-28T11:14:12Z</time>
      </trkpt>
      <trkpt lat="45.31222" lon="5.47522">
        <ele>514.9</ele>
        <time>2022-04-28T11:14:13Z</time>
      </trkpt>
      <trkpt lat="45.31224" lon="5.47518">
        <ele>515.2</ele>
        <time>2022-04-28T11:14:14Z</time>
      </trkpt>
      <trkpt lat="45.31224" lon="5.47517">
        <ele>515.3</ele>
        <time>2022-04-28T11:14:15Z</time>
      </trkpt>
      <trkpt lat="45.31225" lon="5.47512">
        <ele>515.5</ele>
        <time>2022-04-28T11:14:16Z</time>
      </trkpt>
      <trkpt lat="45.31226" lon="5.4751">
        <ele>515.6</ele>
        <time>2022-04-28T11:14:17Z</time>
      </trkpt>
      <trkpt lat="45.31227" lon="5.47506">
        <ele>515.8</ele>
        <time>2022-04-28T11:14:18Z</time>
      </trkpt>
      <trkpt lat="45.31228" lon="5.47501">
        <ele>516.1</ele>
        <time>2022-04-28T11:14:19Z</time>
      </trkpt>
      <trkpt lat="45.31228" lon="5.475">
        <ele>516.2</ele>
        <time>2022-04-28T11:14:20Z</time>
      </trkpt>
      <trkpt lat="45.31229" lon="5.47495">
        <ele>516.4</ele>
        <time>2022-04-28T11:14:21Z</time>
      </trkpt>
      <trkpt lat="45.3123" lon="5.47493">
        <ele>516.5</ele>
        <time>2022-04-28T11:14:22Z</time>
      </trkpt>
      <trkpt lat="45.31231" lon="5.47488">
        <ele>516.8</ele>
        <time>2022-04-28T11:14:23Z</time>
      </trkpt>
      <trkpt lat="45.31232" lon="5.47486">
        <ele>516.9</ele>
        <time>2022-04-28T11:14:24Z</time>
      </trkpt>
      <trkpt lat="45.31233" lon="5.47482">
        <ele>517.1</ele>
        <time>2022-04-28T11:14:25Z</time>
      </trkpt>
      <trkpt lat="45.31233" lon="5.4748">
        <ele>517.2</ele>
        <time>2022-04-28T11:14:26Z</time>
      </trkpt>
      <trkpt lat="45.31235" lon="5.47475">
        <ele>517.5</ele>
        <time>2022-04-28T11:14:27Z</time>
      </trkpt>
      <trkpt lat="45.31235" lon="5.47474">
        <ele>517.5</ele>
        <time>2022-04-28T11:14:28Z</time>
      </trkpt>
      <trkpt lat="45.31236" lon="5.47469">
        <ele>517.8</ele>
        <time>2022-04-28T11:14:29Z</time>
      </trkpt>
      <trkpt lat="45.31236" lon="5.47467">
        <ele>517.8</ele>
        <time>2022-04-28T11:14:30Z</time>
      </trkpt>
      <trkpt lat="45.31237" lon="5.47461">
        <ele>518.1</ele>
        <time>2022-04-28T11:14:32Z</time>
      </trkpt>
      <trkpt lat="45.31238" lon="5.47455">
        <ele>518.4</ele>
        <time>2022-04-28T11:14:33Z</time>
      </trkpt>
      <trkpt lat="45.31238" lon="5.47453">
        <ele>518.5</ele>
        <time>2022-04-28T11:14:34Z</time>
      </trkpt>
      <trkpt lat="45.31238" lon="5.47449">
        <ele>518.7</ele>
        <time>2022-04-28T11:14:35Z</time>
      </trkpt>
      <trkpt lat="45.31239" lon="5.47444">
        <ele>518.9</ele>
        <time>2022-04-28T11:14:36Z</time>
      </trkpt>
      <trkpt lat="45.3124" lon="5.47442">
        <ele>519</ele>
        <time>2022-04-28T11:14:37Z</time>
      </trkpt>
      <trkpt lat="45.3124" lon="5.47439">
        <ele>519.2</ele>
        <time>2022-04-28T11:14:38Z</time>
      </trkpt>
      <trkpt lat="45.31241" lon="5.47433">
        <ele>519.4</ele>
        <time>2022-04-28T11:14:40Z</time>
      </trkpt>
      <trkpt lat="45.31242" lon="5.47427">
        <ele>519.7</ele>
        <time>2022-04-28T11:14:41Z</time>
      </trkpt>
      <trkpt lat="45.31242" lon="5.47425">
        <ele>519.8</ele>
        <time>2022-04-28T11:14:42Z</time>
      </trkpt>
      <trkpt lat="45.31244" lon="5.4742">
        <ele>520</ele>
        <time>2022-04-28T11:14:43Z</time>
      </trkpt>
      <trkpt lat="45.31244" lon="5.47418">
        <ele>520.1</ele>
        <time>2022-04-28T11:14:44Z</time>
      </trkpt>
      <trkpt lat="45.31246" lon="5.47412">
        <ele>520.5</ele>
        <time>2022-04-28T11:14:45Z</time>
      </trkpt>
      <trkpt lat="45.31246" lon="5.4741">
        <ele>520.6</ele>
        <time>2022-04-28T11:14:46Z</time>
      </trkpt>
      <trkpt lat="45.31248" lon="5.47402">
        <ele>521</ele>
        <time>2022-04-28T11:14:48Z</time>
      </trkpt>
      <trkpt lat="45.31249" lon="5.47398">
        <ele>521.1</ele>
        <time>2022-04-28T11:14:49Z</time>
      </trkpt>
      <trkpt lat="45.31251" lon="5.47395">
        <ele>521.3</ele>
        <time>2022-04-28T11:14:50Z</time>
      </trkpt>
      <trkpt lat="45.31252" lon="5.47391">
        <ele>521.5</ele>
        <time>2022-04-28T11:14:51Z</time>
      </trkpt>
      <trkpt lat="45.31253" lon="5.47387">
        <ele>521.7</ele>
        <time>2022-04-28T11:14:52Z</time>
      </trkpt>
      <trkpt lat="45.31254" lon="5.47383">
        <ele>521.9</ele>
        <time>2022-04-28T11:14:53Z</time>
      </trkpt>
      <trkpt lat="45.31255" lon="5.47377">
        <ele>522.2</ele>
        <time>2022-04-28T11:14:54Z</time>
      </trkpt>
      <trkpt lat="45.31256" lon="5.47375">
        <ele>522.3</ele>
        <time>2022-04-28T11:14:55Z</time>
      </trkpt>
      <trkpt lat="45.31257" lon="5.47372">
        <ele>522.5</ele>
        <time>2022-04-28T11:14:56Z</time>
      </trkpt>
      <trkpt lat="45.31258" lon="5.47367">
        <ele>522.7</ele>
        <time>2022-04-28T11:14:57Z</time>
      </trkpt>
      <trkpt lat="45.31259" lon="5.47365">
        <ele>522.8</ele>
        <time>2022-04-28T11:14:58Z</time>
      </trkpt>
      <trkpt lat="45.3126" lon="5.47361">
        <ele>523.1</ele>
        <time>2022-04-28T11:14:59Z</time>
      </trkpt>
      <trkpt lat="45.31262" lon="5.47357">
        <ele>523.3</ele>
        <time>2022-04-28T11:15:00Z</time>
      </trkpt>
      <trkpt lat="45.31263" lon="5.47353">
        <ele>523.5</ele>
        <time>2022-04-28T11:15:01Z</time>
      </trkpt>
      <trkpt lat="45.31264" lon="5.47349">
        <ele>523.7</ele>
        <time>2022-04-28T11:15:02Z</time>
      </trkpt>
      <trkpt lat="45.31265" lon="5.47344">
        <ele>524</ele>
        <time>2022-04-28T11:15:03Z</time>
      </trkpt>
      <trkpt lat="45.31266" lon="5.47343">
        <ele>524</ele>
        <time>2022-04-28T11:15:04Z</time>
      </trkpt>
      <trkpt lat="45.31267" lon="5.47338">
        <ele>524.3</ele>
        <time>2022-04-28T11:15:05Z</time>
      </trkpt>
      <trkpt lat="45.31269" lon="5.47333">
        <ele>524.6</ele>
        <time>2022-04-28T11:15:06Z</time>
      </trkpt>
      <trkpt lat="45.3127" lon="5.47332">
        <ele>524.7</ele>
        <time>2022-04-28T11:15:07Z</time>
      </trkpt>
      <trkpt lat="45.31271" lon="5.47328">
        <ele>524.9</ele>
        <time>2022-04-28T11:15:08Z</time>
      </trkpt>
      <trkpt lat="45.31273" lon="5.47324">
        <ele>525.1</ele>
        <time>2022-04-28T11:15:09Z</time>
      </trkpt>
      <trkpt lat="45.31274" lon="5.47321">
        <ele>525.3</ele>
        <time>2022-04-28T11:15:10Z</time>
      </trkpt>
      <trkpt lat="45.31275" lon="5.47317">
        <ele>525.5</ele>
        <time>2022-04-28T11:15:11Z</time>
      </trkpt>
      <trkpt lat="45.31276" lon="5.47313">
        <ele>525.7</ele>
        <time>2022-04-28T11:15:12Z</time>
      </trkpt>
      <trkpt lat="45.31277" lon="5.47308">
        <ele>525.9</ele>
        <time>2022-04-28T11:15:13Z</time>
      </trkpt>
      <trkpt lat="45.31278" lon="5.47304">
        <ele>526.1</ele>
        <time>2022-04-28T11:15:14Z</time>
      </trkpt>
      <trkpt lat="45.31279" lon="5.47301">
        <ele>526.3</ele>
        <time>2022-04-28T11:15:15Z</time>
      </trkpt>
      <trkpt lat="45.31281" lon="5.47296">
        <ele>526.5</ele>
        <time>2022-04-28T11:15:16Z</time>
      </trkpt>
      <trkpt lat="45.31281" lon="5.47295">
        <ele>526.6</ele>
        <time>2022-04-28T11:15:17Z</time>
      </trkpt>
      <trkpt lat="45.31283" lon="5.47291">
        <ele>526.8</ele>
        <time>2022-04-28T11:15:18Z</time>
      </trkpt>
      <trkpt lat="45.31285" lon="5.47288">
        <ele>527</ele>
        <time>2022-04-28T11:15:19Z</time>
      </trkpt>
      <trkpt lat="45.31287" lon="5.47285">
        <ele>527.2</ele>
        <time>2022-04-28T11:15:20Z</time>
      </trkpt>
      <trkpt lat="45.31288" lon="5.47279">
        <ele>527.4</ele>
        <time>2022-04-28T11:15:21Z</time>
      </trkpt>
      <trkpt lat="45.31289" lon="5.47277">
        <ele>527.5</ele>
        <time>2022-04-28T11:15:22Z</time>
      </trkpt>
      <trkpt lat="45.3129" lon="5.47274">
        <ele>527.7</ele>
        <time>2022-04-28T11:15:23Z</time>
      </trkpt>
      <trkpt lat="45.31291" lon="5.4727">
        <ele>527.9</ele>
        <time>2022-04-28T11:15:24Z</time>
      </trkpt>
      <trkpt lat="45.31293" lon="5.47265">
        <ele>528.2</ele>
        <time>2022-04-28T11:15:26Z</time>
      </trkpt>
      <trkpt lat="45.31294" lon="5.4726">
        <ele>528.5</ele>
        <time>2022-04-28T11:15:27Z</time>
      </trkpt>
      <trkpt lat="45.31295" lon="5.47255">
        <ele>528.7</ele>
        <time>2022-04-28T11:15:28Z</time>
      </trkpt>
      <trkpt lat="45.31296" lon="5.47253">
        <ele>528.8</ele>
        <time>2022-04-28T11:15:29Z</time>
      </trkpt>
      <trkpt lat="45.31298" lon="5.47249">
        <ele>529.1</ele>
        <time>2022-04-28T11:15:30Z</time>
      </trkpt>
      <trkpt lat="45.31298" lon="5.47247">
        <ele>529.2</ele>
        <time>2022-04-28T11:15:31Z</time>
      </trkpt>
      <trkpt lat="45.313" lon="5.47244">
        <ele>529.4</ele>
        <time>2022-04-28T11:15:32Z</time>
      </trkpt>
      <trkpt lat="45.31301" lon="5.4724">
        <ele>529.6</ele>
        <time>2022-04-28T11:15:33Z</time>
      </trkpt>
      <trkpt lat="45.31303" lon="5.47236">
        <ele>529.8</ele>
        <time>2022-04-28T11:15:35Z</time>
      </trkpt>
      <trkpt lat="45.31305" lon="5.47231">
        <ele>530.1</ele>
        <time>2022-04-28T11:15:36Z</time>
      </trkpt>
      <trkpt lat="45.31307" lon="5.47227">
        <ele>530.4</ele>
        <time>2022-04-28T11:15:37Z</time>
      </trkpt>
      <trkpt lat="45.31309" lon="5.47222">
        <ele>530.7</ele>
        <time>2022-04-28T11:15:38Z</time>
      </trkpt>
      <trkpt lat="45.3131" lon="5.4722">
        <ele>530.8</ele>
        <time>2022-04-28T11:15:39Z</time>
      </trkpt>
      <trkpt lat="45.31312" lon="5.47216">
        <ele>531</ele>
        <time>2022-04-28T11:15:40Z</time>
      </trkpt>
      <trkpt lat="45.31315" lon="5.47212">
        <ele>531.4</ele>
        <time>2022-04-28T11:15:41Z</time>
      </trkpt>
      <trkpt lat="45.31316" lon="5.4721">
        <ele>531.5</ele>
        <time>2022-04-28T11:15:42Z</time>
      </trkpt>
      <trkpt lat="45.31319" lon="5.47207">
        <ele>531.8</ele>
        <time>2022-04-28T11:15:43Z</time>
      </trkpt>
      <trkpt lat="45.3132" lon="5.47205">
        <ele>532</ele>
        <time>2022-04-28T11:15:44Z</time>
      </trkpt>
      <trkpt lat="45.31322" lon="5.47202">
        <ele>532.2</ele>
        <time>2022-04-28T11:15:45Z</time>
      </trkpt>
      <trkpt lat="45.31325" lon="5.472">
        <ele>532.5</ele>
        <time>2022-04-28T11:15:46Z</time>
      </trkpt>
      <trkpt lat="45.31326" lon="5.472">
        <ele>532.6</ele>
        <time>2022-04-28T11:15:47Z</time>
      </trkpt>
      <trkpt lat="45.3133" lon="5.47199">
        <ele>533</ele>
        <time>2022-04-28T11:15:49Z</time>
      </trkpt>
      <trkpt lat="45.31333" lon="5.47198">
        <ele>533.3</ele>
        <time>2022-04-28T11:15:50Z</time>
      </trkpt>
      <trkpt lat="45.31334" lon="5.47198">
        <ele>533.4</ele>
        <time>2022-04-28T11:15:51Z</time>
      </trkpt>
      <trkpt lat="45.31336" lon="5.47198">
        <ele>533.5</ele>
        <time>2022-04-28T11:15:52Z</time>
      </trkpt>
      <trkpt lat="45.3134" lon="5.47197">
        <ele>533.9</ele>
        <time>2022-04-28T11:15:54Z</time>
      </trkpt>
      <trkpt lat="45.31343" lon="5.47197">
        <ele>534.2</ele>
        <time>2022-04-28T11:15:55Z</time>
      </trkpt>
      <trkpt lat="45.31344" lon="5.47197">
        <ele>534.2</ele>
        <time>2022-04-28T11:15:56Z</time>
      </trkpt>
      <trkpt lat="45.31348" lon="5.47197">
        <ele>534.6</ele>
        <time>2022-04-28T11:15:58Z</time>
      </trkpt>
      <trkpt lat="45.31351" lon="5.47197">
        <ele>534.8</ele>
        <time>2022-04-28T11:15:59Z</time>
      </trkpt>
      <trkpt lat="45.31352" lon="5.47197">
        <ele>534.9</ele>
        <time>2022-04-28T11:16:00Z</time>
      </trkpt>
      <trkpt lat="45.31355" lon="5.47198">
        <ele>535.2</ele>
        <time>2022-04-28T11:16:02Z</time>
      </trkpt>
      <trkpt lat="45.3136" lon="5.47199">
        <ele>535.5</ele>
        <time>2022-04-28T11:16:04Z</time>
      </trkpt>
      <trkpt lat="45.31362" lon="5.472">
        <ele>535.8</ele>
        <time>2022-04-28T11:16:05Z</time>
      </trkpt>
      <trkpt lat="45.31363" lon="5.472">
        <ele>535.9</ele>
        <time>2022-04-28T11:16:06Z</time>
      </trkpt>
      <trkpt lat="45.31366" lon="5.47201">
        <ele>536.1</ele>
        <time>2022-04-28T11:16:07Z</time>
      </trkpt>
      <trkpt lat="45.31367" lon="5.47202">
        <ele>536.1</ele>
        <time>2022-04-28T11:16:08Z</time>
      </trkpt>
      <trkpt lat="45.31369" lon="5.47204">
        <ele>536.4</ele>
        <time>2022-04-28T11:16:09Z</time>
      </trkpt>
      <trkpt lat="45.3137" lon="5.47204">
        <ele>536.5</ele>
        <time>2022-04-28T11:16:10Z</time>
      </trkpt>
      <trkpt lat="45.31374" lon="5.47206">
        <ele>536.8</ele>
        <time>2022-04-28T11:16:11Z</time>
      </trkpt>
      <trkpt lat="45.31375" lon="5.47206">
        <ele>536.8</ele>
        <time>2022-04-28T11:16:12Z</time>
      </trkpt>
      <trkpt lat="45.31378" lon="5.47207">
        <ele>537.1</ele>
        <time>2022-04-28T11:16:13Z</time>
      </trkpt>
      <trkpt lat="45.31379" lon="5.47208">
        <ele>537.2</ele>
        <time>2022-04-28T11:16:14Z</time>
      </trkpt>
      <trkpt lat="45.31382" lon="5.47209">
        <ele>537.4</ele>
        <time>2022-04-28T11:16:15Z</time>
      </trkpt>
      <trkpt lat="45.31383" lon="5.4721">
        <ele>537.5</ele>
        <time>2022-04-28T11:16:16Z</time>
      </trkpt>
      <trkpt lat="45.31386" lon="5.47211">
        <ele>537.7</ele>
        <time>2022-04-28T11:16:17Z</time>
      </trkpt>
      <trkpt lat="45.31387" lon="5.47212">
        <ele>537.8</ele>
        <time>2022-04-28T11:16:18Z</time>
      </trkpt>
      <trkpt lat="45.31391" lon="5.47213">
        <ele>538.2</ele>
        <time>2022-04-28T11:16:20Z</time>
      </trkpt>
      <trkpt lat="45.31394" lon="5.47215">
        <ele>538.4</ele>
        <time>2022-04-28T11:16:21Z</time>
      </trkpt>
      <trkpt lat="45.31395" lon="5.47215">
        <ele>538.5</ele>
        <time>2022-04-28T11:16:22Z</time>
      </trkpt>
      <trkpt lat="45.31397" lon="5.47216">
        <ele>538.7</ele>
        <time>2022-04-28T11:16:23Z</time>
      </trkpt>
      <trkpt lat="45.314" lon="5.47216">
        <ele>538.9</ele>
        <time>2022-04-28T11:16:25Z</time>
      </trkpt>
      <trkpt lat="45.31403" lon="5.47217">
        <ele>539.2</ele>
        <time>2022-04-28T11:16:26Z</time>
      </trkpt>
      <trkpt lat="45.31406" lon="5.47218">
        <ele>539.4</ele>
        <time>2022-04-28T11:16:27Z</time>
      </trkpt>
      <trkpt lat="45.31407" lon="5.47218">
        <ele>539.5</ele>
        <time>2022-04-28T11:16:28Z</time>
      </trkpt>
      <trkpt lat="45.31411" lon="5.4722">
        <ele>539.9</ele>
        <time>2022-04-28T11:16:30Z</time>
      </trkpt>
      <trkpt lat="45.31414" lon="5.47222">
        <ele>540.2</ele>
        <time>2022-04-28T11:16:31Z</time>
      </trkpt>
      <trkpt lat="45.31415" lon="5.47222">
        <ele>540.2</ele>
        <time>2022-04-28T11:16:32Z</time>
      </trkpt>
      <trkpt lat="45.31418" lon="5.47224">
        <ele>540.5</ele>
        <time>2022-04-28T11:16:33Z</time>
      </trkpt>
      <trkpt lat="45.31419" lon="5.47224">
        <ele>540.6</ele>
        <time>2022-04-28T11:16:34Z</time>
      </trkpt>
      <trkpt lat="45.31423" lon="5.47227">
        <ele>540.9</ele>
        <time>2022-04-28T11:16:36Z</time>
      </trkpt>
      <trkpt lat="45.31427" lon="5.47229">
        <ele>541.3</ele>
        <time>2022-04-28T11:16:38Z</time>
      </trkpt>
      <trkpt lat="45.3143" lon="5.4723">
        <ele>541.5</ele>
        <time>2022-04-28T11:16:39Z</time>
      </trkpt>
      <trkpt lat="45.31431" lon="5.4723">
        <ele>541.6</ele>
        <time>2022-04-28T11:16:40Z</time>
      </trkpt>
      <trkpt lat="45.31434" lon="5.4723">
        <ele>541.9</ele>
        <time>2022-04-28T11:16:41Z</time>
      </trkpt>
      <trkpt lat="45.31435" lon="5.4723">
        <ele>541.9</ele>
        <time>2022-04-28T11:16:42Z</time>
      </trkpt>
      <trkpt lat="45.31439" lon="5.4723">
        <ele>542.2</ele>
        <time>2022-04-28T11:16:43Z</time>
      </trkpt>
      <trkpt lat="45.31439" lon="5.4723">
        <ele>542.2</ele>
        <time>2022-04-28T11:16:44Z</time>
      </trkpt>
      <trkpt lat="45.31443" lon="5.4723">
        <ele>542.5</ele>
        <time>2022-04-28T11:16:45Z</time>
      </trkpt>
      <trkpt lat="45.31444" lon="5.4723">
        <ele>542.5</ele>
        <time>2022-04-28T11:16:46Z</time>
      </trkpt>
      <trkpt lat="45.31446" lon="5.47229">
        <ele>542.7</ele>
        <time>2022-04-28T11:16:47Z</time>
      </trkpt>
      <trkpt lat="45.31447" lon="5.47229">
        <ele>542.8</ele>
        <time>2022-04-28T11:16:48Z</time>
      </trkpt>
      <trkpt lat="45.31451" lon="5.47227">
        <ele>543</ele>
        <time>2022-04-28T11:16:49Z</time>
      </trkpt>
      <trkpt lat="45.31451" lon="5.47226">
        <ele>543.1</ele>
        <time>2022-04-28T11:16:50Z</time>
      </trkpt>
      <trkpt lat="45.31454" lon="5.47225">
        <ele>543.3</ele>
        <time>2022-04-28T11:16:51Z</time>
      </trkpt>
      <trkpt lat="45.31455" lon="5.47224">
        <ele>543.4</ele>
        <time>2022-04-28T11:16:52Z</time>
      </trkpt>
      <trkpt lat="45.31458" lon="5.47222">
        <ele>543.6</ele>
        <time>2022-04-28T11:16:53Z</time>
      </trkpt>
      <trkpt lat="45.31459" lon="5.47221">
        <ele>543.7</ele>
        <time>2022-04-28T11:16:54Z</time>
      </trkpt>
      <trkpt lat="45.31461" lon="5.47218">
        <ele>543.9</ele>
        <time>2022-04-28T11:16:55Z</time>
      </trkpt>
      <trkpt lat="45.31462" lon="5.47217">
        <ele>543.9</ele>
        <time>2022-04-28T11:16:56Z</time>
      </trkpt>
      <trkpt lat="45.31465" lon="5.47214">
        <ele>544.1</ele>
        <time>2022-04-28T11:16:57Z</time>
      </trkpt>
      <trkpt lat="45.31465" lon="5.47213">
        <ele>544.2</ele>
        <time>2022-04-28T11:16:58Z</time>
      </trkpt>
      <trkpt lat="45.31468" lon="5.4721">
        <ele>544.4</ele>
        <time>2022-04-28T11:16:59Z</time>
      </trkpt>
      <trkpt lat="45.31468" lon="5.47209">
        <ele>544.4</ele>
        <time>2022-04-28T11:17:00Z</time>
      </trkpt>
      <trkpt lat="45.3147" lon="5.47205">
        <ele>544.6</ele>
        <time>2022-04-28T11:17:01Z</time>
      </trkpt>
      <trkpt lat="45.31471" lon="5.47204">
        <ele>544.7</ele>
        <time>2022-04-28T11:17:02Z</time>
      </trkpt>
      <trkpt lat="45.31472" lon="5.472">
        <ele>544.9</ele>
        <time>2022-04-28T11:17:03Z</time>
      </trkpt>
      <trkpt lat="45.31473" lon="5.47199">
        <ele>544.9</ele>
        <time>2022-04-28T11:17:04Z</time>
      </trkpt>
      <trkpt lat="45.31475" lon="5.47196">
        <ele>545.2</ele>
        <time>2022-04-28T11:17:05Z</time>
      </trkpt>
      <trkpt lat="45.31476" lon="5.47195">
        <ele>545.2</ele>
        <time>2022-04-28T11:17:06Z</time>
      </trkpt>
      <trkpt lat="45.31479" lon="5.47191">
        <ele>545.5</ele>
        <time>2022-04-28T11:17:07Z</time>
      </trkpt>
      <trkpt lat="45.3148" lon="5.4719">
        <ele>545.6</ele>
        <time>2022-04-28T11:17:08Z</time>
      </trkpt>
      <trkpt lat="45.31482" lon="5.47187">
        <ele>545.8</ele>
        <time>2022-04-28T11:17:09Z</time>
      </trkpt>
      <trkpt lat="45.31483" lon="5.47186">
        <ele>545.9</ele>
        <time>2022-04-28T11:17:10Z</time>
      </trkpt>
      <trkpt lat="45.31486" lon="5.47183">
        <ele>546.2</ele>
        <time>2022-04-28T11:17:11Z</time>
      </trkpt>
      <trkpt lat="45.31487" lon="5.47182">
        <ele>546.2</ele>
        <time>2022-04-28T11:17:12Z</time>
      </trkpt>
      <trkpt lat="45.31489" lon="5.47178">
        <ele>546.4</ele>
        <time>2022-04-28T11:17:13Z</time>
      </trkpt>
      <trkpt lat="45.3149" lon="5.47176">
        <ele>546.5</ele>
        <time>2022-04-28T11:17:14Z</time>
      </trkpt>
      <trkpt lat="45.31493" lon="5.4717">
        <ele>546.8</ele>
        <time>2022-04-28T11:17:16Z</time>
      </trkpt>
      <trkpt lat="45.31495" lon="5.47166">
        <ele>547</ele>
        <time>2022-04-28T11:17:17Z</time>
      </trkpt>
      <trkpt lat="45.31496" lon="5.47165">
        <ele>547.1</ele>
        <time>2022-04-28T11:17:18Z</time>
      </trkpt>
      <trkpt lat="45.31498" lon="5.47161">
        <ele>547.3</ele>
        <time>2022-04-28T11:17:19Z</time>
      </trkpt>
      <trkpt lat="45.31499" lon="5.4716">
        <ele>547.4</ele>
        <time>2022-04-28T11:17:20Z</time>
      </trkpt>
      <trkpt lat="45.31501" lon="5.47156">
        <ele>547.6</ele>
        <time>2022-04-28T11:17:21Z</time>
      </trkpt>
      <trkpt lat="45.31502" lon="5.47155">
        <ele>547.6</ele>
        <time>2022-04-28T11:17:22Z</time>
      </trkpt>
      <trkpt lat="45.31504" lon="5.47152">
        <ele>547.8</ele>
        <time>2022-04-28T11:17:23Z</time>
      </trkpt>
      <trkpt lat="45.31505" lon="5.47151">
        <ele>547.9</ele>
        <time>2022-04-28T11:17:24Z</time>
      </trkpt>
      <trkpt lat="45.31507" lon="5.47147">
        <ele>548.1</ele>
        <time>2022-04-28T11:17:25Z</time>
      </trkpt>
      <trkpt lat="45.31508" lon="5.47146">
        <ele>548.2</ele>
        <time>2022-04-28T11:17:26Z</time>
      </trkpt>
      <trkpt lat="45.31511" lon="5.47142">
        <ele>548.4</ele>
        <time>2022-04-28T11:17:27Z</time>
      </trkpt>
      <trkpt lat="45.31511" lon="5.47141">
        <ele>548.4</ele>
        <time>2022-04-28T11:17:28Z</time>
      </trkpt>
      <trkpt lat="45.31514" lon="5.47137">
        <ele>548.7</ele>
        <time>2022-04-28T11:17:29Z</time>
      </trkpt>
      <trkpt lat="45.31515" lon="5.47135">
        <ele>548.7</ele>
        <time>2022-04-28T11:17:30Z</time>
      </trkpt>
      <trkpt lat="45.31518" lon="5.47131">
        <ele>549</ele>
        <time>2022-04-28T11:17:32Z</time>
      </trkpt>
      <trkpt lat="45.31521" lon="5.47128">
        <ele>549.2</ele>
        <time>2022-04-28T11:17:33Z</time>
      </trkpt>
      <trkpt lat="45.31524" lon="5.47125">
        <ele>549.4</ele>
        <time>2022-04-28T11:17:34Z</time>
      </trkpt>
      <trkpt lat="45.31525" lon="5.47124">
        <ele>549.5</ele>
        <time>2022-04-28T11:17:35Z</time>
      </trkpt>
      <trkpt lat="45.31528" lon="5.47121">
        <ele>549.7</ele>
        <time>2022-04-28T11:17:36Z</time>
      </trkpt>
      <trkpt lat="45.31529" lon="5.4712">
        <ele>549.8</ele>
        <time>2022-04-28T11:17:37Z</time>
      </trkpt>
      <trkpt lat="45.31531" lon="5.47117">
        <ele>549.9</ele>
        <time>2022-04-28T11:17:38Z</time>
      </trkpt>
      <trkpt lat="45.31534" lon="5.47115">
        <ele>550.1</ele>
        <time>2022-04-28T11:17:39Z</time>
      </trkpt>
      <trkpt lat="45.31537" lon="5.47112">
        <ele>550.3</ele>
        <time>2022-04-28T11:17:40Z</time>
      </trkpt>
      <trkpt lat="45.31539" lon="5.47112">
        <ele>550.4</ele>
        <time>2022-04-28T11:17:41Z</time>
      </trkpt>
      <trkpt lat="45.31541" lon="5.4711">
        <ele>550.6</ele>
        <time>2022-04-28T11:17:42Z</time>
      </trkpt>
      <trkpt lat="45.31545" lon="5.47108">
        <ele>550.8</ele>
        <time>2022-04-28T11:17:43Z</time>
      </trkpt>
      <trkpt lat="45.31546" lon="5.47108">
        <ele>550.9</ele>
        <time>2022-04-28T11:17:44Z</time>
      </trkpt>
      <trkpt lat="45.31549" lon="5.47105">
        <ele>551.1</ele>
        <time>2022-04-28T11:17:45Z</time>
      </trkpt>
      <trkpt lat="45.3155" lon="5.47104">
        <ele>551.1</ele>
        <time>2022-04-28T11:17:46Z</time>
      </trkpt>
      <trkpt lat="45.31554" lon="5.47102">
        <ele>551.4</ele>
        <time>2022-04-28T11:17:47Z</time>
      </trkpt>
      <trkpt lat="45.31555" lon="5.47101">
        <ele>551.4</ele>
        <time>2022-04-28T11:17:48Z</time>
      </trkpt>
      <trkpt lat="45.31559" lon="5.47099">
        <ele>551.7</ele>
        <time>2022-04-28T11:17:49Z</time>
      </trkpt>
      <trkpt lat="45.3156" lon="5.47098">
        <ele>551.7</ele>
        <time>2022-04-28T11:17:50Z</time>
      </trkpt>
      <trkpt lat="45.31563" lon="5.47096">
        <ele>551.9</ele>
        <time>2022-04-28T11:17:51Z</time>
      </trkpt>
      <trkpt lat="45.31564" lon="5.47095">
        <ele>552</ele>
        <time>2022-04-28T11:17:52Z</time>
      </trkpt>
      <trkpt lat="45.31567" lon="5.47093">
        <ele>552.2</ele>
        <time>2022-04-28T11:17:53Z</time>
      </trkpt>
      <trkpt lat="45.3157" lon="5.4709">
        <ele>552.4</ele>
        <time>2022-04-28T11:17:54Z</time>
      </trkpt>
      <trkpt lat="45.31571" lon="5.47089">
        <ele>552.4</ele>
        <time>2022-04-28T11:17:55Z</time>
      </trkpt>
      <trkpt lat="45.31574" lon="5.47086">
        <ele>552.6</ele>
        <time>2022-04-28T11:17:56Z</time>
      </trkpt>
      <trkpt lat="45.31575" lon="5.47084">
        <ele>552.7</ele>
        <time>2022-04-28T11:17:57Z</time>
      </trkpt>
      <trkpt lat="45.31578" lon="5.47081">
        <ele>552.9</ele>
        <time>2022-04-28T11:17:58Z</time>
      </trkpt>
      <trkpt lat="45.31579" lon="5.4708">
        <ele>553</ele>
        <time>2022-04-28T11:17:59Z</time>
      </trkpt>
      <trkpt lat="45.31581" lon="5.47077">
        <ele>553.2</ele>
        <time>2022-04-28T11:18:00Z</time>
      </trkpt>
      <trkpt lat="45.31582" lon="5.47075">
        <ele>553.3</ele>
        <time>2022-04-28T11:18:01Z</time>
      </trkpt>
      <trkpt lat="45.31585" lon="5.47072">
        <ele>553.4</ele>
        <time>2022-04-28T11:18:02Z</time>
      </trkpt>
      <trkpt lat="45.31586" lon="5.47071">
        <ele>553.5</ele>
        <time>2022-04-28T11:18:03Z</time>
      </trkpt>
      <trkpt lat="45.31587" lon="5.47068">
        <ele>553.7</ele>
        <time>2022-04-28T11:18:04Z</time>
      </trkpt>
      <trkpt lat="45.31592" lon="5.47063">
        <ele>554</ele>
        <time>2022-04-28T11:18:06Z</time>
      </trkpt>
      <trkpt lat="45.31594" lon="5.47059">
        <ele>554.2</ele>
        <time>2022-04-28T11:18:07Z</time>
      </trkpt>
      <trkpt lat="45.31595" lon="5.47058">
        <ele>554.3</ele>
        <time>2022-04-28T11:18:08Z</time>
      </trkpt>
      <trkpt lat="45.31597" lon="5.47055">
        <ele>554.4</ele>
        <time>2022-04-28T11:18:09Z</time>
      </trkpt>
      <trkpt lat="45.316" lon="5.4705">
        <ele>554.7</ele>
        <time>2022-04-28T11:18:11Z</time>
      </trkpt>
      <trkpt lat="45.31603" lon="5.47048">
        <ele>554.9</ele>
        <time>2022-04-28T11:18:12Z</time>
      </trkpt>
      <trkpt lat="45.31604" lon="5.47046">
        <ele>555</ele>
        <time>2022-04-28T11:18:13Z</time>
      </trkpt>
      <trkpt lat="45.31608" lon="5.47042">
        <ele>555.3</ele>
        <time>2022-04-28T11:18:15Z</time>
      </trkpt>
      <trkpt lat="45.31611" lon="5.4704">
        <ele>555.5</ele>
        <time>2022-04-28T11:18:16Z</time>
      </trkpt>
      <trkpt lat="45.31612" lon="5.47039">
        <ele>555.6</ele>
        <time>2022-04-28T11:18:17Z</time>
      </trkpt>
      <trkpt lat="45.31614" lon="5.47037">
        <ele>555.8</ele>
        <time>2022-04-28T11:18:18Z</time>
      </trkpt>
      <trkpt lat="45.31618" lon="5.47031">
        <ele>556.1</ele>
        <time>2022-04-28T11:18:20Z</time>
      </trkpt>
      <trkpt lat="45.3162" lon="5.47028">
        <ele>556.3</ele>
        <time>2022-04-28T11:18:21Z</time>
      </trkpt>
      <trkpt lat="45.31621" lon="5.47027">
        <ele>556.4</ele>
        <time>2022-04-28T11:18:22Z</time>
      </trkpt>
      <trkpt lat="45.31624" lon="5.47024">
        <ele>556.6</ele>
        <time>2022-04-28T11:18:23Z</time>
      </trkpt>
      <trkpt lat="45.31624" lon="5.47023">
        <ele>556.7</ele>
        <time>2022-04-28T11:18:24Z</time>
      </trkpt>
      <trkpt lat="45.31627" lon="5.4702">
        <ele>556.9</ele>
        <time>2022-04-28T11:18:25Z</time>
      </trkpt>
      <trkpt lat="45.31628" lon="5.47018">
        <ele>557</ele>
        <time>2022-04-28T11:18:26Z</time>
      </trkpt>
      <trkpt lat="45.3163" lon="5.47016">
        <ele>557.2</ele>
        <time>2022-04-28T11:18:27Z</time>
      </trkpt>
      <trkpt lat="45.31632" lon="5.47013">
        <ele>557.3</ele>
        <time>2022-04-28T11:18:28Z</time>
      </trkpt>
      <trkpt lat="45.31635" lon="5.47008">
        <ele>557.6</ele>
        <time>2022-04-28T11:18:30Z</time>
      </trkpt>
      <trkpt lat="45.31637" lon="5.47005">
        <ele>557.8</ele>
        <time>2022-04-28T11:18:31Z</time>
      </trkpt>
      <trkpt lat="45.3164" lon="5.46999">
        <ele>558.1</ele>
        <time>2022-04-28T11:18:33Z</time>
      </trkpt>
      <trkpt lat="45.31642" lon="5.46995">
        <ele>558.4</ele>
        <time>2022-04-28T11:18:34Z</time>
      </trkpt>
      <trkpt lat="45.31643" lon="5.46993">
        <ele>558.4</ele>
        <time>2022-04-28T11:18:35Z</time>
      </trkpt>
      <trkpt lat="45.31645" lon="5.46989">
        <ele>558.7</ele>
        <time>2022-04-28T11:18:36Z</time>
      </trkpt>
      <trkpt lat="45.31646" lon="5.46988">
        <ele>558.8</ele>
        <time>2022-04-28T11:18:37Z</time>
      </trkpt>
      <trkpt lat="45.31648" lon="5.46983">
        <ele>559</ele>
        <time>2022-04-28T11:18:38Z</time>
      </trkpt>
      <trkpt lat="45.31649" lon="5.46982">
        <ele>559.1</ele>
        <time>2022-04-28T11:18:39Z</time>
      </trkpt>
      <trkpt lat="45.31651" lon="5.46979">
        <ele>559.3</ele>
        <time>2022-04-28T11:18:40Z</time>
      </trkpt>
      <trkpt lat="45.31653" lon="5.46974">
        <ele>559.5</ele>
        <time>2022-04-28T11:18:41Z</time>
      </trkpt>
      <trkpt lat="45.31654" lon="5.46973">
        <ele>559.6</ele>
        <time>2022-04-28T11:18:42Z</time>
      </trkpt>
      <trkpt lat="45.31656" lon="5.46969">
        <ele>559.8</ele>
        <time>2022-04-28T11:18:43Z</time>
      </trkpt>
      <trkpt lat="45.31657" lon="5.46968">
        <ele>559.9</ele>
        <time>2022-04-28T11:18:44Z</time>
      </trkpt>
      <trkpt lat="45.31659" lon="5.46963">
        <ele>560.2</ele>
        <time>2022-04-28T11:18:45Z</time>
      </trkpt>
      <trkpt lat="45.3166" lon="5.46962">
        <ele>560.3</ele>
        <time>2022-04-28T11:18:46Z</time>
      </trkpt>
      <trkpt lat="45.31662" lon="5.46958">
        <ele>560.5</ele>
        <time>2022-04-28T11:18:47Z</time>
      </trkpt>
      <trkpt lat="45.31663" lon="5.46957">
        <ele>560.6</ele>
        <time>2022-04-28T11:18:48Z</time>
      </trkpt>
      <trkpt lat="45.31665" lon="5.46954">
        <ele>560.8</ele>
        <time>2022-04-28T11:18:49Z</time>
      </trkpt>
      <trkpt lat="45.31668" lon="5.4695">
        <ele>561.1</ele>
        <time>2022-04-28T11:18:50Z</time>
      </trkpt>
      <trkpt lat="45.31669" lon="5.46949">
        <ele>561.2</ele>
        <time>2022-04-28T11:18:51Z</time>
      </trkpt>
      <trkpt lat="45.31671" lon="5.46946">
        <ele>561.5</ele>
        <time>2022-04-28T11:18:52Z</time>
      </trkpt>
      <trkpt lat="45.31672" lon="5.46945">
        <ele>561.6</ele>
        <time>2022-04-28T11:18:53Z</time>
      </trkpt>
      <trkpt lat="45.31675" lon="5.46943">
        <ele>561.8</ele>
        <time>2022-04-28T11:18:54Z</time>
      </trkpt>
      <trkpt lat="45.31676" lon="5.46942">
        <ele>561.9</ele>
        <time>2022-04-28T11:18:55Z</time>
      </trkpt>
      <trkpt lat="45.31679" lon="5.4694">
        <ele>562.1</ele>
        <time>2022-04-28T11:18:56Z</time>
      </trkpt>
      <trkpt lat="45.3168" lon="5.4694">
        <ele>562.2</ele>
        <time>2022-04-28T11:18:57Z</time>
      </trkpt>
      <trkpt lat="45.31684" lon="5.46938">
        <ele>562.5</ele>
        <time>2022-04-28T11:18:58Z</time>
      </trkpt>
      <trkpt lat="45.31685" lon="5.46937">
        <ele>562.6</ele>
        <time>2022-04-28T11:18:59Z</time>
      </trkpt>
      <trkpt lat="45.31688" lon="5.46934">
        <ele>562.8</ele>
        <time>2022-04-28T11:19:00Z</time>
      </trkpt>
      <trkpt lat="45.31689" lon="5.46933">
        <ele>562.9</ele>
        <time>2022-04-28T11:19:01Z</time>
      </trkpt>
      <trkpt lat="45.31691" lon="5.46932">
        <ele>563.1</ele>
        <time>2022-04-28T11:19:02Z</time>
      </trkpt>
      <trkpt lat="45.31694" lon="5.46931">
        <ele>563.3</ele>
        <time>2022-04-28T11:19:04Z</time>
      </trkpt>
      <trkpt lat="45.31697" lon="5.46929">
        <ele>563.5</ele>
        <time>2022-04-28T11:19:05Z</time>
      </trkpt>
      <trkpt lat="45.317" lon="5.46927">
        <ele>563.7</ele>
        <time>2022-04-28T11:19:06Z</time>
      </trkpt>
      <trkpt lat="45.31703" lon="5.46926">
        <ele>563.9</ele>
        <time>2022-04-28T11:19:07Z</time>
      </trkpt>
      <trkpt lat="45.31707" lon="5.46924">
        <ele>564.2</ele>
        <time>2022-04-28T11:19:08Z</time>
      </trkpt>
      <trkpt lat="45.31708" lon="5.46924">
        <ele>564.2</ele>
        <time>2022-04-28T11:19:09Z</time>
      </trkpt>
      <trkpt lat="45.31711" lon="5.46923">
        <ele>564.4</ele>
        <time>2022-04-28T11:19:10Z</time>
      </trkpt>
      <trkpt lat="45.31716" lon="5.46921">
        <ele>564.7</ele>
        <time>2022-04-28T11:19:12Z</time>
      </trkpt>
      <trkpt lat="45.3172" lon="5.4692">
        <ele>565</ele>
        <time>2022-04-28T11:19:13Z</time>
      </trkpt>
      <trkpt lat="45.31721" lon="5.4692">
        <ele>565.1</ele>
        <time>2022-04-28T11:19:14Z</time>
      </trkpt>
      <trkpt lat="45.31725" lon="5.46919">
        <ele>565.3</ele>
        <time>2022-04-28T11:19:15Z</time>
      </trkpt>
      <trkpt lat="45.31727" lon="5.46919">
        <ele>565.4</ele>
        <time>2022-04-28T11:19:16Z</time>
      </trkpt>
      <trkpt lat="45.31731" lon="5.4692">
        <ele>565.6</ele>
        <time>2022-04-28T11:19:17Z</time>
      </trkpt>
      <trkpt lat="45.31732" lon="5.4692">
        <ele>565.7</ele>
        <time>2022-04-28T11:19:18Z</time>
      </trkpt>
      <trkpt lat="45.31735" lon="5.4692">
        <ele>565.9</ele>
        <time>2022-04-28T11:19:19Z</time>
      </trkpt>
      <trkpt lat="45.31738" lon="5.46921">
        <ele>566.1</ele>
        <time>2022-04-28T11:19:20Z</time>
      </trkpt>
      <trkpt lat="45.31741" lon="5.46921">
        <ele>566.2</ele>
        <time>2022-04-28T11:19:21Z</time>
      </trkpt>
      <trkpt lat="45.31744" lon="5.46923">
        <ele>566.4</ele>
        <time>2022-04-28T11:19:22Z</time>
      </trkpt>
      <trkpt lat="45.31749" lon="5.46925">
        <ele>566.7</ele>
        <time>2022-04-28T11:19:24Z</time>
      </trkpt>
      <trkpt lat="45.31752" lon="5.46926">
        <ele>566.9</ele>
        <time>2022-04-28T11:19:25Z</time>
      </trkpt>
      <trkpt lat="45.31755" lon="5.46927">
        <ele>567.1</ele>
        <time>2022-04-28T11:19:26Z</time>
      </trkpt>
      <trkpt lat="45.31758" lon="5.46928">
        <ele>567.2</ele>
        <time>2022-04-28T11:19:27Z</time>
      </trkpt>
      <trkpt lat="45.31761" lon="5.4693">
        <ele>567.4</ele>
        <time>2022-04-28T11:19:28Z</time>
      </trkpt>
      <trkpt lat="45.31764" lon="5.46931">
        <ele>567.6</ele>
        <time>2022-04-28T11:19:29Z</time>
      </trkpt>
      <trkpt lat="45.31766" lon="5.46932">
        <ele>567.7</ele>
        <time>2022-04-28T11:19:30Z</time>
      </trkpt>
      <trkpt lat="45.3177" lon="5.46933">
        <ele>567.9</ele>
        <time>2022-04-28T11:19:31Z</time>
      </trkpt>
      <trkpt lat="45.31771" lon="5.46934">
        <ele>568</ele>
        <time>2022-04-28T11:19:32Z</time>
      </trkpt>
      <trkpt lat="45.31774" lon="5.46935">
        <ele>568.2</ele>
        <time>2022-04-28T11:19:33Z</time>
      </trkpt>
      <trkpt lat="45.31779" lon="5.46935">
        <ele>568.5</ele>
        <time>2022-04-28T11:19:35Z</time>
      </trkpt>
      <trkpt lat="45.31783" lon="5.46937">
        <ele>568.7</ele>
        <time>2022-04-28T11:19:36Z</time>
      </trkpt>
      <trkpt lat="45.31784" lon="5.46937">
        <ele>568.8</ele>
        <time>2022-04-28T11:19:37Z</time>
      </trkpt>
      <trkpt lat="45.31787" lon="5.46939">
        <ele>569</ele>
        <time>2022-04-28T11:19:39Z</time>
      </trkpt>
      <trkpt lat="45.31791" lon="5.4694">
        <ele>569.2</ele>
        <time>2022-04-28T11:19:40Z</time>
      </trkpt>
      <trkpt lat="45.31795" lon="5.4694">
        <ele>569.5</ele>
        <time>2022-04-28T11:19:41Z</time>
      </trkpt>
      <trkpt lat="45.31796" lon="5.4694">
        <ele>569.6</ele>
        <time>2022-04-28T11:19:42Z</time>
      </trkpt>
      <trkpt lat="45.318" lon="5.46941">
        <ele>569.8</ele>
        <time>2022-04-28T11:19:43Z</time>
      </trkpt>
      <trkpt lat="45.31802" lon="5.46941">
        <ele>569.9</ele>
        <time>2022-04-28T11:19:44Z</time>
      </trkpt>
      <trkpt lat="45.31804" lon="5.46941">
        <ele>570.1</ele>
        <time>2022-04-28T11:19:45Z</time>
      </trkpt>
      <trkpt lat="45.31807" lon="5.46941">
        <ele>570.3</ele>
        <time>2022-04-28T11:19:46Z</time>
      </trkpt>
      <trkpt lat="45.3181" lon="5.46941">
        <ele>570.4</ele>
        <time>2022-04-28T11:19:47Z</time>
      </trkpt>
      <trkpt lat="45.31814" lon="5.46941">
        <ele>570.7</ele>
        <time>2022-04-28T11:19:48Z</time>
      </trkpt>
      <trkpt lat="45.31816" lon="5.46941">
        <ele>570.8</ele>
        <time>2022-04-28T11:19:49Z</time>
      </trkpt>
      <trkpt lat="45.31819" lon="5.46941">
        <ele>571</ele>
        <time>2022-04-28T11:19:50Z</time>
      </trkpt>
      <trkpt lat="45.31822" lon="5.46941">
        <ele>571.1</ele>
        <time>2022-04-28T11:19:51Z</time>
      </trkpt>
      <trkpt lat="45.31824" lon="5.46941">
        <ele>571.3</ele>
        <time>2022-04-28T11:19:52Z</time>
      </trkpt>
      <trkpt lat="45.31827" lon="5.4694">
        <ele>571.5</ele>
        <time>2022-04-28T11:19:53Z</time>
      </trkpt>
      <trkpt lat="45.31831" lon="5.46939">
        <ele>571.7</ele>
        <time>2022-04-28T11:19:54Z</time>
      </trkpt>
      <trkpt lat="45.31832" lon="5.46939">
        <ele>571.8</ele>
        <time>2022-04-28T11:19:55Z</time>
      </trkpt>
      <trkpt lat="45.31835" lon="5.46938">
        <ele>572</ele>
        <time>2022-04-28T11:19:56Z</time>
      </trkpt>
      <trkpt lat="45.31839" lon="5.46935">
        <ele>572.1</ele>
        <time>2022-04-28T11:19:57Z</time>
      </trkpt>
      <trkpt lat="45.3184" lon="5.46935">
        <ele>572.2</ele>
        <time>2022-04-28T11:19:58Z</time>
      </trkpt>
      <trkpt lat="45.31843" lon="5.46932">
        <ele>572.5</ele>
        <time>2022-04-28T11:19:59Z</time>
      </trkpt>
      <trkpt lat="45.31845" lon="5.46931">
        <ele>572.6</ele>
        <time>2022-04-28T11:20:00Z</time>
      </trkpt>
      <trkpt lat="45.31847" lon="5.46928">
        <ele>572.8</ele>
        <time>2022-04-28T11:20:01Z</time>
      </trkpt>
      <trkpt lat="45.31849" lon="5.46925">
        <ele>573</ele>
        <time>2022-04-28T11:20:02Z</time>
      </trkpt>
      <trkpt lat="45.31852" lon="5.46922">
        <ele>573.2</ele>
        <time>2022-04-28T11:20:03Z</time>
      </trkpt>
      <trkpt lat="45.31853" lon="5.46921">
        <ele>573.3</ele>
        <time>2022-04-28T11:20:04Z</time>
      </trkpt>
      <trkpt lat="45.31855" lon="5.46918">
        <ele>573.5</ele>
        <time>2022-04-28T11:20:05Z</time>
      </trkpt>
      <trkpt lat="45.31858" lon="5.46915">
        <ele>573.8</ele>
        <time>2022-04-28T11:20:06Z</time>
      </trkpt>
      <trkpt lat="45.31862" lon="5.46911">
        <ele>574.1</ele>
        <time>2022-04-28T11:20:08Z</time>
      </trkpt>
      <trkpt lat="45.31865" lon="5.46907">
        <ele>574.4</ele>
        <time>2022-04-28T11:20:09Z</time>
      </trkpt>
      <trkpt lat="45.31868" lon="5.46904">
        <ele>574.7</ele>
        <time>2022-04-28T11:20:11Z</time>
      </trkpt>
      <trkpt lat="45.3187" lon="5.46901">
        <ele>574.8</ele>
        <time>2022-04-28T11:20:12Z</time>
      </trkpt>
      <trkpt lat="45.31871" lon="5.469">
        <ele>574.9</ele>
        <time>2022-04-28T11:20:13Z</time>
      </trkpt>
      <trkpt lat="45.31873" lon="5.46899">
        <ele>575.1</ele>
        <time>2022-04-28T11:20:14Z</time>
      </trkpt>
      <trkpt lat="45.31874" lon="5.46896">
        <ele>575.2</ele>
        <time>2022-04-28T11:20:15Z</time>
      </trkpt>
      <trkpt lat="45.31877" lon="5.46889">
        <ele>575.6</ele>
        <time>2022-04-28T11:20:17Z</time>
      </trkpt>
      <trkpt lat="45.31879" lon="5.46884">
        <ele>575.9</ele>
        <time>2022-04-28T11:20:19Z</time>
      </trkpt>
      <trkpt lat="45.31882" lon="5.4688">
        <ele>576.1</ele>
        <time>2022-04-28T11:20:20Z</time>
      </trkpt>
      <trkpt lat="45.31883" lon="5.46879">
        <ele>576.2</ele>
        <time>2022-04-28T11:20:21Z</time>
      </trkpt>
      <trkpt lat="45.31885" lon="5.46875">
        <ele>576.4</ele>
        <time>2022-04-28T11:20:22Z</time>
      </trkpt>
      <trkpt lat="45.31885" lon="5.46874">
        <ele>576.4</ele>
        <time>2022-04-28T11:20:23Z</time>
      </trkpt>
      <trkpt lat="45.31888" lon="5.46869">
        <ele>576.7</ele>
        <time>2022-04-28T11:20:25Z</time>
      </trkpt>
      <trkpt lat="45.31889" lon="5.46865">
        <ele>576.8</ele>
        <time>2022-04-28T11:20:26Z</time>
      </trkpt>
      <trkpt lat="45.31891" lon="5.46862">
        <ele>577</ele>
        <time>2022-04-28T11:20:27Z</time>
      </trkpt>
      <trkpt lat="45.31893" lon="5.46859">
        <ele>577.1</ele>
        <time>2022-04-28T11:20:28Z</time>
      </trkpt>
      <trkpt lat="45.31895" lon="5.46854">
        <ele>577.3</ele>
        <time>2022-04-28T11:20:29Z</time>
      </trkpt>
      <trkpt lat="45.31896" lon="5.46851">
        <ele>577.4</ele>
        <time>2022-04-28T11:20:30Z</time>
      </trkpt>
      <trkpt lat="45.31898" lon="5.46849">
        <ele>577.3</ele>
        <time>2022-04-28T11:20:31Z</time>
      </trkpt>
      <trkpt lat="45.31901" lon="5.46845">
        <ele>577.2</ele>
        <time>2022-04-28T11:20:32Z</time>
      </trkpt>
      <trkpt lat="45.31901" lon="5.46843">
        <ele>577.1</ele>
        <time>2022-04-28T11:20:33Z</time>
      </trkpt>
      <trkpt lat="45.31903" lon="5.46839">
        <ele>577</ele>
        <time>2022-04-28T11:20:34Z</time>
      </trkpt>
      <trkpt lat="45.31903" lon="5.46837">
        <ele>577</ele>
        <time>2022-04-28T11:20:35Z</time>
      </trkpt>
      <trkpt lat="45.31903" lon="5.46836">
        <ele>576.9</ele>
        <time>2022-04-28T11:20:36Z</time>
      </trkpt>
      <trkpt lat="45.31903" lon="5.46836">
        <ele>576.9</ele>
        <time>2022-04-28T11:20:37Z</time>
      </trkpt>
      <trkpt lat="45.31903" lon="5.46836">
        <ele>576.9</ele>
        <time>2022-04-28T11:20:38Z</time>
      </trkpt>
      <trkpt lat="45.31902" lon="5.46836">
        <ele>576.9</ele>
        <time>2022-04-28T11:20:39Z</time>
      </trkpt>
      <trkpt lat="45.31902" lon="5.46837">
        <ele>576.9</ele>
        <time>2022-04-28T11:20:40Z</time>
      </trkpt>
      <trkpt lat="45.31901" lon="5.46837">
        <ele>576.9</ele>
        <time>2022-04-28T11:20:41Z</time>
      </trkpt>
      <trkpt lat="45.31901" lon="5.46837">
        <ele>576.8</ele>
        <time>2022-04-28T11:20:42Z</time>
      </trkpt>
      <trkpt lat="45.31901" lon="5.46837">
        <ele>576.8</ele>
        <time>2022-04-28T11:20:43Z</time>
      </trkpt>
      <trkpt lat="45.319" lon="5.46837">
        <ele>576.8</ele>
        <time>2022-04-28T11:20:44Z</time>
      </trkpt>
      <trkpt lat="45.319" lon="5.46837">
        <ele>576.8</ele>
        <time>2022-04-28T11:20:45Z</time>
      </trkpt>
      <trkpt lat="45.31899" lon="5.46837">
        <ele>576.8</ele>
        <time>2022-04-28T11:20:46Z</time>
      </trkpt>
      <trkpt lat="45.31899" lon="5.46838">
        <ele>576.8</ele>
        <time>2022-04-28T11:21:36Z</time>
      </trkpt>
      <trkpt lat="45.31898" lon="5.46838">
        <ele>576.7</ele>
        <time>2022-04-28T11:21:37Z</time>
      </trkpt>
      <trkpt lat="45.31898" lon="5.46838">
        <ele>576.7</ele>
        <time>2022-04-28T11:21:38Z</time>
      </trkpt>
      <trkpt lat="45.31898" lon="5.46838">
        <ele>576.7</ele>
        <time>2022-04-28T11:21:39Z</time>
      </trkpt>
      <trkpt lat="45.31895" lon="5.4684">
        <ele>576.6</ele>
        <time>2022-04-28T11:21:41Z</time>
      </trkpt>
      <trkpt lat="45.31894" lon="5.46842">
        <ele>576.5</ele>
        <time>2022-04-28T11:21:42Z</time>
      </trkpt>
      <trkpt lat="45.31893" lon="5.46845">
        <ele>576.4</ele>
        <time>2022-04-28T11:21:43Z</time>
      </trkpt>
      <trkpt lat="45.31891" lon="5.46851">
        <ele>576.2</ele>
        <time>2022-04-28T11:21:45Z</time>
      </trkpt>
      <trkpt lat="45.3189" lon="5.46857">
        <ele>576</ele>
        <time>2022-04-28T11:21:46Z</time>
      </trkpt>
      <trkpt lat="45.31888" lon="5.46861">
        <ele>575.9</ele>
        <time>2022-04-28T11:21:47Z</time>
      </trkpt>
      <trkpt lat="45.31886" lon="5.46868">
        <ele>575.6</ele>
        <time>2022-04-28T11:21:49Z</time>
      </trkpt>
      <trkpt lat="45.31881" lon="5.4688">
        <ele>575.1</ele>
        <time>2022-04-28T11:21:50Z</time>
      </trkpt>
      <trkpt lat="45.31879" lon="5.46884">
        <ele>574.9</ele>
        <time>2022-04-28T11:21:51Z</time>
      </trkpt>
      <trkpt lat="45.31875" lon="5.46889">
        <ele>574.7</ele>
        <time>2022-04-28T11:21:52Z</time>
      </trkpt>
      <trkpt lat="45.31872" lon="5.46896">
        <ele>574.4</ele>
        <time>2022-04-28T11:21:53Z</time>
      </trkpt>
      <trkpt lat="45.31869" lon="5.46901">
        <ele>574.1</ele>
        <time>2022-04-28T11:21:54Z</time>
      </trkpt>
      <trkpt lat="45.31866" lon="5.46905">
        <ele>573.9</ele>
        <time>2022-04-28T11:21:55Z</time>
      </trkpt>
      <trkpt lat="45.31862" lon="5.4691">
        <ele>573.6</ele>
        <time>2022-04-28T11:21:56Z</time>
      </trkpt>
      <trkpt lat="45.31859" lon="5.46914">
        <ele>573.4</ele>
        <time>2022-04-28T11:21:57Z</time>
      </trkpt>
      <trkpt lat="45.31856" lon="5.46917">
        <ele>573.2</ele>
        <time>2022-04-28T11:21:58Z</time>
      </trkpt>
      <trkpt lat="45.31851" lon="5.46922">
        <ele>572.9</ele>
        <time>2022-04-28T11:22:00Z</time>
      </trkpt>
      <trkpt lat="45.31848" lon="5.46924">
        <ele>572.7</ele>
        <time>2022-04-28T11:22:01Z</time>
      </trkpt>
      <trkpt lat="45.31845" lon="5.46926">
        <ele>572.6</ele>
        <time>2022-04-28T11:22:02Z</time>
      </trkpt>
      <trkpt lat="45.31842" lon="5.46927">
        <ele>572.4</ele>
        <time>2022-04-28T11:22:03Z</time>
      </trkpt>
      <trkpt lat="45.31839" lon="5.46929">
        <ele>572.3</ele>
        <time>2022-04-28T11:22:04Z</time>
      </trkpt>
      <trkpt lat="45.31835" lon="5.46931">
        <ele>572.1</ele>
        <time>2022-04-28T11:22:05Z</time>
      </trkpt>
      <trkpt lat="45.31831" lon="5.46931">
        <ele>571.9</ele>
        <time>2022-04-28T11:22:06Z</time>
      </trkpt>
      <trkpt lat="45.31824" lon="5.46932">
        <ele>571.6</ele>
        <time>2022-04-28T11:22:07Z</time>
      </trkpt>
      <trkpt lat="45.3182" lon="5.46933">
        <ele>571.5</ele>
        <time>2022-04-28T11:22:08Z</time>
      </trkpt>
      <trkpt lat="45.31812" lon="5.46937">
        <ele>571.2</ele>
        <time>2022-04-28T11:22:10Z</time>
      </trkpt>
      <trkpt lat="45.31806" lon="5.46937">
        <ele>570.9</ele>
        <time>2022-04-28T11:22:11Z</time>
      </trkpt>
      <trkpt lat="45.31802" lon="5.46938">
        <ele>570.8</ele>
        <time>2022-04-28T11:22:12Z</time>
      </trkpt>
      <trkpt lat="45.31798" lon="5.46935">
        <ele>570.6</ele>
        <time>2022-04-28T11:22:14Z</time>
      </trkpt>
      <trkpt lat="45.31794" lon="5.46934">
        <ele>570.5</ele>
        <time>2022-04-28T11:22:15Z</time>
      </trkpt>
      <trkpt lat="45.3179" lon="5.46935">
        <ele>570.3</ele>
        <time>2022-04-28T11:22:16Z</time>
      </trkpt>
      <trkpt lat="45.31789" lon="5.46935">
        <ele>570.3</ele>
        <time>2022-04-28T11:22:17Z</time>
      </trkpt>
      <trkpt lat="45.3179" lon="5.46936">
        <ele>570.3</ele>
        <time>2022-04-28T11:22:18Z</time>
      </trkpt>
      <trkpt lat="45.3179" lon="5.46936">
        <ele>570.2</ele>
        <time>2022-04-28T11:22:19Z</time>
      </trkpt>
      <trkpt lat="45.31791" lon="5.46937">
        <ele>570.2</ele>
        <time>2022-04-28T11:22:20Z</time>
      </trkpt>
      <trkpt lat="45.31791" lon="5.46937">
        <ele>570.2</ele>
        <time>2022-04-28T11:22:21Z</time>
      </trkpt>
      <trkpt lat="45.31792" lon="5.46938">
        <ele>570.2</ele>
        <time>2022-04-28T11:22:23Z</time>
      </trkpt>
      <trkpt lat="45.31792" lon="5.46938">
        <ele>570.1</ele>
        <time>2022-04-28T11:22:24Z</time>
      </trkpt>
      <trkpt lat="45.31792" lon="5.46938">
        <ele>570.1</ele>
        <time>2022-04-28T11:22:25Z</time>
      </trkpt>
      <trkpt lat="45.31793" lon="5.46939">
        <ele>570.1</ele>
        <time>2022-04-28T11:22:26Z</time>
      </trkpt>
      <trkpt lat="45.31793" lon="5.46939">
        <ele>570.1</ele>
        <time>2022-04-28T11:22:27Z</time>
      </trkpt>
      <trkpt lat="45.31794" lon="5.4694">
        <ele>570.1</ele>
        <time>2022-04-28T11:22:28Z</time>
      </trkpt>
      <trkpt lat="45.31794" lon="5.4694">
        <ele>570</ele>
        <time>2022-04-28T11:23:06Z</time>
      </trkpt>
      <trkpt lat="45.31795" lon="5.46941">
        <ele>570</ele>
        <time>2022-04-28T11:23:07Z</time>
      </trkpt>
      <trkpt lat="45.31798" lon="5.4694">
        <ele>569.9</ele>
        <time>2022-04-28T11:23:08Z</time>
      </trkpt>
      <trkpt lat="45.31799" lon="5.4694">
        <ele>569.8</ele>
        <time>2022-04-28T11:23:09Z</time>
      </trkpt>
      <trkpt lat="45.31803" lon="5.4694">
        <ele>570</ele>
        <time>2022-04-28T11:23:10Z</time>
      </trkpt>
      <trkpt lat="45.31804" lon="5.4694">
        <ele>570.1</ele>
        <time>2022-04-28T11:23:11Z</time>
      </trkpt>
      <trkpt lat="45.31808" lon="5.46939">
        <ele>570.4</ele>
        <time>2022-04-28T11:23:12Z</time>
      </trkpt>
      <trkpt lat="45.3181" lon="5.46939">
        <ele>570.5</ele>
        <time>2022-04-28T11:23:13Z</time>
      </trkpt>
      <trkpt lat="45.31815" lon="5.46939">
        <ele>570.8</ele>
        <time>2022-04-28T11:23:15Z</time>
      </trkpt>
      <trkpt lat="45.3182" lon="5.46939">
        <ele>571.1</ele>
        <time>2022-04-28T11:23:17Z</time>
      </trkpt>
      <trkpt lat="45.31824" lon="5.46938">
        <ele>571.3</ele>
        <time>2022-04-28T11:23:18Z</time>
      </trkpt>
      <trkpt lat="45.31825" lon="5.46938">
        <ele>571.4</ele>
        <time>2022-04-28T11:23:19Z</time>
      </trkpt>
      <trkpt lat="45.31829" lon="5.46937">
        <ele>571.6</ele>
        <time>2022-04-28T11:23:21Z</time>
      </trkpt>
      <trkpt lat="45.31833" lon="5.46936">
        <ele>571.9</ele>
        <time>2022-04-28T11:23:22Z</time>
      </trkpt>
      <trkpt lat="45.31836" lon="5.46935">
        <ele>572.1</ele>
        <time>2022-04-28T11:23:23Z</time>
      </trkpt>
      <trkpt lat="45.31839" lon="5.46933">
        <ele>572.2</ele>
        <time>2022-04-28T11:23:24Z</time>
      </trkpt>
      <trkpt lat="45.31841" lon="5.46932">
        <ele>572.3</ele>
        <time>2022-04-28T11:23:25Z</time>
      </trkpt>
      <trkpt lat="45.31844" lon="5.4693">
        <ele>572.5</ele>
        <time>2022-04-28T11:23:26Z</time>
      </trkpt>
      <trkpt lat="45.31845" lon="5.46929">
        <ele>572.6</ele>
        <time>2022-04-28T11:23:27Z</time>
      </trkpt>
      <trkpt lat="45.31847" lon="5.46927">
        <ele>572.8</ele>
        <time>2022-04-28T11:23:28Z</time>
      </trkpt>
      <trkpt lat="45.31848" lon="5.46926">
        <ele>572.8</ele>
        <time>2022-04-28T11:23:29Z</time>
      </trkpt>
      <trkpt lat="45.31851" lon="5.46923">
        <ele>573.1</ele>
        <time>2022-04-28T11:23:30Z</time>
      </trkpt>
      <trkpt lat="45.31852" lon="5.46922">
        <ele>573.2</ele>
        <time>2022-04-28T11:23:31Z</time>
      </trkpt>
      <trkpt lat="45.31855" lon="5.46919">
        <ele>573.4</ele>
        <time>2022-04-28T11:23:32Z</time>
      </trkpt>
      <trkpt lat="45.31856" lon="5.46918">
        <ele>573.5</ele>
        <time>2022-04-28T11:23:33Z</time>
      </trkpt>
      <trkpt lat="45.31858" lon="5.46915">
        <ele>573.7</ele>
        <time>2022-04-28T11:23:34Z</time>
      </trkpt>
      <trkpt lat="45.31859" lon="5.46914">
        <ele>573.8</ele>
        <time>2022-04-28T11:23:35Z</time>
      </trkpt>
      <trkpt lat="45.31862" lon="5.46911">
        <ele>574</ele>
        <time>2022-04-28T11:23:36Z</time>
      </trkpt>
      <trkpt lat="45.31863" lon="5.4691">
        <ele>574.1</ele>
        <time>2022-04-28T11:23:37Z</time>
      </trkpt>
      <trkpt lat="45.31865" lon="5.46907">
        <ele>574.3</ele>
        <time>2022-04-28T11:23:38Z</time>
      </trkpt>
      <trkpt lat="45.31866" lon="5.46906">
        <ele>574.4</ele>
        <time>2022-04-28T11:23:39Z</time>
      </trkpt>
      <trkpt lat="45.31869" lon="5.46903">
        <ele>574.7</ele>
        <time>2022-04-28T11:23:40Z</time>
      </trkpt>
      <trkpt lat="45.3187" lon="5.46901">
        <ele>574.8</ele>
        <time>2022-04-28T11:23:41Z</time>
      </trkpt>
      <trkpt lat="45.31873" lon="5.46898">
        <ele>575</ele>
        <time>2022-04-28T11:23:42Z</time>
      </trkpt>
      <trkpt lat="45.31873" lon="5.46897">
        <ele>575.1</ele>
        <time>2022-04-28T11:23:43Z</time>
      </trkpt>
      <trkpt lat="45.31876" lon="5.46893">
        <ele>575.4</ele>
        <time>2022-04-28T11:23:44Z</time>
      </trkpt>
      <trkpt lat="45.31877" lon="5.46891">
        <ele>575.5</ele>
        <time>2022-04-28T11:23:45Z</time>
      </trkpt>
      <trkpt lat="45.31878" lon="5.46888">
        <ele>575.6</ele>
        <time>2022-04-28T11:23:46Z</time>
      </trkpt>
      <trkpt lat="45.31881" lon="5.46883">
        <ele>575.9</ele>
        <time>2022-04-28T11:23:48Z</time>
      </trkpt>
      <trkpt lat="45.31882" lon="5.46879">
        <ele>576.1</ele>
        <time>2022-04-28T11:23:49Z</time>
      </trkpt>
      <trkpt lat="45.31883" lon="5.46877">
        <ele>576.2</ele>
        <time>2022-04-28T11:23:50Z</time>
      </trkpt>
      <trkpt lat="45.31885" lon="5.46874">
        <ele>576.4</ele>
        <time>2022-04-28T11:23:51Z</time>
      </trkpt>
      <trkpt lat="45.31885" lon="5.46873">
        <ele>576.4</ele>
        <time>2022-04-28T11:23:52Z</time>
      </trkpt>
      <trkpt lat="45.31888" lon="5.46869">
        <ele>576.7</ele>
        <time>2022-04-28T11:23:53Z</time>
      </trkpt>
      <trkpt lat="45.31889" lon="5.46868">
        <ele>576.7</ele>
        <time>2022-04-28T11:23:54Z</time>
      </trkpt>
      <trkpt lat="45.31891" lon="5.46864">
        <ele>576.9</ele>
        <time>2022-04-28T11:23:55Z</time>
      </trkpt>
      <trkpt lat="45.31891" lon="5.46862">
        <ele>577</ele>
        <time>2022-04-28T11:23:56Z</time>
      </trkpt>
      <trkpt lat="45.31894" lon="5.46858">
        <ele>577.1</ele>
        <time>2022-04-28T11:23:57Z</time>
      </trkpt>
      <trkpt lat="45.31894" lon="5.46857">
        <ele>577.2</ele>
        <time>2022-04-28T11:23:58Z</time>
      </trkpt>
      <trkpt lat="45.31896" lon="5.46853">
        <ele>577.4</ele>
        <time>2022-04-28T11:23:59Z</time>
      </trkpt>
      <trkpt lat="45.31897" lon="5.46851">
        <ele>577.4</ele>
        <time>2022-04-28T11:24:00Z</time>
      </trkpt>
      <trkpt lat="45.31898" lon="5.46847">
        <ele>577.5</ele>
        <time>2022-04-28T11:24:01Z</time>
      </trkpt>
      <trkpt lat="45.31901" lon="5.46843">
        <ele>577.6</ele>
        <time>2022-04-28T11:24:02Z</time>
      </trkpt>
      <trkpt lat="45.31903" lon="5.4684">
        <ele>577.6</ele>
        <time>2022-04-28T11:24:03Z</time>
      </trkpt>
      <trkpt lat="45.31905" lon="5.46836">
        <ele>577.6</ele>
        <time>2022-04-28T11:24:04Z</time>
      </trkpt>
      <trkpt lat="45.31906" lon="5.46832">
        <ele>577.6</ele>
        <time>2022-04-28T11:24:05Z</time>
      </trkpt>
      <trkpt lat="45.31907" lon="5.46829">
        <ele>577.6</ele>
        <time>2022-04-28T11:24:06Z</time>
      </trkpt>
      <trkpt lat="45.3191" lon="5.46824">
        <ele>577.5</ele>
        <time>2022-04-28T11:24:08Z</time>
      </trkpt>
      <trkpt lat="45.31912" lon="5.4682">
        <ele>577.5</ele>
        <time>2022-04-28T11:24:09Z</time>
      </trkpt>
      <trkpt lat="45.31913" lon="5.46816">
        <ele>577.5</ele>
        <time>2022-04-28T11:24:10Z</time>
      </trkpt>
      <trkpt lat="45.31916" lon="5.46812">
        <ele>577.5</ele>
        <time>2022-04-28T11:24:11Z</time>
      </trkpt>
      <trkpt lat="45.31918" lon="5.46808">
        <ele>577.4</ele>
        <time>2022-04-28T11:24:12Z</time>
      </trkpt>
      <trkpt lat="45.3192" lon="5.46804">
        <ele>577.4</ele>
        <time>2022-04-28T11:24:13Z</time>
      </trkpt>
      <trkpt lat="45.31923" lon="5.46799">
        <ele>577.3</ele>
        <time>2022-04-28T11:24:15Z</time>
      </trkpt>
      <trkpt lat="45.31927" lon="5.46794">
        <ele>577.3</ele>
        <time>2022-04-28T11:24:16Z</time>
      </trkpt>
      <trkpt lat="45.3193" lon="5.46788">
        <ele>577.2</ele>
        <time>2022-04-28T11:24:17Z</time>
      </trkpt>
      <trkpt lat="45.31933" lon="5.46782">
        <ele>577.2</ele>
        <time>2022-04-28T11:24:19Z</time>
      </trkpt>
      <trkpt lat="45.31936" lon="5.46777">
        <ele>577.1</ele>
        <time>2022-04-28T11:24:20Z</time>
      </trkpt>
      <trkpt lat="45.31939" lon="5.46774">
        <ele>577</ele>
        <time>2022-04-28T11:24:21Z</time>
      </trkpt>
      <trkpt lat="45.31941" lon="5.46769">
        <ele>577</ele>
        <time>2022-04-28T11:24:22Z</time>
      </trkpt>
      <trkpt lat="45.31944" lon="5.46765">
        <ele>576.9</ele>
        <time>2022-04-28T11:24:23Z</time>
      </trkpt>
      <trkpt lat="45.31948" lon="5.46761">
        <ele>576.8</ele>
        <time>2022-04-28T11:24:24Z</time>
      </trkpt>
      <trkpt lat="45.31952" lon="5.46757">
        <ele>576.8</ele>
        <time>2022-04-28T11:24:25Z</time>
      </trkpt>
      <trkpt lat="45.31954" lon="5.46752">
        <ele>576.7</ele>
        <time>2022-04-28T11:24:26Z</time>
      </trkpt>
      <trkpt lat="45.31957" lon="5.46749">
        <ele>576.6</ele>
        <time>2022-04-28T11:24:27Z</time>
      </trkpt>
      <trkpt lat="45.31963" lon="5.46742">
        <ele>576.5</ele>
        <time>2022-04-28T11:24:29Z</time>
      </trkpt>
      <trkpt lat="45.31967" lon="5.46738">
        <ele>576.4</ele>
        <time>2022-04-28T11:24:30Z</time>
      </trkpt>
      <trkpt lat="45.31971" lon="5.46734">
        <ele>576.3</ele>
        <time>2022-04-28T11:24:31Z</time>
      </trkpt>
      <trkpt lat="45.31976" lon="5.46728">
        <ele>576.2</ele>
        <time>2022-04-28T11:24:32Z</time>
      </trkpt>
      <trkpt lat="45.3198" lon="5.46724">
        <ele>576.1</ele>
        <time>2022-04-28T11:24:33Z</time>
      </trkpt>
      <trkpt lat="45.31983" lon="5.4672">
        <ele>576.1</ele>
        <time>2022-04-28T11:24:34Z</time>
      </trkpt>
      <trkpt lat="45.31987" lon="5.46715">
        <ele>576</ele>
        <time>2022-04-28T11:24:35Z</time>
      </trkpt>
      <trkpt lat="45.31991" lon="5.4671">
        <ele>576</ele>
        <time>2022-04-28T11:24:36Z</time>
      </trkpt>
      <trkpt lat="45.31994" lon="5.46704">
        <ele>576</ele>
        <time>2022-04-28T11:24:37Z</time>
      </trkpt>
      <trkpt lat="45.31997" lon="5.46699">
        <ele>575.9</ele>
        <time>2022-04-28T11:24:38Z</time>
      </trkpt>
      <trkpt lat="45.32001" lon="5.46693">
        <ele>575.9</ele>
        <time>2022-04-28T11:24:39Z</time>
      </trkpt>
      <trkpt lat="45.32004" lon="5.46687">
        <ele>575.9</ele>
        <time>2022-04-28T11:24:40Z</time>
      </trkpt>
      <trkpt lat="45.32007" lon="5.4668">
        <ele>575.8</ele>
        <time>2022-04-28T11:24:41Z</time>
      </trkpt>
      <trkpt lat="45.32009" lon="5.46672">
        <ele>575.8</ele>
        <time>2022-04-28T11:24:42Z</time>
      </trkpt>
      <trkpt lat="45.32012" lon="5.46664">
        <ele>575.8</ele>
        <time>2022-04-28T11:24:43Z</time>
      </trkpt>
      <trkpt lat="45.32013" lon="5.46655">
        <ele>575.7</ele>
        <time>2022-04-28T11:24:44Z</time>
      </trkpt>
      <trkpt lat="45.32014" lon="5.46647">
        <ele>575.7</ele>
        <time>2022-04-28T11:24:45Z</time>
      </trkpt>
      <trkpt lat="45.32015" lon="5.46639">
        <ele>575.6</ele>
        <time>2022-04-28T11:24:46Z</time>
      </trkpt>
      <trkpt lat="45.32016" lon="5.46631">
        <ele>575.6</ele>
        <time>2022-04-28T11:24:47Z</time>
      </trkpt>
      <trkpt lat="45.32018" lon="5.46623">
        <ele>575.6</ele>
        <time>2022-04-28T11:24:48Z</time>
      </trkpt>
      <trkpt lat="45.32018" lon="5.46614">
        <ele>575.5</ele>
        <time>2022-04-28T11:24:49Z</time>
      </trkpt>
      <trkpt lat="45.32019" lon="5.46605">
        <ele>575.5</ele>
        <time>2022-04-28T11:24:50Z</time>
      </trkpt>
      <trkpt lat="45.32019" lon="5.46595">
        <ele>575.5</ele>
        <time>2022-04-28T11:24:51Z</time>
      </trkpt>
      <trkpt lat="45.3202" lon="5.46586">
        <ele>575.4</ele>
        <time>2022-04-28T11:24:52Z</time>
      </trkpt>
      <trkpt lat="45.3202" lon="5.46576">
        <ele>575.4</ele>
        <time>2022-04-28T11:24:53Z</time>
      </trkpt>
      <trkpt lat="45.3202" lon="5.46567">
        <ele>575.4</ele>
        <time>2022-04-28T11:24:54Z</time>
      </trkpt>
      <trkpt lat="45.3202" lon="5.46558">
        <ele>575.3</ele>
        <time>2022-04-28T11:24:55Z</time>
      </trkpt>
      <trkpt lat="45.32019" lon="5.46549">
        <ele>575.2</ele>
        <time>2022-04-28T11:24:56Z</time>
      </trkpt>
      <trkpt lat="45.32018" lon="5.4654">
        <ele>575.1</ele>
        <time>2022-04-28T11:24:57Z</time>
      </trkpt>
      <trkpt lat="45.32018" lon="5.46531">
        <ele>575</ele>
        <time>2022-04-28T11:24:58Z</time>
      </trkpt>
      <trkpt lat="45.32018" lon="5.46522">
        <ele>574.9</ele>
        <time>2022-04-28T11:24:59Z</time>
      </trkpt>
      <trkpt lat="45.32018" lon="5.46514">
        <ele>574.9</ele>
        <time>2022-04-28T11:25:00Z</time>
      </trkpt>
      <trkpt lat="45.32019" lon="5.46505">
        <ele>574.8</ele>
        <time>2022-04-28T11:25:01Z</time>
      </trkpt>
      <trkpt lat="45.3202" lon="5.46496">
        <ele>574.7</ele>
        <time>2022-04-28T11:25:02Z</time>
      </trkpt>
      <trkpt lat="45.32021" lon="5.46486">
        <ele>574.6</ele>
        <time>2022-04-28T11:25:03Z</time>
      </trkpt>
      <trkpt lat="45.32023" lon="5.46476">
        <ele>574.5</ele>
        <time>2022-04-28T11:25:04Z</time>
      </trkpt>
      <trkpt lat="45.32025" lon="5.46467">
        <ele>574.4</ele>
        <time>2022-04-28T11:25:05Z</time>
      </trkpt>
      <trkpt lat="45.32027" lon="5.46459">
        <ele>574.3</ele>
        <time>2022-04-28T11:25:06Z</time>
      </trkpt>
      <trkpt lat="45.3203" lon="5.46449">
        <ele>574.1</ele>
        <time>2022-04-28T11:25:07Z</time>
      </trkpt>
      <trkpt lat="45.32033" lon="5.4644">
        <ele>574</ele>
        <time>2022-04-28T11:25:08Z</time>
      </trkpt>
      <trkpt lat="45.32036" lon="5.46431">
        <ele>573.8</ele>
        <time>2022-04-28T11:25:09Z</time>
      </trkpt>
      <trkpt lat="45.3204" lon="5.46423">
        <ele>573.6</ele>
        <time>2022-04-28T11:25:10Z</time>
      </trkpt>
      <trkpt lat="45.32044" lon="5.46415">
        <ele>573.3</ele>
        <time>2022-04-28T11:25:11Z</time>
      </trkpt>
      <trkpt lat="45.32048" lon="5.46406">
        <ele>573</ele>
        <time>2022-04-28T11:25:12Z</time>
      </trkpt>
      <trkpt lat="45.32053" lon="5.46398">
        <ele>572.7</ele>
        <time>2022-04-28T11:25:13Z</time>
      </trkpt>
      <trkpt lat="45.32057" lon="5.46388">
        <ele>572.4</ele>
        <time>2022-04-28T11:25:14Z</time>
      </trkpt>
      <trkpt lat="45.32061" lon="5.46379">
        <ele>572.1</ele>
        <time>2022-04-28T11:25:15Z</time>
      </trkpt>
      <trkpt lat="45.32065" lon="5.46369">
        <ele>571.9</ele>
        <time>2022-04-28T11:25:16Z</time>
      </trkpt>
      <trkpt lat="45.32069" lon="5.46359">
        <ele>571.6</ele>
        <time>2022-04-28T11:25:17Z</time>
      </trkpt>
      <trkpt lat="45.32074" lon="5.46349">
        <ele>571.3</ele>
        <time>2022-04-28T11:25:18Z</time>
      </trkpt>
      <trkpt lat="45.32078" lon="5.4634">
        <ele>571</ele>
        <time>2022-04-28T11:25:19Z</time>
      </trkpt>
      <trkpt lat="45.32083" lon="5.46331">
        <ele>570.7</ele>
        <time>2022-04-28T11:25:20Z</time>
      </trkpt>
      <trkpt lat="45.32088" lon="5.46321">
        <ele>570.4</ele>
        <time>2022-04-28T11:25:21Z</time>
      </trkpt>
      <trkpt lat="45.32094" lon="5.46314">
        <ele>570.2</ele>
        <time>2022-04-28T11:25:22Z</time>
      </trkpt>
      <trkpt lat="45.321" lon="5.46306">
        <ele>569.8</ele>
        <time>2022-04-28T11:25:23Z</time>
      </trkpt>
      <trkpt lat="45.32105" lon="5.46298">
        <ele>569.5</ele>
        <time>2022-04-28T11:25:24Z</time>
      </trkpt>
      <trkpt lat="45.3211" lon="5.46289">
        <ele>569.2</ele>
        <time>2022-04-28T11:25:25Z</time>
      </trkpt>
      <trkpt lat="45.32114" lon="5.46281">
        <ele>568.9</ele>
        <time>2022-04-28T11:25:26Z</time>
      </trkpt>
      <trkpt lat="45.32119" lon="5.46272">
        <ele>568.6</ele>
        <time>2022-04-28T11:25:27Z</time>
      </trkpt>
      <trkpt lat="45.32123" lon="5.46262">
        <ele>568.3</ele>
        <time>2022-04-28T11:25:28Z</time>
      </trkpt>
      <trkpt lat="45.32127" lon="5.46253">
        <ele>568.1</ele>
        <time>2022-04-28T11:25:29Z</time>
      </trkpt>
      <trkpt lat="45.32131" lon="5.46244">
        <ele>567.8</ele>
        <time>2022-04-28T11:25:30Z</time>
      </trkpt>
      <trkpt lat="45.32136" lon="5.46235">
        <ele>567.5</ele>
        <time>2022-04-28T11:25:31Z</time>
      </trkpt>
      <trkpt lat="45.3214" lon="5.46225">
        <ele>567.2</ele>
        <time>2022-04-28T11:25:32Z</time>
      </trkpt>
      <trkpt lat="45.32144" lon="5.46216">
        <ele>566.9</ele>
        <time>2022-04-28T11:25:33Z</time>
      </trkpt>
      <trkpt lat="45.32148" lon="5.46206">
        <ele>566.6</ele>
        <time>2022-04-28T11:25:34Z</time>
      </trkpt>
      <trkpt lat="45.3215" lon="5.46196">
        <ele>566.3</ele>
        <time>2022-04-28T11:25:35Z</time>
      </trkpt>
      <trkpt lat="45.32151" lon="5.46184">
        <ele>565.9</ele>
        <time>2022-04-28T11:25:36Z</time>
      </trkpt>
      <trkpt lat="45.32153" lon="5.46174">
        <ele>565.5</ele>
        <time>2022-04-28T11:25:37Z</time>
      </trkpt>
      <trkpt lat="45.32156" lon="5.46164">
        <ele>565.1</ele>
        <time>2022-04-28T11:25:38Z</time>
      </trkpt>
      <trkpt lat="45.32157" lon="5.46152">
        <ele>564.6</ele>
        <time>2022-04-28T11:25:39Z</time>
      </trkpt>
      <trkpt lat="45.32159" lon="5.4614">
        <ele>564.1</ele>
        <time>2022-04-28T11:25:40Z</time>
      </trkpt>
      <trkpt lat="45.32161" lon="5.46127">
        <ele>563.5</ele>
        <time>2022-04-28T11:25:41Z</time>
      </trkpt>
      <trkpt lat="45.32162" lon="5.46114">
        <ele>563</ele>
        <time>2022-04-28T11:25:42Z</time>
      </trkpt>
      <trkpt lat="45.32163" lon="5.46102">
        <ele>562.5</ele>
        <time>2022-04-28T11:25:43Z</time>
      </trkpt>
      <trkpt lat="45.32164" lon="5.4609">
        <ele>562</ele>
        <time>2022-04-28T11:25:44Z</time>
      </trkpt>
      <trkpt lat="45.32165" lon="5.46077">
        <ele>561.5</ele>
        <time>2022-04-28T11:25:45Z</time>
      </trkpt>
      <trkpt lat="45.32167" lon="5.46065">
        <ele>561</ele>
        <time>2022-04-28T11:25:46Z</time>
      </trkpt>
      <trkpt lat="45.32168" lon="5.46053">
        <ele>560.5</ele>
        <time>2022-04-28T11:25:47Z</time>
      </trkpt>
      <trkpt lat="45.32169" lon="5.4604">
        <ele>560</ele>
        <time>2022-04-28T11:25:48Z</time>
      </trkpt>
      <trkpt lat="45.32171" lon="5.46027">
        <ele>559.4</ele>
        <time>2022-04-28T11:25:49Z</time>
      </trkpt>
      <trkpt lat="45.32174" lon="5.46014">
        <ele>558.9</ele>
        <time>2022-04-28T11:25:50Z</time>
      </trkpt>
      <trkpt lat="45.32177" lon="5.46001">
        <ele>558.4</ele>
        <time>2022-04-28T11:25:51Z</time>
      </trkpt>
      <trkpt lat="45.32179" lon="5.45988">
        <ele>557.9</ele>
        <time>2022-04-28T11:25:52Z</time>
      </trkpt>
      <trkpt lat="45.32181" lon="5.45976">
        <ele>557.4</ele>
        <time>2022-04-28T11:25:53Z</time>
      </trkpt>
      <trkpt lat="45.32184" lon="5.45963">
        <ele>556.8</ele>
        <time>2022-04-28T11:25:54Z</time>
      </trkpt>
      <trkpt lat="45.32186" lon="5.4595">
        <ele>556.3</ele>
        <time>2022-04-28T11:25:55Z</time>
      </trkpt>
      <trkpt lat="45.32189" lon="5.45938">
        <ele>555.8</ele>
        <time>2022-04-28T11:25:56Z</time>
      </trkpt>
      <trkpt lat="45.32192" lon="5.45926">
        <ele>555.3</ele>
        <time>2022-04-28T11:25:57Z</time>
      </trkpt>
      <trkpt lat="45.32195" lon="5.45913">
        <ele>554.8</ele>
        <time>2022-04-28T11:25:58Z</time>
      </trkpt>
      <trkpt lat="45.32199" lon="5.45902">
        <ele>554.3</ele>
        <time>2022-04-28T11:25:59Z</time>
      </trkpt>
      <trkpt lat="45.32203" lon="5.4589">
        <ele>553.7</ele>
        <time>2022-04-28T11:26:00Z</time>
      </trkpt>
      <trkpt lat="45.32207" lon="5.45878">
        <ele>553.2</ele>
        <time>2022-04-28T11:26:01Z</time>
      </trkpt>
      <trkpt lat="45.3221" lon="5.45866">
        <ele>552.6</ele>
        <time>2022-04-28T11:26:02Z</time>
      </trkpt>
      <trkpt lat="45.32214" lon="5.45853">
        <ele>552</ele>
        <time>2022-04-28T11:26:03Z</time>
      </trkpt>
      <trkpt lat="45.32217" lon="5.4584">
        <ele>551.4</ele>
        <time>2022-04-28T11:26:04Z</time>
      </trkpt>
      <trkpt lat="45.3222" lon="5.45828">
        <ele>550.8</ele>
        <time>2022-04-28T11:26:05Z</time>
      </trkpt>
      <trkpt lat="45.32222" lon="5.45816">
        <ele>550.3</ele>
        <time>2022-04-28T11:26:06Z</time>
      </trkpt>
      <trkpt lat="45.32225" lon="5.45803">
        <ele>549.8</ele>
        <time>2022-04-28T11:26:07Z</time>
      </trkpt>
      <trkpt lat="45.32228" lon="5.45791">
        <ele>549.3</ele>
        <time>2022-04-28T11:26:08Z</time>
      </trkpt>
      <trkpt lat="45.32231" lon="5.45778">
        <ele>548.8</ele>
        <time>2022-04-28T11:26:09Z</time>
      </trkpt>
      <trkpt lat="45.32233" lon="5.45765">
        <ele>548.2</ele>
        <time>2022-04-28T11:26:10Z</time>
      </trkpt>
      <trkpt lat="45.32234" lon="5.45752">
        <ele>547.7</ele>
        <time>2022-04-28T11:26:11Z</time>
      </trkpt>
      <trkpt lat="45.32236" lon="5.45739">
        <ele>547.2</ele>
        <time>2022-04-28T11:26:12Z</time>
      </trkpt>
      <trkpt lat="45.32237" lon="5.45725">
        <ele>546.6</ele>
        <time>2022-04-28T11:26:13Z</time>
      </trkpt>
      <trkpt lat="45.32238" lon="5.4571">
        <ele>546</ele>
        <time>2022-04-28T11:26:14Z</time>
      </trkpt>
      <trkpt lat="45.32239" lon="5.45697">
        <ele>545.4</ele>
        <time>2022-04-28T11:26:15Z</time>
      </trkpt>
      <trkpt lat="45.32239" lon="5.45683">
        <ele>544.8</ele>
        <time>2022-04-28T11:26:16Z</time>
      </trkpt>
      <trkpt lat="45.3224" lon="5.4567">
        <ele>544.2</ele>
        <time>2022-04-28T11:26:17Z</time>
      </trkpt>
      <trkpt lat="45.32241" lon="5.45656">
        <ele>543.6</ele>
        <time>2022-04-28T11:26:18Z</time>
      </trkpt>
      <trkpt lat="45.32243" lon="5.45642">
        <ele>543</ele>
        <time>2022-04-28T11:26:19Z</time>
      </trkpt>
      <trkpt lat="45.32245" lon="5.45628">
        <ele>542.4</ele>
        <time>2022-04-28T11:26:20Z</time>
      </trkpt>
      <trkpt lat="45.32247" lon="5.45614">
        <ele>541.7</ele>
        <time>2022-04-28T11:26:21Z</time>
      </trkpt>
      <trkpt lat="45.32249" lon="5.456">
        <ele>541.1</ele>
        <time>2022-04-28T11:26:22Z</time>
      </trkpt>
      <trkpt lat="45.3225" lon="5.45586">
        <ele>540.5</ele>
        <time>2022-04-28T11:26:23Z</time>
      </trkpt>
      <trkpt lat="45.32251" lon="5.45571">
        <ele>540</ele>
        <time>2022-04-28T11:26:24Z</time>
      </trkpt>
      <trkpt lat="45.32252" lon="5.45556">
        <ele>539.4</ele>
        <time>2022-04-28T11:26:25Z</time>
      </trkpt>
      <trkpt lat="45.32253" lon="5.45541">
        <ele>538.8</ele>
        <time>2022-04-28T11:26:26Z</time>
      </trkpt>
      <trkpt lat="45.32254" lon="5.45525">
        <ele>538.2</ele>
        <time>2022-04-28T11:26:27Z</time>
      </trkpt>
      <trkpt lat="45.32255" lon="5.4551">
        <ele>537.6</ele>
        <time>2022-04-28T11:26:28Z</time>
      </trkpt>
      <trkpt lat="45.32256" lon="5.45495">
        <ele>536.9</ele>
        <time>2022-04-28T11:26:29Z</time>
      </trkpt>
      <trkpt lat="45.32257" lon="5.45479">
        <ele>536.2</ele>
        <time>2022-04-28T11:26:30Z</time>
      </trkpt>
      <trkpt lat="45.32259" lon="5.45464">
        <ele>535.6</ele>
        <time>2022-04-28T11:26:31Z</time>
      </trkpt>
      <trkpt lat="45.3226" lon="5.45448">
        <ele>534.8</ele>
        <time>2022-04-28T11:26:32Z</time>
      </trkpt>
      <trkpt lat="45.32262" lon="5.45433">
        <ele>534.1</ele>
        <time>2022-04-28T11:26:33Z</time>
      </trkpt>
      <trkpt lat="45.32264" lon="5.45417">
        <ele>533.4</ele>
        <time>2022-04-28T11:26:34Z</time>
      </trkpt>
      <trkpt lat="45.32266" lon="5.45402">
        <ele>532.7</ele>
        <time>2022-04-28T11:26:35Z</time>
      </trkpt>
      <trkpt lat="45.32268" lon="5.45385">
        <ele>532</ele>
        <time>2022-04-28T11:26:36Z</time>
      </trkpt>
      <trkpt lat="45.32271" lon="5.45369">
        <ele>531.2</ele>
        <time>2022-04-28T11:26:37Z</time>
      </trkpt>
      <trkpt lat="45.32274" lon="5.45353">
        <ele>530.5</ele>
        <time>2022-04-28T11:26:38Z</time>
      </trkpt>
      <trkpt lat="45.32276" lon="5.45337">
        <ele>529.8</ele>
        <time>2022-04-28T11:26:39Z</time>
      </trkpt>
      <trkpt lat="45.32279" lon="5.4532">
        <ele>529</ele>
        <time>2022-04-28T11:26:40Z</time>
      </trkpt>
      <trkpt lat="45.3228" lon="5.45304">
        <ele>528.3</ele>
        <time>2022-04-28T11:26:41Z</time>
      </trkpt>
      <trkpt lat="45.32282" lon="5.45287">
        <ele>527.6</ele>
        <time>2022-04-28T11:26:42Z</time>
      </trkpt>
      <trkpt lat="45.32284" lon="5.4527">
        <ele>526.9</ele>
        <time>2022-04-28T11:26:43Z</time>
      </trkpt>
      <trkpt lat="45.32287" lon="5.45254">
        <ele>526.1</ele>
        <time>2022-04-28T11:26:44Z</time>
      </trkpt>
      <trkpt lat="45.3229" lon="5.45237">
        <ele>525.4</ele>
        <time>2022-04-28T11:26:45Z</time>
      </trkpt>
      <trkpt lat="45.32292" lon="5.4522">
        <ele>524.7</ele>
        <time>2022-04-28T11:26:46Z</time>
      </trkpt>
      <trkpt lat="45.32295" lon="5.45204">
        <ele>524</ele>
        <time>2022-04-28T11:26:47Z</time>
      </trkpt>
      <trkpt lat="45.32297" lon="5.45188">
        <ele>523.3</ele>
        <time>2022-04-28T11:26:48Z</time>
      </trkpt>
      <trkpt lat="45.323" lon="5.45171">
        <ele>522.7</ele>
        <time>2022-04-28T11:26:49Z</time>
      </trkpt>
      <trkpt lat="45.32302" lon="5.45154">
        <ele>522</ele>
        <time>2022-04-28T11:26:50Z</time>
      </trkpt>
      <trkpt lat="45.32305" lon="5.45138">
        <ele>521.4</ele>
        <time>2022-04-28T11:26:51Z</time>
      </trkpt>
      <trkpt lat="45.32307" lon="5.45121">
        <ele>520.8</ele>
        <time>2022-04-28T11:26:52Z</time>
      </trkpt>
      <trkpt lat="45.32309" lon="5.45105">
        <ele>520.2</ele>
        <time>2022-04-28T11:26:53Z</time>
      </trkpt>
      <trkpt lat="45.32311" lon="5.45089">
        <ele>519.6</ele>
        <time>2022-04-28T11:26:54Z</time>
      </trkpt>
      <trkpt lat="45.32311" lon="5.45072">
        <ele>519.1</ele>
        <time>2022-04-28T11:26:55Z</time>
      </trkpt>
      <trkpt lat="45.32311" lon="5.45056">
        <ele>518.7</ele>
        <time>2022-04-28T11:26:56Z</time>
      </trkpt>
      <trkpt lat="45.32309" lon="5.45042">
        <ele>518.2</ele>
        <time>2022-04-28T11:26:57Z</time>
      </trkpt>
      <trkpt lat="45.32307" lon="5.45028">
        <ele>517.8</ele>
        <time>2022-04-28T11:26:58Z</time>
      </trkpt>
      <trkpt lat="45.32305" lon="5.45013">
        <ele>517.4</ele>
        <time>2022-04-28T11:26:59Z</time>
      </trkpt>
      <trkpt lat="45.32304" lon="5.44998">
        <ele>517</ele>
        <time>2022-04-28T11:27:00Z</time>
      </trkpt>
      <trkpt lat="45.32302" lon="5.44984">
        <ele>516.7</ele>
        <time>2022-04-28T11:27:01Z</time>
      </trkpt>
      <trkpt lat="45.32302" lon="5.4497">
        <ele>516.3</ele>
        <time>2022-04-28T11:27:02Z</time>
      </trkpt>
      <trkpt lat="45.32303" lon="5.44956">
        <ele>516</ele>
        <time>2022-04-28T11:27:03Z</time>
      </trkpt>
      <trkpt lat="45.32304" lon="5.44943">
        <ele>515.6</ele>
        <time>2022-04-28T11:27:04Z</time>
      </trkpt>
      <trkpt lat="45.32307" lon="5.4493">
        <ele>515.2</ele>
        <time>2022-04-28T11:27:05Z</time>
      </trkpt>
      <trkpt lat="45.32308" lon="5.44917">
        <ele>514.8</ele>
        <time>2022-04-28T11:27:06Z</time>
      </trkpt>
      <trkpt lat="45.32311" lon="5.44904">
        <ele>514.5</ele>
        <time>2022-04-28T11:27:07Z</time>
      </trkpt>
      <trkpt lat="45.32313" lon="5.44892">
        <ele>514.1</ele>
        <time>2022-04-28T11:27:08Z</time>
      </trkpt>
      <trkpt lat="45.32314" lon="5.44881">
        <ele>513.8</ele>
        <time>2022-04-28T11:27:09Z</time>
      </trkpt>
      <trkpt lat="45.32316" lon="5.4487">
        <ele>513.5</ele>
        <time>2022-04-28T11:27:10Z</time>
      </trkpt>
      <trkpt lat="45.32317" lon="5.44858">
        <ele>513.1</ele>
        <time>2022-04-28T11:27:11Z</time>
      </trkpt>
      <trkpt lat="45.32319" lon="5.44846">
        <ele>512.7</ele>
        <time>2022-04-28T11:27:12Z</time>
      </trkpt>
      <trkpt lat="45.3232" lon="5.44834">
        <ele>512.2</ele>
        <time>2022-04-28T11:27:13Z</time>
      </trkpt>
      <trkpt lat="45.3232" lon="5.44821">
        <ele>511.8</ele>
        <time>2022-04-28T11:27:14Z</time>
      </trkpt>
      <trkpt lat="45.3232" lon="5.44808">
        <ele>511.3</ele>
        <time>2022-04-28T11:27:15Z</time>
      </trkpt>
      <trkpt lat="45.3232" lon="5.44796">
        <ele>510.9</ele>
        <time>2022-04-28T11:27:16Z</time>
      </trkpt>
      <trkpt lat="45.32319" lon="5.44782">
        <ele>510.4</ele>
        <time>2022-04-28T11:27:17Z</time>
      </trkpt>
      <trkpt lat="45.32319" lon="5.44769">
        <ele>510</ele>
        <time>2022-04-28T11:27:18Z</time>
      </trkpt>
      <trkpt lat="45.32319" lon="5.44756">
        <ele>509.6</ele>
        <time>2022-04-28T11:27:19Z</time>
      </trkpt>
      <trkpt lat="45.32319" lon="5.44744">
        <ele>509.2</ele>
        <time>2022-04-28T11:27:20Z</time>
      </trkpt>
      <trkpt lat="45.3232" lon="5.44732">
        <ele>508.7</ele>
        <time>2022-04-28T11:27:21Z</time>
      </trkpt>
      <trkpt lat="45.32321" lon="5.4472">
        <ele>508.4</ele>
        <time>2022-04-28T11:27:22Z</time>
      </trkpt>
      <trkpt lat="45.32321" lon="5.44709">
        <ele>508</ele>
        <time>2022-04-28T11:27:23Z</time>
      </trkpt>
      <trkpt lat="45.32322" lon="5.44697">
        <ele>507.6</ele>
        <time>2022-04-28T11:27:24Z</time>
      </trkpt>
      <trkpt lat="45.32323" lon="5.44686">
        <ele>507.3</ele>
        <time>2022-04-28T11:27:25Z</time>
      </trkpt>
      <trkpt lat="45.32324" lon="5.44674">
        <ele>507</ele>
        <time>2022-04-28T11:27:26Z</time>
      </trkpt>
      <trkpt lat="45.32324" lon="5.44662">
        <ele>506.6</ele>
        <time>2022-04-28T11:27:27Z</time>
      </trkpt>
      <trkpt lat="45.32324" lon="5.44649">
        <ele>506.3</ele>
        <time>2022-04-28T11:27:28Z</time>
      </trkpt>
      <trkpt lat="45.32324" lon="5.44637">
        <ele>506</ele>
        <time>2022-04-28T11:27:29Z</time>
      </trkpt>
      <trkpt lat="45.32324" lon="5.44625">
        <ele>505.6</ele>
        <time>2022-04-28T11:27:30Z</time>
      </trkpt>
      <trkpt lat="45.32324" lon="5.44613">
        <ele>505.3</ele>
        <time>2022-04-28T11:27:31Z</time>
      </trkpt>
      <trkpt lat="45.32324" lon="5.44601">
        <ele>505</ele>
        <time>2022-04-28T11:27:32Z</time>
      </trkpt>
      <trkpt lat="45.32323" lon="5.44589">
        <ele>504.7</ele>
        <time>2022-04-28T11:27:33Z</time>
      </trkpt>
      <trkpt lat="45.32323" lon="5.44577">
        <ele>504.4</ele>
        <time>2022-04-28T11:27:34Z</time>
      </trkpt>
      <trkpt lat="45.32323" lon="5.44565">
        <ele>504</ele>
        <time>2022-04-28T11:27:35Z</time>
      </trkpt>
      <trkpt lat="45.32323" lon="5.44552">
        <ele>503.7</ele>
        <time>2022-04-28T11:27:36Z</time>
      </trkpt>
      <trkpt lat="45.32323" lon="5.4454">
        <ele>503.4</ele>
        <time>2022-04-28T11:27:37Z</time>
      </trkpt>
      <trkpt lat="45.32325" lon="5.44527">
        <ele>503.1</ele>
        <time>2022-04-28T11:27:38Z</time>
      </trkpt>
      <trkpt lat="45.32327" lon="5.44515">
        <ele>502.7</ele>
        <time>2022-04-28T11:27:39Z</time>
      </trkpt>
      <trkpt lat="45.3233" lon="5.44503">
        <ele>502.4</ele>
        <time>2022-04-28T11:27:40Z</time>
      </trkpt>
      <trkpt lat="45.32333" lon="5.44491">
        <ele>502.1</ele>
        <time>2022-04-28T11:27:41Z</time>
      </trkpt>
      <trkpt lat="45.32337" lon="5.44479">
        <ele>501.8</ele>
        <time>2022-04-28T11:27:42Z</time>
      </trkpt>
      <trkpt lat="45.3234" lon="5.44467">
        <ele>501.5</ele>
        <time>2022-04-28T11:27:43Z</time>
      </trkpt>
      <trkpt lat="45.32343" lon="5.44456">
        <ele>501.2</ele>
        <time>2022-04-28T11:27:44Z</time>
      </trkpt>
      <trkpt lat="45.32347" lon="5.44444">
        <ele>500.9</ele>
        <time>2022-04-28T11:27:45Z</time>
      </trkpt>
      <trkpt lat="45.32351" lon="5.44432">
        <ele>500.6</ele>
        <time>2022-04-28T11:27:46Z</time>
      </trkpt>
      <trkpt lat="45.32354" lon="5.4442">
        <ele>500.3</ele>
        <time>2022-04-28T11:27:47Z</time>
      </trkpt>
      <trkpt lat="45.32357" lon="5.44409">
        <ele>500</ele>
        <time>2022-04-28T11:27:48Z</time>
      </trkpt>
      <trkpt lat="45.32361" lon="5.44398">
        <ele>499.7</ele>
        <time>2022-04-28T11:27:49Z</time>
      </trkpt>
      <trkpt lat="45.32364" lon="5.44387">
        <ele>499.4</ele>
        <time>2022-04-28T11:27:50Z</time>
      </trkpt>
      <trkpt lat="45.32367" lon="5.44376">
        <ele>499.2</ele>
        <time>2022-04-28T11:27:51Z</time>
      </trkpt>
      <trkpt lat="45.32371" lon="5.44365">
        <ele>498.9</ele>
        <time>2022-04-28T11:27:52Z</time>
      </trkpt>
      <trkpt lat="45.32375" lon="5.44355">
        <ele>498.6</ele>
        <time>2022-04-28T11:27:53Z</time>
      </trkpt>
      <trkpt lat="45.32378" lon="5.44344">
        <ele>498.4</ele>
        <time>2022-04-28T11:27:54Z</time>
      </trkpt>
      <trkpt lat="45.32382" lon="5.44334">
        <ele>498.1</ele>
        <time>2022-04-28T11:27:55Z</time>
      </trkpt>
      <trkpt lat="45.32386" lon="5.44323">
        <ele>497.9</ele>
        <time>2022-04-28T11:27:56Z</time>
      </trkpt>
      <trkpt lat="45.3239" lon="5.44311">
        <ele>497.6</ele>
        <time>2022-04-28T11:27:57Z</time>
      </trkpt>
      <trkpt lat="45.32393" lon="5.443">
        <ele>497.4</ele>
        <time>2022-04-28T11:27:58Z</time>
      </trkpt>
      <trkpt lat="45.32397" lon="5.44289">
        <ele>497.2</ele>
        <time>2022-04-28T11:27:59Z</time>
      </trkpt>
      <trkpt lat="45.32401" lon="5.44278">
        <ele>496.9</ele>
        <time>2022-04-28T11:28:00Z</time>
      </trkpt>
      <trkpt lat="45.32405" lon="5.44267">
        <ele>496.7</ele>
        <time>2022-04-28T11:28:01Z</time>
      </trkpt>
      <trkpt lat="45.32408" lon="5.44257">
        <ele>496.4</ele>
        <time>2022-04-28T11:28:02Z</time>
      </trkpt>
      <trkpt lat="45.32412" lon="5.44246">
        <ele>496.2</ele>
        <time>2022-04-28T11:28:03Z</time>
      </trkpt>
      <trkpt lat="45.32416" lon="5.44236">
        <ele>495.9</ele>
        <time>2022-04-28T11:28:04Z</time>
      </trkpt>
      <trkpt lat="45.32419" lon="5.44225">
        <ele>495.7</ele>
        <time>2022-04-28T11:28:05Z</time>
      </trkpt>
      <trkpt lat="45.32423" lon="5.44215">
        <ele>495.5</ele>
        <time>2022-04-28T11:28:06Z</time>
      </trkpt>
      <trkpt lat="45.32427" lon="5.44205">
        <ele>495.3</ele>
        <time>2022-04-28T11:28:07Z</time>
      </trkpt>
      <trkpt lat="45.3243" lon="5.44195">
        <ele>495.1</ele>
        <time>2022-04-28T11:28:08Z</time>
      </trkpt>
      <trkpt lat="45.32433" lon="5.44184">
        <ele>494.9</ele>
        <time>2022-04-28T11:28:09Z</time>
      </trkpt>
      <trkpt lat="45.32437" lon="5.44174">
        <ele>494.7</ele>
        <time>2022-04-28T11:28:10Z</time>
      </trkpt>
      <trkpt lat="45.32441" lon="5.44164">
        <ele>494.5</ele>
        <time>2022-04-28T11:28:11Z</time>
      </trkpt>
      <trkpt lat="45.32446" lon="5.44154">
        <ele>494.3</ele>
        <time>2022-04-28T11:28:12Z</time>
      </trkpt>
      <trkpt lat="45.32451" lon="5.44145">
        <ele>494.1</ele>
        <time>2022-04-28T11:28:13Z</time>
      </trkpt>
      <trkpt lat="45.32455" lon="5.44135">
        <ele>493.8</ele>
        <time>2022-04-28T11:28:14Z</time>
      </trkpt>
      <trkpt lat="45.32461" lon="5.44127">
        <ele>493.6</ele>
        <time>2022-04-28T11:28:15Z</time>
      </trkpt>
      <trkpt lat="45.32468" lon="5.44118">
        <ele>493.3</ele>
        <time>2022-04-28T11:28:16Z</time>
      </trkpt>
      <trkpt lat="45.32474" lon="5.4411">
        <ele>492.9</ele>
        <time>2022-04-28T11:28:17Z</time>
      </trkpt>
      <trkpt lat="45.3248" lon="5.44101">
        <ele>492.7</ele>
        <time>2022-04-28T11:28:18Z</time>
      </trkpt>
      <trkpt lat="45.32486" lon="5.44092">
        <ele>492.4</ele>
        <time>2022-04-28T11:28:19Z</time>
      </trkpt>
      <trkpt lat="45.32492" lon="5.44082">
        <ele>492</ele>
        <time>2022-04-28T11:28:20Z</time>
      </trkpt>
      <trkpt lat="45.32497" lon="5.44073">
        <ele>491.7</ele>
        <time>2022-04-28T11:28:21Z</time>
      </trkpt>
      <trkpt lat="45.32504" lon="5.44064">
        <ele>491.4</ele>
        <time>2022-04-28T11:28:22Z</time>
      </trkpt>
      <trkpt lat="45.32511" lon="5.44055">
        <ele>491.1</ele>
        <time>2022-04-28T11:28:23Z</time>
      </trkpt>
      <trkpt lat="45.32517" lon="5.44046">
        <ele>490.8</ele>
        <time>2022-04-28T11:28:24Z</time>
      </trkpt>
      <trkpt lat="45.32523" lon="5.44037">
        <ele>490.6</ele>
        <time>2022-04-28T11:28:25Z</time>
      </trkpt>
      <trkpt lat="45.32529" lon="5.44027">
        <ele>490.4</ele>
        <time>2022-04-28T11:28:26Z</time>
      </trkpt>
      <trkpt lat="45.32534" lon="5.44019">
        <ele>490.2</ele>
        <time>2022-04-28T11:28:27Z</time>
      </trkpt>
      <trkpt lat="45.32537" lon="5.44012">
        <ele>490.1</ele>
        <time>2022-04-28T11:28:28Z</time>
      </trkpt>
      <trkpt lat="45.32539" lon="5.44004">
        <ele>489.9</ele>
        <time>2022-04-28T11:28:29Z</time>
      </trkpt>
      <trkpt lat="45.32538" lon="5.43995">
        <ele>489.8</ele>
        <time>2022-04-28T11:28:30Z</time>
      </trkpt>
      <trkpt lat="45.32536" lon="5.43987">
        <ele>489.7</ele>
        <time>2022-04-28T11:28:31Z</time>
      </trkpt>
      <trkpt lat="45.32533" lon="5.43979">
        <ele>489.7</ele>
        <time>2022-04-28T11:28:32Z</time>
      </trkpt>
      <trkpt lat="45.3253" lon="5.43973">
        <ele>489.7</ele>
        <time>2022-04-28T11:28:33Z</time>
      </trkpt>
      <trkpt lat="45.32525" lon="5.43968">
        <ele>489.7</ele>
        <time>2022-04-28T11:28:34Z</time>
      </trkpt>
      <trkpt lat="45.32521" lon="5.43963">
        <ele>489.8</ele>
        <time>2022-04-28T11:28:35Z</time>
      </trkpt>
      <trkpt lat="45.32517" lon="5.43959">
        <ele>489.9</ele>
        <time>2022-04-28T11:28:36Z</time>
      </trkpt>
      <trkpt lat="45.32514" lon="5.43955">
        <ele>490</ele>
        <time>2022-04-28T11:28:37Z</time>
      </trkpt>
      <trkpt lat="45.32511" lon="5.43951">
        <ele>490.1</ele>
        <time>2022-04-28T11:28:38Z</time>
      </trkpt>
      <trkpt lat="45.32507" lon="5.43947">
        <ele>490.3</ele>
        <time>2022-04-28T11:28:39Z</time>
      </trkpt>
      <trkpt lat="45.32504" lon="5.43944">
        <ele>490.4</ele>
        <time>2022-04-28T11:28:40Z</time>
      </trkpt>
      <trkpt lat="45.32501" lon="5.4394">
        <ele>490.6</ele>
        <time>2022-04-28T11:28:41Z</time>
      </trkpt>
      <trkpt lat="45.32498" lon="5.43937">
        <ele>490.7</ele>
        <time>2022-04-28T11:28:42Z</time>
      </trkpt>
      <trkpt lat="45.32496" lon="5.43934">
        <ele>490.9</ele>
        <time>2022-04-28T11:28:43Z</time>
      </trkpt>
      <trkpt lat="45.32493" lon="5.4393">
        <ele>491</ele>
        <time>2022-04-28T11:28:44Z</time>
      </trkpt>
      <trkpt lat="45.32494" lon="5.43927">
        <ele>491.1</ele>
        <time>2022-04-28T11:28:45Z</time>
      </trkpt>
      <trkpt lat="45.32494" lon="5.43925">
        <ele>491.2</ele>
        <time>2022-04-28T11:28:46Z</time>
      </trkpt>
      <trkpt lat="45.3249" lon="5.43919">
        <ele>491.5</ele>
        <time>2022-04-28T11:28:48Z</time>
      </trkpt>
      <trkpt lat="45.32486" lon="5.43914">
        <ele>491.7</ele>
        <time>2022-04-28T11:28:49Z</time>
      </trkpt>
      <trkpt lat="45.32484" lon="5.43908">
        <ele>491.9</ele>
        <time>2022-04-28T11:28:50Z</time>
      </trkpt>
      <trkpt lat="45.32482" lon="5.439">
        <ele>492.2</ele>
        <time>2022-04-28T11:28:51Z</time>
      </trkpt>
      <trkpt lat="45.3248" lon="5.43893">
        <ele>492.5</ele>
        <time>2022-04-28T11:28:52Z</time>
      </trkpt>
      <trkpt lat="45.3248" lon="5.43888">
        <ele>492.7</ele>
        <time>2022-04-28T11:28:53Z</time>
      </trkpt>
      <trkpt lat="45.3248" lon="5.43882">
        <ele>492.9</ele>
        <time>2022-04-28T11:28:54Z</time>
      </trkpt>
      <trkpt lat="45.32479" lon="5.43876">
        <ele>493.1</ele>
        <time>2022-04-28T11:28:55Z</time>
      </trkpt>
      <trkpt lat="45.32479" lon="5.43868">
        <ele>493.3</ele>
        <time>2022-04-28T11:28:57Z</time>
      </trkpt>
      <trkpt lat="45.32479" lon="5.43862">
        <ele>493.6</ele>
        <time>2022-04-28T11:28:58Z</time>
      </trkpt>
      <trkpt lat="45.32478" lon="5.43856">
        <ele>493.7</ele>
        <time>2022-04-28T11:28:59Z</time>
      </trkpt>
      <trkpt lat="45.32478" lon="5.43849">
        <ele>493.9</ele>
        <time>2022-04-28T11:29:00Z</time>
      </trkpt>
      <trkpt lat="45.32477" lon="5.43843">
        <ele>494.1</ele>
        <time>2022-04-28T11:29:01Z</time>
      </trkpt>
      <trkpt lat="45.32477" lon="5.43836">
        <ele>494.3</ele>
        <time>2022-04-28T11:29:02Z</time>
      </trkpt>
      <trkpt lat="45.32476" lon="5.4383">
        <ele>494.5</ele>
        <time>2022-04-28T11:29:03Z</time>
      </trkpt>
      <trkpt lat="45.32475" lon="5.43823">
        <ele>494.7</ele>
        <time>2022-04-28T11:29:05Z</time>
      </trkpt>
      <trkpt lat="45.32474" lon="5.43815">
        <ele>494.9</ele>
        <time>2022-04-28T11:29:06Z</time>
      </trkpt>
      <trkpt lat="45.32474" lon="5.43809">
        <ele>495.1</ele>
        <time>2022-04-28T11:29:07Z</time>
      </trkpt>
      <trkpt lat="45.32473" lon="5.43803">
        <ele>495.2</ele>
        <time>2022-04-28T11:29:08Z</time>
      </trkpt>
      <trkpt lat="45.32472" lon="5.43796">
        <ele>495.3</ele>
        <time>2022-04-28T11:29:10Z</time>
      </trkpt>
      <trkpt lat="45.32471" lon="5.43788">
        <ele>495.5</ele>
        <time>2022-04-28T11:29:11Z</time>
      </trkpt>
      <trkpt lat="45.3247" lon="5.43782">
        <ele>495.6</ele>
        <time>2022-04-28T11:29:12Z</time>
      </trkpt>
      <trkpt lat="45.32469" lon="5.43774">
        <ele>495.7</ele>
        <time>2022-04-28T11:29:13Z</time>
      </trkpt>
      <trkpt lat="45.32469" lon="5.43768">
        <ele>495.8</ele>
        <time>2022-04-28T11:29:14Z</time>
      </trkpt>
      <trkpt lat="45.32469" lon="5.43763">
        <ele>495.9</ele>
        <time>2022-04-28T11:29:15Z</time>
      </trkpt>
      <trkpt lat="45.32468" lon="5.43756">
        <ele>496</ele>
        <time>2022-04-28T11:29:16Z</time>
      </trkpt>
      <trkpt lat="45.32468" lon="5.4375">
        <ele>496</ele>
        <time>2022-04-28T11:29:17Z</time>
      </trkpt>
      <trkpt lat="45.32468" lon="5.43745">
        <ele>496.1</ele>
        <time>2022-04-28T11:29:18Z</time>
      </trkpt>
      <trkpt lat="45.32467" lon="5.43739">
        <ele>496.2</ele>
        <time>2022-04-28T11:29:19Z</time>
      </trkpt>
      <trkpt lat="45.32466" lon="5.43732">
        <ele>496.2</ele>
        <time>2022-04-28T11:29:20Z</time>
      </trkpt>
      <trkpt lat="45.32465" lon="5.43726">
        <ele>496.2</ele>
        <time>2022-04-28T11:29:21Z</time>
      </trkpt>
      <trkpt lat="45.32464" lon="5.43721">
        <ele>496.2</ele>
        <time>2022-04-28T11:29:22Z</time>
      </trkpt>
      <trkpt lat="45.32465" lon="5.43715">
        <ele>496.2</ele>
        <time>2022-04-28T11:29:23Z</time>
      </trkpt>
      <trkpt lat="45.32465" lon="5.43709">
        <ele>496.1</ele>
        <time>2022-04-28T11:29:24Z</time>
      </trkpt>
      <trkpt lat="45.32465" lon="5.43701">
        <ele>496.1</ele>
        <time>2022-04-28T11:29:25Z</time>
      </trkpt>
      <trkpt lat="45.32464" lon="5.43694">
        <ele>496.1</ele>
        <time>2022-04-28T11:29:26Z</time>
      </trkpt>
      <trkpt lat="45.32464" lon="5.43687">
        <ele>496</ele>
        <time>2022-04-28T11:29:27Z</time>
      </trkpt>
      <trkpt lat="45.32464" lon="5.4368">
        <ele>496</ele>
        <time>2022-04-28T11:29:28Z</time>
      </trkpt>
      <trkpt lat="45.32466" lon="5.43674">
        <ele>496</ele>
        <time>2022-04-28T11:29:29Z</time>
      </trkpt>
      <trkpt lat="45.32466" lon="5.43667">
        <ele>495.9</ele>
        <time>2022-04-28T11:29:30Z</time>
      </trkpt>
      <trkpt lat="45.32466" lon="5.43659">
        <ele>495.9</ele>
        <time>2022-04-28T11:29:31Z</time>
      </trkpt>
      <trkpt lat="45.32466" lon="5.43652">
        <ele>495.8</ele>
        <time>2022-04-28T11:29:32Z</time>
      </trkpt>
      <trkpt lat="45.32466" lon="5.43645">
        <ele>495.8</ele>
        <time>2022-04-28T11:29:33Z</time>
      </trkpt>
      <trkpt lat="45.32467" lon="5.43638">
        <ele>495.7</ele>
        <time>2022-04-28T11:29:34Z</time>
      </trkpt>
      <trkpt lat="45.32467" lon="5.43631">
        <ele>495.6</ele>
        <time>2022-04-28T11:29:35Z</time>
      </trkpt>
      <trkpt lat="45.32468" lon="5.43624">
        <ele>495.5</ele>
        <time>2022-04-28T11:29:36Z</time>
      </trkpt>
      <trkpt lat="45.32469" lon="5.43616">
        <ele>495.4</ele>
        <time>2022-04-28T11:29:37Z</time>
      </trkpt>
      <trkpt lat="45.3247" lon="5.43609">
        <ele>495.3</ele>
        <time>2022-04-28T11:29:38Z</time>
      </trkpt>
      <trkpt lat="45.3247" lon="5.43602">
        <ele>495.1</ele>
        <time>2022-04-28T11:29:39Z</time>
      </trkpt>
      <trkpt lat="45.32469" lon="5.43594">
        <ele>495</ele>
        <time>2022-04-28T11:29:40Z</time>
      </trkpt>
      <trkpt lat="45.32468" lon="5.43587">
        <ele>494.8</ele>
        <time>2022-04-28T11:29:41Z</time>
      </trkpt>
      <trkpt lat="45.32466" lon="5.4358">
        <ele>494.6</ele>
        <time>2022-04-28T11:29:42Z</time>
      </trkpt>
      <trkpt lat="45.32465" lon="5.43572">
        <ele>494.4</ele>
        <time>2022-04-28T11:29:43Z</time>
      </trkpt>
      <trkpt lat="45.32463" lon="5.43564">
        <ele>494.2</ele>
        <time>2022-04-28T11:29:44Z</time>
      </trkpt>
      <trkpt lat="45.32461" lon="5.43557">
        <ele>494</ele>
        <time>2022-04-28T11:29:45Z</time>
      </trkpt>
      <trkpt lat="45.32459" lon="5.43548">
        <ele>493.8</ele>
        <time>2022-04-28T11:29:46Z</time>
      </trkpt>
      <trkpt lat="45.32457" lon="5.43539">
        <ele>493.6</ele>
        <time>2022-04-28T11:29:47Z</time>
      </trkpt>
      <trkpt lat="45.32456" lon="5.4353">
        <ele>493.4</ele>
        <time>2022-04-28T11:29:48Z</time>
      </trkpt>
      <trkpt lat="45.32454" lon="5.43521">
        <ele>493.2</ele>
        <time>2022-04-28T11:29:49Z</time>
      </trkpt>
      <trkpt lat="45.32453" lon="5.43513">
        <ele>493</ele>
        <time>2022-04-28T11:29:50Z</time>
      </trkpt>
      <trkpt lat="45.32451" lon="5.43504">
        <ele>492.9</ele>
        <time>2022-04-28T11:29:51Z</time>
      </trkpt>
      <trkpt lat="45.32449" lon="5.43495">
        <ele>492.7</ele>
        <time>2022-04-28T11:29:52Z</time>
      </trkpt>
      <trkpt lat="45.32448" lon="5.43486">
        <ele>492.6</ele>
        <time>2022-04-28T11:29:53Z</time>
      </trkpt>
      <trkpt lat="45.32448" lon="5.43478">
        <ele>492.5</ele>
        <time>2022-04-28T11:29:54Z</time>
      </trkpt>
      <trkpt lat="45.32447" lon="5.4347">
        <ele>492.2</ele>
        <time>2022-04-28T11:29:55Z</time>
      </trkpt>
      <trkpt lat="45.32446" lon="5.43462">
        <ele>492</ele>
        <time>2022-04-28T11:29:56Z</time>
      </trkpt>
      <trkpt lat="45.32445" lon="5.43453">
        <ele>491.7</ele>
        <time>2022-04-28T11:29:57Z</time>
      </trkpt>
      <trkpt lat="45.32442" lon="5.43445">
        <ele>491.4</ele>
        <time>2022-04-28T11:29:58Z</time>
      </trkpt>
      <trkpt lat="45.3244" lon="5.43438">
        <ele>491.1</ele>
        <time>2022-04-28T11:29:59Z</time>
      </trkpt>
      <trkpt lat="45.32438" lon="5.4343">
        <ele>490.9</ele>
        <time>2022-04-28T11:30:00Z</time>
      </trkpt>
      <trkpt lat="45.32436" lon="5.43423">
        <ele>490.5</ele>
        <time>2022-04-28T11:30:01Z</time>
      </trkpt>
      <trkpt lat="45.32434" lon="5.43414">
        <ele>490.2</ele>
        <time>2022-04-28T11:30:02Z</time>
      </trkpt>
      <trkpt lat="45.32433" lon="5.43405">
        <ele>489.8</ele>
        <time>2022-04-28T11:30:03Z</time>
      </trkpt>
      <trkpt lat="45.32433" lon="5.43395">
        <ele>489.3</ele>
        <time>2022-04-28T11:30:04Z</time>
      </trkpt>
      <trkpt lat="45.32433" lon="5.43385">
        <ele>488.9</ele>
        <time>2022-04-28T11:30:05Z</time>
      </trkpt>
      <trkpt lat="45.32432" lon="5.43375">
        <ele>488.4</ele>
        <time>2022-04-28T11:30:06Z</time>
      </trkpt>
      <trkpt lat="45.32431" lon="5.43365">
        <ele>488</ele>
        <time>2022-04-28T11:30:07Z</time>
      </trkpt>
      <trkpt lat="45.32431" lon="5.43354">
        <ele>487.5</ele>
        <time>2022-04-28T11:30:08Z</time>
      </trkpt>
      <trkpt lat="45.32431" lon="5.43344">
        <ele>487.1</ele>
        <time>2022-04-28T11:30:09Z</time>
      </trkpt>
      <trkpt lat="45.32431" lon="5.43334">
        <ele>486.6</ele>
        <time>2022-04-28T11:30:10Z</time>
      </trkpt>
      <trkpt lat="45.3243" lon="5.43324">
        <ele>486.2</ele>
        <time>2022-04-28T11:30:11Z</time>
      </trkpt>
      <trkpt lat="45.3243" lon="5.43315">
        <ele>485.7</ele>
        <time>2022-04-28T11:30:12Z</time>
      </trkpt>
      <trkpt lat="45.3243" lon="5.43305">
        <ele>485.3</ele>
        <time>2022-04-28T11:30:13Z</time>
      </trkpt>
      <trkpt lat="45.32429" lon="5.43295">
        <ele>484.9</ele>
        <time>2022-04-28T11:30:14Z</time>
      </trkpt>
      <trkpt lat="45.32429" lon="5.43286">
        <ele>484.5</ele>
        <time>2022-04-28T11:30:15Z</time>
      </trkpt>
      <trkpt lat="45.32428" lon="5.43277">
        <ele>484.1</ele>
        <time>2022-04-28T11:30:16Z</time>
      </trkpt>
      <trkpt lat="45.32427" lon="5.43269">
        <ele>483.8</ele>
        <time>2022-04-28T11:30:17Z</time>
      </trkpt>
      <trkpt lat="45.32427" lon="5.4326">
        <ele>483.5</ele>
        <time>2022-04-28T11:30:18Z</time>
      </trkpt>
      <trkpt lat="45.32427" lon="5.43253">
        <ele>483.3</ele>
        <time>2022-04-28T11:30:19Z</time>
      </trkpt>
      <trkpt lat="45.32427" lon="5.43247">
        <ele>483</ele>
        <time>2022-04-28T11:30:20Z</time>
      </trkpt>
      <trkpt lat="45.32427" lon="5.43241">
        <ele>482.8</ele>
        <time>2022-04-28T11:30:21Z</time>
      </trkpt>
      <trkpt lat="45.32427" lon="5.43236">
        <ele>482.6</ele>
        <time>2022-04-28T11:30:22Z</time>
      </trkpt>
      <trkpt lat="45.32427" lon="5.43234">
        <ele>482.5</ele>
        <time>2022-04-28T11:30:23Z</time>
      </trkpt>
      <trkpt lat="45.32427" lon="5.43232">
        <ele>482.4</ele>
        <time>2022-04-28T11:30:24Z</time>
      </trkpt>
      <trkpt lat="45.32426" lon="5.4323">
        <ele>482.3</ele>
        <time>2022-04-28T11:30:25Z</time>
      </trkpt>
      <trkpt lat="45.32423" lon="5.43227">
        <ele>481.8</ele>
        <time>2022-04-28T11:30:26Z</time>
      </trkpt>
      <trkpt lat="45.32421" lon="5.43226">
        <ele>481.7</ele>
        <time>2022-04-28T11:30:27Z</time>
      </trkpt>
      <trkpt lat="45.32418" lon="5.43226">
        <ele>481.3</ele>
        <time>2022-04-28T11:30:29Z</time>
      </trkpt>
      <trkpt lat="45.32414" lon="5.43226">
        <ele>481</ele>
        <time>2022-04-28T11:30:30Z</time>
      </trkpt>
      <trkpt lat="45.3241" lon="5.43227">
        <ele>480.8</ele>
        <time>2022-04-28T11:30:31Z</time>
      </trkpt>
      <trkpt lat="45.32405" lon="5.43229">
        <ele>480.4</ele>
        <time>2022-04-28T11:30:32Z</time>
      </trkpt>
      <trkpt lat="45.32398" lon="5.43234">
        <ele>479.9</ele>
        <time>2022-04-28T11:30:33Z</time>
      </trkpt>
      <trkpt lat="45.32393" lon="5.43238">
        <ele>479.6</ele>
        <time>2022-04-28T11:30:34Z</time>
      </trkpt>
      <trkpt lat="45.32389" lon="5.43243">
        <ele>479.3</ele>
        <time>2022-04-28T11:30:35Z</time>
      </trkpt>
      <trkpt lat="45.32385" lon="5.43248">
        <ele>479</ele>
        <time>2022-04-28T11:30:36Z</time>
      </trkpt>
      <trkpt lat="45.32381" lon="5.43254">
        <ele>478.8</ele>
        <time>2022-04-28T11:30:37Z</time>
      </trkpt>
      <trkpt lat="45.32377" lon="5.43258">
        <ele>478.6</ele>
        <time>2022-04-28T11:30:38Z</time>
      </trkpt>
      <trkpt lat="45.32373" lon="5.43263">
        <ele>478.3</ele>
        <time>2022-04-28T11:30:39Z</time>
      </trkpt>
      <trkpt lat="45.32369" lon="5.43268">
        <ele>478.1</ele>
        <time>2022-04-28T11:30:40Z</time>
      </trkpt>
      <trkpt lat="45.32364" lon="5.43273">
        <ele>477.9</ele>
        <time>2022-04-28T11:30:41Z</time>
      </trkpt>
      <trkpt lat="45.3236" lon="5.43278">
        <ele>477.7</ele>
        <time>2022-04-28T11:30:42Z</time>
      </trkpt>
      <trkpt lat="45.32355" lon="5.43282">
        <ele>477.5</ele>
        <time>2022-04-28T11:30:43Z</time>
      </trkpt>
      <trkpt lat="45.3235" lon="5.43287">
        <ele>477.2</ele>
        <time>2022-04-28T11:30:44Z</time>
      </trkpt>
      <trkpt lat="45.32344" lon="5.43293">
        <ele>477</ele>
        <time>2022-04-28T11:30:45Z</time>
      </trkpt>
      <trkpt lat="45.32339" lon="5.43298">
        <ele>476.8</ele>
        <time>2022-04-28T11:30:46Z</time>
      </trkpt>
      <trkpt lat="45.32333" lon="5.43302">
        <ele>476.6</ele>
        <time>2022-04-28T11:30:47Z</time>
      </trkpt>
      <trkpt lat="45.32328" lon="5.43306">
        <ele>476.4</ele>
        <time>2022-04-28T11:30:48Z</time>
      </trkpt>
      <trkpt lat="45.32322" lon="5.43311">
        <ele>476.1</ele>
        <time>2022-04-28T11:30:49Z</time>
      </trkpt>
      <trkpt lat="45.32316" lon="5.43315">
        <ele>475.9</ele>
        <time>2022-04-28T11:30:50Z</time>
      </trkpt>
      <trkpt lat="45.3231" lon="5.43318">
        <ele>475.7</ele>
        <time>2022-04-28T11:30:51Z</time>
      </trkpt>
      <trkpt lat="45.32304" lon="5.43322">
        <ele>475.4</ele>
        <time>2022-04-28T11:30:52Z</time>
      </trkpt>
      <trkpt lat="45.32297" lon="5.43325">
        <ele>475.2</ele>
        <time>2022-04-28T11:30:53Z</time>
      </trkpt>
      <trkpt lat="45.3229" lon="5.43328">
        <ele>474.9</ele>
        <time>2022-04-28T11:30:54Z</time>
      </trkpt>
      <trkpt lat="45.32284" lon="5.4333">
        <ele>474.7</ele>
        <time>2022-04-28T11:30:55Z</time>
      </trkpt>
      <trkpt lat="45.32277" lon="5.43332">
        <ele>474.5</ele>
        <time>2022-04-28T11:30:56Z</time>
      </trkpt>
      <trkpt lat="45.3227" lon="5.43333">
        <ele>474.3</ele>
        <time>2022-04-28T11:30:57Z</time>
      </trkpt>
      <trkpt lat="45.32263" lon="5.43335">
        <ele>474.2</ele>
        <time>2022-04-28T11:30:58Z</time>
      </trkpt>
      <trkpt lat="45.32256" lon="5.43338">
        <ele>474</ele>
        <time>2022-04-28T11:30:59Z</time>
      </trkpt>
      <trkpt lat="45.3225" lon="5.4334">
        <ele>473.9</ele>
        <time>2022-04-28T11:31:00Z</time>
      </trkpt>
      <trkpt lat="45.32244" lon="5.43342">
        <ele>473.8</ele>
        <time>2022-04-28T11:31:01Z</time>
      </trkpt>
      <trkpt lat="45.32237" lon="5.43343">
        <ele>473.6</ele>
        <time>2022-04-28T11:31:02Z</time>
      </trkpt>
      <trkpt lat="45.32231" lon="5.43343">
        <ele>473.5</ele>
        <time>2022-04-28T11:31:03Z</time>
      </trkpt>
      <trkpt lat="45.32224" lon="5.43342">
        <ele>473.4</ele>
        <time>2022-04-28T11:31:04Z</time>
      </trkpt>
      <trkpt lat="45.32218" lon="5.4334">
        <ele>473.4</ele>
        <time>2022-04-28T11:31:05Z</time>
      </trkpt>
      <trkpt lat="45.32213" lon="5.43337">
        <ele>473.4</ele>
        <time>2022-04-28T11:31:06Z</time>
      </trkpt>
      <trkpt lat="45.32207" lon="5.43333">
        <ele>473.3</ele>
        <time>2022-04-28T11:31:07Z</time>
      </trkpt>
      <trkpt lat="45.32201" lon="5.43328">
        <ele>473.4</ele>
        <time>2022-04-28T11:31:08Z</time>
      </trkpt>
      <trkpt lat="45.32196" lon="5.43322">
        <ele>473.4</ele>
        <time>2022-04-28T11:31:09Z</time>
      </trkpt>
      <trkpt lat="45.32191" lon="5.43316">
        <ele>473.5</ele>
        <time>2022-04-28T11:31:10Z</time>
      </trkpt>
      <trkpt lat="45.32187" lon="5.43311">
        <ele>473.6</ele>
        <time>2022-04-28T11:31:11Z</time>
      </trkpt>
      <trkpt lat="45.32182" lon="5.43306">
        <ele>473.9</ele>
        <time>2022-04-28T11:31:12Z</time>
      </trkpt>
      <trkpt lat="45.32178" lon="5.43302">
        <ele>474.1</ele>
        <time>2022-04-28T11:31:13Z</time>
      </trkpt>
      <trkpt lat="45.32174" lon="5.43298">
        <ele>474.4</ele>
        <time>2022-04-28T11:31:14Z</time>
      </trkpt>
      <trkpt lat="45.3217" lon="5.43295">
        <ele>474.7</ele>
        <time>2022-04-28T11:31:15Z</time>
      </trkpt>
      <trkpt lat="45.32167" lon="5.43293">
        <ele>474.9</ele>
        <time>2022-04-28T11:31:16Z</time>
      </trkpt>
      <trkpt lat="45.32163" lon="5.43291">
        <ele>475.2</ele>
        <time>2022-04-28T11:31:17Z</time>
      </trkpt>
      <trkpt lat="45.32159" lon="5.4329">
        <ele>475.5</ele>
        <time>2022-04-28T11:31:18Z</time>
      </trkpt>
      <trkpt lat="45.32157" lon="5.4329">
        <ele>475.6</ele>
        <time>2022-04-28T11:31:19Z</time>
      </trkpt>
      <trkpt lat="45.32153" lon="5.43289">
        <ele>476</ele>
        <time>2022-04-28T11:31:20Z</time>
      </trkpt>
      <trkpt lat="45.3215" lon="5.43288">
        <ele>476.3</ele>
        <time>2022-04-28T11:31:21Z</time>
      </trkpt>
      <trkpt lat="45.32146" lon="5.43288">
        <ele>476.6</ele>
        <time>2022-04-28T11:31:22Z</time>
      </trkpt>
      <trkpt lat="45.32145" lon="5.43289">
        <ele>476.7</ele>
        <time>2022-04-28T11:31:23Z</time>
      </trkpt>
      <trkpt lat="45.32142" lon="5.43289">
        <ele>476.9</ele>
        <time>2022-04-28T11:31:24Z</time>
      </trkpt>
      <trkpt lat="45.32139" lon="5.4329">
        <ele>477.1</ele>
        <time>2022-04-28T11:31:25Z</time>
      </trkpt>
      <trkpt lat="45.32136" lon="5.43291">
        <ele>477.4</ele>
        <time>2022-04-28T11:31:26Z</time>
      </trkpt>
      <trkpt lat="45.32132" lon="5.43292">
        <ele>477.6</ele>
        <time>2022-04-28T11:31:27Z</time>
      </trkpt>
      <trkpt lat="45.3213" lon="5.43292">
        <ele>477.8</ele>
        <time>2022-04-28T11:31:28Z</time>
      </trkpt>
      <trkpt lat="45.32125" lon="5.43294">
        <ele>478.2</ele>
        <time>2022-04-28T11:31:29Z</time>
      </trkpt>
      <trkpt lat="45.32124" lon="5.43295">
        <ele>478.3</ele>
        <time>2022-04-28T11:31:30Z</time>
      </trkpt>
      <trkpt lat="45.3212" lon="5.43296">
        <ele>478.6</ele>
        <time>2022-04-28T11:31:31Z</time>
      </trkpt>
      <trkpt lat="45.32118" lon="5.43296">
        <ele>478.7</ele>
        <time>2022-04-28T11:31:32Z</time>
      </trkpt>
      <trkpt lat="45.32114" lon="5.43297">
        <ele>479</ele>
        <time>2022-04-28T11:31:33Z</time>
      </trkpt>
      <trkpt lat="45.32113" lon="5.43297">
        <ele>479.1</ele>
        <time>2022-04-28T11:31:34Z</time>
      </trkpt>
      <trkpt lat="45.3211" lon="5.43297">
        <ele>479.3</ele>
        <time>2022-04-28T11:31:35Z</time>
      </trkpt>
      <trkpt lat="45.32107" lon="5.43297">
        <ele>479.6</ele>
        <time>2022-04-28T11:31:36Z</time>
      </trkpt>
      <trkpt lat="45.32102" lon="5.43296">
        <ele>479.9</ele>
        <time>2022-04-28T11:31:37Z</time>
      </trkpt>
      <trkpt lat="45.32101" lon="5.43295">
        <ele>480</ele>
        <time>2022-04-28T11:31:38Z</time>
      </trkpt>
      <trkpt lat="45.32097" lon="5.43294">
        <ele>480.3</ele>
        <time>2022-04-28T11:31:39Z</time>
      </trkpt>
      <trkpt lat="45.32094" lon="5.43293">
        <ele>480.5</ele>
        <time>2022-04-28T11:31:40Z</time>
      </trkpt>
      <trkpt lat="45.32092" lon="5.43292">
        <ele>480.7</ele>
        <time>2022-04-28T11:31:41Z</time>
      </trkpt>
      <trkpt lat="45.32088" lon="5.4329">
        <ele>481</ele>
        <time>2022-04-28T11:31:42Z</time>
      </trkpt>
      <trkpt lat="45.32087" lon="5.43289">
        <ele>481.1</ele>
        <time>2022-04-28T11:31:43Z</time>
      </trkpt>
      <trkpt lat="45.32083" lon="5.43288">
        <ele>481.4</ele>
        <time>2022-04-28T11:31:44Z</time>
      </trkpt>
      <trkpt lat="45.32082" lon="5.43288">
        <ele>481.5</ele>
        <time>2022-04-28T11:31:45Z</time>
      </trkpt>
      <trkpt lat="45.32078" lon="5.43287">
        <ele>481.8</ele>
        <time>2022-04-28T11:31:46Z</time>
      </trkpt>
      <trkpt lat="45.32076" lon="5.43287">
        <ele>481.9</ele>
        <time>2022-04-28T11:31:47Z</time>
      </trkpt>
      <trkpt lat="45.32073" lon="5.43287">
        <ele>482.2</ele>
        <time>2022-04-28T11:31:48Z</time>
      </trkpt>
      <trkpt lat="45.32069" lon="5.43287">
        <ele>482.5</ele>
        <time>2022-04-28T11:31:49Z</time>
      </trkpt>
      <trkpt lat="45.32067" lon="5.43287">
        <ele>482.6</ele>
        <time>2022-04-28T11:31:50Z</time>
      </trkpt>
      <trkpt lat="45.32064" lon="5.43287">
        <ele>482.8</ele>
        <time>2022-04-28T11:31:51Z</time>
      </trkpt>
      <trkpt lat="45.32061" lon="5.43287">
        <ele>483</ele>
        <time>2022-04-28T11:31:52Z</time>
      </trkpt>
      <trkpt lat="45.32058" lon="5.43287">
        <ele>483.2</ele>
        <time>2022-04-28T11:31:53Z</time>
      </trkpt>
      <trkpt lat="45.32056" lon="5.43287">
        <ele>483.3</ele>
        <time>2022-04-28T11:31:54Z</time>
      </trkpt>
      <trkpt lat="45.32054" lon="5.43288">
        <ele>483.5</ele>
        <time>2022-04-28T11:31:55Z</time>
      </trkpt>
      <trkpt lat="45.32051" lon="5.43288">
        <ele>483.7</ele>
        <time>2022-04-28T11:31:56Z</time>
      </trkpt>
      <trkpt lat="45.3205" lon="5.43289">
        <ele>483.8</ele>
        <time>2022-04-28T11:31:57Z</time>
      </trkpt>
      <trkpt lat="45.32047" lon="5.4329">
        <ele>484</ele>
        <time>2022-04-28T11:31:58Z</time>
      </trkpt>
      <trkpt lat="45.32043" lon="5.4329">
        <ele>484.2</ele>
        <time>2022-04-28T11:31:59Z</time>
      </trkpt>
      <trkpt lat="45.32041" lon="5.4329">
        <ele>484.4</ele>
        <time>2022-04-28T11:32:00Z</time>
      </trkpt>
      <trkpt lat="45.32037" lon="5.4329">
        <ele>484.6</ele>
        <time>2022-04-28T11:32:01Z</time>
      </trkpt>
      <trkpt lat="45.32036" lon="5.4329">
        <ele>484.7</ele>
        <time>2022-04-28T11:32:02Z</time>
      </trkpt>
      <trkpt lat="45.32032" lon="5.43292">
        <ele>485</ele>
        <time>2022-04-28T11:32:04Z</time>
      </trkpt>
      <trkpt lat="45.32029" lon="5.43293">
        <ele>485.2</ele>
        <time>2022-04-28T11:32:05Z</time>
      </trkpt>
      <trkpt lat="45.32026" lon="5.43294">
        <ele>485.4</ele>
        <time>2022-04-28T11:32:06Z</time>
      </trkpt>
      <trkpt lat="45.32023" lon="5.43296">
        <ele>485.6</ele>
        <time>2022-04-28T11:32:07Z</time>
      </trkpt>
      <trkpt lat="45.32019" lon="5.43298">
        <ele>485.8</ele>
        <time>2022-04-28T11:32:08Z</time>
      </trkpt>
      <trkpt lat="45.32017" lon="5.433">
        <ele>486</ele>
        <time>2022-04-28T11:32:09Z</time>
      </trkpt>
      <trkpt lat="45.32014" lon="5.43302">
        <ele>486.3</ele>
        <time>2022-04-28T11:32:10Z</time>
      </trkpt>
      <trkpt lat="45.32012" lon="5.43303">
        <ele>486.4</ele>
        <time>2022-04-28T11:32:11Z</time>
      </trkpt>
      <trkpt lat="45.32009" lon="5.43305">
        <ele>486.6</ele>
        <time>2022-04-28T11:32:13Z</time>
      </trkpt>
      <trkpt lat="45.32005" lon="5.43309">
        <ele>486.9</ele>
        <time>2022-04-28T11:32:14Z</time>
      </trkpt>
      <trkpt lat="45.32" lon="5.43311">
        <ele>487.3</ele>
        <time>2022-04-28T11:32:16Z</time>
      </trkpt>
      <trkpt lat="45.31997" lon="5.43314">
        <ele>487.6</ele>
        <time>2022-04-28T11:32:17Z</time>
      </trkpt>
      <trkpt lat="45.31994" lon="5.43316">
        <ele>487.8</ele>
        <time>2022-04-28T11:32:18Z</time>
      </trkpt>
      <trkpt lat="45.3199" lon="5.43319">
        <ele>488.1</ele>
        <time>2022-04-28T11:32:20Z</time>
      </trkpt>
      <trkpt lat="45.31987" lon="5.43321">
        <ele>488.4</ele>
        <time>2022-04-28T11:32:21Z</time>
      </trkpt>
      <trkpt lat="45.31983" lon="5.43321">
        <ele>488.6</ele>
        <time>2022-04-28T11:32:22Z</time>
      </trkpt>
      <trkpt lat="45.3198" lon="5.43322">
        <ele>488.9</ele>
        <time>2022-04-28T11:32:23Z</time>
      </trkpt>
      <trkpt lat="45.31977" lon="5.43321">
        <ele>489.1</ele>
        <time>2022-04-28T11:32:24Z</time>
      </trkpt>
      <trkpt lat="45.31973" lon="5.43318">
        <ele>489.4</ele>
        <time>2022-04-28T11:32:26Z</time>
      </trkpt>
      <trkpt lat="45.31971" lon="5.43315">
        <ele>489.7</ele>
        <time>2022-04-28T11:32:27Z</time>
      </trkpt>
      <trkpt lat="45.31971" lon="5.43309">
        <ele>490</ele>
        <time>2022-04-28T11:32:28Z</time>
      </trkpt>
      <trkpt lat="45.31972" lon="5.43307">
        <ele>490.1</ele>
        <time>2022-04-28T11:32:29Z</time>
      </trkpt>
      <trkpt lat="45.31972" lon="5.43302">
        <ele>490.4</ele>
        <time>2022-04-28T11:32:30Z</time>
      </trkpt>
      <trkpt lat="45.31972" lon="5.43297">
        <ele>490.6</ele>
        <time>2022-04-28T11:32:31Z</time>
      </trkpt>
      <trkpt lat="45.31974" lon="5.43294">
        <ele>490.8</ele>
        <time>2022-04-28T11:32:32Z</time>
      </trkpt>
      <trkpt lat="45.31977" lon="5.4329">
        <ele>491</ele>
        <time>2022-04-28T11:32:34Z</time>
      </trkpt>
      <trkpt lat="45.3198" lon="5.43288">
        <ele>491.2</ele>
        <time>2022-04-28T11:32:35Z</time>
      </trkpt>
      <trkpt lat="45.31981" lon="5.43288">
        <ele>491.3</ele>
        <time>2022-04-28T11:32:36Z</time>
      </trkpt>
      <trkpt lat="45.31985" lon="5.43289">
        <ele>491.5</ele>
        <time>2022-04-28T11:32:37Z</time>
      </trkpt>
      <trkpt lat="45.31986" lon="5.43289">
        <ele>491.6</ele>
        <time>2022-04-28T11:32:38Z</time>
      </trkpt>
      <trkpt lat="45.3199" lon="5.43287">
        <ele>491.8</ele>
        <time>2022-04-28T11:32:39Z</time>
      </trkpt>
      <trkpt lat="45.31991" lon="5.43286">
        <ele>491.9</ele>
        <time>2022-04-28T11:32:40Z</time>
      </trkpt>
      <trkpt lat="45.31994" lon="5.43286">
        <ele>492</ele>
        <time>2022-04-28T11:32:41Z</time>
      </trkpt>
      <trkpt lat="45.31997" lon="5.43285">
        <ele>492.1</ele>
        <time>2022-04-28T11:32:42Z</time>
      </trkpt>
      <trkpt lat="45.32" lon="5.43283">
        <ele>492.3</ele>
        <time>2022-04-28T11:32:43Z</time>
      </trkpt>
      <trkpt lat="45.32003" lon="5.43281">
        <ele>492.4</ele>
        <time>2022-04-28T11:32:44Z</time>
      </trkpt>
      <trkpt lat="45.32004" lon="5.4328">
        <ele>492.5</ele>
        <time>2022-04-28T11:32:45Z</time>
      </trkpt>
      <trkpt lat="45.32006" lon="5.43277">
        <ele>492.7</ele>
        <time>2022-04-28T11:32:46Z</time>
      </trkpt>
      <trkpt lat="45.32009" lon="5.43274">
        <ele>492.8</ele>
        <time>2022-04-28T11:32:47Z</time>
      </trkpt>
      <trkpt lat="45.3201" lon="5.43272">
        <ele>492.9</ele>
        <time>2022-04-28T11:32:48Z</time>
      </trkpt>
      <trkpt lat="45.32013" lon="5.43267">
        <ele>493.1</ele>
        <time>2022-04-28T11:32:50Z</time>
      </trkpt>
      <trkpt lat="45.32015" lon="5.43264">
        <ele>493.3</ele>
        <time>2022-04-28T11:32:51Z</time>
      </trkpt>
      <trkpt lat="45.32017" lon="5.43259">
        <ele>493.5</ele>
        <time>2022-04-28T11:32:52Z</time>
      </trkpt>
      <trkpt lat="45.32017" lon="5.43257">
        <ele>493.6</ele>
        <time>2022-04-28T11:32:53Z</time>
      </trkpt>
      <trkpt lat="45.32017" lon="5.43254">
        <ele>493.8</ele>
        <time>2022-04-28T11:32:54Z</time>
      </trkpt>
      <trkpt lat="45.32019" lon="5.43249">
        <ele>494</ele>
        <time>2022-04-28T11:32:56Z</time>
      </trkpt>
      <trkpt lat="45.32021" lon="5.43244">
        <ele>494.2</ele>
        <time>2022-04-28T11:32:57Z</time>
      </trkpt>
      <trkpt lat="45.32021" lon="5.43243">
        <ele>494.3</ele>
        <time>2022-04-28T11:32:58Z</time>
      </trkpt>
      <trkpt lat="45.32023" lon="5.43238">
        <ele>494.5</ele>
        <time>2022-04-28T11:32:59Z</time>
      </trkpt>
      <trkpt lat="45.32023" lon="5.43237">
        <ele>494.6</ele>
        <time>2022-04-28T11:33:00Z</time>
      </trkpt>
      <trkpt lat="45.32025" lon="5.43233">
        <ele>494.7</ele>
        <time>2022-04-28T11:33:01Z</time>
      </trkpt>
      <trkpt lat="45.32026" lon="5.43228">
        <ele>495</ele>
        <time>2022-04-28T11:33:02Z</time>
      </trkpt>
      <trkpt lat="45.32027" lon="5.43226">
        <ele>495</ele>
        <time>2022-04-28T11:33:03Z</time>
      </trkpt>
      <trkpt lat="45.32028" lon="5.43224">
        <ele>495.2</ele>
        <time>2022-04-28T11:33:04Z</time>
      </trkpt>
      <trkpt lat="45.32031" lon="5.4322">
        <ele>495.4</ele>
        <time>2022-04-28T11:33:06Z</time>
      </trkpt>
      <trkpt lat="45.32032" lon="5.43215">
        <ele>495.6</ele>
        <time>2022-04-28T11:33:07Z</time>
      </trkpt>
      <trkpt lat="45.32033" lon="5.43211">
        <ele>495.7</ele>
        <time>2022-04-28T11:33:08Z</time>
      </trkpt>
      <trkpt lat="45.32035" lon="5.43206">
        <ele>496</ele>
        <time>2022-04-28T11:33:09Z</time>
      </trkpt>
      <trkpt lat="45.32036" lon="5.43204">
        <ele>496</ele>
        <time>2022-04-28T11:33:10Z</time>
      </trkpt>
      <trkpt lat="45.32038" lon="5.432">
        <ele>496.2</ele>
        <time>2022-04-28T11:33:11Z</time>
      </trkpt>
      <trkpt lat="45.32038" lon="5.43198">
        <ele>496.3</ele>
        <time>2022-04-28T11:33:12Z</time>
      </trkpt>
      <trkpt lat="45.32041" lon="5.43193">
        <ele>496.6</ele>
        <time>2022-04-28T11:33:14Z</time>
      </trkpt>
      <trkpt lat="45.32042" lon="5.43188">
        <ele>496.8</ele>
        <time>2022-04-28T11:33:15Z</time>
      </trkpt>
      <trkpt lat="45.32043" lon="5.43186">
        <ele>496.9</ele>
        <time>2022-04-28T11:33:16Z</time>
      </trkpt>
      <trkpt lat="45.32045" lon="5.43182">
        <ele>497.1</ele>
        <time>2022-04-28T11:33:17Z</time>
      </trkpt>
      <trkpt lat="45.32046" lon="5.4318">
        <ele>497.2</ele>
        <time>2022-04-28T11:33:18Z</time>
      </trkpt>
      <trkpt lat="45.32048" lon="5.43177">
        <ele>497.4</ele>
        <time>2022-04-28T11:33:19Z</time>
      </trkpt>
      <trkpt lat="45.32048" lon="5.43176">
        <ele>497.5</ele>
        <time>2022-04-28T11:33:20Z</time>
      </trkpt>
      <trkpt lat="45.32051" lon="5.43172">
        <ele>497.7</ele>
        <time>2022-04-28T11:33:21Z</time>
      </trkpt>
      <trkpt lat="45.32051" lon="5.4317">
        <ele>497.8</ele>
        <time>2022-04-28T11:33:22Z</time>
      </trkpt>
      <trkpt lat="45.32054" lon="5.43165">
        <ele>498.1</ele>
        <time>2022-04-28T11:33:24Z</time>
      </trkpt>
      <trkpt lat="45.32056" lon="5.43162">
        <ele>498.2</ele>
        <time>2022-04-28T11:33:25Z</time>
      </trkpt>
      <trkpt lat="45.32059" lon="5.43159">
        <ele>498.5</ele>
        <time>2022-04-28T11:33:27Z</time>
      </trkpt>
      <trkpt lat="45.32061" lon="5.43155">
        <ele>498.7</ele>
        <time>2022-04-28T11:33:28Z</time>
      </trkpt>
      <trkpt lat="45.32063" lon="5.43152">
        <ele>498.9</ele>
        <time>2022-04-28T11:33:29Z</time>
      </trkpt>
      <trkpt lat="45.32066" lon="5.43149">
        <ele>499.1</ele>
        <time>2022-04-28T11:33:30Z</time>
      </trkpt>
      <trkpt lat="45.32067" lon="5.43148">
        <ele>499.2</ele>
        <time>2022-04-28T11:33:31Z</time>
      </trkpt>
      <trkpt lat="45.32069" lon="5.43145">
        <ele>499.3</ele>
        <time>2022-04-28T11:33:32Z</time>
      </trkpt>
      <trkpt lat="45.32072" lon="5.43142">
        <ele>499.6</ele>
        <time>2022-04-28T11:33:33Z</time>
      </trkpt>
      <trkpt lat="45.32073" lon="5.43141">
        <ele>499.6</ele>
        <time>2022-04-28T11:33:34Z</time>
      </trkpt>
      <trkpt lat="45.32076" lon="5.43138">
        <ele>499.9</ele>
        <time>2022-04-28T11:33:35Z</time>
      </trkpt>
      <trkpt lat="45.32077" lon="5.43137">
        <ele>500</ele>
        <time>2022-04-28T11:33:36Z</time>
      </trkpt>
      <trkpt lat="45.3208" lon="5.43133">
        <ele>500.2</ele>
        <time>2022-04-28T11:33:37Z</time>
      </trkpt>
      <trkpt lat="45.32081" lon="5.43132">
        <ele>500.3</ele>
        <time>2022-04-28T11:33:38Z</time>
      </trkpt>
      <trkpt lat="45.32083" lon="5.43129">
        <ele>500.5</ele>
        <time>2022-04-28T11:33:39Z</time>
      </trkpt>
      <trkpt lat="45.32085" lon="5.43127">
        <ele>500.7</ele>
        <time>2022-04-28T11:33:41Z</time>
      </trkpt>
      <trkpt lat="45.32088" lon="5.43123">
        <ele>500.9</ele>
        <time>2022-04-28T11:33:42Z</time>
      </trkpt>
      <trkpt lat="45.3209" lon="5.43122">
        <ele>501</ele>
        <time>2022-04-28T11:33:43Z</time>
      </trkpt>
      <trkpt lat="45.32092" lon="5.43119">
        <ele>501.2</ele>
        <time>2022-04-28T11:33:44Z</time>
      </trkpt>
      <trkpt lat="45.32094" lon="5.43116">
        <ele>501.4</ele>
        <time>2022-04-28T11:33:45Z</time>
      </trkpt>
      <trkpt lat="45.32097" lon="5.43114">
        <ele>501.6</ele>
        <time>2022-04-28T11:33:46Z</time>
      </trkpt>
      <trkpt lat="45.32098" lon="5.43113">
        <ele>501.7</ele>
        <time>2022-04-28T11:33:47Z</time>
      </trkpt>
      <trkpt lat="45.321" lon="5.43111">
        <ele>501.9</ele>
        <time>2022-04-28T11:33:48Z</time>
      </trkpt>
      <trkpt lat="45.32105" lon="5.43107">
        <ele>502.2</ele>
        <time>2022-04-28T11:33:50Z</time>
      </trkpt>
      <trkpt lat="45.32108" lon="5.43105">
        <ele>502.5</ele>
        <time>2022-04-28T11:33:52Z</time>
      </trkpt>
      <trkpt lat="45.32112" lon="5.43102">
        <ele>502.8</ele>
        <time>2022-04-28T11:33:53Z</time>
      </trkpt>
      <trkpt lat="45.32115" lon="5.43101">
        <ele>503</ele>
        <time>2022-04-28T11:33:54Z</time>
      </trkpt>
      <trkpt lat="45.3212" lon="5.43097">
        <ele>503.3</ele>
        <time>2022-04-28T11:33:56Z</time>
      </trkpt>
      <trkpt lat="45.32123" lon="5.43096">
        <ele>503.5</ele>
        <time>2022-04-28T11:33:57Z</time>
      </trkpt>
      <trkpt lat="45.32126" lon="5.43094">
        <ele>503.8</ele>
        <time>2022-04-28T11:33:58Z</time>
      </trkpt>
      <trkpt lat="45.32128" lon="5.43093">
        <ele>503.9</ele>
        <time>2022-04-28T11:34:00Z</time>
      </trkpt>
      <trkpt lat="45.32132" lon="5.43091">
        <ele>504.2</ele>
        <time>2022-04-28T11:34:01Z</time>
      </trkpt>
      <trkpt lat="45.32135" lon="5.43089">
        <ele>504.4</ele>
        <time>2022-04-28T11:34:02Z</time>
      </trkpt>
      <trkpt lat="45.32139" lon="5.43088">
        <ele>504.6</ele>
        <time>2022-04-28T11:34:03Z</time>
      </trkpt>
      <trkpt lat="45.3214" lon="5.43088">
        <ele>504.7</ele>
        <time>2022-04-28T11:34:04Z</time>
      </trkpt>
      <trkpt lat="45.32144" lon="5.43087">
        <ele>505</ele>
        <time>2022-04-28T11:34:05Z</time>
      </trkpt>
      <trkpt lat="45.32145" lon="5.43086">
        <ele>505.1</ele>
        <time>2022-04-28T11:34:06Z</time>
      </trkpt>
      <trkpt lat="45.32148" lon="5.43085">
        <ele>505.3</ele>
        <time>2022-04-28T11:34:07Z</time>
      </trkpt>
      <trkpt lat="45.32152" lon="5.43084">
        <ele>505.5</ele>
        <time>2022-04-28T11:34:08Z</time>
      </trkpt>
      <trkpt lat="45.32153" lon="5.43083">
        <ele>505.6</ele>
        <time>2022-04-28T11:34:09Z</time>
      </trkpt>
      <trkpt lat="45.32156" lon="5.43081">
        <ele>505.8</ele>
        <time>2022-04-28T11:34:11Z</time>
      </trkpt>
      <trkpt lat="45.32159" lon="5.43079">
        <ele>506</ele>
        <time>2022-04-28T11:34:12Z</time>
      </trkpt>
      <trkpt lat="45.32161" lon="5.43076">
        <ele>506.2</ele>
        <time>2022-04-28T11:34:13Z</time>
      </trkpt>
      <trkpt lat="45.32164" lon="5.43073">
        <ele>506.5</ele>
        <time>2022-04-28T11:34:15Z</time>
      </trkpt>
      <trkpt lat="45.32167" lon="5.43068">
        <ele>506.7</ele>
        <time>2022-04-28T11:34:16Z</time>
      </trkpt>
      <trkpt lat="45.32168" lon="5.43064">
        <ele>506.9</ele>
        <time>2022-04-28T11:34:17Z</time>
      </trkpt>
      <trkpt lat="45.32169" lon="5.4306">
        <ele>507</ele>
        <time>2022-04-28T11:34:18Z</time>
      </trkpt>
      <trkpt lat="45.32169" lon="5.43056">
        <ele>507.2</ele>
        <time>2022-04-28T11:34:19Z</time>
      </trkpt>
      <trkpt lat="45.32169" lon="5.43051">
        <ele>507.4</ele>
        <time>2022-04-28T11:34:20Z</time>
      </trkpt>
      <trkpt lat="45.32169" lon="5.43049">
        <ele>507.4</ele>
        <time>2022-04-28T11:34:21Z</time>
      </trkpt>
      <trkpt lat="45.32168" lon="5.43043">
        <ele>507.6</ele>
        <time>2022-04-28T11:34:22Z</time>
      </trkpt>
      <trkpt lat="45.32168" lon="5.43041">
        <ele>507.7</ele>
        <time>2022-04-28T11:34:23Z</time>
      </trkpt>
      <trkpt lat="45.32166" lon="5.43036">
        <ele>507.9</ele>
        <time>2022-04-28T11:34:24Z</time>
      </trkpt>
      <trkpt lat="45.32166" lon="5.43034">
        <ele>507.9</ele>
        <time>2022-04-28T11:34:25Z</time>
      </trkpt>
      <trkpt lat="45.32165" lon="5.43031">
        <ele>508.1</ele>
        <time>2022-04-28T11:34:26Z</time>
      </trkpt>
      <trkpt lat="45.32162" lon="5.43027">
        <ele>508.3</ele>
        <time>2022-04-28T11:34:27Z</time>
      </trkpt>
      <trkpt lat="45.32161" lon="5.43026">
        <ele>508.3</ele>
        <time>2022-04-28T11:34:28Z</time>
      </trkpt>
      <trkpt lat="45.32159" lon="5.43022">
        <ele>508.5</ele>
        <time>2022-04-28T11:34:29Z</time>
      </trkpt>
      <trkpt lat="45.32158" lon="5.4302">
        <ele>508.6</ele>
        <time>2022-04-28T11:34:30Z</time>
      </trkpt>
      <trkpt lat="45.32155" lon="5.43016">
        <ele>508.8</ele>
        <time>2022-04-28T11:34:31Z</time>
      </trkpt>
      <trkpt lat="45.32154" lon="5.43015">
        <ele>508.9</ele>
        <time>2022-04-28T11:34:32Z</time>
      </trkpt>
      <trkpt lat="45.32152" lon="5.43013">
        <ele>509.1</ele>
        <time>2022-04-28T11:34:33Z</time>
      </trkpt>
      <trkpt lat="45.3215" lon="5.4301">
        <ele>509.3</ele>
        <time>2022-04-28T11:34:34Z</time>
      </trkpt>
      <trkpt lat="45.32147" lon="5.43006">
        <ele>509.5</ele>
        <time>2022-04-28T11:34:35Z</time>
      </trkpt>
      <trkpt lat="45.32146" lon="5.43005">
        <ele>509.6</ele>
        <time>2022-04-28T11:34:36Z</time>
      </trkpt>
      <trkpt lat="45.32143" lon="5.43002">
        <ele>509.8</ele>
        <time>2022-04-28T11:34:38Z</time>
      </trkpt>
      <trkpt lat="45.3214" lon="5.42999">
        <ele>510</ele>
        <time>2022-04-28T11:34:39Z</time>
      </trkpt>
      <trkpt lat="45.32138" lon="5.42997">
        <ele>510.2</ele>
        <time>2022-04-28T11:34:40Z</time>
      </trkpt>
      <trkpt lat="45.32136" lon="5.42995">
        <ele>510.4</ele>
        <time>2022-04-28T11:34:42Z</time>
      </trkpt>
      <trkpt lat="45.32132" lon="5.42993">
        <ele>510.6</ele>
        <time>2022-04-28T11:34:43Z</time>
      </trkpt>
      <trkpt lat="45.3213" lon="5.4299">
        <ele>510.8</ele>
        <time>2022-04-28T11:34:44Z</time>
      </trkpt>
      <trkpt lat="45.32127" lon="5.42988">
        <ele>511.1</ele>
        <time>2022-04-28T11:34:46Z</time>
      </trkpt>
      <trkpt lat="45.32124" lon="5.42986">
        <ele>511.2</ele>
        <time>2022-04-28T11:34:47Z</time>
      </trkpt>
      <trkpt lat="45.32121" lon="5.42984">
        <ele>511.4</ele>
        <time>2022-04-28T11:34:48Z</time>
      </trkpt>
      <trkpt lat="45.32118" lon="5.42982">
        <ele>511.7</ele>
        <time>2022-04-28T11:34:49Z</time>
      </trkpt>
      <trkpt lat="45.32116" lon="5.42981">
        <ele>511.8</ele>
        <time>2022-04-28T11:34:50Z</time>
      </trkpt>
      <trkpt lat="45.32113" lon="5.4298">
        <ele>512</ele>
        <time>2022-04-28T11:34:51Z</time>
      </trkpt>
      <trkpt lat="45.3211" lon="5.42978">
        <ele>512.1</ele>
        <time>2022-04-28T11:34:53Z</time>
      </trkpt>
      <trkpt lat="45.32108" lon="5.42976">
        <ele>512.3</ele>
        <time>2022-04-28T11:34:54Z</time>
      </trkpt>
      <trkpt lat="45.32105" lon="5.42974">
        <ele>512.5</ele>
        <time>2022-04-28T11:34:55Z</time>
      </trkpt>
      <trkpt lat="45.32102" lon="5.42973">
        <ele>512.6</ele>
        <time>2022-04-28T11:34:56Z</time>
      </trkpt>
      <trkpt lat="45.32098" lon="5.42971">
        <ele>512.8</ele>
        <time>2022-04-28T11:34:57Z</time>
      </trkpt>
      <trkpt lat="45.32096" lon="5.42969">
        <ele>513</ele>
        <time>2022-04-28T11:34:58Z</time>
      </trkpt>
      <trkpt lat="45.32093" lon="5.42967">
        <ele>513.1</ele>
        <time>2022-04-28T11:34:59Z</time>
      </trkpt>
      <trkpt lat="45.3209" lon="5.42964">
        <ele>513.3</ele>
        <time>2022-04-28T11:35:01Z</time>
      </trkpt>
      <trkpt lat="45.32086" lon="5.42961">
        <ele>513.6</ele>
        <time>2022-04-28T11:35:02Z</time>
      </trkpt>
      <trkpt lat="45.32082" lon="5.42957">
        <ele>513.8</ele>
        <time>2022-04-28T11:35:04Z</time>
      </trkpt>
      <trkpt lat="45.32079" lon="5.42952">
        <ele>514.1</ele>
        <time>2022-04-28T11:35:06Z</time>
      </trkpt>
      <trkpt lat="45.32078" lon="5.4295">
        <ele>514.2</ele>
        <time>2022-04-28T11:35:07Z</time>
      </trkpt>
      <trkpt lat="45.32076" lon="5.42948">
        <ele>514.3</ele>
        <time>2022-04-28T11:35:08Z</time>
      </trkpt>
      <trkpt lat="45.32075" lon="5.42943">
        <ele>514.6</ele>
        <time>2022-04-28T11:35:10Z</time>
      </trkpt>
      <trkpt lat="45.32074" lon="5.4294">
        <ele>514.7</ele>
        <time>2022-04-28T11:35:11Z</time>
      </trkpt>
      <trkpt lat="45.32073" lon="5.42936">
        <ele>514.9</ele>
        <time>2022-04-28T11:35:12Z</time>
      </trkpt>
      <trkpt lat="45.32072" lon="5.42932">
        <ele>515.1</ele>
        <time>2022-04-28T11:35:13Z</time>
      </trkpt>
      <trkpt lat="45.32071" lon="5.42927">
        <ele>515.3</ele>
        <time>2022-04-28T11:35:14Z</time>
      </trkpt>
      <trkpt lat="45.32071" lon="5.42925">
        <ele>515.4</ele>
        <time>2022-04-28T11:35:15Z</time>
      </trkpt>
      <trkpt lat="45.32069" lon="5.4292">
        <ele>515.6</ele>
        <time>2022-04-28T11:35:16Z</time>
      </trkpt>
      <trkpt lat="45.32069" lon="5.42918">
        <ele>515.7</ele>
        <time>2022-04-28T11:35:17Z</time>
      </trkpt>
      <trkpt lat="45.32068" lon="5.42913">
        <ele>516</ele>
        <time>2022-04-28T11:35:18Z</time>
      </trkpt>
      <trkpt lat="45.32067" lon="5.42911">
        <ele>516</ele>
        <time>2022-04-28T11:35:19Z</time>
      </trkpt>
      <trkpt lat="45.32066" lon="5.42906">
        <ele>516.3</ele>
        <time>2022-04-28T11:35:20Z</time>
      </trkpt>
      <trkpt lat="45.32065" lon="5.42904">
        <ele>516.4</ele>
        <time>2022-04-28T11:35:21Z</time>
      </trkpt>
      <trkpt lat="45.32064" lon="5.42898">
        <ele>516.6</ele>
        <time>2022-04-28T11:35:22Z</time>
      </trkpt>
      <trkpt lat="45.32064" lon="5.42896">
        <ele>516.7</ele>
        <time>2022-04-28T11:35:23Z</time>
      </trkpt>
      <trkpt lat="45.32063" lon="5.42892">
        <ele>516.9</ele>
        <time>2022-04-28T11:35:24Z</time>
      </trkpt>
      <trkpt lat="45.32062" lon="5.42888">
        <ele>517.1</ele>
        <time>2022-04-28T11:35:25Z</time>
      </trkpt>
      <trkpt lat="45.32061" lon="5.42883">
        <ele>517.3</ele>
        <time>2022-04-28T11:35:26Z</time>
      </trkpt>
      <trkpt lat="45.3206" lon="5.42882">
        <ele>517.4</ele>
        <time>2022-04-28T11:35:27Z</time>
      </trkpt>
      <trkpt lat="45.32059" lon="5.42878">
        <ele>517.6</ele>
        <time>2022-04-28T11:35:28Z</time>
      </trkpt>
      <trkpt lat="45.32057" lon="5.42874">
        <ele>517.8</ele>
        <time>2022-04-28T11:35:29Z</time>
      </trkpt>
      <trkpt lat="45.32056" lon="5.42872">
        <ele>517.9</ele>
        <time>2022-04-28T11:35:30Z</time>
      </trkpt>
      <trkpt lat="45.32054" lon="5.42869">
        <ele>518.1</ele>
        <time>2022-04-28T11:35:31Z</time>
      </trkpt>
      <trkpt lat="45.32053" lon="5.42867">
        <ele>518.1</ele>
        <time>2022-04-28T11:35:32Z</time>
      </trkpt>
      <trkpt lat="45.32051" lon="5.42865">
        <ele>518.3</ele>
        <time>2022-04-28T11:35:33Z</time>
      </trkpt>
      <trkpt lat="45.32048" lon="5.42863">
        <ele>518.5</ele>
        <time>2022-04-28T11:35:35Z</time>
      </trkpt>
      <trkpt lat="45.32043" lon="5.42861">
        <ele>518.8</ele>
        <time>2022-04-28T11:35:36Z</time>
      </trkpt>
      <trkpt lat="45.32039" lon="5.42859">
        <ele>519</ele>
        <time>2022-04-28T11:35:38Z</time>
      </trkpt>
      <trkpt lat="45.32036" lon="5.4286">
        <ele>519.2</ele>
        <time>2022-04-28T11:35:39Z</time>
      </trkpt>
      <trkpt lat="45.32032" lon="5.42861">
        <ele>519.4</ele>
        <time>2022-04-28T11:35:40Z</time>
      </trkpt>
      <trkpt lat="45.32029" lon="5.42863">
        <ele>519.6</ele>
        <time>2022-04-28T11:35:41Z</time>
      </trkpt>
      <trkpt lat="45.32027" lon="5.42864">
        <ele>519.7</ele>
        <time>2022-04-28T11:35:42Z</time>
      </trkpt>
      <trkpt lat="45.32024" lon="5.42869">
        <ele>520</ele>
        <time>2022-04-28T11:35:44Z</time>
      </trkpt>
      <trkpt lat="45.32021" lon="5.42873">
        <ele>520.2</ele>
        <time>2022-04-28T11:35:45Z</time>
      </trkpt>
      <trkpt lat="45.32018" lon="5.42876">
        <ele>520.4</ele>
        <time>2022-04-28T11:35:46Z</time>
      </trkpt>
      <trkpt lat="45.32017" lon="5.4288">
        <ele>520.5</ele>
        <time>2022-04-28T11:35:47Z</time>
      </trkpt>
      <trkpt lat="45.32016" lon="5.42885">
        <ele>520.7</ele>
        <time>2022-04-28T11:35:49Z</time>
      </trkpt>
      <trkpt lat="45.32016" lon="5.42889">
        <ele>520.9</ele>
        <time>2022-04-28T11:35:50Z</time>
      </trkpt>
      <trkpt lat="45.32015" lon="5.42894">
        <ele>521</ele>
        <time>2022-04-28T11:35:51Z</time>
      </trkpt>
      <trkpt lat="45.32014" lon="5.42899">
        <ele>521.2</ele>
        <time>2022-04-28T11:35:52Z</time>
      </trkpt>
      <trkpt lat="45.32013" lon="5.42904">
        <ele>521.4</ele>
        <time>2022-04-28T11:35:53Z</time>
      </trkpt>
      <trkpt lat="45.32013" lon="5.42909">
        <ele>521.6</ele>
        <time>2022-04-28T11:35:54Z</time>
      </trkpt>
      <trkpt lat="45.32013" lon="5.42911">
        <ele>521.7</ele>
        <time>2022-04-28T11:35:55Z</time>
      </trkpt>
      <trkpt lat="45.32012" lon="5.42914">
        <ele>521.8</ele>
        <time>2022-04-28T11:35:56Z</time>
      </trkpt>
      <trkpt lat="45.3201" lon="5.42919">
        <ele>522</ele>
        <time>2022-04-28T11:35:58Z</time>
      </trkpt>
      <trkpt lat="45.32008" lon="5.42923">
        <ele>522.2</ele>
        <time>2022-04-28T11:35:59Z</time>
      </trkpt>
      <trkpt lat="45.32005" lon="5.42926">
        <ele>522.4</ele>
        <time>2022-04-28T11:36:00Z</time>
      </trkpt>
      <trkpt lat="45.32003" lon="5.42929">
        <ele>522.6</ele>
        <time>2022-04-28T11:36:01Z</time>
      </trkpt>
      <trkpt lat="45.32" lon="5.42932">
        <ele>522.8</ele>
        <time>2022-04-28T11:36:02Z</time>
      </trkpt>
      <trkpt lat="45.31998" lon="5.42934">
        <ele>522.9</ele>
        <time>2022-04-28T11:36:03Z</time>
      </trkpt>
      <trkpt lat="45.31995" lon="5.42936">
        <ele>523.1</ele>
        <time>2022-04-28T11:36:04Z</time>
      </trkpt>
      <trkpt lat="45.31993" lon="5.42939">
        <ele>523.2</ele>
        <time>2022-04-28T11:36:05Z</time>
      </trkpt>
      <trkpt lat="45.3199" lon="5.42941">
        <ele>523.4</ele>
        <time>2022-04-28T11:36:06Z</time>
      </trkpt>
      <trkpt lat="45.31987" lon="5.42943">
        <ele>523.5</ele>
        <time>2022-04-28T11:36:07Z</time>
      </trkpt>
      <trkpt lat="45.31985" lon="5.42945">
        <ele>523.7</ele>
        <time>2022-04-28T11:36:08Z</time>
      </trkpt>
      <trkpt lat="45.31983" lon="5.42947">
        <ele>523.9</ele>
        <time>2022-04-28T11:36:09Z</time>
      </trkpt>
      <trkpt lat="45.3198" lon="5.42949">
        <ele>524</ele>
        <time>2022-04-28T11:36:10Z</time>
      </trkpt>
      <trkpt lat="45.31977" lon="5.42951">
        <ele>524.2</ele>
        <time>2022-04-28T11:36:11Z</time>
      </trkpt>
      <trkpt lat="45.31974" lon="5.42955">
        <ele>524.5</ele>
        <time>2022-04-28T11:36:13Z</time>
      </trkpt>
      <trkpt lat="45.3197" lon="5.42958">
        <ele>524.7</ele>
        <time>2022-04-28T11:36:14Z</time>
      </trkpt>
      <trkpt lat="45.31969" lon="5.42959">
        <ele>524.8</ele>
        <time>2022-04-28T11:36:15Z</time>
      </trkpt>
      <trkpt lat="45.31965" lon="5.42962">
        <ele>525</ele>
        <time>2022-04-28T11:36:16Z</time>
      </trkpt>
      <trkpt lat="45.31963" lon="5.42964">
        <ele>525.2</ele>
        <time>2022-04-28T11:36:17Z</time>
      </trkpt>
      <trkpt lat="45.31959" lon="5.42967">
        <ele>525.5</ele>
        <time>2022-04-28T11:36:18Z</time>
      </trkpt>
      <trkpt lat="45.31958" lon="5.42968">
        <ele>525.6</ele>
        <time>2022-04-28T11:36:19Z</time>
      </trkpt>
      <trkpt lat="45.31954" lon="5.42972">
        <ele>525.9</ele>
        <time>2022-04-28T11:36:21Z</time>
      </trkpt>
      <trkpt lat="45.31951" lon="5.42974">
        <ele>526.1</ele>
        <time>2022-04-28T11:36:22Z</time>
      </trkpt>
      <trkpt lat="45.31947" lon="5.42977">
        <ele>526.3</ele>
        <time>2022-04-28T11:36:24Z</time>
      </trkpt>
      <trkpt lat="45.31943" lon="5.4298">
        <ele>526.6</ele>
        <time>2022-04-28T11:36:25Z</time>
      </trkpt>
      <trkpt lat="45.31941" lon="5.42983">
        <ele>526.8</ele>
        <time>2022-04-28T11:36:26Z</time>
      </trkpt>
      <trkpt lat="45.31937" lon="5.42986">
        <ele>527</ele>
        <time>2022-04-28T11:36:27Z</time>
      </trkpt>
      <trkpt lat="45.31936" lon="5.42987">
        <ele>527.1</ele>
        <time>2022-04-28T11:36:28Z</time>
      </trkpt>
      <trkpt lat="45.31934" lon="5.42991">
        <ele>527.3</ele>
        <time>2022-04-28T11:36:29Z</time>
      </trkpt>
      <trkpt lat="45.31933" lon="5.42992">
        <ele>527.4</ele>
        <time>2022-04-28T11:36:30Z</time>
      </trkpt>
      <trkpt lat="45.31931" lon="5.42995">
        <ele>527.5</ele>
        <time>2022-04-28T11:36:31Z</time>
      </trkpt>
      <trkpt lat="45.3193" lon="5.42999">
        <ele>527.7</ele>
        <time>2022-04-28T11:36:32Z</time>
      </trkpt>
      <trkpt lat="45.31928" lon="5.43002">
        <ele>527.9</ele>
        <time>2022-04-28T11:36:33Z</time>
      </trkpt>
      <trkpt lat="45.31927" lon="5.43007">
        <ele>528.1</ele>
        <time>2022-04-28T11:36:35Z</time>
      </trkpt>
      <trkpt lat="45.31925" lon="5.43011">
        <ele>528.3</ele>
        <time>2022-04-28T11:36:36Z</time>
      </trkpt>
      <trkpt lat="45.31924" lon="5.43016">
        <ele>528.6</ele>
        <time>2022-04-28T11:36:37Z</time>
      </trkpt>
      <trkpt lat="45.31922" lon="5.43019">
        <ele>528.7</ele>
        <time>2022-04-28T11:36:38Z</time>
      </trkpt>
      <trkpt lat="45.31921" lon="5.43023">
        <ele>528.9</ele>
        <time>2022-04-28T11:36:39Z</time>
      </trkpt>
      <trkpt lat="45.3192" lon="5.43027">
        <ele>529.1</ele>
        <time>2022-04-28T11:36:40Z</time>
      </trkpt>
      <trkpt lat="45.31919" lon="5.43031">
        <ele>529.3</ele>
        <time>2022-04-28T11:36:41Z</time>
      </trkpt>
      <trkpt lat="45.31918" lon="5.43036">
        <ele>529.5</ele>
        <time>2022-04-28T11:36:43Z</time>
      </trkpt>
      <trkpt lat="45.31918" lon="5.43039">
        <ele>529.7</ele>
        <time>2022-04-28T11:36:44Z</time>
      </trkpt>
      <trkpt lat="45.31918" lon="5.43044">
        <ele>529.8</ele>
        <time>2022-04-28T11:36:45Z</time>
      </trkpt>
      <trkpt lat="45.31917" lon="5.43048">
        <ele>530</ele>
        <time>2022-04-28T11:36:46Z</time>
      </trkpt>
      <trkpt lat="45.31916" lon="5.43052">
        <ele>530.2</ele>
        <time>2022-04-28T11:36:47Z</time>
      </trkpt>
      <trkpt lat="45.31915" lon="5.43057">
        <ele>530.4</ele>
        <time>2022-04-28T11:36:48Z</time>
      </trkpt>
      <trkpt lat="45.31915" lon="5.43058">
        <ele>530.5</ele>
        <time>2022-04-28T11:36:49Z</time>
      </trkpt>
      <trkpt lat="45.31915" lon="5.43063">
        <ele>530.7</ele>
        <time>2022-04-28T11:36:50Z</time>
      </trkpt>
      <trkpt lat="45.31915" lon="5.43064">
        <ele>530.8</ele>
        <time>2022-04-28T11:36:51Z</time>
      </trkpt>
      <trkpt lat="45.31914" lon="5.43069">
        <ele>531</ele>
        <time>2022-04-28T11:36:52Z</time>
      </trkpt>
      <trkpt lat="45.31915" lon="5.43071">
        <ele>531.1</ele>
        <time>2022-04-28T11:36:53Z</time>
      </trkpt>
      <trkpt lat="45.31914" lon="5.43077">
        <ele>531.3</ele>
        <time>2022-04-28T11:36:55Z</time>
      </trkpt>
      <trkpt lat="45.31914" lon="5.43081">
        <ele>531.5</ele>
        <time>2022-04-28T11:36:56Z</time>
      </trkpt>
      <trkpt lat="45.31914" lon="5.43086">
        <ele>531.8</ele>
        <time>2022-04-28T11:36:57Z</time>
      </trkpt>
      <trkpt lat="45.31913" lon="5.4309">
        <ele>531.9</ele>
        <time>2022-04-28T11:36:58Z</time>
      </trkpt>
      <trkpt lat="45.31913" lon="5.43094">
        <ele>532.1</ele>
        <time>2022-04-28T11:36:59Z</time>
      </trkpt>
      <trkpt lat="45.31912" lon="5.43099">
        <ele>532.3</ele>
        <time>2022-04-28T11:37:00Z</time>
      </trkpt>
      <trkpt lat="45.31912" lon="5.43103">
        <ele>532.5</ele>
        <time>2022-04-28T11:37:01Z</time>
      </trkpt>
      <trkpt lat="45.31912" lon="5.43106">
        <ele>532.6</ele>
        <time>2022-04-28T11:37:02Z</time>
      </trkpt>
      <trkpt lat="45.31911" lon="5.43111">
        <ele>532.9</ele>
        <time>2022-04-28T11:37:04Z</time>
      </trkpt>
      <trkpt lat="45.31911" lon="5.43117">
        <ele>533.1</ele>
        <time>2022-04-28T11:37:05Z</time>
      </trkpt>
      <trkpt lat="45.3191" lon="5.43121">
        <ele>533.3</ele>
        <time>2022-04-28T11:37:06Z</time>
      </trkpt>
      <trkpt lat="45.31909" lon="5.43126">
        <ele>533.5</ele>
        <time>2022-04-28T11:37:07Z</time>
      </trkpt>
      <trkpt lat="45.31909" lon="5.43128">
        <ele>533.6</ele>
        <time>2022-04-28T11:37:08Z</time>
      </trkpt>
      <trkpt lat="45.31909" lon="5.43132">
        <ele>533.8</ele>
        <time>2022-04-28T11:37:09Z</time>
      </trkpt>
      <trkpt lat="45.31908" lon="5.43136">
        <ele>533.9</ele>
        <time>2022-04-28T11:37:10Z</time>
      </trkpt>
      <trkpt lat="45.31908" lon="5.43139">
        <ele>534.1</ele>
        <time>2022-04-28T11:37:11Z</time>
      </trkpt>
      <trkpt lat="45.31908" lon="5.43145">
        <ele>534.3</ele>
        <time>2022-04-28T11:37:13Z</time>
      </trkpt>
      <trkpt lat="45.31907" lon="5.43149">
        <ele>534.5</ele>
        <time>2022-04-28T11:37:14Z</time>
      </trkpt>
      <trkpt lat="45.31906" lon="5.43154">
        <ele>534.7</ele>
        <time>2022-04-28T11:37:15Z</time>
      </trkpt>
      <trkpt lat="45.31905" lon="5.43155">
        <ele>534.7</ele>
        <time>2022-04-28T11:37:16Z</time>
      </trkpt>
      <trkpt lat="45.31904" lon="5.43161">
        <ele>535</ele>
        <time>2022-04-28T11:37:17Z</time>
      </trkpt>
      <trkpt lat="45.31903" lon="5.43163">
        <ele>535.1</ele>
        <time>2022-04-28T11:37:18Z</time>
      </trkpt>
      <trkpt lat="45.31902" lon="5.43167">
        <ele>535.3</ele>
        <time>2022-04-28T11:37:19Z</time>
      </trkpt>
      <trkpt lat="45.31902" lon="5.43171">
        <ele>535.4</ele>
        <time>2022-04-28T11:37:20Z</time>
      </trkpt>
      <trkpt lat="45.31899" lon="5.43176">
        <ele>535.7</ele>
        <time>2022-04-28T11:37:22Z</time>
      </trkpt>
      <trkpt lat="45.31897" lon="5.4318">
        <ele>535.9</ele>
        <time>2022-04-28T11:37:23Z</time>
      </trkpt>
      <trkpt lat="45.31895" lon="5.43183">
        <ele>536.1</ele>
        <time>2022-04-28T11:37:24Z</time>
      </trkpt>
      <trkpt lat="45.31893" lon="5.43186">
        <ele>536.2</ele>
        <time>2022-04-28T11:37:25Z</time>
      </trkpt>
      <trkpt lat="45.3189" lon="5.43189">
        <ele>536.5</ele>
        <time>2022-04-28T11:37:27Z</time>
      </trkpt>
      <trkpt lat="45.31887" lon="5.4319">
        <ele>536.7</ele>
        <time>2022-04-28T11:37:28Z</time>
      </trkpt>
      <trkpt lat="45.31883" lon="5.43191">
        <ele>536.9</ele>
        <time>2022-04-28T11:37:29Z</time>
      </trkpt>
      <trkpt lat="45.3188" lon="5.43193">
        <ele>537.2</ele>
        <time>2022-04-28T11:37:30Z</time>
      </trkpt>
      <trkpt lat="45.31877" lon="5.43194">
        <ele>537.4</ele>
        <time>2022-04-28T11:37:31Z</time>
      </trkpt>
      <trkpt lat="45.31873" lon="5.43195">
        <ele>537.6</ele>
        <time>2022-04-28T11:37:32Z</time>
      </trkpt>
      <trkpt lat="45.31872" lon="5.43196">
        <ele>537.7</ele>
        <time>2022-04-28T11:37:33Z</time>
      </trkpt>
      <trkpt lat="45.31869" lon="5.43197">
        <ele>537.9</ele>
        <time>2022-04-28T11:37:34Z</time>
      </trkpt>
      <trkpt lat="45.31866" lon="5.43198">
        <ele>538.1</ele>
        <time>2022-04-28T11:37:35Z</time>
      </trkpt>
      <trkpt lat="45.31863" lon="5.43199">
        <ele>538.3</ele>
        <time>2022-04-28T11:37:36Z</time>
      </trkpt>
      <trkpt lat="45.31859" lon="5.432">
        <ele>538.5</ele>
        <time>2022-04-28T11:37:37Z</time>
      </trkpt>
      <trkpt lat="45.31857" lon="5.432">
        <ele>538.6</ele>
        <time>2022-04-28T11:37:38Z</time>
      </trkpt>
      <trkpt lat="45.31854" lon="5.43201">
        <ele>538.8</ele>
        <time>2022-04-28T11:37:39Z</time>
      </trkpt>
      <trkpt lat="45.31851" lon="5.43202">
        <ele>539</ele>
        <time>2022-04-28T11:37:40Z</time>
      </trkpt>
      <trkpt lat="45.31848" lon="5.43204">
        <ele>539.2</ele>
        <time>2022-04-28T11:37:41Z</time>
      </trkpt>
      <trkpt lat="45.31845" lon="5.43205">
        <ele>539.4</ele>
        <time>2022-04-28T11:37:42Z</time>
      </trkpt>
      <trkpt lat="45.31843" lon="5.43206">
        <ele>539.6</ele>
        <time>2022-04-28T11:37:43Z</time>
      </trkpt>
      <trkpt lat="45.3184" lon="5.43207">
        <ele>539.8</ele>
        <time>2022-04-28T11:37:44Z</time>
      </trkpt>
      <trkpt lat="45.31837" lon="5.43209">
        <ele>539.9</ele>
        <time>2022-04-28T11:37:46Z</time>
      </trkpt>
      <trkpt lat="45.31834" lon="5.4321">
        <ele>540.1</ele>
        <time>2022-04-28T11:37:47Z</time>
      </trkpt>
      <trkpt lat="45.31831" lon="5.43211">
        <ele>540.3</ele>
        <time>2022-04-28T11:37:48Z</time>
      </trkpt>
      <trkpt lat="45.31828" lon="5.43212">
        <ele>540.5</ele>
        <time>2022-04-28T11:37:49Z</time>
      </trkpt>
      <trkpt lat="45.31825" lon="5.43214">
        <ele>540.7</ele>
        <time>2022-04-28T11:37:50Z</time>
      </trkpt>
      <trkpt lat="45.31822" lon="5.43214">
        <ele>540.9</ele>
        <time>2022-04-28T11:37:51Z</time>
      </trkpt>
      <trkpt lat="45.31819" lon="5.43215">
        <ele>541</ele>
        <time>2022-04-28T11:37:52Z</time>
      </trkpt>
      <trkpt lat="45.31814" lon="5.43216">
        <ele>541.3</ele>
        <time>2022-04-28T11:37:54Z</time>
      </trkpt>
      <trkpt lat="45.3181" lon="5.43216">
        <ele>541.5</ele>
        <time>2022-04-28T11:37:55Z</time>
      </trkpt>
      <trkpt lat="45.31807" lon="5.43215">
        <ele>541.7</ele>
        <time>2022-04-28T11:37:56Z</time>
      </trkpt>
      <trkpt lat="45.31805" lon="5.43215">
        <ele>541.8</ele>
        <time>2022-04-28T11:37:57Z</time>
      </trkpt>
      <trkpt lat="45.31801" lon="5.43215">
        <ele>542</ele>
        <time>2022-04-28T11:37:58Z</time>
      </trkpt>
      <trkpt lat="45.31798" lon="5.43215">
        <ele>542.2</ele>
        <time>2022-04-28T11:37:59Z</time>
      </trkpt>
      <trkpt lat="45.31795" lon="5.43215">
        <ele>542.4</ele>
        <time>2022-04-28T11:38:00Z</time>
      </trkpt>
      <trkpt lat="45.31793" lon="5.43214">
        <ele>542.5</ele>
        <time>2022-04-28T11:38:01Z</time>
      </trkpt>
      <trkpt lat="45.31789" lon="5.43212">
        <ele>542.8</ele>
        <time>2022-04-28T11:38:02Z</time>
      </trkpt>
      <trkpt lat="45.31787" lon="5.43212">
        <ele>542.9</ele>
        <time>2022-04-28T11:38:03Z</time>
      </trkpt>
      <trkpt lat="45.31784" lon="5.43209">
        <ele>543.2</ele>
        <time>2022-04-28T11:38:04Z</time>
      </trkpt>
      <trkpt lat="45.31783" lon="5.43207">
        <ele>543.2</ele>
        <time>2022-04-28T11:38:05Z</time>
      </trkpt>
      <trkpt lat="45.3178" lon="5.43204">
        <ele>543.5</ele>
        <time>2022-04-28T11:38:06Z</time>
      </trkpt>
      <trkpt lat="45.31779" lon="5.43203">
        <ele>543.6</ele>
        <time>2022-04-28T11:38:07Z</time>
      </trkpt>
      <trkpt lat="45.31777" lon="5.43198">
        <ele>543.8</ele>
        <time>2022-04-28T11:38:09Z</time>
      </trkpt>
      <trkpt lat="45.31775" lon="5.43194">
        <ele>544.1</ele>
        <time>2022-04-28T11:38:10Z</time>
      </trkpt>
      <trkpt lat="45.31774" lon="5.4319">
        <ele>544.2</ele>
        <time>2022-04-28T11:38:11Z</time>
      </trkpt>
      <trkpt lat="45.31773" lon="5.43184">
        <ele>544.5</ele>
        <time>2022-04-28T11:38:12Z</time>
      </trkpt>
      <trkpt lat="45.31773" lon="5.43182">
        <ele>544.6</ele>
        <time>2022-04-28T11:38:13Z</time>
      </trkpt>
      <trkpt lat="45.31772" lon="5.43179">
        <ele>544.8</ele>
        <time>2022-04-28T11:38:14Z</time>
      </trkpt>
      <trkpt lat="45.31771" lon="5.43175">
        <ele>544.9</ele>
        <time>2022-04-28T11:38:15Z</time>
      </trkpt>
      <trkpt lat="45.3177" lon="5.43171">
        <ele>545.1</ele>
        <time>2022-04-28T11:38:16Z</time>
      </trkpt>
      <trkpt lat="45.31768" lon="5.43166">
        <ele>545.3</ele>
        <time>2022-04-28T11:38:17Z</time>
      </trkpt>
      <trkpt lat="45.31768" lon="5.43165">
        <ele>545.4</ele>
        <time>2022-04-28T11:38:18Z</time>
      </trkpt>
      <trkpt lat="45.31767" lon="5.43161">
        <ele>545.6</ele>
        <time>2022-04-28T11:38:19Z</time>
      </trkpt>
      <trkpt lat="45.31765" lon="5.43156">
        <ele>545.8</ele>
        <time>2022-04-28T11:38:20Z</time>
      </trkpt>
      <trkpt lat="45.31765" lon="5.43154">
        <ele>545.9</ele>
        <time>2022-04-28T11:38:21Z</time>
      </trkpt>
      <trkpt lat="45.31764" lon="5.4315">
        <ele>546.1</ele>
        <time>2022-04-28T11:38:22Z</time>
      </trkpt>
      <trkpt lat="45.31762" lon="5.43145">
        <ele>546.3</ele>
        <time>2022-04-28T11:38:23Z</time>
      </trkpt>
      <trkpt lat="45.31762" lon="5.43144">
        <ele>546.4</ele>
        <time>2022-04-28T11:38:24Z</time>
      </trkpt>
      <trkpt lat="45.31761" lon="5.43139">
        <ele>546.6</ele>
        <time>2022-04-28T11:38:25Z</time>
      </trkpt>
      <trkpt lat="45.31761" lon="5.43137">
        <ele>546.6</ele>
        <time>2022-04-28T11:38:26Z</time>
      </trkpt>
      <trkpt lat="45.3176" lon="5.43133">
        <ele>546.8</ele>
        <time>2022-04-28T11:38:27Z</time>
      </trkpt>
      <trkpt lat="45.31759" lon="5.43129">
        <ele>547</ele>
        <time>2022-04-28T11:38:29Z</time>
      </trkpt>
      <trkpt lat="45.31758" lon="5.43125">
        <ele>547.2</ele>
        <time>2022-04-28T11:38:30Z</time>
      </trkpt>
      <trkpt lat="45.31756" lon="5.4312">
        <ele>547.4</ele>
        <time>2022-04-28T11:38:31Z</time>
      </trkpt>
      <trkpt lat="45.31756" lon="5.43118">
        <ele>547.5</ele>
        <time>2022-04-28T11:38:32Z</time>
      </trkpt>
      <trkpt lat="45.31754" lon="5.43113">
        <ele>547.8</ele>
        <time>2022-04-28T11:38:33Z</time>
      </trkpt>
      <trkpt lat="45.31753" lon="5.43109">
        <ele>547.9</ele>
        <time>2022-04-28T11:38:34Z</time>
      </trkpt>
      <trkpt lat="45.31752" lon="5.43105">
        <ele>548.2</ele>
        <time>2022-04-28T11:38:36Z</time>
      </trkpt>
      <trkpt lat="45.31751" lon="5.431">
        <ele>548.4</ele>
        <time>2022-04-28T11:38:37Z</time>
      </trkpt>
      <trkpt lat="45.3175" lon="5.43095">
        <ele>548.6</ele>
        <time>2022-04-28T11:38:38Z</time>
      </trkpt>
      <trkpt lat="45.31749" lon="5.43092">
        <ele>548.8</ele>
        <time>2022-04-28T11:38:39Z</time>
      </trkpt>
      <trkpt lat="45.31748" lon="5.43086">
        <ele>549</ele>
        <time>2022-04-28T11:38:40Z</time>
      </trkpt>
      <trkpt lat="45.31748" lon="5.43084">
        <ele>549.1</ele>
        <time>2022-04-28T11:38:41Z</time>
      </trkpt>
      <trkpt lat="45.31746" lon="5.43081">
        <ele>549.3</ele>
        <time>2022-04-28T11:38:42Z</time>
      </trkpt>
      <trkpt lat="45.31746" lon="5.43075">
        <ele>549.6</ele>
        <time>2022-04-28T11:38:44Z</time>
      </trkpt>
      <trkpt lat="45.31744" lon="5.4307">
        <ele>549.8</ele>
        <time>2022-04-28T11:38:45Z</time>
      </trkpt>
      <trkpt lat="45.31743" lon="5.43065">
        <ele>550</ele>
        <time>2022-04-28T11:38:46Z</time>
      </trkpt>
      <trkpt lat="45.31742" lon="5.43062">
        <ele>550.2</ele>
        <time>2022-04-28T11:38:47Z</time>
      </trkpt>
      <trkpt lat="45.3174" lon="5.43056">
        <ele>550.5</ele>
        <time>2022-04-28T11:38:49Z</time>
      </trkpt>
      <trkpt lat="45.31738" lon="5.43051">
        <ele>550.7</ele>
        <time>2022-04-28T11:38:50Z</time>
      </trkpt>
      <trkpt lat="45.31737" lon="5.43045">
        <ele>551</ele>
        <time>2022-04-28T11:38:52Z</time>
      </trkpt>
      <trkpt lat="45.31736" lon="5.4304">
        <ele>551.2</ele>
        <time>2022-04-28T11:38:53Z</time>
      </trkpt>
      <trkpt lat="45.31735" lon="5.43034">
        <ele>551.4</ele>
        <time>2022-04-28T11:38:54Z</time>
      </trkpt>
      <trkpt lat="45.31734" lon="5.43031">
        <ele>551.6</ele>
        <time>2022-04-28T11:38:55Z</time>
      </trkpt>
      <trkpt lat="45.31732" lon="5.43027">
        <ele>551.7</ele>
        <time>2022-04-28T11:38:56Z</time>
      </trkpt>
      <trkpt lat="45.31731" lon="5.43021">
        <ele>552</ele>
        <time>2022-04-28T11:38:58Z</time>
      </trkpt>
      <trkpt lat="45.3173" lon="5.43016">
        <ele>552.3</ele>
        <time>2022-04-28T11:38:59Z</time>
      </trkpt>
      <trkpt lat="45.31728" lon="5.4301">
        <ele>552.6</ele>
        <time>2022-04-28T11:39:01Z</time>
      </trkpt>
      <trkpt lat="45.31727" lon="5.43004">
        <ele>552.8</ele>
        <time>2022-04-28T11:39:02Z</time>
      </trkpt>
      <trkpt lat="45.31725" lon="5.42998">
        <ele>553.2</ele>
        <time>2022-04-28T11:39:04Z</time>
      </trkpt>
      <trkpt lat="45.31723" lon="5.42993">
        <ele>553.4</ele>
        <time>2022-04-28T11:39:05Z</time>
      </trkpt>
      <trkpt lat="45.31722" lon="5.42989">
        <ele>553.6</ele>
        <time>2022-04-28T11:39:06Z</time>
      </trkpt>
      <trkpt lat="45.31721" lon="5.42984">
        <ele>553.9</ele>
        <time>2022-04-28T11:39:08Z</time>
      </trkpt>
      <trkpt lat="45.31719" lon="5.42979">
        <ele>554.1</ele>
        <time>2022-04-28T11:39:09Z</time>
      </trkpt>
      <trkpt lat="45.31718" lon="5.42975">
        <ele>554.4</ele>
        <time>2022-04-28T11:39:10Z</time>
      </trkpt>
      <trkpt lat="45.31717" lon="5.4297">
        <ele>554.6</ele>
        <time>2022-04-28T11:39:11Z</time>
      </trkpt>
      <trkpt lat="45.31717" lon="5.42968">
        <ele>554.7</ele>
        <time>2022-04-28T11:39:12Z</time>
      </trkpt>
      <trkpt lat="45.31716" lon="5.42963">
        <ele>555</ele>
        <time>2022-04-28T11:39:13Z</time>
      </trkpt>
      <trkpt lat="45.31716" lon="5.42961">
        <ele>555.1</ele>
        <time>2022-04-28T11:39:14Z</time>
      </trkpt>
      <trkpt lat="45.31715" lon="5.42957">
        <ele>555.2</ele>
        <time>2022-04-28T11:39:15Z</time>
      </trkpt>
      <trkpt lat="45.31714" lon="5.42953">
        <ele>555.4</ele>
        <time>2022-04-28T11:39:16Z</time>
      </trkpt>
      <trkpt lat="45.31713" lon="5.42948">
        <ele>555.7</ele>
        <time>2022-04-28T11:39:17Z</time>
      </trkpt>
      <trkpt lat="45.31712" lon="5.42946">
        <ele>555.7</ele>
        <time>2022-04-28T11:39:18Z</time>
      </trkpt>
      <trkpt lat="45.31711" lon="5.42942">
        <ele>555.9</ele>
        <time>2022-04-28T11:39:19Z</time>
      </trkpt>
      <trkpt lat="45.3171" lon="5.42938">
        <ele>556.1</ele>
        <time>2022-04-28T11:39:20Z</time>
      </trkpt>
      <trkpt lat="45.31709" lon="5.42934">
        <ele>556.3</ele>
        <time>2022-04-28T11:39:21Z</time>
      </trkpt>
      <trkpt lat="45.31708" lon="5.42931">
        <ele>556.5</ele>
        <time>2022-04-28T11:39:22Z</time>
      </trkpt>
      <trkpt lat="45.31707" lon="5.42925">
        <ele>556.7</ele>
        <time>2022-04-28T11:39:23Z</time>
      </trkpt>
      <trkpt lat="45.31706" lon="5.42923">
        <ele>556.8</ele>
        <time>2022-04-28T11:39:24Z</time>
      </trkpt>
      <trkpt lat="45.31704" lon="5.4292">
        <ele>557</ele>
        <time>2022-04-28T11:39:25Z</time>
      </trkpt>
      <trkpt lat="45.31703" lon="5.42917">
        <ele>557.2</ele>
        <time>2022-04-28T11:39:27Z</time>
      </trkpt>
      <trkpt lat="45.317" lon="5.42913">
        <ele>557.4</ele>
        <time>2022-04-28T11:39:28Z</time>
      </trkpt>
      <trkpt lat="45.31697" lon="5.4291">
        <ele>557.6</ele>
        <time>2022-04-28T11:39:29Z</time>
      </trkpt>
      <trkpt lat="45.31694" lon="5.42906">
        <ele>557.8</ele>
        <time>2022-04-28T11:39:30Z</time>
      </trkpt>
      <trkpt lat="45.31693" lon="5.42905">
        <ele>557.9</ele>
        <time>2022-04-28T11:39:31Z</time>
      </trkpt>
      <trkpt lat="45.3169" lon="5.42902">
        <ele>558.1</ele>
        <time>2022-04-28T11:39:33Z</time>
      </trkpt>
      <trkpt lat="45.31685" lon="5.42901">
        <ele>558.3</ele>
        <time>2022-04-28T11:39:34Z</time>
      </trkpt>
      <trkpt lat="45.31682" lon="5.429">
        <ele>558.5</ele>
        <time>2022-04-28T11:39:35Z</time>
      </trkpt>
      <trkpt lat="45.31678" lon="5.42899">
        <ele>558.7</ele>
        <time>2022-04-28T11:39:37Z</time>
      </trkpt>
      <trkpt lat="45.31672" lon="5.42899">
        <ele>559</ele>
        <time>2022-04-28T11:39:38Z</time>
      </trkpt>
      <trkpt lat="45.31668" lon="5.429">
        <ele>559.2</ele>
        <time>2022-04-28T11:39:40Z</time>
      </trkpt>
      <trkpt lat="45.31665" lon="5.429">
        <ele>559.3</ele>
        <time>2022-04-28T11:39:41Z</time>
      </trkpt>
      <trkpt lat="45.31662" lon="5.42901">
        <ele>559.4</ele>
        <time>2022-04-28T11:39:42Z</time>
      </trkpt>
      <trkpt lat="45.31658" lon="5.42901">
        <ele>559.5</ele>
        <time>2022-04-28T11:39:43Z</time>
      </trkpt>
      <trkpt lat="45.31656" lon="5.42899">
        <ele>559.5</ele>
        <time>2022-04-28T11:39:44Z</time>
      </trkpt>
      <trkpt lat="45.31654" lon="5.42894">
        <ele>559.6</ele>
        <time>2022-04-28T11:39:45Z</time>
      </trkpt>
      <trkpt lat="45.31654" lon="5.42887">
        <ele>559.6</ele>
        <time>2022-04-28T11:39:47Z</time>
      </trkpt>
      <trkpt lat="45.31653" lon="5.42881">
        <ele>559.6</ele>
        <time>2022-04-28T11:39:48Z</time>
      </trkpt>
      <trkpt lat="45.3165" lon="5.42874">
        <ele>559.5</ele>
        <time>2022-04-28T11:39:50Z</time>
      </trkpt>
      <trkpt lat="45.31649" lon="5.42869">
        <ele>559.5</ele>
        <time>2022-04-28T11:39:51Z</time>
      </trkpt>
      <trkpt lat="45.31648" lon="5.42864">
        <ele>559.5</ele>
        <time>2022-04-28T11:39:52Z</time>
      </trkpt>
      <trkpt lat="45.31647" lon="5.4286">
        <ele>559.4</ele>
        <time>2022-04-28T11:39:53Z</time>
      </trkpt>
      <trkpt lat="45.31646" lon="5.42856">
        <ele>559.4</ele>
        <time>2022-04-28T11:39:54Z</time>
      </trkpt>
      <trkpt lat="45.31644" lon="5.42852">
        <ele>559.4</ele>
        <time>2022-04-28T11:39:55Z</time>
      </trkpt>
      <trkpt lat="45.31643" lon="5.42847">
        <ele>559.3</ele>
        <time>2022-04-28T11:39:56Z</time>
      </trkpt>
      <trkpt lat="45.31642" lon="5.42843">
        <ele>559.3</ele>
        <time>2022-04-28T11:39:57Z</time>
      </trkpt>
      <trkpt lat="45.31641" lon="5.42837">
        <ele>559.2</ele>
        <time>2022-04-28T11:39:58Z</time>
      </trkpt>
      <trkpt lat="45.31639" lon="5.42832">
        <ele>559.1</ele>
        <time>2022-04-28T11:39:59Z</time>
      </trkpt>
      <trkpt lat="45.31638" lon="5.42828">
        <ele>559</ele>
        <time>2022-04-28T11:40:00Z</time>
      </trkpt>
      <trkpt lat="45.31636" lon="5.42824">
        <ele>558.9</ele>
        <time>2022-04-28T11:40:01Z</time>
      </trkpt>
      <trkpt lat="45.31631" lon="5.42817">
        <ele>558.8</ele>
        <time>2022-04-28T11:40:02Z</time>
      </trkpt>
      <trkpt lat="45.31628" lon="5.42811">
        <ele>558.7</ele>
        <time>2022-04-28T11:40:03Z</time>
      </trkpt>
      <trkpt lat="45.31624" lon="5.42807">
        <ele>558.6</ele>
        <time>2022-04-28T11:40:04Z</time>
      </trkpt>
      <trkpt lat="45.3162" lon="5.42802">
        <ele>558.6</ele>
        <time>2022-04-28T11:40:05Z</time>
      </trkpt>
      <trkpt lat="45.31617" lon="5.42798">
        <ele>558.6</ele>
        <time>2022-04-28T11:40:06Z</time>
      </trkpt>
      <trkpt lat="45.31616" lon="5.42796">
        <ele>558.6</ele>
        <time>2022-04-28T11:40:07Z</time>
      </trkpt>
      <trkpt lat="45.31613" lon="5.42793">
        <ele>558.6</ele>
        <time>2022-04-28T11:40:09Z</time>
      </trkpt>
      <trkpt lat="45.31606" lon="5.42788">
        <ele>558.8</ele>
        <time>2022-04-28T11:40:10Z</time>
      </trkpt>
      <trkpt lat="45.31602" lon="5.42786">
        <ele>558.9</ele>
        <time>2022-04-28T11:40:11Z</time>
      </trkpt>
      <trkpt lat="45.31597" lon="5.42783">
        <ele>559.1</ele>
        <time>2022-04-28T11:40:13Z</time>
      </trkpt>
      <trkpt lat="45.31594" lon="5.42781">
        <ele>559.2</ele>
        <time>2022-04-28T11:40:14Z</time>
      </trkpt>
      <trkpt lat="45.31592" lon="5.42778">
        <ele>559.4</ele>
        <time>2022-04-28T11:40:15Z</time>
      </trkpt>
      <trkpt lat="45.31588" lon="5.42773">
        <ele>559.7</ele>
        <time>2022-04-28T11:40:16Z</time>
      </trkpt>
      <trkpt lat="45.31586" lon="5.42769">
        <ele>559.9</ele>
        <time>2022-04-28T11:40:17Z</time>
      </trkpt>
      <trkpt lat="45.31584" lon="5.42764">
        <ele>560.1</ele>
        <time>2022-04-28T11:40:18Z</time>
      </trkpt>
      <trkpt lat="45.31582" lon="5.42759">
        <ele>560.4</ele>
        <time>2022-04-28T11:40:20Z</time>
      </trkpt>
      <trkpt lat="45.3158" lon="5.42755">
        <ele>560.6</ele>
        <time>2022-04-28T11:40:21Z</time>
      </trkpt>
      <trkpt lat="45.31578" lon="5.42749">
        <ele>560.9</ele>
        <time>2022-04-28T11:40:22Z</time>
      </trkpt>
      <trkpt lat="45.31576" lon="5.42744">
        <ele>561.1</ele>
        <time>2022-04-28T11:40:23Z</time>
      </trkpt>
      <trkpt lat="45.31574" lon="5.4274">
        <ele>561.3</ele>
        <time>2022-04-28T11:40:24Z</time>
      </trkpt>
      <trkpt lat="45.31573" lon="5.42736">
        <ele>561.4</ele>
        <time>2022-04-28T11:40:25Z</time>
      </trkpt>
      <trkpt lat="45.31572" lon="5.42732">
        <ele>561.6</ele>
        <time>2022-04-28T11:40:26Z</time>
      </trkpt>
      <trkpt lat="45.31571" lon="5.42726">
        <ele>561.8</ele>
        <time>2022-04-28T11:40:28Z</time>
      </trkpt>
      <trkpt lat="45.3157" lon="5.42721">
        <ele>562</ele>
        <time>2022-04-28T11:40:29Z</time>
      </trkpt>
      <trkpt lat="45.31568" lon="5.42714">
        <ele>562.2</ele>
        <time>2022-04-28T11:40:30Z</time>
      </trkpt>
      <trkpt lat="45.31568" lon="5.42709">
        <ele>562.4</ele>
        <time>2022-04-28T11:40:31Z</time>
      </trkpt>
      <trkpt lat="45.31567" lon="5.42705">
        <ele>562.6</ele>
        <time>2022-04-28T11:40:32Z</time>
      </trkpt>
      <trkpt lat="45.31566" lon="5.42698">
        <ele>562.8</ele>
        <time>2022-04-28T11:40:34Z</time>
      </trkpt>
      <trkpt lat="45.31565" lon="5.42693">
        <ele>563</ele>
        <time>2022-04-28T11:40:35Z</time>
      </trkpt>
      <trkpt lat="45.31564" lon="5.42687">
        <ele>563.2</ele>
        <time>2022-04-28T11:40:36Z</time>
      </trkpt>
      <trkpt lat="45.31563" lon="5.42683">
        <ele>563.3</ele>
        <time>2022-04-28T11:40:37Z</time>
      </trkpt>
      <trkpt lat="45.31562" lon="5.42679">
        <ele>563.5</ele>
        <time>2022-04-28T11:40:38Z</time>
      </trkpt>
      <trkpt lat="45.31562" lon="5.42675">
        <ele>563.7</ele>
        <time>2022-04-28T11:40:39Z</time>
      </trkpt>
      <trkpt lat="45.3156" lon="5.42669">
        <ele>563.8</ele>
        <time>2022-04-28T11:40:40Z</time>
      </trkpt>
      <trkpt lat="45.31559" lon="5.42665">
        <ele>564</ele>
        <time>2022-04-28T11:40:41Z</time>
      </trkpt>
      <trkpt lat="45.31557" lon="5.4266">
        <ele>564.2</ele>
        <time>2022-04-28T11:40:42Z</time>
      </trkpt>
      <trkpt lat="45.31555" lon="5.42655">
        <ele>564.4</ele>
        <time>2022-04-28T11:40:43Z</time>
      </trkpt>
      <trkpt lat="45.31554" lon="5.4265">
        <ele>564.6</ele>
        <time>2022-04-28T11:40:44Z</time>
      </trkpt>
      <trkpt lat="45.31553" lon="5.42648">
        <ele>564.7</ele>
        <time>2022-04-28T11:40:45Z</time>
      </trkpt>
      <trkpt lat="45.31551" lon="5.42643">
        <ele>564.9</ele>
        <time>2022-04-28T11:40:46Z</time>
      </trkpt>
      <trkpt lat="45.31548" lon="5.42638">
        <ele>565.1</ele>
        <time>2022-04-28T11:40:47Z</time>
      </trkpt>
      <trkpt lat="45.31547" lon="5.42635">
        <ele>565.2</ele>
        <time>2022-04-28T11:40:48Z</time>
      </trkpt>
      <trkpt lat="45.31545" lon="5.42631">
        <ele>565.4</ele>
        <time>2022-04-28T11:40:49Z</time>
      </trkpt>
      <trkpt lat="45.31543" lon="5.42628">
        <ele>565.5</ele>
        <time>2022-04-28T11:40:50Z</time>
      </trkpt>
      <trkpt lat="45.31541" lon="5.42624">
        <ele>565.7</ele>
        <time>2022-04-28T11:40:51Z</time>
      </trkpt>
      <trkpt lat="45.31539" lon="5.42621">
        <ele>565.9</ele>
        <time>2022-04-28T11:40:52Z</time>
      </trkpt>
      <trkpt lat="45.31536" lon="5.42617">
        <ele>566.1</ele>
        <time>2022-04-28T11:40:53Z</time>
      </trkpt>
      <trkpt lat="45.31534" lon="5.42614">
        <ele>566.2</ele>
        <time>2022-04-28T11:40:54Z</time>
      </trkpt>
      <trkpt lat="45.31532" lon="5.42611">
        <ele>566.4</ele>
        <time>2022-04-28T11:40:55Z</time>
      </trkpt>
      <trkpt lat="45.31529" lon="5.42607">
        <ele>566.6</ele>
        <time>2022-04-28T11:40:56Z</time>
      </trkpt>
      <trkpt lat="45.31528" lon="5.42605">
        <ele>566.7</ele>
        <time>2022-04-28T11:40:57Z</time>
      </trkpt>
      <trkpt lat="45.31526" lon="5.42602">
        <ele>566.9</ele>
        <time>2022-04-28T11:40:58Z</time>
      </trkpt>
      <trkpt lat="45.31523" lon="5.42598">
        <ele>567.1</ele>
        <time>2022-04-28T11:40:59Z</time>
      </trkpt>
      <trkpt lat="45.31521" lon="5.42595">
        <ele>567.2</ele>
        <time>2022-04-28T11:41:00Z</time>
      </trkpt>
      <trkpt lat="45.31518" lon="5.42592">
        <ele>567.4</ele>
        <time>2022-04-28T11:41:01Z</time>
      </trkpt>
      <trkpt lat="45.31515" lon="5.42589">
        <ele>567.6</ele>
        <time>2022-04-28T11:41:02Z</time>
      </trkpt>
      <trkpt lat="45.31512" lon="5.42586">
        <ele>567.8</ele>
        <time>2022-04-28T11:41:03Z</time>
      </trkpt>
      <trkpt lat="45.3151" lon="5.42583">
        <ele>567.9</ele>
        <time>2022-04-28T11:41:04Z</time>
      </trkpt>
      <trkpt lat="45.31508" lon="5.42579">
        <ele>568.1</ele>
        <time>2022-04-28T11:41:05Z</time>
      </trkpt>
      <trkpt lat="45.31505" lon="5.42576">
        <ele>568.3</ele>
        <time>2022-04-28T11:41:06Z</time>
      </trkpt>
      <trkpt lat="45.31503" lon="5.42572">
        <ele>568.5</ele>
        <time>2022-04-28T11:41:07Z</time>
      </trkpt>
      <trkpt lat="45.31501" lon="5.42569">
        <ele>568.7</ele>
        <time>2022-04-28T11:41:08Z</time>
      </trkpt>
      <trkpt lat="45.31498" lon="5.42566">
        <ele>568.8</ele>
        <time>2022-04-28T11:41:09Z</time>
      </trkpt>
      <trkpt lat="45.31495" lon="5.42563">
        <ele>569</ele>
        <time>2022-04-28T11:41:10Z</time>
      </trkpt>
      <trkpt lat="45.31493" lon="5.42559">
        <ele>569.2</ele>
        <time>2022-04-28T11:41:11Z</time>
      </trkpt>
      <trkpt lat="45.3149" lon="5.42556">
        <ele>569.4</ele>
        <time>2022-04-28T11:41:12Z</time>
      </trkpt>
      <trkpt lat="45.31487" lon="5.42553">
        <ele>569.6</ele>
        <time>2022-04-28T11:41:13Z</time>
      </trkpt>
      <trkpt lat="45.31485" lon="5.4255">
        <ele>569.8</ele>
        <time>2022-04-28T11:41:14Z</time>
      </trkpt>
      <trkpt lat="45.31483" lon="5.42547">
        <ele>569.9</ele>
        <time>2022-04-28T11:41:15Z</time>
      </trkpt>
      <trkpt lat="45.31481" lon="5.42543">
        <ele>570.1</ele>
        <time>2022-04-28T11:41:16Z</time>
      </trkpt>
      <trkpt lat="45.31479" lon="5.4254">
        <ele>570.3</ele>
        <time>2022-04-28T11:41:17Z</time>
      </trkpt>
      <trkpt lat="45.31476" lon="5.42536">
        <ele>570.5</ele>
        <time>2022-04-28T11:41:18Z</time>
      </trkpt>
      <trkpt lat="45.31474" lon="5.42533">
        <ele>570.6</ele>
        <time>2022-04-28T11:41:19Z</time>
      </trkpt>
      <trkpt lat="45.31471" lon="5.4253">
        <ele>570.8</ele>
        <time>2022-04-28T11:41:20Z</time>
      </trkpt>
      <trkpt lat="45.31468" lon="5.42526">
        <ele>571</ele>
        <time>2022-04-28T11:41:21Z</time>
      </trkpt>
      <trkpt lat="45.31467" lon="5.42525">
        <ele>571.1</ele>
        <time>2022-04-28T11:41:22Z</time>
      </trkpt>
      <trkpt lat="45.31465" lon="5.42522">
        <ele>571.3</ele>
        <time>2022-04-28T11:41:23Z</time>
      </trkpt>
      <trkpt lat="45.31462" lon="5.42519">
        <ele>571.5</ele>
        <time>2022-04-28T11:41:24Z</time>
      </trkpt>
      <trkpt lat="45.3146" lon="5.42515">
        <ele>571.7</ele>
        <time>2022-04-28T11:41:25Z</time>
      </trkpt>
      <trkpt lat="45.31457" lon="5.4251">
        <ele>571.9</ele>
        <time>2022-04-28T11:41:26Z</time>
      </trkpt>
      <trkpt lat="45.31456" lon="5.42508">
        <ele>572</ele>
        <time>2022-04-28T11:41:27Z</time>
      </trkpt>
      <trkpt lat="45.31453" lon="5.42505">
        <ele>572.2</ele>
        <time>2022-04-28T11:41:28Z</time>
      </trkpt>
      <trkpt lat="45.31451" lon="5.42501">
        <ele>572.4</ele>
        <time>2022-04-28T11:41:29Z</time>
      </trkpt>
      <trkpt lat="45.31449" lon="5.42498">
        <ele>572.6</ele>
        <time>2022-04-28T11:41:30Z</time>
      </trkpt>
      <trkpt lat="45.31446" lon="5.42495">
        <ele>572.8</ele>
        <time>2022-04-28T11:41:31Z</time>
      </trkpt>
      <trkpt lat="45.31443" lon="5.42491">
        <ele>573</ele>
        <time>2022-04-28T11:41:32Z</time>
      </trkpt>
      <trkpt lat="45.31442" lon="5.4249">
        <ele>573.1</ele>
        <time>2022-04-28T11:41:33Z</time>
      </trkpt>
      <trkpt lat="45.31439" lon="5.42486">
        <ele>573.3</ele>
        <time>2022-04-28T11:41:35Z</time>
      </trkpt>
      <trkpt lat="45.31436" lon="5.42481">
        <ele>573.6</ele>
        <time>2022-04-28T11:41:36Z</time>
      </trkpt>
      <trkpt lat="45.31434" lon="5.42479">
        <ele>573.7</ele>
        <time>2022-04-28T11:41:37Z</time>
      </trkpt>
      <trkpt lat="45.31432" lon="5.42476">
        <ele>573.9</ele>
        <time>2022-04-28T11:41:38Z</time>
      </trkpt>
      <trkpt lat="45.31429" lon="5.42471">
        <ele>574.1</ele>
        <time>2022-04-28T11:41:40Z</time>
      </trkpt>
      <trkpt lat="45.31426" lon="5.42467">
        <ele>574.3</ele>
        <time>2022-04-28T11:41:41Z</time>
      </trkpt>
      <trkpt lat="45.31424" lon="5.42464">
        <ele>574.5</ele>
        <time>2022-04-28T11:41:42Z</time>
      </trkpt>
      <trkpt lat="45.31421" lon="5.42461">
        <ele>574.7</ele>
        <time>2022-04-28T11:41:43Z</time>
      </trkpt>
      <trkpt lat="45.31419" lon="5.42457">
        <ele>574.9</ele>
        <time>2022-04-28T11:41:44Z</time>
      </trkpt>
      <trkpt lat="45.31416" lon="5.42452">
        <ele>575.2</ele>
        <time>2022-04-28T11:41:45Z</time>
      </trkpt>
      <trkpt lat="45.31414" lon="5.4245">
        <ele>575.3</ele>
        <time>2022-04-28T11:41:46Z</time>
      </trkpt>
      <trkpt lat="45.31413" lon="5.42447">
        <ele>575.4</ele>
        <time>2022-04-28T11:41:47Z</time>
      </trkpt>
      <trkpt lat="45.31411" lon="5.42444">
        <ele>575.6</ele>
        <time>2022-04-28T11:41:48Z</time>
      </trkpt>
      <trkpt lat="45.31408" lon="5.42441">
        <ele>575.8</ele>
        <time>2022-04-28T11:41:49Z</time>
      </trkpt>
      <trkpt lat="45.31406" lon="5.42438">
        <ele>575.9</ele>
        <time>2022-04-28T11:41:50Z</time>
      </trkpt>
      <trkpt lat="45.31404" lon="5.42436">
        <ele>576.1</ele>
        <time>2022-04-28T11:41:51Z</time>
      </trkpt>
      <trkpt lat="45.31402" lon="5.42433">
        <ele>576.3</ele>
        <time>2022-04-28T11:41:52Z</time>
      </trkpt>
      <trkpt lat="45.31399" lon="5.4243">
        <ele>576.4</ele>
        <time>2022-04-28T11:41:53Z</time>
      </trkpt>
      <trkpt lat="45.31397" lon="5.42427">
        <ele>576.6</ele>
        <time>2022-04-28T11:41:54Z</time>
      </trkpt>
      <trkpt lat="45.31394" lon="5.42423">
        <ele>576.8</ele>
        <time>2022-04-28T11:41:55Z</time>
      </trkpt>
      <trkpt lat="45.31393" lon="5.42422">
        <ele>576.9</ele>
        <time>2022-04-28T11:41:56Z</time>
      </trkpt>
      <trkpt lat="45.31391" lon="5.42419">
        <ele>577.1</ele>
        <time>2022-04-28T11:41:57Z</time>
      </trkpt>
      <trkpt lat="45.31389" lon="5.42416">
        <ele>577.2</ele>
        <time>2022-04-28T11:41:58Z</time>
      </trkpt>
      <trkpt lat="45.31386" lon="5.42412">
        <ele>577.4</ele>
        <time>2022-04-28T11:41:59Z</time>
      </trkpt>
      <trkpt lat="45.31385" lon="5.42411">
        <ele>577.5</ele>
        <time>2022-04-28T11:42:00Z</time>
      </trkpt>
      <trkpt lat="45.31383" lon="5.42408">
        <ele>577.7</ele>
        <time>2022-04-28T11:42:01Z</time>
      </trkpt>
      <trkpt lat="45.3138" lon="5.42405">
        <ele>577.9</ele>
        <time>2022-04-28T11:42:02Z</time>
      </trkpt>
      <trkpt lat="45.31379" lon="5.42403">
        <ele>578</ele>
        <time>2022-04-28T11:42:03Z</time>
      </trkpt>
      <trkpt lat="45.31377" lon="5.42401">
        <ele>578.1</ele>
        <time>2022-04-28T11:42:04Z</time>
      </trkpt>
      <trkpt lat="45.31375" lon="5.42398">
        <ele>578.3</ele>
        <time>2022-04-28T11:42:05Z</time>
      </trkpt>
      <trkpt lat="45.31372" lon="5.42395">
        <ele>578.5</ele>
        <time>2022-04-28T11:42:06Z</time>
      </trkpt>
      <trkpt lat="45.31371" lon="5.42394">
        <ele>578.6</ele>
        <time>2022-04-28T11:42:07Z</time>
      </trkpt>
      <trkpt lat="45.31369" lon="5.42391">
        <ele>578.7</ele>
        <time>2022-04-28T11:42:08Z</time>
      </trkpt>
      <trkpt lat="45.31367" lon="5.42389">
        <ele>578.9</ele>
        <time>2022-04-28T11:42:09Z</time>
      </trkpt>
      <trkpt lat="45.31364" lon="5.42386">
        <ele>579.1</ele>
        <time>2022-04-28T11:42:10Z</time>
      </trkpt>
      <trkpt lat="45.31362" lon="5.42383">
        <ele>579.3</ele>
        <time>2022-04-28T11:42:11Z</time>
      </trkpt>
      <trkpt lat="45.31359" lon="5.42381">
        <ele>579.4</ele>
        <time>2022-04-28T11:42:12Z</time>
      </trkpt>
      <trkpt lat="45.31356" lon="5.42379">
        <ele>579.6</ele>
        <time>2022-04-28T11:42:13Z</time>
      </trkpt>
      <trkpt lat="45.31353" lon="5.42377">
        <ele>579.8</ele>
        <time>2022-04-28T11:42:14Z</time>
      </trkpt>
      <trkpt lat="45.3135" lon="5.42376">
        <ele>580</ele>
        <time>2022-04-28T11:42:15Z</time>
      </trkpt>
      <trkpt lat="45.31347" lon="5.42375">
        <ele>580.2</ele>
        <time>2022-04-28T11:42:16Z</time>
      </trkpt>
      <trkpt lat="45.31344" lon="5.42373">
        <ele>580.4</ele>
        <time>2022-04-28T11:42:17Z</time>
      </trkpt>
      <trkpt lat="45.3134" lon="5.42372">
        <ele>580.6</ele>
        <time>2022-04-28T11:42:19Z</time>
      </trkpt>
      <trkpt lat="45.31336" lon="5.42371">
        <ele>580.8</ele>
        <time>2022-04-28T11:42:20Z</time>
      </trkpt>
      <trkpt lat="45.31332" lon="5.42371">
        <ele>581.1</ele>
        <time>2022-04-28T11:42:21Z</time>
      </trkpt>
      <trkpt lat="45.31329" lon="5.42371">
        <ele>581.3</ele>
        <time>2022-04-28T11:42:22Z</time>
      </trkpt>
      <trkpt lat="45.31324" lon="5.4237">
        <ele>581.5</ele>
        <time>2022-04-28T11:42:24Z</time>
      </trkpt>
      <trkpt lat="45.31321" lon="5.42371">
        <ele>581.8</ele>
        <time>2022-04-28T11:42:25Z</time>
      </trkpt>
      <trkpt lat="45.31317" lon="5.42371">
        <ele>582</ele>
        <time>2022-04-28T11:42:26Z</time>
      </trkpt>
      <trkpt lat="45.31314" lon="5.42373">
        <ele>582.1</ele>
        <time>2022-04-28T11:42:27Z</time>
      </trkpt>
      <trkpt lat="45.31311" lon="5.42375">
        <ele>582.3</ele>
        <time>2022-04-28T11:42:28Z</time>
      </trkpt>
      <trkpt lat="45.31309" lon="5.42376">
        <ele>582.5</ele>
        <time>2022-04-28T11:42:29Z</time>
      </trkpt>
      <trkpt lat="45.31304" lon="5.42378">
        <ele>582.7</ele>
        <time>2022-04-28T11:42:31Z</time>
      </trkpt>
      <trkpt lat="45.31301" lon="5.42379">
        <ele>582.9</ele>
        <time>2022-04-28T11:42:32Z</time>
      </trkpt>
      <trkpt lat="45.31298" lon="5.4238">
        <ele>583</ele>
        <time>2022-04-28T11:42:33Z</time>
      </trkpt>
      <trkpt lat="45.31295" lon="5.42382">
        <ele>583.3</ele>
        <time>2022-04-28T11:42:34Z</time>
      </trkpt>
      <trkpt lat="45.31292" lon="5.42384">
        <ele>583.4</ele>
        <time>2022-04-28T11:42:35Z</time>
      </trkpt>
      <trkpt lat="45.31289" lon="5.42386">
        <ele>583.6</ele>
        <time>2022-04-28T11:42:36Z</time>
      </trkpt>
      <trkpt lat="45.31286" lon="5.42388">
        <ele>583.7</ele>
        <time>2022-04-28T11:42:37Z</time>
      </trkpt>
      <trkpt lat="45.31283" lon="5.4239">
        <ele>583.9</ele>
        <time>2022-04-28T11:42:39Z</time>
      </trkpt>
      <trkpt lat="45.31281" lon="5.42392">
        <ele>584.1</ele>
        <time>2022-04-28T11:42:40Z</time>
      </trkpt>
      <trkpt lat="45.31278" lon="5.42394">
        <ele>584.2</ele>
        <time>2022-04-28T11:42:41Z</time>
      </trkpt>
      <trkpt lat="45.31276" lon="5.42398">
        <ele>584.4</ele>
        <time>2022-04-28T11:42:42Z</time>
      </trkpt>
      <trkpt lat="45.31274" lon="5.424">
        <ele>584.5</ele>
        <time>2022-04-28T11:42:43Z</time>
      </trkpt>
      <trkpt lat="45.31271" lon="5.42402">
        <ele>584.7</ele>
        <time>2022-04-28T11:42:44Z</time>
      </trkpt>
      <trkpt lat="45.31268" lon="5.42405">
        <ele>584.8</ele>
        <time>2022-04-28T11:42:45Z</time>
      </trkpt>
      <trkpt lat="45.31266" lon="5.42408">
        <ele>585</ele>
        <time>2022-04-28T11:42:46Z</time>
      </trkpt>
      <trkpt lat="45.31263" lon="5.4241">
        <ele>585.2</ele>
        <time>2022-04-28T11:42:47Z</time>
      </trkpt>
      <trkpt lat="45.31262" lon="5.42411">
        <ele>585.3</ele>
        <time>2022-04-28T11:42:48Z</time>
      </trkpt>
      <trkpt lat="45.31259" lon="5.42414">
        <ele>585.4</ele>
        <time>2022-04-28T11:42:49Z</time>
      </trkpt>
      <trkpt lat="45.31256" lon="5.42418">
        <ele>585.6</ele>
        <time>2022-04-28T11:42:50Z</time>
      </trkpt>
      <trkpt lat="45.31255" lon="5.42419">
        <ele>585.7</ele>
        <time>2022-04-28T11:42:51Z</time>
      </trkpt>
      <trkpt lat="45.31253" lon="5.42422">
        <ele>585.9</ele>
        <time>2022-04-28T11:42:52Z</time>
      </trkpt>
      <trkpt lat="45.31252" lon="5.42426">
        <ele>586</ele>
        <time>2022-04-28T11:42:53Z</time>
      </trkpt>
      <trkpt lat="45.3125" lon="5.42429">
        <ele>586.2</ele>
        <time>2022-04-28T11:42:54Z</time>
      </trkpt>
      <trkpt lat="45.31247" lon="5.42433">
        <ele>586.4</ele>
        <time>2022-04-28T11:42:55Z</time>
      </trkpt>
      <trkpt lat="45.31246" lon="5.42435">
        <ele>586.5</ele>
        <time>2022-04-28T11:42:56Z</time>
      </trkpt>
      <trkpt lat="45.31244" lon="5.42438">
        <ele>586.7</ele>
        <time>2022-04-28T11:42:57Z</time>
      </trkpt>
      <trkpt lat="45.31242" lon="5.42441">
        <ele>586.8</ele>
        <time>2022-04-28T11:42:58Z</time>
      </trkpt>
      <trkpt lat="45.3124" lon="5.42444">
        <ele>587</ele>
        <time>2022-04-28T11:42:59Z</time>
      </trkpt>
      <trkpt lat="45.31239" lon="5.42447">
        <ele>587.1</ele>
        <time>2022-04-28T11:43:00Z</time>
      </trkpt>
      <trkpt lat="45.31237" lon="5.4245">
        <ele>587.3</ele>
        <time>2022-04-28T11:43:01Z</time>
      </trkpt>
      <trkpt lat="45.31234" lon="5.42453">
        <ele>587.5</ele>
        <time>2022-04-28T11:43:02Z</time>
      </trkpt>
      <trkpt lat="45.31231" lon="5.42457">
        <ele>587.7</ele>
        <time>2022-04-28T11:43:03Z</time>
      </trkpt>
      <trkpt lat="45.3123" lon="5.42458">
        <ele>587.8</ele>
        <time>2022-04-28T11:43:04Z</time>
      </trkpt>
      <trkpt lat="45.31227" lon="5.42461">
        <ele>588</ele>
        <time>2022-04-28T11:43:05Z</time>
      </trkpt>
      <trkpt lat="45.31225" lon="5.42463">
        <ele>588.2</ele>
        <time>2022-04-28T11:43:06Z</time>
      </trkpt>
      <trkpt lat="45.31222" lon="5.42466">
        <ele>588.4</ele>
        <time>2022-04-28T11:43:07Z</time>
      </trkpt>
      <trkpt lat="45.3122" lon="5.42469">
        <ele>588.5</ele>
        <time>2022-04-28T11:43:08Z</time>
      </trkpt>
      <trkpt lat="45.31218" lon="5.42471">
        <ele>588.7</ele>
        <time>2022-04-28T11:43:09Z</time>
      </trkpt>
      <trkpt lat="45.31214" lon="5.42475">
        <ele>588.9</ele>
        <time>2022-04-28T11:43:10Z</time>
      </trkpt>
      <trkpt lat="45.31213" lon="5.42476">
        <ele>589</ele>
        <time>2022-04-28T11:43:11Z</time>
      </trkpt>
      <trkpt lat="45.3121" lon="5.42478">
        <ele>589.2</ele>
        <time>2022-04-28T11:43:12Z</time>
      </trkpt>
      <trkpt lat="45.31206" lon="5.4248">
        <ele>589.4</ele>
        <time>2022-04-28T11:43:13Z</time>
      </trkpt>
      <trkpt lat="45.31204" lon="5.4248">
        <ele>589.5</ele>
        <time>2022-04-28T11:43:14Z</time>
      </trkpt>
      <trkpt lat="45.31201" lon="5.42481">
        <ele>589.7</ele>
        <time>2022-04-28T11:43:15Z</time>
      </trkpt>
      <trkpt lat="45.31197" lon="5.42481">
        <ele>589.9</ele>
        <time>2022-04-28T11:43:17Z</time>
      </trkpt>
      <trkpt lat="45.31193" lon="5.42479">
        <ele>590.1</ele>
        <time>2022-04-28T11:43:18Z</time>
      </trkpt>
      <trkpt lat="45.31191" lon="5.42478">
        <ele>590.2</ele>
        <time>2022-04-28T11:43:19Z</time>
      </trkpt>
      <trkpt lat="45.31189" lon="5.42475">
        <ele>590.3</ele>
        <time>2022-04-28T11:43:21Z</time>
      </trkpt>
      <trkpt lat="45.31185" lon="5.42472">
        <ele>590.6</ele>
        <time>2022-04-28T11:43:22Z</time>
      </trkpt>
      <trkpt lat="45.31183" lon="5.42469">
        <ele>590.8</ele>
        <time>2022-04-28T11:43:23Z</time>
      </trkpt>
      <trkpt lat="45.31182" lon="5.42467">
        <ele>590.8</ele>
        <time>2022-04-28T11:43:24Z</time>
      </trkpt>
      <trkpt lat="45.31179" lon="5.42464">
        <ele>591</ele>
        <time>2022-04-28T11:43:25Z</time>
      </trkpt>
      <trkpt lat="45.31177" lon="5.42461">
        <ele>591.2</ele>
        <time>2022-04-28T11:43:26Z</time>
      </trkpt>
      <trkpt lat="45.31176" lon="5.42459">
        <ele>591.3</ele>
        <time>2022-04-28T11:43:27Z</time>
      </trkpt>
      <trkpt lat="45.31173" lon="5.42456">
        <ele>591.4</ele>
        <time>2022-04-28T11:43:28Z</time>
      </trkpt>
      <trkpt lat="45.3117" lon="5.42454">
        <ele>591.6</ele>
        <time>2022-04-28T11:43:29Z</time>
      </trkpt>
      <trkpt lat="45.31168" lon="5.42452">
        <ele>591.7</ele>
        <time>2022-04-28T11:43:30Z</time>
      </trkpt>
      <trkpt lat="45.31163" lon="5.42447">
        <ele>592.1</ele>
        <time>2022-04-28T11:43:32Z</time>
      </trkpt>
      <trkpt lat="45.31159" lon="5.42447">
        <ele>592.3</ele>
        <time>2022-04-28T11:43:33Z</time>
      </trkpt>
      <trkpt lat="45.31154" lon="5.42446">
        <ele>592.6</ele>
        <time>2022-04-28T11:43:35Z</time>
      </trkpt>
      <trkpt lat="45.3115" lon="5.42445">
        <ele>592.9</ele>
        <time>2022-04-28T11:43:36Z</time>
      </trkpt>
      <trkpt lat="45.31146" lon="5.42444">
        <ele>593.1</ele>
        <time>2022-04-28T11:43:37Z</time>
      </trkpt>
      <trkpt lat="45.31143" lon="5.42443">
        <ele>593.3</ele>
        <time>2022-04-28T11:43:38Z</time>
      </trkpt>
      <trkpt lat="45.31138" lon="5.42441">
        <ele>593.6</ele>
        <time>2022-04-28T11:43:40Z</time>
      </trkpt>
      <trkpt lat="45.31133" lon="5.4244">
        <ele>593.9</ele>
        <time>2022-04-28T11:43:41Z</time>
      </trkpt>
      <trkpt lat="45.3113" lon="5.42438">
        <ele>594.1</ele>
        <time>2022-04-28T11:43:42Z</time>
      </trkpt>
      <trkpt lat="45.31129" lon="5.42438">
        <ele>594.1</ele>
        <time>2022-04-28T11:43:43Z</time>
      </trkpt>
      <trkpt lat="45.31126" lon="5.42437">
        <ele>594.3</ele>
        <time>2022-04-28T11:43:45Z</time>
      </trkpt>
      <trkpt lat="45.31122" lon="5.42437">
        <ele>594.5</ele>
        <time>2022-04-28T11:43:46Z</time>
      </trkpt>
      <trkpt lat="45.3112" lon="5.42436">
        <ele>594.7</ele>
        <time>2022-04-28T11:43:47Z</time>
      </trkpt>
      <trkpt lat="45.31115" lon="5.42436">
        <ele>594.9</ele>
        <time>2022-04-28T11:43:48Z</time>
      </trkpt>
      <trkpt lat="45.31113" lon="5.42435">
        <ele>595.1</ele>
        <time>2022-04-28T11:43:49Z</time>
      </trkpt>
      <trkpt lat="45.31111" lon="5.42435">
        <ele>595.2</ele>
        <time>2022-04-28T11:43:50Z</time>
      </trkpt>
      <trkpt lat="45.31105" lon="5.42435">
        <ele>595.5</ele>
        <time>2022-04-28T11:43:52Z</time>
      </trkpt>
      <trkpt lat="45.31102" lon="5.42435">
        <ele>595.7</ele>
        <time>2022-04-28T11:43:53Z</time>
      </trkpt>
      <trkpt lat="45.31099" lon="5.42436">
        <ele>595.9</ele>
        <time>2022-04-28T11:43:54Z</time>
      </trkpt>
      <trkpt lat="45.31096" lon="5.42436">
        <ele>596</ele>
        <time>2022-04-28T11:43:55Z</time>
      </trkpt>
      <trkpt lat="45.31092" lon="5.42437">
        <ele>596.3</ele>
        <time>2022-04-28T11:43:57Z</time>
      </trkpt>
      <trkpt lat="45.31089" lon="5.42437">
        <ele>596.5</ele>
        <time>2022-04-28T11:43:58Z</time>
      </trkpt>
      <trkpt lat="45.31086" lon="5.42437">
        <ele>596.6</ele>
        <time>2022-04-28T11:43:59Z</time>
      </trkpt>
      <trkpt lat="45.31082" lon="5.42436">
        <ele>596.8</ele>
        <time>2022-04-28T11:44:00Z</time>
      </trkpt>
      <trkpt lat="45.31079" lon="5.42436">
        <ele>597</ele>
        <time>2022-04-28T11:44:01Z</time>
      </trkpt>
      <trkpt lat="45.31076" lon="5.42434">
        <ele>597.2</ele>
        <time>2022-04-28T11:44:02Z</time>
      </trkpt>
      <trkpt lat="45.31074" lon="5.42432">
        <ele>597.3</ele>
        <time>2022-04-28T11:44:03Z</time>
      </trkpt>
      <trkpt lat="45.31071" lon="5.42429">
        <ele>597.5</ele>
        <time>2022-04-28T11:44:04Z</time>
      </trkpt>
      <trkpt lat="45.31069" lon="5.42426">
        <ele>597.6</ele>
        <time>2022-04-28T11:44:05Z</time>
      </trkpt>
      <trkpt lat="45.31068" lon="5.42422">
        <ele>597.8</ele>
        <time>2022-04-28T11:44:06Z</time>
      </trkpt>
      <trkpt lat="45.31067" lon="5.42419">
        <ele>597.9</ele>
        <time>2022-04-28T11:44:07Z</time>
      </trkpt>
      <trkpt lat="45.31065" lon="5.42414">
        <ele>598.1</ele>
        <time>2022-04-28T11:44:08Z</time>
      </trkpt>
      <trkpt lat="45.31065" lon="5.4241">
        <ele>598.2</ele>
        <time>2022-04-28T11:44:09Z</time>
      </trkpt>
      <trkpt lat="45.31065" lon="5.42406">
        <ele>598.4</ele>
        <time>2022-04-28T11:44:10Z</time>
      </trkpt>
      <trkpt lat="45.31065" lon="5.42402">
        <ele>598.5</ele>
        <time>2022-04-28T11:44:11Z</time>
      </trkpt>
      <trkpt lat="45.31066" lon="5.42393">
        <ele>598.8</ele>
        <time>2022-04-28T11:44:13Z</time>
      </trkpt>
      <trkpt lat="45.31068" lon="5.42388">
        <ele>599.1</ele>
        <time>2022-04-28T11:44:14Z</time>
      </trkpt>
      <trkpt lat="45.3107" lon="5.42384">
        <ele>599.2</ele>
        <time>2022-04-28T11:44:15Z</time>
      </trkpt>
      <trkpt lat="45.31073" lon="5.42381">
        <ele>599.5</ele>
        <time>2022-04-28T11:44:17Z</time>
      </trkpt>
      <trkpt lat="45.31077" lon="5.42378">
        <ele>599.7</ele>
        <time>2022-04-28T11:44:18Z</time>
      </trkpt>
      <trkpt lat="45.31079" lon="5.42376">
        <ele>599.9</ele>
        <time>2022-04-28T11:44:19Z</time>
      </trkpt>
      <trkpt lat="45.31082" lon="5.42375">
        <ele>600.1</ele>
        <time>2022-04-28T11:44:21Z</time>
      </trkpt>
      <trkpt lat="45.31085" lon="5.42374">
        <ele>600.3</ele>
        <time>2022-04-28T11:44:22Z</time>
      </trkpt>
      <trkpt lat="45.3109" lon="5.42372">
        <ele>600.6</ele>
        <time>2022-04-28T11:44:23Z</time>
      </trkpt>
      <trkpt lat="45.31092" lon="5.42371">
        <ele>600.7</ele>
        <time>2022-04-28T11:44:24Z</time>
      </trkpt>
      <trkpt lat="45.31095" lon="5.42369">
        <ele>600.9</ele>
        <time>2022-04-28T11:44:26Z</time>
      </trkpt>
      <trkpt lat="45.31098" lon="5.42367">
        <ele>601.1</ele>
        <time>2022-04-28T11:44:27Z</time>
      </trkpt>
      <trkpt lat="45.311" lon="5.42364">
        <ele>601.2</ele>
        <time>2022-04-28T11:44:28Z</time>
      </trkpt>
      <trkpt lat="45.31104" lon="5.42359">
        <ele>601.5</ele>
        <time>2022-04-28T11:44:30Z</time>
      </trkpt>
      <trkpt lat="45.31106" lon="5.42355">
        <ele>601.6</ele>
        <time>2022-04-28T11:44:31Z</time>
      </trkpt>
      <trkpt lat="45.31107" lon="5.42351">
        <ele>601.8</ele>
        <time>2022-04-28T11:44:32Z</time>
      </trkpt>
      <trkpt lat="45.31109" lon="5.42346">
        <ele>601.9</ele>
        <time>2022-04-28T11:44:33Z</time>
      </trkpt>
      <trkpt lat="45.31109" lon="5.42342">
        <ele>602.1</ele>
        <time>2022-04-28T11:44:34Z</time>
      </trkpt>
      <trkpt lat="45.3111" lon="5.42337">
        <ele>602.2</ele>
        <time>2022-04-28T11:44:35Z</time>
      </trkpt>
      <trkpt lat="45.31111" lon="5.42333">
        <ele>602.4</ele>
        <time>2022-04-28T11:44:36Z</time>
      </trkpt>
      <trkpt lat="45.31112" lon="5.42329">
        <ele>602.5</ele>
        <time>2022-04-28T11:44:37Z</time>
      </trkpt>
      <trkpt lat="45.31113" lon="5.42323">
        <ele>602.7</ele>
        <time>2022-04-28T11:44:38Z</time>
      </trkpt>
      <trkpt lat="45.31113" lon="5.42321">
        <ele>602.8</ele>
        <time>2022-04-28T11:44:39Z</time>
      </trkpt>
      <trkpt lat="45.31114" lon="5.42315">
        <ele>603.1</ele>
        <time>2022-04-28T11:44:41Z</time>
      </trkpt>
      <trkpt lat="45.31115" lon="5.4231">
        <ele>603.3</ele>
        <time>2022-04-28T11:44:42Z</time>
      </trkpt>
      <trkpt lat="45.31116" lon="5.42303">
        <ele>603.5</ele>
        <time>2022-04-28T11:44:43Z</time>
      </trkpt>
      <trkpt lat="45.31117" lon="5.42299">
        <ele>603.7</ele>
        <time>2022-04-28T11:44:44Z</time>
      </trkpt>
      <trkpt lat="45.31117" lon="5.42295">
        <ele>603.9</ele>
        <time>2022-04-28T11:44:45Z</time>
      </trkpt>
      <trkpt lat="45.31118" lon="5.42292">
        <ele>604</ele>
        <time>2022-04-28T11:44:46Z</time>
      </trkpt>
      <trkpt lat="45.31119" lon="5.42287">
        <ele>604.2</ele>
        <time>2022-04-28T11:44:47Z</time>
      </trkpt>
      <trkpt lat="45.3112" lon="5.42283">
        <ele>604.4</ele>
        <time>2022-04-28T11:44:48Z</time>
      </trkpt>
      <trkpt lat="45.31121" lon="5.42279">
        <ele>604.6</ele>
        <time>2022-04-28T11:44:49Z</time>
      </trkpt>
      <trkpt lat="45.31122" lon="5.42274">
        <ele>604.8</ele>
        <time>2022-04-28T11:44:50Z</time>
      </trkpt>
      <trkpt lat="45.31123" lon="5.4227">
        <ele>604.9</ele>
        <time>2022-04-28T11:44:51Z</time>
      </trkpt>
      <trkpt lat="45.31124" lon="5.42266">
        <ele>605.1</ele>
        <time>2022-04-28T11:44:52Z</time>
      </trkpt>
      <trkpt lat="45.31124" lon="5.42262">
        <ele>605.3</ele>
        <time>2022-04-28T11:44:53Z</time>
      </trkpt>
      <trkpt lat="45.31125" lon="5.42258">
        <ele>605.4</ele>
        <time>2022-04-28T11:44:54Z</time>
      </trkpt>
      <trkpt lat="45.31127" lon="5.42254">
        <ele>605.6</ele>
        <time>2022-04-28T11:44:55Z</time>
      </trkpt>
      <trkpt lat="45.31127" lon="5.4225">
        <ele>605.8</ele>
        <time>2022-04-28T11:44:56Z</time>
      </trkpt>
      <trkpt lat="45.31128" lon="5.42247">
        <ele>605.9</ele>
        <time>2022-04-28T11:44:57Z</time>
      </trkpt>
      <trkpt lat="45.31128" lon="5.42242">
        <ele>606.1</ele>
        <time>2022-04-28T11:44:59Z</time>
      </trkpt>
      <trkpt lat="45.31129" lon="5.42236">
        <ele>606.4</ele>
        <time>2022-04-28T11:45:00Z</time>
      </trkpt>
      <trkpt lat="45.31129" lon="5.42231">
        <ele>606.6</ele>
        <time>2022-04-28T11:45:01Z</time>
      </trkpt>
      <trkpt lat="45.31128" lon="5.42226">
        <ele>606.8</ele>
        <time>2022-04-28T11:45:02Z</time>
      </trkpt>
      <trkpt lat="45.31127" lon="5.42221">
        <ele>607</ele>
        <time>2022-04-28T11:45:04Z</time>
      </trkpt>
      <trkpt lat="45.31126" lon="5.42216">
        <ele>607.2</ele>
        <time>2022-04-28T11:45:05Z</time>
      </trkpt>
      <trkpt lat="45.31125" lon="5.42211">
        <ele>607.4</ele>
        <time>2022-04-28T11:45:06Z</time>
      </trkpt>
      <trkpt lat="45.31123" lon="5.42207">
        <ele>607.6</ele>
        <time>2022-04-28T11:45:07Z</time>
      </trkpt>
      <trkpt lat="45.31122" lon="5.42204">
        <ele>607.7</ele>
        <time>2022-04-28T11:45:08Z</time>
      </trkpt>
      <trkpt lat="45.3112" lon="5.422">
        <ele>607.9</ele>
        <time>2022-04-28T11:45:09Z</time>
      </trkpt>
      <trkpt lat="45.31118" lon="5.42196">
        <ele>608.1</ele>
        <time>2022-04-28T11:45:10Z</time>
      </trkpt>
      <trkpt lat="45.31117" lon="5.42192">
        <ele>608.2</ele>
        <time>2022-04-28T11:45:11Z</time>
      </trkpt>
      <trkpt lat="45.31114" lon="5.42187">
        <ele>608.4</ele>
        <time>2022-04-28T11:45:13Z</time>
      </trkpt>
      <trkpt lat="45.31111" lon="5.42182">
        <ele>608.6</ele>
        <time>2022-04-28T11:45:14Z</time>
      </trkpt>
      <trkpt lat="45.31109" lon="5.4218">
        <ele>608.8</ele>
        <time>2022-04-28T11:45:15Z</time>
      </trkpt>
      <trkpt lat="45.31106" lon="5.42176">
        <ele>609</ele>
        <time>2022-04-28T11:45:16Z</time>
      </trkpt>
      <trkpt lat="45.31103" lon="5.42171">
        <ele>609.2</ele>
        <time>2022-04-28T11:45:18Z</time>
      </trkpt>
      <trkpt lat="45.311" lon="5.42167">
        <ele>609.4</ele>
        <time>2022-04-28T11:45:19Z</time>
      </trkpt>
      <trkpt lat="45.31097" lon="5.42164">
        <ele>609.6</ele>
        <time>2022-04-28T11:45:20Z</time>
      </trkpt>
      <trkpt lat="45.31094" lon="5.42161">
        <ele>609.8</ele>
        <time>2022-04-28T11:45:21Z</time>
      </trkpt>
      <trkpt lat="45.31091" lon="5.42158">
        <ele>610</ele>
        <time>2022-04-28T11:45:22Z</time>
      </trkpt>
      <trkpt lat="45.3109" lon="5.42156">
        <ele>610.1</ele>
        <time>2022-04-28T11:45:23Z</time>
      </trkpt>
      <trkpt lat="45.31087" lon="5.42154">
        <ele>610.2</ele>
        <time>2022-04-28T11:45:24Z</time>
      </trkpt>
      <trkpt lat="45.31083" lon="5.42151">
        <ele>610.5</ele>
        <time>2022-04-28T11:45:26Z</time>
      </trkpt>
      <trkpt lat="45.3108" lon="5.42148">
        <ele>610.6</ele>
        <time>2022-04-28T11:45:27Z</time>
      </trkpt>
      <trkpt lat="45.31077" lon="5.42144">
        <ele>610.9</ele>
        <time>2022-04-28T11:45:28Z</time>
      </trkpt>
      <trkpt lat="45.31076" lon="5.42143">
        <ele>611</ele>
        <time>2022-04-28T11:45:29Z</time>
      </trkpt>
      <trkpt lat="45.31072" lon="5.42137">
        <ele>611.3</ele>
        <time>2022-04-28T11:45:31Z</time>
      </trkpt>
      <trkpt lat="45.31069" lon="5.42134">
        <ele>611.4</ele>
        <time>2022-04-28T11:45:32Z</time>
      </trkpt>
      <trkpt lat="45.31066" lon="5.4213">
        <ele>611.7</ele>
        <time>2022-04-28T11:45:34Z</time>
      </trkpt>
      <trkpt lat="45.31063" lon="5.42127">
        <ele>611.9</ele>
        <time>2022-04-28T11:45:35Z</time>
      </trkpt>
      <trkpt lat="45.31061" lon="5.42124">
        <ele>612.1</ele>
        <time>2022-04-28T11:45:36Z</time>
      </trkpt>
      <trkpt lat="45.31057" lon="5.42121">
        <ele>612.3</ele>
        <time>2022-04-28T11:45:37Z</time>
      </trkpt>
      <trkpt lat="45.31055" lon="5.42118">
        <ele>612.5</ele>
        <time>2022-04-28T11:45:38Z</time>
      </trkpt>
      <trkpt lat="45.31052" lon="5.42115">
        <ele>612.7</ele>
        <time>2022-04-28T11:45:39Z</time>
      </trkpt>
      <trkpt lat="45.31051" lon="5.42114">
        <ele>612.8</ele>
        <time>2022-04-28T11:45:40Z</time>
      </trkpt>
      <trkpt lat="45.31047" lon="5.42111">
        <ele>613.1</ele>
        <time>2022-04-28T11:45:41Z</time>
      </trkpt>
      <trkpt lat="45.31046" lon="5.4211">
        <ele>613.2</ele>
        <time>2022-04-28T11:45:42Z</time>
      </trkpt>
      <trkpt lat="45.31043" lon="5.42108">
        <ele>613.3</ele>
        <time>2022-04-28T11:45:43Z</time>
      </trkpt>
      <trkpt lat="45.31041" lon="5.42106">
        <ele>613.5</ele>
        <time>2022-04-28T11:45:44Z</time>
      </trkpt>
      <trkpt lat="45.31038" lon="5.42104">
        <ele>613.7</ele>
        <time>2022-04-28T11:45:45Z</time>
      </trkpt>
      <trkpt lat="45.31036" lon="5.42102">
        <ele>613.9</ele>
        <time>2022-04-28T11:45:46Z</time>
      </trkpt>
      <trkpt lat="45.31033" lon="5.42099">
        <ele>614.1</ele>
        <time>2022-04-28T11:45:47Z</time>
      </trkpt>
      <trkpt lat="45.3103" lon="5.42096">
        <ele>614.3</ele>
        <time>2022-04-28T11:45:48Z</time>
      </trkpt>
      <trkpt lat="45.31027" lon="5.42093">
        <ele>614.5</ele>
        <time>2022-04-28T11:45:49Z</time>
      </trkpt>
      <trkpt lat="45.31025" lon="5.42091">
        <ele>614.7</ele>
        <time>2022-04-28T11:45:50Z</time>
      </trkpt>
      <trkpt lat="45.31021" lon="5.42089">
        <ele>614.9</ele>
        <time>2022-04-28T11:45:51Z</time>
      </trkpt>
      <trkpt lat="45.3102" lon="5.42088">
        <ele>615</ele>
        <time>2022-04-28T11:45:52Z</time>
      </trkpt>
      <trkpt lat="45.31016" lon="5.42086">
        <ele>615.3</ele>
        <time>2022-04-28T11:45:53Z</time>
      </trkpt>
      <trkpt lat="45.31015" lon="5.42085">
        <ele>615.4</ele>
        <time>2022-04-28T11:45:54Z</time>
      </trkpt>
      <trkpt lat="45.31011" lon="5.42082">
        <ele>615.6</ele>
        <time>2022-04-28T11:45:55Z</time>
      </trkpt>
      <trkpt lat="45.31009" lon="5.42081">
        <ele>615.7</ele>
        <time>2022-04-28T11:45:56Z</time>
      </trkpt>
      <trkpt lat="45.31006" lon="5.42079">
        <ele>615.9</ele>
        <time>2022-04-28T11:45:57Z</time>
      </trkpt>
      <trkpt lat="45.31005" lon="5.42078">
        <ele>616</ele>
        <time>2022-04-28T11:45:58Z</time>
      </trkpt>
      <trkpt lat="45.31002" lon="5.42077">
        <ele>616.2</ele>
        <time>2022-04-28T11:45:59Z</time>
      </trkpt>
      <trkpt lat="45.30998" lon="5.42074">
        <ele>616.4</ele>
        <time>2022-04-28T11:46:00Z</time>
      </trkpt>
      <trkpt lat="45.30997" lon="5.42073">
        <ele>616.5</ele>
        <time>2022-04-28T11:46:01Z</time>
      </trkpt>
      <trkpt lat="45.30993" lon="5.42071">
        <ele>616.8</ele>
        <time>2022-04-28T11:46:02Z</time>
      </trkpt>
      <trkpt lat="45.30992" lon="5.4207">
        <ele>616.9</ele>
        <time>2022-04-28T11:46:03Z</time>
      </trkpt>
      <trkpt lat="45.30988" lon="5.42067">
        <ele>617.1</ele>
        <time>2022-04-28T11:46:04Z</time>
      </trkpt>
      <trkpt lat="45.30987" lon="5.42066">
        <ele>617.2</ele>
        <time>2022-04-28T11:46:05Z</time>
      </trkpt>
      <trkpt lat="45.30984" lon="5.42063">
        <ele>617.4</ele>
        <time>2022-04-28T11:46:06Z</time>
      </trkpt>
      <trkpt lat="45.30981" lon="5.42061">
        <ele>617.6</ele>
        <time>2022-04-28T11:46:07Z</time>
      </trkpt>
      <trkpt lat="45.30978" lon="5.42059">
        <ele>617.8</ele>
        <time>2022-04-28T11:46:08Z</time>
      </trkpt>
      <trkpt lat="45.30974" lon="5.42056">
        <ele>618</ele>
        <time>2022-04-28T11:46:09Z</time>
      </trkpt>
      <trkpt lat="45.30973" lon="5.42056">
        <ele>618.1</ele>
        <time>2022-04-28T11:46:10Z</time>
      </trkpt>
      <trkpt lat="45.3097" lon="5.42053">
        <ele>618.3</ele>
        <time>2022-04-28T11:46:11Z</time>
      </trkpt>
      <trkpt lat="45.30967" lon="5.4205">
        <ele>618.5</ele>
        <time>2022-04-28T11:46:12Z</time>
      </trkpt>
      <trkpt lat="45.30961" lon="5.42045">
        <ele>618.9</ele>
        <time>2022-04-28T11:46:14Z</time>
      </trkpt>
      <trkpt lat="45.30958" lon="5.42042">
        <ele>619.1</ele>
        <time>2022-04-28T11:46:15Z</time>
      </trkpt>
      <trkpt lat="45.30955" lon="5.42039">
        <ele>619.3</ele>
        <time>2022-04-28T11:46:16Z</time>
      </trkpt>
      <trkpt lat="45.30953" lon="5.42036">
        <ele>619.5</ele>
        <time>2022-04-28T11:46:17Z</time>
      </trkpt>
      <trkpt lat="45.30948" lon="5.4203">
        <ele>619.9</ele>
        <time>2022-04-28T11:46:19Z</time>
      </trkpt>
      <trkpt lat="45.30946" lon="5.42026">
        <ele>620.2</ele>
        <time>2022-04-28T11:46:20Z</time>
      </trkpt>
      <trkpt lat="45.30943" lon="5.42021">
        <ele>620.5</ele>
        <time>2022-04-28T11:46:22Z</time>
      </trkpt>
      <trkpt lat="45.3094" lon="5.42017">
        <ele>620.7</ele>
        <time>2022-04-28T11:46:23Z</time>
      </trkpt>
      <trkpt lat="45.30937" lon="5.42013">
        <ele>620.9</ele>
        <time>2022-04-28T11:46:24Z</time>
      </trkpt>
      <trkpt lat="45.30934" lon="5.42011">
        <ele>621.1</ele>
        <time>2022-04-28T11:46:25Z</time>
      </trkpt>
      <trkpt lat="45.30932" lon="5.42007">
        <ele>621.3</ele>
        <time>2022-04-28T11:46:26Z</time>
      </trkpt>
      <trkpt lat="45.3093" lon="5.42004">
        <ele>621.4</ele>
        <time>2022-04-28T11:46:27Z</time>
      </trkpt>
      <trkpt lat="45.30927" lon="5.42001">
        <ele>621.6</ele>
        <time>2022-04-28T11:46:28Z</time>
      </trkpt>
      <trkpt lat="45.30925" lon="5.41998">
        <ele>621.8</ele>
        <time>2022-04-28T11:46:29Z</time>
      </trkpt>
      <trkpt lat="45.30922" lon="5.41995">
        <ele>621.9</ele>
        <time>2022-04-28T11:46:30Z</time>
      </trkpt>
      <trkpt lat="45.30917" lon="5.4199">
        <ele>622.3</ele>
        <time>2022-04-28T11:46:32Z</time>
      </trkpt>
      <trkpt lat="45.30915" lon="5.41988">
        <ele>622.4</ele>
        <time>2022-04-28T11:46:33Z</time>
      </trkpt>
      <trkpt lat="45.30912" lon="5.41985">
        <ele>622.6</ele>
        <time>2022-04-28T11:46:34Z</time>
      </trkpt>
      <trkpt lat="45.3091" lon="5.41982">
        <ele>622.7</ele>
        <time>2022-04-28T11:46:35Z</time>
      </trkpt>
      <trkpt lat="45.30907" lon="5.4198">
        <ele>622.9</ele>
        <time>2022-04-28T11:46:36Z</time>
      </trkpt>
      <trkpt lat="45.30905" lon="5.41977">
        <ele>623.1</ele>
        <time>2022-04-28T11:46:37Z</time>
      </trkpt>
      <trkpt lat="45.30903" lon="5.41974">
        <ele>623.2</ele>
        <time>2022-04-28T11:46:38Z</time>
      </trkpt>
      <trkpt lat="45.309" lon="5.41971">
        <ele>623.4</ele>
        <time>2022-04-28T11:46:39Z</time>
      </trkpt>
      <trkpt lat="45.30897" lon="5.41967">
        <ele>623.6</ele>
        <time>2022-04-28T11:46:40Z</time>
      </trkpt>
      <trkpt lat="45.30895" lon="5.41964">
        <ele>623.8</ele>
        <time>2022-04-28T11:46:41Z</time>
      </trkpt>
      <trkpt lat="45.30892" lon="5.41961">
        <ele>624</ele>
        <time>2022-04-28T11:46:42Z</time>
      </trkpt>
      <trkpt lat="45.30889" lon="5.41958">
        <ele>624.2</ele>
        <time>2022-04-28T11:46:43Z</time>
      </trkpt>
      <trkpt lat="45.30886" lon="5.41954">
        <ele>624.4</ele>
        <time>2022-04-28T11:46:44Z</time>
      </trkpt>
      <trkpt lat="45.30884" lon="5.41951">
        <ele>624.5</ele>
        <time>2022-04-28T11:46:45Z</time>
      </trkpt>
      <trkpt lat="45.30881" lon="5.41948">
        <ele>624.7</ele>
        <time>2022-04-28T11:46:46Z</time>
      </trkpt>
      <trkpt lat="45.30879" lon="5.41946">
        <ele>624.9</ele>
        <time>2022-04-28T11:46:47Z</time>
      </trkpt>
      <trkpt lat="45.30876" lon="5.41943">
        <ele>625.1</ele>
        <time>2022-04-28T11:46:48Z</time>
      </trkpt>
      <trkpt lat="45.30873" lon="5.4194">
        <ele>625.2</ele>
        <time>2022-04-28T11:46:49Z</time>
      </trkpt>
      <trkpt lat="45.3087" lon="5.41938">
        <ele>625.4</ele>
        <time>2022-04-28T11:46:50Z</time>
      </trkpt>
      <trkpt lat="45.30866" lon="5.41936">
        <ele>625.6</ele>
        <time>2022-04-28T11:46:52Z</time>
      </trkpt>
      <trkpt lat="45.30862" lon="5.41932">
        <ele>625.9</ele>
        <time>2022-04-28T11:46:53Z</time>
      </trkpt>
      <trkpt lat="45.30858" lon="5.41929">
        <ele>626.1</ele>
        <time>2022-04-28T11:46:55Z</time>
      </trkpt>
      <trkpt lat="45.30855" lon="5.41926">
        <ele>626.3</ele>
        <time>2022-04-28T11:46:56Z</time>
      </trkpt>
      <trkpt lat="45.30852" lon="5.41923">
        <ele>626.5</ele>
        <time>2022-04-28T11:46:57Z</time>
      </trkpt>
      <trkpt lat="45.30849" lon="5.41921">
        <ele>626.7</ele>
        <time>2022-04-28T11:46:58Z</time>
      </trkpt>
      <trkpt lat="45.30846" lon="5.41919">
        <ele>626.9</ele>
        <time>2022-04-28T11:46:59Z</time>
      </trkpt>
      <trkpt lat="45.30842" lon="5.41916">
        <ele>627.1</ele>
        <time>2022-04-28T11:47:01Z</time>
      </trkpt>
      <trkpt lat="45.3084" lon="5.41914">
        <ele>627.3</ele>
        <time>2022-04-28T11:47:02Z</time>
      </trkpt>
      <trkpt lat="45.30836" lon="5.41911">
        <ele>627.5</ele>
        <time>2022-04-28T11:47:03Z</time>
      </trkpt>
      <trkpt lat="45.30834" lon="5.41909">
        <ele>627.6</ele>
        <time>2022-04-28T11:47:04Z</time>
      </trkpt>
      <trkpt lat="45.3083" lon="5.41905">
        <ele>627.9</ele>
        <time>2022-04-28T11:47:05Z</time>
      </trkpt>
      <trkpt lat="45.30828" lon="5.41902">
        <ele>628.1</ele>
        <time>2022-04-28T11:47:06Z</time>
      </trkpt>
      <trkpt lat="45.30825" lon="5.41901">
        <ele>628.2</ele>
        <time>2022-04-28T11:47:07Z</time>
      </trkpt>
      <trkpt lat="45.30822" lon="5.41899">
        <ele>628.4</ele>
        <time>2022-04-28T11:47:08Z</time>
      </trkpt>
      <trkpt lat="45.3082" lon="5.41897">
        <ele>628.6</ele>
        <time>2022-04-28T11:47:09Z</time>
      </trkpt>
      <trkpt lat="45.30816" lon="5.41894">
        <ele>628.8</ele>
        <time>2022-04-28T11:47:11Z</time>
      </trkpt>
      <trkpt lat="45.30812" lon="5.41892">
        <ele>629</ele>
        <time>2022-04-28T11:47:12Z</time>
      </trkpt>
      <trkpt lat="45.30811" lon="5.41891">
        <ele>629.1</ele>
        <time>2022-04-28T11:47:13Z</time>
      </trkpt>
      <trkpt lat="45.30808" lon="5.41888">
        <ele>629.3</ele>
        <time>2022-04-28T11:47:14Z</time>
      </trkpt>
      <trkpt lat="45.30805" lon="5.41886">
        <ele>629.5</ele>
        <time>2022-04-28T11:47:15Z</time>
      </trkpt>
      <trkpt lat="45.30802" lon="5.41883">
        <ele>629.7</ele>
        <time>2022-04-28T11:47:17Z</time>
      </trkpt>
      <trkpt lat="45.30799" lon="5.41881">
        <ele>629.9</ele>
        <time>2022-04-28T11:47:18Z</time>
      </trkpt>
      <trkpt lat="45.30796" lon="5.41878">
        <ele>630.1</ele>
        <time>2022-04-28T11:47:19Z</time>
      </trkpt>
      <trkpt lat="45.30793" lon="5.41876">
        <ele>630.3</ele>
        <time>2022-04-28T11:47:20Z</time>
      </trkpt>
      <trkpt lat="45.3079" lon="5.41875">
        <ele>630.5</ele>
        <time>2022-04-28T11:47:21Z</time>
      </trkpt>
      <trkpt lat="45.30788" lon="5.41874">
        <ele>630.7</ele>
        <time>2022-04-28T11:47:22Z</time>
      </trkpt>
      <trkpt lat="45.30785" lon="5.41872">
        <ele>630.9</ele>
        <time>2022-04-28T11:47:23Z</time>
      </trkpt>
      <trkpt lat="45.3078" lon="5.4187">
        <ele>631.2</ele>
        <time>2022-04-28T11:47:25Z</time>
      </trkpt>
      <trkpt lat="45.30777" lon="5.41869">
        <ele>631.4</ele>
        <time>2022-04-28T11:47:26Z</time>
      </trkpt>
      <trkpt lat="45.30774" lon="5.41868">
        <ele>631.6</ele>
        <time>2022-04-28T11:47:27Z</time>
      </trkpt>
      <trkpt lat="45.30772" lon="5.41867">
        <ele>631.8</ele>
        <time>2022-04-28T11:47:28Z</time>
      </trkpt>
      <trkpt lat="45.30769" lon="5.41867">
        <ele>631.9</ele>
        <time>2022-04-28T11:47:29Z</time>
      </trkpt>
      <trkpt lat="45.30766" lon="5.41866">
        <ele>632.1</ele>
        <time>2022-04-28T11:47:30Z</time>
      </trkpt>
      <trkpt lat="45.30761" lon="5.41864">
        <ele>632.4</ele>
        <time>2022-04-28T11:47:32Z</time>
      </trkpt>
      <trkpt lat="45.30757" lon="5.41863">
        <ele>632.6</ele>
        <time>2022-04-28T11:47:33Z</time>
      </trkpt>
      <trkpt lat="45.30755" lon="5.41862">
        <ele>632.7</ele>
        <time>2022-04-28T11:47:34Z</time>
      </trkpt>
      <trkpt lat="45.30751" lon="5.41862">
        <ele>632.8</ele>
        <time>2022-04-28T11:47:35Z</time>
      </trkpt>
      <trkpt lat="45.30747" lon="5.41861">
        <ele>632.9</ele>
        <time>2022-04-28T11:47:36Z</time>
      </trkpt>
      <trkpt lat="45.30746" lon="5.41861">
        <ele>633</ele>
        <time>2022-04-28T11:47:37Z</time>
      </trkpt>
      <trkpt lat="45.30743" lon="5.41861">
        <ele>633.1</ele>
        <time>2022-04-28T11:47:38Z</time>
      </trkpt>
      <trkpt lat="45.3074" lon="5.41861">
        <ele>633.2</ele>
        <time>2022-04-28T11:47:39Z</time>
      </trkpt>
      <trkpt lat="45.30737" lon="5.41861">
        <ele>633.2</ele>
        <time>2022-04-28T11:47:40Z</time>
      </trkpt>
      <trkpt lat="45.30733" lon="5.41861">
        <ele>633.3</ele>
        <time>2022-04-28T11:47:41Z</time>
      </trkpt>
      <trkpt lat="45.30732" lon="5.41861">
        <ele>633.3</ele>
        <time>2022-04-28T11:47:42Z</time>
      </trkpt>
      <trkpt lat="45.30728" lon="5.41861">
        <ele>633.4</ele>
        <time>2022-04-28T11:47:43Z</time>
      </trkpt>
      <trkpt lat="45.30727" lon="5.4186">
        <ele>633.5</ele>
        <time>2022-04-28T11:47:44Z</time>
      </trkpt>
      <trkpt lat="45.30723" lon="5.4186">
        <ele>633.5</ele>
        <time>2022-04-28T11:47:45Z</time>
      </trkpt>
      <trkpt lat="45.3072" lon="5.41861">
        <ele>633.5</ele>
        <time>2022-04-28T11:47:46Z</time>
      </trkpt>
      <trkpt lat="45.30717" lon="5.41862">
        <ele>633.6</ele>
        <time>2022-04-28T11:47:47Z</time>
      </trkpt>
      <trkpt lat="45.30713" lon="5.41862">
        <ele>633.6</ele>
        <time>2022-04-28T11:47:48Z</time>
      </trkpt>
      <trkpt lat="45.3071" lon="5.41862">
        <ele>633.5</ele>
        <time>2022-04-28T11:47:49Z</time>
      </trkpt>
      <trkpt lat="45.30706" lon="5.41861">
        <ele>633.5</ele>
        <time>2022-04-28T11:47:50Z</time>
      </trkpt>
      <trkpt lat="45.30702" lon="5.41861">
        <ele>633.5</ele>
        <time>2022-04-28T11:47:51Z</time>
      </trkpt>
      <trkpt lat="45.30699" lon="5.41861">
        <ele>633.4</ele>
        <time>2022-04-28T11:47:52Z</time>
      </trkpt>
      <trkpt lat="45.30696" lon="5.4186">
        <ele>633.3</ele>
        <time>2022-04-28T11:47:53Z</time>
      </trkpt>
      <trkpt lat="45.30691" lon="5.4186">
        <ele>633.2</ele>
        <time>2022-04-28T11:47:54Z</time>
      </trkpt>
      <trkpt lat="45.30687" lon="5.4186">
        <ele>633.1</ele>
        <time>2022-04-28T11:47:55Z</time>
      </trkpt>
      <trkpt lat="45.30681" lon="5.41858">
        <ele>633</ele>
        <time>2022-04-28T11:47:56Z</time>
      </trkpt>
      <trkpt lat="45.30676" lon="5.41858">
        <ele>632.8</ele>
        <time>2022-04-28T11:47:57Z</time>
      </trkpt>
      <trkpt lat="45.30671" lon="5.41859">
        <ele>632.6</ele>
        <time>2022-04-28T11:47:58Z</time>
      </trkpt>
      <trkpt lat="45.30666" lon="5.41857">
        <ele>632.5</ele>
        <time>2022-04-28T11:47:59Z</time>
      </trkpt>
      <trkpt lat="45.30661" lon="5.41857">
        <ele>632.3</ele>
        <time>2022-04-28T11:48:00Z</time>
      </trkpt>
      <trkpt lat="45.30656" lon="5.41857">
        <ele>632</ele>
        <time>2022-04-28T11:48:01Z</time>
      </trkpt>
      <trkpt lat="45.3065" lon="5.41855">
        <ele>631.7</ele>
        <time>2022-04-28T11:48:02Z</time>
      </trkpt>
      <trkpt lat="45.30643" lon="5.41854">
        <ele>631.3</ele>
        <time>2022-04-28T11:48:03Z</time>
      </trkpt>
      <trkpt lat="45.30636" lon="5.41854">
        <ele>630.9</ele>
        <time>2022-04-28T11:48:04Z</time>
      </trkpt>
      <trkpt lat="45.30629" lon="5.41854">
        <ele>630.5</ele>
        <time>2022-04-28T11:48:05Z</time>
      </trkpt>
      <trkpt lat="45.30622" lon="5.41853">
        <ele>630.1</ele>
        <time>2022-04-28T11:48:06Z</time>
      </trkpt>
      <trkpt lat="45.30614" lon="5.41855">
        <ele>629.6</ele>
        <time>2022-04-28T11:48:07Z</time>
      </trkpt>
      <trkpt lat="45.30607" lon="5.41858">
        <ele>629.1</ele>
        <time>2022-04-28T11:48:08Z</time>
      </trkpt>
      <trkpt lat="45.30599" lon="5.41864">
        <ele>628.6</ele>
        <time>2022-04-28T11:48:09Z</time>
      </trkpt>
      <trkpt lat="45.30593" lon="5.41869">
        <ele>628.2</ele>
        <time>2022-04-28T11:48:10Z</time>
      </trkpt>
      <trkpt lat="45.30585" lon="5.41873">
        <ele>627.7</ele>
        <time>2022-04-28T11:48:11Z</time>
      </trkpt>
      <trkpt lat="45.30577" lon="5.41876">
        <ele>627.3</ele>
        <time>2022-04-28T11:48:12Z</time>
      </trkpt>
      <trkpt lat="45.3057" lon="5.41879">
        <ele>626.9</ele>
        <time>2022-04-28T11:48:13Z</time>
      </trkpt>
      <trkpt lat="45.30561" lon="5.41881">
        <ele>626.5</ele>
        <time>2022-04-28T11:48:14Z</time>
      </trkpt>
      <trkpt lat="45.30552" lon="5.41882">
        <ele>626</ele>
        <time>2022-04-28T11:48:15Z</time>
      </trkpt>
      <trkpt lat="45.30543" lon="5.41885">
        <ele>625.6</ele>
        <time>2022-04-28T11:48:16Z</time>
      </trkpt>
      <trkpt lat="45.30536" lon="5.41887">
        <ele>625.2</ele>
        <time>2022-04-28T11:48:17Z</time>
      </trkpt>
      <trkpt lat="45.30529" lon="5.41892">
        <ele>624.7</ele>
        <time>2022-04-28T11:48:18Z</time>
      </trkpt>
      <trkpt lat="45.30522" lon="5.41899">
        <ele>624.3</ele>
        <time>2022-04-28T11:48:19Z</time>
      </trkpt>
      <trkpt lat="45.30517" lon="5.41908">
        <ele>624</ele>
        <time>2022-04-28T11:48:20Z</time>
      </trkpt>
      <trkpt lat="45.30512" lon="5.41918">
        <ele>623.6</ele>
        <time>2022-04-28T11:48:21Z</time>
      </trkpt>
      <trkpt lat="45.30506" lon="5.41927">
        <ele>623.4</ele>
        <time>2022-04-28T11:48:22Z</time>
      </trkpt>
      <trkpt lat="45.30499" lon="5.41934">
        <ele>623.2</ele>
        <time>2022-04-28T11:48:23Z</time>
      </trkpt>
      <trkpt lat="45.30491" lon="5.41938">
        <ele>623.1</ele>
        <time>2022-04-28T11:48:24Z</time>
      </trkpt>
      <trkpt lat="45.30483" lon="5.41938">
        <ele>623</ele>
        <time>2022-04-28T11:48:25Z</time>
      </trkpt>
      <trkpt lat="45.30476" lon="5.41934">
        <ele>622.7</ele>
        <time>2022-04-28T11:48:26Z</time>
      </trkpt>
      <trkpt lat="45.3047" lon="5.41927">
        <ele>622.4</ele>
        <time>2022-04-28T11:48:27Z</time>
      </trkpt>
      <trkpt lat="45.30467" lon="5.41918">
        <ele>622.2</ele>
        <time>2022-04-28T11:48:28Z</time>
      </trkpt>
      <trkpt lat="45.30463" lon="5.41911">
        <ele>621.9</ele>
        <time>2022-04-28T11:48:29Z</time>
      </trkpt>
      <trkpt lat="45.30458" lon="5.41903">
        <ele>621.6</ele>
        <time>2022-04-28T11:48:30Z</time>
      </trkpt>
      <trkpt lat="45.30453" lon="5.41895">
        <ele>621.3</ele>
        <time>2022-04-28T11:48:31Z</time>
      </trkpt>
      <trkpt lat="45.30448" lon="5.41887">
        <ele>620.9</ele>
        <time>2022-04-28T11:48:32Z</time>
      </trkpt>
      <trkpt lat="45.30443" lon="5.41879">
        <ele>620.7</ele>
        <time>2022-04-28T11:48:33Z</time>
      </trkpt>
      <trkpt lat="45.30438" lon="5.41871">
        <ele>620.3</ele>
        <time>2022-04-28T11:48:34Z</time>
      </trkpt>
      <trkpt lat="45.30433" lon="5.41864">
        <ele>620.1</ele>
        <time>2022-04-28T11:48:35Z</time>
      </trkpt>
      <trkpt lat="45.30428" lon="5.41857">
        <ele>619.8</ele>
        <time>2022-04-28T11:48:36Z</time>
      </trkpt>
      <trkpt lat="45.30422" lon="5.41851">
        <ele>619.5</ele>
        <time>2022-04-28T11:48:37Z</time>
      </trkpt>
      <trkpt lat="45.30415" lon="5.41845">
        <ele>619.2</ele>
        <time>2022-04-28T11:48:38Z</time>
      </trkpt>
      <trkpt lat="45.30409" lon="5.41839">
        <ele>618.9</ele>
        <time>2022-04-28T11:48:39Z</time>
      </trkpt>
      <trkpt lat="45.30402" lon="5.41834">
        <ele>618.6</ele>
        <time>2022-04-28T11:48:40Z</time>
      </trkpt>
      <trkpt lat="45.30395" lon="5.41828">
        <ele>618.3</ele>
        <time>2022-04-28T11:48:41Z</time>
      </trkpt>
      <trkpt lat="45.30389" lon="5.41822">
        <ele>618</ele>
        <time>2022-04-28T11:48:42Z</time>
      </trkpt>
      <trkpt lat="45.30382" lon="5.41815">
        <ele>617.7</ele>
        <time>2022-04-28T11:48:43Z</time>
      </trkpt>
      <trkpt lat="45.30376" lon="5.41808">
        <ele>617.5</ele>
        <time>2022-04-28T11:48:44Z</time>
      </trkpt>
      <trkpt lat="45.30369" lon="5.41802">
        <ele>617.2</ele>
        <time>2022-04-28T11:48:45Z</time>
      </trkpt>
      <trkpt lat="45.30362" lon="5.41796">
        <ele>616.9</ele>
        <time>2022-04-28T11:48:46Z</time>
      </trkpt>
      <trkpt lat="45.30355" lon="5.4179">
        <ele>616.6</ele>
        <time>2022-04-28T11:48:47Z</time>
      </trkpt>
      <trkpt lat="45.30348" lon="5.41784">
        <ele>616.2</ele>
        <time>2022-04-28T11:48:48Z</time>
      </trkpt>
      <trkpt lat="45.30342" lon="5.41776">
        <ele>615.9</ele>
        <time>2022-04-28T11:48:49Z</time>
      </trkpt>
      <trkpt lat="45.30336" lon="5.41768">
        <ele>615.5</ele>
        <time>2022-04-28T11:48:50Z</time>
      </trkpt>
      <trkpt lat="45.30331" lon="5.4176">
        <ele>615</ele>
        <time>2022-04-28T11:48:51Z</time>
      </trkpt>
      <trkpt lat="45.30325" lon="5.41751">
        <ele>614.6</ele>
        <time>2022-04-28T11:48:52Z</time>
      </trkpt>
      <trkpt lat="45.3032" lon="5.41743">
        <ele>614.2</ele>
        <time>2022-04-28T11:48:53Z</time>
      </trkpt>
      <trkpt lat="45.30314" lon="5.41735">
        <ele>613.9</ele>
        <time>2022-04-28T11:48:54Z</time>
      </trkpt>
      <trkpt lat="45.30308" lon="5.41727">
        <ele>613.6</ele>
        <time>2022-04-28T11:48:55Z</time>
      </trkpt>
      <trkpt lat="45.30302" lon="5.41719">
        <ele>613.3</ele>
        <time>2022-04-28T11:48:56Z</time>
      </trkpt>
      <trkpt lat="45.30295" lon="5.41711">
        <ele>613</ele>
        <time>2022-04-28T11:48:57Z</time>
      </trkpt>
      <trkpt lat="45.30288" lon="5.41703">
        <ele>612.7</ele>
        <time>2022-04-28T11:48:58Z</time>
      </trkpt>
      <trkpt lat="45.30282" lon="5.41695">
        <ele>612.5</ele>
        <time>2022-04-28T11:48:59Z</time>
      </trkpt>
      <trkpt lat="45.30276" lon="5.41687">
        <ele>612.2</ele>
        <time>2022-04-28T11:49:00Z</time>
      </trkpt>
      <trkpt lat="45.30271" lon="5.4168">
        <ele>611.9</ele>
        <time>2022-04-28T11:49:01Z</time>
      </trkpt>
      <trkpt lat="45.30266" lon="5.41673">
        <ele>611.7</ele>
        <time>2022-04-28T11:49:02Z</time>
      </trkpt>
      <trkpt lat="45.30261" lon="5.41666">
        <ele>611.4</ele>
        <time>2022-04-28T11:49:03Z</time>
      </trkpt>
      <trkpt lat="45.30257" lon="5.41658">
        <ele>611</ele>
        <time>2022-04-28T11:49:04Z</time>
      </trkpt>
      <trkpt lat="45.30252" lon="5.4165">
        <ele>610.7</ele>
        <time>2022-04-28T11:49:05Z</time>
      </trkpt>
      <trkpt lat="45.30247" lon="5.41642">
        <ele>610.3</ele>
        <time>2022-04-28T11:49:06Z</time>
      </trkpt>
      <trkpt lat="45.30243" lon="5.41632">
        <ele>609.9</ele>
        <time>2022-04-28T11:49:07Z</time>
      </trkpt>
      <trkpt lat="45.30238" lon="5.41622">
        <ele>609.4</ele>
        <time>2022-04-28T11:49:08Z</time>
      </trkpt>
      <trkpt lat="45.30234" lon="5.41613">
        <ele>609</ele>
        <time>2022-04-28T11:49:09Z</time>
      </trkpt>
      <trkpt lat="45.30229" lon="5.41603">
        <ele>608.7</ele>
        <time>2022-04-28T11:49:10Z</time>
      </trkpt>
      <trkpt lat="45.30225" lon="5.41594">
        <ele>608.3</ele>
        <time>2022-04-28T11:49:11Z</time>
      </trkpt>
      <trkpt lat="45.3022" lon="5.41586">
        <ele>608</ele>
        <time>2022-04-28T11:49:12Z</time>
      </trkpt>
      <trkpt lat="45.30214" lon="5.41578">
        <ele>607.7</ele>
        <time>2022-04-28T11:49:13Z</time>
      </trkpt>
      <trkpt lat="45.30208" lon="5.4157">
        <ele>607.4</ele>
        <time>2022-04-28T11:49:14Z</time>
      </trkpt>
      <trkpt lat="45.30202" lon="5.41562">
        <ele>607</ele>
        <time>2022-04-28T11:49:15Z</time>
      </trkpt>
      <trkpt lat="45.30195" lon="5.41554">
        <ele>606.7</ele>
        <time>2022-04-28T11:49:16Z</time>
      </trkpt>
      <trkpt lat="45.30189" lon="5.41545">
        <ele>606.3</ele>
        <time>2022-04-28T11:49:17Z</time>
      </trkpt>
      <trkpt lat="45.30182" lon="5.41536">
        <ele>605.9</ele>
        <time>2022-04-28T11:49:18Z</time>
      </trkpt>
      <trkpt lat="45.30177" lon="5.41527">
        <ele>605.5</ele>
        <time>2022-04-28T11:49:19Z</time>
      </trkpt>
      <trkpt lat="45.30172" lon="5.41517">
        <ele>605.1</ele>
        <time>2022-04-28T11:49:20Z</time>
      </trkpt>
      <trkpt lat="45.30167" lon="5.41507">
        <ele>604.7</ele>
        <time>2022-04-28T11:49:21Z</time>
      </trkpt>
      <trkpt lat="45.30163" lon="5.41496">
        <ele>604.3</ele>
        <time>2022-04-28T11:49:22Z</time>
      </trkpt>
      <trkpt lat="45.30159" lon="5.41484">
        <ele>603.9</ele>
        <time>2022-04-28T11:49:23Z</time>
      </trkpt>
      <trkpt lat="45.30154" lon="5.41472">
        <ele>603.6</ele>
        <time>2022-04-28T11:49:24Z</time>
      </trkpt>
      <trkpt lat="45.3015" lon="5.4146">
        <ele>603.4</ele>
        <time>2022-04-28T11:49:25Z</time>
      </trkpt>
      <trkpt lat="45.30146" lon="5.41449">
        <ele>603.3</ele>
        <time>2022-04-28T11:49:26Z</time>
      </trkpt>
      <trkpt lat="45.30142" lon="5.41438">
        <ele>603.2</ele>
        <time>2022-04-28T11:49:27Z</time>
      </trkpt>
      <trkpt lat="45.30137" lon="5.41427">
        <ele>603.1</ele>
        <time>2022-04-28T11:49:28Z</time>
      </trkpt>
      <trkpt lat="45.30133" lon="5.41417">
        <ele>603</ele>
        <time>2022-04-28T11:49:29Z</time>
      </trkpt>
      <trkpt lat="45.30128" lon="5.41406">
        <ele>602.9</ele>
        <time>2022-04-28T11:49:30Z</time>
      </trkpt>
      <trkpt lat="45.30124" lon="5.41397">
        <ele>602.7</ele>
        <time>2022-04-28T11:49:31Z</time>
      </trkpt>
      <trkpt lat="45.3012" lon="5.41388">
        <ele>602.6</ele>
        <time>2022-04-28T11:49:32Z</time>
      </trkpt>
      <trkpt lat="45.30116" lon="5.4138">
        <ele>602.5</ele>
        <time>2022-04-28T11:49:33Z</time>
      </trkpt>
      <trkpt lat="45.30111" lon="5.41371">
        <ele>602.4</ele>
        <time>2022-04-28T11:49:34Z</time>
      </trkpt>
      <trkpt lat="45.30107" lon="5.41362">
        <ele>602.3</ele>
        <time>2022-04-28T11:49:35Z</time>
      </trkpt>
      <trkpt lat="45.30102" lon="5.41354">
        <ele>602.2</ele>
        <time>2022-04-28T11:49:36Z</time>
      </trkpt>
      <trkpt lat="45.30097" lon="5.41347">
        <ele>602.2</ele>
        <time>2022-04-28T11:49:37Z</time>
      </trkpt>
      <trkpt lat="45.30092" lon="5.41338">
        <ele>602.1</ele>
        <time>2022-04-28T11:49:38Z</time>
      </trkpt>
      <trkpt lat="45.30087" lon="5.41331">
        <ele>602.1</ele>
        <time>2022-04-28T11:49:39Z</time>
      </trkpt>
      <trkpt lat="45.30082" lon="5.41323">
        <ele>602</ele>
        <time>2022-04-28T11:49:40Z</time>
      </trkpt>
      <trkpt lat="45.30077" lon="5.41315">
        <ele>602</ele>
        <time>2022-04-28T11:49:41Z</time>
      </trkpt>
      <trkpt lat="45.30072" lon="5.41308">
        <ele>601.9</ele>
        <time>2022-04-28T11:49:42Z</time>
      </trkpt>
      <trkpt lat="45.30066" lon="5.41299">
        <ele>601.8</ele>
        <time>2022-04-28T11:49:43Z</time>
      </trkpt>
      <trkpt lat="45.3006" lon="5.41292">
        <ele>601.8</ele>
        <time>2022-04-28T11:49:44Z</time>
      </trkpt>
      <trkpt lat="45.30054" lon="5.41285">
        <ele>601.7</ele>
        <time>2022-04-28T11:49:45Z</time>
      </trkpt>
      <trkpt lat="45.30048" lon="5.41278">
        <ele>601.7</ele>
        <time>2022-04-28T11:49:46Z</time>
      </trkpt>
      <trkpt lat="45.30042" lon="5.41271">
        <ele>601.6</ele>
        <time>2022-04-28T11:49:47Z</time>
      </trkpt>
      <trkpt lat="45.30036" lon="5.41264">
        <ele>601.6</ele>
        <time>2022-04-28T11:49:48Z</time>
      </trkpt>
      <trkpt lat="45.30031" lon="5.41258">
        <ele>601.5</ele>
        <time>2022-04-28T11:49:49Z</time>
      </trkpt>
      <trkpt lat="45.30025" lon="5.4125">
        <ele>601.5</ele>
        <time>2022-04-28T11:49:50Z</time>
      </trkpt>
      <trkpt lat="45.3002" lon="5.41243">
        <ele>601.5</ele>
        <time>2022-04-28T11:49:51Z</time>
      </trkpt>
      <trkpt lat="45.30014" lon="5.41236">
        <ele>601.4</ele>
        <time>2022-04-28T11:49:52Z</time>
      </trkpt>
      <trkpt lat="45.30009" lon="5.41228">
        <ele>601.4</ele>
        <time>2022-04-28T11:49:53Z</time>
      </trkpt>
      <trkpt lat="45.30004" lon="5.4122">
        <ele>601.3</ele>
        <time>2022-04-28T11:49:54Z</time>
      </trkpt>
      <trkpt lat="45.30001" lon="5.4121">
        <ele>601.3</ele>
        <time>2022-04-28T11:49:55Z</time>
      </trkpt>
      <trkpt lat="45.29998" lon="5.41201">
        <ele>601.2</ele>
        <time>2022-04-28T11:49:56Z</time>
      </trkpt>
      <trkpt lat="45.29995" lon="5.4119">
        <ele>601.1</ele>
        <time>2022-04-28T11:49:57Z</time>
      </trkpt>
      <trkpt lat="45.29992" lon="5.41181">
        <ele>601</ele>
        <time>2022-04-28T11:49:58Z</time>
      </trkpt>
      <trkpt lat="45.2999" lon="5.41171">
        <ele>600.9</ele>
        <time>2022-04-28T11:49:59Z</time>
      </trkpt>
      <trkpt lat="45.29987" lon="5.41161">
        <ele>600.8</ele>
        <time>2022-04-28T11:50:00Z</time>
      </trkpt>
      <trkpt lat="45.29985" lon="5.41152">
        <ele>600.6</ele>
        <time>2022-04-28T11:50:01Z</time>
      </trkpt>
      <trkpt lat="45.29982" lon="5.41142">
        <ele>600.5</ele>
        <time>2022-04-28T11:50:02Z</time>
      </trkpt>
      <trkpt lat="45.29979" lon="5.41133">
        <ele>600.4</ele>
        <time>2022-04-28T11:50:03Z</time>
      </trkpt>
      <trkpt lat="45.29976" lon="5.41125">
        <ele>600.3</ele>
        <time>2022-04-28T11:50:04Z</time>
      </trkpt>
      <trkpt lat="45.29972" lon="5.41115">
        <ele>600.2</ele>
        <time>2022-04-28T11:50:05Z</time>
      </trkpt>
      <trkpt lat="45.29969" lon="5.41105">
        <ele>600.1</ele>
        <time>2022-04-28T11:50:06Z</time>
      </trkpt>
      <trkpt lat="45.29966" lon="5.41097">
        <ele>600.1</ele>
        <time>2022-04-28T11:50:07Z</time>
      </trkpt>
      <trkpt lat="45.29963" lon="5.41088">
        <ele>600</ele>
        <time>2022-04-28T11:50:08Z</time>
      </trkpt>
      <trkpt lat="45.2996" lon="5.4108">
        <ele>599.9</ele>
        <time>2022-04-28T11:50:09Z</time>
      </trkpt>
      <trkpt lat="45.29956" lon="5.41071">
        <ele>599.9</ele>
        <time>2022-04-28T11:50:10Z</time>
      </trkpt>
      <trkpt lat="45.29953" lon="5.41062">
        <ele>599.9</ele>
        <time>2022-04-28T11:50:11Z</time>
      </trkpt>
      <trkpt lat="45.2995" lon="5.41054">
        <ele>599.9</ele>
        <time>2022-04-28T11:50:12Z</time>
      </trkpt>
      <trkpt lat="45.29946" lon="5.41047">
        <ele>599.8</ele>
        <time>2022-04-28T11:50:13Z</time>
      </trkpt>
      <trkpt lat="45.29943" lon="5.41039">
        <ele>599.8</ele>
        <time>2022-04-28T11:50:14Z</time>
      </trkpt>
      <trkpt lat="45.29939" lon="5.41032">
        <ele>599.8</ele>
        <time>2022-04-28T11:50:15Z</time>
      </trkpt>
      <trkpt lat="45.29935" lon="5.41025">
        <ele>599.7</ele>
        <time>2022-04-28T11:50:16Z</time>
      </trkpt>
      <trkpt lat="45.29931" lon="5.41018">
        <ele>599.6</ele>
        <time>2022-04-28T11:50:17Z</time>
      </trkpt>
      <trkpt lat="45.29927" lon="5.41011">
        <ele>599.6</ele>
        <time>2022-04-28T11:50:18Z</time>
      </trkpt>
      <trkpt lat="45.29924" lon="5.41004">
        <ele>599.5</ele>
        <time>2022-04-28T11:50:19Z</time>
      </trkpt>
      <trkpt lat="45.29921" lon="5.40997">
        <ele>599.4</ele>
        <time>2022-04-28T11:50:20Z</time>
      </trkpt>
      <trkpt lat="45.29918" lon="5.40989">
        <ele>599.4</ele>
        <time>2022-04-28T11:50:21Z</time>
      </trkpt>
      <trkpt lat="45.29916" lon="5.40981">
        <ele>599.3</ele>
        <time>2022-04-28T11:50:22Z</time>
      </trkpt>
      <trkpt lat="45.29913" lon="5.40973">
        <ele>599.3</ele>
        <time>2022-04-28T11:50:23Z</time>
      </trkpt>
      <trkpt lat="45.2991" lon="5.40964">
        <ele>599.2</ele>
        <time>2022-04-28T11:50:24Z</time>
      </trkpt>
      <trkpt lat="45.29908" lon="5.40956">
        <ele>599.1</ele>
        <time>2022-04-28T11:50:25Z</time>
      </trkpt>
      <trkpt lat="45.29905" lon="5.40948">
        <ele>599.1</ele>
        <time>2022-04-28T11:50:26Z</time>
      </trkpt>
      <trkpt lat="45.29902" lon="5.4094">
        <ele>599</ele>
        <time>2022-04-28T11:50:27Z</time>
      </trkpt>
      <trkpt lat="45.299" lon="5.40932">
        <ele>599</ele>
        <time>2022-04-28T11:50:28Z</time>
      </trkpt>
      <trkpt lat="45.29896" lon="5.40926">
        <ele>598.9</ele>
        <time>2022-04-28T11:50:29Z</time>
      </trkpt>
      <trkpt lat="45.29893" lon="5.40918">
        <ele>598.8</ele>
        <time>2022-04-28T11:50:30Z</time>
      </trkpt>
      <trkpt lat="45.29891" lon="5.4091">
        <ele>598.7</ele>
        <time>2022-04-28T11:50:31Z</time>
      </trkpt>
      <trkpt lat="45.29888" lon="5.40902">
        <ele>598.5</ele>
        <time>2022-04-28T11:50:32Z</time>
      </trkpt>
      <trkpt lat="45.29885" lon="5.40894">
        <ele>598.3</ele>
        <time>2022-04-28T11:50:33Z</time>
      </trkpt>
      <trkpt lat="45.29883" lon="5.40886">
        <ele>598.1</ele>
        <time>2022-04-28T11:50:34Z</time>
      </trkpt>
      <trkpt lat="45.2988" lon="5.40879">
        <ele>597.9</ele>
        <time>2022-04-28T11:50:35Z</time>
      </trkpt>
      <trkpt lat="45.29877" lon="5.4087">
        <ele>597.7</ele>
        <time>2022-04-28T11:50:36Z</time>
      </trkpt>
      <trkpt lat="45.29875" lon="5.40861">
        <ele>597.4</ele>
        <time>2022-04-28T11:50:37Z</time>
      </trkpt>
      <trkpt lat="45.29872" lon="5.40852">
        <ele>597.1</ele>
        <time>2022-04-28T11:50:38Z</time>
      </trkpt>
      <trkpt lat="45.2987" lon="5.40843">
        <ele>596.7</ele>
        <time>2022-04-28T11:50:39Z</time>
      </trkpt>
      <trkpt lat="45.29868" lon="5.40833">
        <ele>596.4</ele>
        <time>2022-04-28T11:50:40Z</time>
      </trkpt>
      <trkpt lat="45.29865" lon="5.40824">
        <ele>596</ele>
        <time>2022-04-28T11:50:41Z</time>
      </trkpt>
      <trkpt lat="45.29863" lon="5.40815">
        <ele>595.6</ele>
        <time>2022-04-28T11:50:42Z</time>
      </trkpt>
      <trkpt lat="45.2986" lon="5.40804">
        <ele>595.1</ele>
        <time>2022-04-28T11:50:43Z</time>
      </trkpt>
      <trkpt lat="45.29856" lon="5.40793">
        <ele>594.6</ele>
        <time>2022-04-28T11:50:44Z</time>
      </trkpt>
      <trkpt lat="45.29853" lon="5.40782">
        <ele>594</ele>
        <time>2022-04-28T11:50:45Z</time>
      </trkpt>
      <trkpt lat="45.29851" lon="5.40771">
        <ele>593.5</ele>
        <time>2022-04-28T11:50:46Z</time>
      </trkpt>
      <trkpt lat="45.29849" lon="5.4076">
        <ele>593</ele>
        <time>2022-04-28T11:50:47Z</time>
      </trkpt>
      <trkpt lat="45.29848" lon="5.4075">
        <ele>592.5</ele>
        <time>2022-04-28T11:50:48Z</time>
      </trkpt>
      <trkpt lat="45.29848" lon="5.40738">
        <ele>592</ele>
        <time>2022-04-28T11:50:49Z</time>
      </trkpt>
      <trkpt lat="45.29848" lon="5.40725">
        <ele>591.4</ele>
        <time>2022-04-28T11:50:50Z</time>
      </trkpt>
      <trkpt lat="45.29848" lon="5.40713">
        <ele>590.8</ele>
        <time>2022-04-28T11:50:51Z</time>
      </trkpt>
      <trkpt lat="45.29849" lon="5.40701">
        <ele>590.2</ele>
        <time>2022-04-28T11:50:52Z</time>
      </trkpt>
      <trkpt lat="45.29847" lon="5.4069">
        <ele>589.6</ele>
        <time>2022-04-28T11:50:53Z</time>
      </trkpt>
      <trkpt lat="45.29843" lon="5.40678">
        <ele>588.8</ele>
        <time>2022-04-28T11:50:54Z</time>
      </trkpt>
      <trkpt lat="45.29839" lon="5.40666">
        <ele>588.1</ele>
        <time>2022-04-28T11:50:55Z</time>
      </trkpt>
      <trkpt lat="45.29836" lon="5.40653">
        <ele>587.3</ele>
        <time>2022-04-28T11:50:56Z</time>
      </trkpt>
      <trkpt lat="45.29832" lon="5.40641">
        <ele>586.5</ele>
        <time>2022-04-28T11:50:57Z</time>
      </trkpt>
      <trkpt lat="45.2983" lon="5.40629">
        <ele>585.8</ele>
        <time>2022-04-28T11:50:58Z</time>
      </trkpt>
      <trkpt lat="45.29829" lon="5.40616">
        <ele>585</ele>
        <time>2022-04-28T11:50:59Z</time>
      </trkpt>
      <trkpt lat="45.29828" lon="5.40603">
        <ele>584.2</ele>
        <time>2022-04-28T11:51:00Z</time>
      </trkpt>
      <trkpt lat="45.29827" lon="5.40588">
        <ele>583.2</ele>
        <time>2022-04-28T11:51:01Z</time>
      </trkpt>
      <trkpt lat="45.29825" lon="5.40573">
        <ele>582.3</ele>
        <time>2022-04-28T11:51:02Z</time>
      </trkpt>
      <trkpt lat="45.29821" lon="5.40559">
        <ele>581.3</ele>
        <time>2022-04-28T11:51:03Z</time>
      </trkpt>
      <trkpt lat="45.29816" lon="5.40545">
        <ele>580.2</ele>
        <time>2022-04-28T11:51:04Z</time>
      </trkpt>
      <trkpt lat="45.2981" lon="5.40531">
        <ele>579</ele>
        <time>2022-04-28T11:51:05Z</time>
      </trkpt>
      <trkpt lat="45.29805" lon="5.40517">
        <ele>577.8</ele>
        <time>2022-04-28T11:51:06Z</time>
      </trkpt>
      <trkpt lat="45.29799" lon="5.40502">
        <ele>576.6</ele>
        <time>2022-04-28T11:51:07Z</time>
      </trkpt>
      <trkpt lat="45.29793" lon="5.40488">
        <ele>575.4</ele>
        <time>2022-04-28T11:51:08Z</time>
      </trkpt>
      <trkpt lat="45.29788" lon="5.40473">
        <ele>574.5</ele>
        <time>2022-04-28T11:51:09Z</time>
      </trkpt>
      <trkpt lat="45.29783" lon="5.40459">
        <ele>574</ele>
        <time>2022-04-28T11:51:10Z</time>
      </trkpt>
      <trkpt lat="45.29779" lon="5.40444">
        <ele>573.2</ele>
        <time>2022-04-28T11:51:11Z</time>
      </trkpt>
      <trkpt lat="45.29774" lon="5.4043">
        <ele>572.1</ele>
        <time>2022-04-28T11:51:12Z</time>
      </trkpt>
      <trkpt lat="45.29769" lon="5.40417">
        <ele>571.1</ele>
        <time>2022-04-28T11:51:13Z</time>
      </trkpt>
      <trkpt lat="45.29765" lon="5.40404">
        <ele>570.1</ele>
        <time>2022-04-28T11:51:14Z</time>
      </trkpt>
      <trkpt lat="45.29761" lon="5.40391">
        <ele>569</ele>
        <time>2022-04-28T11:51:15Z</time>
      </trkpt>
      <trkpt lat="45.29758" lon="5.40376">
        <ele>568</ele>
        <time>2022-04-28T11:51:16Z</time>
      </trkpt>
      <trkpt lat="45.29756" lon="5.40363">
        <ele>567.1</ele>
        <time>2022-04-28T11:51:17Z</time>
      </trkpt>
      <trkpt lat="45.29756" lon="5.40354">
        <ele>566.6</ele>
        <time>2022-04-28T11:51:18Z</time>
      </trkpt>
      <trkpt lat="45.29755" lon="5.40342">
        <ele>566</ele>
        <time>2022-04-28T11:51:19Z</time>
      </trkpt>
      <trkpt lat="45.29752" lon="5.40329">
        <ele>565.3</ele>
        <time>2022-04-28T11:51:20Z</time>
      </trkpt>
      <trkpt lat="45.29749" lon="5.40317">
        <ele>564.6</ele>
        <time>2022-04-28T11:51:21Z</time>
      </trkpt>
      <trkpt lat="45.29747" lon="5.40305">
        <ele>563.9</ele>
        <time>2022-04-28T11:51:22Z</time>
      </trkpt>
      <trkpt lat="45.29744" lon="5.40292">
        <ele>563.1</ele>
        <time>2022-04-28T11:51:23Z</time>
      </trkpt>
      <trkpt lat="45.2974" lon="5.40279">
        <ele>562.2</ele>
        <time>2022-04-28T11:51:24Z</time>
      </trkpt>
      <trkpt lat="45.29736" lon="5.40269">
        <ele>561.3</ele>
        <time>2022-04-28T11:51:25Z</time>
      </trkpt>
      <trkpt lat="45.29727" lon="5.40263">
        <ele>560.3</ele>
        <time>2022-04-28T11:51:26Z</time>
      </trkpt>
      <trkpt lat="45.29718" lon="5.40257">
        <ele>559.1</ele>
        <time>2022-04-28T11:51:27Z</time>
      </trkpt>
      <trkpt lat="45.29707" lon="5.40256">
        <ele>557.9</ele>
        <time>2022-04-28T11:51:28Z</time>
      </trkpt>
      <trkpt lat="45.29697" lon="5.40257">
        <ele>556.7</ele>
        <time>2022-04-28T11:51:29Z</time>
      </trkpt>
      <trkpt lat="45.29687" lon="5.40259">
        <ele>555.5</ele>
        <time>2022-04-28T11:51:30Z</time>
      </trkpt>
      <trkpt lat="45.29677" lon="5.40263">
        <ele>554.4</ele>
        <time>2022-04-28T11:51:31Z</time>
      </trkpt>
      <trkpt lat="45.29667" lon="5.40266">
        <ele>553.3</ele>
        <time>2022-04-28T11:51:32Z</time>
      </trkpt>
      <trkpt lat="45.29656" lon="5.4027">
        <ele>552.2</ele>
        <time>2022-04-28T11:51:33Z</time>
      </trkpt>
      <trkpt lat="45.29645" lon="5.40273">
        <ele>551</ele>
        <time>2022-04-28T11:51:34Z</time>
      </trkpt>
      <trkpt lat="45.29634" lon="5.40276">
        <ele>549.9</ele>
        <time>2022-04-28T11:51:35Z</time>
      </trkpt>
      <trkpt lat="45.29621" lon="5.4028">
        <ele>548.7</ele>
        <time>2022-04-28T11:51:36Z</time>
      </trkpt>
      <trkpt lat="45.2961" lon="5.40284">
        <ele>547.6</ele>
        <time>2022-04-28T11:51:37Z</time>
      </trkpt>
      <trkpt lat="45.29599" lon="5.40288">
        <ele>546.6</ele>
        <time>2022-04-28T11:51:38Z</time>
      </trkpt>
      <trkpt lat="45.29588" lon="5.40292">
        <ele>545.7</ele>
        <time>2022-04-28T11:51:39Z</time>
      </trkpt>
      <trkpt lat="45.29578" lon="5.40296">
        <ele>545</ele>
        <time>2022-04-28T11:51:40Z</time>
      </trkpt>
      <trkpt lat="45.29568" lon="5.40301">
        <ele>544.5</ele>
        <time>2022-04-28T11:51:41Z</time>
      </trkpt>
      <trkpt lat="45.2956" lon="5.40303">
        <ele>544</ele>
        <time>2022-04-28T11:51:42Z</time>
      </trkpt>
      <trkpt lat="45.29552" lon="5.40306">
        <ele>543.6</ele>
        <time>2022-04-28T11:51:43Z</time>
      </trkpt>
      <trkpt lat="45.29544" lon="5.40309">
        <ele>543.2</ele>
        <time>2022-04-28T11:51:44Z</time>
      </trkpt>
      <trkpt lat="45.29537" lon="5.40312">
        <ele>542.9</ele>
        <time>2022-04-28T11:51:45Z</time>
      </trkpt>
      <trkpt lat="45.2953" lon="5.40315">
        <ele>542.5</ele>
        <time>2022-04-28T11:51:46Z</time>
      </trkpt>
      <trkpt lat="45.29523" lon="5.40318">
        <ele>542.1</ele>
        <time>2022-04-28T11:51:47Z</time>
      </trkpt>
      <trkpt lat="45.29521" lon="5.40324">
        <ele>541.7</ele>
        <time>2022-04-28T11:51:48Z</time>
      </trkpt>
      <trkpt lat="45.29519" lon="5.40326">
        <ele>541.5</ele>
        <time>2022-04-28T11:51:49Z</time>
      </trkpt>
      <trkpt lat="45.29517" lon="5.40331">
        <ele>539.1</ele>
        <time>2022-04-28T11:51:50Z</time>
      </trkpt>
      <trkpt lat="45.29517" lon="5.40333">
        <ele>539</ele>
        <time>2022-04-28T11:51:51Z</time>
      </trkpt>
      <trkpt lat="45.29517" lon="5.40337">
        <ele>538.9</ele>
        <time>2022-04-28T11:51:52Z</time>
      </trkpt>
      <trkpt lat="45.29517" lon="5.40337">
        <ele>538.9</ele>
        <time>2022-04-28T11:51:53Z</time>
      </trkpt>
      <trkpt lat="45.29514" lon="5.40338">
        <ele>538.8</ele>
        <time>2022-04-28T11:51:54Z</time>
      </trkpt>
      <trkpt lat="45.29513" lon="5.40337">
        <ele>538.7</ele>
        <time>2022-04-28T11:51:55Z</time>
      </trkpt>
      <trkpt lat="45.2951" lon="5.40333">
        <ele>538.6</ele>
        <time>2022-04-28T11:51:56Z</time>
      </trkpt>
      <trkpt lat="45.29509" lon="5.40328">
        <ele>538.5</ele>
        <time>2022-04-28T11:51:57Z</time>
      </trkpt>
      <trkpt lat="45.29509" lon="5.40323">
        <ele>538.4</ele>
        <time>2022-04-28T11:51:58Z</time>
      </trkpt>
      <trkpt lat="45.2951" lon="5.40319">
        <ele>538.3</ele>
        <time>2022-04-28T11:51:59Z</time>
      </trkpt>
      <trkpt lat="45.29511" lon="5.40314">
        <ele>538.2</ele>
        <time>2022-04-28T11:52:00Z</time>
      </trkpt>
      <trkpt lat="45.29512" lon="5.40312">
        <ele>538.2</ele>
        <time>2022-04-28T11:52:01Z</time>
      </trkpt>
      <trkpt lat="45.29512" lon="5.40308">
        <ele>538.1</ele>
        <time>2022-04-28T11:52:02Z</time>
      </trkpt>
      <trkpt lat="45.29513" lon="5.40305">
        <ele>538</ele>
        <time>2022-04-28T11:52:03Z</time>
      </trkpt>
      <trkpt lat="45.29514" lon="5.40304">
        <ele>538</ele>
        <time>2022-04-28T11:52:04Z</time>
      </trkpt>
      <trkpt lat="45.29515" lon="5.403">
        <ele>538</ele>
        <time>2022-04-28T11:52:05Z</time>
      </trkpt>
      <trkpt lat="45.29515" lon="5.40298">
        <ele>538</ele>
        <time>2022-04-28T11:52:06Z</time>
      </trkpt>
      <trkpt lat="45.29514" lon="5.40294">
        <ele>538</ele>
        <time>2022-04-28T11:52:07Z</time>
      </trkpt>
      <trkpt lat="45.29514" lon="5.40292">
        <ele>538</ele>
        <time>2022-04-28T11:52:08Z</time>
      </trkpt>
      <trkpt lat="45.29512" lon="5.40288">
        <ele>538</ele>
        <time>2022-04-28T11:52:09Z</time>
      </trkpt>
      <trkpt lat="45.2951" lon="5.40287">
        <ele>538</ele>
        <time>2022-04-28T11:52:10Z</time>
      </trkpt>
      <trkpt lat="45.29508" lon="5.40284">
        <ele>537.9</ele>
        <time>2022-04-28T11:52:11Z</time>
      </trkpt>
      <trkpt lat="45.29506" lon="5.40281">
        <ele>537.9</ele>
        <time>2022-04-28T11:52:12Z</time>
      </trkpt>
      <trkpt lat="45.29503" lon="5.40278">
        <ele>537.9</ele>
        <time>2022-04-28T11:52:13Z</time>
      </trkpt>
      <trkpt lat="45.29502" lon="5.40278">
        <ele>537.9</ele>
        <time>2022-04-28T11:52:14Z</time>
      </trkpt>
      <trkpt lat="45.295" lon="5.40278">
        <ele>537.9</ele>
        <time>2022-04-28T11:52:15Z</time>
      </trkpt>
      <trkpt lat="45.29499" lon="5.40278">
        <ele>537.9</ele>
        <time>2022-04-28T11:52:16Z</time>
      </trkpt>
      <trkpt lat="45.29498" lon="5.40277">
        <ele>537.9</ele>
        <time>2022-04-28T11:52:17Z</time>
      </trkpt>
      <trkpt lat="45.29498" lon="5.40277">
        <ele>537.9</ele>
        <time>2022-04-28T11:52:18Z</time>
      </trkpt>
      <trkpt lat="45.29498" lon="5.40278">
        <ele>537.9</ele>
        <time>2022-04-28T11:52:19Z</time>
      </trkpt>
      <trkpt lat="45.29498" lon="5.40278">
        <ele>537.9</ele>
        <time>2022-04-28T11:52:20Z</time>
      </trkpt>
      <trkpt lat="45.29498" lon="5.40278">
        <ele>537.9</ele>
        <time>2022-04-28T11:52:21Z</time>
      </trkpt>
      <trkpt lat="45.29498" lon="5.40278">
        <ele>537.9</ele>
        <time>2022-04-28T11:52:22Z</time>
      </trkpt>
      <trkpt lat="45.29498" lon="5.40277">
        <ele>537.9</ele>
        <time>2022-04-28T11:52:23Z</time>
      </trkpt>
      <trkpt lat="45.29498" lon="5.40277">
        <ele>537.9</ele>
        <time>2022-04-28T11:52:24Z</time>
      </trkpt>
      <trkpt lat="45.29498" lon="5.40278">
        <ele>537.9</ele>
        <time>2022-04-28T11:52:25Z</time>
      </trkpt>
      <trkpt lat="45.29498" lon="5.40278">
        <ele>537.9</ele>
        <time>2022-04-28T11:52:26Z</time>
      </trkpt>
      <trkpt lat="45.29498" lon="5.40278">
        <ele>537.9</ele>
        <time>2022-04-28T11:52:27Z</time>
      </trkpt>
      <trkpt lat="45.29498" lon="5.40278">
        <ele>537.9</ele>
        <time>2022-04-28T11:52:28Z</time>
      </trkpt>
      <trkpt lat="45.29496" lon="5.40279">
        <ele>537.9</ele>
        <time>2022-04-28T11:52:54Z</time>
      </trkpt>
      <trkpt lat="45.29496" lon="5.4028">
        <ele>537.9</ele>
        <time>2022-04-28T11:52:55Z</time>
      </trkpt>
      <trkpt lat="45.29496" lon="5.40281">
        <ele>537.9</ele>
        <time>2022-04-28T11:52:56Z</time>
      </trkpt>
      <trkpt lat="45.29496" lon="5.40281">
        <ele>537.9</ele>
        <time>2022-04-28T11:52:57Z</time>
      </trkpt>
      <trkpt lat="45.29496" lon="5.40281">
        <ele>537.9</ele>
        <time>2022-04-28T11:52:58Z</time>
      </trkpt>
      <trkpt lat="45.29496" lon="5.40281">
        <ele>537.9</ele>
        <time>2022-04-28T11:52:59Z</time>
      </trkpt>
      <trkpt lat="45.29497" lon="5.40282">
        <ele>537.9</ele>
        <time>2022-04-28T11:53:00Z</time>
      </trkpt>
      <trkpt lat="45.29497" lon="5.40283">
        <ele>537.9</ele>
        <time>2022-04-28T11:53:01Z</time>
      </trkpt>
      <trkpt lat="45.29497" lon="5.40283">
        <ele>537.9</ele>
        <time>2022-04-28T11:53:02Z</time>
      </trkpt>
      <trkpt lat="45.29497" lon="5.40284">
        <ele>537.9</ele>
        <time>2022-04-28T11:53:03Z</time>
      </trkpt>
      <trkpt lat="45.29497" lon="5.40283">
        <ele>537.9</ele>
        <time>2022-04-28T11:53:04Z</time>
      </trkpt>
      <trkpt lat="45.29497" lon="5.40283">
        <ele>537.9</ele>
        <time>2022-04-28T11:53:05Z</time>
      </trkpt>
      <trkpt lat="45.29497" lon="5.40282">
        <ele>537.9</ele>
        <time>2022-04-28T11:53:06Z</time>
      </trkpt>
      <trkpt lat="45.29497" lon="5.40282">
        <ele>537.9</ele>
        <time>2022-04-28T11:53:07Z</time>
      </trkpt>
      <trkpt lat="45.29497" lon="5.40282">
        <ele>537.9</ele>
        <time>2022-04-28T11:53:08Z</time>
      </trkpt>
      <trkpt lat="45.29497" lon="5.40282">
        <ele>537.9</ele>
        <time>2022-04-28T11:53:09Z</time>
      </trkpt>
      <trkpt lat="45.29497" lon="5.40282">
        <ele>537.9</ele>
        <time>2022-04-28T11:53:10Z</time>
      </trkpt>
      <trkpt lat="45.29497" lon="5.40281">
        <ele>537.9</ele>
        <time>2022-04-28T11:53:11Z</time>
      </trkpt>
      <trkpt lat="45.29497" lon="5.40281">
        <ele>537.9</ele>
        <time>2022-04-28T11:53:12Z</time>
      </trkpt>
      <trkpt lat="45.29497" lon="5.40281">
        <ele>537.9</ele>
        <time>2022-04-28T11:53:13Z</time>
      </trkpt>
      <trkpt lat="45.295" lon="5.40285">
        <ele>537.9</ele>
        <time>2022-04-28T11:57:46Z</time>
      </trkpt>
      <trkpt lat="45.295" lon="5.40285">
        <ele>537.9</ele>
        <time>2022-04-28T11:57:47Z</time>
      </trkpt>
      <trkpt lat="45.295" lon="5.40285">
        <ele>537.9</ele>
        <time>2022-04-28T11:57:48Z</time>
      </trkpt>
      <trkpt lat="45.295" lon="5.40286">
        <ele>537.9</ele>
        <time>2022-04-28T11:57:49Z</time>
      </trkpt>
      <trkpt lat="45.295" lon="5.40286">
        <ele>537.9</ele>
        <time>2022-04-28T11:57:50Z</time>
      </trkpt>
      <trkpt lat="45.295" lon="5.40286">
        <ele>537.9</ele>
        <time>2022-04-28T11:57:51Z</time>
      </trkpt>
      <trkpt lat="45.295" lon="5.40286">
        <ele>537.9</ele>
        <time>2022-04-28T11:57:52Z</time>
      </trkpt>
      <trkpt lat="45.295" lon="5.40285">
        <ele>537.9</ele>
        <time>2022-04-28T11:57:53Z</time>
      </trkpt>
      <trkpt lat="45.295" lon="5.40285">
        <ele>537.9</ele>
        <time>2022-04-28T11:57:54Z</time>
      </trkpt>
      <trkpt lat="45.295" lon="5.40284">
        <ele>537.9</ele>
        <time>2022-04-28T11:57:55Z</time>
      </trkpt>
      <trkpt lat="45.295" lon="5.40284">
        <ele>537.9</ele>
        <time>2022-04-28T11:57:56Z</time>
      </trkpt>
      <trkpt lat="45.295" lon="5.40284">
        <ele>537.9</ele>
        <time>2022-04-28T11:57:57Z</time>
      </trkpt>
      <trkpt lat="45.295" lon="5.40283">
        <ele>537.9</ele>
        <time>2022-04-28T11:57:58Z</time>
      </trkpt>
      <trkpt lat="45.295" lon="5.40283">
        <ele>537.9</ele>
        <time>2022-04-28T11:57:59Z</time>
      </trkpt>
      <trkpt lat="45.295" lon="5.40283">
        <ele>537.9</ele>
        <time>2022-04-28T11:58:00Z</time>
      </trkpt>
      <trkpt lat="45.295" lon="5.40283">
        <ele>537.9</ele>
        <time>2022-04-28T11:58:01Z</time>
      </trkpt>
      <trkpt lat="45.29501" lon="5.40283">
        <ele>537.9</ele>
        <time>2022-04-28T11:58:02Z</time>
      </trkpt>
      <trkpt lat="45.29501" lon="5.40282">
        <ele>537.9</ele>
        <time>2022-04-28T12:04:37Z</time>
      </trkpt>
      <trkpt lat="45.29501" lon="5.40281">
        <ele>537.9</ele>
        <time>2022-04-28T12:04:38Z</time>
      </trkpt>
      <trkpt lat="45.295" lon="5.40281">
        <ele>537.9</ele>
        <time>2022-04-28T12:04:39Z</time>
      </trkpt>
      <trkpt lat="45.295" lon="5.40281">
        <ele>537.9</ele>
        <time>2022-04-28T12:04:40Z</time>
      </trkpt>
      <trkpt lat="45.295" lon="5.40281">
        <ele>537.9</ele>
        <time>2022-04-28T12:04:41Z</time>
      </trkpt>
      <trkpt lat="45.295" lon="5.40281">
        <ele>537.9</ele>
        <time>2022-04-28T12:04:42Z</time>
      </trkpt>
      <trkpt lat="45.295" lon="5.40281">
        <ele>537.9</ele>
        <time>2022-04-28T12:04:43Z</time>
      </trkpt>
      <trkpt lat="45.295" lon="5.40281">
        <ele>537.9</ele>
        <time>2022-04-28T12:04:44Z</time>
      </trkpt>
      <trkpt lat="45.295" lon="5.40281">
        <ele>537.9</ele>
        <time>2022-04-28T12:04:45Z</time>
      </trkpt>
      <trkpt lat="45.295" lon="5.40281">
        <ele>537.9</ele>
        <time>2022-04-28T12:04:46Z</time>
      </trkpt>
      <trkpt lat="45.295" lon="5.40281">
        <ele>537.9</ele>
        <time>2022-04-28T12:04:47Z</time>
      </trkpt>
      <trkpt lat="45.29499" lon="5.40281">
        <ele>537.9</ele>
        <time>2022-04-28T12:04:48Z</time>
      </trkpt>
      <trkpt lat="45.29499" lon="5.40281">
        <ele>537.9</ele>
        <time>2022-04-28T12:04:49Z</time>
      </trkpt>
      <trkpt lat="45.29499" lon="5.40281">
        <ele>537.9</ele>
        <time>2022-04-28T12:04:50Z</time>
      </trkpt>
      <trkpt lat="45.29498" lon="5.40281">
        <ele>537.9</ele>
        <time>2022-04-28T12:04:51Z</time>
      </trkpt>
      <trkpt lat="45.29498" lon="5.40281">
        <ele>537.9</ele>
        <time>2022-04-28T12:04:52Z</time>
      </trkpt>
      <trkpt lat="45.29498" lon="5.40281">
        <ele>537.9</ele>
        <time>2022-04-28T12:04:53Z</time>
      </trkpt>
      <trkpt lat="45.29499" lon="5.40281">
        <ele>537.9</ele>
        <time>2022-04-28T12:04:54Z</time>
      </trkpt>
      <trkpt lat="45.29499" lon="5.40281">
        <ele>537.9</ele>
        <time>2022-04-28T12:04:55Z</time>
      </trkpt>
      <trkpt lat="45.295" lon="5.40281">
        <ele>537.9</ele>
        <time>2022-04-28T12:04:56Z</time>
      </trkpt>
      <trkpt lat="45.295" lon="5.4028">
        <ele>537.9</ele>
        <time>2022-04-28T12:04:57Z</time>
      </trkpt>
      <trkpt lat="45.29501" lon="5.4028">
        <ele>537.9</ele>
        <time>2022-04-28T12:04:58Z</time>
      </trkpt>
      <trkpt lat="45.29501" lon="5.4028">
        <ele>538</ele>
        <time>2022-04-28T12:04:59Z</time>
      </trkpt>
      <trkpt lat="45.29502" lon="5.4028">
        <ele>538</ele>
        <time>2022-04-28T12:05:00Z</time>
      </trkpt>
      <trkpt lat="45.29502" lon="5.4028">
        <ele>538</ele>
        <time>2022-04-28T12:05:01Z</time>
      </trkpt>
      <trkpt lat="45.29503" lon="5.4028">
        <ele>538</ele>
        <time>2022-04-28T12:05:02Z</time>
      </trkpt>
      <trkpt lat="45.29503" lon="5.4028">
        <ele>538</ele>
        <time>2022-04-28T12:05:03Z</time>
      </trkpt>
      <trkpt lat="45.29504" lon="5.4028">
        <ele>538</ele>
        <time>2022-04-28T12:05:04Z</time>
      </trkpt>
      <trkpt lat="45.29504" lon="5.4028">
        <ele>538</ele>
        <time>2022-04-28T12:09:43Z</time>
      </trkpt>
      <trkpt lat="45.29505" lon="5.4028">
        <ele>538</ele>
        <time>2022-04-28T12:09:44Z</time>
      </trkpt>
      <trkpt lat="45.29505" lon="5.4028">
        <ele>538</ele>
        <time>2022-04-28T12:09:45Z</time>
      </trkpt>
      <trkpt lat="45.29505" lon="5.40276">
        <ele>538</ele>
        <time>2022-04-28T12:09:46Z</time>
      </trkpt>
      <trkpt lat="45.29505" lon="5.40274">
        <ele>538</ele>
        <time>2022-04-28T12:09:48Z</time>
      </trkpt>
      <trkpt lat="45.29504" lon="5.40272">
        <ele>538</ele>
        <time>2022-04-28T12:09:49Z</time>
      </trkpt>
      <trkpt lat="45.29504" lon="5.4027">
        <ele>538</ele>
        <time>2022-04-28T12:09:50Z</time>
      </trkpt>
      <trkpt lat="45.29501" lon="5.40265">
        <ele>538</ele>
        <time>2022-04-28T12:09:51Z</time>
      </trkpt>
      <trkpt lat="45.29499" lon="5.4026">
        <ele>538</ele>
        <time>2022-04-28T12:09:53Z</time>
      </trkpt>
      <trkpt lat="45.29497" lon="5.40257">
        <ele>538</ele>
        <time>2022-04-28T12:09:54Z</time>
      </trkpt>
      <trkpt lat="45.29494" lon="5.40254">
        <ele>538</ele>
        <time>2022-04-28T12:09:55Z</time>
      </trkpt>
      <trkpt lat="45.29492" lon="5.40252">
        <ele>538</ele>
        <time>2022-04-28T12:09:56Z</time>
      </trkpt>
      <trkpt lat="45.29491" lon="5.40252">
        <ele>538</ele>
        <time>2022-04-28T12:09:57Z</time>
      </trkpt>
      <trkpt lat="45.29485" lon="5.40254">
        <ele>538.1</ele>
        <time>2022-04-28T12:09:59Z</time>
      </trkpt>
      <trkpt lat="45.29482" lon="5.40256">
        <ele>538.1</ele>
        <time>2022-04-28T12:10:00Z</time>
      </trkpt>
      <trkpt lat="45.29478" lon="5.40259">
        <ele>538.1</ele>
        <time>2022-04-28T12:10:01Z</time>
      </trkpt>
      <trkpt lat="45.29474" lon="5.40261">
        <ele>538.2</ele>
        <time>2022-04-28T12:10:02Z</time>
      </trkpt>
      <trkpt lat="45.29471" lon="5.40263">
        <ele>538.2</ele>
        <time>2022-04-28T12:10:03Z</time>
      </trkpt>
      <trkpt lat="45.29468" lon="5.40264">
        <ele>538.2</ele>
        <time>2022-04-28T12:10:04Z</time>
      </trkpt>
      <trkpt lat="45.29464" lon="5.40267">
        <ele>538.3</ele>
        <time>2022-04-28T12:10:06Z</time>
      </trkpt>
      <trkpt lat="45.29461" lon="5.40268">
        <ele>538.3</ele>
        <time>2022-04-28T12:10:07Z</time>
      </trkpt>
      <trkpt lat="45.29458" lon="5.40269">
        <ele>538.4</ele>
        <time>2022-04-28T12:10:08Z</time>
      </trkpt>
      <trkpt lat="45.29455" lon="5.4027">
        <ele>538.4</ele>
        <time>2022-04-28T12:10:09Z</time>
      </trkpt>
      <trkpt lat="45.29451" lon="5.40272">
        <ele>538.5</ele>
        <time>2022-04-28T12:10:11Z</time>
      </trkpt>
      <trkpt lat="45.29447" lon="5.40275">
        <ele>538.6</ele>
        <time>2022-04-28T12:10:12Z</time>
      </trkpt>
      <trkpt lat="45.29444" lon="5.40277">
        <ele>538.7</ele>
        <time>2022-04-28T12:10:13Z</time>
      </trkpt>
      <trkpt lat="45.29442" lon="5.40278">
        <ele>538.8</ele>
        <time>2022-04-28T12:10:14Z</time>
      </trkpt>
      <trkpt lat="45.29438" lon="5.40281">
        <ele>538.9</ele>
        <time>2022-04-28T12:10:15Z</time>
      </trkpt>
      <trkpt lat="45.29435" lon="5.40283">
        <ele>539</ele>
        <time>2022-04-28T12:10:16Z</time>
      </trkpt>
      <trkpt lat="45.29432" lon="5.40285">
        <ele>539.2</ele>
        <time>2022-04-28T12:10:17Z</time>
      </trkpt>
      <trkpt lat="45.29429" lon="5.40287">
        <ele>539.3</ele>
        <time>2022-04-28T12:10:18Z</time>
      </trkpt>
      <trkpt lat="45.29425" lon="5.40289">
        <ele>539.5</ele>
        <time>2022-04-28T12:10:19Z</time>
      </trkpt>
      <trkpt lat="45.29422" lon="5.40291">
        <ele>539.6</ele>
        <time>2022-04-28T12:10:20Z</time>
      </trkpt>
      <trkpt lat="45.29419" lon="5.40293">
        <ele>539.7</ele>
        <time>2022-04-28T12:10:21Z</time>
      </trkpt>
      <trkpt lat="45.29413" lon="5.40296">
        <ele>540</ele>
        <time>2022-04-28T12:10:23Z</time>
      </trkpt>
      <trkpt lat="45.29409" lon="5.40298">
        <ele>540.2</ele>
        <time>2022-04-28T12:10:24Z</time>
      </trkpt>
      <trkpt lat="45.29405" lon="5.40299">
        <ele>540.3</ele>
        <time>2022-04-28T12:10:25Z</time>
      </trkpt>
      <trkpt lat="45.29403" lon="5.40301">
        <ele>540.4</ele>
        <time>2022-04-28T12:10:26Z</time>
      </trkpt>
      <trkpt lat="45.294" lon="5.40302">
        <ele>540.5</ele>
        <time>2022-04-28T12:10:27Z</time>
      </trkpt>
      <trkpt lat="45.29397" lon="5.40304">
        <ele>540.6</ele>
        <time>2022-04-28T12:10:28Z</time>
      </trkpt>
      <trkpt lat="45.29394" lon="5.40306">
        <ele>540.7</ele>
        <time>2022-04-28T12:10:29Z</time>
      </trkpt>
      <trkpt lat="45.2939" lon="5.40307">
        <ele>540.9</ele>
        <time>2022-04-28T12:10:30Z</time>
      </trkpt>
      <trkpt lat="45.29389" lon="5.40308">
        <ele>540.9</ele>
        <time>2022-04-28T12:10:31Z</time>
      </trkpt>
      <trkpt lat="45.29386" lon="5.40309">
        <ele>541</ele>
        <time>2022-04-28T12:10:32Z</time>
      </trkpt>
      <trkpt lat="45.29383" lon="5.40311">
        <ele>541.1</ele>
        <time>2022-04-28T12:10:33Z</time>
      </trkpt>
      <trkpt lat="45.2938" lon="5.40312">
        <ele>541.2</ele>
        <time>2022-04-28T12:10:34Z</time>
      </trkpt>
      <trkpt lat="45.29377" lon="5.40313">
        <ele>541.3</ele>
        <time>2022-04-28T12:10:35Z</time>
      </trkpt>
      <trkpt lat="45.29373" lon="5.40314">
        <ele>541.5</ele>
        <time>2022-04-28T12:10:36Z</time>
      </trkpt>
      <trkpt lat="45.29369" lon="5.40315">
        <ele>541.6</ele>
        <time>2022-04-28T12:10:37Z</time>
      </trkpt>
      <trkpt lat="45.29366" lon="5.40316">
        <ele>541.7</ele>
        <time>2022-04-28T12:10:38Z</time>
      </trkpt>
      <trkpt lat="45.29363" lon="5.40318">
        <ele>541.9</ele>
        <time>2022-04-28T12:10:39Z</time>
      </trkpt>
      <trkpt lat="45.29359" lon="5.40318">
        <ele>542</ele>
        <time>2022-04-28T12:10:41Z</time>
      </trkpt>
      <trkpt lat="45.29355" lon="5.4032">
        <ele>542.2</ele>
        <time>2022-04-28T12:10:42Z</time>
      </trkpt>
      <trkpt lat="45.2935" lon="5.40321">
        <ele>542.4</ele>
        <time>2022-04-28T12:10:43Z</time>
      </trkpt>
      <trkpt lat="45.29346" lon="5.40322">
        <ele>542.6</ele>
        <time>2022-04-28T12:10:44Z</time>
      </trkpt>
      <trkpt lat="45.29342" lon="5.40323">
        <ele>542.7</ele>
        <time>2022-04-28T12:10:45Z</time>
      </trkpt>
      <trkpt lat="45.29337" lon="5.40324">
        <ele>542.9</ele>
        <time>2022-04-28T12:10:46Z</time>
      </trkpt>
      <trkpt lat="45.29332" lon="5.40324">
        <ele>543.1</ele>
        <time>2022-04-28T12:10:48Z</time>
      </trkpt>
      <trkpt lat="45.29327" lon="5.40325">
        <ele>543.3</ele>
        <time>2022-04-28T12:10:49Z</time>
      </trkpt>
      <trkpt lat="45.29323" lon="5.40326">
        <ele>543.5</ele>
        <time>2022-04-28T12:10:50Z</time>
      </trkpt>
      <trkpt lat="45.29319" lon="5.40326">
        <ele>543.6</ele>
        <time>2022-04-28T12:10:52Z</time>
      </trkpt>
      <trkpt lat="45.29315" lon="5.40326">
        <ele>543.7</ele>
        <time>2022-04-28T12:10:53Z</time>
      </trkpt>
      <trkpt lat="45.29311" lon="5.40326">
        <ele>543.9</ele>
        <time>2022-04-28T12:10:54Z</time>
      </trkpt>
      <trkpt lat="45.29307" lon="5.40326">
        <ele>544</ele>
        <time>2022-04-28T12:10:55Z</time>
      </trkpt>
      <trkpt lat="45.29301" lon="5.40324">
        <ele>544.2</ele>
        <time>2022-04-28T12:10:57Z</time>
      </trkpt>
      <trkpt lat="45.29297" lon="5.40324">
        <ele>544.3</ele>
        <time>2022-04-28T12:10:58Z</time>
      </trkpt>
      <trkpt lat="45.29293" lon="5.40323">
        <ele>544.5</ele>
        <time>2022-04-28T12:10:59Z</time>
      </trkpt>
      <trkpt lat="45.2929" lon="5.40323">
        <ele>544.6</ele>
        <time>2022-04-28T12:11:00Z</time>
      </trkpt>
      <trkpt lat="45.29285" lon="5.40321">
        <ele>544.8</ele>
        <time>2022-04-28T12:11:02Z</time>
      </trkpt>
      <trkpt lat="45.29281" lon="5.40319">
        <ele>544.9</ele>
        <time>2022-04-28T12:11:03Z</time>
      </trkpt>
      <trkpt lat="45.29276" lon="5.40319">
        <ele>545.1</ele>
        <time>2022-04-28T12:11:04Z</time>
      </trkpt>
      <trkpt lat="45.29273" lon="5.40318">
        <ele>545.2</ele>
        <time>2022-04-28T12:11:05Z</time>
      </trkpt>
      <trkpt lat="45.29269" lon="5.40317">
        <ele>545.4</ele>
        <time>2022-04-28T12:11:06Z</time>
      </trkpt>
      <trkpt lat="45.29266" lon="5.40315">
        <ele>545.5</ele>
        <time>2022-04-28T12:11:07Z</time>
      </trkpt>
      <trkpt lat="45.29262" lon="5.40314">
        <ele>545.6</ele>
        <time>2022-04-28T12:11:08Z</time>
      </trkpt>
      <trkpt lat="45.29257" lon="5.40313">
        <ele>545.9</ele>
        <time>2022-04-28T12:11:10Z</time>
      </trkpt>
      <trkpt lat="45.29252" lon="5.40312">
        <ele>546</ele>
        <time>2022-04-28T12:11:11Z</time>
      </trkpt>
      <trkpt lat="45.29248" lon="5.40311">
        <ele>546.2</ele>
        <time>2022-04-28T12:11:12Z</time>
      </trkpt>
      <trkpt lat="45.29245" lon="5.4031">
        <ele>546.3</ele>
        <time>2022-04-28T12:11:13Z</time>
      </trkpt>
      <trkpt lat="45.29242" lon="5.40309">
        <ele>546.4</ele>
        <time>2022-04-28T12:11:14Z</time>
      </trkpt>
      <trkpt lat="45.29236" lon="5.40309">
        <ele>546.6</ele>
        <time>2022-04-28T12:11:16Z</time>
      </trkpt>
      <trkpt lat="45.29233" lon="5.40306">
        <ele>546.8</ele>
        <time>2022-04-28T12:11:17Z</time>
      </trkpt>
      <trkpt lat="45.29229" lon="5.40304">
        <ele>546.9</ele>
        <time>2022-04-28T12:11:18Z</time>
      </trkpt>
      <trkpt lat="45.29226" lon="5.40302">
        <ele>547</ele>
        <time>2022-04-28T12:11:19Z</time>
      </trkpt>
      <trkpt lat="45.29223" lon="5.403">
        <ele>547.2</ele>
        <time>2022-04-28T12:11:20Z</time>
      </trkpt>
      <trkpt lat="45.29219" lon="5.40298">
        <ele>547.3</ele>
        <time>2022-04-28T12:11:21Z</time>
      </trkpt>
      <trkpt lat="45.29216" lon="5.40296">
        <ele>547.4</ele>
        <time>2022-04-28T12:11:22Z</time>
      </trkpt>
      <trkpt lat="45.29214" lon="5.40294">
        <ele>547.5</ele>
        <time>2022-04-28T12:11:23Z</time>
      </trkpt>
      <trkpt lat="45.2921" lon="5.40292">
        <ele>547.7</ele>
        <time>2022-04-28T12:11:24Z</time>
      </trkpt>
      <trkpt lat="45.29207" lon="5.4029">
        <ele>547.8</ele>
        <time>2022-04-28T12:11:25Z</time>
      </trkpt>
      <trkpt lat="45.29204" lon="5.40287">
        <ele>547.9</ele>
        <time>2022-04-28T12:11:27Z</time>
      </trkpt>
      <trkpt lat="45.29199" lon="5.40284">
        <ele>548.1</ele>
        <time>2022-04-28T12:11:28Z</time>
      </trkpt>
      <trkpt lat="45.29195" lon="5.40282">
        <ele>548.3</ele>
        <time>2022-04-28T12:11:29Z</time>
      </trkpt>
      <trkpt lat="45.29191" lon="5.4028">
        <ele>548.4</ele>
        <time>2022-04-28T12:11:31Z</time>
      </trkpt>
      <trkpt lat="45.29187" lon="5.40278">
        <ele>548.6</ele>
        <time>2022-04-28T12:11:32Z</time>
      </trkpt>
      <trkpt lat="45.29182" lon="5.40276">
        <ele>548.8</ele>
        <time>2022-04-28T12:11:33Z</time>
      </trkpt>
      <trkpt lat="45.29178" lon="5.40275">
        <ele>548.9</ele>
        <time>2022-04-28T12:11:34Z</time>
      </trkpt>
      <trkpt lat="45.29173" lon="5.40274">
        <ele>549.1</ele>
        <time>2022-04-28T12:11:36Z</time>
      </trkpt>
      <trkpt lat="45.29168" lon="5.40272">
        <ele>549.3</ele>
        <time>2022-04-28T12:11:37Z</time>
      </trkpt>
      <trkpt lat="45.29165" lon="5.40272">
        <ele>549.4</ele>
        <time>2022-04-28T12:11:38Z</time>
      </trkpt>
      <trkpt lat="45.29161" lon="5.40272">
        <ele>549.6</ele>
        <time>2022-04-28T12:11:39Z</time>
      </trkpt>
      <trkpt lat="45.29157" lon="5.40271">
        <ele>549.7</ele>
        <time>2022-04-28T12:11:40Z</time>
      </trkpt>
      <trkpt lat="45.29154" lon="5.40271">
        <ele>549.8</ele>
        <time>2022-04-28T12:11:41Z</time>
      </trkpt>
      <trkpt lat="45.29151" lon="5.40271">
        <ele>549.9</ele>
        <time>2022-04-28T12:11:42Z</time>
      </trkpt>
      <trkpt lat="45.29145" lon="5.40269">
        <ele>550.2</ele>
        <time>2022-04-28T12:11:44Z</time>
      </trkpt>
      <trkpt lat="45.29142" lon="5.40268">
        <ele>550.3</ele>
        <time>2022-04-28T12:11:45Z</time>
      </trkpt>
      <trkpt lat="45.29138" lon="5.40265">
        <ele>550.4</ele>
        <time>2022-04-28T12:11:46Z</time>
      </trkpt>
      <trkpt lat="45.29134" lon="5.40264">
        <ele>550.5</ele>
        <time>2022-04-28T12:11:47Z</time>
      </trkpt>
      <trkpt lat="45.29132" lon="5.40262">
        <ele>550.7</ele>
        <time>2022-04-28T12:11:48Z</time>
      </trkpt>
      <trkpt lat="45.29128" lon="5.40261">
        <ele>550.8</ele>
        <time>2022-04-28T12:11:49Z</time>
      </trkpt>
      <trkpt lat="45.29125" lon="5.40259">
        <ele>550.9</ele>
        <time>2022-04-28T12:11:50Z</time>
      </trkpt>
      <trkpt lat="45.29122" lon="5.40258">
        <ele>551</ele>
        <time>2022-04-28T12:11:51Z</time>
      </trkpt>
      <trkpt lat="45.29119" lon="5.40257">
        <ele>551.2</ele>
        <time>2022-04-28T12:11:52Z</time>
      </trkpt>
      <trkpt lat="45.29116" lon="5.40256">
        <ele>551.3</ele>
        <time>2022-04-28T12:11:53Z</time>
      </trkpt>
      <trkpt lat="45.29113" lon="5.40255">
        <ele>551.4</ele>
        <time>2022-04-28T12:11:54Z</time>
      </trkpt>
      <trkpt lat="45.29106" lon="5.40251">
        <ele>551.7</ele>
        <time>2022-04-28T12:11:56Z</time>
      </trkpt>
      <trkpt lat="45.29103" lon="5.4025">
        <ele>551.8</ele>
        <time>2022-04-28T12:11:57Z</time>
      </trkpt>
      <trkpt lat="45.291" lon="5.4025">
        <ele>552</ele>
        <time>2022-04-28T12:11:58Z</time>
      </trkpt>
      <trkpt lat="45.29096" lon="5.40248">
        <ele>552.1</ele>
        <time>2022-04-28T12:11:59Z</time>
      </trkpt>
      <trkpt lat="45.29093" lon="5.40247">
        <ele>552.3</ele>
        <time>2022-04-28T12:12:00Z</time>
      </trkpt>
      <trkpt lat="45.29088" lon="5.40246">
        <ele>552.4</ele>
        <time>2022-04-28T12:12:02Z</time>
      </trkpt>
      <trkpt lat="45.29083" lon="5.40245">
        <ele>552.6</ele>
        <time>2022-04-28T12:12:03Z</time>
      </trkpt>
      <trkpt lat="45.29079" lon="5.40244">
        <ele>552.8</ele>
        <time>2022-04-28T12:12:04Z</time>
      </trkpt>
      <trkpt lat="45.29075" lon="5.40244">
        <ele>552.9</ele>
        <time>2022-04-28T12:12:05Z</time>
      </trkpt>
      <trkpt lat="45.29072" lon="5.40243">
        <ele>553.1</ele>
        <time>2022-04-28T12:12:06Z</time>
      </trkpt>
      <trkpt lat="45.29069" lon="5.40241">
        <ele>553.2</ele>
        <time>2022-04-28T12:12:07Z</time>
      </trkpt>
      <trkpt lat="45.29065" lon="5.4024">
        <ele>553.4</ele>
        <time>2022-04-28T12:12:08Z</time>
      </trkpt>
      <trkpt lat="45.29061" lon="5.40238">
        <ele>553.6</ele>
        <time>2022-04-28T12:12:10Z</time>
      </trkpt>
      <trkpt lat="45.29057" lon="5.40237">
        <ele>553.7</ele>
        <time>2022-04-28T12:12:11Z</time>
      </trkpt>
      <trkpt lat="45.29053" lon="5.40236">
        <ele>553.9</ele>
        <time>2022-04-28T12:12:12Z</time>
      </trkpt>
      <trkpt lat="45.29049" lon="5.40234">
        <ele>554.1</ele>
        <time>2022-04-28T12:12:13Z</time>
      </trkpt>
      <trkpt lat="45.29045" lon="5.40233">
        <ele>554.2</ele>
        <time>2022-04-28T12:12:14Z</time>
      </trkpt>
      <trkpt lat="45.29041" lon="5.40231">
        <ele>554.4</ele>
        <time>2022-04-28T12:12:15Z</time>
      </trkpt>
      <trkpt lat="45.29035" lon="5.4023">
        <ele>554.6</ele>
        <time>2022-04-28T12:12:17Z</time>
      </trkpt>
      <trkpt lat="45.29031" lon="5.40229">
        <ele>554.8</ele>
        <time>2022-04-28T12:12:18Z</time>
      </trkpt>
      <trkpt lat="45.29028" lon="5.40228">
        <ele>554.9</ele>
        <time>2022-04-28T12:12:19Z</time>
      </trkpt>
      <trkpt lat="45.29025" lon="5.40227">
        <ele>555</ele>
        <time>2022-04-28T12:12:20Z</time>
      </trkpt>
      <trkpt lat="45.29022" lon="5.40227">
        <ele>555.2</ele>
        <time>2022-04-28T12:12:21Z</time>
      </trkpt>
      <trkpt lat="45.29017" lon="5.40226">
        <ele>555.4</ele>
        <time>2022-04-28T12:12:23Z</time>
      </trkpt>
      <trkpt lat="45.29012" lon="5.40226">
        <ele>555.6</ele>
        <time>2022-04-28T12:12:24Z</time>
      </trkpt>
      <trkpt lat="45.29008" lon="5.40226">
        <ele>555.8</ele>
        <time>2022-04-28T12:12:25Z</time>
      </trkpt>
      <trkpt lat="45.29005" lon="5.40226">
        <ele>555.9</ele>
        <time>2022-04-28T12:12:26Z</time>
      </trkpt>
      <trkpt lat="45.29001" lon="5.40226">
        <ele>556.1</ele>
        <time>2022-04-28T12:12:27Z</time>
      </trkpt>
      <trkpt lat="45.28997" lon="5.40225">
        <ele>556.3</ele>
        <time>2022-04-28T12:12:28Z</time>
      </trkpt>
      <trkpt lat="45.28993" lon="5.40226">
        <ele>556.4</ele>
        <time>2022-04-28T12:12:29Z</time>
      </trkpt>
      <trkpt lat="45.28989" lon="5.40225">
        <ele>556.6</ele>
        <time>2022-04-28T12:12:30Z</time>
      </trkpt>
      <trkpt lat="45.28985" lon="5.40224">
        <ele>556.8</ele>
        <time>2022-04-28T12:12:31Z</time>
      </trkpt>
      <trkpt lat="45.28982" lon="5.40224">
        <ele>556.9</ele>
        <time>2022-04-28T12:12:32Z</time>
      </trkpt>
      <trkpt lat="45.28979" lon="5.40223">
        <ele>557.1</ele>
        <time>2022-04-28T12:12:33Z</time>
      </trkpt>
      <trkpt lat="45.28974" lon="5.40221">
        <ele>557.3</ele>
        <time>2022-04-28T12:12:35Z</time>
      </trkpt>
      <trkpt lat="45.2897" lon="5.40218">
        <ele>557.4</ele>
        <time>2022-04-28T12:12:36Z</time>
      </trkpt>
      <trkpt lat="45.28966" lon="5.40216">
        <ele>557.6</ele>
        <time>2022-04-28T12:12:37Z</time>
      </trkpt>
      <trkpt lat="45.28962" lon="5.40213">
        <ele>557.8</ele>
        <time>2022-04-28T12:12:38Z</time>
      </trkpt>
      <trkpt lat="45.28959" lon="5.40209">
        <ele>558</ele>
        <time>2022-04-28T12:12:40Z</time>
      </trkpt>
      <trkpt lat="45.28956" lon="5.40206">
        <ele>558.1</ele>
        <time>2022-04-28T12:12:41Z</time>
      </trkpt>
      <trkpt lat="45.28952" lon="5.40201">
        <ele>558.3</ele>
        <time>2022-04-28T12:12:42Z</time>
      </trkpt>
      <trkpt lat="45.28948" lon="5.40198">
        <ele>558.5</ele>
        <time>2022-04-28T12:12:43Z</time>
      </trkpt>
      <trkpt lat="45.28945" lon="5.40195">
        <ele>558.6</ele>
        <time>2022-04-28T12:12:44Z</time>
      </trkpt>
      <trkpt lat="45.2894" lon="5.40189">
        <ele>558.9</ele>
        <time>2022-04-28T12:12:46Z</time>
      </trkpt>
      <trkpt lat="45.28935" lon="5.40184">
        <ele>559.1</ele>
        <time>2022-04-28T12:12:48Z</time>
      </trkpt>
      <trkpt lat="45.28933" lon="5.40182">
        <ele>559.2</ele>
        <time>2022-04-28T12:12:49Z</time>
      </trkpt>
      <trkpt lat="45.2893" lon="5.40178">
        <ele>559.3</ele>
        <time>2022-04-28T12:12:50Z</time>
      </trkpt>
      <trkpt lat="45.28929" lon="5.40177">
        <ele>559.3</ele>
        <time>2022-04-28T12:12:51Z</time>
      </trkpt>
      <trkpt lat="45.28926" lon="5.40174">
        <ele>559.5</ele>
        <time>2022-04-28T12:12:52Z</time>
      </trkpt>
      <trkpt lat="45.28922" lon="5.4017">
        <ele>559.6</ele>
        <time>2022-04-28T12:12:53Z</time>
      </trkpt>
      <trkpt lat="45.28919" lon="5.40166">
        <ele>559.8</ele>
        <time>2022-04-28T12:12:54Z</time>
      </trkpt>
      <trkpt lat="45.28916" lon="5.40164">
        <ele>559.9</ele>
        <time>2022-04-28T12:12:55Z</time>
      </trkpt>
      <trkpt lat="45.28913" lon="5.40162">
        <ele>560</ele>
        <time>2022-04-28T12:12:56Z</time>
      </trkpt>
      <trkpt lat="45.28909" lon="5.40159">
        <ele>560.2</ele>
        <time>2022-04-28T12:12:57Z</time>
      </trkpt>
      <trkpt lat="45.28905" lon="5.40157">
        <ele>560.4</ele>
        <time>2022-04-28T12:12:58Z</time>
      </trkpt>
      <trkpt lat="45.28902" lon="5.40155">
        <ele>560.5</ele>
        <time>2022-04-28T12:12:59Z</time>
      </trkpt>
      <trkpt lat="45.28896" lon="5.40151">
        <ele>560.8</ele>
        <time>2022-04-28T12:13:01Z</time>
      </trkpt>
      <trkpt lat="45.28891" lon="5.40147">
        <ele>561</ele>
        <time>2022-04-28T12:13:02Z</time>
      </trkpt>
      <trkpt lat="45.28887" lon="5.40144">
        <ele>561.2</ele>
        <time>2022-04-28T12:13:03Z</time>
      </trkpt>
      <trkpt lat="45.28883" lon="5.4014">
        <ele>561.3</ele>
        <time>2022-04-28T12:13:04Z</time>
      </trkpt>
      <trkpt lat="45.2888" lon="5.40137">
        <ele>561.4</ele>
        <time>2022-04-28T12:13:05Z</time>
      </trkpt>
      <trkpt lat="45.28876" lon="5.40133">
        <ele>561.6</ele>
        <time>2022-04-28T12:13:06Z</time>
      </trkpt>
      <trkpt lat="45.28873" lon="5.4013">
        <ele>561.7</ele>
        <time>2022-04-28T12:13:07Z</time>
      </trkpt>
      <trkpt lat="45.2887" lon="5.40128">
        <ele>561.8</ele>
        <time>2022-04-28T12:13:08Z</time>
      </trkpt>
      <trkpt lat="45.28867" lon="5.40125">
        <ele>561.9</ele>
        <time>2022-04-28T12:13:09Z</time>
      </trkpt>
      <trkpt lat="45.28864" lon="5.40122">
        <ele>562.1</ele>
        <time>2022-04-28T12:13:10Z</time>
      </trkpt>
      <trkpt lat="45.28861" lon="5.40119">
        <ele>562.2</ele>
        <time>2022-04-28T12:13:11Z</time>
      </trkpt>
      <trkpt lat="45.28858" lon="5.40116">
        <ele>562.3</ele>
        <time>2022-04-28T12:13:12Z</time>
      </trkpt>
      <trkpt lat="45.28855" lon="5.40112">
        <ele>562.5</ele>
        <time>2022-04-28T12:13:13Z</time>
      </trkpt>
      <trkpt lat="45.28852" lon="5.40109">
        <ele>562.6</ele>
        <time>2022-04-28T12:13:14Z</time>
      </trkpt>
      <trkpt lat="45.28849" lon="5.40105">
        <ele>562.7</ele>
        <time>2022-04-28T12:13:15Z</time>
      </trkpt>
      <trkpt lat="45.28847" lon="5.40102">
        <ele>562.8</ele>
        <time>2022-04-28T12:13:16Z</time>
      </trkpt>
      <trkpt lat="45.28844" lon="5.40097">
        <ele>563</ele>
        <time>2022-04-28T12:13:17Z</time>
      </trkpt>
      <trkpt lat="45.28842" lon="5.40093">
        <ele>563.1</ele>
        <time>2022-04-28T12:13:18Z</time>
      </trkpt>
      <trkpt lat="45.28839" lon="5.4009">
        <ele>563.2</ele>
        <time>2022-04-28T12:13:19Z</time>
      </trkpt>
      <trkpt lat="45.28836" lon="5.40084">
        <ele>563.4</ele>
        <time>2022-04-28T12:13:21Z</time>
      </trkpt>
      <trkpt lat="45.28833" lon="5.4008">
        <ele>563.5</ele>
        <time>2022-04-28T12:13:22Z</time>
      </trkpt>
      <trkpt lat="45.28831" lon="5.40076">
        <ele>563.7</ele>
        <time>2022-04-28T12:13:23Z</time>
      </trkpt>
      <trkpt lat="45.28828" lon="5.40072">
        <ele>563.8</ele>
        <time>2022-04-28T12:13:24Z</time>
      </trkpt>
      <trkpt lat="45.28825" lon="5.40068">
        <ele>564</ele>
        <time>2022-04-28T12:13:25Z</time>
      </trkpt>
      <trkpt lat="45.28823" lon="5.40064">
        <ele>564.1</ele>
        <time>2022-04-28T12:13:26Z</time>
      </trkpt>
      <trkpt lat="45.28821" lon="5.4006">
        <ele>564.2</ele>
        <time>2022-04-28T12:13:27Z</time>
      </trkpt>
      <trkpt lat="45.28818" lon="5.40057">
        <ele>564.4</ele>
        <time>2022-04-28T12:13:28Z</time>
      </trkpt>
      <trkpt lat="45.28815" lon="5.40052">
        <ele>564.6</ele>
        <time>2022-04-28T12:13:30Z</time>
      </trkpt>
      <trkpt lat="45.28813" lon="5.40048">
        <ele>564.7</ele>
        <time>2022-04-28T12:13:31Z</time>
      </trkpt>
      <trkpt lat="45.28811" lon="5.40044">
        <ele>564.9</ele>
        <time>2022-04-28T12:13:32Z</time>
      </trkpt>
      <trkpt lat="45.28808" lon="5.40039">
        <ele>565.1</ele>
        <time>2022-04-28T12:13:33Z</time>
      </trkpt>
      <trkpt lat="45.28805" lon="5.40033">
        <ele>565.3</ele>
        <time>2022-04-28T12:13:34Z</time>
      </trkpt>
      <trkpt lat="45.28803" lon="5.40029">
        <ele>565.5</ele>
        <time>2022-04-28T12:13:35Z</time>
      </trkpt>
      <trkpt lat="45.288" lon="5.40025">
        <ele>565.7</ele>
        <time>2022-04-28T12:13:36Z</time>
      </trkpt>
      <trkpt lat="45.28798" lon="5.40021">
        <ele>565.8</ele>
        <time>2022-04-28T12:13:37Z</time>
      </trkpt>
      <trkpt lat="45.28796" lon="5.40017">
        <ele>566</ele>
        <time>2022-04-28T12:13:38Z</time>
      </trkpt>
      <trkpt lat="45.28794" lon="5.40013">
        <ele>566.1</ele>
        <time>2022-04-28T12:13:39Z</time>
      </trkpt>
      <trkpt lat="45.28792" lon="5.40009">
        <ele>566.3</ele>
        <time>2022-04-28T12:13:40Z</time>
      </trkpt>
      <trkpt lat="45.28789" lon="5.40002">
        <ele>566.5</ele>
        <time>2022-04-28T12:13:42Z</time>
      </trkpt>
      <trkpt lat="45.28786" lon="5.39998">
        <ele>566.7</ele>
        <time>2022-04-28T12:13:43Z</time>
      </trkpt>
      <trkpt lat="45.28782" lon="5.39994">
        <ele>566.9</ele>
        <time>2022-04-28T12:13:44Z</time>
      </trkpt>
      <trkpt lat="45.2878" lon="5.39991">
        <ele>567</ele>
        <time>2022-04-28T12:13:45Z</time>
      </trkpt>
      <trkpt lat="45.28777" lon="5.39987">
        <ele>567.2</ele>
        <time>2022-04-28T12:13:46Z</time>
      </trkpt>
      <trkpt lat="45.28775" lon="5.39984">
        <ele>567.4</ele>
        <time>2022-04-28T12:13:47Z</time>
      </trkpt>
      <trkpt lat="45.28772" lon="5.3998">
        <ele>567.5</ele>
        <time>2022-04-28T12:13:48Z</time>
      </trkpt>
      <trkpt lat="45.2877" lon="5.39977">
        <ele>567.7</ele>
        <time>2022-04-28T12:13:49Z</time>
      </trkpt>
      <trkpt lat="45.28767" lon="5.3997">
        <ele>567.9</ele>
        <time>2022-04-28T12:13:51Z</time>
      </trkpt>
      <trkpt lat="45.28765" lon="5.39966">
        <ele>568.1</ele>
        <time>2022-04-28T12:13:52Z</time>
      </trkpt>
      <trkpt lat="45.28763" lon="5.39961">
        <ele>568.3</ele>
        <time>2022-04-28T12:13:53Z</time>
      </trkpt>
      <trkpt lat="45.28761" lon="5.39956">
        <ele>568.4</ele>
        <time>2022-04-28T12:13:54Z</time>
      </trkpt>
      <trkpt lat="45.2876" lon="5.39952">
        <ele>568.6</ele>
        <time>2022-04-28T12:13:55Z</time>
      </trkpt>
      <trkpt lat="45.28758" lon="5.39946">
        <ele>568.7</ele>
        <time>2022-04-28T12:13:56Z</time>
      </trkpt>
      <trkpt lat="45.28757" lon="5.39941">
        <ele>568.9</ele>
        <time>2022-04-28T12:13:57Z</time>
      </trkpt>
      <trkpt lat="45.28756" lon="5.39935">
        <ele>569.1</ele>
        <time>2022-04-28T12:13:58Z</time>
      </trkpt>
      <trkpt lat="45.28754" lon="5.3993">
        <ele>569.2</ele>
        <time>2022-04-28T12:13:59Z</time>
      </trkpt>
      <trkpt lat="45.28753" lon="5.39925">
        <ele>569.4</ele>
        <time>2022-04-28T12:14:00Z</time>
      </trkpt>
      <trkpt lat="45.28753" lon="5.39921">
        <ele>569.5</ele>
        <time>2022-04-28T12:14:01Z</time>
      </trkpt>
      <trkpt lat="45.28752" lon="5.39916">
        <ele>569.6</ele>
        <time>2022-04-28T12:14:02Z</time>
      </trkpt>
      <trkpt lat="45.2875" lon="5.39909">
        <ele>569.9</ele>
        <time>2022-04-28T12:14:04Z</time>
      </trkpt>
      <trkpt lat="45.28749" lon="5.39906">
        <ele>570</ele>
        <time>2022-04-28T12:14:05Z</time>
      </trkpt>
      <trkpt lat="45.28747" lon="5.39902">
        <ele>570.1</ele>
        <time>2022-04-28T12:14:06Z</time>
      </trkpt>
      <trkpt lat="45.28745" lon="5.39896">
        <ele>570.3</ele>
        <time>2022-04-28T12:14:07Z</time>
      </trkpt>
      <trkpt lat="45.28743" lon="5.39892">
        <ele>570.5</ele>
        <time>2022-04-28T12:14:08Z</time>
      </trkpt>
      <trkpt lat="45.28741" lon="5.39888">
        <ele>570.6</ele>
        <time>2022-04-28T12:14:09Z</time>
      </trkpt>
      <trkpt lat="45.28738" lon="5.39883">
        <ele>570.8</ele>
        <time>2022-04-28T12:14:10Z</time>
      </trkpt>
      <trkpt lat="45.28736" lon="5.39879">
        <ele>570.9</ele>
        <time>2022-04-28T12:14:11Z</time>
      </trkpt>
      <trkpt lat="45.28733" lon="5.39874">
        <ele>571.1</ele>
        <time>2022-04-28T12:14:13Z</time>
      </trkpt>
      <trkpt lat="45.28731" lon="5.39869">
        <ele>571.3</ele>
        <time>2022-04-28T12:14:14Z</time>
      </trkpt>
      <trkpt lat="45.28729" lon="5.39865">
        <ele>571.5</ele>
        <time>2022-04-28T12:14:15Z</time>
      </trkpt>
      <trkpt lat="45.28726" lon="5.39858">
        <ele>571.7</ele>
        <time>2022-04-28T12:14:16Z</time>
      </trkpt>
      <trkpt lat="45.28724" lon="5.39854">
        <ele>571.8</ele>
        <time>2022-04-28T12:14:17Z</time>
      </trkpt>
      <trkpt lat="45.28721" lon="5.39848">
        <ele>572.1</ele>
        <time>2022-04-28T12:14:19Z</time>
      </trkpt>
      <trkpt lat="45.28718" lon="5.39843">
        <ele>572.3</ele>
        <time>2022-04-28T12:14:20Z</time>
      </trkpt>
      <trkpt lat="45.28716" lon="5.39839">
        <ele>572.4</ele>
        <time>2022-04-28T12:14:21Z</time>
      </trkpt>
      <trkpt lat="45.28714" lon="5.39834">
        <ele>572.6</ele>
        <time>2022-04-28T12:14:22Z</time>
      </trkpt>
      <trkpt lat="45.28711" lon="5.3983">
        <ele>572.8</ele>
        <time>2022-04-28T12:14:23Z</time>
      </trkpt>
      <trkpt lat="45.28707" lon="5.39828">
        <ele>572.9</ele>
        <time>2022-04-28T12:14:24Z</time>
      </trkpt>
      <trkpt lat="45.28703" lon="5.39824">
        <ele>573.1</ele>
        <time>2022-04-28T12:14:26Z</time>
      </trkpt>
      <trkpt lat="45.28699" lon="5.39821">
        <ele>573.3</ele>
        <time>2022-04-28T12:14:27Z</time>
      </trkpt>
      <trkpt lat="45.28695" lon="5.39819">
        <ele>573.5</ele>
        <time>2022-04-28T12:14:28Z</time>
      </trkpt>
      <trkpt lat="45.28691" lon="5.39817">
        <ele>573.6</ele>
        <time>2022-04-28T12:14:30Z</time>
      </trkpt>
      <trkpt lat="45.28687" lon="5.39815">
        <ele>573.8</ele>
        <time>2022-04-28T12:14:31Z</time>
      </trkpt>
      <trkpt lat="45.28683" lon="5.39813">
        <ele>574</ele>
        <time>2022-04-28T12:14:32Z</time>
      </trkpt>
      <trkpt lat="45.28679" lon="5.39811">
        <ele>574.1</ele>
        <time>2022-04-28T12:14:33Z</time>
      </trkpt>
      <trkpt lat="45.28676" lon="5.39809">
        <ele>574.3</ele>
        <time>2022-04-28T12:14:34Z</time>
      </trkpt>
      <trkpt lat="45.28672" lon="5.39807">
        <ele>574.4</ele>
        <time>2022-04-28T12:14:35Z</time>
      </trkpt>
      <trkpt lat="45.28668" lon="5.39803">
        <ele>574.6</ele>
        <time>2022-04-28T12:14:36Z</time>
      </trkpt>
      <trkpt lat="45.28665" lon="5.39801">
        <ele>574.8</ele>
        <time>2022-04-28T12:14:37Z</time>
      </trkpt>
      <trkpt lat="45.28662" lon="5.39798">
        <ele>574.9</ele>
        <time>2022-04-28T12:14:38Z</time>
      </trkpt>
      <trkpt lat="45.28659" lon="5.39795">
        <ele>575.1</ele>
        <time>2022-04-28T12:14:39Z</time>
      </trkpt>
      <trkpt lat="45.28656" lon="5.39791">
        <ele>575.3</ele>
        <time>2022-04-28T12:14:40Z</time>
      </trkpt>
      <trkpt lat="45.28653" lon="5.39788">
        <ele>575.4</ele>
        <time>2022-04-28T12:14:41Z</time>
      </trkpt>
      <trkpt lat="45.2865" lon="5.39785">
        <ele>575.6</ele>
        <time>2022-04-28T12:14:42Z</time>
      </trkpt>
      <trkpt lat="45.28647" lon="5.39782">
        <ele>575.7</ele>
        <time>2022-04-28T12:14:43Z</time>
      </trkpt>
      <trkpt lat="45.28645" lon="5.39779">
        <ele>575.9</ele>
        <time>2022-04-28T12:14:44Z</time>
      </trkpt>
      <trkpt lat="45.28643" lon="5.39775">
        <ele>576</ele>
        <time>2022-04-28T12:14:45Z</time>
      </trkpt>
      <trkpt lat="45.2864" lon="5.39772">
        <ele>576.2</ele>
        <time>2022-04-28T12:14:46Z</time>
      </trkpt>
      <trkpt lat="45.28637" lon="5.39768">
        <ele>576.3</ele>
        <time>2022-04-28T12:14:47Z</time>
      </trkpt>
      <trkpt lat="45.28636" lon="5.39765">
        <ele>576.4</ele>
        <time>2022-04-28T12:14:48Z</time>
      </trkpt>
      <trkpt lat="45.28633" lon="5.39761">
        <ele>576.6</ele>
        <time>2022-04-28T12:14:49Z</time>
      </trkpt>
      <trkpt lat="45.2863" lon="5.39757">
        <ele>576.8</ele>
        <time>2022-04-28T12:14:50Z</time>
      </trkpt>
      <trkpt lat="45.28627" lon="5.39754">
        <ele>576.9</ele>
        <time>2022-04-28T12:14:51Z</time>
      </trkpt>
      <trkpt lat="45.28625" lon="5.39751">
        <ele>577.1</ele>
        <time>2022-04-28T12:14:52Z</time>
      </trkpt>
      <trkpt lat="45.28622" lon="5.39748">
        <ele>577.3</ele>
        <time>2022-04-28T12:14:53Z</time>
      </trkpt>
      <trkpt lat="45.28619" lon="5.39743">
        <ele>577.4</ele>
        <time>2022-04-28T12:14:54Z</time>
      </trkpt>
      <trkpt lat="45.28617" lon="5.3974">
        <ele>577.6</ele>
        <time>2022-04-28T12:14:55Z</time>
      </trkpt>
      <trkpt lat="45.28614" lon="5.39736">
        <ele>577.7</ele>
        <time>2022-04-28T12:14:56Z</time>
      </trkpt>
      <trkpt lat="45.28612" lon="5.39733">
        <ele>577.9</ele>
        <time>2022-04-28T12:14:57Z</time>
      </trkpt>
      <trkpt lat="45.28609" lon="5.3973">
        <ele>578</ele>
        <time>2022-04-28T12:14:58Z</time>
      </trkpt>
      <trkpt lat="45.28607" lon="5.39727">
        <ele>578.1</ele>
        <time>2022-04-28T12:14:59Z</time>
      </trkpt>
      <trkpt lat="45.28604" lon="5.39723">
        <ele>578.3</ele>
        <time>2022-04-28T12:15:00Z</time>
      </trkpt>
      <trkpt lat="45.28601" lon="5.3972">
        <ele>578.5</ele>
        <time>2022-04-28T12:15:01Z</time>
      </trkpt>
      <trkpt lat="45.28598" lon="5.39716">
        <ele>578.7</ele>
        <time>2022-04-28T12:15:02Z</time>
      </trkpt>
      <trkpt lat="45.28594" lon="5.39712">
        <ele>578.9</ele>
        <time>2022-04-28T12:15:04Z</time>
      </trkpt>
      <trkpt lat="45.28591" lon="5.39707">
        <ele>579.1</ele>
        <time>2022-04-28T12:15:05Z</time>
      </trkpt>
      <trkpt lat="45.28589" lon="5.39704">
        <ele>579.3</ele>
        <time>2022-04-28T12:15:06Z</time>
      </trkpt>
      <trkpt lat="45.28586" lon="5.397">
        <ele>579.4</ele>
        <time>2022-04-28T12:15:07Z</time>
      </trkpt>
      <trkpt lat="45.28582" lon="5.39695">
        <ele>579.6</ele>
        <time>2022-04-28T12:15:09Z</time>
      </trkpt>
      <trkpt lat="45.28579" lon="5.39691">
        <ele>579.8</ele>
        <time>2022-04-28T12:15:10Z</time>
      </trkpt>
      <trkpt lat="45.28576" lon="5.39687">
        <ele>580</ele>
        <time>2022-04-28T12:15:11Z</time>
      </trkpt>
      <trkpt lat="45.28573" lon="5.39684">
        <ele>580.2</ele>
        <time>2022-04-28T12:15:12Z</time>
      </trkpt>
      <trkpt lat="45.2857" lon="5.39679">
        <ele>580.4</ele>
        <time>2022-04-28T12:15:14Z</time>
      </trkpt>
      <trkpt lat="45.28567" lon="5.39676">
        <ele>580.5</ele>
        <time>2022-04-28T12:15:15Z</time>
      </trkpt>
      <trkpt lat="45.28563" lon="5.39671">
        <ele>580.7</ele>
        <time>2022-04-28T12:15:16Z</time>
      </trkpt>
      <trkpt lat="45.28561" lon="5.39667">
        <ele>580.9</ele>
        <time>2022-04-28T12:15:17Z</time>
      </trkpt>
      <trkpt lat="45.28558" lon="5.39663">
        <ele>581</ele>
        <time>2022-04-28T12:15:18Z</time>
      </trkpt>
      <trkpt lat="45.28556" lon="5.3966">
        <ele>581.2</ele>
        <time>2022-04-28T12:15:19Z</time>
      </trkpt>
      <trkpt lat="45.28554" lon="5.39655">
        <ele>581.3</ele>
        <time>2022-04-28T12:15:20Z</time>
      </trkpt>
      <trkpt lat="45.28552" lon="5.39652">
        <ele>581.4</ele>
        <time>2022-04-28T12:15:21Z</time>
      </trkpt>
      <trkpt lat="45.28549" lon="5.39648">
        <ele>581.6</ele>
        <time>2022-04-28T12:15:22Z</time>
      </trkpt>
      <trkpt lat="45.28547" lon="5.39643">
        <ele>581.7</ele>
        <time>2022-04-28T12:15:23Z</time>
      </trkpt>
      <trkpt lat="45.28546" lon="5.39639">
        <ele>581.9</ele>
        <time>2022-04-28T12:15:24Z</time>
      </trkpt>
      <trkpt lat="45.28544" lon="5.39632">
        <ele>582.1</ele>
        <time>2022-04-28T12:15:26Z</time>
      </trkpt>
      <trkpt lat="45.28543" lon="5.39627">
        <ele>582.3</ele>
        <time>2022-04-28T12:15:27Z</time>
      </trkpt>
      <trkpt lat="45.28541" lon="5.39621">
        <ele>582.5</ele>
        <time>2022-04-28T12:15:28Z</time>
      </trkpt>
      <trkpt lat="45.28539" lon="5.39615">
        <ele>582.6</ele>
        <time>2022-04-28T12:15:29Z</time>
      </trkpt>
      <trkpt lat="45.28538" lon="5.3961">
        <ele>582.8</ele>
        <time>2022-04-28T12:15:30Z</time>
      </trkpt>
      <trkpt lat="45.28537" lon="5.39603">
        <ele>583</ele>
        <time>2022-04-28T12:15:32Z</time>
      </trkpt>
      <trkpt lat="45.28536" lon="5.39597">
        <ele>583.1</ele>
        <time>2022-04-28T12:15:33Z</time>
      </trkpt>
      <trkpt lat="45.28535" lon="5.39591">
        <ele>583.3</ele>
        <time>2022-04-28T12:15:34Z</time>
      </trkpt>
      <trkpt lat="45.28535" lon="5.39585">
        <ele>583.4</ele>
        <time>2022-04-28T12:15:35Z</time>
      </trkpt>
      <trkpt lat="45.28534" lon="5.3958">
        <ele>583.6</ele>
        <time>2022-04-28T12:15:36Z</time>
      </trkpt>
      <trkpt lat="45.28534" lon="5.39575">
        <ele>583.7</ele>
        <time>2022-04-28T12:15:37Z</time>
      </trkpt>
      <trkpt lat="45.28535" lon="5.3957">
        <ele>583.9</ele>
        <time>2022-04-28T12:15:38Z</time>
      </trkpt>
      <trkpt lat="45.28535" lon="5.39565">
        <ele>584</ele>
        <time>2022-04-28T12:15:39Z</time>
      </trkpt>
      <trkpt lat="45.28536" lon="5.3956">
        <ele>584.2</ele>
        <time>2022-04-28T12:15:40Z</time>
      </trkpt>
      <trkpt lat="45.28536" lon="5.39555">
        <ele>584.3</ele>
        <time>2022-04-28T12:15:41Z</time>
      </trkpt>
      <trkpt lat="45.28538" lon="5.3955">
        <ele>584.4</ele>
        <time>2022-04-28T12:15:43Z</time>
      </trkpt>
      <trkpt lat="45.2854" lon="5.39541">
        <ele>584.7</ele>
        <time>2022-04-28T12:15:44Z</time>
      </trkpt>
      <trkpt lat="45.2854" lon="5.39536">
        <ele>584.8</ele>
        <time>2022-04-28T12:15:45Z</time>
      </trkpt>
      <trkpt lat="45.2854" lon="5.39532">
        <ele>584.9</ele>
        <time>2022-04-28T12:15:46Z</time>
      </trkpt>
      <trkpt lat="45.28541" lon="5.39527">
        <ele>585.1</ele>
        <time>2022-04-28T12:15:47Z</time>
      </trkpt>
      <trkpt lat="45.28543" lon="5.39517">
        <ele>585.3</ele>
        <time>2022-04-28T12:15:49Z</time>
      </trkpt>
      <trkpt lat="45.28544" lon="5.39512">
        <ele>585.5</ele>
        <time>2022-04-28T12:15:50Z</time>
      </trkpt>
      <trkpt lat="45.28545" lon="5.39506">
        <ele>585.6</ele>
        <time>2022-04-28T12:15:51Z</time>
      </trkpt>
      <trkpt lat="45.28545" lon="5.39502">
        <ele>585.7</ele>
        <time>2022-04-28T12:15:52Z</time>
      </trkpt>
      <trkpt lat="45.28546" lon="5.39496">
        <ele>585.9</ele>
        <time>2022-04-28T12:15:53Z</time>
      </trkpt>
      <trkpt lat="45.28547" lon="5.3949">
        <ele>586</ele>
        <time>2022-04-28T12:15:54Z</time>
      </trkpt>
      <trkpt lat="45.28548" lon="5.39484">
        <ele>586.1</ele>
        <time>2022-04-28T12:15:55Z</time>
      </trkpt>
      <trkpt lat="45.28549" lon="5.39479">
        <ele>586.2</ele>
        <time>2022-04-28T12:15:56Z</time>
      </trkpt>
      <trkpt lat="45.2855" lon="5.39474">
        <ele>586.3</ele>
        <time>2022-04-28T12:15:57Z</time>
      </trkpt>
      <trkpt lat="45.28551" lon="5.39468">
        <ele>586.5</ele>
        <time>2022-04-28T12:15:58Z</time>
      </trkpt>
      <trkpt lat="45.28552" lon="5.39462">
        <ele>586.6</ele>
        <time>2022-04-28T12:15:59Z</time>
      </trkpt>
      <trkpt lat="45.28553" lon="5.39456">
        <ele>586.7</ele>
        <time>2022-04-28T12:16:00Z</time>
      </trkpt>
      <trkpt lat="45.28553" lon="5.39451">
        <ele>586.8</ele>
        <time>2022-04-28T12:16:01Z</time>
      </trkpt>
      <trkpt lat="45.28554" lon="5.39446">
        <ele>586.9</ele>
        <time>2022-04-28T12:16:02Z</time>
      </trkpt>
      <trkpt lat="45.28555" lon="5.3944">
        <ele>587.1</ele>
        <time>2022-04-28T12:16:03Z</time>
      </trkpt>
      <trkpt lat="45.28555" lon="5.39434">
        <ele>587.2</ele>
        <time>2022-04-28T12:16:04Z</time>
      </trkpt>
      <trkpt lat="45.28556" lon="5.39428">
        <ele>587.3</ele>
        <time>2022-04-28T12:16:05Z</time>
      </trkpt>
      <trkpt lat="45.28557" lon="5.39423">
        <ele>587.5</ele>
        <time>2022-04-28T12:16:06Z</time>
      </trkpt>
      <trkpt lat="45.28557" lon="5.39418">
        <ele>587.6</ele>
        <time>2022-04-28T12:16:07Z</time>
      </trkpt>
      <trkpt lat="45.28558" lon="5.39412">
        <ele>587.7</ele>
        <time>2022-04-28T12:16:08Z</time>
      </trkpt>
      <trkpt lat="45.28558" lon="5.39407">
        <ele>587.8</ele>
        <time>2022-04-28T12:16:09Z</time>
      </trkpt>
      <trkpt lat="45.28559" lon="5.39402">
        <ele>588</ele>
        <time>2022-04-28T12:16:10Z</time>
      </trkpt>
      <trkpt lat="45.2856" lon="5.39396">
        <ele>588.1</ele>
        <time>2022-04-28T12:16:11Z</time>
      </trkpt>
      <trkpt lat="45.28561" lon="5.39391">
        <ele>588.2</ele>
        <time>2022-04-28T12:16:12Z</time>
      </trkpt>
      <trkpt lat="45.28561" lon="5.39385">
        <ele>588.4</ele>
        <time>2022-04-28T12:16:13Z</time>
      </trkpt>
      <trkpt lat="45.28562" lon="5.3938">
        <ele>588.5</ele>
        <time>2022-04-28T12:16:14Z</time>
      </trkpt>
      <trkpt lat="45.28562" lon="5.39375">
        <ele>588.7</ele>
        <time>2022-04-28T12:16:16Z</time>
      </trkpt>
      <trkpt lat="45.28563" lon="5.39369">
        <ele>588.8</ele>
        <time>2022-04-28T12:16:17Z</time>
      </trkpt>
      <trkpt lat="45.28564" lon="5.39363">
        <ele>589</ele>
        <time>2022-04-28T12:16:18Z</time>
      </trkpt>
      <trkpt lat="45.28565" lon="5.39357">
        <ele>589.1</ele>
        <time>2022-04-28T12:16:19Z</time>
      </trkpt>
      <trkpt lat="45.28566" lon="5.39352">
        <ele>589.2</ele>
        <time>2022-04-28T12:16:20Z</time>
      </trkpt>
      <trkpt lat="45.28567" lon="5.39345">
        <ele>589.4</ele>
        <time>2022-04-28T12:16:22Z</time>
      </trkpt>
      <trkpt lat="45.28568" lon="5.39339">
        <ele>589.6</ele>
        <time>2022-04-28T12:16:23Z</time>
      </trkpt>
      <trkpt lat="45.28569" lon="5.39333">
        <ele>589.7</ele>
        <time>2022-04-28T12:16:24Z</time>
      </trkpt>
      <trkpt lat="45.2857" lon="5.39328">
        <ele>589.9</ele>
        <time>2022-04-28T12:16:25Z</time>
      </trkpt>
      <trkpt lat="45.28572" lon="5.39322">
        <ele>590</ele>
        <time>2022-04-28T12:16:27Z</time>
      </trkpt>
      <trkpt lat="45.28574" lon="5.39317">
        <ele>590.2</ele>
        <time>2022-04-28T12:16:28Z</time>
      </trkpt>
      <trkpt lat="45.28576" lon="5.3931">
        <ele>590.4</ele>
        <time>2022-04-28T12:16:29Z</time>
      </trkpt>
      <trkpt lat="45.28578" lon="5.39304">
        <ele>590.5</ele>
        <time>2022-04-28T12:16:30Z</time>
      </trkpt>
      <trkpt lat="45.2858" lon="5.393">
        <ele>590.6</ele>
        <time>2022-04-28T12:16:31Z</time>
      </trkpt>
      <trkpt lat="45.28581" lon="5.39295">
        <ele>590.7</ele>
        <time>2022-04-28T12:16:32Z</time>
      </trkpt>
      <trkpt lat="45.28582" lon="5.39291">
        <ele>590.8</ele>
        <time>2022-04-28T12:16:33Z</time>
      </trkpt>
      <trkpt lat="45.28583" lon="5.39286">
        <ele>591</ele>
        <time>2022-04-28T12:16:34Z</time>
      </trkpt>
      <trkpt lat="45.28584" lon="5.3928">
        <ele>591.1</ele>
        <time>2022-04-28T12:16:35Z</time>
      </trkpt>
      <trkpt lat="45.28584" lon="5.39273">
        <ele>591.2</ele>
        <time>2022-04-28T12:16:37Z</time>
      </trkpt>
      <trkpt lat="45.28583" lon="5.39266">
        <ele>591.4</ele>
        <time>2022-04-28T12:16:38Z</time>
      </trkpt>
      <trkpt lat="45.28582" lon="5.39259">
        <ele>591.5</ele>
        <time>2022-04-28T12:16:39Z</time>
      </trkpt>
      <trkpt lat="45.2858" lon="5.39251">
        <ele>591.6</ele>
        <time>2022-04-28T12:16:40Z</time>
      </trkpt>
      <trkpt lat="45.28579" lon="5.39246">
        <ele>591.7</ele>
        <time>2022-04-28T12:16:41Z</time>
      </trkpt>
      <trkpt lat="45.28578" lon="5.3924">
        <ele>591.8</ele>
        <time>2022-04-28T12:16:42Z</time>
      </trkpt>
      <trkpt lat="45.28578" lon="5.39234">
        <ele>591.8</ele>
        <time>2022-04-28T12:16:44Z</time>
      </trkpt>
      <trkpt lat="45.28578" lon="5.39228">
        <ele>591.9</ele>
        <time>2022-04-28T12:16:45Z</time>
      </trkpt>
      <trkpt lat="45.28578" lon="5.3922">
        <ele>592.1</ele>
        <time>2022-04-28T12:16:46Z</time>
      </trkpt>
      <trkpt lat="45.28578" lon="5.39213">
        <ele>592.1</ele>
        <time>2022-04-28T12:16:47Z</time>
      </trkpt>
      <trkpt lat="45.28578" lon="5.39206">
        <ele>592.3</ele>
        <time>2022-04-28T12:16:48Z</time>
      </trkpt>
      <trkpt lat="45.28578" lon="5.39198">
        <ele>592.4</ele>
        <time>2022-04-28T12:16:50Z</time>
      </trkpt>
      <trkpt lat="45.28579" lon="5.3919">
        <ele>592.5</ele>
        <time>2022-04-28T12:16:51Z</time>
      </trkpt>
      <trkpt lat="45.2858" lon="5.39182">
        <ele>592.7</ele>
        <time>2022-04-28T12:16:53Z</time>
      </trkpt>
      <trkpt lat="45.28581" lon="5.39176">
        <ele>592.8</ele>
        <time>2022-04-28T12:16:54Z</time>
      </trkpt>
      <trkpt lat="45.28582" lon="5.39171">
        <ele>592.9</ele>
        <time>2022-04-28T12:16:55Z</time>
      </trkpt>
      <trkpt lat="45.28582" lon="5.39166">
        <ele>593</ele>
        <time>2022-04-28T12:16:56Z</time>
      </trkpt>
      <trkpt lat="45.28583" lon="5.3916">
        <ele>593.1</ele>
        <time>2022-04-28T12:16:57Z</time>
      </trkpt>
      <trkpt lat="45.28584" lon="5.39152">
        <ele>593.3</ele>
        <time>2022-04-28T12:16:58Z</time>
      </trkpt>
      <trkpt lat="45.28585" lon="5.39147">
        <ele>593.4</ele>
        <time>2022-04-28T12:16:59Z</time>
      </trkpt>
      <trkpt lat="45.28585" lon="5.39142">
        <ele>593.6</ele>
        <time>2022-04-28T12:17:00Z</time>
      </trkpt>
      <trkpt lat="45.28586" lon="5.39137">
        <ele>593.7</ele>
        <time>2022-04-28T12:17:01Z</time>
      </trkpt>
      <trkpt lat="45.28586" lon="5.39131">
        <ele>593.9</ele>
        <time>2022-04-28T12:17:02Z</time>
      </trkpt>
      <trkpt lat="45.28585" lon="5.39123">
        <ele>594.2</ele>
        <time>2022-04-28T12:17:04Z</time>
      </trkpt>
      <trkpt lat="45.28585" lon="5.39116">
        <ele>594.4</ele>
        <time>2022-04-28T12:17:05Z</time>
      </trkpt>
      <trkpt lat="45.28585" lon="5.39112">
        <ele>594.5</ele>
        <time>2022-04-28T12:17:06Z</time>
      </trkpt>
      <trkpt lat="45.28584" lon="5.39105">
        <ele>594.8</ele>
        <time>2022-04-28T12:17:08Z</time>
      </trkpt>
      <trkpt lat="45.28584" lon="5.391">
        <ele>594.9</ele>
        <time>2022-04-28T12:17:09Z</time>
      </trkpt>
      <trkpt lat="45.28583" lon="5.39093">
        <ele>595.2</ele>
        <time>2022-04-28T12:17:10Z</time>
      </trkpt>
      <trkpt lat="45.28583" lon="5.39088">
        <ele>595.4</ele>
        <time>2022-04-28T12:17:11Z</time>
      </trkpt>
      <trkpt lat="45.28583" lon="5.39084">
        <ele>595.5</ele>
        <time>2022-04-28T12:17:12Z</time>
      </trkpt>
      <trkpt lat="45.28582" lon="5.39079">
        <ele>595.7</ele>
        <time>2022-04-28T12:17:13Z</time>
      </trkpt>
      <trkpt lat="45.28582" lon="5.39074">
        <ele>595.9</ele>
        <time>2022-04-28T12:17:14Z</time>
      </trkpt>
      <trkpt lat="45.28582" lon="5.39069">
        <ele>596.1</ele>
        <time>2022-04-28T12:17:15Z</time>
      </trkpt>
      <trkpt lat="45.28581" lon="5.39063">
        <ele>596.3</ele>
        <time>2022-04-28T12:17:16Z</time>
      </trkpt>
      <trkpt lat="45.28581" lon="5.39058">
        <ele>596.5</ele>
        <time>2022-04-28T12:17:17Z</time>
      </trkpt>
      <trkpt lat="45.2858" lon="5.39053">
        <ele>596.7</ele>
        <time>2022-04-28T12:17:18Z</time>
      </trkpt>
      <trkpt lat="45.28579" lon="5.39049">
        <ele>596.9</ele>
        <time>2022-04-28T12:17:19Z</time>
      </trkpt>
      <trkpt lat="45.28578" lon="5.39044">
        <ele>597.1</ele>
        <time>2022-04-28T12:17:20Z</time>
      </trkpt>
      <trkpt lat="45.28578" lon="5.3904">
        <ele>597.2</ele>
        <time>2022-04-28T12:17:21Z</time>
      </trkpt>
      <trkpt lat="45.28577" lon="5.39035">
        <ele>597.4</ele>
        <time>2022-04-28T12:17:22Z</time>
      </trkpt>
      <trkpt lat="45.28576" lon="5.3903">
        <ele>597.6</ele>
        <time>2022-04-28T12:17:23Z</time>
      </trkpt>
      <trkpt lat="45.28575" lon="5.39023">
        <ele>597.9</ele>
        <time>2022-04-28T12:17:25Z</time>
      </trkpt>
      <trkpt lat="45.28574" lon="5.39018">
        <ele>598.1</ele>
        <time>2022-04-28T12:17:26Z</time>
      </trkpt>
      <trkpt lat="45.28574" lon="5.39012">
        <ele>598.3</ele>
        <time>2022-04-28T12:17:27Z</time>
      </trkpt>
      <trkpt lat="45.28574" lon="5.39006">
        <ele>598.5</ele>
        <time>2022-04-28T12:17:28Z</time>
      </trkpt>
      <trkpt lat="45.28573" lon="5.38999">
        <ele>598.7</ele>
        <time>2022-04-28T12:17:30Z</time>
      </trkpt>
      <trkpt lat="45.28573" lon="5.38992">
        <ele>599</ele>
        <time>2022-04-28T12:17:31Z</time>
      </trkpt>
      <trkpt lat="45.28574" lon="5.38984">
        <ele>599.3</ele>
        <time>2022-04-28T12:17:32Z</time>
      </trkpt>
      <trkpt lat="45.28574" lon="5.38976">
        <ele>599.6</ele>
        <time>2022-04-28T12:17:34Z</time>
      </trkpt>
      <trkpt lat="45.28575" lon="5.38971">
        <ele>599.8</ele>
        <time>2022-04-28T12:17:35Z</time>
      </trkpt>
      <trkpt lat="45.28576" lon="5.38964">
        <ele>600</ele>
        <time>2022-04-28T12:17:36Z</time>
      </trkpt>
      <trkpt lat="45.28577" lon="5.38959">
        <ele>600.2</ele>
        <time>2022-04-28T12:17:37Z</time>
      </trkpt>
      <trkpt lat="45.28578" lon="5.38951">
        <ele>600.5</ele>
        <time>2022-04-28T12:17:39Z</time>
      </trkpt>
      <trkpt lat="45.28579" lon="5.38946">
        <ele>600.7</ele>
        <time>2022-04-28T12:17:40Z</time>
      </trkpt>
      <trkpt lat="45.2858" lon="5.3894">
        <ele>600.9</ele>
        <time>2022-04-28T12:17:41Z</time>
      </trkpt>
      <trkpt lat="45.2858" lon="5.38932">
        <ele>601.2</ele>
        <time>2022-04-28T12:17:42Z</time>
      </trkpt>
      <trkpt lat="45.28581" lon="5.38927">
        <ele>601.3</ele>
        <time>2022-04-28T12:17:43Z</time>
      </trkpt>
      <trkpt lat="45.28581" lon="5.38922">
        <ele>601.5</ele>
        <time>2022-04-28T12:17:44Z</time>
      </trkpt>
      <trkpt lat="45.28581" lon="5.38917">
        <ele>601.7</ele>
        <time>2022-04-28T12:17:45Z</time>
      </trkpt>
      <trkpt lat="45.28581" lon="5.38912">
        <ele>601.8</ele>
        <time>2022-04-28T12:17:46Z</time>
      </trkpt>
      <trkpt lat="45.28581" lon="5.38905">
        <ele>602</ele>
        <time>2022-04-28T12:17:47Z</time>
      </trkpt>
      <trkpt lat="45.28581" lon="5.389">
        <ele>602.2</ele>
        <time>2022-04-28T12:17:48Z</time>
      </trkpt>
      <trkpt lat="45.28581" lon="5.38894">
        <ele>602.4</ele>
        <time>2022-04-28T12:17:49Z</time>
      </trkpt>
      <trkpt lat="45.28581" lon="5.38889">
        <ele>602.6</ele>
        <time>2022-04-28T12:17:50Z</time>
      </trkpt>
      <trkpt lat="45.28581" lon="5.38884">
        <ele>602.8</ele>
        <time>2022-04-28T12:17:51Z</time>
      </trkpt>
      <trkpt lat="45.28582" lon="5.38879">
        <ele>602.9</ele>
        <time>2022-04-28T12:17:52Z</time>
      </trkpt>
      <trkpt lat="45.28582" lon="5.38875">
        <ele>603.1</ele>
        <time>2022-04-28T12:17:53Z</time>
      </trkpt>
      <trkpt lat="45.28582" lon="5.3887">
        <ele>603.3</ele>
        <time>2022-04-28T12:17:54Z</time>
      </trkpt>
      <trkpt lat="45.28583" lon="5.38864">
        <ele>603.5</ele>
        <time>2022-04-28T12:17:55Z</time>
      </trkpt>
      <trkpt lat="45.28583" lon="5.3886">
        <ele>603.6</ele>
        <time>2022-04-28T12:17:56Z</time>
      </trkpt>
      <trkpt lat="45.28584" lon="5.38856">
        <ele>603.8</ele>
        <time>2022-04-28T12:17:57Z</time>
      </trkpt>
      <trkpt lat="45.28584" lon="5.38851">
        <ele>604</ele>
        <time>2022-04-28T12:17:58Z</time>
      </trkpt>
      <trkpt lat="45.28584" lon="5.38846">
        <ele>604.2</ele>
        <time>2022-04-28T12:17:59Z</time>
      </trkpt>
      <trkpt lat="45.28583" lon="5.38841">
        <ele>604.3</ele>
        <time>2022-04-28T12:18:00Z</time>
      </trkpt>
      <trkpt lat="45.28584" lon="5.38836">
        <ele>604.5</ele>
        <time>2022-04-28T12:18:01Z</time>
      </trkpt>
      <trkpt lat="45.28584" lon="5.38831">
        <ele>604.7</ele>
        <time>2022-04-28T12:18:02Z</time>
      </trkpt>
      <trkpt lat="45.28584" lon="5.38824">
        <ele>604.9</ele>
        <time>2022-04-28T12:18:04Z</time>
      </trkpt>
      <trkpt lat="45.28585" lon="5.38818">
        <ele>605.2</ele>
        <time>2022-04-28T12:18:05Z</time>
      </trkpt>
      <trkpt lat="45.28586" lon="5.38812">
        <ele>605.4</ele>
        <time>2022-04-28T12:18:06Z</time>
      </trkpt>
      <trkpt lat="45.28586" lon="5.38807">
        <ele>605.6</ele>
        <time>2022-04-28T12:18:08Z</time>
      </trkpt>
      <trkpt lat="45.28587" lon="5.38802">
        <ele>605.8</ele>
        <time>2022-04-28T12:18:09Z</time>
      </trkpt>
      <trkpt lat="45.28588" lon="5.38796">
        <ele>606</ele>
        <time>2022-04-28T12:18:10Z</time>
      </trkpt>
      <trkpt lat="45.28589" lon="5.38789">
        <ele>606.2</ele>
        <time>2022-04-28T12:18:11Z</time>
      </trkpt>
      <trkpt lat="45.28589" lon="5.38784">
        <ele>606.4</ele>
        <time>2022-04-28T12:18:12Z</time>
      </trkpt>
      <trkpt lat="45.28589" lon="5.3878">
        <ele>606.5</ele>
        <time>2022-04-28T12:18:13Z</time>
      </trkpt>
      <trkpt lat="45.28589" lon="5.38776">
        <ele>606.7</ele>
        <time>2022-04-28T12:18:14Z</time>
      </trkpt>
      <trkpt lat="45.2859" lon="5.38771">
        <ele>606.8</ele>
        <time>2022-04-28T12:18:15Z</time>
      </trkpt>
      <trkpt lat="45.2859" lon="5.38766">
        <ele>606.9</ele>
        <time>2022-04-28T12:18:16Z</time>
      </trkpt>
      <trkpt lat="45.2859" lon="5.38762">
        <ele>607.1</ele>
        <time>2022-04-28T12:18:17Z</time>
      </trkpt>
      <trkpt lat="45.2859" lon="5.38756">
        <ele>607.2</ele>
        <time>2022-04-28T12:18:18Z</time>
      </trkpt>
      <trkpt lat="45.2859" lon="5.38752">
        <ele>607.3</ele>
        <time>2022-04-28T12:18:19Z</time>
      </trkpt>
      <trkpt lat="45.28589" lon="5.38746">
        <ele>607.4</ele>
        <time>2022-04-28T12:18:20Z</time>
      </trkpt>
      <trkpt lat="45.28589" lon="5.38739">
        <ele>607.6</ele>
        <time>2022-04-28T12:18:22Z</time>
      </trkpt>
      <trkpt lat="45.28589" lon="5.38734">
        <ele>607.7</ele>
        <time>2022-04-28T12:18:23Z</time>
      </trkpt>
      <trkpt lat="45.28589" lon="5.38728">
        <ele>607.8</ele>
        <time>2022-04-28T12:18:24Z</time>
      </trkpt>
      <trkpt lat="45.28589" lon="5.38723">
        <ele>607.9</ele>
        <time>2022-04-28T12:18:25Z</time>
      </trkpt>
      <trkpt lat="45.2859" lon="5.38717">
        <ele>608</ele>
        <time>2022-04-28T12:18:26Z</time>
      </trkpt>
      <trkpt lat="45.28591" lon="5.3871">
        <ele>608.1</ele>
        <time>2022-04-28T12:18:27Z</time>
      </trkpt>
      <trkpt lat="45.28591" lon="5.38703">
        <ele>608.3</ele>
        <time>2022-04-28T12:18:28Z</time>
      </trkpt>
      <trkpt lat="45.28591" lon="5.38696">
        <ele>608.4</ele>
        <time>2022-04-28T12:18:30Z</time>
      </trkpt>
      <trkpt lat="45.28591" lon="5.38689">
        <ele>608.5</ele>
        <time>2022-04-28T12:18:31Z</time>
      </trkpt>
      <trkpt lat="45.28591" lon="5.38682">
        <ele>608.6</ele>
        <time>2022-04-28T12:18:32Z</time>
      </trkpt>
      <trkpt lat="45.28591" lon="5.38677">
        <ele>608.6</ele>
        <time>2022-04-28T12:18:33Z</time>
      </trkpt>
      <trkpt lat="45.28592" lon="5.38672">
        <ele>608.7</ele>
        <time>2022-04-28T12:18:34Z</time>
      </trkpt>
      <trkpt lat="45.28592" lon="5.38666">
        <ele>608.8</ele>
        <time>2022-04-28T12:18:35Z</time>
      </trkpt>
      <trkpt lat="45.28592" lon="5.38661">
        <ele>608.9</ele>
        <time>2022-04-28T12:18:36Z</time>
      </trkpt>
      <trkpt lat="45.28592" lon="5.38656">
        <ele>608.9</ele>
        <time>2022-04-28T12:18:37Z</time>
      </trkpt>
      <trkpt lat="45.28591" lon="5.38652">
        <ele>609</ele>
        <time>2022-04-28T12:18:38Z</time>
      </trkpt>
      <trkpt lat="45.2859" lon="5.38646">
        <ele>609.1</ele>
        <time>2022-04-28T12:18:39Z</time>
      </trkpt>
      <trkpt lat="45.28588" lon="5.38638">
        <ele>609.3</ele>
        <time>2022-04-28T12:18:41Z</time>
      </trkpt>
      <trkpt lat="45.28587" lon="5.38632">
        <ele>609.4</ele>
        <time>2022-04-28T12:18:42Z</time>
      </trkpt>
      <trkpt lat="45.28585" lon="5.38626">
        <ele>609.5</ele>
        <time>2022-04-28T12:18:43Z</time>
      </trkpt>
      <trkpt lat="45.28583" lon="5.3862">
        <ele>609.6</ele>
        <time>2022-04-28T12:18:44Z</time>
      </trkpt>
      <trkpt lat="45.28581" lon="5.38615">
        <ele>609.7</ele>
        <time>2022-04-28T12:18:45Z</time>
      </trkpt>
      <trkpt lat="45.28579" lon="5.38609">
        <ele>609.8</ele>
        <time>2022-04-28T12:18:46Z</time>
      </trkpt>
      <trkpt lat="45.28577" lon="5.38604">
        <ele>609.9</ele>
        <time>2022-04-28T12:18:47Z</time>
      </trkpt>
      <trkpt lat="45.28575" lon="5.38598">
        <ele>610</ele>
        <time>2022-04-28T12:18:49Z</time>
      </trkpt>
      <trkpt lat="45.28573" lon="5.38592">
        <ele>610</ele>
        <time>2022-04-28T12:18:50Z</time>
      </trkpt>
      <trkpt lat="45.28571" lon="5.38588">
        <ele>610.1</ele>
        <time>2022-04-28T12:18:51Z</time>
      </trkpt>
      <trkpt lat="45.28568" lon="5.3858">
        <ele>610.2</ele>
        <time>2022-04-28T12:18:52Z</time>
      </trkpt>
      <trkpt lat="45.28566" lon="5.38574">
        <ele>610.3</ele>
        <time>2022-04-28T12:18:53Z</time>
      </trkpt>
      <trkpt lat="45.28565" lon="5.38569">
        <ele>610.3</ele>
        <time>2022-04-28T12:18:54Z</time>
      </trkpt>
      <trkpt lat="45.28564" lon="5.38564">
        <ele>610.4</ele>
        <time>2022-04-28T12:18:55Z</time>
      </trkpt>
      <trkpt lat="45.28561" lon="5.38555">
        <ele>610.5</ele>
        <time>2022-04-28T12:18:57Z</time>
      </trkpt>
      <trkpt lat="45.28559" lon="5.38549">
        <ele>610.6</ele>
        <time>2022-04-28T12:18:58Z</time>
      </trkpt>
      <trkpt lat="45.28558" lon="5.38544">
        <ele>610.7</ele>
        <time>2022-04-28T12:18:59Z</time>
      </trkpt>
      <trkpt lat="45.28557" lon="5.38539">
        <ele>610.8</ele>
        <time>2022-04-28T12:19:00Z</time>
      </trkpt>
      <trkpt lat="45.28555" lon="5.38534">
        <ele>610.9</ele>
        <time>2022-04-28T12:19:01Z</time>
      </trkpt>
      <trkpt lat="45.28551" lon="5.38527">
        <ele>611</ele>
        <time>2022-04-28T12:19:03Z</time>
      </trkpt>
      <trkpt lat="45.28547" lon="5.38521">
        <ele>611.1</ele>
        <time>2022-04-28T12:19:04Z</time>
      </trkpt>
      <trkpt lat="45.28544" lon="5.38516">
        <ele>611.2</ele>
        <time>2022-04-28T12:19:05Z</time>
      </trkpt>
      <trkpt lat="45.28542" lon="5.38512">
        <ele>611.3</ele>
        <time>2022-04-28T12:19:06Z</time>
      </trkpt>
      <trkpt lat="45.28539" lon="5.38508">
        <ele>611.4</ele>
        <time>2022-04-28T12:19:07Z</time>
      </trkpt>
      <trkpt lat="45.28536" lon="5.38504">
        <ele>611.5</ele>
        <time>2022-04-28T12:19:08Z</time>
      </trkpt>
      <trkpt lat="45.28534" lon="5.385">
        <ele>611.5</ele>
        <time>2022-04-28T12:19:09Z</time>
      </trkpt>
      <trkpt lat="45.28529" lon="5.38493">
        <ele>611.7</ele>
        <time>2022-04-28T12:19:11Z</time>
      </trkpt>
      <trkpt lat="45.28526" lon="5.3849">
        <ele>611.7</ele>
        <time>2022-04-28T12:19:12Z</time>
      </trkpt>
      <trkpt lat="45.28523" lon="5.38486">
        <ele>611.8</ele>
        <time>2022-04-28T12:19:13Z</time>
      </trkpt>
      <trkpt lat="45.2852" lon="5.38481">
        <ele>611.9</ele>
        <time>2022-04-28T12:19:14Z</time>
      </trkpt>
      <trkpt lat="45.28516" lon="5.38477">
        <ele>612</ele>
        <time>2022-04-28T12:19:15Z</time>
      </trkpt>
      <trkpt lat="45.28512" lon="5.38474">
        <ele>612.1</ele>
        <time>2022-04-28T12:19:16Z</time>
      </trkpt>
      <trkpt lat="45.28508" lon="5.38472">
        <ele>612.1</ele>
        <time>2022-04-28T12:19:17Z</time>
      </trkpt>
      <trkpt lat="45.28503" lon="5.38469">
        <ele>612.2</ele>
        <time>2022-04-28T12:19:19Z</time>
      </trkpt>
      <trkpt lat="45.28498" lon="5.38466">
        <ele>612.3</ele>
        <time>2022-04-28T12:19:20Z</time>
      </trkpt>
      <trkpt lat="45.28493" lon="5.38466">
        <ele>612.4</ele>
        <time>2022-04-28T12:19:21Z</time>
      </trkpt>
      <trkpt lat="45.28486" lon="5.38466">
        <ele>612.5</ele>
        <time>2022-04-28T12:19:22Z</time>
      </trkpt>
      <trkpt lat="45.28481" lon="5.38467">
        <ele>612.6</ele>
        <time>2022-04-28T12:19:23Z</time>
      </trkpt>
      <trkpt lat="45.28477" lon="5.38468">
        <ele>612.6</ele>
        <time>2022-04-28T12:19:24Z</time>
      </trkpt>
      <trkpt lat="45.28474" lon="5.38471">
        <ele>612.7</ele>
        <time>2022-04-28T12:19:26Z</time>
      </trkpt>
      <trkpt lat="45.28465" lon="5.38477">
        <ele>613</ele>
        <time>2022-04-28T12:19:27Z</time>
      </trkpt>
      <trkpt lat="45.28461" lon="5.3848">
        <ele>613.1</ele>
        <time>2022-04-28T12:19:28Z</time>
      </trkpt>
      <trkpt lat="45.28459" lon="5.38481">
        <ele>613.2</ele>
        <time>2022-04-28T12:19:29Z</time>
      </trkpt>
      <trkpt lat="45.28454" lon="5.38485">
        <ele>613.3</ele>
        <time>2022-04-28T12:19:31Z</time>
      </trkpt>
      <trkpt lat="45.2845" lon="5.38492">
        <ele>613.5</ele>
        <time>2022-04-28T12:19:32Z</time>
      </trkpt>
      <trkpt lat="45.28447" lon="5.38498">
        <ele>613.8</ele>
        <time>2022-04-28T12:19:33Z</time>
      </trkpt>
      <trkpt lat="45.28444" lon="5.38504">
        <ele>614</ele>
        <time>2022-04-28T12:19:34Z</time>
      </trkpt>
      <trkpt lat="45.28444" lon="5.38512">
        <ele>614.2</ele>
        <time>2022-04-28T12:19:36Z</time>
      </trkpt>
      <trkpt lat="45.28446" lon="5.38518">
        <ele>614.5</ele>
        <time>2022-04-28T12:19:37Z</time>
      </trkpt>
      <trkpt lat="45.28447" lon="5.38523">
        <ele>614.7</ele>
        <time>2022-04-28T12:19:38Z</time>
      </trkpt>
      <trkpt lat="45.28449" lon="5.38528">
        <ele>614.9</ele>
        <time>2022-04-28T12:19:39Z</time>
      </trkpt>
      <trkpt lat="45.28451" lon="5.38532">
        <ele>615.1</ele>
        <time>2022-04-28T12:19:40Z</time>
      </trkpt>
      <trkpt lat="45.28454" lon="5.38536">
        <ele>615.3</ele>
        <time>2022-04-28T12:19:41Z</time>
      </trkpt>
      <trkpt lat="45.28457" lon="5.3854">
        <ele>615.5</ele>
        <time>2022-04-28T12:19:42Z</time>
      </trkpt>
      <trkpt lat="45.2846" lon="5.38544">
        <ele>615.8</ele>
        <time>2022-04-28T12:19:43Z</time>
      </trkpt>
      <trkpt lat="45.28465" lon="5.38551">
        <ele>616.3</ele>
        <time>2022-04-28T12:19:45Z</time>
      </trkpt>
      <trkpt lat="45.28465" lon="5.38551">
        <ele>616.4</ele>
        <time>2022-04-28T12:19:46Z</time>
      </trkpt>
      <trkpt lat="45.28466" lon="5.38553">
        <ele>616.5</ele>
        <time>2022-04-28T12:19:47Z</time>
      </trkpt>
      <trkpt lat="45.2847" lon="5.38562">
        <ele>617.1</ele>
        <time>2022-04-28T12:19:49Z</time>
      </trkpt>
      <trkpt lat="45.28472" lon="5.38568">
        <ele>617.5</ele>
        <time>2022-04-28T12:19:50Z</time>
      </trkpt>
      <trkpt lat="45.28472" lon="5.38575">
        <ele>617.9</ele>
        <time>2022-04-28T12:19:51Z</time>
      </trkpt>
      <trkpt lat="45.28472" lon="5.38581">
        <ele>618.3</ele>
        <time>2022-04-28T12:19:52Z</time>
      </trkpt>
      <trkpt lat="45.28471" lon="5.38586">
        <ele>618.5</ele>
        <time>2022-04-28T12:19:53Z</time>
      </trkpt>
      <trkpt lat="45.28468" lon="5.38592">
        <ele>618.9</ele>
        <time>2022-04-28T12:19:55Z</time>
      </trkpt>
      <trkpt lat="45.28467" lon="5.38596">
        <ele>619.2</ele>
        <time>2022-04-28T12:19:56Z</time>
      </trkpt>
      <trkpt lat="45.28465" lon="5.386">
        <ele>619.4</ele>
        <time>2022-04-28T12:19:57Z</time>
      </trkpt>
      <trkpt lat="45.28464" lon="5.38604">
        <ele>619.7</ele>
        <time>2022-04-28T12:19:58Z</time>
      </trkpt>
      <trkpt lat="45.28464" lon="5.38606">
        <ele>619.8</ele>
        <time>2022-04-28T12:19:59Z</time>
      </trkpt>
      <trkpt lat="45.28464" lon="5.3861">
        <ele>620</ele>
        <time>2022-04-28T12:20:00Z</time>
      </trkpt>
      <trkpt lat="45.28464" lon="5.38615">
        <ele>620.2</ele>
        <time>2022-04-28T12:20:01Z</time>
      </trkpt>
      <trkpt lat="45.28464" lon="5.38619">
        <ele>620.4</ele>
        <time>2022-04-28T12:20:02Z</time>
      </trkpt>
      <trkpt lat="45.28464" lon="5.38623">
        <ele>620.6</ele>
        <time>2022-04-28T12:20:03Z</time>
      </trkpt>
      <trkpt lat="45.28465" lon="5.38627">
        <ele>620.8</ele>
        <time>2022-04-28T12:20:04Z</time>
      </trkpt>
      <trkpt lat="45.28466" lon="5.38631">
        <ele>621</ele>
        <time>2022-04-28T12:20:05Z</time>
      </trkpt>
      <trkpt lat="45.28467" lon="5.38637">
        <ele>621.2</ele>
        <time>2022-04-28T12:20:06Z</time>
      </trkpt>
      <trkpt lat="45.28467" lon="5.38639">
        <ele>621.3</ele>
        <time>2022-04-28T12:20:07Z</time>
      </trkpt>
      <trkpt lat="45.28468" lon="5.38643">
        <ele>621.5</ele>
        <time>2022-04-28T12:20:08Z</time>
      </trkpt>
      <trkpt lat="45.28469" lon="5.38647">
        <ele>621.7</ele>
        <time>2022-04-28T12:20:09Z</time>
      </trkpt>
      <trkpt lat="45.2847" lon="5.3865">
        <ele>621.8</ele>
        <time>2022-04-28T12:20:10Z</time>
      </trkpt>
      <trkpt lat="45.28472" lon="5.38655">
        <ele>622</ele>
        <time>2022-04-28T12:20:11Z</time>
      </trkpt>
      <trkpt lat="45.28472" lon="5.38657">
        <ele>622.1</ele>
        <time>2022-04-28T12:20:12Z</time>
      </trkpt>
      <trkpt lat="45.28475" lon="5.38662">
        <ele>622.3</ele>
        <time>2022-04-28T12:20:13Z</time>
      </trkpt>
      <trkpt lat="45.28475" lon="5.38664">
        <ele>622.4</ele>
        <time>2022-04-28T12:20:14Z</time>
      </trkpt>
      <trkpt lat="45.28476" lon="5.3867">
        <ele>622.6</ele>
        <time>2022-04-28T12:20:15Z</time>
      </trkpt>
      <trkpt lat="45.28477" lon="5.38671">
        <ele>622.7</ele>
        <time>2022-04-28T12:20:16Z</time>
      </trkpt>
      <trkpt lat="45.28478" lon="5.38675">
        <ele>622.9</ele>
        <time>2022-04-28T12:20:17Z</time>
      </trkpt>
      <trkpt lat="45.28479" lon="5.38679">
        <ele>623</ele>
        <time>2022-04-28T12:20:18Z</time>
      </trkpt>
      <trkpt lat="45.2848" lon="5.38683">
        <ele>623.2</ele>
        <time>2022-04-28T12:20:19Z</time>
      </trkpt>
      <trkpt lat="45.2848" lon="5.38687">
        <ele>623.4</ele>
        <time>2022-04-28T12:20:20Z</time>
      </trkpt>
      <trkpt lat="45.28481" lon="5.38691">
        <ele>623.5</ele>
        <time>2022-04-28T12:20:21Z</time>
      </trkpt>
      <trkpt lat="45.28481" lon="5.38695">
        <ele>623.7</ele>
        <time>2022-04-28T12:20:22Z</time>
      </trkpt>
      <trkpt lat="45.28482" lon="5.387">
        <ele>623.9</ele>
        <time>2022-04-28T12:20:24Z</time>
      </trkpt>
      <trkpt lat="45.28482" lon="5.38706">
        <ele>624.2</ele>
        <time>2022-04-28T12:20:25Z</time>
      </trkpt>
      <trkpt lat="45.28483" lon="5.38712">
        <ele>624.4</ele>
        <time>2022-04-28T12:20:26Z</time>
      </trkpt>
      <trkpt lat="45.28483" lon="5.38714">
        <ele>624.5</ele>
        <time>2022-04-28T12:20:27Z</time>
      </trkpt>
      <trkpt lat="45.28483" lon="5.38718">
        <ele>624.7</ele>
        <time>2022-04-28T12:20:28Z</time>
      </trkpt>
      <trkpt lat="45.28484" lon="5.38722">
        <ele>624.9</ele>
        <time>2022-04-28T12:20:29Z</time>
      </trkpt>
      <trkpt lat="45.28484" lon="5.38727">
        <ele>625.1</ele>
        <time>2022-04-28T12:20:30Z</time>
      </trkpt>
      <trkpt lat="45.28484" lon="5.38731">
        <ele>625.3</ele>
        <time>2022-04-28T12:20:31Z</time>
      </trkpt>
      <trkpt lat="45.28484" lon="5.38735">
        <ele>625.4</ele>
        <time>2022-04-28T12:20:32Z</time>
      </trkpt>
      <trkpt lat="45.28484" lon="5.38739">
        <ele>625.6</ele>
        <time>2022-04-28T12:20:33Z</time>
      </trkpt>
      <trkpt lat="45.28483" lon="5.38747">
        <ele>626</ele>
        <time>2022-04-28T12:20:35Z</time>
      </trkpt>
      <trkpt lat="45.28483" lon="5.38753">
        <ele>626.3</ele>
        <time>2022-04-28T12:20:36Z</time>
      </trkpt>
      <trkpt lat="45.28483" lon="5.38754">
        <ele>626.3</ele>
        <time>2022-04-28T12:20:37Z</time>
      </trkpt>
      <trkpt lat="45.28483" lon="5.38762">
        <ele>626.7</ele>
        <time>2022-04-28T12:20:39Z</time>
      </trkpt>
      <trkpt lat="45.28482" lon="5.38766">
        <ele>626.9</ele>
        <time>2022-04-28T12:20:40Z</time>
      </trkpt>
      <trkpt lat="45.28482" lon="5.38768">
        <ele>627</ele>
        <time>2022-04-28T12:20:41Z</time>
      </trkpt>
      <trkpt lat="45.28482" lon="5.38774">
        <ele>627.3</ele>
        <time>2022-04-28T12:20:42Z</time>
      </trkpt>
      <trkpt lat="45.28481" lon="5.38775">
        <ele>627.4</ele>
        <time>2022-04-28T12:20:43Z</time>
      </trkpt>
      <trkpt lat="45.28481" lon="5.38781">
        <ele>627.6</ele>
        <time>2022-04-28T12:20:44Z</time>
      </trkpt>
      <trkpt lat="45.28481" lon="5.38783">
        <ele>627.7</ele>
        <time>2022-04-28T12:20:45Z</time>
      </trkpt>
      <trkpt lat="45.2848" lon="5.38787">
        <ele>628</ele>
        <time>2022-04-28T12:20:46Z</time>
      </trkpt>
      <trkpt lat="45.2848" lon="5.38791">
        <ele>628.2</ele>
        <time>2022-04-28T12:20:47Z</time>
      </trkpt>
      <trkpt lat="45.28479" lon="5.38797">
        <ele>628.4</ele>
        <time>2022-04-28T12:20:48Z</time>
      </trkpt>
      <trkpt lat="45.28478" lon="5.38798">
        <ele>628.5</ele>
        <time>2022-04-28T12:20:49Z</time>
      </trkpt>
      <trkpt lat="45.28476" lon="5.38805">
        <ele>628.9</ele>
        <time>2022-04-28T12:20:51Z</time>
      </trkpt>
      <trkpt lat="45.28475" lon="5.38808">
        <ele>629</ele>
        <time>2022-04-28T12:20:52Z</time>
      </trkpt>
      <trkpt lat="45.28472" lon="5.38814">
        <ele>629.4</ele>
        <time>2022-04-28T12:20:54Z</time>
      </trkpt>
      <trkpt lat="45.2847" lon="5.38817">
        <ele>629.6</ele>
        <time>2022-04-28T12:20:55Z</time>
      </trkpt>
      <trkpt lat="45.28468" lon="5.3882">
        <ele>629.7</ele>
        <time>2022-04-28T12:20:56Z</time>
      </trkpt>
      <trkpt lat="45.28464" lon="5.38822">
        <ele>630</ele>
        <time>2022-04-28T12:20:57Z</time>
      </trkpt>
      <trkpt lat="45.28463" lon="5.38823">
        <ele>630.1</ele>
        <time>2022-04-28T12:20:58Z</time>
      </trkpt>
      <trkpt lat="45.2846" lon="5.38824">
        <ele>630.3</ele>
        <time>2022-04-28T12:20:59Z</time>
      </trkpt>
      <trkpt lat="45.28457" lon="5.38824">
        <ele>630.5</ele>
        <time>2022-04-28T12:21:00Z</time>
      </trkpt>
      <trkpt lat="45.28454" lon="5.38824">
        <ele>630.7</ele>
        <time>2022-04-28T12:21:01Z</time>
      </trkpt>
      <trkpt lat="45.28451" lon="5.38823">
        <ele>630.8</ele>
        <time>2022-04-28T12:21:02Z</time>
      </trkpt>
      <trkpt lat="45.28448" lon="5.38822">
        <ele>631</ele>
        <time>2022-04-28T12:21:03Z</time>
      </trkpt>
      <trkpt lat="45.28443" lon="5.38819">
        <ele>631.4</ele>
        <time>2022-04-28T12:21:05Z</time>
      </trkpt>
      <trkpt lat="45.2844" lon="5.38818">
        <ele>631.6</ele>
        <time>2022-04-28T12:21:06Z</time>
      </trkpt>
      <trkpt lat="45.28438" lon="5.38817">
        <ele>631.7</ele>
        <time>2022-04-28T12:21:07Z</time>
      </trkpt>
      <trkpt lat="45.28436" lon="5.38815">
        <ele>631.9</ele>
        <time>2022-04-28T12:21:08Z</time>
      </trkpt>
      <trkpt lat="45.28433" lon="5.38813">
        <ele>632</ele>
        <time>2022-04-28T12:21:09Z</time>
      </trkpt>
      <trkpt lat="45.28431" lon="5.38811">
        <ele>632.2</ele>
        <time>2022-04-28T12:21:10Z</time>
      </trkpt>
      <trkpt lat="45.28427" lon="5.38809">
        <ele>632.5</ele>
        <time>2022-04-28T12:21:11Z</time>
      </trkpt>
      <trkpt lat="45.28426" lon="5.38808">
        <ele>632.6</ele>
        <time>2022-04-28T12:21:12Z</time>
      </trkpt>
      <trkpt lat="45.28422" lon="5.38806">
        <ele>632.8</ele>
        <time>2022-04-28T12:21:13Z</time>
      </trkpt>
      <trkpt lat="45.28421" lon="5.38806">
        <ele>632.9</ele>
        <time>2022-04-28T12:21:14Z</time>
      </trkpt>
      <trkpt lat="45.28417" lon="5.38804">
        <ele>633.2</ele>
        <time>2022-04-28T12:21:15Z</time>
      </trkpt>
      <trkpt lat="45.28416" lon="5.38804">
        <ele>633.2</ele>
        <time>2022-04-28T12:21:16Z</time>
      </trkpt>
      <trkpt lat="45.28412" lon="5.38803">
        <ele>633.5</ele>
        <time>2022-04-28T12:21:17Z</time>
      </trkpt>
      <trkpt lat="45.28411" lon="5.38803">
        <ele>633.6</ele>
        <time>2022-04-28T12:21:18Z</time>
      </trkpt>
      <trkpt lat="45.28408" lon="5.38802">
        <ele>633.8</ele>
        <time>2022-04-28T12:21:19Z</time>
      </trkpt>
      <trkpt lat="45.28406" lon="5.38802">
        <ele>633.9</ele>
        <time>2022-04-28T12:21:20Z</time>
      </trkpt>
      <trkpt lat="45.28404" lon="5.38801">
        <ele>634.1</ele>
        <time>2022-04-28T12:21:21Z</time>
      </trkpt>
      <trkpt lat="45.28401" lon="5.388">
        <ele>634.3</ele>
        <time>2022-04-28T12:21:22Z</time>
      </trkpt>
      <trkpt lat="45.28398" lon="5.38798">
        <ele>634.5</ele>
        <time>2022-04-28T12:21:23Z</time>
      </trkpt>
      <trkpt lat="45.28396" lon="5.38798">
        <ele>634.6</ele>
        <time>2022-04-28T12:21:24Z</time>
      </trkpt>
      <trkpt lat="45.28393" lon="5.38795">
        <ele>634.9</ele>
        <time>2022-04-28T12:21:25Z</time>
      </trkpt>
      <trkpt lat="45.28392" lon="5.38794">
        <ele>635</ele>
        <time>2022-04-28T12:21:26Z</time>
      </trkpt>
      <trkpt lat="45.28387" lon="5.3879">
        <ele>635.3</ele>
        <time>2022-04-28T12:21:28Z</time>
      </trkpt>
      <trkpt lat="45.28384" lon="5.38787">
        <ele>635.6</ele>
        <time>2022-04-28T12:21:29Z</time>
      </trkpt>
      <trkpt lat="45.28382" lon="5.38786">
        <ele>635.7</ele>
        <time>2022-04-28T12:21:30Z</time>
      </trkpt>
      <trkpt lat="45.2838" lon="5.38784">
        <ele>635.9</ele>
        <time>2022-04-28T12:21:31Z</time>
      </trkpt>
      <trkpt lat="45.28377" lon="5.38782">
        <ele>636.1</ele>
        <time>2022-04-28T12:21:32Z</time>
      </trkpt>
      <trkpt lat="45.28375" lon="5.38779">
        <ele>636.3</ele>
        <time>2022-04-28T12:21:33Z</time>
      </trkpt>
      <trkpt lat="45.28371" lon="5.38775">
        <ele>636.7</ele>
        <time>2022-04-28T12:21:35Z</time>
      </trkpt>
      <trkpt lat="45.28369" lon="5.38774">
        <ele>636.8</ele>
        <time>2022-04-28T12:21:36Z</time>
      </trkpt>
      <trkpt lat="45.28368" lon="5.38773">
        <ele>636.9</ele>
        <time>2022-04-28T12:21:37Z</time>
      </trkpt>
      <trkpt lat="45.28364" lon="5.3877">
        <ele>637.2</ele>
        <time>2022-04-28T12:21:38Z</time>
      </trkpt>
      <trkpt lat="45.28361" lon="5.38768">
        <ele>637.5</ele>
        <time>2022-04-28T12:21:39Z</time>
      </trkpt>
      <trkpt lat="45.2836" lon="5.38768">
        <ele>637.6</ele>
        <time>2022-04-28T12:21:40Z</time>
      </trkpt>
      <trkpt lat="45.28357" lon="5.38767">
        <ele>637.8</ele>
        <time>2022-04-28T12:21:41Z</time>
      </trkpt>
      <trkpt lat="45.28354" lon="5.38767">
        <ele>638</ele>
        <time>2022-04-28T12:21:42Z</time>
      </trkpt>
      <trkpt lat="45.2835" lon="5.38768">
        <ele>638.3</ele>
        <time>2022-04-28T12:21:43Z</time>
      </trkpt>
      <trkpt lat="45.28348" lon="5.38768">
        <ele>638.4</ele>
        <time>2022-04-28T12:21:44Z</time>
      </trkpt>
      <trkpt lat="45.28345" lon="5.3877">
        <ele>638.6</ele>
        <time>2022-04-28T12:21:45Z</time>
      </trkpt>
      <trkpt lat="45.28341" lon="5.38774">
        <ele>639</ele>
        <time>2022-04-28T12:21:47Z</time>
      </trkpt>
      <trkpt lat="45.28338" lon="5.38778">
        <ele>639.3</ele>
        <time>2022-04-28T12:21:48Z</time>
      </trkpt>
      <trkpt lat="45.28336" lon="5.38782">
        <ele>639.5</ele>
        <time>2022-04-28T12:21:49Z</time>
      </trkpt>
      <trkpt lat="45.28334" lon="5.38789">
        <ele>639.8</ele>
        <time>2022-04-28T12:21:51Z</time>
      </trkpt>
      <trkpt lat="45.28334" lon="5.38794">
        <ele>640</ele>
        <time>2022-04-28T12:21:52Z</time>
      </trkpt>
      <trkpt lat="45.28335" lon="5.38798">
        <ele>640.2</ele>
        <time>2022-04-28T12:21:53Z</time>
      </trkpt>
      <trkpt lat="45.28335" lon="5.38802">
        <ele>640.3</ele>
        <time>2022-04-28T12:21:54Z</time>
      </trkpt>
      <trkpt lat="45.28335" lon="5.38806">
        <ele>640.4</ele>
        <time>2022-04-28T12:21:55Z</time>
      </trkpt>
      <trkpt lat="45.28334" lon="5.3881">
        <ele>640.6</ele>
        <time>2022-04-28T12:21:56Z</time>
      </trkpt>
      <trkpt lat="45.28335" lon="5.38818">
        <ele>641</ele>
        <time>2022-04-28T12:21:58Z</time>
      </trkpt>
      <trkpt lat="45.28334" lon="5.38823">
        <ele>641.2</ele>
        <time>2022-04-28T12:21:59Z</time>
      </trkpt>
      <trkpt lat="45.28334" lon="5.38825">
        <ele>641.3</ele>
        <time>2022-04-28T12:22:00Z</time>
      </trkpt>
      <trkpt lat="45.28333" lon="5.38828">
        <ele>641.4</ele>
        <time>2022-04-28T12:22:01Z</time>
      </trkpt>
      <trkpt lat="45.28332" lon="5.38833">
        <ele>641.6</ele>
        <time>2022-04-28T12:22:03Z</time>
      </trkpt>
      <trkpt lat="45.28331" lon="5.38837">
        <ele>641.9</ele>
        <time>2022-04-28T12:22:04Z</time>
      </trkpt>
      <trkpt lat="45.28329" lon="5.38842">
        <ele>642.1</ele>
        <time>2022-04-28T12:22:05Z</time>
      </trkpt>
      <trkpt lat="45.28327" lon="5.38847">
        <ele>642.4</ele>
        <time>2022-04-28T12:22:06Z</time>
      </trkpt>
      <trkpt lat="45.28326" lon="5.38848">
        <ele>642.5</ele>
        <time>2022-04-28T12:22:07Z</time>
      </trkpt>
      <trkpt lat="45.28325" lon="5.38851">
        <ele>642.6</ele>
        <time>2022-04-28T12:22:08Z</time>
      </trkpt>
      <trkpt lat="45.28323" lon="5.38857">
        <ele>642.9</ele>
        <time>2022-04-28T12:22:10Z</time>
      </trkpt>
      <trkpt lat="45.28321" lon="5.38862">
        <ele>643.2</ele>
        <time>2022-04-28T12:22:11Z</time>
      </trkpt>
      <trkpt lat="45.2832" lon="5.38865">
        <ele>643.3</ele>
        <time>2022-04-28T12:22:12Z</time>
      </trkpt>
      <trkpt lat="45.28319" lon="5.38868">
        <ele>643.5</ele>
        <time>2022-04-28T12:22:13Z</time>
      </trkpt>
      <trkpt lat="45.28318" lon="5.38873">
        <ele>643.7</ele>
        <time>2022-04-28T12:22:14Z</time>
      </trkpt>
      <trkpt lat="45.28317" lon="5.38875">
        <ele>643.8</ele>
        <time>2022-04-28T12:22:15Z</time>
      </trkpt>
      <trkpt lat="45.28316" lon="5.3888">
        <ele>644</ele>
        <time>2022-04-28T12:22:16Z</time>
      </trkpt>
      <trkpt lat="45.28315" lon="5.38882">
        <ele>644.1</ele>
        <time>2022-04-28T12:22:17Z</time>
      </trkpt>
      <trkpt lat="45.28313" lon="5.38885">
        <ele>644.3</ele>
        <time>2022-04-28T12:22:18Z</time>
      </trkpt>
      <trkpt lat="45.28312" lon="5.3889">
        <ele>644.5</ele>
        <time>2022-04-28T12:22:19Z</time>
      </trkpt>
      <trkpt lat="45.28311" lon="5.38892">
        <ele>644.6</ele>
        <time>2022-04-28T12:22:20Z</time>
      </trkpt>
      <trkpt lat="45.28309" lon="5.38897">
        <ele>644.8</ele>
        <time>2022-04-28T12:22:21Z</time>
      </trkpt>
      <trkpt lat="45.28309" lon="5.38898">
        <ele>644.9</ele>
        <time>2022-04-28T12:22:22Z</time>
      </trkpt>
      <trkpt lat="45.28307" lon="5.38901">
        <ele>645.1</ele>
        <time>2022-04-28T12:22:23Z</time>
      </trkpt>
      <trkpt lat="45.28302" lon="5.38906">
        <ele>645.4</ele>
        <time>2022-04-28T12:22:25Z</time>
      </trkpt>
      <trkpt lat="45.283" lon="5.38908">
        <ele>645.6</ele>
        <time>2022-04-28T12:22:26Z</time>
      </trkpt>
      <trkpt lat="45.28297" lon="5.3891">
        <ele>645.8</ele>
        <time>2022-04-28T12:22:27Z</time>
      </trkpt>
      <trkpt lat="45.28293" lon="5.38912">
        <ele>646.1</ele>
        <time>2022-04-28T12:22:29Z</time>
      </trkpt>
      <trkpt lat="45.2829" lon="5.38915">
        <ele>646.3</ele>
        <time>2022-04-28T12:22:30Z</time>
      </trkpt>
      <trkpt lat="45.28287" lon="5.38917">
        <ele>646.5</ele>
        <time>2022-04-28T12:22:32Z</time>
      </trkpt>
      <trkpt lat="45.28284" lon="5.38918">
        <ele>646.7</ele>
        <time>2022-04-28T12:22:33Z</time>
      </trkpt>
      <trkpt lat="45.2828" lon="5.3892">
        <ele>647</ele>
        <time>2022-04-28T12:22:34Z</time>
      </trkpt>
      <trkpt lat="45.28278" lon="5.38921">
        <ele>647.1</ele>
        <time>2022-04-28T12:22:35Z</time>
      </trkpt>
      <trkpt lat="45.28276" lon="5.38922">
        <ele>647.3</ele>
        <time>2022-04-28T12:22:36Z</time>
      </trkpt>
      <trkpt lat="45.2827" lon="5.38925">
        <ele>647.7</ele>
        <time>2022-04-28T12:22:38Z</time>
      </trkpt>
      <trkpt lat="45.28267" lon="5.38928">
        <ele>647.9</ele>
        <time>2022-04-28T12:22:39Z</time>
      </trkpt>
      <trkpt lat="45.28266" lon="5.38929">
        <ele>648</ele>
        <time>2022-04-28T12:22:40Z</time>
      </trkpt>
      <trkpt lat="45.28263" lon="5.38932">
        <ele>648.3</ele>
        <time>2022-04-28T12:22:41Z</time>
      </trkpt>
      <trkpt lat="45.28262" lon="5.38934">
        <ele>648.4</ele>
        <time>2022-04-28T12:22:42Z</time>
      </trkpt>
      <trkpt lat="45.28259" lon="5.38936">
        <ele>648.6</ele>
        <time>2022-04-28T12:22:43Z</time>
      </trkpt>
      <trkpt lat="45.28256" lon="5.38939">
        <ele>648.8</ele>
        <time>2022-04-28T12:22:44Z</time>
      </trkpt>
      <trkpt lat="45.28255" lon="5.38941">
        <ele>649</ele>
        <time>2022-04-28T12:22:45Z</time>
      </trkpt>
      <trkpt lat="45.28252" lon="5.38943">
        <ele>649.2</ele>
        <time>2022-04-28T12:22:46Z</time>
      </trkpt>
      <trkpt lat="45.28249" lon="5.38946">
        <ele>649.4</ele>
        <time>2022-04-28T12:22:47Z</time>
      </trkpt>
      <trkpt lat="45.28245" lon="5.3895">
        <ele>649.7</ele>
        <time>2022-04-28T12:22:49Z</time>
      </trkpt>
      <trkpt lat="45.28241" lon="5.38953">
        <ele>649.9</ele>
        <time>2022-04-28T12:22:50Z</time>
      </trkpt>
      <trkpt lat="45.2824" lon="5.38954">
        <ele>650</ele>
        <time>2022-04-28T12:22:51Z</time>
      </trkpt>
      <trkpt lat="45.28237" lon="5.38956">
        <ele>650.3</ele>
        <time>2022-04-28T12:22:53Z</time>
      </trkpt>
      <trkpt lat="45.28233" lon="5.38957">
        <ele>650.5</ele>
        <time>2022-04-28T12:22:54Z</time>
      </trkpt>
      <trkpt lat="45.28228" lon="5.38959">
        <ele>650.8</ele>
        <time>2022-04-28T12:22:55Z</time>
      </trkpt>
      <trkpt lat="45.28223" lon="5.38959">
        <ele>651.2</ele>
        <time>2022-04-28T12:22:57Z</time>
      </trkpt>
      <trkpt lat="45.28218" lon="5.38959">
        <ele>651.5</ele>
        <time>2022-04-28T12:22:58Z</time>
      </trkpt>
      <trkpt lat="45.28215" lon="5.38958">
        <ele>651.7</ele>
        <time>2022-04-28T12:22:59Z</time>
      </trkpt>
      <trkpt lat="45.28211" lon="5.38958">
        <ele>652</ele>
        <time>2022-04-28T12:23:01Z</time>
      </trkpt>
      <trkpt lat="45.28208" lon="5.38957">
        <ele>652.2</ele>
        <time>2022-04-28T12:23:02Z</time>
      </trkpt>
      <trkpt lat="45.28205" lon="5.38956">
        <ele>652.5</ele>
        <time>2022-04-28T12:23:03Z</time>
      </trkpt>
      <trkpt lat="45.28201" lon="5.38956">
        <ele>652.8</ele>
        <time>2022-04-28T12:23:04Z</time>
      </trkpt>
      <trkpt lat="45.282" lon="5.38956">
        <ele>652.9</ele>
        <time>2022-04-28T12:23:05Z</time>
      </trkpt>
      <trkpt lat="45.28197" lon="5.38957">
        <ele>653.1</ele>
        <time>2022-04-28T12:23:06Z</time>
      </trkpt>
      <trkpt lat="45.28194" lon="5.38959">
        <ele>653.3</ele>
        <time>2022-04-28T12:23:07Z</time>
      </trkpt>
      <trkpt lat="45.28192" lon="5.38962">
        <ele>653.5</ele>
        <time>2022-04-28T12:23:08Z</time>
      </trkpt>
      <trkpt lat="45.2819" lon="5.38965">
        <ele>653.7</ele>
        <time>2022-04-28T12:23:09Z</time>
      </trkpt>
      <trkpt lat="45.2819" lon="5.3897">
        <ele>653.9</ele>
        <time>2022-04-28T12:23:10Z</time>
      </trkpt>
      <trkpt lat="45.28188" lon="5.38974">
        <ele>654.1</ele>
        <time>2022-04-28T12:23:11Z</time>
      </trkpt>
      <trkpt lat="45.28188" lon="5.38977">
        <ele>654.3</ele>
        <time>2022-04-28T12:23:12Z</time>
      </trkpt>
      <trkpt lat="45.28188" lon="5.38982">
        <ele>654.4</ele>
        <time>2022-04-28T12:23:13Z</time>
      </trkpt>
      <trkpt lat="45.28188" lon="5.38985">
        <ele>654.6</ele>
        <time>2022-04-28T12:23:14Z</time>
      </trkpt>
      <trkpt lat="45.28189" lon="5.38992">
        <ele>654.9</ele>
        <time>2022-04-28T12:23:16Z</time>
      </trkpt>
      <trkpt lat="45.28188" lon="5.38995">
        <ele>655.1</ele>
        <time>2022-04-28T12:23:17Z</time>
      </trkpt>
      <trkpt lat="45.28188" lon="5.38999">
        <ele>655.2</ele>
        <time>2022-04-28T12:23:18Z</time>
      </trkpt>
      <trkpt lat="45.28186" lon="5.39004">
        <ele>655.5</ele>
        <time>2022-04-28T12:23:20Z</time>
      </trkpt>
      <trkpt lat="45.28185" lon="5.39008">
        <ele>655.6</ele>
        <time>2022-04-28T12:23:21Z</time>
      </trkpt>
      <trkpt lat="45.28184" lon="5.39013">
        <ele>655.9</ele>
        <time>2022-04-28T12:23:22Z</time>
      </trkpt>
      <trkpt lat="45.28183" lon="5.39014">
        <ele>656</ele>
        <time>2022-04-28T12:23:23Z</time>
      </trkpt>
      <trkpt lat="45.28181" lon="5.39017">
        <ele>656.1</ele>
        <time>2022-04-28T12:23:24Z</time>
      </trkpt>
      <trkpt lat="45.28179" lon="5.39022">
        <ele>656.4</ele>
        <time>2022-04-28T12:23:26Z</time>
      </trkpt>
      <trkpt lat="45.28177" lon="5.39028">
        <ele>656.7</ele>
        <time>2022-04-28T12:23:27Z</time>
      </trkpt>
      <trkpt lat="45.28175" lon="5.39031">
        <ele>656.9</ele>
        <time>2022-04-28T12:23:28Z</time>
      </trkpt>
      <trkpt lat="45.28175" lon="5.39035">
        <ele>657</ele>
        <time>2022-04-28T12:23:29Z</time>
      </trkpt>
      <trkpt lat="45.28174" lon="5.39039">
        <ele>657.2</ele>
        <time>2022-04-28T12:23:30Z</time>
      </trkpt>
      <trkpt lat="45.28173" lon="5.39042">
        <ele>657.4</ele>
        <time>2022-04-28T12:23:31Z</time>
      </trkpt>
      <trkpt lat="45.28173" lon="5.39046">
        <ele>657.6</ele>
        <time>2022-04-28T12:23:32Z</time>
      </trkpt>
      <trkpt lat="45.28172" lon="5.39051">
        <ele>657.8</ele>
        <time>2022-04-28T12:23:33Z</time>
      </trkpt>
      <trkpt lat="45.28173" lon="5.39055">
        <ele>658</ele>
        <time>2022-04-28T12:23:34Z</time>
      </trkpt>
      <trkpt lat="45.28174" lon="5.39061">
        <ele>658.2</ele>
        <time>2022-04-28T12:23:35Z</time>
      </trkpt>
      <trkpt lat="45.28174" lon="5.39063">
        <ele>658.3</ele>
        <time>2022-04-28T12:23:36Z</time>
      </trkpt>
      <trkpt lat="45.28175" lon="5.39067">
        <ele>658.5</ele>
        <time>2022-04-28T12:23:37Z</time>
      </trkpt>
      <trkpt lat="45.28177" lon="5.39072">
        <ele>658.8</ele>
        <time>2022-04-28T12:23:38Z</time>
      </trkpt>
      <trkpt lat="45.28177" lon="5.39074">
        <ele>658.9</ele>
        <time>2022-04-28T12:23:39Z</time>
      </trkpt>
      <trkpt lat="45.28178" lon="5.39078">
        <ele>659.1</ele>
        <time>2022-04-28T12:23:40Z</time>
      </trkpt>
      <trkpt lat="45.2818" lon="5.39083">
        <ele>659.3</ele>
        <time>2022-04-28T12:23:41Z</time>
      </trkpt>
      <trkpt lat="45.28181" lon="5.39086">
        <ele>659.5</ele>
        <time>2022-04-28T12:23:42Z</time>
      </trkpt>
      <trkpt lat="45.28183" lon="5.3909">
        <ele>659.7</ele>
        <time>2022-04-28T12:23:43Z</time>
      </trkpt>
      <trkpt lat="45.28184" lon="5.39094">
        <ele>659.8</ele>
        <time>2022-04-28T12:23:44Z</time>
      </trkpt>
      <trkpt lat="45.28186" lon="5.39098">
        <ele>660</ele>
        <time>2022-04-28T12:23:45Z</time>
      </trkpt>
      <trkpt lat="45.28188" lon="5.39103">
        <ele>660.3</ele>
        <time>2022-04-28T12:23:47Z</time>
      </trkpt>
      <trkpt lat="45.2819" lon="5.39108">
        <ele>660.5</ele>
        <time>2022-04-28T12:23:48Z</time>
      </trkpt>
      <trkpt lat="45.28192" lon="5.39112">
        <ele>660.7</ele>
        <time>2022-04-28T12:23:49Z</time>
      </trkpt>
      <trkpt lat="45.28193" lon="5.39115">
        <ele>660.9</ele>
        <time>2022-04-28T12:23:50Z</time>
      </trkpt>
      <trkpt lat="45.28195" lon="5.3912">
        <ele>661.1</ele>
        <time>2022-04-28T12:23:51Z</time>
      </trkpt>
      <trkpt lat="45.28197" lon="5.39125">
        <ele>661.4</ele>
        <time>2022-04-28T12:23:52Z</time>
      </trkpt>
      <trkpt lat="45.28198" lon="5.39127">
        <ele>661.5</ele>
        <time>2022-04-28T12:23:53Z</time>
      </trkpt>
      <trkpt lat="45.282" lon="5.39134">
        <ele>661.9</ele>
        <time>2022-04-28T12:23:55Z</time>
      </trkpt>
      <trkpt lat="45.28201" lon="5.39139">
        <ele>662.1</ele>
        <time>2022-04-28T12:23:56Z</time>
      </trkpt>
      <trkpt lat="45.28202" lon="5.39143">
        <ele>662.3</ele>
        <time>2022-04-28T12:23:57Z</time>
      </trkpt>
      <trkpt lat="45.28202" lon="5.39148">
        <ele>662.5</ele>
        <time>2022-04-28T12:23:58Z</time>
      </trkpt>
      <trkpt lat="45.28202" lon="5.39155">
        <ele>662.9</ele>
        <time>2022-04-28T12:24:00Z</time>
      </trkpt>
      <trkpt lat="45.28202" lon="5.3916">
        <ele>663.1</ele>
        <time>2022-04-28T12:24:01Z</time>
      </trkpt>
      <trkpt lat="45.28202" lon="5.39165">
        <ele>663.4</ele>
        <time>2022-04-28T12:24:02Z</time>
      </trkpt>
      <trkpt lat="45.28202" lon="5.3917">
        <ele>663.7</ele>
        <time>2022-04-28T12:24:03Z</time>
      </trkpt>
      <trkpt lat="45.28202" lon="5.39173">
        <ele>663.8</ele>
        <time>2022-04-28T12:24:04Z</time>
      </trkpt>
      <trkpt lat="45.28201" lon="5.39177">
        <ele>664</ele>
        <time>2022-04-28T12:24:05Z</time>
      </trkpt>
      <trkpt lat="45.28199" lon="5.39184">
        <ele>664.4</ele>
        <time>2022-04-28T12:24:07Z</time>
      </trkpt>
      <trkpt lat="45.28197" lon="5.39187">
        <ele>664.7</ele>
        <time>2022-04-28T12:24:08Z</time>
      </trkpt>
      <trkpt lat="45.28194" lon="5.3919">
        <ele>664.9</ele>
        <time>2022-04-28T12:24:09Z</time>
      </trkpt>
      <trkpt lat="45.28193" lon="5.39191">
        <ele>665</ele>
        <time>2022-04-28T12:24:10Z</time>
      </trkpt>
      <trkpt lat="45.2819" lon="5.39192">
        <ele>665.2</ele>
        <time>2022-04-28T12:24:11Z</time>
      </trkpt>
      <trkpt lat="45.28186" lon="5.39192">
        <ele>665.4</ele>
        <time>2022-04-28T12:24:12Z</time>
      </trkpt>
      <trkpt lat="45.28184" lon="5.39192">
        <ele>665.5</ele>
        <time>2022-04-28T12:24:13Z</time>
      </trkpt>
      <trkpt lat="45.28181" lon="5.39192">
        <ele>665.6</ele>
        <time>2022-04-28T12:24:14Z</time>
      </trkpt>
      <trkpt lat="45.28178" lon="5.39192">
        <ele>665.8</ele>
        <time>2022-04-28T12:24:15Z</time>
      </trkpt>
      <trkpt lat="45.28177" lon="5.39191">
        <ele>665.9</ele>
        <time>2022-04-28T12:24:16Z</time>
      </trkpt>
      <trkpt lat="45.28173" lon="5.39191">
        <ele>666.1</ele>
        <time>2022-04-28T12:24:17Z</time>
      </trkpt>
      <trkpt lat="45.28172" lon="5.39191">
        <ele>666.2</ele>
        <time>2022-04-28T12:24:18Z</time>
      </trkpt>
      <trkpt lat="45.28168" lon="5.39192">
        <ele>666.4</ele>
        <time>2022-04-28T12:24:19Z</time>
      </trkpt>
      <trkpt lat="45.28166" lon="5.39192">
        <ele>666.5</ele>
        <time>2022-04-28T12:24:20Z</time>
      </trkpt>
      <trkpt lat="45.28163" lon="5.39191">
        <ele>666.7</ele>
        <time>2022-04-28T12:24:21Z</time>
      </trkpt>
      <trkpt lat="45.28162" lon="5.39191">
        <ele>666.7</ele>
        <time>2022-04-28T12:24:22Z</time>
      </trkpt>
      <trkpt lat="45.28158" lon="5.39191">
        <ele>667</ele>
        <time>2022-04-28T12:24:23Z</time>
      </trkpt>
      <trkpt lat="45.28156" lon="5.3919">
        <ele>667</ele>
        <time>2022-04-28T12:24:24Z</time>
      </trkpt>
      <trkpt lat="45.28153" lon="5.39189">
        <ele>667.2</ele>
        <time>2022-04-28T12:24:25Z</time>
      </trkpt>
      <trkpt lat="45.28152" lon="5.39189">
        <ele>667.3</ele>
        <time>2022-04-28T12:24:26Z</time>
      </trkpt>
      <trkpt lat="45.28148" lon="5.3919">
        <ele>667.5</ele>
        <time>2022-04-28T12:24:27Z</time>
      </trkpt>
      <trkpt lat="45.28147" lon="5.39191">
        <ele>667.6</ele>
        <time>2022-04-28T12:24:28Z</time>
      </trkpt>
      <trkpt lat="45.28143" lon="5.39191">
        <ele>667.8</ele>
        <time>2022-04-28T12:24:29Z</time>
      </trkpt>
      <trkpt lat="45.28142" lon="5.39191">
        <ele>667.9</ele>
        <time>2022-04-28T12:24:30Z</time>
      </trkpt>
      <trkpt lat="45.28139" lon="5.39191">
        <ele>668</ele>
        <time>2022-04-28T12:24:31Z</time>
      </trkpt>
      <trkpt lat="45.28135" lon="5.39192">
        <ele>668.3</ele>
        <time>2022-04-28T12:24:32Z</time>
      </trkpt>
      <trkpt lat="45.28133" lon="5.39193">
        <ele>668.4</ele>
        <time>2022-04-28T12:24:33Z</time>
      </trkpt>
      <trkpt lat="45.28131" lon="5.39194">
        <ele>668.5</ele>
        <time>2022-04-28T12:24:34Z</time>
      </trkpt>
      <trkpt lat="45.28128" lon="5.39195">
        <ele>668.7</ele>
        <time>2022-04-28T12:24:35Z</time>
      </trkpt>
      <trkpt lat="45.28125" lon="5.39196">
        <ele>668.9</ele>
        <time>2022-04-28T12:24:36Z</time>
      </trkpt>
      <trkpt lat="45.28122" lon="5.39196">
        <ele>669.1</ele>
        <time>2022-04-28T12:24:37Z</time>
      </trkpt>
      <trkpt lat="45.28119" lon="5.39198">
        <ele>669.2</ele>
        <time>2022-04-28T12:24:38Z</time>
      </trkpt>
      <trkpt lat="45.28117" lon="5.392">
        <ele>669.4</ele>
        <time>2022-04-28T12:24:39Z</time>
      </trkpt>
      <trkpt lat="45.28113" lon="5.39202">
        <ele>669.6</ele>
        <time>2022-04-28T12:24:40Z</time>
      </trkpt>
      <trkpt lat="45.28112" lon="5.39203">
        <ele>669.7</ele>
        <time>2022-04-28T12:24:41Z</time>
      </trkpt>
      <trkpt lat="45.2811" lon="5.39205">
        <ele>669.9</ele>
        <time>2022-04-28T12:24:42Z</time>
      </trkpt>
      <trkpt lat="45.28107" lon="5.39207">
        <ele>670</ele>
        <time>2022-04-28T12:24:43Z</time>
      </trkpt>
      <trkpt lat="45.28102" lon="5.39211">
        <ele>670.4</ele>
        <time>2022-04-28T12:24:45Z</time>
      </trkpt>
      <trkpt lat="45.281" lon="5.39214">
        <ele>670.5</ele>
        <time>2022-04-28T12:24:46Z</time>
      </trkpt>
      <trkpt lat="45.28097" lon="5.39216">
        <ele>670.7</ele>
        <time>2022-04-28T12:24:47Z</time>
      </trkpt>
      <trkpt lat="45.28095" lon="5.39219">
        <ele>670.9</ele>
        <time>2022-04-28T12:24:48Z</time>
      </trkpt>
      <trkpt lat="45.28091" lon="5.39223">
        <ele>671.2</ele>
        <time>2022-04-28T12:24:50Z</time>
      </trkpt>
      <trkpt lat="45.28088" lon="5.39229">
        <ele>671.5</ele>
        <time>2022-04-28T12:24:51Z</time>
      </trkpt>
      <trkpt lat="45.28085" lon="5.39232">
        <ele>671.7</ele>
        <time>2022-04-28T12:24:52Z</time>
      </trkpt>
      <trkpt lat="45.28083" lon="5.39236">
        <ele>671.8</ele>
        <time>2022-04-28T12:24:53Z</time>
      </trkpt>
      <trkpt lat="45.28082" lon="5.3924">
        <ele>672</ele>
        <time>2022-04-28T12:24:54Z</time>
      </trkpt>
      <trkpt lat="45.2808" lon="5.39243">
        <ele>672.1</ele>
        <time>2022-04-28T12:24:55Z</time>
      </trkpt>
      <trkpt lat="45.28078" lon="5.39246">
        <ele>672.3</ele>
        <time>2022-04-28T12:24:56Z</time>
      </trkpt>
      <trkpt lat="45.28077" lon="5.3925">
        <ele>672.4</ele>
        <time>2022-04-28T12:24:57Z</time>
      </trkpt>
      <trkpt lat="45.28075" lon="5.39254">
        <ele>672.6</ele>
        <time>2022-04-28T12:24:58Z</time>
      </trkpt>
      <trkpt lat="45.28072" lon="5.39257">
        <ele>672.8</ele>
        <time>2022-04-28T12:24:59Z</time>
      </trkpt>
      <trkpt lat="45.28071" lon="5.39261">
        <ele>672.9</ele>
        <time>2022-04-28T12:25:00Z</time>
      </trkpt>
      <trkpt lat="45.28069" lon="5.39267">
        <ele>673.1</ele>
        <time>2022-04-28T12:25:02Z</time>
      </trkpt>
      <trkpt lat="45.28069" lon="5.39271">
        <ele>673.3</ele>
        <time>2022-04-28T12:25:03Z</time>
      </trkpt>
      <trkpt lat="45.28068" lon="5.39278">
        <ele>673.5</ele>
        <time>2022-04-28T12:25:04Z</time>
      </trkpt>
      <trkpt lat="45.28068" lon="5.39283">
        <ele>673.7</ele>
        <time>2022-04-28T12:25:05Z</time>
      </trkpt>
      <trkpt lat="45.28067" lon="5.39288">
        <ele>673.9</ele>
        <time>2022-04-28T12:25:06Z</time>
      </trkpt>
      <trkpt lat="45.28066" lon="5.39292">
        <ele>674.1</ele>
        <time>2022-04-28T12:25:07Z</time>
      </trkpt>
      <trkpt lat="45.28065" lon="5.39297">
        <ele>674.2</ele>
        <time>2022-04-28T12:25:08Z</time>
      </trkpt>
      <trkpt lat="45.28064" lon="5.39301">
        <ele>674.4</ele>
        <time>2022-04-28T12:25:09Z</time>
      </trkpt>
      <trkpt lat="45.28063" lon="5.39306">
        <ele>674.6</ele>
        <time>2022-04-28T12:25:10Z</time>
      </trkpt>
      <trkpt lat="45.28062" lon="5.39311">
        <ele>674.7</ele>
        <time>2022-04-28T12:25:11Z</time>
      </trkpt>
      <trkpt lat="45.28061" lon="5.39315">
        <ele>674.9</ele>
        <time>2022-04-28T12:25:12Z</time>
      </trkpt>
      <trkpt lat="45.28061" lon="5.3932">
        <ele>675.1</ele>
        <time>2022-04-28T12:25:13Z</time>
      </trkpt>
      <trkpt lat="45.28059" lon="5.39328">
        <ele>675.4</ele>
        <time>2022-04-28T12:25:15Z</time>
      </trkpt>
      <trkpt lat="45.28057" lon="5.39333">
        <ele>675.5</ele>
        <time>2022-04-28T12:25:16Z</time>
      </trkpt>
      <trkpt lat="45.28056" lon="5.39338">
        <ele>675.7</ele>
        <time>2022-04-28T12:25:17Z</time>
      </trkpt>
      <trkpt lat="45.28056" lon="5.39345">
        <ele>676</ele>
        <time>2022-04-28T12:25:19Z</time>
      </trkpt>
      <trkpt lat="45.28057" lon="5.39351">
        <ele>676.2</ele>
        <time>2022-04-28T12:25:20Z</time>
      </trkpt>
      <trkpt lat="45.28058" lon="5.39355">
        <ele>676.4</ele>
        <time>2022-04-28T12:25:21Z</time>
      </trkpt>
      <trkpt lat="45.28059" lon="5.3936">
        <ele>676.5</ele>
        <time>2022-04-28T12:25:22Z</time>
      </trkpt>
      <trkpt lat="45.2806" lon="5.39364">
        <ele>676.7</ele>
        <time>2022-04-28T12:25:23Z</time>
      </trkpt>
      <trkpt lat="45.28061" lon="5.39367">
        <ele>676.9</ele>
        <time>2022-04-28T12:25:24Z</time>
      </trkpt>
      <trkpt lat="45.28062" lon="5.39372">
        <ele>677</ele>
        <time>2022-04-28T12:25:25Z</time>
      </trkpt>
      <trkpt lat="45.28064" lon="5.39375">
        <ele>677.2</ele>
        <time>2022-04-28T12:25:26Z</time>
      </trkpt>
      <trkpt lat="45.28066" lon="5.39378">
        <ele>677.4</ele>
        <time>2022-04-28T12:25:27Z</time>
      </trkpt>
      <trkpt lat="45.28068" lon="5.39382">
        <ele>677.6</ele>
        <time>2022-04-28T12:25:28Z</time>
      </trkpt>
      <trkpt lat="45.2807" lon="5.39386">
        <ele>677.7</ele>
        <time>2022-04-28T12:25:29Z</time>
      </trkpt>
      <trkpt lat="45.28072" lon="5.39389">
        <ele>677.9</ele>
        <time>2022-04-28T12:25:30Z</time>
      </trkpt>
      <trkpt lat="45.28074" lon="5.39392">
        <ele>678.1</ele>
        <time>2022-04-28T12:25:31Z</time>
      </trkpt>
      <trkpt lat="45.28076" lon="5.39395">
        <ele>678.2</ele>
        <time>2022-04-28T12:25:32Z</time>
      </trkpt>
      <trkpt lat="45.28077" lon="5.39398">
        <ele>678.4</ele>
        <time>2022-04-28T12:25:33Z</time>
      </trkpt>
      <trkpt lat="45.28079" lon="5.39401">
        <ele>678.5</ele>
        <time>2022-04-28T12:25:34Z</time>
      </trkpt>
      <trkpt lat="45.28082" lon="5.39405">
        <ele>678.7</ele>
        <time>2022-04-28T12:25:35Z</time>
      </trkpt>
      <trkpt lat="45.28083" lon="5.39408">
        <ele>678.9</ele>
        <time>2022-04-28T12:25:36Z</time>
      </trkpt>
      <trkpt lat="45.28086" lon="5.39413">
        <ele>679.1</ele>
        <time>2022-04-28T12:25:37Z</time>
      </trkpt>
      <trkpt lat="45.28087" lon="5.39414">
        <ele>679.2</ele>
        <time>2022-04-28T12:25:38Z</time>
      </trkpt>
      <trkpt lat="45.28089" lon="5.39418">
        <ele>679.4</ele>
        <time>2022-04-28T12:25:39Z</time>
      </trkpt>
      <trkpt lat="45.28091" lon="5.39421">
        <ele>679.6</ele>
        <time>2022-04-28T12:25:40Z</time>
      </trkpt>
      <trkpt lat="45.28093" lon="5.39425">
        <ele>679.7</ele>
        <time>2022-04-28T12:25:41Z</time>
      </trkpt>
      <trkpt lat="45.28095" lon="5.39429">
        <ele>679.9</ele>
        <time>2022-04-28T12:25:42Z</time>
      </trkpt>
      <trkpt lat="45.28097" lon="5.39432">
        <ele>680.1</ele>
        <time>2022-04-28T12:25:43Z</time>
      </trkpt>
      <trkpt lat="45.28099" lon="5.39435">
        <ele>680.3</ele>
        <time>2022-04-28T12:25:44Z</time>
      </trkpt>
      <trkpt lat="45.28101" lon="5.39439">
        <ele>680.4</ele>
        <time>2022-04-28T12:25:45Z</time>
      </trkpt>
      <trkpt lat="45.28103" lon="5.39442">
        <ele>680.6</ele>
        <time>2022-04-28T12:25:46Z</time>
      </trkpt>
      <trkpt lat="45.28105" lon="5.39446">
        <ele>680.8</ele>
        <time>2022-04-28T12:25:47Z</time>
      </trkpt>
      <trkpt lat="45.28107" lon="5.39449">
        <ele>681</ele>
        <time>2022-04-28T12:25:48Z</time>
      </trkpt>
      <trkpt lat="45.28108" lon="5.39453">
        <ele>681.1</ele>
        <time>2022-04-28T12:25:49Z</time>
      </trkpt>
      <trkpt lat="45.2811" lon="5.39456">
        <ele>681.3</ele>
        <time>2022-04-28T12:25:50Z</time>
      </trkpt>
      <trkpt lat="45.28112" lon="5.39459">
        <ele>681.5</ele>
        <time>2022-04-28T12:25:51Z</time>
      </trkpt>
      <trkpt lat="45.28114" lon="5.39462">
        <ele>681.6</ele>
        <time>2022-04-28T12:25:52Z</time>
      </trkpt>
      <trkpt lat="45.28116" lon="5.39466">
        <ele>681.8</ele>
        <time>2022-04-28T12:25:53Z</time>
      </trkpt>
      <trkpt lat="45.28117" lon="5.39469">
        <ele>681.9</ele>
        <time>2022-04-28T12:25:54Z</time>
      </trkpt>
      <trkpt lat="45.28118" lon="5.39473">
        <ele>682.1</ele>
        <time>2022-04-28T12:25:55Z</time>
      </trkpt>
      <trkpt lat="45.28119" lon="5.39477">
        <ele>682.2</ele>
        <time>2022-04-28T12:25:56Z</time>
      </trkpt>
      <trkpt lat="45.2812" lon="5.39482">
        <ele>682.4</ele>
        <time>2022-04-28T12:25:57Z</time>
      </trkpt>
      <trkpt lat="45.28119" lon="5.3949">
        <ele>682.7</ele>
        <time>2022-04-28T12:25:59Z</time>
      </trkpt>
      <trkpt lat="45.28116" lon="5.39495">
        <ele>682.9</ele>
        <time>2022-04-28T12:26:00Z</time>
      </trkpt>
      <trkpt lat="45.28114" lon="5.39498">
        <ele>683.1</ele>
        <time>2022-04-28T12:26:01Z</time>
      </trkpt>
      <trkpt lat="45.28108" lon="5.39503">
        <ele>683.4</ele>
        <time>2022-04-28T12:26:03Z</time>
      </trkpt>
      <trkpt lat="45.28104" lon="5.39503">
        <ele>683.6</ele>
        <time>2022-04-28T12:26:04Z</time>
      </trkpt>
      <trkpt lat="45.28101" lon="5.39502">
        <ele>683.8</ele>
        <time>2022-04-28T12:26:05Z</time>
      </trkpt>
      <trkpt lat="45.28096" lon="5.39497">
        <ele>684</ele>
        <time>2022-04-28T12:26:07Z</time>
      </trkpt>
      <trkpt lat="45.28093" lon="5.39493">
        <ele>684.2</ele>
        <time>2022-04-28T12:26:08Z</time>
      </trkpt>
      <trkpt lat="45.28091" lon="5.39488">
        <ele>684.4</ele>
        <time>2022-04-28T12:26:09Z</time>
      </trkpt>
      <trkpt lat="45.28088" lon="5.39483">
        <ele>684.6</ele>
        <time>2022-04-28T12:26:10Z</time>
      </trkpt>
      <trkpt lat="45.28086" lon="5.39478">
        <ele>684.8</ele>
        <time>2022-04-28T12:26:11Z</time>
      </trkpt>
      <trkpt lat="45.28084" lon="5.39473">
        <ele>685</ele>
        <time>2022-04-28T12:26:12Z</time>
      </trkpt>
      <trkpt lat="45.28082" lon="5.39469">
        <ele>685.1</ele>
        <time>2022-04-28T12:26:13Z</time>
      </trkpt>
      <trkpt lat="45.2808" lon="5.39465">
        <ele>685.3</ele>
        <time>2022-04-28T12:26:14Z</time>
      </trkpt>
      <trkpt lat="45.28077" lon="5.39461">
        <ele>685.4</ele>
        <time>2022-04-28T12:26:15Z</time>
      </trkpt>
      <trkpt lat="45.28075" lon="5.39457">
        <ele>685.6</ele>
        <time>2022-04-28T12:26:16Z</time>
      </trkpt>
      <trkpt lat="45.28073" lon="5.39453">
        <ele>685.8</ele>
        <time>2022-04-28T12:26:17Z</time>
      </trkpt>
      <trkpt lat="45.28071" lon="5.39449">
        <ele>685.9</ele>
        <time>2022-04-28T12:26:18Z</time>
      </trkpt>
      <trkpt lat="45.28068" lon="5.39445">
        <ele>686</ele>
        <time>2022-04-28T12:26:19Z</time>
      </trkpt>
      <trkpt lat="45.28066" lon="5.39442">
        <ele>686.2</ele>
        <time>2022-04-28T12:26:20Z</time>
      </trkpt>
      <trkpt lat="45.28064" lon="5.39438">
        <ele>686.3</ele>
        <time>2022-04-28T12:26:21Z</time>
      </trkpt>
      <trkpt lat="45.28062" lon="5.39434">
        <ele>686.4</ele>
        <time>2022-04-28T12:26:22Z</time>
      </trkpt>
      <trkpt lat="45.28059" lon="5.3943">
        <ele>686.5</ele>
        <time>2022-04-28T12:26:23Z</time>
      </trkpt>
      <trkpt lat="45.28057" lon="5.39426">
        <ele>686.7</ele>
        <time>2022-04-28T12:26:24Z</time>
      </trkpt>
      <trkpt lat="45.28055" lon="5.39423">
        <ele>686.8</ele>
        <time>2022-04-28T12:26:25Z</time>
      </trkpt>
      <trkpt lat="45.28052" lon="5.39417">
        <ele>686.9</ele>
        <time>2022-04-28T12:26:27Z</time>
      </trkpt>
      <trkpt lat="45.28048" lon="5.39411">
        <ele>687.1</ele>
        <time>2022-04-28T12:26:28Z</time>
      </trkpt>
      <trkpt lat="45.28046" lon="5.39408">
        <ele>687.2</ele>
        <time>2022-04-28T12:26:29Z</time>
      </trkpt>
      <trkpt lat="45.28043" lon="5.39404">
        <ele>687.3</ele>
        <time>2022-04-28T12:26:31Z</time>
      </trkpt>
      <trkpt lat="45.28039" lon="5.39397">
        <ele>687.5</ele>
        <time>2022-04-28T12:26:32Z</time>
      </trkpt>
      <trkpt lat="45.28037" lon="5.39391">
        <ele>687.7</ele>
        <time>2022-04-28T12:26:34Z</time>
      </trkpt>
      <trkpt lat="45.28034" lon="5.39386">
        <ele>687.8</ele>
        <time>2022-04-28T12:26:35Z</time>
      </trkpt>
      <trkpt lat="45.28031" lon="5.3938">
        <ele>688</ele>
        <time>2022-04-28T12:26:36Z</time>
      </trkpt>
      <trkpt lat="45.28029" lon="5.39374">
        <ele>688.1</ele>
        <time>2022-04-28T12:26:37Z</time>
      </trkpt>
      <trkpt lat="45.28026" lon="5.39367">
        <ele>688.3</ele>
        <time>2022-04-28T12:26:39Z</time>
      </trkpt>
      <trkpt lat="45.28025" lon="5.39361">
        <ele>688.5</ele>
        <time>2022-04-28T12:26:40Z</time>
      </trkpt>
      <trkpt lat="45.28022" lon="5.39355">
        <ele>688.6</ele>
        <time>2022-04-28T12:26:41Z</time>
      </trkpt>
      <trkpt lat="45.28019" lon="5.39348">
        <ele>688.8</ele>
        <time>2022-04-28T12:26:42Z</time>
      </trkpt>
      <trkpt lat="45.28018" lon="5.39342">
        <ele>689</ele>
        <time>2022-04-28T12:26:43Z</time>
      </trkpt>
      <trkpt lat="45.28016" lon="5.39337">
        <ele>689.1</ele>
        <time>2022-04-28T12:26:44Z</time>
      </trkpt>
      <trkpt lat="45.28014" lon="5.39332">
        <ele>689.2</ele>
        <time>2022-04-28T12:26:45Z</time>
      </trkpt>
      <trkpt lat="45.28013" lon="5.39327">
        <ele>689.4</ele>
        <time>2022-04-28T12:26:46Z</time>
      </trkpt>
      <trkpt lat="45.28011" lon="5.39321">
        <ele>689.5</ele>
        <time>2022-04-28T12:26:47Z</time>
      </trkpt>
      <trkpt lat="45.28009" lon="5.39316">
        <ele>689.6</ele>
        <time>2022-04-28T12:26:48Z</time>
      </trkpt>
      <trkpt lat="45.28008" lon="5.3931">
        <ele>689.8</ele>
        <time>2022-04-28T12:26:49Z</time>
      </trkpt>
      <trkpt lat="45.28007" lon="5.39303">
        <ele>689.9</ele>
        <time>2022-04-28T12:26:50Z</time>
      </trkpt>
      <trkpt lat="45.28005" lon="5.39298">
        <ele>690.1</ele>
        <time>2022-04-28T12:26:51Z</time>
      </trkpt>
      <trkpt lat="45.28005" lon="5.39292">
        <ele>690.2</ele>
        <time>2022-04-28T12:26:52Z</time>
      </trkpt>
      <trkpt lat="45.28004" lon="5.39287">
        <ele>690.3</ele>
        <time>2022-04-28T12:26:53Z</time>
      </trkpt>
      <trkpt lat="45.28003" lon="5.39282">
        <ele>690.4</ele>
        <time>2022-04-28T12:26:54Z</time>
      </trkpt>
      <trkpt lat="45.28002" lon="5.39276">
        <ele>690.5</ele>
        <time>2022-04-28T12:26:55Z</time>
      </trkpt>
      <trkpt lat="45.28001" lon="5.3927">
        <ele>690.7</ele>
        <time>2022-04-28T12:26:56Z</time>
      </trkpt>
      <trkpt lat="45.28" lon="5.39264">
        <ele>690.8</ele>
        <time>2022-04-28T12:26:57Z</time>
      </trkpt>
      <trkpt lat="45.27999" lon="5.39258">
        <ele>691</ele>
        <time>2022-04-28T12:26:58Z</time>
      </trkpt>
      <trkpt lat="45.27999" lon="5.39253">
        <ele>691.1</ele>
        <time>2022-04-28T12:26:59Z</time>
      </trkpt>
      <trkpt lat="45.27998" lon="5.39248">
        <ele>691.3</ele>
        <time>2022-04-28T12:27:00Z</time>
      </trkpt>
      <trkpt lat="45.27997" lon="5.39242">
        <ele>691.4</ele>
        <time>2022-04-28T12:27:01Z</time>
      </trkpt>
      <trkpt lat="45.27997" lon="5.39236">
        <ele>691.5</ele>
        <time>2022-04-28T12:27:02Z</time>
      </trkpt>
      <trkpt lat="45.27996" lon="5.39231">
        <ele>691.7</ele>
        <time>2022-04-28T12:27:03Z</time>
      </trkpt>
      <trkpt lat="45.27996" lon="5.39225">
        <ele>691.9</ele>
        <time>2022-04-28T12:27:04Z</time>
      </trkpt>
      <trkpt lat="45.27996" lon="5.39218">
        <ele>692.1</ele>
        <time>2022-04-28T12:27:06Z</time>
      </trkpt>
      <trkpt lat="45.27995" lon="5.39212">
        <ele>692.2</ele>
        <time>2022-04-28T12:27:07Z</time>
      </trkpt>
      <trkpt lat="45.27994" lon="5.39204">
        <ele>692.5</ele>
        <time>2022-04-28T12:27:08Z</time>
      </trkpt>
      <trkpt lat="45.27993" lon="5.39197">
        <ele>692.7</ele>
        <time>2022-04-28T12:27:09Z</time>
      </trkpt>
      <trkpt lat="45.27992" lon="5.39191">
        <ele>692.9</ele>
        <time>2022-04-28T12:27:10Z</time>
      </trkpt>
      <trkpt lat="45.27991" lon="5.39184">
        <ele>693</ele>
        <time>2022-04-28T12:27:11Z</time>
      </trkpt>
      <trkpt lat="45.2799" lon="5.39175">
        <ele>693.3</ele>
        <time>2022-04-28T12:27:13Z</time>
      </trkpt>
      <trkpt lat="45.27989" lon="5.39169">
        <ele>693.5</ele>
        <time>2022-04-28T12:27:14Z</time>
      </trkpt>
      <trkpt lat="45.27988" lon="5.39161">
        <ele>693.7</ele>
        <time>2022-04-28T12:27:15Z</time>
      </trkpt>
      <trkpt lat="45.27987" lon="5.39155">
        <ele>693.9</ele>
        <time>2022-04-28T12:27:16Z</time>
      </trkpt>
      <trkpt lat="45.27986" lon="5.39149">
        <ele>694</ele>
        <time>2022-04-28T12:27:17Z</time>
      </trkpt>
      <trkpt lat="45.27985" lon="5.39144">
        <ele>694.2</ele>
        <time>2022-04-28T12:27:18Z</time>
      </trkpt>
      <trkpt lat="45.27984" lon="5.39138">
        <ele>694.3</ele>
        <time>2022-04-28T12:27:19Z</time>
      </trkpt>
      <trkpt lat="45.27982" lon="5.39131">
        <ele>694.5</ele>
        <time>2022-04-28T12:27:21Z</time>
      </trkpt>
      <trkpt lat="45.27981" lon="5.39125">
        <ele>694.7</ele>
        <time>2022-04-28T12:27:22Z</time>
      </trkpt>
      <trkpt lat="45.27979" lon="5.3912">
        <ele>694.8</ele>
        <time>2022-04-28T12:27:23Z</time>
      </trkpt>
      <trkpt lat="45.27977" lon="5.39116">
        <ele>694.9</ele>
        <time>2022-04-28T12:27:24Z</time>
      </trkpt>
      <trkpt lat="45.27976" lon="5.39113">
        <ele>694.9</ele>
        <time>2022-04-28T12:27:25Z</time>
      </trkpt>
      <trkpt lat="45.27973" lon="5.3911">
        <ele>694.9</ele>
        <time>2022-04-28T12:27:26Z</time>
      </trkpt>
      <trkpt lat="45.27972" lon="5.3911">
        <ele>694.8</ele>
        <time>2022-04-28T12:27:27Z</time>
      </trkpt>
      <trkpt lat="45.27971" lon="5.39108">
        <ele>694.8</ele>
        <time>2022-04-28T12:27:29Z</time>
      </trkpt>
      <trkpt lat="45.2797" lon="5.39108">
        <ele>694.8</ele>
        <time>2022-04-28T12:27:30Z</time>
      </trkpt>
      <trkpt lat="45.27969" lon="5.39108">
        <ele>694.7</ele>
        <time>2022-04-28T12:27:31Z</time>
      </trkpt>
      <trkpt lat="45.27969" lon="5.39108">
        <ele>694.7</ele>
        <time>2022-04-28T12:27:32Z</time>
      </trkpt>
      <trkpt lat="45.27968" lon="5.39108">
        <ele>694.7</ele>
        <time>2022-04-28T12:27:33Z</time>
      </trkpt>
      <trkpt lat="45.27968" lon="5.39108">
        <ele>694.7</ele>
        <time>2022-04-28T12:27:34Z</time>
      </trkpt>
      <trkpt lat="45.27968" lon="5.39108">
        <ele>694.7</ele>
        <time>2022-04-28T12:27:35Z</time>
      </trkpt>
      <trkpt lat="45.27967" lon="5.39108">
        <ele>694.7</ele>
        <time>2022-04-28T12:27:36Z</time>
      </trkpt>
      <trkpt lat="45.27967" lon="5.39108">
        <ele>694.7</ele>
        <time>2022-04-28T12:27:37Z</time>
      </trkpt>
      <trkpt lat="45.27966" lon="5.39108">
        <ele>694.7</ele>
        <time>2022-04-28T12:27:38Z</time>
      </trkpt>
      <trkpt lat="45.27966" lon="5.39108">
        <ele>694.7</ele>
        <time>2022-04-28T12:27:39Z</time>
      </trkpt>
      <trkpt lat="45.27966" lon="5.39108">
        <ele>694.7</ele>
        <time>2022-04-28T12:27:41Z</time>
      </trkpt>
      <trkpt lat="45.27965" lon="5.39108">
        <ele>694.7</ele>
        <time>2022-04-28T12:31:19Z</time>
      </trkpt>
      <trkpt lat="45.27965" lon="5.39108">
        <ele>694.7</ele>
        <time>2022-04-28T12:31:20Z</time>
      </trkpt>
      <trkpt lat="45.27965" lon="5.39108">
        <ele>694.6</ele>
        <time>2022-04-28T12:31:21Z</time>
      </trkpt>
      <trkpt lat="45.27962" lon="5.39105">
        <ele>694.5</ele>
        <time>2022-04-28T12:31:22Z</time>
      </trkpt>
      <trkpt lat="45.27961" lon="5.39104">
        <ele>694.5</ele>
        <time>2022-04-28T12:31:23Z</time>
      </trkpt>
      <trkpt lat="45.27958" lon="5.39101">
        <ele>694.4</ele>
        <time>2022-04-28T12:31:24Z</time>
      </trkpt>
      <trkpt lat="45.27955" lon="5.39099">
        <ele>694.3</ele>
        <time>2022-04-28T12:31:25Z</time>
      </trkpt>
      <trkpt lat="45.27952" lon="5.39096">
        <ele>694.2</ele>
        <time>2022-04-28T12:31:26Z</time>
      </trkpt>
      <trkpt lat="45.27947" lon="5.39093">
        <ele>693.9</ele>
        <time>2022-04-28T12:31:27Z</time>
      </trkpt>
      <trkpt lat="45.27943" lon="5.39089">
        <ele>693.6</ele>
        <time>2022-04-28T12:31:28Z</time>
      </trkpt>
      <trkpt lat="45.27939" lon="5.39084">
        <ele>693.4</ele>
        <time>2022-04-28T12:31:29Z</time>
      </trkpt>
      <trkpt lat="45.27935" lon="5.39079">
        <ele>693.1</ele>
        <time>2022-04-28T12:31:30Z</time>
      </trkpt>
      <trkpt lat="45.27931" lon="5.39073">
        <ele>692.8</ele>
        <time>2022-04-28T12:31:31Z</time>
      </trkpt>
      <trkpt lat="45.27926" lon="5.39066">
        <ele>692.4</ele>
        <time>2022-04-28T12:31:32Z</time>
      </trkpt>
      <trkpt lat="45.27922" lon="5.39059">
        <ele>692.1</ele>
        <time>2022-04-28T12:31:33Z</time>
      </trkpt>
      <trkpt lat="45.27918" lon="5.39051">
        <ele>691.7</ele>
        <time>2022-04-28T12:31:34Z</time>
      </trkpt>
      <trkpt lat="45.27913" lon="5.39044">
        <ele>691.3</ele>
        <time>2022-04-28T12:31:35Z</time>
      </trkpt>
      <trkpt lat="45.27908" lon="5.39036">
        <ele>690.9</ele>
        <time>2022-04-28T12:31:36Z</time>
      </trkpt>
      <trkpt lat="45.27903" lon="5.39027">
        <ele>690.5</ele>
        <time>2022-04-28T12:31:37Z</time>
      </trkpt>
      <trkpt lat="45.27898" lon="5.39019">
        <ele>690</ele>
        <time>2022-04-28T12:31:38Z</time>
      </trkpt>
      <trkpt lat="45.27892" lon="5.39011">
        <ele>689.5</ele>
        <time>2022-04-28T12:31:39Z</time>
      </trkpt>
      <trkpt lat="45.27886" lon="5.39003">
        <ele>689</ele>
        <time>2022-04-28T12:31:40Z</time>
      </trkpt>
      <trkpt lat="45.27881" lon="5.38993">
        <ele>688.4</ele>
        <time>2022-04-28T12:31:41Z</time>
      </trkpt>
      <trkpt lat="45.27876" lon="5.38984">
        <ele>687.8</ele>
        <time>2022-04-28T12:31:42Z</time>
      </trkpt>
      <trkpt lat="45.2787" lon="5.38974">
        <ele>687.2</ele>
        <time>2022-04-28T12:31:43Z</time>
      </trkpt>
      <trkpt lat="45.27865" lon="5.38964">
        <ele>686.6</ele>
        <time>2022-04-28T12:31:44Z</time>
      </trkpt>
      <trkpt lat="45.27859" lon="5.38954">
        <ele>686</ele>
        <time>2022-04-28T12:31:45Z</time>
      </trkpt>
      <trkpt lat="45.27854" lon="5.38943">
        <ele>685.4</ele>
        <time>2022-04-28T12:31:46Z</time>
      </trkpt>
      <trkpt lat="45.27848" lon="5.38932">
        <ele>684.8</ele>
        <time>2022-04-28T12:31:47Z</time>
      </trkpt>
      <trkpt lat="45.27842" lon="5.3892">
        <ele>684.1</ele>
        <time>2022-04-28T12:31:48Z</time>
      </trkpt>
      <trkpt lat="45.27837" lon="5.38909">
        <ele>683.5</ele>
        <time>2022-04-28T12:31:49Z</time>
      </trkpt>
      <trkpt lat="45.27831" lon="5.38898">
        <ele>682.9</ele>
        <time>2022-04-28T12:31:50Z</time>
      </trkpt>
      <trkpt lat="45.27827" lon="5.38885">
        <ele>682.3</ele>
        <time>2022-04-28T12:31:51Z</time>
      </trkpt>
      <trkpt lat="45.27823" lon="5.38874">
        <ele>681.8</ele>
        <time>2022-04-28T12:31:52Z</time>
      </trkpt>
      <trkpt lat="45.2782" lon="5.38862">
        <ele>681.2</ele>
        <time>2022-04-28T12:31:53Z</time>
      </trkpt>
      <trkpt lat="45.27817" lon="5.38851">
        <ele>680.7</ele>
        <time>2022-04-28T12:31:54Z</time>
      </trkpt>
      <trkpt lat="45.27815" lon="5.38839">
        <ele>680.2</ele>
        <time>2022-04-28T12:31:55Z</time>
      </trkpt>
      <trkpt lat="45.27814" lon="5.38826">
        <ele>679.6</ele>
        <time>2022-04-28T12:31:56Z</time>
      </trkpt>
      <trkpt lat="45.27814" lon="5.38813">
        <ele>679</ele>
        <time>2022-04-28T12:31:57Z</time>
      </trkpt>
      <trkpt lat="45.27813" lon="5.388">
        <ele>678.4</ele>
        <time>2022-04-28T12:31:58Z</time>
      </trkpt>
      <trkpt lat="45.27812" lon="5.38787">
        <ele>677.8</ele>
        <time>2022-04-28T12:31:59Z</time>
      </trkpt>
      <trkpt lat="45.27812" lon="5.38773">
        <ele>677.2</ele>
        <time>2022-04-28T12:32:00Z</time>
      </trkpt>
      <trkpt lat="45.27811" lon="5.38758">
        <ele>676.6</ele>
        <time>2022-04-28T12:32:01Z</time>
      </trkpt>
      <trkpt lat="45.27811" lon="5.38745">
        <ele>676</ele>
        <time>2022-04-28T12:32:02Z</time>
      </trkpt>
      <trkpt lat="45.27811" lon="5.38731">
        <ele>675.4</ele>
        <time>2022-04-28T12:32:03Z</time>
      </trkpt>
      <trkpt lat="45.27811" lon="5.38716">
        <ele>674.7</ele>
        <time>2022-04-28T12:32:04Z</time>
      </trkpt>
      <trkpt lat="45.27811" lon="5.38701">
        <ele>674.1</ele>
        <time>2022-04-28T12:32:05Z</time>
      </trkpt>
      <trkpt lat="45.27811" lon="5.38686">
        <ele>673.4</ele>
        <time>2022-04-28T12:32:06Z</time>
      </trkpt>
      <trkpt lat="45.2781" lon="5.38671">
        <ele>672.8</ele>
        <time>2022-04-28T12:32:07Z</time>
      </trkpt>
      <trkpt lat="45.27809" lon="5.38656">
        <ele>672.1</ele>
        <time>2022-04-28T12:32:08Z</time>
      </trkpt>
      <trkpt lat="45.27809" lon="5.38641">
        <ele>671.4</ele>
        <time>2022-04-28T12:32:09Z</time>
      </trkpt>
      <trkpt lat="45.27808" lon="5.38627">
        <ele>670.7</ele>
        <time>2022-04-28T12:32:10Z</time>
      </trkpt>
      <trkpt lat="45.27807" lon="5.38611">
        <ele>670</ele>
        <time>2022-04-28T12:32:11Z</time>
      </trkpt>
      <trkpt lat="45.27807" lon="5.38596">
        <ele>669.3</ele>
        <time>2022-04-28T12:32:12Z</time>
      </trkpt>
      <trkpt lat="45.27806" lon="5.38581">
        <ele>668.6</ele>
        <time>2022-04-28T12:32:13Z</time>
      </trkpt>
      <trkpt lat="45.27806" lon="5.38566">
        <ele>667.9</ele>
        <time>2022-04-28T12:32:14Z</time>
      </trkpt>
      <trkpt lat="45.27806" lon="5.3855">
        <ele>667.1</ele>
        <time>2022-04-28T12:32:15Z</time>
      </trkpt>
      <trkpt lat="45.27805" lon="5.38536">
        <ele>666.5</ele>
        <time>2022-04-28T12:32:16Z</time>
      </trkpt>
      <trkpt lat="45.27805" lon="5.3852">
        <ele>665.8</ele>
        <time>2022-04-28T12:32:17Z</time>
      </trkpt>
      <trkpt lat="45.27804" lon="5.38505">
        <ele>665</ele>
        <time>2022-04-28T12:32:18Z</time>
      </trkpt>
      <trkpt lat="45.27804" lon="5.3849">
        <ele>664.3</ele>
        <time>2022-04-28T12:32:19Z</time>
      </trkpt>
      <trkpt lat="45.27804" lon="5.38475">
        <ele>663.5</ele>
        <time>2022-04-28T12:32:20Z</time>
      </trkpt>
      <trkpt lat="45.27804" lon="5.38459">
        <ele>662.8</ele>
        <time>2022-04-28T12:32:21Z</time>
      </trkpt>
      <trkpt lat="45.27804" lon="5.38444">
        <ele>662.1</ele>
        <time>2022-04-28T12:32:22Z</time>
      </trkpt>
      <trkpt lat="45.27805" lon="5.38428">
        <ele>661.3</ele>
        <time>2022-04-28T12:32:23Z</time>
      </trkpt>
      <trkpt lat="45.27805" lon="5.38412">
        <ele>660.6</ele>
        <time>2022-04-28T12:32:24Z</time>
      </trkpt>
      <trkpt lat="45.27805" lon="5.38397">
        <ele>659.9</ele>
        <time>2022-04-28T12:32:25Z</time>
      </trkpt>
      <trkpt lat="45.27805" lon="5.38381">
        <ele>659.2</ele>
        <time>2022-04-28T12:32:26Z</time>
      </trkpt>
      <trkpt lat="45.27804" lon="5.38365">
        <ele>658.5</ele>
        <time>2022-04-28T12:32:27Z</time>
      </trkpt>
      <trkpt lat="45.27803" lon="5.38348">
        <ele>657.8</ele>
        <time>2022-04-28T12:32:28Z</time>
      </trkpt>
      <trkpt lat="45.27801" lon="5.38333">
        <ele>657.1</ele>
        <time>2022-04-28T12:32:29Z</time>
      </trkpt>
      <trkpt lat="45.27799" lon="5.38317">
        <ele>656.4</ele>
        <time>2022-04-28T12:32:30Z</time>
      </trkpt>
      <trkpt lat="45.27797" lon="5.38302">
        <ele>655.7</ele>
        <time>2022-04-28T12:32:31Z</time>
      </trkpt>
      <trkpt lat="45.27794" lon="5.38288">
        <ele>655.1</ele>
        <time>2022-04-28T12:32:32Z</time>
      </trkpt>
      <trkpt lat="45.27791" lon="5.38275">
        <ele>654.5</ele>
        <time>2022-04-28T12:32:33Z</time>
      </trkpt>
      <trkpt lat="45.27789" lon="5.38262">
        <ele>653.9</ele>
        <time>2022-04-28T12:32:34Z</time>
      </trkpt>
      <trkpt lat="45.27786" lon="5.38249">
        <ele>653.3</ele>
        <time>2022-04-28T12:32:35Z</time>
      </trkpt>
      <trkpt lat="45.27783" lon="5.38237">
        <ele>652.7</ele>
        <time>2022-04-28T12:32:36Z</time>
      </trkpt>
      <trkpt lat="45.27779" lon="5.38225">
        <ele>652.2</ele>
        <time>2022-04-28T12:32:37Z</time>
      </trkpt>
      <trkpt lat="45.27773" lon="5.38217">
        <ele>651.6</ele>
        <time>2022-04-28T12:32:38Z</time>
      </trkpt>
      <trkpt lat="45.27765" lon="5.3821">
        <ele>651</ele>
        <time>2022-04-28T12:32:39Z</time>
      </trkpt>
      <trkpt lat="45.27756" lon="5.38204">
        <ele>650.3</ele>
        <time>2022-04-28T12:32:40Z</time>
      </trkpt>
      <trkpt lat="45.27747" lon="5.38199">
        <ele>649.7</ele>
        <time>2022-04-28T12:32:41Z</time>
      </trkpt>
      <trkpt lat="45.27738" lon="5.38195">
        <ele>649.1</ele>
        <time>2022-04-28T12:32:42Z</time>
      </trkpt>
      <trkpt lat="45.27729" lon="5.38191">
        <ele>648.4</ele>
        <time>2022-04-28T12:32:43Z</time>
      </trkpt>
      <trkpt lat="45.27719" lon="5.38188">
        <ele>647.8</ele>
        <time>2022-04-28T12:32:44Z</time>
      </trkpt>
      <trkpt lat="45.2771" lon="5.38186">
        <ele>647.3</ele>
        <time>2022-04-28T12:32:45Z</time>
      </trkpt>
      <trkpt lat="45.27701" lon="5.38184">
        <ele>646.8</ele>
        <time>2022-04-28T12:32:46Z</time>
      </trkpt>
      <trkpt lat="45.27691" lon="5.38182">
        <ele>646.3</ele>
        <time>2022-04-28T12:32:47Z</time>
      </trkpt>
      <trkpt lat="45.27682" lon="5.38177">
        <ele>645.8</ele>
        <time>2022-04-28T12:32:48Z</time>
      </trkpt>
      <trkpt lat="45.27676" lon="5.38169">
        <ele>645.3</ele>
        <time>2022-04-28T12:32:49Z</time>
      </trkpt>
      <trkpt lat="45.2767" lon="5.3816">
        <ele>644.7</ele>
        <time>2022-04-28T12:32:50Z</time>
      </trkpt>
      <trkpt lat="45.27666" lon="5.3815">
        <ele>644.2</ele>
        <time>2022-04-28T12:32:51Z</time>
      </trkpt>
      <trkpt lat="45.27663" lon="5.38138">
        <ele>643.7</ele>
        <time>2022-04-28T12:32:52Z</time>
      </trkpt>
      <trkpt lat="45.2766" lon="5.38126">
        <ele>643.1</ele>
        <time>2022-04-28T12:32:53Z</time>
      </trkpt>
      <trkpt lat="45.27656" lon="5.38114">
        <ele>642.5</ele>
        <time>2022-04-28T12:32:54Z</time>
      </trkpt>
      <trkpt lat="45.27653" lon="5.38102">
        <ele>642</ele>
        <time>2022-04-28T12:32:55Z</time>
      </trkpt>
      <trkpt lat="45.27648" lon="5.38091">
        <ele>641.5</ele>
        <time>2022-04-28T12:32:56Z</time>
      </trkpt>
      <trkpt lat="45.27644" lon="5.3808">
        <ele>641</ele>
        <time>2022-04-28T12:32:57Z</time>
      </trkpt>
      <trkpt lat="45.27639" lon="5.38071">
        <ele>640.4</ele>
        <time>2022-04-28T12:32:58Z</time>
      </trkpt>
      <trkpt lat="45.27633" lon="5.38064">
        <ele>639.9</ele>
        <time>2022-04-28T12:32:59Z</time>
      </trkpt>
      <trkpt lat="45.27628" lon="5.38059">
        <ele>639.4</ele>
        <time>2022-04-28T12:33:00Z</time>
      </trkpt>
      <trkpt lat="45.27622" lon="5.38055">
        <ele>639</ele>
        <time>2022-04-28T12:33:01Z</time>
      </trkpt>
      <trkpt lat="45.27616" lon="5.38053">
        <ele>638.5</ele>
        <time>2022-04-28T12:33:02Z</time>
      </trkpt>
      <trkpt lat="45.2761" lon="5.38055">
        <ele>638.1</ele>
        <time>2022-04-28T12:33:03Z</time>
      </trkpt>
      <trkpt lat="45.27604" lon="5.38058">
        <ele>637.7</ele>
        <time>2022-04-28T12:33:04Z</time>
      </trkpt>
      <trkpt lat="45.276" lon="5.38063">
        <ele>637.3</ele>
        <time>2022-04-28T12:33:05Z</time>
      </trkpt>
      <trkpt lat="45.27596" lon="5.3807">
        <ele>636.9</ele>
        <time>2022-04-28T12:33:06Z</time>
      </trkpt>
      <trkpt lat="45.27594" lon="5.38078">
        <ele>636.9</ele>
        <time>2022-04-28T12:33:07Z</time>
      </trkpt>
      <trkpt lat="45.27594" lon="5.38087">
        <ele>636.7</ele>
        <time>2022-04-28T12:33:08Z</time>
      </trkpt>
      <trkpt lat="45.27596" lon="5.38097">
        <ele>636.3</ele>
        <time>2022-04-28T12:33:09Z</time>
      </trkpt>
      <trkpt lat="45.27598" lon="5.38107">
        <ele>635.8</ele>
        <time>2022-04-28T12:33:10Z</time>
      </trkpt>
      <trkpt lat="45.27601" lon="5.38117">
        <ele>635.4</ele>
        <time>2022-04-28T12:33:11Z</time>
      </trkpt>
      <trkpt lat="45.27603" lon="5.38127">
        <ele>634.9</ele>
        <time>2022-04-28T12:33:12Z</time>
      </trkpt>
      <trkpt lat="45.27605" lon="5.38138">
        <ele>634.4</ele>
        <time>2022-04-28T12:33:13Z</time>
      </trkpt>
      <trkpt lat="45.27608" lon="5.38148">
        <ele>633.9</ele>
        <time>2022-04-28T12:33:14Z</time>
      </trkpt>
      <trkpt lat="45.27611" lon="5.38158">
        <ele>633.4</ele>
        <time>2022-04-28T12:33:15Z</time>
      </trkpt>
      <trkpt lat="45.27615" lon="5.38168">
        <ele>632.9</ele>
        <time>2022-04-28T12:33:16Z</time>
      </trkpt>
      <trkpt lat="45.27619" lon="5.38179">
        <ele>632.4</ele>
        <time>2022-04-28T12:33:17Z</time>
      </trkpt>
      <trkpt lat="45.27624" lon="5.38189">
        <ele>631.8</ele>
        <time>2022-04-28T12:33:18Z</time>
      </trkpt>
      <trkpt lat="45.27629" lon="5.38199">
        <ele>631.2</ele>
        <time>2022-04-28T12:33:19Z</time>
      </trkpt>
      <trkpt lat="45.27634" lon="5.38209">
        <ele>630.6</ele>
        <time>2022-04-28T12:33:20Z</time>
      </trkpt>
      <trkpt lat="45.27637" lon="5.38221">
        <ele>629.9</ele>
        <time>2022-04-28T12:33:21Z</time>
      </trkpt>
      <trkpt lat="45.2764" lon="5.38232">
        <ele>629.3</ele>
        <time>2022-04-28T12:33:22Z</time>
      </trkpt>
      <trkpt lat="45.27642" lon="5.38245">
        <ele>628.7</ele>
        <time>2022-04-28T12:33:23Z</time>
      </trkpt>
      <trkpt lat="45.27643" lon="5.38258">
        <ele>628</ele>
        <time>2022-04-28T12:33:24Z</time>
      </trkpt>
      <trkpt lat="45.27645" lon="5.38271">
        <ele>627.4</ele>
        <time>2022-04-28T12:33:25Z</time>
      </trkpt>
      <trkpt lat="45.27647" lon="5.38284">
        <ele>626.7</ele>
        <time>2022-04-28T12:33:26Z</time>
      </trkpt>
      <trkpt lat="45.2765" lon="5.38298">
        <ele>626</ele>
        <time>2022-04-28T12:33:27Z</time>
      </trkpt>
      <trkpt lat="45.27653" lon="5.38312">
        <ele>625.2</ele>
        <time>2022-04-28T12:33:28Z</time>
      </trkpt>
      <trkpt lat="45.27656" lon="5.38327">
        <ele>624.5</ele>
        <time>2022-04-28T12:33:29Z</time>
      </trkpt>
      <trkpt lat="45.27659" lon="5.38342">
        <ele>623.7</ele>
        <time>2022-04-28T12:33:30Z</time>
      </trkpt>
      <trkpt lat="45.27662" lon="5.38357">
        <ele>623</ele>
        <time>2022-04-28T12:33:31Z</time>
      </trkpt>
      <trkpt lat="45.27665" lon="5.38371">
        <ele>622.2</ele>
        <time>2022-04-28T12:33:32Z</time>
      </trkpt>
      <trkpt lat="45.27668" lon="5.38385">
        <ele>621.5</ele>
        <time>2022-04-28T12:33:33Z</time>
      </trkpt>
      <trkpt lat="45.27671" lon="5.38398">
        <ele>620.7</ele>
        <time>2022-04-28T12:33:34Z</time>
      </trkpt>
      <trkpt lat="45.27673" lon="5.38412">
        <ele>619.9</ele>
        <time>2022-04-28T12:33:35Z</time>
      </trkpt>
      <trkpt lat="45.27676" lon="5.38423">
        <ele>619.1</ele>
        <time>2022-04-28T12:33:36Z</time>
      </trkpt>
      <trkpt lat="45.2768" lon="5.38433">
        <ele>618.6</ele>
        <time>2022-04-28T12:33:37Z</time>
      </trkpt>
      <trkpt lat="45.27684" lon="5.38443">
        <ele>617.9</ele>
        <time>2022-04-28T12:33:38Z</time>
      </trkpt>
      <trkpt lat="45.27689" lon="5.38454">
        <ele>617.3</ele>
        <time>2022-04-28T12:33:39Z</time>
      </trkpt>
      <trkpt lat="45.27694" lon="5.38465">
        <ele>616.6</ele>
        <time>2022-04-28T12:33:40Z</time>
      </trkpt>
      <trkpt lat="45.27697" lon="5.38475">
        <ele>616.1</ele>
        <time>2022-04-28T12:33:41Z</time>
      </trkpt>
      <trkpt lat="45.277" lon="5.38483">
        <ele>615.6</ele>
        <time>2022-04-28T12:33:42Z</time>
      </trkpt>
      <trkpt lat="45.27703" lon="5.38493">
        <ele>615</ele>
        <time>2022-04-28T12:33:43Z</time>
      </trkpt>
      <trkpt lat="45.27704" lon="5.38504">
        <ele>614.4</ele>
        <time>2022-04-28T12:33:44Z</time>
      </trkpt>
      <trkpt lat="45.27703" lon="5.38516">
        <ele>613.8</ele>
        <time>2022-04-28T12:33:45Z</time>
      </trkpt>
      <trkpt lat="45.277" lon="5.38527">
        <ele>613.1</ele>
        <time>2022-04-28T12:33:46Z</time>
      </trkpt>
      <trkpt lat="45.27694" lon="5.38537">
        <ele>612.4</ele>
        <time>2022-04-28T12:33:47Z</time>
      </trkpt>
      <trkpt lat="45.27687" lon="5.38544">
        <ele>611.6</ele>
        <time>2022-04-28T12:33:48Z</time>
      </trkpt>
      <trkpt lat="45.27679" lon="5.38551">
        <ele>610.9</ele>
        <time>2022-04-28T12:33:49Z</time>
      </trkpt>
      <trkpt lat="45.27671" lon="5.38558">
        <ele>610.3</ele>
        <time>2022-04-28T12:33:50Z</time>
      </trkpt>
      <trkpt lat="45.27662" lon="5.38565">
        <ele>609.7</ele>
        <time>2022-04-28T12:33:51Z</time>
      </trkpt>
      <trkpt lat="45.27654" lon="5.38573">
        <ele>609.1</ele>
        <time>2022-04-28T12:33:52Z</time>
      </trkpt>
      <trkpt lat="45.27647" lon="5.38581">
        <ele>608.5</ele>
        <time>2022-04-28T12:33:53Z</time>
      </trkpt>
      <trkpt lat="45.2764" lon="5.38589">
        <ele>608</ele>
        <time>2022-04-28T12:33:54Z</time>
      </trkpt>
      <trkpt lat="45.27632" lon="5.38595">
        <ele>607.5</ele>
        <time>2022-04-28T12:33:55Z</time>
      </trkpt>
      <trkpt lat="45.27625" lon="5.38599">
        <ele>607</ele>
        <time>2022-04-28T12:33:56Z</time>
      </trkpt>
      <trkpt lat="45.27618" lon="5.38602">
        <ele>606.6</ele>
        <time>2022-04-28T12:33:57Z</time>
      </trkpt>
      <trkpt lat="45.27609" lon="5.38601">
        <ele>606</ele>
        <time>2022-04-28T12:33:58Z</time>
      </trkpt>
      <trkpt lat="45.27601" lon="5.38598">
        <ele>605.4</ele>
        <time>2022-04-28T12:33:59Z</time>
      </trkpt>
      <trkpt lat="45.27592" lon="5.38594">
        <ele>604.8</ele>
        <time>2022-04-28T12:34:00Z</time>
      </trkpt>
      <trkpt lat="45.27584" lon="5.38588">
        <ele>604.1</ele>
        <time>2022-04-28T12:34:01Z</time>
      </trkpt>
      <trkpt lat="45.27576" lon="5.38583">
        <ele>603.5</ele>
        <time>2022-04-28T12:34:02Z</time>
      </trkpt>
      <trkpt lat="45.27568" lon="5.38579">
        <ele>602.9</ele>
        <time>2022-04-28T12:34:03Z</time>
      </trkpt>
      <trkpt lat="45.2756" lon="5.38575">
        <ele>602.3</ele>
        <time>2022-04-28T12:34:04Z</time>
      </trkpt>
      <trkpt lat="45.27553" lon="5.38572">
        <ele>601.9</ele>
        <time>2022-04-28T12:34:05Z</time>
      </trkpt>
      <trkpt lat="45.27545" lon="5.38571">
        <ele>601.8</ele>
        <time>2022-04-28T12:34:06Z</time>
      </trkpt>
      <trkpt lat="45.27538" lon="5.38571">
        <ele>601.6</ele>
        <time>2022-04-28T12:34:07Z</time>
      </trkpt>
      <trkpt lat="45.2753" lon="5.3857">
        <ele>601.1</ele>
        <time>2022-04-28T12:34:08Z</time>
      </trkpt>
      <trkpt lat="45.27523" lon="5.3857">
        <ele>600.6</ele>
        <time>2022-04-28T12:34:09Z</time>
      </trkpt>
      <trkpt lat="45.27518" lon="5.38571">
        <ele>600.2</ele>
        <time>2022-04-28T12:34:10Z</time>
      </trkpt>
      <trkpt lat="45.27514" lon="5.38573">
        <ele>599.9</ele>
        <time>2022-04-28T12:34:11Z</time>
      </trkpt>
      <trkpt lat="45.2751" lon="5.38576">
        <ele>599.6</ele>
        <time>2022-04-28T12:34:12Z</time>
      </trkpt>
      <trkpt lat="45.27506" lon="5.38577">
        <ele>599.3</ele>
        <time>2022-04-28T12:34:13Z</time>
      </trkpt>
      <trkpt lat="45.27503" lon="5.38577">
        <ele>599.1</ele>
        <time>2022-04-28T12:34:14Z</time>
      </trkpt>
      <trkpt lat="45.27498" lon="5.38575">
        <ele>598.7</ele>
        <time>2022-04-28T12:34:15Z</time>
      </trkpt>
      <trkpt lat="45.27494" lon="5.38569">
        <ele>598.4</ele>
        <time>2022-04-28T12:34:16Z</time>
      </trkpt>
      <trkpt lat="45.27492" lon="5.38561">
        <ele>597.9</ele>
        <time>2022-04-28T12:34:17Z</time>
      </trkpt>
      <trkpt lat="45.2749" lon="5.38553">
        <ele>597.5</ele>
        <time>2022-04-28T12:34:18Z</time>
      </trkpt>
      <trkpt lat="45.27489" lon="5.38544">
        <ele>597.1</ele>
        <time>2022-04-28T12:34:19Z</time>
      </trkpt>
      <trkpt lat="45.27488" lon="5.38536">
        <ele>596.7</ele>
        <time>2022-04-28T12:34:20Z</time>
      </trkpt>
      <trkpt lat="45.27488" lon="5.38529">
        <ele>596.4</ele>
        <time>2022-04-28T12:34:21Z</time>
      </trkpt>
      <trkpt lat="45.27487" lon="5.38522">
        <ele>596</ele>
        <time>2022-04-28T12:34:22Z</time>
      </trkpt>
      <trkpt lat="45.27486" lon="5.38516">
        <ele>595.8</ele>
        <time>2022-04-28T12:34:23Z</time>
      </trkpt>
      <trkpt lat="45.27485" lon="5.3851">
        <ele>595.5</ele>
        <time>2022-04-28T12:34:24Z</time>
      </trkpt>
      <trkpt lat="45.27485" lon="5.38508">
        <ele>595.4</ele>
        <time>2022-04-28T12:34:25Z</time>
      </trkpt>
      <trkpt lat="45.27483" lon="5.38506">
        <ele>595.3</ele>
        <time>2022-04-28T12:34:26Z</time>
      </trkpt>
      <trkpt lat="45.27483" lon="5.38504">
        <ele>595.2</ele>
        <time>2022-04-28T12:34:27Z</time>
      </trkpt>
      <trkpt lat="45.27483" lon="5.38504">
        <ele>595.2</ele>
        <time>2022-04-28T12:34:28Z</time>
      </trkpt>
      <trkpt lat="45.27483" lon="5.38503">
        <ele>595.2</ele>
        <time>2022-04-28T12:34:29Z</time>
      </trkpt>
      <trkpt lat="45.27483" lon="5.38503">
        <ele>595.1</ele>
        <time>2022-04-28T12:34:30Z</time>
      </trkpt>
      <trkpt lat="45.27482" lon="5.38503">
        <ele>595.1</ele>
        <time>2022-04-28T12:34:31Z</time>
      </trkpt>
      <trkpt lat="45.27482" lon="5.38504">
        <ele>595.1</ele>
        <time>2022-04-28T12:34:32Z</time>
      </trkpt>
      <trkpt lat="45.27482" lon="5.38503">
        <ele>595.1</ele>
        <time>2022-04-28T12:34:33Z</time>
      </trkpt>
      <trkpt lat="45.27482" lon="5.38504">
        <ele>595.1</ele>
        <time>2022-04-28T12:34:34Z</time>
      </trkpt>
      <trkpt lat="45.27483" lon="5.38503">
        <ele>595</ele>
        <time>2022-04-28T12:34:35Z</time>
      </trkpt>
      <trkpt lat="45.27483" lon="5.38503">
        <ele>595</ele>
        <time>2022-04-28T12:34:36Z</time>
      </trkpt>
      <trkpt lat="45.27483" lon="5.38503">
        <ele>595</ele>
        <time>2022-04-28T12:34:37Z</time>
      </trkpt>
      <trkpt lat="45.27482" lon="5.38503">
        <ele>595</ele>
        <time>2022-04-28T12:34:38Z</time>
      </trkpt>
      <trkpt lat="45.27482" lon="5.38504">
        <ele>595</ele>
        <time>2022-04-28T12:34:39Z</time>
      </trkpt>
      <trkpt lat="45.27482" lon="5.38503">
        <ele>595</ele>
        <time>2022-04-28T12:34:40Z</time>
      </trkpt>
      <trkpt lat="45.27482" lon="5.38503">
        <ele>595</ele>
        <time>2022-04-28T12:34:41Z</time>
      </trkpt>
      <trkpt lat="45.2748" lon="5.38498">
        <ele>594.7</ele>
        <time>2022-04-28T12:36:19Z</time>
      </trkpt>
      <trkpt lat="45.27479" lon="5.38497">
        <ele>594.7</ele>
        <time>2022-04-28T12:36:20Z</time>
      </trkpt>
      <trkpt lat="45.27478" lon="5.38497">
        <ele>594.6</ele>
        <time>2022-04-28T12:36:21Z</time>
      </trkpt>
      <trkpt lat="45.27477" lon="5.38496">
        <ele>594.5</ele>
        <time>2022-04-28T12:36:22Z</time>
      </trkpt>
      <trkpt lat="45.27476" lon="5.38496">
        <ele>594.4</ele>
        <time>2022-04-28T12:36:23Z</time>
      </trkpt>
      <trkpt lat="45.27475" lon="5.38496">
        <ele>594.3</ele>
        <time>2022-04-28T12:36:24Z</time>
      </trkpt>
      <trkpt lat="45.27474" lon="5.38495">
        <ele>594.3</ele>
        <time>2022-04-28T12:36:25Z</time>
      </trkpt>
      <trkpt lat="45.27474" lon="5.38495">
        <ele>594.3</ele>
        <time>2022-04-28T12:36:26Z</time>
      </trkpt>
      <trkpt lat="45.27473" lon="5.38495">
        <ele>594.2</ele>
        <time>2022-04-28T12:36:27Z</time>
      </trkpt>
      <trkpt lat="45.27473" lon="5.38495">
        <ele>594.2</ele>
        <time>2022-04-28T12:36:28Z</time>
      </trkpt>
      <trkpt lat="45.27472" lon="5.38495">
        <ele>594.1</ele>
        <time>2022-04-28T12:36:29Z</time>
      </trkpt>
      <trkpt lat="45.27472" lon="5.38495">
        <ele>594.1</ele>
        <time>2022-04-28T12:36:30Z</time>
      </trkpt>
      <trkpt lat="45.27472" lon="5.38496">
        <ele>594.1</ele>
        <time>2022-04-28T12:36:31Z</time>
      </trkpt>
      <trkpt lat="45.27472" lon="5.38496">
        <ele>594.1</ele>
        <time>2022-04-28T12:36:32Z</time>
      </trkpt>
      <trkpt lat="45.27471" lon="5.38496">
        <ele>594.1</ele>
        <time>2022-04-28T12:36:33Z</time>
      </trkpt>
      <trkpt lat="45.27471" lon="5.38496">
        <ele>594.1</ele>
        <time>2022-04-28T12:36:34Z</time>
      </trkpt>
      <trkpt lat="45.27471" lon="5.38496">
        <ele>594</ele>
        <time>2022-04-28T12:36:35Z</time>
      </trkpt>
      <trkpt lat="45.27471" lon="5.38496">
        <ele>594</ele>
        <time>2022-04-28T12:36:36Z</time>
      </trkpt>
      <trkpt lat="45.27471" lon="5.38496">
        <ele>594</ele>
        <time>2022-04-28T12:36:37Z</time>
      </trkpt>
      <trkpt lat="45.27471" lon="5.38496">
        <ele>594</ele>
        <time>2022-04-28T12:36:38Z</time>
      </trkpt>
      <trkpt lat="45.27471" lon="5.38496">
        <ele>594</ele>
        <time>2022-04-28T12:36:39Z</time>
      </trkpt>
      <trkpt lat="45.27471" lon="5.38496">
        <ele>594</ele>
        <time>2022-04-28T12:36:40Z</time>
      </trkpt>
      <trkpt lat="45.27471" lon="5.38496">
        <ele>594</ele>
        <time>2022-04-28T12:36:41Z</time>
      </trkpt>
      <trkpt lat="45.27471" lon="5.38497">
        <ele>594</ele>
        <time>2022-04-28T12:36:42Z</time>
      </trkpt>
      <trkpt lat="45.27471" lon="5.38497">
        <ele>594</ele>
        <time>2022-04-28T12:36:43Z</time>
      </trkpt>
      <trkpt lat="45.2747" lon="5.385">
        <ele>593.9</ele>
        <time>2022-04-28T12:41:23Z</time>
      </trkpt>
      <trkpt lat="45.2747" lon="5.38503">
        <ele>594</ele>
        <time>2022-04-28T12:41:24Z</time>
      </trkpt>
      <trkpt lat="45.27471" lon="5.38505">
        <ele>594.2</ele>
        <time>2022-04-28T12:41:25Z</time>
      </trkpt>
      <trkpt lat="45.27474" lon="5.38506">
        <ele>594.4</ele>
        <time>2022-04-28T12:41:26Z</time>
      </trkpt>
      <trkpt lat="45.27475" lon="5.38506">
        <ele>594.4</ele>
        <time>2022-04-28T12:41:27Z</time>
      </trkpt>
      <trkpt lat="45.27476" lon="5.38507">
        <ele>595</ele>
        <time>2022-04-28T12:41:28Z</time>
      </trkpt>
      <trkpt lat="45.27477" lon="5.38508">
        <ele>595</ele>
        <time>2022-04-28T12:41:29Z</time>
      </trkpt>
      <trkpt lat="45.27478" lon="5.38509">
        <ele>595.1</ele>
        <time>2022-04-28T12:41:30Z</time>
      </trkpt>
      <trkpt lat="45.27478" lon="5.3851">
        <ele>595.1</ele>
        <time>2022-04-28T12:41:32Z</time>
      </trkpt>
      <trkpt lat="45.27479" lon="5.38511">
        <ele>595.2</ele>
        <time>2022-04-28T12:41:33Z</time>
      </trkpt>
      <trkpt lat="45.27479" lon="5.38512">
        <ele>595.3</ele>
        <time>2022-04-28T12:41:34Z</time>
      </trkpt>
      <trkpt lat="45.2748" lon="5.38513">
        <ele>595.3</ele>
        <time>2022-04-28T12:41:35Z</time>
      </trkpt>
      <trkpt lat="45.27481" lon="5.38516">
        <ele>595.5</ele>
        <time>2022-04-28T12:41:36Z</time>
      </trkpt>
      <trkpt lat="45.27482" lon="5.38516">
        <ele>595.5</ele>
        <time>2022-04-28T12:41:37Z</time>
      </trkpt>
      <trkpt lat="45.27482" lon="5.38516">
        <ele>595.5</ele>
        <time>2022-04-28T12:41:38Z</time>
      </trkpt>
      <trkpt lat="45.27482" lon="5.38516">
        <ele>595.5</ele>
        <time>2022-04-28T12:41:39Z</time>
      </trkpt>
      <trkpt lat="45.27482" lon="5.38517">
        <ele>595.5</ele>
        <time>2022-04-28T12:41:40Z</time>
      </trkpt>
      <trkpt lat="45.27482" lon="5.38517">
        <ele>595.6</ele>
        <time>2022-04-28T12:41:41Z</time>
      </trkpt>
      <trkpt lat="45.27482" lon="5.38517">
        <ele>595.6</ele>
        <time>2022-04-28T12:41:42Z</time>
      </trkpt>
      <trkpt lat="45.27483" lon="5.38517">
        <ele>595.6</ele>
        <time>2022-04-28T12:41:43Z</time>
      </trkpt>
      <trkpt lat="45.27483" lon="5.38518">
        <ele>595.6</ele>
        <time>2022-04-28T12:41:45Z</time>
      </trkpt>
      <trkpt lat="45.27483" lon="5.38518">
        <ele>595.6</ele>
        <time>2022-04-28T12:41:46Z</time>
      </trkpt>
      <trkpt lat="45.27483" lon="5.3852">
        <ele>595.7</ele>
        <time>2022-04-28T12:41:47Z</time>
      </trkpt>
      <trkpt lat="45.27484" lon="5.38522">
        <ele>595.8</ele>
        <time>2022-04-28T12:41:48Z</time>
      </trkpt>
      <trkpt lat="45.27484" lon="5.38527">
        <ele>596</ele>
        <time>2022-04-28T12:41:49Z</time>
      </trkpt>
      <trkpt lat="45.27484" lon="5.38528">
        <ele>596.1</ele>
        <time>2022-04-28T12:41:50Z</time>
      </trkpt>
      <trkpt lat="45.27485" lon="5.38533">
        <ele>596.4</ele>
        <time>2022-04-28T12:41:51Z</time>
      </trkpt>
      <trkpt lat="45.27485" lon="5.38535">
        <ele>596.4</ele>
        <time>2022-04-28T12:41:52Z</time>
      </trkpt>
      <trkpt lat="45.27486" lon="5.38537">
        <ele>596.6</ele>
        <time>2022-04-28T12:41:53Z</time>
      </trkpt>
      <trkpt lat="45.27486" lon="5.38541">
        <ele>596.8</ele>
        <time>2022-04-28T12:41:55Z</time>
      </trkpt>
      <trkpt lat="45.27487" lon="5.38547">
        <ele>597.1</ele>
        <time>2022-04-28T12:41:56Z</time>
      </trkpt>
      <trkpt lat="45.27487" lon="5.38549">
        <ele>597.2</ele>
        <time>2022-04-28T12:41:57Z</time>
      </trkpt>
      <trkpt lat="45.27488" lon="5.38554">
        <ele>597.4</ele>
        <time>2022-04-28T12:41:58Z</time>
      </trkpt>
      <trkpt lat="45.27489" lon="5.38555">
        <ele>597.5</ele>
        <time>2022-04-28T12:41:59Z</time>
      </trkpt>
      <trkpt lat="45.2749" lon="5.3856">
        <ele>597.8</ele>
        <time>2022-04-28T12:42:00Z</time>
      </trkpt>
      <trkpt lat="45.27491" lon="5.38562">
        <ele>597.9</ele>
        <time>2022-04-28T12:42:01Z</time>
      </trkpt>
      <trkpt lat="45.27493" lon="5.38566">
        <ele>598.2</ele>
        <time>2022-04-28T12:42:02Z</time>
      </trkpt>
      <trkpt lat="45.27494" lon="5.38567">
        <ele>598.2</ele>
        <time>2022-04-28T12:42:03Z</time>
      </trkpt>
      <trkpt lat="45.27496" lon="5.38571">
        <ele>598.5</ele>
        <time>2022-04-28T12:42:04Z</time>
      </trkpt>
      <trkpt lat="45.27497" lon="5.38572">
        <ele>598.6</ele>
        <time>2022-04-28T12:42:05Z</time>
      </trkpt>
      <trkpt lat="45.27499" lon="5.38574">
        <ele>598.7</ele>
        <time>2022-04-28T12:42:06Z</time>
      </trkpt>
      <trkpt lat="45.275" lon="5.38575">
        <ele>598.8</ele>
        <time>2022-04-28T12:42:07Z</time>
      </trkpt>
      <trkpt lat="45.27503" lon="5.38576">
        <ele>599</ele>
        <time>2022-04-28T12:42:08Z</time>
      </trkpt>
      <trkpt lat="45.27505" lon="5.38576">
        <ele>599.1</ele>
        <time>2022-04-28T12:42:09Z</time>
      </trkpt>
      <trkpt lat="45.27508" lon="5.38575">
        <ele>599.4</ele>
        <time>2022-04-28T12:42:10Z</time>
      </trkpt>
      <trkpt lat="45.27509" lon="5.38575">
        <ele>599.5</ele>
        <time>2022-04-28T12:42:11Z</time>
      </trkpt>
      <trkpt lat="45.27512" lon="5.38575">
        <ele>599.7</ele>
        <time>2022-04-28T12:42:12Z</time>
      </trkpt>
      <trkpt lat="45.27513" lon="5.38574">
        <ele>599.8</ele>
        <time>2022-04-28T12:42:13Z</time>
      </trkpt>
      <trkpt lat="45.27515" lon="5.38574">
        <ele>599.9</ele>
        <time>2022-04-28T12:42:14Z</time>
      </trkpt>
      <trkpt lat="45.27516" lon="5.38573">
        <ele>600</ele>
        <time>2022-04-28T12:42:15Z</time>
      </trkpt>
      <trkpt lat="45.27519" lon="5.38571">
        <ele>600.2</ele>
        <time>2022-04-28T12:42:16Z</time>
      </trkpt>
      <trkpt lat="45.2752" lon="5.3857">
        <ele>600.3</ele>
        <time>2022-04-28T12:42:17Z</time>
      </trkpt>
      <trkpt lat="45.27522" lon="5.3857">
        <ele>600.5</ele>
        <time>2022-04-28T12:42:18Z</time>
      </trkpt>
      <trkpt lat="45.27526" lon="5.38571">
        <ele>600.8</ele>
        <time>2022-04-28T12:42:20Z</time>
      </trkpt>
      <trkpt lat="45.27529" lon="5.3857">
        <ele>601</ele>
        <time>2022-04-28T12:42:21Z</time>
      </trkpt>
      <trkpt lat="45.2753" lon="5.3857">
        <ele>601.1</ele>
        <time>2022-04-28T12:42:22Z</time>
      </trkpt>
      <trkpt lat="45.27533" lon="5.38569">
        <ele>601.3</ele>
        <time>2022-04-28T12:42:24Z</time>
      </trkpt>
      <trkpt lat="45.27537" lon="5.38569">
        <ele>601.5</ele>
        <time>2022-04-28T12:42:25Z</time>
      </trkpt>
      <trkpt lat="45.27541" lon="5.38569">
        <ele>601.8</ele>
        <time>2022-04-28T12:42:27Z</time>
      </trkpt>
      <trkpt lat="45.27544" lon="5.38569">
        <ele>601.8</ele>
        <time>2022-04-28T12:42:29Z</time>
      </trkpt>
      <trkpt lat="45.27546" lon="5.38569">
        <ele>601.8</ele>
        <time>2022-04-28T12:42:30Z</time>
      </trkpt>
      <trkpt lat="45.27547" lon="5.3857">
        <ele>601.8</ele>
        <time>2022-04-28T12:42:31Z</time>
      </trkpt>
      <trkpt lat="45.27549" lon="5.38569">
        <ele>601.9</ele>
        <time>2022-04-28T12:42:32Z</time>
      </trkpt>
      <trkpt lat="45.27552" lon="5.38571">
        <ele>601.9</ele>
        <time>2022-04-28T12:42:34Z</time>
      </trkpt>
      <trkpt lat="45.27555" lon="5.38572">
        <ele>601.9</ele>
        <time>2022-04-28T12:42:35Z</time>
      </trkpt>
      <trkpt lat="45.27555" lon="5.38572">
        <ele>601.9</ele>
        <time>2022-04-28T12:42:36Z</time>
      </trkpt>
      <trkpt lat="45.27558" lon="5.38574">
        <ele>602.1</ele>
        <time>2022-04-28T12:42:37Z</time>
      </trkpt>
      <trkpt lat="45.27559" lon="5.38574">
        <ele>602.2</ele>
        <time>2022-04-28T12:42:38Z</time>
      </trkpt>
      <trkpt lat="45.27562" lon="5.38575">
        <ele>602.4</ele>
        <time>2022-04-28T12:42:39Z</time>
      </trkpt>
      <trkpt lat="45.27562" lon="5.38576">
        <ele>602.4</ele>
        <time>2022-04-28T12:42:40Z</time>
      </trkpt>
      <trkpt lat="45.27564" lon="5.38576">
        <ele>602.5</ele>
        <time>2022-04-28T12:42:41Z</time>
      </trkpt>
      <trkpt lat="45.27565" lon="5.38578">
        <ele>602.6</ele>
        <time>2022-04-28T12:42:42Z</time>
      </trkpt>
      <trkpt lat="45.27568" lon="5.3858">
        <ele>602.8</ele>
        <time>2022-04-28T12:42:43Z</time>
      </trkpt>
      <trkpt lat="45.27569" lon="5.3858">
        <ele>602.9</ele>
        <time>2022-04-28T12:42:44Z</time>
      </trkpt>
      <trkpt lat="45.27573" lon="5.38583">
        <ele>603.2</ele>
        <time>2022-04-28T12:42:46Z</time>
      </trkpt>
      <trkpt lat="45.27574" lon="5.38583">
        <ele>603.4</ele>
        <time>2022-04-28T12:42:47Z</time>
      </trkpt>
      <trkpt lat="45.27576" lon="5.38584">
        <ele>603.5</ele>
        <time>2022-04-28T12:42:48Z</time>
      </trkpt>
      <trkpt lat="45.27577" lon="5.38585">
        <ele>603.6</ele>
        <time>2022-04-28T12:42:49Z</time>
      </trkpt>
      <trkpt lat="45.27579" lon="5.38586">
        <ele>603.7</ele>
        <time>2022-04-28T12:42:50Z</time>
      </trkpt>
      <trkpt lat="45.27582" lon="5.38588">
        <ele>603.9</ele>
        <time>2022-04-28T12:42:51Z</time>
      </trkpt>
      <trkpt lat="45.27582" lon="5.38588">
        <ele>604</ele>
        <time>2022-04-28T12:42:52Z</time>
      </trkpt>
      <trkpt lat="45.27585" lon="5.3859">
        <ele>604.2</ele>
        <time>2022-04-28T12:42:53Z</time>
      </trkpt>
      <trkpt lat="45.27586" lon="5.38591">
        <ele>604.2</ele>
        <time>2022-04-28T12:42:54Z</time>
      </trkpt>
      <trkpt lat="45.27587" lon="5.38592">
        <ele>604.4</ele>
        <time>2022-04-28T12:42:55Z</time>
      </trkpt>
      <trkpt lat="45.27589" lon="5.38593">
        <ele>604.5</ele>
        <time>2022-04-28T12:42:56Z</time>
      </trkpt>
      <trkpt lat="45.27591" lon="5.38594">
        <ele>604.7</ele>
        <time>2022-04-28T12:42:57Z</time>
      </trkpt>
      <trkpt lat="45.27592" lon="5.38595">
        <ele>604.7</ele>
        <time>2022-04-28T12:42:58Z</time>
      </trkpt>
      <trkpt lat="45.27595" lon="5.38596">
        <ele>605</ele>
        <time>2022-04-28T12:42:59Z</time>
      </trkpt>
      <trkpt lat="45.27596" lon="5.38597">
        <ele>605</ele>
        <time>2022-04-28T12:43:00Z</time>
      </trkpt>
      <trkpt lat="45.27599" lon="5.38598">
        <ele>605.2</ele>
        <time>2022-04-28T12:43:01Z</time>
      </trkpt>
      <trkpt lat="45.276" lon="5.38599">
        <ele>605.3</ele>
        <time>2022-04-28T12:43:02Z</time>
      </trkpt>
      <trkpt lat="45.27601" lon="5.38599">
        <ele>605.4</ele>
        <time>2022-04-28T12:43:03Z</time>
      </trkpt>
      <trkpt lat="45.27603" lon="5.386">
        <ele>605.5</ele>
        <time>2022-04-28T12:43:04Z</time>
      </trkpt>
      <trkpt lat="45.27606" lon="5.38601">
        <ele>605.7</ele>
        <time>2022-04-28T12:43:05Z</time>
      </trkpt>
      <trkpt lat="45.27607" lon="5.38601">
        <ele>605.8</ele>
        <time>2022-04-28T12:43:06Z</time>
      </trkpt>
      <trkpt lat="45.2761" lon="5.38602">
        <ele>606</ele>
        <time>2022-04-28T12:43:07Z</time>
      </trkpt>
      <trkpt lat="45.27611" lon="5.38603">
        <ele>606.1</ele>
        <time>2022-04-28T12:43:08Z</time>
      </trkpt>
      <trkpt lat="45.27614" lon="5.38603">
        <ele>606.3</ele>
        <time>2022-04-28T12:43:09Z</time>
      </trkpt>
      <trkpt lat="45.27615" lon="5.38603">
        <ele>606.4</ele>
        <time>2022-04-28T12:43:10Z</time>
      </trkpt>
      <trkpt lat="45.27619" lon="5.38604">
        <ele>606.6</ele>
        <time>2022-04-28T12:43:11Z</time>
      </trkpt>
      <trkpt lat="45.2762" lon="5.38604">
        <ele>606.6</ele>
        <time>2022-04-28T12:43:12Z</time>
      </trkpt>
      <trkpt lat="45.27623" lon="5.38603">
        <ele>606.8</ele>
        <time>2022-04-28T12:43:13Z</time>
      </trkpt>
      <trkpt lat="45.27624" lon="5.38603">
        <ele>606.9</ele>
        <time>2022-04-28T12:43:14Z</time>
      </trkpt>
      <trkpt lat="45.27627" lon="5.38602">
        <ele>607.1</ele>
        <time>2022-04-28T12:43:15Z</time>
      </trkpt>
      <trkpt lat="45.27628" lon="5.38602">
        <ele>607.2</ele>
        <time>2022-04-28T12:43:16Z</time>
      </trkpt>
      <trkpt lat="45.27631" lon="5.38601">
        <ele>607.3</ele>
        <time>2022-04-28T12:43:17Z</time>
      </trkpt>
      <trkpt lat="45.27632" lon="5.386">
        <ele>607.4</ele>
        <time>2022-04-28T12:43:18Z</time>
      </trkpt>
      <trkpt lat="45.27635" lon="5.38597">
        <ele>607.6</ele>
        <time>2022-04-28T12:43:19Z</time>
      </trkpt>
      <trkpt lat="45.27636" lon="5.38596">
        <ele>607.7</ele>
        <time>2022-04-28T12:43:20Z</time>
      </trkpt>
      <trkpt lat="45.27639" lon="5.38594">
        <ele>607.9</ele>
        <time>2022-04-28T12:43:21Z</time>
      </trkpt>
      <trkpt lat="45.2764" lon="5.38594">
        <ele>607.9</ele>
        <time>2022-04-28T12:43:22Z</time>
      </trkpt>
      <trkpt lat="45.27643" lon="5.38591">
        <ele>608.1</ele>
        <time>2022-04-28T12:43:23Z</time>
      </trkpt>
      <trkpt lat="45.27643" lon="5.3859">
        <ele>608.2</ele>
        <time>2022-04-28T12:43:24Z</time>
      </trkpt>
      <trkpt lat="45.27647" lon="5.38587">
        <ele>608.4</ele>
        <time>2022-04-28T12:43:25Z</time>
      </trkpt>
      <trkpt lat="45.27648" lon="5.38586">
        <ele>608.5</ele>
        <time>2022-04-28T12:43:26Z</time>
      </trkpt>
      <trkpt lat="45.2765" lon="5.38584">
        <ele>608.7</ele>
        <time>2022-04-28T12:43:27Z</time>
      </trkpt>
      <trkpt lat="45.27651" lon="5.38583">
        <ele>608.7</ele>
        <time>2022-04-28T12:43:28Z</time>
      </trkpt>
      <trkpt lat="45.27653" lon="5.38581">
        <ele>608.9</ele>
        <time>2022-04-28T12:43:29Z</time>
      </trkpt>
      <trkpt lat="45.27657" lon="5.38578">
        <ele>609.2</ele>
        <time>2022-04-28T12:43:31Z</time>
      </trkpt>
      <trkpt lat="45.27659" lon="5.38576">
        <ele>609.3</ele>
        <time>2022-04-28T12:43:32Z</time>
      </trkpt>
      <trkpt lat="45.27661" lon="5.38575">
        <ele>609.4</ele>
        <time>2022-04-28T12:43:33Z</time>
      </trkpt>
      <trkpt lat="45.27663" lon="5.38573">
        <ele>609.5</ele>
        <time>2022-04-28T12:43:34Z</time>
      </trkpt>
      <trkpt lat="45.27665" lon="5.38569">
        <ele>609.8</ele>
        <time>2022-04-28T12:43:36Z</time>
      </trkpt>
      <trkpt lat="45.27668" lon="5.38566">
        <ele>610</ele>
        <time>2022-04-28T12:43:37Z</time>
      </trkpt>
      <trkpt lat="45.27671" lon="5.38564">
        <ele>610.2</ele>
        <time>2022-04-28T12:43:38Z</time>
      </trkpt>
      <trkpt lat="45.27672" lon="5.38563">
        <ele>610.2</ele>
        <time>2022-04-28T12:43:39Z</time>
      </trkpt>
      <trkpt lat="45.27674" lon="5.38561">
        <ele>610.4</ele>
        <time>2022-04-28T12:43:40Z</time>
      </trkpt>
      <trkpt lat="45.27675" lon="5.3856">
        <ele>610.5</ele>
        <time>2022-04-28T12:43:41Z</time>
      </trkpt>
      <trkpt lat="45.27678" lon="5.38558">
        <ele>610.7</ele>
        <time>2022-04-28T12:43:42Z</time>
      </trkpt>
      <trkpt lat="45.27678" lon="5.38557">
        <ele>610.7</ele>
        <time>2022-04-28T12:43:43Z</time>
      </trkpt>
      <trkpt lat="45.2768" lon="5.38555">
        <ele>610.9</ele>
        <time>2022-04-28T12:43:44Z</time>
      </trkpt>
      <trkpt lat="45.27681" lon="5.38554">
        <ele>610.9</ele>
        <time>2022-04-28T12:43:45Z</time>
      </trkpt>
      <trkpt lat="45.27686" lon="5.38552">
        <ele>611.2</ele>
        <time>2022-04-28T12:43:47Z</time>
      </trkpt>
      <trkpt lat="45.27687" lon="5.38551">
        <ele>611.3</ele>
        <time>2022-04-28T12:43:48Z</time>
      </trkpt>
      <trkpt lat="45.27688" lon="5.38551">
        <ele>611.4</ele>
        <time>2022-04-28T12:43:49Z</time>
      </trkpt>
      <trkpt lat="45.2769" lon="5.3855">
        <ele>611.5</ele>
        <time>2022-04-28T12:43:50Z</time>
      </trkpt>
      <trkpt lat="45.27691" lon="5.38548">
        <ele>611.7</ele>
        <time>2022-04-28T12:43:51Z</time>
      </trkpt>
      <trkpt lat="45.27694" lon="5.38545">
        <ele>612</ele>
        <time>2022-04-28T12:43:53Z</time>
      </trkpt>
      <trkpt lat="45.27696" lon="5.38544">
        <ele>612.1</ele>
        <time>2022-04-28T12:43:54Z</time>
      </trkpt>
      <trkpt lat="45.27697" lon="5.38541">
        <ele>612.3</ele>
        <time>2022-04-28T12:43:55Z</time>
      </trkpt>
      <trkpt lat="45.27698" lon="5.3854">
        <ele>612.4</ele>
        <time>2022-04-28T12:43:56Z</time>
      </trkpt>
      <trkpt lat="45.27699" lon="5.38538">
        <ele>612.5</ele>
        <time>2022-04-28T12:43:57Z</time>
      </trkpt>
      <trkpt lat="45.27701" lon="5.38537">
        <ele>612.6</ele>
        <time>2022-04-28T12:43:58Z</time>
      </trkpt>
      <trkpt lat="45.27702" lon="5.38535">
        <ele>612.8</ele>
        <time>2022-04-28T12:43:59Z</time>
      </trkpt>
      <trkpt lat="45.27703" lon="5.38533">
        <ele>612.9</ele>
        <time>2022-04-28T12:44:00Z</time>
      </trkpt>
      <trkpt lat="45.27704" lon="5.38531">
        <ele>613</ele>
        <time>2022-04-28T12:44:01Z</time>
      </trkpt>
      <trkpt lat="45.27706" lon="5.38529">
        <ele>613.2</ele>
        <time>2022-04-28T12:44:02Z</time>
      </trkpt>
      <trkpt lat="45.27707" lon="5.38528">
        <ele>613.3</ele>
        <time>2022-04-28T12:44:03Z</time>
      </trkpt>
      <trkpt lat="45.27708" lon="5.38526">
        <ele>613.4</ele>
        <time>2022-04-28T12:44:04Z</time>
      </trkpt>
      <trkpt lat="45.27708" lon="5.38524">
        <ele>613.5</ele>
        <time>2022-04-28T12:44:05Z</time>
      </trkpt>
      <trkpt lat="45.27709" lon="5.38521">
        <ele>613.7</ele>
        <time>2022-04-28T12:44:06Z</time>
      </trkpt>
      <trkpt lat="45.27709" lon="5.38519">
        <ele>613.8</ele>
        <time>2022-04-28T12:44:07Z</time>
      </trkpt>
      <trkpt lat="45.27709" lon="5.38516">
        <ele>613.9</ele>
        <time>2022-04-28T12:44:08Z</time>
      </trkpt>
      <trkpt lat="45.27709" lon="5.38512">
        <ele>614.2</ele>
        <time>2022-04-28T12:44:09Z</time>
      </trkpt>
      <trkpt lat="45.2771" lon="5.38511">
        <ele>614.2</ele>
        <time>2022-04-28T12:44:10Z</time>
      </trkpt>
      <trkpt lat="45.2771" lon="5.38507">
        <ele>614.4</ele>
        <time>2022-04-28T12:44:11Z</time>
      </trkpt>
      <trkpt lat="45.27709" lon="5.38505">
        <ele>614.5</ele>
        <time>2022-04-28T12:44:12Z</time>
      </trkpt>
      <trkpt lat="45.27709" lon="5.38501">
        <ele>614.7</ele>
        <time>2022-04-28T12:44:13Z</time>
      </trkpt>
      <trkpt lat="45.27709" lon="5.385">
        <ele>614.8</ele>
        <time>2022-04-28T12:44:14Z</time>
      </trkpt>
      <trkpt lat="45.27709" lon="5.38497">
        <ele>614.9</ele>
        <time>2022-04-28T12:44:15Z</time>
      </trkpt>
      <trkpt lat="45.27708" lon="5.38495">
        <ele>615</ele>
        <time>2022-04-28T12:44:16Z</time>
      </trkpt>
      <trkpt lat="45.27708" lon="5.38493">
        <ele>615.1</ele>
        <time>2022-04-28T12:44:17Z</time>
      </trkpt>
      <trkpt lat="45.27707" lon="5.38491">
        <ele>615.2</ele>
        <time>2022-04-28T12:44:18Z</time>
      </trkpt>
      <trkpt lat="45.27706" lon="5.38487">
        <ele>615.4</ele>
        <time>2022-04-28T12:44:19Z</time>
      </trkpt>
      <trkpt lat="45.27705" lon="5.38486">
        <ele>615.5</ele>
        <time>2022-04-28T12:44:20Z</time>
      </trkpt>
      <trkpt lat="45.27704" lon="5.38484">
        <ele>615.6</ele>
        <time>2022-04-28T12:44:21Z</time>
      </trkpt>
      <trkpt lat="45.27703" lon="5.38482">
        <ele>615.7</ele>
        <time>2022-04-28T12:44:22Z</time>
      </trkpt>
      <trkpt lat="45.27701" lon="5.38479">
        <ele>615.9</ele>
        <time>2022-04-28T12:44:23Z</time>
      </trkpt>
      <trkpt lat="45.27701" lon="5.38478">
        <ele>616</ele>
        <time>2022-04-28T12:44:24Z</time>
      </trkpt>
      <trkpt lat="45.277" lon="5.38474">
        <ele>616.2</ele>
        <time>2022-04-28T12:44:25Z</time>
      </trkpt>
      <trkpt lat="45.27699" lon="5.38473">
        <ele>616.2</ele>
        <time>2022-04-28T12:44:26Z</time>
      </trkpt>
      <trkpt lat="45.27697" lon="5.38468">
        <ele>616.5</ele>
        <time>2022-04-28T12:44:28Z</time>
      </trkpt>
      <trkpt lat="45.27697" lon="5.38466">
        <ele>616.6</ele>
        <time>2022-04-28T12:44:29Z</time>
      </trkpt>
      <trkpt lat="45.27696" lon="5.38464">
        <ele>616.7</ele>
        <time>2022-04-28T12:44:30Z</time>
      </trkpt>
      <trkpt lat="45.27694" lon="5.38461">
        <ele>616.9</ele>
        <time>2022-04-28T12:44:32Z</time>
      </trkpt>
      <trkpt lat="45.27693" lon="5.38457">
        <ele>617.1</ele>
        <time>2022-04-28T12:44:33Z</time>
      </trkpt>
      <trkpt lat="45.27692" lon="5.38455">
        <ele>617.2</ele>
        <time>2022-04-28T12:44:34Z</time>
      </trkpt>
      <trkpt lat="45.27691" lon="5.38453">
        <ele>617.3</ele>
        <time>2022-04-28T12:44:35Z</time>
      </trkpt>
      <trkpt lat="45.2769" lon="5.38448">
        <ele>617.5</ele>
        <time>2022-04-28T12:44:37Z</time>
      </trkpt>
      <trkpt lat="45.27688" lon="5.38444">
        <ele>617.8</ele>
        <time>2022-04-28T12:44:38Z</time>
      </trkpt>
      <trkpt lat="45.27687" lon="5.38442">
        <ele>617.9</ele>
        <time>2022-04-28T12:44:39Z</time>
      </trkpt>
      <trkpt lat="45.27685" lon="5.38436">
        <ele>618.2</ele>
        <time>2022-04-28T12:44:41Z</time>
      </trkpt>
      <trkpt lat="45.27684" lon="5.38434">
        <ele>618.3</ele>
        <time>2022-04-28T12:44:42Z</time>
      </trkpt>
      <trkpt lat="45.27683" lon="5.38433">
        <ele>618.4</ele>
        <time>2022-04-28T12:44:43Z</time>
      </trkpt>
      <trkpt lat="45.27681" lon="5.38427">
        <ele>618.7</ele>
        <time>2022-04-28T12:44:45Z</time>
      </trkpt>
      <trkpt lat="45.2768" lon="5.38425">
        <ele>618.9</ele>
        <time>2022-04-28T12:44:46Z</time>
      </trkpt>
      <trkpt lat="45.2768" lon="5.38423">
        <ele>619</ele>
        <time>2022-04-28T12:44:47Z</time>
      </trkpt>
      <trkpt lat="45.27679" lon="5.38419">
        <ele>619.3</ele>
        <time>2022-04-28T12:44:48Z</time>
      </trkpt>
      <trkpt lat="45.27679" lon="5.38417">
        <ele>619.4</ele>
        <time>2022-04-28T12:44:49Z</time>
      </trkpt>
      <trkpt lat="45.27678" lon="5.38415">
        <ele>619.5</ele>
        <time>2022-04-28T12:44:50Z</time>
      </trkpt>
      <trkpt lat="45.27678" lon="5.38412">
        <ele>619.7</ele>
        <time>2022-04-28T12:44:51Z</time>
      </trkpt>
      <trkpt lat="45.27677" lon="5.3841">
        <ele>619.8</ele>
        <time>2022-04-28T12:44:52Z</time>
      </trkpt>
      <trkpt lat="45.27677" lon="5.38407">
        <ele>620</ele>
        <time>2022-04-28T12:44:53Z</time>
      </trkpt>
      <trkpt lat="45.27676" lon="5.38404">
        <ele>620.2</ele>
        <time>2022-04-28T12:44:54Z</time>
      </trkpt>
      <trkpt lat="45.27676" lon="5.38402">
        <ele>620.3</ele>
        <time>2022-04-28T12:44:55Z</time>
      </trkpt>
      <trkpt lat="45.27676" lon="5.38398">
        <ele>620.5</ele>
        <time>2022-04-28T12:44:56Z</time>
      </trkpt>
      <trkpt lat="45.27676" lon="5.38397">
        <ele>620.6</ele>
        <time>2022-04-28T12:44:57Z</time>
      </trkpt>
      <trkpt lat="45.27675" lon="5.38395">
        <ele>620.7</ele>
        <time>2022-04-28T12:44:58Z</time>
      </trkpt>
      <trkpt lat="45.27675" lon="5.38393">
        <ele>620.8</ele>
        <time>2022-04-28T12:44:59Z</time>
      </trkpt>
      <trkpt lat="45.27674" lon="5.38391">
        <ele>621</ele>
        <time>2022-04-28T12:45:00Z</time>
      </trkpt>
      <trkpt lat="45.27673" lon="5.38388">
        <ele>621.1</ele>
        <time>2022-04-28T12:45:01Z</time>
      </trkpt>
      <trkpt lat="45.27673" lon="5.38386">
        <ele>621.3</ele>
        <time>2022-04-28T12:45:02Z</time>
      </trkpt>
      <trkpt lat="45.27673" lon="5.38384">
        <ele>621.4</ele>
        <time>2022-04-28T12:45:03Z</time>
      </trkpt>
      <trkpt lat="45.27672" lon="5.38382">
        <ele>621.5</ele>
        <time>2022-04-28T12:45:04Z</time>
      </trkpt>
      <trkpt lat="45.2767" lon="5.38379">
        <ele>621.8</ele>
        <time>2022-04-28T12:45:06Z</time>
      </trkpt>
      <trkpt lat="45.27669" lon="5.38375">
        <ele>622</ele>
        <time>2022-04-28T12:45:07Z</time>
      </trkpt>
      <trkpt lat="45.27669" lon="5.38374">
        <ele>622.1</ele>
        <time>2022-04-28T12:45:08Z</time>
      </trkpt>
      <trkpt lat="45.27668" lon="5.38369">
        <ele>622.3</ele>
        <time>2022-04-28T12:45:09Z</time>
      </trkpt>
      <trkpt lat="45.27668" lon="5.38367">
        <ele>622.4</ele>
        <time>2022-04-28T12:45:10Z</time>
      </trkpt>
      <trkpt lat="45.27667" lon="5.38362">
        <ele>622.7</ele>
        <time>2022-04-28T12:45:11Z</time>
      </trkpt>
      <trkpt lat="45.27667" lon="5.38361">
        <ele>622.7</ele>
        <time>2022-04-28T12:45:12Z</time>
      </trkpt>
      <trkpt lat="45.27666" lon="5.38356">
        <ele>623</ele>
        <time>2022-04-28T12:45:13Z</time>
      </trkpt>
      <trkpt lat="45.27666" lon="5.38355">
        <ele>623</ele>
        <time>2022-04-28T12:45:14Z</time>
      </trkpt>
      <trkpt lat="45.27664" lon="5.38351">
        <ele>623.3</ele>
        <time>2022-04-28T12:45:15Z</time>
      </trkpt>
      <trkpt lat="45.27663" lon="5.3835">
        <ele>623.3</ele>
        <time>2022-04-28T12:45:16Z</time>
      </trkpt>
      <trkpt lat="45.27663" lon="5.38347">
        <ele>623.4</ele>
        <time>2022-04-28T12:45:17Z</time>
      </trkpt>
      <trkpt lat="45.27662" lon="5.38345">
        <ele>623.5</ele>
        <time>2022-04-28T12:45:18Z</time>
      </trkpt>
      <trkpt lat="45.27661" lon="5.38341">
        <ele>623.7</ele>
        <time>2022-04-28T12:45:19Z</time>
      </trkpt>
      <trkpt lat="45.2766" lon="5.38336">
        <ele>624</ele>
        <time>2022-04-28T12:45:20Z</time>
      </trkpt>
      <trkpt lat="45.2766" lon="5.38335">
        <ele>624.1</ele>
        <time>2022-04-28T12:45:21Z</time>
      </trkpt>
      <trkpt lat="45.27658" lon="5.3833">
        <ele>624.3</ele>
        <time>2022-04-28T12:45:22Z</time>
      </trkpt>
      <trkpt lat="45.27658" lon="5.38328">
        <ele>624.4</ele>
        <time>2022-04-28T12:45:23Z</time>
      </trkpt>
      <trkpt lat="45.27657" lon="5.38323">
        <ele>624.7</ele>
        <time>2022-04-28T12:45:24Z</time>
      </trkpt>
      <trkpt lat="45.27657" lon="5.38321">
        <ele>624.8</ele>
        <time>2022-04-28T12:45:25Z</time>
      </trkpt>
      <trkpt lat="45.27656" lon="5.38317">
        <ele>625</ele>
        <time>2022-04-28T12:45:26Z</time>
      </trkpt>
      <trkpt lat="45.27655" lon="5.38315">
        <ele>625.1</ele>
        <time>2022-04-28T12:45:27Z</time>
      </trkpt>
      <trkpt lat="45.27654" lon="5.38311">
        <ele>625.3</ele>
        <time>2022-04-28T12:45:28Z</time>
      </trkpt>
      <trkpt lat="45.27652" lon="5.38306">
        <ele>625.6</ele>
        <time>2022-04-28T12:45:29Z</time>
      </trkpt>
      <trkpt lat="45.27652" lon="5.38304">
        <ele>625.7</ele>
        <time>2022-04-28T12:45:30Z</time>
      </trkpt>
      <trkpt lat="45.2765" lon="5.38299">
        <ele>625.9</ele>
        <time>2022-04-28T12:45:31Z</time>
      </trkpt>
      <trkpt lat="45.2765" lon="5.38298">
        <ele>626</ele>
        <time>2022-04-28T12:45:32Z</time>
      </trkpt>
      <trkpt lat="45.2765" lon="5.38293">
        <ele>626.3</ele>
        <time>2022-04-28T12:45:33Z</time>
      </trkpt>
      <trkpt lat="45.27649" lon="5.38292">
        <ele>626.3</ele>
        <time>2022-04-28T12:45:34Z</time>
      </trkpt>
      <trkpt lat="45.27648" lon="5.38287">
        <ele>626.6</ele>
        <time>2022-04-28T12:45:35Z</time>
      </trkpt>
      <trkpt lat="45.27648" lon="5.38285">
        <ele>626.7</ele>
        <time>2022-04-28T12:45:36Z</time>
      </trkpt>
      <trkpt lat="45.27647" lon="5.38281">
        <ele>626.9</ele>
        <time>2022-04-28T12:45:37Z</time>
      </trkpt>
      <trkpt lat="45.27647" lon="5.38279">
        <ele>627</ele>
        <time>2022-04-28T12:45:38Z</time>
      </trkpt>
      <trkpt lat="45.27646" lon="5.38275">
        <ele>627.2</ele>
        <time>2022-04-28T12:45:39Z</time>
      </trkpt>
      <trkpt lat="45.27646" lon="5.38273">
        <ele>627.3</ele>
        <time>2022-04-28T12:45:40Z</time>
      </trkpt>
      <trkpt lat="45.27645" lon="5.38269">
        <ele>627.5</ele>
        <time>2022-04-28T12:45:41Z</time>
      </trkpt>
      <trkpt lat="45.27645" lon="5.38267">
        <ele>627.6</ele>
        <time>2022-04-28T12:45:42Z</time>
      </trkpt>
      <trkpt lat="45.27645" lon="5.38263">
        <ele>627.8</ele>
        <time>2022-04-28T12:45:43Z</time>
      </trkpt>
      <trkpt lat="45.27645" lon="5.38262">
        <ele>627.9</ele>
        <time>2022-04-28T12:45:44Z</time>
      </trkpt>
      <trkpt lat="45.27644" lon="5.38258">
        <ele>628</ele>
        <time>2022-04-28T12:45:45Z</time>
      </trkpt>
      <trkpt lat="45.27644" lon="5.38257">
        <ele>628.1</ele>
        <time>2022-04-28T12:45:46Z</time>
      </trkpt>
      <trkpt lat="45.27643" lon="5.38253">
        <ele>628.3</ele>
        <time>2022-04-28T12:45:47Z</time>
      </trkpt>
      <trkpt lat="45.27643" lon="5.38251">
        <ele>628.4</ele>
        <time>2022-04-28T12:45:48Z</time>
      </trkpt>
      <trkpt lat="45.27643" lon="5.38248">
        <ele>628.6</ele>
        <time>2022-04-28T12:45:49Z</time>
      </trkpt>
      <trkpt lat="45.27643" lon="5.38246">
        <ele>628.6</ele>
        <time>2022-04-28T12:45:50Z</time>
      </trkpt>
      <trkpt lat="45.27642" lon="5.38242">
        <ele>628.9</ele>
        <time>2022-04-28T12:45:51Z</time>
      </trkpt>
      <trkpt lat="45.27642" lon="5.38241">
        <ele>628.9</ele>
        <time>2022-04-28T12:45:52Z</time>
      </trkpt>
      <trkpt lat="45.27642" lon="5.38236">
        <ele>629.2</ele>
        <time>2022-04-28T12:45:53Z</time>
      </trkpt>
      <trkpt lat="45.27641" lon="5.38234">
        <ele>629.2</ele>
        <time>2022-04-28T12:45:54Z</time>
      </trkpt>
      <trkpt lat="45.2764" lon="5.38229">
        <ele>629.5</ele>
        <time>2022-04-28T12:45:55Z</time>
      </trkpt>
      <trkpt lat="45.2764" lon="5.38228">
        <ele>629.6</ele>
        <time>2022-04-28T12:45:56Z</time>
      </trkpt>
      <trkpt lat="45.27639" lon="5.38223">
        <ele>629.8</ele>
        <time>2022-04-28T12:45:57Z</time>
      </trkpt>
      <trkpt lat="45.27638" lon="5.38222">
        <ele>629.9</ele>
        <time>2022-04-28T12:45:58Z</time>
      </trkpt>
      <trkpt lat="45.27637" lon="5.38217">
        <ele>630.1</ele>
        <time>2022-04-28T12:45:59Z</time>
      </trkpt>
      <trkpt lat="45.27637" lon="5.38216">
        <ele>630.2</ele>
        <time>2022-04-28T12:46:00Z</time>
      </trkpt>
      <trkpt lat="45.27635" lon="5.38211">
        <ele>630.5</ele>
        <time>2022-04-28T12:46:01Z</time>
      </trkpt>
      <trkpt lat="45.27635" lon="5.3821">
        <ele>630.6</ele>
        <time>2022-04-28T12:46:02Z</time>
      </trkpt>
      <trkpt lat="45.27633" lon="5.38205">
        <ele>630.8</ele>
        <time>2022-04-28T12:46:03Z</time>
      </trkpt>
      <trkpt lat="45.27633" lon="5.38204">
        <ele>630.9</ele>
        <time>2022-04-28T12:46:04Z</time>
      </trkpt>
      <trkpt lat="45.27631" lon="5.382">
        <ele>631.1</ele>
        <time>2022-04-28T12:46:05Z</time>
      </trkpt>
      <trkpt lat="45.27631" lon="5.38198">
        <ele>631.2</ele>
        <time>2022-04-28T12:46:06Z</time>
      </trkpt>
      <trkpt lat="45.27629" lon="5.38194">
        <ele>631.4</ele>
        <time>2022-04-28T12:46:07Z</time>
      </trkpt>
      <trkpt lat="45.27628" lon="5.38193">
        <ele>631.5</ele>
        <time>2022-04-28T12:46:08Z</time>
      </trkpt>
      <trkpt lat="45.27626" lon="5.38188">
        <ele>631.8</ele>
        <time>2022-04-28T12:46:10Z</time>
      </trkpt>
      <trkpt lat="45.27624" lon="5.38183">
        <ele>632.1</ele>
        <time>2022-04-28T12:46:11Z</time>
      </trkpt>
      <trkpt lat="45.27623" lon="5.38182">
        <ele>632.1</ele>
        <time>2022-04-28T12:46:12Z</time>
      </trkpt>
      <trkpt lat="45.27621" lon="5.38178">
        <ele>632.3</ele>
        <time>2022-04-28T12:46:13Z</time>
      </trkpt>
      <trkpt lat="45.2762" lon="5.38177">
        <ele>632.4</ele>
        <time>2022-04-28T12:46:14Z</time>
      </trkpt>
      <trkpt lat="45.27619" lon="5.38175">
        <ele>632.5</ele>
        <time>2022-04-28T12:46:15Z</time>
      </trkpt>
      <trkpt lat="45.27618" lon="5.38173">
        <ele>632.6</ele>
        <time>2022-04-28T12:46:16Z</time>
      </trkpt>
      <trkpt lat="45.27616" lon="5.3817">
        <ele>632.8</ele>
        <time>2022-04-28T12:46:17Z</time>
      </trkpt>
      <trkpt lat="45.27616" lon="5.38168">
        <ele>632.9</ele>
        <time>2022-04-28T12:46:18Z</time>
      </trkpt>
      <trkpt lat="45.27614" lon="5.38164">
        <ele>633.1</ele>
        <time>2022-04-28T12:46:19Z</time>
      </trkpt>
      <trkpt lat="45.27614" lon="5.38162">
        <ele>633.2</ele>
        <time>2022-04-28T12:46:20Z</time>
      </trkpt>
      <trkpt lat="45.27613" lon="5.38158">
        <ele>633.4</ele>
        <time>2022-04-28T12:46:21Z</time>
      </trkpt>
      <trkpt lat="45.27612" lon="5.38157">
        <ele>633.5</ele>
        <time>2022-04-28T12:46:22Z</time>
      </trkpt>
      <trkpt lat="45.27611" lon="5.38153">
        <ele>633.7</ele>
        <time>2022-04-28T12:46:23Z</time>
      </trkpt>
      <trkpt lat="45.27611" lon="5.38151">
        <ele>633.7</ele>
        <time>2022-04-28T12:46:24Z</time>
      </trkpt>
      <trkpt lat="45.27609" lon="5.38146">
        <ele>634</ele>
        <time>2022-04-28T12:46:25Z</time>
      </trkpt>
      <trkpt lat="45.27609" lon="5.38145">
        <ele>634.1</ele>
        <time>2022-04-28T12:46:26Z</time>
      </trkpt>
      <trkpt lat="45.27608" lon="5.38141">
        <ele>634.3</ele>
        <time>2022-04-28T12:46:27Z</time>
      </trkpt>
      <trkpt lat="45.27607" lon="5.3814">
        <ele>634.3</ele>
        <time>2022-04-28T12:46:28Z</time>
      </trkpt>
      <trkpt lat="45.27606" lon="5.38136">
        <ele>634.5</ele>
        <time>2022-04-28T12:46:29Z</time>
      </trkpt>
      <trkpt lat="45.27605" lon="5.38131">
        <ele>634.7</ele>
        <time>2022-04-28T12:46:30Z</time>
      </trkpt>
      <trkpt lat="45.27605" lon="5.38129">
        <ele>634.8</ele>
        <time>2022-04-28T12:46:31Z</time>
      </trkpt>
      <trkpt lat="45.27603" lon="5.38125">
        <ele>635</ele>
        <time>2022-04-28T12:46:32Z</time>
      </trkpt>
      <trkpt lat="45.27603" lon="5.38124">
        <ele>635</ele>
        <time>2022-04-28T12:46:33Z</time>
      </trkpt>
      <trkpt lat="45.27602" lon="5.38119">
        <ele>635.2</ele>
        <time>2022-04-28T12:46:34Z</time>
      </trkpt>
      <trkpt lat="45.27602" lon="5.38118">
        <ele>635.3</ele>
        <time>2022-04-28T12:46:35Z</time>
      </trkpt>
      <trkpt lat="45.27601" lon="5.38113">
        <ele>635.5</ele>
        <time>2022-04-28T12:46:36Z</time>
      </trkpt>
      <trkpt lat="45.276" lon="5.38112">
        <ele>635.6</ele>
        <time>2022-04-28T12:46:37Z</time>
      </trkpt>
      <trkpt lat="45.27599" lon="5.38108">
        <ele>635.8</ele>
        <time>2022-04-28T12:46:38Z</time>
      </trkpt>
      <trkpt lat="45.27599" lon="5.38106">
        <ele>635.8</ele>
        <time>2022-04-28T12:46:39Z</time>
      </trkpt>
      <trkpt lat="45.27598" lon="5.38102">
        <ele>636</ele>
        <time>2022-04-28T12:46:40Z</time>
      </trkpt>
      <trkpt lat="45.27597" lon="5.381">
        <ele>636.1</ele>
        <time>2022-04-28T12:46:41Z</time>
      </trkpt>
      <trkpt lat="45.27597" lon="5.38096">
        <ele>636.3</ele>
        <time>2022-04-28T12:46:42Z</time>
      </trkpt>
      <trkpt lat="45.27596" lon="5.38095">
        <ele>636.3</ele>
        <time>2022-04-28T12:46:43Z</time>
      </trkpt>
      <trkpt lat="45.27595" lon="5.3809">
        <ele>636.5</ele>
        <time>2022-04-28T12:46:44Z</time>
      </trkpt>
      <trkpt lat="45.27595" lon="5.38089">
        <ele>636.6</ele>
        <time>2022-04-28T12:46:45Z</time>
      </trkpt>
      <trkpt lat="45.27594" lon="5.38083">
        <ele>636.9</ele>
        <time>2022-04-28T12:46:47Z</time>
      </trkpt>
      <trkpt lat="45.27594" lon="5.38079">
        <ele>636.9</ele>
        <time>2022-04-28T12:46:48Z</time>
      </trkpt>
      <trkpt lat="45.27593" lon="5.38077">
        <ele>636.9</ele>
        <time>2022-04-28T12:46:49Z</time>
      </trkpt>
      <trkpt lat="45.27593" lon="5.38074">
        <ele>636.9</ele>
        <time>2022-04-28T12:46:50Z</time>
      </trkpt>
      <trkpt lat="45.27593" lon="5.38072">
        <ele>636.9</ele>
        <time>2022-04-28T12:46:51Z</time>
      </trkpt>
      <trkpt lat="45.27593" lon="5.38069">
        <ele>636.9</ele>
        <time>2022-04-28T12:46:52Z</time>
      </trkpt>
      <trkpt lat="45.27593" lon="5.38066">
        <ele>636.9</ele>
        <time>2022-04-28T12:46:54Z</time>
      </trkpt>
      <trkpt lat="45.27593" lon="5.38062">
        <ele>636.9</ele>
        <time>2022-04-28T12:46:55Z</time>
      </trkpt>
      <trkpt lat="45.27593" lon="5.3806">
        <ele>636.9</ele>
        <time>2022-04-28T12:46:56Z</time>
      </trkpt>
      <trkpt lat="45.27592" lon="5.38058">
        <ele>636.9</ele>
        <time>2022-04-28T12:46:57Z</time>
      </trkpt>
      <trkpt lat="45.27591" lon="5.38056">
        <ele>636.9</ele>
        <time>2022-04-28T12:46:58Z</time>
      </trkpt>
      <trkpt lat="45.27591" lon="5.38056">
        <ele>637.1</ele>
        <time>2022-04-28T12:46:59Z</time>
      </trkpt>
      <trkpt lat="45.27591" lon="5.38057">
        <ele>637.2</ele>
        <time>2022-04-28T12:47:00Z</time>
      </trkpt>
      <trkpt lat="45.27591" lon="5.38057">
        <ele>637.2</ele>
        <time>2022-04-28T12:47:01Z</time>
      </trkpt>
      <trkpt lat="45.27591" lon="5.38058">
        <ele>637.2</ele>
        <time>2022-04-28T12:47:02Z</time>
      </trkpt>
      <trkpt lat="45.27591" lon="5.38058">
        <ele>637.2</ele>
        <time>2022-04-28T12:47:03Z</time>
      </trkpt>
      <trkpt lat="45.27591" lon="5.38059">
        <ele>637.2</ele>
        <time>2022-04-28T12:47:04Z</time>
      </trkpt>
      <trkpt lat="45.27591" lon="5.38059">
        <ele>637.3</ele>
        <time>2022-04-28T12:47:05Z</time>
      </trkpt>
      <trkpt lat="45.2759" lon="5.3806">
        <ele>637.3</ele>
        <time>2022-04-28T12:47:06Z</time>
      </trkpt>
      <trkpt lat="45.2759" lon="5.3806">
        <ele>637.3</ele>
        <time>2022-04-28T12:47:07Z</time>
      </trkpt>
      <trkpt lat="45.2759" lon="5.38061">
        <ele>637.3</ele>
        <time>2022-04-28T12:47:09Z</time>
      </trkpt>
      <trkpt lat="45.2759" lon="5.38061">
        <ele>637.4</ele>
        <time>2022-04-28T12:47:10Z</time>
      </trkpt>
      <trkpt lat="45.2759" lon="5.38062">
        <ele>637.4</ele>
        <time>2022-04-28T12:47:11Z</time>
      </trkpt>
      <trkpt lat="45.2759" lon="5.38062">
        <ele>637.4</ele>
        <time>2022-04-28T12:47:12Z</time>
      </trkpt>
      <trkpt lat="45.2759" lon="5.38063">
        <ele>637.4</ele>
        <time>2022-04-28T12:47:13Z</time>
      </trkpt>
      <trkpt lat="45.2759" lon="5.38063">
        <ele>637.5</ele>
        <time>2022-04-28T12:47:14Z</time>
      </trkpt>
      <trkpt lat="45.2759" lon="5.38064">
        <ele>637.5</ele>
        <time>2022-04-28T12:47:15Z</time>
      </trkpt>
      <trkpt lat="45.2759" lon="5.38064">
        <ele>637.5</ele>
        <time>2022-04-28T12:47:16Z</time>
      </trkpt>
      <trkpt lat="45.2759" lon="5.38065">
        <ele>637.5</ele>
        <time>2022-04-28T12:47:17Z</time>
      </trkpt>
      <trkpt lat="45.2759" lon="5.38065">
        <ele>637.5</ele>
        <time>2022-04-28T12:47:18Z</time>
      </trkpt>
      <trkpt lat="45.2759" lon="5.38066">
        <ele>637.6</ele>
        <time>2022-04-28T12:47:19Z</time>
      </trkpt>
      <trkpt lat="45.2759" lon="5.38066">
        <ele>637.6</ele>
        <time>2022-04-28T12:47:20Z</time>
      </trkpt>
      <trkpt lat="45.2759" lon="5.38067">
        <ele>637.6</ele>
        <time>2022-04-28T12:47:21Z</time>
      </trkpt>
      <trkpt lat="45.2759" lon="5.38067">
        <ele>637.6</ele>
        <time>2022-04-28T12:47:22Z</time>
      </trkpt>
      <trkpt lat="45.2759" lon="5.38068">
        <ele>637.7</ele>
        <time>2022-04-28T12:47:23Z</time>
      </trkpt>
      <trkpt lat="45.2759" lon="5.38068">
        <ele>637.7</ele>
        <time>2022-04-28T12:48:30Z</time>
      </trkpt>
      <trkpt lat="45.2759" lon="5.38069">
        <ele>637.7</ele>
        <time>2022-04-28T12:48:31Z</time>
      </trkpt>
      <trkpt lat="45.2759" lon="5.38069">
        <ele>637.7</ele>
        <time>2022-04-28T12:48:32Z</time>
      </trkpt>
      <trkpt lat="45.27593" lon="5.38071">
        <ele>638</ele>
        <time>2022-04-28T12:48:33Z</time>
      </trkpt>
      <trkpt lat="45.27598" lon="5.3807">
        <ele>638.3</ele>
        <time>2022-04-28T12:48:34Z</time>
      </trkpt>
      <trkpt lat="45.276" lon="5.38069">
        <ele>638.4</ele>
        <time>2022-04-28T12:48:35Z</time>
      </trkpt>
      <trkpt lat="45.27603" lon="5.38067">
        <ele>638.6</ele>
        <time>2022-04-28T12:48:37Z</time>
      </trkpt>
      <trkpt lat="45.27606" lon="5.38066">
        <ele>638.9</ele>
        <time>2022-04-28T12:48:38Z</time>
      </trkpt>
      <trkpt lat="45.27611" lon="5.38065">
        <ele>639.2</ele>
        <time>2022-04-28T12:48:39Z</time>
      </trkpt>
      <trkpt lat="45.27614" lon="5.38064">
        <ele>639.4</ele>
        <time>2022-04-28T12:48:40Z</time>
      </trkpt>
      <trkpt lat="45.27618" lon="5.38064">
        <ele>639.7</ele>
        <time>2022-04-28T12:48:42Z</time>
      </trkpt>
      <trkpt lat="45.27621" lon="5.38064">
        <ele>639.9</ele>
        <time>2022-04-28T12:48:43Z</time>
      </trkpt>
      <trkpt lat="45.27625" lon="5.38066">
        <ele>640.1</ele>
        <time>2022-04-28T12:48:44Z</time>
      </trkpt>
      <trkpt lat="45.27628" lon="5.38068">
        <ele>640.4</ele>
        <time>2022-04-28T12:48:45Z</time>
      </trkpt>
      <trkpt lat="45.27629" lon="5.38068">
        <ele>640.5</ele>
        <time>2022-04-28T12:48:46Z</time>
      </trkpt>
      <trkpt lat="45.27631" lon="5.38071">
        <ele>640.6</ele>
        <time>2022-04-28T12:48:47Z</time>
      </trkpt>
      <trkpt lat="45.27631" lon="5.38072">
        <ele>640.7</ele>
        <time>2022-04-28T12:48:48Z</time>
      </trkpt>
      <trkpt lat="45.27634" lon="5.38075">
        <ele>640.9</ele>
        <time>2022-04-28T12:48:49Z</time>
      </trkpt>
      <trkpt lat="45.27635" lon="5.38076">
        <ele>641</ele>
        <time>2022-04-28T12:48:50Z</time>
      </trkpt>
      <trkpt lat="45.27638" lon="5.3808">
        <ele>641.2</ele>
        <time>2022-04-28T12:48:52Z</time>
      </trkpt>
      <trkpt lat="45.2764" lon="5.38084">
        <ele>641.4</ele>
        <time>2022-04-28T12:48:53Z</time>
      </trkpt>
      <trkpt lat="45.2764" lon="5.38085">
        <ele>641.5</ele>
        <time>2022-04-28T12:48:54Z</time>
      </trkpt>
      <trkpt lat="45.27642" lon="5.38088">
        <ele>641.7</ele>
        <time>2022-04-28T12:48:55Z</time>
      </trkpt>
      <trkpt lat="45.27643" lon="5.38089">
        <ele>641.7</ele>
        <time>2022-04-28T12:48:56Z</time>
      </trkpt>
      <trkpt lat="45.27644" lon="5.38093">
        <ele>641.9</ele>
        <time>2022-04-28T12:48:57Z</time>
      </trkpt>
      <trkpt lat="45.27646" lon="5.38099">
        <ele>642.1</ele>
        <time>2022-04-28T12:48:59Z</time>
      </trkpt>
      <trkpt lat="45.27648" lon="5.38103">
        <ele>642.3</ele>
        <time>2022-04-28T12:49:00Z</time>
      </trkpt>
      <trkpt lat="45.27648" lon="5.38104">
        <ele>642.4</ele>
        <time>2022-04-28T12:49:01Z</time>
      </trkpt>
      <trkpt lat="45.27648" lon="5.38108">
        <ele>642.5</ele>
        <time>2022-04-28T12:49:02Z</time>
      </trkpt>
      <trkpt lat="45.27649" lon="5.3811">
        <ele>642.6</ele>
        <time>2022-04-28T12:49:03Z</time>
      </trkpt>
      <trkpt lat="45.2765" lon="5.38114">
        <ele>642.8</ele>
        <time>2022-04-28T12:49:04Z</time>
      </trkpt>
      <trkpt lat="45.2765" lon="5.38115">
        <ele>642.8</ele>
        <time>2022-04-28T12:49:05Z</time>
      </trkpt>
      <trkpt lat="45.2765" lon="5.38117">
        <ele>642.9</ele>
        <time>2022-04-28T12:49:06Z</time>
      </trkpt>
      <trkpt lat="45.27652" lon="5.38122">
        <ele>643.1</ele>
        <time>2022-04-28T12:49:08Z</time>
      </trkpt>
      <trkpt lat="45.27653" lon="5.38126">
        <ele>643.3</ele>
        <time>2022-04-28T12:49:09Z</time>
      </trkpt>
      <trkpt lat="45.27653" lon="5.3813">
        <ele>643.5</ele>
        <time>2022-04-28T12:49:10Z</time>
      </trkpt>
      <trkpt lat="45.27653" lon="5.38132">
        <ele>643.6</ele>
        <time>2022-04-28T12:49:11Z</time>
      </trkpt>
      <trkpt lat="45.27655" lon="5.38136">
        <ele>643.8</ele>
        <time>2022-04-28T12:49:12Z</time>
      </trkpt>
      <trkpt lat="45.27655" lon="5.38138">
        <ele>643.8</ele>
        <time>2022-04-28T12:49:13Z</time>
      </trkpt>
      <trkpt lat="45.27656" lon="5.38142">
        <ele>644.1</ele>
        <time>2022-04-28T12:49:14Z</time>
      </trkpt>
      <trkpt lat="45.27657" lon="5.38143">
        <ele>644.1</ele>
        <time>2022-04-28T12:49:15Z</time>
      </trkpt>
      <trkpt lat="45.27658" lon="5.38148">
        <ele>644.3</ele>
        <time>2022-04-28T12:49:16Z</time>
      </trkpt>
      <trkpt lat="45.27658" lon="5.38149">
        <ele>644.4</ele>
        <time>2022-04-28T12:49:17Z</time>
      </trkpt>
      <trkpt lat="45.2766" lon="5.38153">
        <ele>644.6</ele>
        <time>2022-04-28T12:49:18Z</time>
      </trkpt>
      <trkpt lat="45.27661" lon="5.38155">
        <ele>644.7</ele>
        <time>2022-04-28T12:49:19Z</time>
      </trkpt>
      <trkpt lat="45.27664" lon="5.38158">
        <ele>644.9</ele>
        <time>2022-04-28T12:49:20Z</time>
      </trkpt>
      <trkpt lat="45.27664" lon="5.3816">
        <ele>645</ele>
        <time>2022-04-28T12:49:21Z</time>
      </trkpt>
      <trkpt lat="45.27667" lon="5.38164">
        <ele>645.2</ele>
        <time>2022-04-28T12:49:22Z</time>
      </trkpt>
      <trkpt lat="45.27668" lon="5.38165">
        <ele>645.3</ele>
        <time>2022-04-28T12:49:23Z</time>
      </trkpt>
      <trkpt lat="45.27669" lon="5.38168">
        <ele>645.4</ele>
        <time>2022-04-28T12:49:24Z</time>
      </trkpt>
      <trkpt lat="45.27673" lon="5.38172">
        <ele>645.7</ele>
        <time>2022-04-28T12:49:26Z</time>
      </trkpt>
      <trkpt lat="45.27676" lon="5.38175">
        <ele>645.9</ele>
        <time>2022-04-28T12:49:27Z</time>
      </trkpt>
      <trkpt lat="45.27677" lon="5.38176">
        <ele>645.9</ele>
        <time>2022-04-28T12:49:28Z</time>
      </trkpt>
      <trkpt lat="45.2768" lon="5.38178">
        <ele>646.1</ele>
        <time>2022-04-28T12:49:29Z</time>
      </trkpt>
      <trkpt lat="45.27681" lon="5.38179">
        <ele>646.2</ele>
        <time>2022-04-28T12:49:30Z</time>
      </trkpt>
      <trkpt lat="45.27683" lon="5.38181">
        <ele>646.3</ele>
        <time>2022-04-28T12:49:31Z</time>
      </trkpt>
      <trkpt lat="45.27687" lon="5.38183">
        <ele>646.5</ele>
        <time>2022-04-28T12:49:33Z</time>
      </trkpt>
      <trkpt lat="45.27691" lon="5.38185">
        <ele>646.7</ele>
        <time>2022-04-28T12:49:34Z</time>
      </trkpt>
      <trkpt lat="45.27692" lon="5.38185">
        <ele>646.8</ele>
        <time>2022-04-28T12:49:35Z</time>
      </trkpt>
      <trkpt lat="45.27695" lon="5.38186">
        <ele>646.9</ele>
        <time>2022-04-28T12:49:36Z</time>
      </trkpt>
      <trkpt lat="45.27697" lon="5.38187">
        <ele>647.1</ele>
        <time>2022-04-28T12:49:37Z</time>
      </trkpt>
      <trkpt lat="45.277" lon="5.38187">
        <ele>647.2</ele>
        <time>2022-04-28T12:49:38Z</time>
      </trkpt>
      <trkpt lat="45.27703" lon="5.38188">
        <ele>647.4</ele>
        <time>2022-04-28T12:49:39Z</time>
      </trkpt>
      <trkpt lat="45.27707" lon="5.38189">
        <ele>647.6</ele>
        <time>2022-04-28T12:49:40Z</time>
      </trkpt>
      <trkpt lat="45.27708" lon="5.38189">
        <ele>647.6</ele>
        <time>2022-04-28T12:49:41Z</time>
      </trkpt>
      <trkpt lat="45.27712" lon="5.3819">
        <ele>647.9</ele>
        <time>2022-04-28T12:49:42Z</time>
      </trkpt>
      <trkpt lat="45.27713" lon="5.3819">
        <ele>647.9</ele>
        <time>2022-04-28T12:49:43Z</time>
      </trkpt>
      <trkpt lat="45.27717" lon="5.38191">
        <ele>648.1</ele>
        <time>2022-04-28T12:49:44Z</time>
      </trkpt>
      <trkpt lat="45.27718" lon="5.38191">
        <ele>648.2</ele>
        <time>2022-04-28T12:49:45Z</time>
      </trkpt>
      <trkpt lat="45.27722" lon="5.38192">
        <ele>648.5</ele>
        <time>2022-04-28T12:49:46Z</time>
      </trkpt>
      <trkpt lat="45.27726" lon="5.38193">
        <ele>648.7</ele>
        <time>2022-04-28T12:49:47Z</time>
      </trkpt>
      <trkpt lat="45.27727" lon="5.38193">
        <ele>648.8</ele>
        <time>2022-04-28T12:49:48Z</time>
      </trkpt>
      <trkpt lat="45.27731" lon="5.38195">
        <ele>649</ele>
        <time>2022-04-28T12:49:49Z</time>
      </trkpt>
      <trkpt lat="45.27732" lon="5.38195">
        <ele>649.1</ele>
        <time>2022-04-28T12:49:50Z</time>
      </trkpt>
      <trkpt lat="45.27735" lon="5.38197">
        <ele>649.3</ele>
        <time>2022-04-28T12:49:51Z</time>
      </trkpt>
      <trkpt lat="45.27736" lon="5.38197">
        <ele>649.4</ele>
        <time>2022-04-28T12:49:52Z</time>
      </trkpt>
      <trkpt lat="45.2774" lon="5.38199">
        <ele>649.7</ele>
        <time>2022-04-28T12:49:53Z</time>
      </trkpt>
      <trkpt lat="45.27741" lon="5.382">
        <ele>649.8</ele>
        <time>2022-04-28T12:49:54Z</time>
      </trkpt>
      <trkpt lat="45.27744" lon="5.38202">
        <ele>650</ele>
        <time>2022-04-28T12:49:55Z</time>
      </trkpt>
      <trkpt lat="45.27744" lon="5.38202">
        <ele>650</ele>
        <time>2022-04-28T12:49:56Z</time>
      </trkpt>
      <trkpt lat="45.27747" lon="5.38203">
        <ele>650.2</ele>
        <time>2022-04-28T12:49:57Z</time>
      </trkpt>
      <trkpt lat="45.27751" lon="5.38205">
        <ele>650.5</ele>
        <time>2022-04-28T12:49:58Z</time>
      </trkpt>
      <trkpt lat="45.27752" lon="5.38206">
        <ele>650.6</ele>
        <time>2022-04-28T12:49:59Z</time>
      </trkpt>
      <trkpt lat="45.27756" lon="5.38208">
        <ele>650.8</ele>
        <time>2022-04-28T12:50:00Z</time>
      </trkpt>
      <trkpt lat="45.27757" lon="5.38208">
        <ele>650.9</ele>
        <time>2022-04-28T12:50:01Z</time>
      </trkpt>
      <trkpt lat="45.2776" lon="5.3821">
        <ele>651.1</ele>
        <time>2022-04-28T12:50:02Z</time>
      </trkpt>
      <trkpt lat="45.27761" lon="5.38211">
        <ele>651.2</ele>
        <time>2022-04-28T12:50:03Z</time>
      </trkpt>
      <trkpt lat="45.27764" lon="5.38213">
        <ele>651.4</ele>
        <time>2022-04-28T12:50:04Z</time>
      </trkpt>
      <trkpt lat="45.27766" lon="5.38214">
        <ele>651.5</ele>
        <time>2022-04-28T12:50:05Z</time>
      </trkpt>
      <trkpt lat="45.27769" lon="5.38216">
        <ele>651.7</ele>
        <time>2022-04-28T12:50:06Z</time>
      </trkpt>
      <trkpt lat="45.27769" lon="5.38216">
        <ele>651.7</ele>
        <time>2022-04-28T12:50:07Z</time>
      </trkpt>
      <trkpt lat="45.27773" lon="5.38219">
        <ele>652</ele>
        <time>2022-04-28T12:50:08Z</time>
      </trkpt>
      <trkpt lat="45.27774" lon="5.3822">
        <ele>652</ele>
        <time>2022-04-28T12:50:09Z</time>
      </trkpt>
      <trkpt lat="45.27777" lon="5.38224">
        <ele>652.3</ele>
        <time>2022-04-28T12:50:10Z</time>
      </trkpt>
      <trkpt lat="45.27778" lon="5.38225">
        <ele>652.4</ele>
        <time>2022-04-28T12:50:11Z</time>
      </trkpt>
      <trkpt lat="45.2778" lon="5.38229">
        <ele>652.6</ele>
        <time>2022-04-28T12:50:12Z</time>
      </trkpt>
      <trkpt lat="45.27781" lon="5.3823">
        <ele>652.7</ele>
        <time>2022-04-28T12:50:13Z</time>
      </trkpt>
      <trkpt lat="45.27782" lon="5.38235">
        <ele>652.9</ele>
        <time>2022-04-28T12:50:14Z</time>
      </trkpt>
      <trkpt lat="45.27783" lon="5.38237">
        <ele>653</ele>
        <time>2022-04-28T12:50:15Z</time>
      </trkpt>
      <trkpt lat="45.27784" lon="5.38241">
        <ele>653.2</ele>
        <time>2022-04-28T12:50:16Z</time>
      </trkpt>
      <trkpt lat="45.27785" lon="5.38243">
        <ele>653.3</ele>
        <time>2022-04-28T12:50:17Z</time>
      </trkpt>
      <trkpt lat="45.27786" lon="5.38247">
        <ele>653.5</ele>
        <time>2022-04-28T12:50:18Z</time>
      </trkpt>
      <trkpt lat="45.27786" lon="5.38249">
        <ele>653.6</ele>
        <time>2022-04-28T12:50:19Z</time>
      </trkpt>
      <trkpt lat="45.27787" lon="5.38254">
        <ele>653.8</ele>
        <time>2022-04-28T12:50:20Z</time>
      </trkpt>
      <trkpt lat="45.27788" lon="5.38256">
        <ele>653.9</ele>
        <time>2022-04-28T12:50:21Z</time>
      </trkpt>
      <trkpt lat="45.27789" lon="5.3826">
        <ele>654.1</ele>
        <time>2022-04-28T12:50:22Z</time>
      </trkpt>
      <trkpt lat="45.27789" lon="5.38262">
        <ele>654.1</ele>
        <time>2022-04-28T12:50:23Z</time>
      </trkpt>
      <trkpt lat="45.2779" lon="5.38267">
        <ele>654.4</ele>
        <time>2022-04-28T12:50:24Z</time>
      </trkpt>
      <trkpt lat="45.2779" lon="5.38269">
        <ele>654.4</ele>
        <time>2022-04-28T12:50:25Z</time>
      </trkpt>
      <trkpt lat="45.27791" lon="5.38274">
        <ele>654.6</ele>
        <time>2022-04-28T12:50:26Z</time>
      </trkpt>
      <trkpt lat="45.27791" lon="5.38275">
        <ele>654.7</ele>
        <time>2022-04-28T12:50:27Z</time>
      </trkpt>
      <trkpt lat="45.27792" lon="5.3828">
        <ele>654.9</ele>
        <time>2022-04-28T12:50:28Z</time>
      </trkpt>
      <trkpt lat="45.27792" lon="5.38282">
        <ele>655</ele>
        <time>2022-04-28T12:50:29Z</time>
      </trkpt>
      <trkpt lat="45.27792" lon="5.38286">
        <ele>655.2</ele>
        <time>2022-04-28T12:50:30Z</time>
      </trkpt>
      <trkpt lat="45.27793" lon="5.38291">
        <ele>655.4</ele>
        <time>2022-04-28T12:50:31Z</time>
      </trkpt>
      <trkpt lat="45.27794" lon="5.38293">
        <ele>655.5</ele>
        <time>2022-04-28T12:50:32Z</time>
      </trkpt>
      <trkpt lat="45.27795" lon="5.38297">
        <ele>655.7</ele>
        <time>2022-04-28T12:50:33Z</time>
      </trkpt>
      <trkpt lat="45.27796" lon="5.38299">
        <ele>655.7</ele>
        <time>2022-04-28T12:50:34Z</time>
      </trkpt>
      <trkpt lat="45.27797" lon="5.38304">
        <ele>656</ele>
        <time>2022-04-28T12:50:35Z</time>
      </trkpt>
      <trkpt lat="45.27797" lon="5.38305">
        <ele>656</ele>
        <time>2022-04-28T12:50:36Z</time>
      </trkpt>
      <trkpt lat="45.27798" lon="5.3831">
        <ele>656.2</ele>
        <time>2022-04-28T12:50:37Z</time>
      </trkpt>
      <trkpt lat="45.27798" lon="5.38311">
        <ele>656.3</ele>
        <time>2022-04-28T12:50:38Z</time>
      </trkpt>
      <trkpt lat="45.27799" lon="5.38314">
        <ele>656.4</ele>
        <time>2022-04-28T12:50:39Z</time>
      </trkpt>
      <trkpt lat="45.278" lon="5.3832">
        <ele>656.7</ele>
        <time>2022-04-28T12:50:41Z</time>
      </trkpt>
      <trkpt lat="45.27801" lon="5.38325">
        <ele>656.9</ele>
        <time>2022-04-28T12:50:42Z</time>
      </trkpt>
      <trkpt lat="45.27801" lon="5.38327">
        <ele>657</ele>
        <time>2022-04-28T12:50:43Z</time>
      </trkpt>
      <trkpt lat="45.27802" lon="5.38334">
        <ele>657.3</ele>
        <time>2022-04-28T12:50:45Z</time>
      </trkpt>
      <trkpt lat="45.27802" lon="5.38337">
        <ele>657.4</ele>
        <time>2022-04-28T12:50:46Z</time>
      </trkpt>
      <trkpt lat="45.27803" lon="5.38344">
        <ele>657.7</ele>
        <time>2022-04-28T12:50:48Z</time>
      </trkpt>
      <trkpt lat="45.27804" lon="5.38351">
        <ele>658</ele>
        <time>2022-04-28T12:50:50Z</time>
      </trkpt>
      <trkpt lat="45.27804" lon="5.38356">
        <ele>658.2</ele>
        <time>2022-04-28T12:50:51Z</time>
      </trkpt>
      <trkpt lat="45.27804" lon="5.38358">
        <ele>658.3</ele>
        <time>2022-04-28T12:50:52Z</time>
      </trkpt>
      <trkpt lat="45.27805" lon="5.38363">
        <ele>658.5</ele>
        <time>2022-04-28T12:50:53Z</time>
      </trkpt>
      <trkpt lat="45.27805" lon="5.38365">
        <ele>658.6</ele>
        <time>2022-04-28T12:50:54Z</time>
      </trkpt>
      <trkpt lat="45.27805" lon="5.38367">
        <ele>658.7</ele>
        <time>2022-04-28T12:50:55Z</time>
      </trkpt>
      <trkpt lat="45.27805" lon="5.38374">
        <ele>659</ele>
        <time>2022-04-28T12:50:57Z</time>
      </trkpt>
      <trkpt lat="45.27805" lon="5.38379">
        <ele>659.2</ele>
        <time>2022-04-28T12:50:58Z</time>
      </trkpt>
      <trkpt lat="45.27805" lon="5.38381">
        <ele>659.3</ele>
        <time>2022-04-28T12:50:59Z</time>
      </trkpt>
      <trkpt lat="45.27805" lon="5.38387">
        <ele>659.5</ele>
        <time>2022-04-28T12:51:00Z</time>
      </trkpt>
      <trkpt lat="45.27805" lon="5.38388">
        <ele>659.6</ele>
        <time>2022-04-28T12:51:01Z</time>
      </trkpt>
      <trkpt lat="45.27806" lon="5.38394">
        <ele>659.8</ele>
        <time>2022-04-28T12:51:02Z</time>
      </trkpt>
      <trkpt lat="45.27806" lon="5.38395">
        <ele>659.9</ele>
        <time>2022-04-28T12:51:03Z</time>
      </trkpt>
      <trkpt lat="45.27806" lon="5.384">
        <ele>660.1</ele>
        <time>2022-04-28T12:51:04Z</time>
      </trkpt>
      <trkpt lat="45.27806" lon="5.38402">
        <ele>660.2</ele>
        <time>2022-04-28T12:51:05Z</time>
      </trkpt>
      <trkpt lat="45.27806" lon="5.38407">
        <ele>660.4</ele>
        <time>2022-04-28T12:51:06Z</time>
      </trkpt>
      <trkpt lat="45.27807" lon="5.38409">
        <ele>660.5</ele>
        <time>2022-04-28T12:51:07Z</time>
      </trkpt>
      <trkpt lat="45.27807" lon="5.38413">
        <ele>660.6</ele>
        <time>2022-04-28T12:51:08Z</time>
      </trkpt>
      <trkpt lat="45.27806" lon="5.3842">
        <ele>661</ele>
        <time>2022-04-28T12:51:10Z</time>
      </trkpt>
      <trkpt lat="45.27806" lon="5.38425">
        <ele>661.2</ele>
        <time>2022-04-28T12:51:11Z</time>
      </trkpt>
      <trkpt lat="45.27806" lon="5.38427">
        <ele>661.3</ele>
        <time>2022-04-28T12:51:12Z</time>
      </trkpt>
      <trkpt lat="45.27806" lon="5.38432">
        <ele>661.5</ele>
        <time>2022-04-28T12:51:13Z</time>
      </trkpt>
      <trkpt lat="45.27806" lon="5.38433">
        <ele>661.6</ele>
        <time>2022-04-28T12:51:14Z</time>
      </trkpt>
      <trkpt lat="45.27806" lon="5.38439">
        <ele>661.8</ele>
        <time>2022-04-28T12:51:15Z</time>
      </trkpt>
      <trkpt lat="45.27806" lon="5.3844">
        <ele>661.9</ele>
        <time>2022-04-28T12:51:16Z</time>
      </trkpt>
      <trkpt lat="45.27805" lon="5.38445">
        <ele>662.1</ele>
        <time>2022-04-28T12:51:17Z</time>
      </trkpt>
      <trkpt lat="45.27805" lon="5.38447">
        <ele>662.2</ele>
        <time>2022-04-28T12:51:18Z</time>
      </trkpt>
      <trkpt lat="45.27805" lon="5.38452">
        <ele>662.5</ele>
        <time>2022-04-28T12:51:19Z</time>
      </trkpt>
      <trkpt lat="45.27805" lon="5.38454">
        <ele>662.6</ele>
        <time>2022-04-28T12:51:20Z</time>
      </trkpt>
      <trkpt lat="45.27804" lon="5.3846">
        <ele>662.8</ele>
        <time>2022-04-28T12:51:21Z</time>
      </trkpt>
      <trkpt lat="45.27804" lon="5.38462">
        <ele>662.9</ele>
        <time>2022-04-28T12:51:22Z</time>
      </trkpt>
      <trkpt lat="45.27804" lon="5.38466">
        <ele>662.8</ele>
        <time>2022-04-28T12:51:23Z</time>
      </trkpt>
      <trkpt lat="45.27804" lon="5.38468">
        <ele>662.8</ele>
        <time>2022-04-28T12:51:24Z</time>
      </trkpt>
      <trkpt lat="45.27808" lon="5.38469">
        <ele>662.8</ele>
        <time>2022-04-28T12:51:25Z</time>
      </trkpt>
      <trkpt lat="45.27809" lon="5.38469">
        <ele>662.8</ele>
        <time>2022-04-28T12:51:26Z</time>
      </trkpt>
      <trkpt lat="45.27812" lon="5.38467">
        <ele>662.8</ele>
        <time>2022-04-28T12:51:27Z</time>
      </trkpt>
      <trkpt lat="45.27812" lon="5.38465">
        <ele>662.8</ele>
        <time>2022-04-28T12:51:28Z</time>
      </trkpt>
      <trkpt lat="45.27812" lon="5.38461">
        <ele>662.8</ele>
        <time>2022-04-28T12:51:29Z</time>
      </trkpt>
      <trkpt lat="45.27812" lon="5.38457">
        <ele>662.9</ele>
        <time>2022-04-28T12:51:30Z</time>
      </trkpt>
      <trkpt lat="45.27813" lon="5.38453">
        <ele>662.9</ele>
        <time>2022-04-28T12:51:31Z</time>
      </trkpt>
      <trkpt lat="45.27813" lon="5.38448">
        <ele>663.1</ele>
        <time>2022-04-28T12:51:32Z</time>
      </trkpt>
      <trkpt lat="45.27814" lon="5.38446">
        <ele>663.1</ele>
        <time>2022-04-28T12:51:33Z</time>
      </trkpt>
      <trkpt lat="45.27815" lon="5.38441">
        <ele>663.2</ele>
        <time>2022-04-28T12:51:34Z</time>
      </trkpt>
      <trkpt lat="45.27815" lon="5.38439">
        <ele>663.3</ele>
        <time>2022-04-28T12:51:35Z</time>
      </trkpt>
      <trkpt lat="45.27815" lon="5.38437">
        <ele>663.4</ele>
        <time>2022-04-28T12:51:36Z</time>
      </trkpt>
      <trkpt lat="45.27816" lon="5.38432">
        <ele>663.5</ele>
        <time>2022-04-28T12:51:38Z</time>
      </trkpt>
      <trkpt lat="45.27816" lon="5.38427">
        <ele>663.7</ele>
        <time>2022-04-28T12:51:39Z</time>
      </trkpt>
      <trkpt lat="45.27817" lon="5.38422">
        <ele>664</ele>
        <time>2022-04-28T12:51:40Z</time>
      </trkpt>
      <trkpt lat="45.27817" lon="5.3842">
        <ele>664.1</ele>
        <time>2022-04-28T12:51:41Z</time>
      </trkpt>
      <trkpt lat="45.27817" lon="5.38415">
        <ele>664.4</ele>
        <time>2022-04-28T12:51:43Z</time>
      </trkpt>
      <trkpt lat="45.27817" lon="5.38413">
        <ele>664.4</ele>
        <time>2022-04-28T12:51:44Z</time>
      </trkpt>
      <trkpt lat="45.27818" lon="5.38409">
        <ele>664.7</ele>
        <time>2022-04-28T12:51:45Z</time>
      </trkpt>
      <trkpt lat="45.27819" lon="5.38405">
        <ele>665</ele>
        <time>2022-04-28T12:51:46Z</time>
      </trkpt>
      <trkpt lat="45.2782" lon="5.38402">
        <ele>665.2</ele>
        <time>2022-04-28T12:51:47Z</time>
      </trkpt>
      <trkpt lat="45.2782" lon="5.38398">
        <ele>665.5</ele>
        <time>2022-04-28T12:51:49Z</time>
      </trkpt>
      <trkpt lat="45.27822" lon="5.38394">
        <ele>665.9</ele>
        <time>2022-04-28T12:51:50Z</time>
      </trkpt>
      <trkpt lat="45.27822" lon="5.38393">
        <ele>666</ele>
        <time>2022-04-28T12:51:51Z</time>
      </trkpt>
      <trkpt lat="45.27824" lon="5.38389">
        <ele>666.4</ele>
        <time>2022-04-28T12:51:53Z</time>
      </trkpt>
      <trkpt lat="45.27824" lon="5.38388">
        <ele>666.6</ele>
        <time>2022-04-28T12:51:54Z</time>
      </trkpt>
      <trkpt lat="45.27825" lon="5.38385">
        <ele>666.9</ele>
        <time>2022-04-28T12:51:55Z</time>
      </trkpt>
      <trkpt lat="45.27825" lon="5.38383">
        <ele>667.1</ele>
        <time>2022-04-28T12:51:57Z</time>
      </trkpt>
      <trkpt lat="45.27825" lon="5.38378">
        <ele>667.7</ele>
        <time>2022-04-28T12:51:58Z</time>
      </trkpt>
      <trkpt lat="45.27825" lon="5.38376">
        <ele>667.9</ele>
        <time>2022-04-28T12:51:59Z</time>
      </trkpt>
      <trkpt lat="45.27829" lon="5.38375">
        <ele>668.4</ele>
        <time>2022-04-28T12:52:01Z</time>
      </trkpt>
      <trkpt lat="45.2783" lon="5.38373">
        <ele>668.7</ele>
        <time>2022-04-28T12:52:02Z</time>
      </trkpt>
      <trkpt lat="45.27831" lon="5.38371">
        <ele>668.9</ele>
        <time>2022-04-28T12:52:03Z</time>
      </trkpt>
      <trkpt lat="45.27831" lon="5.3837">
        <ele>669.2</ele>
        <time>2022-04-28T12:52:04Z</time>
      </trkpt>
      <trkpt lat="45.27832" lon="5.38367">
        <ele>669.4</ele>
        <time>2022-04-28T12:52:05Z</time>
      </trkpt>
      <trkpt lat="45.27833" lon="5.38366">
        <ele>669.7</ele>
        <time>2022-04-28T12:52:06Z</time>
      </trkpt>
      <trkpt lat="45.27836" lon="5.38363">
        <ele>670.2</ele>
        <time>2022-04-28T12:52:08Z</time>
      </trkpt>
      <trkpt lat="45.27837" lon="5.3836">
        <ele>670.6</ele>
        <time>2022-04-28T12:52:09Z</time>
      </trkpt>
      <trkpt lat="45.27837" lon="5.38358">
        <ele>670.7</ele>
        <time>2022-04-28T12:52:10Z</time>
      </trkpt>
      <trkpt lat="45.27838" lon="5.38357">
        <ele>670.9</ele>
        <time>2022-04-28T12:52:11Z</time>
      </trkpt>
      <trkpt lat="45.27838" lon="5.38355">
        <ele>671.1</ele>
        <time>2022-04-28T12:52:12Z</time>
      </trkpt>
      <trkpt lat="45.27838" lon="5.38352">
        <ele>671.4</ele>
        <time>2022-04-28T12:52:13Z</time>
      </trkpt>
      <trkpt lat="45.27839" lon="5.3835">
        <ele>671.6</ele>
        <time>2022-04-28T12:52:14Z</time>
      </trkpt>
      <trkpt lat="45.2784" lon="5.38349">
        <ele>671.8</ele>
        <time>2022-04-28T12:52:15Z</time>
      </trkpt>
      <trkpt lat="45.2784" lon="5.38347">
        <ele>672</ele>
        <time>2022-04-28T12:52:16Z</time>
      </trkpt>
      <trkpt lat="45.27841" lon="5.38345">
        <ele>672.2</ele>
        <time>2022-04-28T12:52:17Z</time>
      </trkpt>
      <trkpt lat="45.27842" lon="5.38343">
        <ele>672.4</ele>
        <time>2022-04-28T12:52:18Z</time>
      </trkpt>
      <trkpt lat="45.27842" lon="5.38341">
        <ele>672.6</ele>
        <time>2022-04-28T12:52:19Z</time>
      </trkpt>
      <trkpt lat="45.27843" lon="5.3834">
        <ele>672.8</ele>
        <time>2022-04-28T12:52:20Z</time>
      </trkpt>
      <trkpt lat="45.27843" lon="5.38338">
        <ele>673</ele>
        <time>2022-04-28T12:52:21Z</time>
      </trkpt>
      <trkpt lat="45.27844" lon="5.38336">
        <ele>673.2</ele>
        <time>2022-04-28T12:52:22Z</time>
      </trkpt>
      <trkpt lat="45.27845" lon="5.38333">
        <ele>673.4</ele>
        <time>2022-04-28T12:52:23Z</time>
      </trkpt>
      <trkpt lat="45.27845" lon="5.38331">
        <ele>673.7</ele>
        <time>2022-04-28T12:52:24Z</time>
      </trkpt>
      <trkpt lat="45.27846" lon="5.38329">
        <ele>673.9</ele>
        <time>2022-04-28T12:52:25Z</time>
      </trkpt>
      <trkpt lat="45.27846" lon="5.38327">
        <ele>674.1</ele>
        <time>2022-04-28T12:52:26Z</time>
      </trkpt>
      <trkpt lat="45.27847" lon="5.38325">
        <ele>674.3</ele>
        <time>2022-04-28T12:52:27Z</time>
      </trkpt>
      <trkpt lat="45.27849" lon="5.38322">
        <ele>674.6</ele>
        <time>2022-04-28T12:52:28Z</time>
      </trkpt>
      <trkpt lat="45.2785" lon="5.38321">
        <ele>674.7</ele>
        <time>2022-04-28T12:52:29Z</time>
      </trkpt>
      <trkpt lat="45.27851" lon="5.3832">
        <ele>675</ele>
        <time>2022-04-28T12:52:30Z</time>
      </trkpt>
      <trkpt lat="45.27852" lon="5.38319">
        <ele>675.1</ele>
        <time>2022-04-28T12:52:31Z</time>
      </trkpt>
      <trkpt lat="45.27854" lon="5.38315">
        <ele>675.4</ele>
        <time>2022-04-28T12:52:32Z</time>
      </trkpt>
      <trkpt lat="45.27854" lon="5.38314">
        <ele>675.6</ele>
        <time>2022-04-28T12:52:33Z</time>
      </trkpt>
      <trkpt lat="45.27856" lon="5.38313">
        <ele>675.8</ele>
        <time>2022-04-28T12:52:34Z</time>
      </trkpt>
      <trkpt lat="45.27857" lon="5.38311">
        <ele>676</ele>
        <time>2022-04-28T12:52:35Z</time>
      </trkpt>
      <trkpt lat="45.27858" lon="5.38309">
        <ele>676.2</ele>
        <time>2022-04-28T12:52:36Z</time>
      </trkpt>
      <trkpt lat="45.27859" lon="5.38307">
        <ele>676.4</ele>
        <time>2022-04-28T12:52:37Z</time>
      </trkpt>
      <trkpt lat="45.2786" lon="5.38305">
        <ele>676.5</ele>
        <time>2022-04-28T12:52:38Z</time>
      </trkpt>
      <trkpt lat="45.27861" lon="5.38304">
        <ele>676.7</ele>
        <time>2022-04-28T12:52:39Z</time>
      </trkpt>
      <trkpt lat="45.27862" lon="5.38302">
        <ele>676.9</ele>
        <time>2022-04-28T12:52:40Z</time>
      </trkpt>
      <trkpt lat="45.27863" lon="5.38301">
        <ele>677.1</ele>
        <time>2022-04-28T12:52:41Z</time>
      </trkpt>
      <trkpt lat="45.27865" lon="5.38298">
        <ele>677.3</ele>
        <time>2022-04-28T12:52:42Z</time>
      </trkpt>
      <trkpt lat="45.27865" lon="5.38297">
        <ele>677.4</ele>
        <time>2022-04-28T12:52:43Z</time>
      </trkpt>
      <trkpt lat="45.27866" lon="5.38296">
        <ele>677.5</ele>
        <time>2022-04-28T12:52:44Z</time>
      </trkpt>
      <trkpt lat="45.27867" lon="5.38295">
        <ele>677.7</ele>
        <time>2022-04-28T12:52:45Z</time>
      </trkpt>
      <trkpt lat="45.27868" lon="5.38294">
        <ele>677.8</ele>
        <time>2022-04-28T12:52:46Z</time>
      </trkpt>
      <trkpt lat="45.27869" lon="5.38292">
        <ele>678.1</ele>
        <time>2022-04-28T12:52:47Z</time>
      </trkpt>
      <trkpt lat="45.2787" lon="5.3829">
        <ele>678.2</ele>
        <time>2022-04-28T12:52:48Z</time>
      </trkpt>
      <trkpt lat="45.27871" lon="5.38288">
        <ele>678.4</ele>
        <time>2022-04-28T12:52:49Z</time>
      </trkpt>
      <trkpt lat="45.27872" lon="5.38286">
        <ele>678.6</ele>
        <time>2022-04-28T12:52:51Z</time>
      </trkpt>
      <trkpt lat="45.27874" lon="5.38283">
        <ele>678.9</ele>
        <time>2022-04-28T12:52:52Z</time>
      </trkpt>
      <trkpt lat="45.27875" lon="5.38282">
        <ele>679.1</ele>
        <time>2022-04-28T12:52:53Z</time>
      </trkpt>
      <trkpt lat="45.27877" lon="5.3828">
        <ele>679.3</ele>
        <time>2022-04-28T12:52:54Z</time>
      </trkpt>
      <trkpt lat="45.27878" lon="5.38279">
        <ele>679.4</ele>
        <time>2022-04-28T12:52:55Z</time>
      </trkpt>
      <trkpt lat="45.27879" lon="5.38277">
        <ele>679.6</ele>
        <time>2022-04-28T12:52:56Z</time>
      </trkpt>
      <trkpt lat="45.27881" lon="5.38275">
        <ele>679.9</ele>
        <time>2022-04-28T12:52:58Z</time>
      </trkpt>
      <trkpt lat="45.27882" lon="5.38274">
        <ele>680.1</ele>
        <time>2022-04-28T12:52:59Z</time>
      </trkpt>
      <trkpt lat="45.27884" lon="5.38273">
        <ele>680.2</ele>
        <time>2022-04-28T12:53:00Z</time>
      </trkpt>
      <trkpt lat="45.27887" lon="5.38269">
        <ele>680.6</ele>
        <time>2022-04-28T12:53:02Z</time>
      </trkpt>
      <trkpt lat="45.27888" lon="5.38268">
        <ele>680.8</ele>
        <time>2022-04-28T12:53:03Z</time>
      </trkpt>
      <trkpt lat="45.2789" lon="5.38265">
        <ele>681.1</ele>
        <time>2022-04-28T12:53:04Z</time>
      </trkpt>
      <trkpt lat="45.27891" lon="5.38265">
        <ele>681.2</ele>
        <time>2022-04-28T12:53:05Z</time>
      </trkpt>
      <trkpt lat="45.27892" lon="5.38263">
        <ele>681.4</ele>
        <time>2022-04-28T12:53:06Z</time>
      </trkpt>
      <trkpt lat="45.27895" lon="5.3826">
        <ele>681.7</ele>
        <time>2022-04-28T12:53:08Z</time>
      </trkpt>
      <trkpt lat="45.27895" lon="5.38258">
        <ele>681.9</ele>
        <time>2022-04-28T12:53:09Z</time>
      </trkpt>
      <trkpt lat="45.27897" lon="5.38256">
        <ele>682.1</ele>
        <time>2022-04-28T12:53:10Z</time>
      </trkpt>
      <trkpt lat="45.27898" lon="5.38254">
        <ele>682.3</ele>
        <time>2022-04-28T12:53:11Z</time>
      </trkpt>
      <trkpt lat="45.279" lon="5.3825">
        <ele>682.7</ele>
        <time>2022-04-28T12:53:13Z</time>
      </trkpt>
      <trkpt lat="45.27902" lon="5.38246">
        <ele>683</ele>
        <time>2022-04-28T12:53:14Z</time>
      </trkpt>
      <trkpt lat="45.27902" lon="5.38245">
        <ele>683.1</ele>
        <time>2022-04-28T12:53:15Z</time>
      </trkpt>
      <trkpt lat="45.27903" lon="5.38243">
        <ele>683.3</ele>
        <time>2022-04-28T12:53:16Z</time>
      </trkpt>
      <trkpt lat="45.27904" lon="5.38241">
        <ele>683.5</ele>
        <time>2022-04-28T12:53:17Z</time>
      </trkpt>
      <trkpt lat="45.27905" lon="5.3824">
        <ele>683.6</ele>
        <time>2022-04-28T12:53:18Z</time>
      </trkpt>
      <trkpt lat="45.27905" lon="5.38238">
        <ele>683.8</ele>
        <time>2022-04-28T12:53:19Z</time>
      </trkpt>
      <trkpt lat="45.27907" lon="5.38236">
        <ele>684</ele>
        <time>2022-04-28T12:53:20Z</time>
      </trkpt>
      <trkpt lat="45.27907" lon="5.38233">
        <ele>684.2</ele>
        <time>2022-04-28T12:53:21Z</time>
      </trkpt>
      <trkpt lat="45.27907" lon="5.38231">
        <ele>684.3</ele>
        <time>2022-04-28T12:53:22Z</time>
      </trkpt>
      <trkpt lat="45.27908" lon="5.38229">
        <ele>684.5</ele>
        <time>2022-04-28T12:53:23Z</time>
      </trkpt>
      <trkpt lat="45.27909" lon="5.38227">
        <ele>684.7</ele>
        <time>2022-04-28T12:53:24Z</time>
      </trkpt>
      <trkpt lat="45.2791" lon="5.38226">
        <ele>684.9</ele>
        <time>2022-04-28T12:53:25Z</time>
      </trkpt>
      <trkpt lat="45.2791" lon="5.38223">
        <ele>685</ele>
        <time>2022-04-28T12:53:26Z</time>
      </trkpt>
      <trkpt lat="45.27911" lon="5.38221">
        <ele>685.2</ele>
        <time>2022-04-28T12:53:27Z</time>
      </trkpt>
      <trkpt lat="45.27911" lon="5.38219">
        <ele>685.4</ele>
        <time>2022-04-28T12:53:28Z</time>
      </trkpt>
      <trkpt lat="45.27912" lon="5.38217">
        <ele>685.6</ele>
        <time>2022-04-28T12:53:29Z</time>
      </trkpt>
      <trkpt lat="45.27913" lon="5.38213">
        <ele>685.9</ele>
        <time>2022-04-28T12:53:30Z</time>
      </trkpt>
      <trkpt lat="45.27913" lon="5.38212">
        <ele>686</ele>
        <time>2022-04-28T12:53:31Z</time>
      </trkpt>
      <trkpt lat="45.27914" lon="5.3821">
        <ele>686.1</ele>
        <time>2022-04-28T12:53:32Z</time>
      </trkpt>
      <trkpt lat="45.27915" lon="5.38208">
        <ele>686.3</ele>
        <time>2022-04-28T12:53:33Z</time>
      </trkpt>
      <trkpt lat="45.27915" lon="5.38205">
        <ele>686.5</ele>
        <time>2022-04-28T12:53:34Z</time>
      </trkpt>
      <trkpt lat="45.27916" lon="5.38203">
        <ele>686.7</ele>
        <time>2022-04-28T12:53:35Z</time>
      </trkpt>
      <trkpt lat="45.27917" lon="5.38201">
        <ele>686.9</ele>
        <time>2022-04-28T12:53:36Z</time>
      </trkpt>
      <trkpt lat="45.27917" lon="5.38199">
        <ele>687</ele>
        <time>2022-04-28T12:53:37Z</time>
      </trkpt>
      <trkpt lat="45.27918" lon="5.38197">
        <ele>687.2</ele>
        <time>2022-04-28T12:53:38Z</time>
      </trkpt>
      <trkpt lat="45.27918" lon="5.38194">
        <ele>687.4</ele>
        <time>2022-04-28T12:53:39Z</time>
      </trkpt>
      <trkpt lat="45.27918" lon="5.38192">
        <ele>687.5</ele>
        <time>2022-04-28T12:53:40Z</time>
      </trkpt>
      <trkpt lat="45.27918" lon="5.3819">
        <ele>687.7</ele>
        <time>2022-04-28T12:53:41Z</time>
      </trkpt>
      <trkpt lat="45.27919" lon="5.38187">
        <ele>687.8</ele>
        <time>2022-04-28T12:53:42Z</time>
      </trkpt>
      <trkpt lat="45.27919" lon="5.38185">
        <ele>688</ele>
        <time>2022-04-28T12:53:43Z</time>
      </trkpt>
      <trkpt lat="45.2792" lon="5.38181">
        <ele>688.3</ele>
        <time>2022-04-28T12:53:44Z</time>
      </trkpt>
      <trkpt lat="45.2792" lon="5.3818">
        <ele>688.4</ele>
        <time>2022-04-28T12:53:45Z</time>
      </trkpt>
      <trkpt lat="45.27921" lon="5.38176">
        <ele>688.7</ele>
        <time>2022-04-28T12:53:46Z</time>
      </trkpt>
      <trkpt lat="45.27921" lon="5.38174">
        <ele>688.7</ele>
        <time>2022-04-28T12:53:47Z</time>
      </trkpt>
      <trkpt lat="45.27921" lon="5.38172">
        <ele>688.9</ele>
        <time>2022-04-28T12:53:48Z</time>
      </trkpt>
      <trkpt lat="45.27922" lon="5.3817">
        <ele>689.1</ele>
        <time>2022-04-28T12:53:49Z</time>
      </trkpt>
      <trkpt lat="45.27923" lon="5.38167">
        <ele>689.2</ele>
        <time>2022-04-28T12:53:50Z</time>
      </trkpt>
      <trkpt lat="45.27922" lon="5.38165">
        <ele>689.4</ele>
        <time>2022-04-28T12:53:51Z</time>
      </trkpt>
      <trkpt lat="45.27922" lon="5.38163">
        <ele>689.5</ele>
        <time>2022-04-28T12:53:52Z</time>
      </trkpt>
      <trkpt lat="45.27923" lon="5.3816">
        <ele>689.7</ele>
        <time>2022-04-28T12:53:53Z</time>
      </trkpt>
      <trkpt lat="45.27923" lon="5.38157">
        <ele>689.9</ele>
        <time>2022-04-28T12:53:54Z</time>
      </trkpt>
      <trkpt lat="45.27923" lon="5.38155">
        <ele>690</ele>
        <time>2022-04-28T12:53:55Z</time>
      </trkpt>
      <trkpt lat="45.27923" lon="5.38153">
        <ele>690.2</ele>
        <time>2022-04-28T12:53:56Z</time>
      </trkpt>
      <trkpt lat="45.27923" lon="5.3815">
        <ele>690.3</ele>
        <time>2022-04-28T12:53:57Z</time>
      </trkpt>
      <trkpt lat="45.27923" lon="5.38148">
        <ele>690.5</ele>
        <time>2022-04-28T12:53:58Z</time>
      </trkpt>
      <trkpt lat="45.27924" lon="5.38145">
        <ele>690.7</ele>
        <time>2022-04-28T12:54:00Z</time>
      </trkpt>
      <trkpt lat="45.27924" lon="5.38141">
        <ele>690.9</ele>
        <time>2022-04-28T12:54:01Z</time>
      </trkpt>
      <trkpt lat="45.27924" lon="5.38139">
        <ele>691</ele>
        <time>2022-04-28T12:54:02Z</time>
      </trkpt>
      <trkpt lat="45.27925" lon="5.38132">
        <ele>691.4</ele>
        <time>2022-04-28T12:54:04Z</time>
      </trkpt>
      <trkpt lat="45.27925" lon="5.3813">
        <ele>691.5</ele>
        <time>2022-04-28T12:54:06Z</time>
      </trkpt>
      <trkpt lat="45.27924" lon="5.38128">
        <ele>691.7</ele>
        <time>2022-04-28T12:54:07Z</time>
      </trkpt>
      <trkpt lat="45.27924" lon="5.38125">
        <ele>691.9</ele>
        <time>2022-04-28T12:54:08Z</time>
      </trkpt>
      <trkpt lat="45.27924" lon="5.3812">
        <ele>692.2</ele>
        <time>2022-04-28T12:54:10Z</time>
      </trkpt>
      <trkpt lat="45.27923" lon="5.38117">
        <ele>692.4</ele>
        <time>2022-04-28T12:54:11Z</time>
      </trkpt>
      <trkpt lat="45.27923" lon="5.38112">
        <ele>692.7</ele>
        <time>2022-04-28T12:54:13Z</time>
      </trkpt>
      <trkpt lat="45.27923" lon="5.3811">
        <ele>692.8</ele>
        <time>2022-04-28T12:54:14Z</time>
      </trkpt>
      <trkpt lat="45.27922" lon="5.38108">
        <ele>693</ele>
        <time>2022-04-28T12:54:15Z</time>
      </trkpt>
      <trkpt lat="45.27922" lon="5.38104">
        <ele>693.2</ele>
        <time>2022-04-28T12:54:16Z</time>
      </trkpt>
      <trkpt lat="45.27921" lon="5.38102">
        <ele>693.3</ele>
        <time>2022-04-28T12:54:17Z</time>
      </trkpt>
      <trkpt lat="45.27921" lon="5.381">
        <ele>693.5</ele>
        <time>2022-04-28T12:54:18Z</time>
      </trkpt>
      <trkpt lat="45.2792" lon="5.38096">
        <ele>693.7</ele>
        <time>2022-04-28T12:54:20Z</time>
      </trkpt>
      <trkpt lat="45.27919" lon="5.38093">
        <ele>694</ele>
        <time>2022-04-28T12:54:21Z</time>
      </trkpt>
      <trkpt lat="45.27918" lon="5.38091">
        <ele>694.1</ele>
        <time>2022-04-28T12:54:22Z</time>
      </trkpt>
      <trkpt lat="45.27917" lon="5.38088">
        <ele>694.4</ele>
        <time>2022-04-28T12:54:23Z</time>
      </trkpt>
      <trkpt lat="45.27916" lon="5.38086">
        <ele>694.5</ele>
        <time>2022-04-28T12:54:24Z</time>
      </trkpt>
      <trkpt lat="45.27915" lon="5.38083">
        <ele>694.8</ele>
        <time>2022-04-28T12:54:25Z</time>
      </trkpt>
      <trkpt lat="45.27915" lon="5.38081">
        <ele>694.9</ele>
        <time>2022-04-28T12:54:26Z</time>
      </trkpt>
      <trkpt lat="45.27914" lon="5.38079">
        <ele>695.1</ele>
        <time>2022-04-28T12:54:27Z</time>
      </trkpt>
      <trkpt lat="45.27913" lon="5.38077">
        <ele>695.3</ele>
        <time>2022-04-28T12:54:28Z</time>
      </trkpt>
      <trkpt lat="45.27911" lon="5.38074">
        <ele>695.6</ele>
        <time>2022-04-28T12:54:29Z</time>
      </trkpt>
      <trkpt lat="45.2791" lon="5.38073">
        <ele>695.7</ele>
        <time>2022-04-28T12:54:30Z</time>
      </trkpt>
      <trkpt lat="45.27909" lon="5.3807">
        <ele>696</ele>
        <time>2022-04-28T12:54:31Z</time>
      </trkpt>
      <trkpt lat="45.27908" lon="5.38069">
        <ele>696.1</ele>
        <time>2022-04-28T12:54:32Z</time>
      </trkpt>
      <trkpt lat="45.27907" lon="5.38068">
        <ele>696.3</ele>
        <time>2022-04-28T12:54:33Z</time>
      </trkpt>
      <trkpt lat="45.27906" lon="5.38066">
        <ele>696.4</ele>
        <time>2022-04-28T12:54:34Z</time>
      </trkpt>
      <trkpt lat="45.27904" lon="5.38063">
        <ele>696.7</ele>
        <time>2022-04-28T12:54:35Z</time>
      </trkpt>
      <trkpt lat="45.27903" lon="5.38062">
        <ele>696.9</ele>
        <time>2022-04-28T12:54:36Z</time>
      </trkpt>
      <trkpt lat="45.27901" lon="5.3806">
        <ele>697.2</ele>
        <time>2022-04-28T12:54:37Z</time>
      </trkpt>
      <trkpt lat="45.27901" lon="5.38058">
        <ele>697.3</ele>
        <time>2022-04-28T12:54:38Z</time>
      </trkpt>
      <trkpt lat="45.279" lon="5.38057">
        <ele>697.5</ele>
        <time>2022-04-28T12:54:39Z</time>
      </trkpt>
      <trkpt lat="45.27899" lon="5.38054">
        <ele>697.7</ele>
        <time>2022-04-28T12:54:40Z</time>
      </trkpt>
      <trkpt lat="45.27898" lon="5.38052">
        <ele>697.9</ele>
        <time>2022-04-28T12:54:41Z</time>
      </trkpt>
      <trkpt lat="45.27897" lon="5.3805">
        <ele>698.1</ele>
        <time>2022-04-28T12:54:42Z</time>
      </trkpt>
      <trkpt lat="45.27896" lon="5.38049">
        <ele>698.3</ele>
        <time>2022-04-28T12:54:43Z</time>
      </trkpt>
      <trkpt lat="45.27895" lon="5.38047">
        <ele>698.4</ele>
        <time>2022-04-28T12:54:44Z</time>
      </trkpt>
      <trkpt lat="45.27893" lon="5.38044">
        <ele>698.8</ele>
        <time>2022-04-28T12:54:45Z</time>
      </trkpt>
      <trkpt lat="45.27893" lon="5.38042">
        <ele>698.9</ele>
        <time>2022-04-28T12:54:46Z</time>
      </trkpt>
      <trkpt lat="45.27892" lon="5.3804">
        <ele>699.1</ele>
        <time>2022-04-28T12:54:47Z</time>
      </trkpt>
      <trkpt lat="45.27891" lon="5.38039">
        <ele>699.2</ele>
        <time>2022-04-28T12:54:48Z</time>
      </trkpt>
      <trkpt lat="45.27891" lon="5.38036">
        <ele>699.5</ele>
        <time>2022-04-28T12:54:49Z</time>
      </trkpt>
      <trkpt lat="45.2789" lon="5.38034">
        <ele>699.6</ele>
        <time>2022-04-28T12:54:50Z</time>
      </trkpt>
      <trkpt lat="45.2789" lon="5.38033">
        <ele>699.7</ele>
        <time>2022-04-28T12:54:51Z</time>
      </trkpt>
      <trkpt lat="45.27889" lon="5.38032">
        <ele>699.9</ele>
        <time>2022-04-28T12:54:52Z</time>
      </trkpt>
      <trkpt lat="45.27888" lon="5.38029">
        <ele>700.2</ele>
        <time>2022-04-28T12:54:53Z</time>
      </trkpt>
      <trkpt lat="45.27887" lon="5.38027">
        <ele>700.3</ele>
        <time>2022-04-28T12:54:54Z</time>
      </trkpt>
      <trkpt lat="45.27887" lon="5.38026">
        <ele>700.5</ele>
        <time>2022-04-28T12:54:55Z</time>
      </trkpt>
      <trkpt lat="45.27886" lon="5.38021">
        <ele>700.9</ele>
        <time>2022-04-28T12:54:57Z</time>
      </trkpt>
      <trkpt lat="45.27886" lon="5.38019">
        <ele>701</ele>
        <time>2022-04-28T12:54:58Z</time>
      </trkpt>
      <trkpt lat="45.27885" lon="5.38015">
        <ele>701.4</ele>
        <time>2022-04-28T12:55:00Z</time>
      </trkpt>
      <trkpt lat="45.27885" lon="5.38014">
        <ele>701.5</ele>
        <time>2022-04-28T12:55:01Z</time>
      </trkpt>
      <trkpt lat="45.27885" lon="5.3801">
        <ele>701.9</ele>
        <time>2022-04-28T12:55:02Z</time>
      </trkpt>
      <trkpt lat="45.27885" lon="5.38009">
        <ele>702</ele>
        <time>2022-04-28T12:55:03Z</time>
      </trkpt>
      <trkpt lat="45.27887" lon="5.38005">
        <ele>702.4</ele>
        <time>2022-04-28T12:55:05Z</time>
      </trkpt>
      <trkpt lat="45.27887" lon="5.38004">
        <ele>702.5</ele>
        <time>2022-04-28T12:55:06Z</time>
      </trkpt>
      <trkpt lat="45.27889" lon="5.38001">
        <ele>702.9</ele>
        <time>2022-04-28T12:55:07Z</time>
      </trkpt>
      <trkpt lat="45.27889" lon="5.38">
        <ele>703.1</ele>
        <time>2022-04-28T12:55:08Z</time>
      </trkpt>
      <trkpt lat="45.27891" lon="5.37998">
        <ele>703.3</ele>
        <time>2022-04-28T12:55:09Z</time>
      </trkpt>
      <trkpt lat="45.27892" lon="5.37996">
        <ele>703.5</ele>
        <time>2022-04-28T12:55:10Z</time>
      </trkpt>
      <trkpt lat="45.27893" lon="5.37995">
        <ele>703.6</ele>
        <time>2022-04-28T12:55:11Z</time>
      </trkpt>
      <trkpt lat="45.27894" lon="5.37994">
        <ele>703.8</ele>
        <time>2022-04-28T12:55:12Z</time>
      </trkpt>
      <trkpt lat="45.27895" lon="5.37994">
        <ele>704</ele>
        <time>2022-04-28T12:55:13Z</time>
      </trkpt>
      <trkpt lat="45.27898" lon="5.37995">
        <ele>704.4</ele>
        <time>2022-04-28T12:55:15Z</time>
      </trkpt>
      <trkpt lat="45.27901" lon="5.37994">
        <ele>704.7</ele>
        <time>2022-04-28T12:55:16Z</time>
      </trkpt>
      <trkpt lat="45.27901" lon="5.37994">
        <ele>704.8</ele>
        <time>2022-04-28T12:55:17Z</time>
      </trkpt>
      <trkpt lat="45.27903" lon="5.37994">
        <ele>705.1</ele>
        <time>2022-04-28T12:55:18Z</time>
      </trkpt>
      <trkpt lat="45.27905" lon="5.37994">
        <ele>705.3</ele>
        <time>2022-04-28T12:55:19Z</time>
      </trkpt>
      <trkpt lat="45.27908" lon="5.37996">
        <ele>705.6</ele>
        <time>2022-04-28T12:55:20Z</time>
      </trkpt>
      <trkpt lat="45.27909" lon="5.37996">
        <ele>705.7</ele>
        <time>2022-04-28T12:55:21Z</time>
      </trkpt>
      <trkpt lat="45.2791" lon="5.37996">
        <ele>705.9</ele>
        <time>2022-04-28T12:55:22Z</time>
      </trkpt>
      <trkpt lat="45.27912" lon="5.37997">
        <ele>706.2</ele>
        <time>2022-04-28T12:55:23Z</time>
      </trkpt>
      <trkpt lat="45.27915" lon="5.37998">
        <ele>706.5</ele>
        <time>2022-04-28T12:55:24Z</time>
      </trkpt>
      <trkpt lat="45.27916" lon="5.37998">
        <ele>706.6</ele>
        <time>2022-04-28T12:55:25Z</time>
      </trkpt>
      <trkpt lat="45.27917" lon="5.37998">
        <ele>706.7</ele>
        <time>2022-04-28T12:55:26Z</time>
      </trkpt>
      <trkpt lat="45.27919" lon="5.37998">
        <ele>706.9</ele>
        <time>2022-04-28T12:55:27Z</time>
      </trkpt>
      <trkpt lat="45.27921" lon="5.37999">
        <ele>707.1</ele>
        <time>2022-04-28T12:55:28Z</time>
      </trkpt>
      <trkpt lat="45.27922" lon="5.37999">
        <ele>707.3</ele>
        <time>2022-04-28T12:55:29Z</time>
      </trkpt>
      <trkpt lat="45.27924" lon="5.38">
        <ele>707.5</ele>
        <time>2022-04-28T12:55:30Z</time>
      </trkpt>
      <trkpt lat="45.27925" lon="5.38">
        <ele>707.6</ele>
        <time>2022-04-28T12:55:31Z</time>
      </trkpt>
      <trkpt lat="45.27927" lon="5.38">
        <ele>707.8</ele>
        <time>2022-04-28T12:55:32Z</time>
      </trkpt>
      <trkpt lat="45.27928" lon="5.37999">
        <ele>708</ele>
        <time>2022-04-28T12:55:33Z</time>
      </trkpt>
      <trkpt lat="45.2793" lon="5.37999">
        <ele>708.2</ele>
        <time>2022-04-28T12:55:34Z</time>
      </trkpt>
      <trkpt lat="45.27932" lon="5.37999">
        <ele>708.3</ele>
        <time>2022-04-28T12:55:35Z</time>
      </trkpt>
      <trkpt lat="45.27934" lon="5.37998">
        <ele>708.5</ele>
        <time>2022-04-28T12:55:36Z</time>
      </trkpt>
      <trkpt lat="45.27935" lon="5.37998">
        <ele>708.7</ele>
        <time>2022-04-28T12:55:37Z</time>
      </trkpt>
      <trkpt lat="45.27938" lon="5.37998">
        <ele>709</ele>
        <time>2022-04-28T12:55:39Z</time>
      </trkpt>
      <trkpt lat="45.27942" lon="5.37998">
        <ele>709.4</ele>
        <time>2022-04-28T12:55:41Z</time>
      </trkpt>
      <trkpt lat="45.27944" lon="5.37997">
        <ele>709.6</ele>
        <time>2022-04-28T12:55:42Z</time>
      </trkpt>
      <trkpt lat="45.27945" lon="5.37996">
        <ele>709.7</ele>
        <time>2022-04-28T12:55:43Z</time>
      </trkpt>
      <trkpt lat="45.27948" lon="5.37999">
        <ele>710.2</ele>
        <time>2022-04-28T12:55:45Z</time>
      </trkpt>
      <trkpt lat="45.2795" lon="5.37999">
        <ele>710.3</ele>
        <time>2022-04-28T12:55:46Z</time>
      </trkpt>
      <trkpt lat="45.27951" lon="5.37999">
        <ele>710.5</ele>
        <time>2022-04-28T12:55:47Z</time>
      </trkpt>
      <trkpt lat="45.27953" lon="5.37999">
        <ele>710.7</ele>
        <time>2022-04-28T12:55:48Z</time>
      </trkpt>
      <trkpt lat="45.27954" lon="5.37999">
        <ele>710.9</ele>
        <time>2022-04-28T12:55:49Z</time>
      </trkpt>
      <trkpt lat="45.27957" lon="5.37996">
        <ele>711.2</ele>
        <time>2022-04-28T12:55:51Z</time>
      </trkpt>
      <trkpt lat="45.2796" lon="5.37994">
        <ele>711.7</ele>
        <time>2022-04-28T12:55:53Z</time>
      </trkpt>
      <trkpt lat="45.27961" lon="5.37993">
        <ele>711.9</ele>
        <time>2022-04-28T12:55:54Z</time>
      </trkpt>
      <trkpt lat="45.27963" lon="5.37993">
        <ele>712.1</ele>
        <time>2022-04-28T12:55:55Z</time>
      </trkpt>
      <trkpt lat="45.27964" lon="5.37992">
        <ele>712.3</ele>
        <time>2022-04-28T12:55:56Z</time>
      </trkpt>
      <trkpt lat="45.27965" lon="5.3799">
        <ele>712.5</ele>
        <time>2022-04-28T12:55:57Z</time>
      </trkpt>
      <trkpt lat="45.27967" lon="5.3799">
        <ele>712.7</ele>
        <time>2022-04-28T12:55:58Z</time>
      </trkpt>
      <trkpt lat="45.27968" lon="5.37988">
        <ele>712.9</ele>
        <time>2022-04-28T12:55:59Z</time>
      </trkpt>
      <trkpt lat="45.27969" lon="5.37987">
        <ele>713.1</ele>
        <time>2022-04-28T12:56:00Z</time>
      </trkpt>
      <trkpt lat="45.27971" lon="5.37987">
        <ele>713.3</ele>
        <time>2022-04-28T12:56:01Z</time>
      </trkpt>
      <trkpt lat="45.27972" lon="5.37985">
        <ele>713.5</ele>
        <time>2022-04-28T12:56:02Z</time>
      </trkpt>
      <trkpt lat="45.27973" lon="5.37984">
        <ele>713.7</ele>
        <time>2022-04-28T12:56:03Z</time>
      </trkpt>
      <trkpt lat="45.27974" lon="5.37983">
        <ele>714</ele>
        <time>2022-04-28T12:56:04Z</time>
      </trkpt>
      <trkpt lat="45.27976" lon="5.37982">
        <ele>714.2</ele>
        <time>2022-04-28T12:56:05Z</time>
      </trkpt>
      <trkpt lat="45.27977" lon="5.37981">
        <ele>714.5</ele>
        <time>2022-04-28T12:56:06Z</time>
      </trkpt>
      <trkpt lat="45.27979" lon="5.3798">
        <ele>714.7</ele>
        <time>2022-04-28T12:56:07Z</time>
      </trkpt>
      <trkpt lat="45.27981" lon="5.37979">
        <ele>715</ele>
        <time>2022-04-28T12:56:08Z</time>
      </trkpt>
      <trkpt lat="45.27982" lon="5.37978">
        <ele>715.1</ele>
        <time>2022-04-28T12:56:09Z</time>
      </trkpt>
      <trkpt lat="45.27982" lon="5.37977">
        <ele>715.3</ele>
        <time>2022-04-28T12:56:10Z</time>
      </trkpt>
      <trkpt lat="45.27984" lon="5.37976">
        <ele>715.5</ele>
        <time>2022-04-28T12:56:11Z</time>
      </trkpt>
      <trkpt lat="45.27985" lon="5.37975">
        <ele>715.8</ele>
        <time>2022-04-28T12:56:12Z</time>
      </trkpt>
      <trkpt lat="45.27986" lon="5.37974">
        <ele>715.9</ele>
        <time>2022-04-28T12:56:13Z</time>
      </trkpt>
      <trkpt lat="45.27987" lon="5.37972">
        <ele>716.1</ele>
        <time>2022-04-28T12:56:14Z</time>
      </trkpt>
      <trkpt lat="45.27989" lon="5.37971">
        <ele>716.4</ele>
        <time>2022-04-28T12:56:15Z</time>
      </trkpt>
      <trkpt lat="45.2799" lon="5.3797">
        <ele>716.6</ele>
        <time>2022-04-28T12:56:16Z</time>
      </trkpt>
      <trkpt lat="45.27991" lon="5.37969">
        <ele>716.8</ele>
        <time>2022-04-28T12:56:17Z</time>
      </trkpt>
      <trkpt lat="45.27993" lon="5.37967">
        <ele>717</ele>
        <time>2022-04-28T12:56:18Z</time>
      </trkpt>
      <trkpt lat="45.27994" lon="5.37966">
        <ele>717.2</ele>
        <time>2022-04-28T12:56:19Z</time>
      </trkpt>
      <trkpt lat="45.27995" lon="5.37965">
        <ele>717.5</ele>
        <time>2022-04-28T12:56:21Z</time>
      </trkpt>
      <trkpt lat="45.27996" lon="5.37962">
        <ele>717.8</ele>
        <time>2022-04-28T12:56:22Z</time>
      </trkpt>
      <trkpt lat="45.27998" lon="5.37961">
        <ele>718</ele>
        <time>2022-04-28T12:56:23Z</time>
      </trkpt>
      <trkpt lat="45.27999" lon="5.37958">
        <ele>718.3</ele>
        <time>2022-04-28T12:56:24Z</time>
      </trkpt>
      <trkpt lat="45.28" lon="5.37956">
        <ele>718.5</ele>
        <time>2022-04-28T12:56:26Z</time>
      </trkpt>
      <trkpt lat="45.28001" lon="5.37955">
        <ele>718.6</ele>
        <time>2022-04-28T12:56:27Z</time>
      </trkpt>
      <trkpt lat="45.28002" lon="5.37953">
        <ele>718.8</ele>
        <time>2022-04-28T12:56:28Z</time>
      </trkpt>
      <trkpt lat="45.28003" lon="5.37952">
        <ele>719</ele>
        <time>2022-04-28T12:56:29Z</time>
      </trkpt>
      <trkpt lat="45.28004" lon="5.37951">
        <ele>719.2</ele>
        <time>2022-04-28T12:56:30Z</time>
      </trkpt>
      <trkpt lat="45.28006" lon="5.37949">
        <ele>719.5</ele>
        <time>2022-04-28T12:56:31Z</time>
      </trkpt>
      <trkpt lat="45.28006" lon="5.37948">
        <ele>719.6</ele>
        <time>2022-04-28T12:56:32Z</time>
      </trkpt>
      <trkpt lat="45.28007" lon="5.37947">
        <ele>719.7</ele>
        <time>2022-04-28T12:56:33Z</time>
      </trkpt>
      <trkpt lat="45.28009" lon="5.37944">
        <ele>720.1</ele>
        <time>2022-04-28T12:56:35Z</time>
      </trkpt>
      <trkpt lat="45.2801" lon="5.37943">
        <ele>720.2</ele>
        <time>2022-04-28T12:56:36Z</time>
      </trkpt>
      <trkpt lat="45.28011" lon="5.37941">
        <ele>720.4</ele>
        <time>2022-04-28T12:56:37Z</time>
      </trkpt>
      <trkpt lat="45.28012" lon="5.3794">
        <ele>720.6</ele>
        <time>2022-04-28T12:56:38Z</time>
      </trkpt>
      <trkpt lat="45.28014" lon="5.37939">
        <ele>720.8</ele>
        <time>2022-04-28T12:56:39Z</time>
      </trkpt>
      <trkpt lat="45.28016" lon="5.37936">
        <ele>721.1</ele>
        <time>2022-04-28T12:56:41Z</time>
      </trkpt>
      <trkpt lat="45.28018" lon="5.37934">
        <ele>721.5</ele>
        <time>2022-04-28T12:56:42Z</time>
      </trkpt>
      <trkpt lat="45.28019" lon="5.37932">
        <ele>721.6</ele>
        <time>2022-04-28T12:56:43Z</time>
      </trkpt>
      <trkpt lat="45.2802" lon="5.37929">
        <ele>721.9</ele>
        <time>2022-04-28T12:56:44Z</time>
      </trkpt>
      <trkpt lat="45.2802" lon="5.37927">
        <ele>722</ele>
        <time>2022-04-28T12:56:45Z</time>
      </trkpt>
      <trkpt lat="45.28022" lon="5.37924">
        <ele>722.4</ele>
        <time>2022-04-28T12:56:46Z</time>
      </trkpt>
      <trkpt lat="45.28023" lon="5.37923">
        <ele>722.5</ele>
        <time>2022-04-28T12:56:47Z</time>
      </trkpt>
      <trkpt lat="45.28025" lon="5.3792">
        <ele>722.7</ele>
        <time>2022-04-28T12:56:48Z</time>
      </trkpt>
      <trkpt lat="45.28025" lon="5.37919">
        <ele>722.8</ele>
        <time>2022-04-28T12:56:49Z</time>
      </trkpt>
      <trkpt lat="45.28027" lon="5.37917">
        <ele>723.1</ele>
        <time>2022-04-28T12:56:50Z</time>
      </trkpt>
      <trkpt lat="45.28028" lon="5.37916">
        <ele>723.2</ele>
        <time>2022-04-28T12:56:51Z</time>
      </trkpt>
      <trkpt lat="45.2803" lon="5.37912">
        <ele>723.5</ele>
        <time>2022-04-28T12:56:53Z</time>
      </trkpt>
      <trkpt lat="45.28031" lon="5.3791">
        <ele>723.6</ele>
        <time>2022-04-28T12:56:54Z</time>
      </trkpt>
      <trkpt lat="45.28032" lon="5.37906">
        <ele>723.8</ele>
        <time>2022-04-28T12:56:55Z</time>
      </trkpt>
      <trkpt lat="45.28033" lon="5.37905">
        <ele>723.9</ele>
        <time>2022-04-28T12:56:56Z</time>
      </trkpt>
      <trkpt lat="45.28035" lon="5.379">
        <ele>724.3</ele>
        <time>2022-04-28T12:56:58Z</time>
      </trkpt>
      <trkpt lat="45.28036" lon="5.37898">
        <ele>724.4</ele>
        <time>2022-04-28T12:56:59Z</time>
      </trkpt>
      <trkpt lat="45.28036" lon="5.37896">
        <ele>724.4</ele>
        <time>2022-04-28T12:57:00Z</time>
      </trkpt>
      <trkpt lat="45.28037" lon="5.37889">
        <ele>724.6</ele>
        <time>2022-04-28T12:57:02Z</time>
      </trkpt>
      <trkpt lat="45.28038" lon="5.37887">
        <ele>724.6</ele>
        <time>2022-04-28T12:57:03Z</time>
      </trkpt>
      <trkpt lat="45.28038" lon="5.37885">
        <ele>724.7</ele>
        <time>2022-04-28T12:57:04Z</time>
      </trkpt>
      <trkpt lat="45.28039" lon="5.37881">
        <ele>724.8</ele>
        <time>2022-04-28T12:57:05Z</time>
      </trkpt>
      <trkpt lat="45.28039" lon="5.3788">
        <ele>724.8</ele>
        <time>2022-04-28T12:57:06Z</time>
      </trkpt>
      <trkpt lat="45.2804" lon="5.37875">
        <ele>724.9</ele>
        <time>2022-04-28T12:57:07Z</time>
      </trkpt>
      <trkpt lat="45.28041" lon="5.37874">
        <ele>724.9</ele>
        <time>2022-04-28T12:57:08Z</time>
      </trkpt>
      <trkpt lat="45.28041" lon="5.37869">
        <ele>725</ele>
        <time>2022-04-28T12:57:09Z</time>
      </trkpt>
      <trkpt lat="45.28041" lon="5.37867">
        <ele>725.1</ele>
        <time>2022-04-28T12:57:10Z</time>
      </trkpt>
      <trkpt lat="45.28041" lon="5.37864">
        <ele>725.2</ele>
        <time>2022-04-28T12:57:11Z</time>
      </trkpt>
      <trkpt lat="45.28041" lon="5.37858">
        <ele>725.4</ele>
        <time>2022-04-28T12:57:13Z</time>
      </trkpt>
      <trkpt lat="45.28041" lon="5.37853">
        <ele>725.6</ele>
        <time>2022-04-28T12:57:14Z</time>
      </trkpt>
      <trkpt lat="45.28041" lon="5.37851">
        <ele>725.7</ele>
        <time>2022-04-28T12:57:15Z</time>
      </trkpt>
      <trkpt lat="45.28041" lon="5.37846">
        <ele>725.8</ele>
        <time>2022-04-28T12:57:16Z</time>
      </trkpt>
      <trkpt lat="45.2804" lon="5.37845">
        <ele>725.9</ele>
        <time>2022-04-28T12:57:17Z</time>
      </trkpt>
      <trkpt lat="45.2804" lon="5.3784">
        <ele>726.1</ele>
        <time>2022-04-28T12:57:18Z</time>
      </trkpt>
      <trkpt lat="45.2804" lon="5.37838">
        <ele>726.1</ele>
        <time>2022-04-28T12:57:19Z</time>
      </trkpt>
      <trkpt lat="45.2804" lon="5.37833">
        <ele>726.3</ele>
        <time>2022-04-28T12:57:20Z</time>
      </trkpt>
      <trkpt lat="45.2804" lon="5.37832">
        <ele>726.4</ele>
        <time>2022-04-28T12:57:21Z</time>
      </trkpt>
      <trkpt lat="45.2804" lon="5.37828">
        <ele>726.5</ele>
        <time>2022-04-28T12:57:22Z</time>
      </trkpt>
      <trkpt lat="45.2804" lon="5.37826">
        <ele>726.5</ele>
        <time>2022-04-28T12:57:23Z</time>
      </trkpt>
      <trkpt lat="45.2804" lon="5.37822">
        <ele>726.7</ele>
        <time>2022-04-28T12:57:24Z</time>
      </trkpt>
      <trkpt lat="45.2804" lon="5.3782">
        <ele>726.7</ele>
        <time>2022-04-28T12:57:25Z</time>
      </trkpt>
      <trkpt lat="45.2804" lon="5.37817">
        <ele>726.8</ele>
        <time>2022-04-28T12:57:26Z</time>
      </trkpt>
      <trkpt lat="45.28039" lon="5.37816">
        <ele>726.9</ele>
        <time>2022-04-28T12:57:27Z</time>
      </trkpt>
      <trkpt lat="45.28038" lon="5.37814">
        <ele>726.9</ele>
        <time>2022-04-28T12:57:28Z</time>
      </trkpt>
      <trkpt lat="45.28038" lon="5.37812">
        <ele>727</ele>
        <time>2022-04-28T12:57:29Z</time>
      </trkpt>
      <trkpt lat="45.28038" lon="5.3781">
        <ele>727</ele>
        <time>2022-04-28T12:57:30Z</time>
      </trkpt>
      <trkpt lat="45.28037" lon="5.37809">
        <ele>727</ele>
        <time>2022-04-28T12:57:31Z</time>
      </trkpt>
      <trkpt lat="45.28037" lon="5.37808">
        <ele>727</ele>
        <time>2022-04-28T12:57:33Z</time>
      </trkpt>
      <trkpt lat="45.28037" lon="5.37809">
        <ele>727.1</ele>
        <time>2022-04-28T12:57:34Z</time>
      </trkpt>
      <trkpt lat="45.28037" lon="5.37809">
        <ele>727.1</ele>
        <time>2022-04-28T12:57:35Z</time>
      </trkpt>
      <trkpt lat="45.28037" lon="5.37809">
        <ele>727.1</ele>
        <time>2022-04-28T12:57:36Z</time>
      </trkpt>
      <trkpt lat="45.28037" lon="5.37809">
        <ele>727.1</ele>
        <time>2022-04-28T12:57:37Z</time>
      </trkpt>
      <trkpt lat="45.28037" lon="5.37809">
        <ele>727.1</ele>
        <time>2022-04-28T12:57:38Z</time>
      </trkpt>
      <trkpt lat="45.28037" lon="5.37809">
        <ele>727.1</ele>
        <time>2022-04-28T12:57:39Z</time>
      </trkpt>
      <trkpt lat="45.28037" lon="5.37809">
        <ele>727.1</ele>
        <time>2022-04-28T12:57:41Z</time>
      </trkpt>
      <trkpt lat="45.28039" lon="5.37805">
        <ele>727.1</ele>
        <time>2022-04-28T12:58:41Z</time>
      </trkpt>
      <trkpt lat="45.28038" lon="5.378">
        <ele>727.1</ele>
        <time>2022-04-28T12:58:43Z</time>
      </trkpt>
      <trkpt lat="45.28037" lon="5.37795">
        <ele>727.1</ele>
        <time>2022-04-28T12:58:44Z</time>
      </trkpt>
      <trkpt lat="45.28037" lon="5.37793">
        <ele>727.1</ele>
        <time>2022-04-28T12:58:45Z</time>
      </trkpt>
      <trkpt lat="45.28036" lon="5.37789">
        <ele>727.1</ele>
        <time>2022-04-28T12:58:46Z</time>
      </trkpt>
      <trkpt lat="45.28035" lon="5.37785">
        <ele>727</ele>
        <time>2022-04-28T12:58:47Z</time>
      </trkpt>
      <trkpt lat="45.28034" lon="5.3778">
        <ele>726.8</ele>
        <time>2022-04-28T12:58:48Z</time>
      </trkpt>
      <trkpt lat="45.28033" lon="5.37774">
        <ele>726.6</ele>
        <time>2022-04-28T12:58:49Z</time>
      </trkpt>
      <trkpt lat="45.28032" lon="5.37768">
        <ele>726.3</ele>
        <time>2022-04-28T12:58:50Z</time>
      </trkpt>
      <trkpt lat="45.28031" lon="5.37764">
        <ele>725.9</ele>
        <time>2022-04-28T12:58:51Z</time>
      </trkpt>
      <trkpt lat="45.2803" lon="5.37758">
        <ele>725.5</ele>
        <time>2022-04-28T12:58:52Z</time>
      </trkpt>
      <trkpt lat="45.28029" lon="5.37753">
        <ele>725.1</ele>
        <time>2022-04-28T12:58:53Z</time>
      </trkpt>
      <trkpt lat="45.28031" lon="5.37745">
        <ele>724.3</ele>
        <time>2022-04-28T12:58:54Z</time>
      </trkpt>
      <trkpt lat="45.28033" lon="5.37737">
        <ele>723.5</ele>
        <time>2022-04-28T12:58:55Z</time>
      </trkpt>
      <trkpt lat="45.28036" lon="5.3773">
        <ele>722.4</ele>
        <time>2022-04-28T12:58:56Z</time>
      </trkpt>
      <trkpt lat="45.28041" lon="5.37724">
        <ele>721.4</ele>
        <time>2022-04-28T12:58:57Z</time>
      </trkpt>
      <trkpt lat="45.28045" lon="5.37717">
        <ele>720.4</ele>
        <time>2022-04-28T12:58:58Z</time>
      </trkpt>
      <trkpt lat="45.2805" lon="5.37711">
        <ele>719.4</ele>
        <time>2022-04-28T12:58:59Z</time>
      </trkpt>
      <trkpt lat="45.28055" lon="5.37703">
        <ele>718.3</ele>
        <time>2022-04-28T12:59:00Z</time>
      </trkpt>
      <trkpt lat="45.2806" lon="5.37696">
        <ele>717.2</ele>
        <time>2022-04-28T12:59:01Z</time>
      </trkpt>
      <trkpt lat="45.28066" lon="5.37688">
        <ele>716</ele>
        <time>2022-04-28T12:59:02Z</time>
      </trkpt>
      <trkpt lat="45.28071" lon="5.3768">
        <ele>714.9</ele>
        <time>2022-04-28T12:59:03Z</time>
      </trkpt>
      <trkpt lat="45.28075" lon="5.37671">
        <ele>713.7</ele>
        <time>2022-04-28T12:59:04Z</time>
      </trkpt>
      <trkpt lat="45.28079" lon="5.37661">
        <ele>712.5</ele>
        <time>2022-04-28T12:59:05Z</time>
      </trkpt>
      <trkpt lat="45.28083" lon="5.3765">
        <ele>711.5</ele>
        <time>2022-04-28T12:59:06Z</time>
      </trkpt>
      <trkpt lat="45.28087" lon="5.37639">
        <ele>710.6</ele>
        <time>2022-04-28T12:59:07Z</time>
      </trkpt>
      <trkpt lat="45.2809" lon="5.37627">
        <ele>709.8</ele>
        <time>2022-04-28T12:59:08Z</time>
      </trkpt>
      <trkpt lat="45.28093" lon="5.37616">
        <ele>709.2</ele>
        <time>2022-04-28T12:59:09Z</time>
      </trkpt>
      <trkpt lat="45.28096" lon="5.37604">
        <ele>708.7</ele>
        <time>2022-04-28T12:59:10Z</time>
      </trkpt>
      <trkpt lat="45.28099" lon="5.37592">
        <ele>708.3</ele>
        <time>2022-04-28T12:59:11Z</time>
      </trkpt>
      <trkpt lat="45.28102" lon="5.3758">
        <ele>708</ele>
        <time>2022-04-28T12:59:12Z</time>
      </trkpt>
      <trkpt lat="45.28105" lon="5.37569">
        <ele>707.7</ele>
        <time>2022-04-28T12:59:13Z</time>
      </trkpt>
      <trkpt lat="45.28108" lon="5.37558">
        <ele>707.3</ele>
        <time>2022-04-28T12:59:14Z</time>
      </trkpt>
      <trkpt lat="45.2811" lon="5.37547">
        <ele>707.1</ele>
        <time>2022-04-28T12:59:15Z</time>
      </trkpt>
      <trkpt lat="45.28111" lon="5.37537">
        <ele>706.9</ele>
        <time>2022-04-28T12:59:16Z</time>
      </trkpt>
      <trkpt lat="45.28111" lon="5.37526">
        <ele>706.7</ele>
        <time>2022-04-28T12:59:17Z</time>
      </trkpt>
      <trkpt lat="45.28111" lon="5.37516">
        <ele>706.5</ele>
        <time>2022-04-28T12:59:18Z</time>
      </trkpt>
      <trkpt lat="45.2811" lon="5.37505">
        <ele>706.2</ele>
        <time>2022-04-28T12:59:19Z</time>
      </trkpt>
      <trkpt lat="45.28109" lon="5.37495">
        <ele>706</ele>
        <time>2022-04-28T12:59:20Z</time>
      </trkpt>
      <trkpt lat="45.28108" lon="5.37484">
        <ele>705.8</ele>
        <time>2022-04-28T12:59:21Z</time>
      </trkpt>
      <trkpt lat="45.28107" lon="5.37474">
        <ele>705.5</ele>
        <time>2022-04-28T12:59:22Z</time>
      </trkpt>
      <trkpt lat="45.28106" lon="5.37463">
        <ele>705.1</ele>
        <time>2022-04-28T12:59:23Z</time>
      </trkpt>
      <trkpt lat="45.28105" lon="5.37453">
        <ele>704.7</ele>
        <time>2022-04-28T12:59:24Z</time>
      </trkpt>
      <trkpt lat="45.28105" lon="5.37443">
        <ele>704.2</ele>
        <time>2022-04-28T12:59:25Z</time>
      </trkpt>
      <trkpt lat="45.28104" lon="5.37432">
        <ele>703.6</ele>
        <time>2022-04-28T12:59:26Z</time>
      </trkpt>
      <trkpt lat="45.28103" lon="5.3742">
        <ele>702.9</ele>
        <time>2022-04-28T12:59:27Z</time>
      </trkpt>
      <trkpt lat="45.28102" lon="5.37409">
        <ele>702.2</ele>
        <time>2022-04-28T12:59:28Z</time>
      </trkpt>
      <trkpt lat="45.28102" lon="5.37398">
        <ele>701.5</ele>
        <time>2022-04-28T12:59:29Z</time>
      </trkpt>
      <trkpt lat="45.28101" lon="5.37386">
        <ele>700.7</ele>
        <time>2022-04-28T12:59:30Z</time>
      </trkpt>
      <trkpt lat="45.28101" lon="5.37375">
        <ele>700</ele>
        <time>2022-04-28T12:59:31Z</time>
      </trkpt>
      <trkpt lat="45.28102" lon="5.37364">
        <ele>699.4</ele>
        <time>2022-04-28T12:59:32Z</time>
      </trkpt>
      <trkpt lat="45.28104" lon="5.37353">
        <ele>698.7</ele>
        <time>2022-04-28T12:59:33Z</time>
      </trkpt>
      <trkpt lat="45.28106" lon="5.37341">
        <ele>698.1</ele>
        <time>2022-04-28T12:59:34Z</time>
      </trkpt>
      <trkpt lat="45.28108" lon="5.37329">
        <ele>697.4</ele>
        <time>2022-04-28T12:59:35Z</time>
      </trkpt>
      <trkpt lat="45.2811" lon="5.37317">
        <ele>696.9</ele>
        <time>2022-04-28T12:59:36Z</time>
      </trkpt>
      <trkpt lat="45.28113" lon="5.37306">
        <ele>696.4</ele>
        <time>2022-04-28T12:59:37Z</time>
      </trkpt>
      <trkpt lat="45.28115" lon="5.37294">
        <ele>695.9</ele>
        <time>2022-04-28T12:59:38Z</time>
      </trkpt>
      <trkpt lat="45.28119" lon="5.37283">
        <ele>695.5</ele>
        <time>2022-04-28T12:59:39Z</time>
      </trkpt>
      <trkpt lat="45.28124" lon="5.37272">
        <ele>695</ele>
        <time>2022-04-28T12:59:40Z</time>
      </trkpt>
      <trkpt lat="45.2813" lon="5.37262">
        <ele>694.7</ele>
        <time>2022-04-28T12:59:41Z</time>
      </trkpt>
      <trkpt lat="45.28136" lon="5.37253">
        <ele>694.4</ele>
        <time>2022-04-28T12:59:42Z</time>
      </trkpt>
      <trkpt lat="45.28142" lon="5.37243">
        <ele>694.1</ele>
        <time>2022-04-28T12:59:43Z</time>
      </trkpt>
      <trkpt lat="45.28148" lon="5.37233">
        <ele>693.9</ele>
        <time>2022-04-28T12:59:44Z</time>
      </trkpt>
      <trkpt lat="45.28155" lon="5.37224">
        <ele>693.7</ele>
        <time>2022-04-28T12:59:45Z</time>
      </trkpt>
      <trkpt lat="45.28161" lon="5.37216">
        <ele>693.6</ele>
        <time>2022-04-28T12:59:46Z</time>
      </trkpt>
      <trkpt lat="45.28167" lon="5.37208">
        <ele>693.6</ele>
        <time>2022-04-28T12:59:47Z</time>
      </trkpt>
      <trkpt lat="45.28173" lon="5.372">
        <ele>693.5</ele>
        <time>2022-04-28T12:59:48Z</time>
      </trkpt>
      <trkpt lat="45.2818" lon="5.37193">
        <ele>693.5</ele>
        <time>2022-04-28T12:59:49Z</time>
      </trkpt>
      <trkpt lat="45.28186" lon="5.37185">
        <ele>693.6</ele>
        <time>2022-04-28T12:59:50Z</time>
      </trkpt>
      <trkpt lat="45.28192" lon="5.37177">
        <ele>693.6</ele>
        <time>2022-04-28T12:59:51Z</time>
      </trkpt>
      <trkpt lat="45.28196" lon="5.3717">
        <ele>693.7</ele>
        <time>2022-04-28T12:59:52Z</time>
      </trkpt>
      <trkpt lat="45.282" lon="5.37164">
        <ele>693.7</ele>
        <time>2022-04-28T12:59:53Z</time>
      </trkpt>
      <trkpt lat="45.28202" lon="5.37159">
        <ele>693.7</ele>
        <time>2022-04-28T12:59:54Z</time>
      </trkpt>
      <trkpt lat="45.28202" lon="5.37154">
        <ele>693.5</ele>
        <time>2022-04-28T12:59:55Z</time>
      </trkpt>
      <trkpt lat="45.28202" lon="5.37151">
        <ele>693.4</ele>
        <time>2022-04-28T12:59:56Z</time>
      </trkpt>
      <trkpt lat="45.28204" lon="5.37145">
        <ele>693</ele>
        <time>2022-04-28T12:59:57Z</time>
      </trkpt>
      <trkpt lat="45.28206" lon="5.3714">
        <ele>692.6</ele>
        <time>2022-04-28T12:59:58Z</time>
      </trkpt>
      <trkpt lat="45.28208" lon="5.37136">
        <ele>692.3</ele>
        <time>2022-04-28T12:59:59Z</time>
      </trkpt>
      <trkpt lat="45.2821" lon="5.37132">
        <ele>691.9</ele>
        <time>2022-04-28T13:00:00Z</time>
      </trkpt>
      <trkpt lat="45.28211" lon="5.37126">
        <ele>691.4</ele>
        <time>2022-04-28T13:00:01Z</time>
      </trkpt>
      <trkpt lat="45.28214" lon="5.37119">
        <ele>690.9</ele>
        <time>2022-04-28T13:00:02Z</time>
      </trkpt>
      <trkpt lat="45.28217" lon="5.37112">
        <ele>690.3</ele>
        <time>2022-04-28T13:00:03Z</time>
      </trkpt>
      <trkpt lat="45.28221" lon="5.37105">
        <ele>689.6</ele>
        <time>2022-04-28T13:00:04Z</time>
      </trkpt>
      <trkpt lat="45.28226" lon="5.37099">
        <ele>689</ele>
        <time>2022-04-28T13:00:05Z</time>
      </trkpt>
      <trkpt lat="45.28231" lon="5.37092">
        <ele>688.3</ele>
        <time>2022-04-28T13:00:06Z</time>
      </trkpt>
      <trkpt lat="45.28237" lon="5.37086">
        <ele>687.8</ele>
        <time>2022-04-28T13:00:07Z</time>
      </trkpt>
      <trkpt lat="45.28244" lon="5.37081">
        <ele>687.3</ele>
        <time>2022-04-28T13:00:08Z</time>
      </trkpt>
      <trkpt lat="45.2825" lon="5.37076">
        <ele>686.8</ele>
        <time>2022-04-28T13:00:09Z</time>
      </trkpt>
      <trkpt lat="45.28257" lon="5.37072">
        <ele>686.5</ele>
        <time>2022-04-28T13:00:10Z</time>
      </trkpt>
      <trkpt lat="45.28264" lon="5.37071">
        <ele>686.2</ele>
        <time>2022-04-28T13:00:11Z</time>
      </trkpt>
      <trkpt lat="45.28272" lon="5.3707">
        <ele>686</ele>
        <time>2022-04-28T13:00:12Z</time>
      </trkpt>
      <trkpt lat="45.28279" lon="5.37072">
        <ele>685.8</ele>
        <time>2022-04-28T13:00:13Z</time>
      </trkpt>
      <trkpt lat="45.28287" lon="5.37075">
        <ele>685.6</ele>
        <time>2022-04-28T13:00:14Z</time>
      </trkpt>
      <trkpt lat="45.28293" lon="5.37077">
        <ele>685.5</ele>
        <time>2022-04-28T13:00:15Z</time>
      </trkpt>
      <trkpt lat="45.28299" lon="5.37079">
        <ele>685.3</ele>
        <time>2022-04-28T13:00:16Z</time>
      </trkpt>
      <trkpt lat="45.28305" lon="5.37077">
        <ele>685.1</ele>
        <time>2022-04-28T13:00:17Z</time>
      </trkpt>
      <trkpt lat="45.28311" lon="5.37074">
        <ele>685</ele>
        <time>2022-04-28T13:00:18Z</time>
      </trkpt>
      <trkpt lat="45.28316" lon="5.37068">
        <ele>684.9</ele>
        <time>2022-04-28T13:00:19Z</time>
      </trkpt>
      <trkpt lat="45.28319" lon="5.37062">
        <ele>684.8</ele>
        <time>2022-04-28T13:00:20Z</time>
      </trkpt>
      <trkpt lat="45.28322" lon="5.37055">
        <ele>684.7</ele>
        <time>2022-04-28T13:00:21Z</time>
      </trkpt>
      <trkpt lat="45.28325" lon="5.37049">
        <ele>684.6</ele>
        <time>2022-04-28T13:00:22Z</time>
      </trkpt>
      <trkpt lat="45.28328" lon="5.37043">
        <ele>684.5</ele>
        <time>2022-04-28T13:00:23Z</time>
      </trkpt>
      <trkpt lat="45.2833" lon="5.37037">
        <ele>684.4</ele>
        <time>2022-04-28T13:00:24Z</time>
      </trkpt>
      <trkpt lat="45.28332" lon="5.37031">
        <ele>684.2</ele>
        <time>2022-04-28T13:00:25Z</time>
      </trkpt>
      <trkpt lat="45.28334" lon="5.37024">
        <ele>684</ele>
        <time>2022-04-28T13:00:26Z</time>
      </trkpt>
      <trkpt lat="45.28336" lon="5.3702">
        <ele>683.9</ele>
        <time>2022-04-28T13:00:27Z</time>
      </trkpt>
      <trkpt lat="45.2834" lon="5.37013">
        <ele>683.6</ele>
        <time>2022-04-28T13:00:28Z</time>
      </trkpt>
      <trkpt lat="45.28343" lon="5.37006">
        <ele>683.3</ele>
        <time>2022-04-28T13:00:29Z</time>
      </trkpt>
      <trkpt lat="45.28346" lon="5.36998">
        <ele>683</ele>
        <time>2022-04-28T13:00:30Z</time>
      </trkpt>
      <trkpt lat="45.2835" lon="5.36991">
        <ele>682.7</ele>
        <time>2022-04-28T13:00:31Z</time>
      </trkpt>
      <trkpt lat="45.28355" lon="5.36985">
        <ele>682.5</ele>
        <time>2022-04-28T13:00:32Z</time>
      </trkpt>
      <trkpt lat="45.28359" lon="5.36978">
        <ele>682.4</ele>
        <time>2022-04-28T13:00:33Z</time>
      </trkpt>
      <trkpt lat="45.28362" lon="5.36973">
        <ele>682.4</ele>
        <time>2022-04-28T13:00:34Z</time>
      </trkpt>
      <trkpt lat="45.28365" lon="5.36967">
        <ele>682.4</ele>
        <time>2022-04-28T13:00:35Z</time>
      </trkpt>
      <trkpt lat="45.28369" lon="5.36962">
        <ele>682.5</ele>
        <time>2022-04-28T13:00:36Z</time>
      </trkpt>
      <trkpt lat="45.28373" lon="5.36958">
        <ele>682.6</ele>
        <time>2022-04-28T13:00:37Z</time>
      </trkpt>
      <trkpt lat="45.28377" lon="5.36955">
        <ele>682.7</ele>
        <time>2022-04-28T13:00:38Z</time>
      </trkpt>
      <trkpt lat="45.2838" lon="5.36954">
        <ele>682.7</ele>
        <time>2022-04-28T13:00:39Z</time>
      </trkpt>
      <trkpt lat="45.28384" lon="5.36954">
        <ele>682.8</ele>
        <time>2022-04-28T13:00:40Z</time>
      </trkpt>
      <trkpt lat="45.28389" lon="5.36954">
        <ele>682.9</ele>
        <time>2022-04-28T13:00:41Z</time>
      </trkpt>
      <trkpt lat="45.28392" lon="5.36954">
        <ele>683</ele>
        <time>2022-04-28T13:00:42Z</time>
      </trkpt>
      <trkpt lat="45.28395" lon="5.36953">
        <ele>683.1</ele>
        <time>2022-04-28T13:00:43Z</time>
      </trkpt>
      <trkpt lat="45.28399" lon="5.36952">
        <ele>683.2</ele>
        <time>2022-04-28T13:00:44Z</time>
      </trkpt>
      <trkpt lat="45.284" lon="5.36952">
        <ele>683.2</ele>
        <time>2022-04-28T13:00:45Z</time>
      </trkpt>
      <trkpt lat="45.28403" lon="5.36951">
        <ele>683.3</ele>
        <time>2022-04-28T13:00:46Z</time>
      </trkpt>
      <trkpt lat="45.28406" lon="5.3695">
        <ele>683.4</ele>
        <time>2022-04-28T13:00:47Z</time>
      </trkpt>
      <trkpt lat="45.2841" lon="5.36949">
        <ele>683.5</ele>
        <time>2022-04-28T13:00:48Z</time>
      </trkpt>
      <trkpt lat="45.28412" lon="5.36948">
        <ele>683.5</ele>
        <time>2022-04-28T13:00:49Z</time>
      </trkpt>
      <trkpt lat="45.28415" lon="5.36946">
        <ele>683.6</ele>
        <time>2022-04-28T13:00:50Z</time>
      </trkpt>
      <trkpt lat="45.28418" lon="5.36944">
        <ele>683.6</ele>
        <time>2022-04-28T13:00:51Z</time>
      </trkpt>
      <trkpt lat="45.28421" lon="5.36941">
        <ele>683.7</ele>
        <time>2022-04-28T13:00:52Z</time>
      </trkpt>
      <trkpt lat="45.28424" lon="5.36939">
        <ele>683.7</ele>
        <time>2022-04-28T13:00:53Z</time>
      </trkpt>
      <trkpt lat="45.28429" lon="5.36936">
        <ele>683.8</ele>
        <time>2022-04-28T13:00:54Z</time>
      </trkpt>
      <trkpt lat="45.28432" lon="5.36933">
        <ele>683.9</ele>
        <time>2022-04-28T13:00:55Z</time>
      </trkpt>
      <trkpt lat="45.28436" lon="5.36931">
        <ele>684</ele>
        <time>2022-04-28T13:00:56Z</time>
      </trkpt>
      <trkpt lat="45.28441" lon="5.36929">
        <ele>684.1</ele>
        <time>2022-04-28T13:00:57Z</time>
      </trkpt>
      <trkpt lat="45.28444" lon="5.36927">
        <ele>684.2</ele>
        <time>2022-04-28T13:00:58Z</time>
      </trkpt>
      <trkpt lat="45.28448" lon="5.36925">
        <ele>684.3</ele>
        <time>2022-04-28T13:00:59Z</time>
      </trkpt>
      <trkpt lat="45.28452" lon="5.36922">
        <ele>684.4</ele>
        <time>2022-04-28T13:01:00Z</time>
      </trkpt>
      <trkpt lat="45.28455" lon="5.36919">
        <ele>684.5</ele>
        <time>2022-04-28T13:01:01Z</time>
      </trkpt>
      <trkpt lat="45.28458" lon="5.36917">
        <ele>684.6</ele>
        <time>2022-04-28T13:01:02Z</time>
      </trkpt>
      <trkpt lat="45.28461" lon="5.36914">
        <ele>684.6</ele>
        <time>2022-04-28T13:01:03Z</time>
      </trkpt>
      <trkpt lat="45.28463" lon="5.36911">
        <ele>684.7</ele>
        <time>2022-04-28T13:01:04Z</time>
      </trkpt>
      <trkpt lat="45.28466" lon="5.36908">
        <ele>684.7</ele>
        <time>2022-04-28T13:01:05Z</time>
      </trkpt>
      <trkpt lat="45.28469" lon="5.36904">
        <ele>684.8</ele>
        <time>2022-04-28T13:01:06Z</time>
      </trkpt>
      <trkpt lat="45.28473" lon="5.369">
        <ele>684.8</ele>
        <time>2022-04-28T13:01:07Z</time>
      </trkpt>
      <trkpt lat="45.28476" lon="5.36896">
        <ele>684.8</ele>
        <time>2022-04-28T13:01:08Z</time>
      </trkpt>
      <trkpt lat="45.2848" lon="5.36891">
        <ele>684.9</ele>
        <time>2022-04-28T13:01:09Z</time>
      </trkpt>
      <trkpt lat="45.28484" lon="5.36887">
        <ele>684.9</ele>
        <time>2022-04-28T13:01:10Z</time>
      </trkpt>
      <trkpt lat="45.28487" lon="5.36882">
        <ele>684.9</ele>
        <time>2022-04-28T13:01:11Z</time>
      </trkpt>
      <trkpt lat="45.28491" lon="5.36878">
        <ele>685</ele>
        <time>2022-04-28T13:01:12Z</time>
      </trkpt>
      <trkpt lat="45.28495" lon="5.36873">
        <ele>685</ele>
        <time>2022-04-28T13:01:13Z</time>
      </trkpt>
      <trkpt lat="45.28497" lon="5.36867">
        <ele>685.1</ele>
        <time>2022-04-28T13:01:14Z</time>
      </trkpt>
      <trkpt lat="45.28499" lon="5.36861">
        <ele>685.1</ele>
        <time>2022-04-28T13:01:15Z</time>
      </trkpt>
      <trkpt lat="45.28499" lon="5.36854">
        <ele>685.2</ele>
        <time>2022-04-28T13:01:16Z</time>
      </trkpt>
      <trkpt lat="45.285" lon="5.36847">
        <ele>685.3</ele>
        <time>2022-04-28T13:01:17Z</time>
      </trkpt>
      <trkpt lat="45.28499" lon="5.3684">
        <ele>685.4</ele>
        <time>2022-04-28T13:01:18Z</time>
      </trkpt>
      <trkpt lat="45.28497" lon="5.36834">
        <ele>685.5</ele>
        <time>2022-04-28T13:01:19Z</time>
      </trkpt>
      <trkpt lat="45.28496" lon="5.36828">
        <ele>685.7</ele>
        <time>2022-04-28T13:01:20Z</time>
      </trkpt>
      <trkpt lat="45.28495" lon="5.36821">
        <ele>685.9</ele>
        <time>2022-04-28T13:01:21Z</time>
      </trkpt>
      <trkpt lat="45.28494" lon="5.36817">
        <ele>686</ele>
        <time>2022-04-28T13:01:22Z</time>
      </trkpt>
      <trkpt lat="45.28493" lon="5.36812">
        <ele>686.2</ele>
        <time>2022-04-28T13:01:23Z</time>
      </trkpt>
      <trkpt lat="45.28493" lon="5.36807">
        <ele>686.4</ele>
        <time>2022-04-28T13:01:24Z</time>
      </trkpt>
      <trkpt lat="45.28493" lon="5.368">
        <ele>686.6</ele>
        <time>2022-04-28T13:01:25Z</time>
      </trkpt>
      <trkpt lat="45.28494" lon="5.36796">
        <ele>686.8</ele>
        <time>2022-04-28T13:01:26Z</time>
      </trkpt>
      <trkpt lat="45.28495" lon="5.36792">
        <ele>686.9</ele>
        <time>2022-04-28T13:01:27Z</time>
      </trkpt>
      <trkpt lat="45.28497" lon="5.36788">
        <ele>687.1</ele>
        <time>2022-04-28T13:01:28Z</time>
      </trkpt>
      <trkpt lat="45.28498" lon="5.36786">
        <ele>687.1</ele>
        <time>2022-04-28T13:01:29Z</time>
      </trkpt>
      <trkpt lat="45.28501" lon="5.36782">
        <ele>687.2</ele>
        <time>2022-04-28T13:01:30Z</time>
      </trkpt>
      <trkpt lat="45.28503" lon="5.3678">
        <ele>687.2</ele>
        <time>2022-04-28T13:01:31Z</time>
      </trkpt>
      <trkpt lat="45.28506" lon="5.36778">
        <ele>687.3</ele>
        <time>2022-04-28T13:01:32Z</time>
      </trkpt>
      <trkpt lat="45.28509" lon="5.36777">
        <ele>687.3</ele>
        <time>2022-04-28T13:01:33Z</time>
      </trkpt>
      <trkpt lat="45.28513" lon="5.36774">
        <ele>687.2</ele>
        <time>2022-04-28T13:01:34Z</time>
      </trkpt>
      <trkpt lat="45.28517" lon="5.36772">
        <ele>687.2</ele>
        <time>2022-04-28T13:01:35Z</time>
      </trkpt>
      <trkpt lat="45.28524" lon="5.36768">
        <ele>687.2</ele>
        <time>2022-04-28T13:01:36Z</time>
      </trkpt>
      <trkpt lat="45.2853" lon="5.36766">
        <ele>687.2</ele>
        <time>2022-04-28T13:01:37Z</time>
      </trkpt>
      <trkpt lat="45.28536" lon="5.36764">
        <ele>687.2</ele>
        <time>2022-04-28T13:01:38Z</time>
      </trkpt>
      <trkpt lat="45.28542" lon="5.36761">
        <ele>687.3</ele>
        <time>2022-04-28T13:01:39Z</time>
      </trkpt>
      <trkpt lat="45.28547" lon="5.36757">
        <ele>687.4</ele>
        <time>2022-04-28T13:01:40Z</time>
      </trkpt>
      <trkpt lat="45.28552" lon="5.36753">
        <ele>687.5</ele>
        <time>2022-04-28T13:01:41Z</time>
      </trkpt>
      <trkpt lat="45.28557" lon="5.3675">
        <ele>687.7</ele>
        <time>2022-04-28T13:01:42Z</time>
      </trkpt>
      <trkpt lat="45.28562" lon="5.36747">
        <ele>688</ele>
        <time>2022-04-28T13:01:43Z</time>
      </trkpt>
      <trkpt lat="45.28567" lon="5.36744">
        <ele>688.2</ele>
        <time>2022-04-28T13:01:44Z</time>
      </trkpt>
      <trkpt lat="45.28571" lon="5.36741">
        <ele>688.4</ele>
        <time>2022-04-28T13:01:45Z</time>
      </trkpt>
      <trkpt lat="45.28572" lon="5.36738">
        <ele>688.6</ele>
        <time>2022-04-28T13:01:46Z</time>
      </trkpt>
      <trkpt lat="45.28576" lon="5.36735">
        <ele>688.8</ele>
        <time>2022-04-28T13:01:48Z</time>
      </trkpt>
      <trkpt lat="45.28579" lon="5.36733">
        <ele>689.1</ele>
        <time>2022-04-28T13:01:49Z</time>
      </trkpt>
      <trkpt lat="45.28583" lon="5.3673">
        <ele>689.3</ele>
        <time>2022-04-28T13:01:50Z</time>
      </trkpt>
      <trkpt lat="45.28587" lon="5.36725">
        <ele>689.6</ele>
        <time>2022-04-28T13:01:52Z</time>
      </trkpt>
      <trkpt lat="45.2859" lon="5.36721">
        <ele>689.9</ele>
        <time>2022-04-28T13:01:53Z</time>
      </trkpt>
      <trkpt lat="45.28593" lon="5.36718">
        <ele>690.2</ele>
        <time>2022-04-28T13:01:54Z</time>
      </trkpt>
      <trkpt lat="45.28594" lon="5.36716">
        <ele>690.3</ele>
        <time>2022-04-28T13:01:55Z</time>
      </trkpt>
      <trkpt lat="45.28597" lon="5.36714">
        <ele>690.5</ele>
        <time>2022-04-28T13:01:56Z</time>
      </trkpt>
      <trkpt lat="45.28598" lon="5.36713">
        <ele>690.6</ele>
        <time>2022-04-28T13:01:57Z</time>
      </trkpt>
      <trkpt lat="45.28599" lon="5.36711">
        <ele>690.7</ele>
        <time>2022-04-28T13:01:58Z</time>
      </trkpt>
      <trkpt lat="45.28601" lon="5.36706">
        <ele>691</ele>
        <time>2022-04-28T13:02:00Z</time>
      </trkpt>
      <trkpt lat="45.28604" lon="5.36703">
        <ele>691.3</ele>
        <time>2022-04-28T13:02:01Z</time>
      </trkpt>
      <trkpt lat="45.28606" lon="5.367">
        <ele>691.5</ele>
        <time>2022-04-28T13:02:02Z</time>
      </trkpt>
      <trkpt lat="45.28608" lon="5.36696">
        <ele>691.5</ele>
        <time>2022-04-28T13:02:03Z</time>
      </trkpt>
      <trkpt lat="45.28609" lon="5.36692">
        <ele>691.5</ele>
        <time>2022-04-28T13:02:04Z</time>
      </trkpt>
      <trkpt lat="45.2861" lon="5.36689">
        <ele>691.5</ele>
        <time>2022-04-28T13:02:05Z</time>
      </trkpt>
      <trkpt lat="45.28612" lon="5.36685">
        <ele>691.5</ele>
        <time>2022-04-28T13:02:06Z</time>
      </trkpt>
      <trkpt lat="45.28615" lon="5.36682">
        <ele>691.5</ele>
        <time>2022-04-28T13:02:07Z</time>
      </trkpt>
      <trkpt lat="45.28616" lon="5.3668">
        <ele>691.4</ele>
        <time>2022-04-28T13:02:08Z</time>
      </trkpt>
      <trkpt lat="45.28619" lon="5.36674">
        <ele>691.2</ele>
        <time>2022-04-28T13:02:09Z</time>
      </trkpt>
      <trkpt lat="45.28622" lon="5.36671">
        <ele>691.1</ele>
        <time>2022-04-28T13:02:10Z</time>
      </trkpt>
      <trkpt lat="45.28625" lon="5.36667">
        <ele>691</ele>
        <time>2022-04-28T13:02:11Z</time>
      </trkpt>
      <trkpt lat="45.28628" lon="5.36663">
        <ele>690.9</ele>
        <time>2022-04-28T13:02:12Z</time>
      </trkpt>
      <trkpt lat="45.2863" lon="5.36659">
        <ele>690.7</ele>
        <time>2022-04-28T13:02:13Z</time>
      </trkpt>
      <trkpt lat="45.28633" lon="5.36654">
        <ele>690.6</ele>
        <time>2022-04-28T13:02:14Z</time>
      </trkpt>
      <trkpt lat="45.28636" lon="5.3665">
        <ele>690.5</ele>
        <time>2022-04-28T13:02:15Z</time>
      </trkpt>
      <trkpt lat="45.28638" lon="5.36645">
        <ele>690.3</ele>
        <time>2022-04-28T13:02:16Z</time>
      </trkpt>
      <trkpt lat="45.28641" lon="5.36642">
        <ele>690.2</ele>
        <time>2022-04-28T13:02:17Z</time>
      </trkpt>
      <trkpt lat="45.28643" lon="5.36639">
        <ele>690.1</ele>
        <time>2022-04-28T13:02:18Z</time>
      </trkpt>
      <trkpt lat="45.28646" lon="5.36635">
        <ele>689.9</ele>
        <time>2022-04-28T13:02:19Z</time>
      </trkpt>
      <trkpt lat="45.28648" lon="5.36631">
        <ele>689.7</ele>
        <time>2022-04-28T13:02:20Z</time>
      </trkpt>
      <trkpt lat="45.2865" lon="5.36627">
        <ele>689.5</ele>
        <time>2022-04-28T13:02:21Z</time>
      </trkpt>
      <trkpt lat="45.28653" lon="5.36623">
        <ele>689.3</ele>
        <time>2022-04-28T13:02:22Z</time>
      </trkpt>
      <trkpt lat="45.28656" lon="5.36619">
        <ele>689.1</ele>
        <time>2022-04-28T13:02:23Z</time>
      </trkpt>
      <trkpt lat="45.2866" lon="5.36613">
        <ele>688.7</ele>
        <time>2022-04-28T13:02:24Z</time>
      </trkpt>
      <trkpt lat="45.28663" lon="5.36608">
        <ele>688.4</ele>
        <time>2022-04-28T13:02:25Z</time>
      </trkpt>
      <trkpt lat="45.28667" lon="5.36602">
        <ele>688.1</ele>
        <time>2022-04-28T13:02:26Z</time>
      </trkpt>
      <trkpt lat="45.28671" lon="5.36597">
        <ele>687.8</ele>
        <time>2022-04-28T13:02:27Z</time>
      </trkpt>
      <trkpt lat="45.28675" lon="5.36592">
        <ele>687.5</ele>
        <time>2022-04-28T13:02:28Z</time>
      </trkpt>
      <trkpt lat="45.28679" lon="5.36587">
        <ele>687.2</ele>
        <time>2022-04-28T13:02:29Z</time>
      </trkpt>
      <trkpt lat="45.28684" lon="5.36582">
        <ele>686.9</ele>
        <time>2022-04-28T13:02:30Z</time>
      </trkpt>
      <trkpt lat="45.28688" lon="5.36577">
        <ele>686.6</ele>
        <time>2022-04-28T13:02:31Z</time>
      </trkpt>
      <trkpt lat="45.28693" lon="5.36572">
        <ele>686.4</ele>
        <time>2022-04-28T13:02:32Z</time>
      </trkpt>
      <trkpt lat="45.28697" lon="5.36567">
        <ele>686.2</ele>
        <time>2022-04-28T13:02:33Z</time>
      </trkpt>
      <trkpt lat="45.28702" lon="5.36563">
        <ele>686.1</ele>
        <time>2022-04-28T13:02:34Z</time>
      </trkpt>
      <trkpt lat="45.28706" lon="5.36559">
        <ele>686</ele>
        <time>2022-04-28T13:02:35Z</time>
      </trkpt>
      <trkpt lat="45.2871" lon="5.36559">
        <ele>685.9</ele>
        <time>2022-04-28T13:02:37Z</time>
      </trkpt>
      <trkpt lat="45.28715" lon="5.36555">
        <ele>685.9</ele>
        <time>2022-04-28T13:02:38Z</time>
      </trkpt>
      <trkpt lat="45.28717" lon="5.36551">
        <ele>685.9</ele>
        <time>2022-04-28T13:02:39Z</time>
      </trkpt>
      <trkpt lat="45.28718" lon="5.3655">
        <ele>685.9</ele>
        <time>2022-04-28T13:02:40Z</time>
      </trkpt>
      <trkpt lat="45.28719" lon="5.36547">
        <ele>685.9</ele>
        <time>2022-04-28T13:02:42Z</time>
      </trkpt>
      <trkpt lat="45.28719" lon="5.36547">
        <ele>685.9</ele>
        <time>2022-04-28T13:02:43Z</time>
      </trkpt>
      <trkpt lat="45.28719" lon="5.36547">
        <ele>685.9</ele>
        <time>2022-04-28T13:02:44Z</time>
      </trkpt>
      <trkpt lat="45.28719" lon="5.36547">
        <ele>685.9</ele>
        <time>2022-04-28T13:02:45Z</time>
      </trkpt>
      <trkpt lat="45.28719" lon="5.36547">
        <ele>685.9</ele>
        <time>2022-04-28T13:02:46Z</time>
      </trkpt>
      <trkpt lat="45.28719" lon="5.36547">
        <ele>685.9</ele>
        <time>2022-04-28T13:02:47Z</time>
      </trkpt>
      <trkpt lat="45.28719" lon="5.36547">
        <ele>685.9</ele>
        <time>2022-04-28T13:02:48Z</time>
      </trkpt>
      <trkpt lat="45.28719" lon="5.36547">
        <ele>685.9</ele>
        <time>2022-04-28T13:02:49Z</time>
      </trkpt>
      <trkpt lat="45.28719" lon="5.36548">
        <ele>685.9</ele>
        <time>2022-04-28T13:02:51Z</time>
      </trkpt>
      <trkpt lat="45.28719" lon="5.36548">
        <ele>685.9</ele>
        <time>2022-04-28T13:02:52Z</time>
      </trkpt>
      <trkpt lat="45.28719" lon="5.36548">
        <ele>685.9</ele>
        <time>2022-04-28T13:02:53Z</time>
      </trkpt>
      <trkpt lat="45.28719" lon="5.36546">
        <ele>685.9</ele>
        <time>2022-04-28T13:03:24Z</time>
      </trkpt>
      <trkpt lat="45.2872" lon="5.36545">
        <ele>685.9</ele>
        <time>2022-04-28T13:03:25Z</time>
      </trkpt>
      <trkpt lat="45.2872" lon="5.36542">
        <ele>685.9</ele>
        <time>2022-04-28T13:03:27Z</time>
      </trkpt>
      <trkpt lat="45.28719" lon="5.36538">
        <ele>685.9</ele>
        <time>2022-04-28T13:03:28Z</time>
      </trkpt>
      <trkpt lat="45.28717" lon="5.36535">
        <ele>685.9</ele>
        <time>2022-04-28T13:03:29Z</time>
      </trkpt>
      <trkpt lat="45.28714" lon="5.36529">
        <ele>685.8</ele>
        <time>2022-04-28T13:03:31Z</time>
      </trkpt>
      <trkpt lat="45.28712" lon="5.36526">
        <ele>685.9</ele>
        <time>2022-04-28T13:03:32Z</time>
      </trkpt>
      <trkpt lat="45.28709" lon="5.36522">
        <ele>685.9</ele>
        <time>2022-04-28T13:03:33Z</time>
      </trkpt>
      <trkpt lat="45.28706" lon="5.36519">
        <ele>686</ele>
        <time>2022-04-28T13:03:34Z</time>
      </trkpt>
      <trkpt lat="45.28704" lon="5.36516">
        <ele>686</ele>
        <time>2022-04-28T13:03:35Z</time>
      </trkpt>
      <trkpt lat="45.28701" lon="5.36513">
        <ele>686</ele>
        <time>2022-04-28T13:03:36Z</time>
      </trkpt>
      <trkpt lat="45.28698" lon="5.3651">
        <ele>686.1</ele>
        <time>2022-04-28T13:03:37Z</time>
      </trkpt>
      <trkpt lat="45.28695" lon="5.36507">
        <ele>686.1</ele>
        <time>2022-04-28T13:03:38Z</time>
      </trkpt>
      <trkpt lat="45.28693" lon="5.36504">
        <ele>686.1</ele>
        <time>2022-04-28T13:03:39Z</time>
      </trkpt>
      <trkpt lat="45.28689" lon="5.365">
        <ele>686.1</ele>
        <time>2022-04-28T13:03:41Z</time>
      </trkpt>
      <trkpt lat="45.28685" lon="5.36497">
        <ele>686.1</ele>
        <time>2022-04-28T13:03:42Z</time>
      </trkpt>
      <trkpt lat="45.28682" lon="5.36494">
        <ele>686.1</ele>
        <time>2022-04-28T13:03:43Z</time>
      </trkpt>
      <trkpt lat="45.28678" lon="5.3649">
        <ele>686.1</ele>
        <time>2022-04-28T13:03:44Z</time>
      </trkpt>
      <trkpt lat="45.28675" lon="5.36486">
        <ele>686.1</ele>
        <time>2022-04-28T13:03:45Z</time>
      </trkpt>
      <trkpt lat="45.28671" lon="5.36482">
        <ele>686</ele>
        <time>2022-04-28T13:03:46Z</time>
      </trkpt>
      <trkpt lat="45.28668" lon="5.36479">
        <ele>686</ele>
        <time>2022-04-28T13:03:47Z</time>
      </trkpt>
      <trkpt lat="45.28665" lon="5.36476">
        <ele>686</ele>
        <time>2022-04-28T13:03:48Z</time>
      </trkpt>
      <trkpt lat="45.2866" lon="5.36471">
        <ele>685.9</ele>
        <time>2022-04-28T13:03:50Z</time>
      </trkpt>
      <trkpt lat="45.28656" lon="5.36466">
        <ele>685.8</ele>
        <time>2022-04-28T13:03:51Z</time>
      </trkpt>
      <trkpt lat="45.2865" lon="5.3646">
        <ele>685.7</ele>
        <time>2022-04-28T13:03:52Z</time>
      </trkpt>
      <trkpt lat="45.28646" lon="5.36456">
        <ele>685.5</ele>
        <time>2022-04-28T13:03:53Z</time>
      </trkpt>
      <trkpt lat="45.28642" lon="5.36452">
        <ele>685.4</ele>
        <time>2022-04-28T13:03:54Z</time>
      </trkpt>
      <trkpt lat="45.28638" lon="5.36448">
        <ele>685.3</ele>
        <time>2022-04-28T13:03:55Z</time>
      </trkpt>
      <trkpt lat="45.28635" lon="5.36444">
        <ele>685.1</ele>
        <time>2022-04-28T13:03:56Z</time>
      </trkpt>
      <trkpt lat="45.28631" lon="5.36439">
        <ele>685</ele>
        <time>2022-04-28T13:03:57Z</time>
      </trkpt>
      <trkpt lat="45.28627" lon="5.36435">
        <ele>684.8</ele>
        <time>2022-04-28T13:03:58Z</time>
      </trkpt>
      <trkpt lat="45.28623" lon="5.36431">
        <ele>684.6</ele>
        <time>2022-04-28T13:03:59Z</time>
      </trkpt>
      <trkpt lat="45.2862" lon="5.36427">
        <ele>684.4</ele>
        <time>2022-04-28T13:04:00Z</time>
      </trkpt>
      <trkpt lat="45.28616" lon="5.36423">
        <ele>684.2</ele>
        <time>2022-04-28T13:04:01Z</time>
      </trkpt>
      <trkpt lat="45.28613" lon="5.36421">
        <ele>684</ele>
        <time>2022-04-28T13:04:02Z</time>
      </trkpt>
      <trkpt lat="45.2861" lon="5.36418">
        <ele>683.8</ele>
        <time>2022-04-28T13:04:03Z</time>
      </trkpt>
      <trkpt lat="45.28606" lon="5.36414">
        <ele>683.5</ele>
        <time>2022-04-28T13:04:05Z</time>
      </trkpt>
      <trkpt lat="45.28603" lon="5.36411">
        <ele>683.2</ele>
        <time>2022-04-28T13:04:06Z</time>
      </trkpt>
      <trkpt lat="45.28599" lon="5.36407">
        <ele>683</ele>
        <time>2022-04-28T13:04:07Z</time>
      </trkpt>
      <trkpt lat="45.28596" lon="5.36402">
        <ele>682.7</ele>
        <time>2022-04-28T13:04:08Z</time>
      </trkpt>
      <trkpt lat="45.28594" lon="5.36397">
        <ele>682.3</ele>
        <time>2022-04-28T13:04:09Z</time>
      </trkpt>
      <trkpt lat="45.28594" lon="5.36386">
        <ele>681.5</ele>
        <time>2022-04-28T13:04:10Z</time>
      </trkpt>
      <trkpt lat="45.28594" lon="5.36378">
        <ele>681</ele>
        <time>2022-04-28T13:04:11Z</time>
      </trkpt>
      <trkpt lat="45.28595" lon="5.3637">
        <ele>680.5</ele>
        <time>2022-04-28T13:04:12Z</time>
      </trkpt>
      <trkpt lat="45.28595" lon="5.36362">
        <ele>680.1</ele>
        <time>2022-04-28T13:04:13Z</time>
      </trkpt>
      <trkpt lat="45.28595" lon="5.36355">
        <ele>679.6</ele>
        <time>2022-04-28T13:04:14Z</time>
      </trkpt>
      <trkpt lat="45.28595" lon="5.36347">
        <ele>679.2</ele>
        <time>2022-04-28T13:04:15Z</time>
      </trkpt>
      <trkpt lat="45.28593" lon="5.3634">
        <ele>678.8</ele>
        <time>2022-04-28T13:04:16Z</time>
      </trkpt>
      <trkpt lat="45.28591" lon="5.36333">
        <ele>678.4</ele>
        <time>2022-04-28T13:04:17Z</time>
      </trkpt>
      <trkpt lat="45.28589" lon="5.36327">
        <ele>677.9</ele>
        <time>2022-04-28T13:04:18Z</time>
      </trkpt>
      <trkpt lat="45.28587" lon="5.3632">
        <ele>677.5</ele>
        <time>2022-04-28T13:04:19Z</time>
      </trkpt>
      <trkpt lat="45.28584" lon="5.36313">
        <ele>677</ele>
        <time>2022-04-28T13:04:20Z</time>
      </trkpt>
      <trkpt lat="45.28581" lon="5.36306">
        <ele>676.6</ele>
        <time>2022-04-28T13:04:21Z</time>
      </trkpt>
      <trkpt lat="45.28578" lon="5.363">
        <ele>676.2</ele>
        <time>2022-04-28T13:04:22Z</time>
      </trkpt>
      <trkpt lat="45.28575" lon="5.36293">
        <ele>675.7</ele>
        <time>2022-04-28T13:04:23Z</time>
      </trkpt>
      <trkpt lat="45.28572" lon="5.36286">
        <ele>675.3</ele>
        <time>2022-04-28T13:04:24Z</time>
      </trkpt>
      <trkpt lat="45.28569" lon="5.3628">
        <ele>674.9</ele>
        <time>2022-04-28T13:04:25Z</time>
      </trkpt>
      <trkpt lat="45.28565" lon="5.36272">
        <ele>674.4</ele>
        <time>2022-04-28T13:04:26Z</time>
      </trkpt>
      <trkpt lat="45.2856" lon="5.36265">
        <ele>673.9</ele>
        <time>2022-04-28T13:04:27Z</time>
      </trkpt>
      <trkpt lat="45.28556" lon="5.36257">
        <ele>673.5</ele>
        <time>2022-04-28T13:04:28Z</time>
      </trkpt>
      <trkpt lat="45.28552" lon="5.36249">
        <ele>673</ele>
        <time>2022-04-28T13:04:29Z</time>
      </trkpt>
      <trkpt lat="45.28548" lon="5.3624">
        <ele>672.5</ele>
        <time>2022-04-28T13:04:30Z</time>
      </trkpt>
      <trkpt lat="45.28544" lon="5.36233">
        <ele>672</ele>
        <time>2022-04-28T13:04:31Z</time>
      </trkpt>
      <trkpt lat="45.2854" lon="5.36225">
        <ele>671.6</ele>
        <time>2022-04-28T13:04:32Z</time>
      </trkpt>
      <trkpt lat="45.28537" lon="5.36216">
        <ele>671</ele>
        <time>2022-04-28T13:04:33Z</time>
      </trkpt>
      <trkpt lat="45.28534" lon="5.36208">
        <ele>670.5</ele>
        <time>2022-04-28T13:04:34Z</time>
      </trkpt>
      <trkpt lat="45.28532" lon="5.362">
        <ele>670</ele>
        <time>2022-04-28T13:04:35Z</time>
      </trkpt>
      <trkpt lat="45.2853" lon="5.36192">
        <ele>669.5</ele>
        <time>2022-04-28T13:04:36Z</time>
      </trkpt>
      <trkpt lat="45.28529" lon="5.36184">
        <ele>669</ele>
        <time>2022-04-28T13:04:37Z</time>
      </trkpt>
      <trkpt lat="45.28527" lon="5.36174">
        <ele>668.4</ele>
        <time>2022-04-28T13:04:38Z</time>
      </trkpt>
      <trkpt lat="45.28526" lon="5.36164">
        <ele>667.7</ele>
        <time>2022-04-28T13:04:39Z</time>
      </trkpt>
      <trkpt lat="45.28525" lon="5.36154">
        <ele>667</ele>
        <time>2022-04-28T13:04:40Z</time>
      </trkpt>
      <trkpt lat="45.28524" lon="5.36143">
        <ele>666.3</ele>
        <time>2022-04-28T13:04:41Z</time>
      </trkpt>
      <trkpt lat="45.28524" lon="5.36131">
        <ele>665.5</ele>
        <time>2022-04-28T13:04:42Z</time>
      </trkpt>
      <trkpt lat="45.28522" lon="5.36119">
        <ele>664.9</ele>
        <time>2022-04-28T13:04:43Z</time>
      </trkpt>
      <trkpt lat="45.28522" lon="5.36106">
        <ele>664.4</ele>
        <time>2022-04-28T13:04:44Z</time>
      </trkpt>
      <trkpt lat="45.28521" lon="5.36093">
        <ele>664.1</ele>
        <time>2022-04-28T13:04:45Z</time>
      </trkpt>
      <trkpt lat="45.28519" lon="5.36081">
        <ele>664</ele>
        <time>2022-04-28T13:04:46Z</time>
      </trkpt>
      <trkpt lat="45.28517" lon="5.36069">
        <ele>664.1</ele>
        <time>2022-04-28T13:04:47Z</time>
      </trkpt>
      <trkpt lat="45.28515" lon="5.36059">
        <ele>664.4</ele>
        <time>2022-04-28T13:04:48Z</time>
      </trkpt>
      <trkpt lat="45.28513" lon="5.3605">
        <ele>664.8</ele>
        <time>2022-04-28T13:04:49Z</time>
      </trkpt>
      <trkpt lat="45.28511" lon="5.36042">
        <ele>665.2</ele>
        <time>2022-04-28T13:04:50Z</time>
      </trkpt>
      <trkpt lat="45.2851" lon="5.36038">
        <ele>665.5</ele>
        <time>2022-04-28T13:04:51Z</time>
      </trkpt>
      <trkpt lat="45.28508" lon="5.36032">
        <ele>665.9</ele>
        <time>2022-04-28T13:04:52Z</time>
      </trkpt>
      <trkpt lat="45.28507" lon="5.3603">
        <ele>666</ele>
        <time>2022-04-28T13:04:53Z</time>
      </trkpt>
      <trkpt lat="45.28506" lon="5.36026">
        <ele>666.3</ele>
        <time>2022-04-28T13:04:54Z</time>
      </trkpt>
      <trkpt lat="45.28504" lon="5.36022">
        <ele>666.7</ele>
        <time>2022-04-28T13:04:55Z</time>
      </trkpt>
      <trkpt lat="45.28502" lon="5.36018">
        <ele>667</ele>
        <time>2022-04-28T13:04:56Z</time>
      </trkpt>
      <trkpt lat="45.28501" lon="5.36015">
        <ele>667.3</ele>
        <time>2022-04-28T13:04:57Z</time>
      </trkpt>
      <trkpt lat="45.28499" lon="5.36011">
        <ele>667.7</ele>
        <time>2022-04-28T13:04:58Z</time>
      </trkpt>
      <trkpt lat="45.28499" lon="5.36009">
        <ele>667.8</ele>
        <time>2022-04-28T13:04:59Z</time>
      </trkpt>
      <trkpt lat="45.28497" lon="5.36006">
        <ele>668.1</ele>
        <time>2022-04-28T13:05:00Z</time>
      </trkpt>
      <trkpt lat="45.28497" lon="5.36004">
        <ele>668.2</ele>
        <time>2022-04-28T13:05:01Z</time>
      </trkpt>
      <trkpt lat="45.28495" lon="5.36001">
        <ele>668.5</ele>
        <time>2022-04-28T13:05:02Z</time>
      </trkpt>
      <trkpt lat="45.28493" lon="5.35996">
        <ele>668.9</ele>
        <time>2022-04-28T13:05:03Z</time>
      </trkpt>
      <trkpt lat="45.28492" lon="5.35995">
        <ele>669</ele>
        <time>2022-04-28T13:05:04Z</time>
      </trkpt>
      <trkpt lat="45.28491" lon="5.35991">
        <ele>669.3</ele>
        <time>2022-04-28T13:05:05Z</time>
      </trkpt>
      <trkpt lat="45.2849" lon="5.35986">
        <ele>669.7</ele>
        <time>2022-04-28T13:05:06Z</time>
      </trkpt>
      <trkpt lat="45.28489" lon="5.35981">
        <ele>670.1</ele>
        <time>2022-04-28T13:05:07Z</time>
      </trkpt>
      <trkpt lat="45.28489" lon="5.35979">
        <ele>670.3</ele>
        <time>2022-04-28T13:05:08Z</time>
      </trkpt>
      <trkpt lat="45.28488" lon="5.35974">
        <ele>670.6</ele>
        <time>2022-04-28T13:05:09Z</time>
      </trkpt>
      <trkpt lat="45.28488" lon="5.35972">
        <ele>670.8</ele>
        <time>2022-04-28T13:05:10Z</time>
      </trkpt>
      <trkpt lat="45.28488" lon="5.35968">
        <ele>671.1</ele>
        <time>2022-04-28T13:05:11Z</time>
      </trkpt>
      <trkpt lat="45.28488" lon="5.35966">
        <ele>671.3</ele>
        <time>2022-04-28T13:05:12Z</time>
      </trkpt>
      <trkpt lat="45.28488" lon="5.35962">
        <ele>671.6</ele>
        <time>2022-04-28T13:05:13Z</time>
      </trkpt>
      <trkpt lat="45.28488" lon="5.3596">
        <ele>671.8</ele>
        <time>2022-04-28T13:05:14Z</time>
      </trkpt>
      <trkpt lat="45.28488" lon="5.35956">
        <ele>672.2</ele>
        <time>2022-04-28T13:05:15Z</time>
      </trkpt>
      <trkpt lat="45.28488" lon="5.35955">
        <ele>672.3</ele>
        <time>2022-04-28T13:05:16Z</time>
      </trkpt>
      <trkpt lat="45.28489" lon="5.35951">
        <ele>672.7</ele>
        <time>2022-04-28T13:05:17Z</time>
      </trkpt>
      <trkpt lat="45.28489" lon="5.35949">
        <ele>672.8</ele>
        <time>2022-04-28T13:05:18Z</time>
      </trkpt>
      <trkpt lat="45.28489" lon="5.35945">
        <ele>673.2</ele>
        <time>2022-04-28T13:05:19Z</time>
      </trkpt>
      <trkpt lat="45.28489" lon="5.35943">
        <ele>673.3</ele>
        <time>2022-04-28T13:05:20Z</time>
      </trkpt>
      <trkpt lat="45.28489" lon="5.35938">
        <ele>673.7</ele>
        <time>2022-04-28T13:05:21Z</time>
      </trkpt>
      <trkpt lat="45.28489" lon="5.35937">
        <ele>673.9</ele>
        <time>2022-04-28T13:05:22Z</time>
      </trkpt>
      <trkpt lat="45.28489" lon="5.35932">
        <ele>674.3</ele>
        <time>2022-04-28T13:05:23Z</time>
      </trkpt>
      <trkpt lat="45.2849" lon="5.35931">
        <ele>674.4</ele>
        <time>2022-04-28T13:05:24Z</time>
      </trkpt>
      <trkpt lat="45.2849" lon="5.35927">
        <ele>674.8</ele>
        <time>2022-04-28T13:05:25Z</time>
      </trkpt>
      <trkpt lat="45.2849" lon="5.35925">
        <ele>674.9</ele>
        <time>2022-04-28T13:05:26Z</time>
      </trkpt>
      <trkpt lat="45.28491" lon="5.35923">
        <ele>675.1</ele>
        <time>2022-04-28T13:05:27Z</time>
      </trkpt>
      <trkpt lat="45.28491" lon="5.35921">
        <ele>675.3</ele>
        <time>2022-04-28T13:05:28Z</time>
      </trkpt>
      <trkpt lat="45.28492" lon="5.35917">
        <ele>675.7</ele>
        <time>2022-04-28T13:05:29Z</time>
      </trkpt>
      <trkpt lat="45.28492" lon="5.35915">
        <ele>675.8</ele>
        <time>2022-04-28T13:05:30Z</time>
      </trkpt>
      <trkpt lat="45.28493" lon="5.35913">
        <ele>676</ele>
        <time>2022-04-28T13:05:31Z</time>
      </trkpt>
      <trkpt lat="45.28493" lon="5.35911">
        <ele>676.2</ele>
        <time>2022-04-28T13:05:32Z</time>
      </trkpt>
      <trkpt lat="45.28494" lon="5.35907">
        <ele>676.6</ele>
        <time>2022-04-28T13:05:33Z</time>
      </trkpt>
      <trkpt lat="45.28494" lon="5.35905">
        <ele>676.7</ele>
        <time>2022-04-28T13:05:34Z</time>
      </trkpt>
      <trkpt lat="45.28495" lon="5.35901">
        <ele>677.1</ele>
        <time>2022-04-28T13:05:35Z</time>
      </trkpt>
      <trkpt lat="45.28496" lon="5.359">
        <ele>677.2</ele>
        <time>2022-04-28T13:05:36Z</time>
      </trkpt>
      <trkpt lat="45.28496" lon="5.35896">
        <ele>677.6</ele>
        <time>2022-04-28T13:05:37Z</time>
      </trkpt>
      <trkpt lat="45.28496" lon="5.35894">
        <ele>677.7</ele>
        <time>2022-04-28T13:05:38Z</time>
      </trkpt>
      <trkpt lat="45.28497" lon="5.35892">
        <ele>677.9</ele>
        <time>2022-04-28T13:05:39Z</time>
      </trkpt>
      <trkpt lat="45.28497" lon="5.35889">
        <ele>678.1</ele>
        <time>2022-04-28T13:05:40Z</time>
      </trkpt>
      <trkpt lat="45.28496" lon="5.35885">
        <ele>678.4</ele>
        <time>2022-04-28T13:05:41Z</time>
      </trkpt>
      <trkpt lat="45.28496" lon="5.35884">
        <ele>678.5</ele>
        <time>2022-04-28T13:05:42Z</time>
      </trkpt>
      <trkpt lat="45.28495" lon="5.35879">
        <ele>678.9</ele>
        <time>2022-04-28T13:05:43Z</time>
      </trkpt>
      <trkpt lat="45.28494" lon="5.35877">
        <ele>679</ele>
        <time>2022-04-28T13:05:44Z</time>
      </trkpt>
      <trkpt lat="45.28494" lon="5.35875">
        <ele>679.2</ele>
        <time>2022-04-28T13:05:45Z</time>
      </trkpt>
      <trkpt lat="45.28493" lon="5.35874">
        <ele>679.4</ele>
        <time>2022-04-28T13:05:46Z</time>
      </trkpt>
      <trkpt lat="45.28492" lon="5.35873">
        <ele>679.5</ele>
        <time>2022-04-28T13:05:47Z</time>
      </trkpt>
      <trkpt lat="45.2849" lon="5.35869">
        <ele>679.9</ele>
        <time>2022-04-28T13:05:49Z</time>
      </trkpt>
      <trkpt lat="45.28488" lon="5.35866">
        <ele>680.2</ele>
        <time>2022-04-28T13:05:50Z</time>
      </trkpt>
      <trkpt lat="45.28487" lon="5.35862">
        <ele>680.5</ele>
        <time>2022-04-28T13:05:51Z</time>
      </trkpt>
      <trkpt lat="45.28486" lon="5.35861">
        <ele>680.6</ele>
        <time>2022-04-28T13:05:52Z</time>
      </trkpt>
      <trkpt lat="45.28486" lon="5.35859">
        <ele>680.8</ele>
        <time>2022-04-28T13:05:53Z</time>
      </trkpt>
      <trkpt lat="45.28485" lon="5.35858">
        <ele>680.8</ele>
        <time>2022-04-28T13:05:54Z</time>
      </trkpt>
      <trkpt lat="45.28485" lon="5.35856">
        <ele>680.9</ele>
        <time>2022-04-28T13:05:55Z</time>
      </trkpt>
      <trkpt lat="45.28485" lon="5.35854">
        <ele>681.1</ele>
        <time>2022-04-28T13:05:56Z</time>
      </trkpt>
      <trkpt lat="45.28484" lon="5.35852">
        <ele>681.2</ele>
        <time>2022-04-28T13:05:57Z</time>
      </trkpt>
      <trkpt lat="45.28484" lon="5.35849">
        <ele>681.4</ele>
        <time>2022-04-28T13:05:58Z</time>
      </trkpt>
      <trkpt lat="45.28484" lon="5.35844">
        <ele>681.6</ele>
        <time>2022-04-28T13:06:00Z</time>
      </trkpt>
      <trkpt lat="45.28485" lon="5.3584">
        <ele>681.8</ele>
        <time>2022-04-28T13:06:01Z</time>
      </trkpt>
      <trkpt lat="45.28485" lon="5.35838">
        <ele>681.8</ele>
        <time>2022-04-28T13:06:02Z</time>
      </trkpt>
      <trkpt lat="45.28484" lon="5.35836">
        <ele>681.9</ele>
        <time>2022-04-28T13:06:03Z</time>
      </trkpt>
      <trkpt lat="45.28483" lon="5.35832">
        <ele>682</ele>
        <time>2022-04-28T13:06:04Z</time>
      </trkpt>
      <trkpt lat="45.28483" lon="5.3583">
        <ele>682</ele>
        <time>2022-04-28T13:06:05Z</time>
      </trkpt>
      <trkpt lat="45.28482" lon="5.35825">
        <ele>682</ele>
        <time>2022-04-28T13:06:06Z</time>
      </trkpt>
      <trkpt lat="45.2848" lon="5.3582">
        <ele>681.9</ele>
        <time>2022-04-28T13:06:07Z</time>
      </trkpt>
      <trkpt lat="45.2848" lon="5.35815">
        <ele>681.8</ele>
        <time>2022-04-28T13:06:08Z</time>
      </trkpt>
      <trkpt lat="45.28479" lon="5.3581">
        <ele>681.7</ele>
        <time>2022-04-28T13:06:09Z</time>
      </trkpt>
      <trkpt lat="45.28478" lon="5.35804">
        <ele>681.5</ele>
        <time>2022-04-28T13:06:10Z</time>
      </trkpt>
      <trkpt lat="45.28477" lon="5.35799">
        <ele>681.3</ele>
        <time>2022-04-28T13:06:11Z</time>
      </trkpt>
      <trkpt lat="45.28475" lon="5.35793">
        <ele>681.1</ele>
        <time>2022-04-28T13:06:12Z</time>
      </trkpt>
      <trkpt lat="45.28473" lon="5.35788">
        <ele>680.8</ele>
        <time>2022-04-28T13:06:13Z</time>
      </trkpt>
      <trkpt lat="45.2847" lon="5.35783">
        <ele>680.5</ele>
        <time>2022-04-28T13:06:14Z</time>
      </trkpt>
      <trkpt lat="45.28465" lon="5.35776">
        <ele>680.1</ele>
        <time>2022-04-28T13:06:16Z</time>
      </trkpt>
      <trkpt lat="45.28463" lon="5.35773">
        <ele>680</ele>
        <time>2022-04-28T13:06:17Z</time>
      </trkpt>
      <trkpt lat="45.28459" lon="5.35769">
        <ele>679.7</ele>
        <time>2022-04-28T13:06:18Z</time>
      </trkpt>
      <trkpt lat="45.28458" lon="5.35767">
        <ele>679.6</ele>
        <time>2022-04-28T13:06:19Z</time>
      </trkpt>
      <trkpt lat="45.28455" lon="5.35762">
        <ele>679.3</ele>
        <time>2022-04-28T13:06:20Z</time>
      </trkpt>
      <trkpt lat="45.28452" lon="5.35758">
        <ele>679.1</ele>
        <time>2022-04-28T13:06:21Z</time>
      </trkpt>
      <trkpt lat="45.28449" lon="5.35754">
        <ele>678.9</ele>
        <time>2022-04-28T13:06:22Z</time>
      </trkpt>
      <trkpt lat="45.28446" lon="5.3575">
        <ele>678.6</ele>
        <time>2022-04-28T13:06:23Z</time>
      </trkpt>
      <trkpt lat="45.28442" lon="5.35747">
        <ele>678.4</ele>
        <time>2022-04-28T13:06:24Z</time>
      </trkpt>
      <trkpt lat="45.28439" lon="5.35741">
        <ele>678.1</ele>
        <time>2022-04-28T13:06:25Z</time>
      </trkpt>
      <trkpt lat="45.28437" lon="5.35736">
        <ele>677.8</ele>
        <time>2022-04-28T13:06:26Z</time>
      </trkpt>
      <trkpt lat="45.28436" lon="5.35731">
        <ele>677.4</ele>
        <time>2022-04-28T13:06:27Z</time>
      </trkpt>
      <trkpt lat="45.28436" lon="5.35726">
        <ele>677.2</ele>
        <time>2022-04-28T13:06:28Z</time>
      </trkpt>
      <trkpt lat="45.28438" lon="5.35721">
        <ele>676.8</ele>
        <time>2022-04-28T13:06:29Z</time>
      </trkpt>
      <trkpt lat="45.28441" lon="5.35714">
        <ele>676.2</ele>
        <time>2022-04-28T13:06:31Z</time>
      </trkpt>
      <trkpt lat="45.28446" lon="5.35708">
        <ele>675.6</ele>
        <time>2022-04-28T13:06:32Z</time>
      </trkpt>
      <trkpt lat="45.2845" lon="5.35703">
        <ele>675</ele>
        <time>2022-04-28T13:06:33Z</time>
      </trkpt>
      <trkpt lat="45.28453" lon="5.35697">
        <ele>674.3</ele>
        <time>2022-04-28T13:06:35Z</time>
      </trkpt>
      <trkpt lat="45.28456" lon="5.35691">
        <ele>673.7</ele>
        <time>2022-04-28T13:06:36Z</time>
      </trkpt>
      <trkpt lat="45.28459" lon="5.35686">
        <ele>673.2</ele>
        <time>2022-04-28T13:06:37Z</time>
      </trkpt>
      <trkpt lat="45.28462" lon="5.35681">
        <ele>672.5</ele>
        <time>2022-04-28T13:06:39Z</time>
      </trkpt>
      <trkpt lat="45.28465" lon="5.35676">
        <ele>672</ele>
        <time>2022-04-28T13:06:40Z</time>
      </trkpt>
      <trkpt lat="45.28467" lon="5.3567">
        <ele>671.4</ele>
        <time>2022-04-28T13:06:41Z</time>
      </trkpt>
      <trkpt lat="45.28467" lon="5.35665">
        <ele>670.8</ele>
        <time>2022-04-28T13:06:43Z</time>
      </trkpt>
      <trkpt lat="45.28469" lon="5.3566">
        <ele>670.4</ele>
        <time>2022-04-28T13:06:44Z</time>
      </trkpt>
      <trkpt lat="45.28471" lon="5.35655">
        <ele>669.7</ele>
        <time>2022-04-28T13:06:45Z</time>
      </trkpt>
      <trkpt lat="45.28473" lon="5.35651">
        <ele>669.2</ele>
        <time>2022-04-28T13:06:46Z</time>
      </trkpt>
      <trkpt lat="45.28475" lon="5.35645">
        <ele>668.5</ele>
        <time>2022-04-28T13:06:48Z</time>
      </trkpt>
      <trkpt lat="45.28478" lon="5.35641">
        <ele>667.9</ele>
        <time>2022-04-28T13:06:49Z</time>
      </trkpt>
      <trkpt lat="45.2848" lon="5.35635">
        <ele>667.2</ele>
        <time>2022-04-28T13:06:50Z</time>
      </trkpt>
      <trkpt lat="45.28482" lon="5.35631">
        <ele>666.7</ele>
        <time>2022-04-28T13:06:51Z</time>
      </trkpt>
      <trkpt lat="45.28484" lon="5.35627">
        <ele>666.1</ele>
        <time>2022-04-28T13:06:52Z</time>
      </trkpt>
      <trkpt lat="45.28485" lon="5.35623">
        <ele>665.6</ele>
        <time>2022-04-28T13:06:53Z</time>
      </trkpt>
      <trkpt lat="45.28487" lon="5.35617">
        <ele>664.9</ele>
        <time>2022-04-28T13:06:55Z</time>
      </trkpt>
      <trkpt lat="45.28489" lon="5.35611">
        <ele>664.1</ele>
        <time>2022-04-28T13:06:56Z</time>
      </trkpt>
      <trkpt lat="45.28491" lon="5.35607">
        <ele>663.7</ele>
        <time>2022-04-28T13:06:57Z</time>
      </trkpt>
      <trkpt lat="45.28491" lon="5.35603">
        <ele>663.2</ele>
        <time>2022-04-28T13:06:58Z</time>
      </trkpt>
      <trkpt lat="45.28492" lon="5.356">
        <ele>662.9</ele>
        <time>2022-04-28T13:06:59Z</time>
      </trkpt>
      <trkpt lat="45.28491" lon="5.35591">
        <ele>661.9</ele>
        <time>2022-04-28T13:07:01Z</time>
      </trkpt>
      <trkpt lat="45.28489" lon="5.35585">
        <ele>661.2</ele>
        <time>2022-04-28T13:07:02Z</time>
      </trkpt>
      <trkpt lat="45.28488" lon="5.35581">
        <ele>660.8</ele>
        <time>2022-04-28T13:07:03Z</time>
      </trkpt>
      <trkpt lat="45.28487" lon="5.35577">
        <ele>660.3</ele>
        <time>2022-04-28T13:07:04Z</time>
      </trkpt>
      <trkpt lat="45.28486" lon="5.3557">
        <ele>659.5</ele>
        <time>2022-04-28T13:07:06Z</time>
      </trkpt>
      <trkpt lat="45.28487" lon="5.35562">
        <ele>658.6</ele>
        <time>2022-04-28T13:07:07Z</time>
      </trkpt>
      <trkpt lat="45.28486" lon="5.35556">
        <ele>658.1</ele>
        <time>2022-04-28T13:07:08Z</time>
      </trkpt>
      <trkpt lat="45.28485" lon="5.35552">
        <ele>657.6</ele>
        <time>2022-04-28T13:07:09Z</time>
      </trkpt>
      <trkpt lat="45.28484" lon="5.35547">
        <ele>657.1</ele>
        <time>2022-04-28T13:07:10Z</time>
      </trkpt>
      <trkpt lat="45.28485" lon="5.35541">
        <ele>656.6</ele>
        <time>2022-04-28T13:07:11Z</time>
      </trkpt>
      <trkpt lat="45.28485" lon="5.35536">
        <ele>656.1</ele>
        <time>2022-04-28T13:07:12Z</time>
      </trkpt>
      <trkpt lat="45.28485" lon="5.35532">
        <ele>655.7</ele>
        <time>2022-04-28T13:07:13Z</time>
      </trkpt>
      <trkpt lat="45.28486" lon="5.35527">
        <ele>655.3</ele>
        <time>2022-04-28T13:07:14Z</time>
      </trkpt>
      <trkpt lat="45.28486" lon="5.35525">
        <ele>655.2</ele>
        <time>2022-04-28T13:07:15Z</time>
      </trkpt>
      <trkpt lat="45.28486" lon="5.35521">
        <ele>654.8</ele>
        <time>2022-04-28T13:07:16Z</time>
      </trkpt>
      <trkpt lat="45.28487" lon="5.35515">
        <ele>654.2</ele>
        <time>2022-04-28T13:07:17Z</time>
      </trkpt>
      <trkpt lat="45.28488" lon="5.35509">
        <ele>653.7</ele>
        <time>2022-04-28T13:07:18Z</time>
      </trkpt>
      <trkpt lat="45.28489" lon="5.35507">
        <ele>653.5</ele>
        <time>2022-04-28T13:07:19Z</time>
      </trkpt>
      <trkpt lat="45.2849" lon="5.35501">
        <ele>652.9</ele>
        <time>2022-04-28T13:07:20Z</time>
      </trkpt>
      <trkpt lat="45.2849" lon="5.35499">
        <ele>652.7</ele>
        <time>2022-04-28T13:07:21Z</time>
      </trkpt>
      <trkpt lat="45.28491" lon="5.35495">
        <ele>652.4</ele>
        <time>2022-04-28T13:07:22Z</time>
      </trkpt>
      <trkpt lat="45.28491" lon="5.35491">
        <ele>652</ele>
        <time>2022-04-28T13:07:23Z</time>
      </trkpt>
      <trkpt lat="45.28491" lon="5.35486">
        <ele>651.5</ele>
        <time>2022-04-28T13:07:24Z</time>
      </trkpt>
      <trkpt lat="45.28491" lon="5.35482">
        <ele>651.1</ele>
        <time>2022-04-28T13:07:25Z</time>
      </trkpt>
      <trkpt lat="45.28489" lon="5.35477">
        <ele>650.6</ele>
        <time>2022-04-28T13:07:26Z</time>
      </trkpt>
      <trkpt lat="45.28487" lon="5.35472">
        <ele>650</ele>
        <time>2022-04-28T13:07:27Z</time>
      </trkpt>
      <trkpt lat="45.28486" lon="5.35468">
        <ele>649.6</ele>
        <time>2022-04-28T13:07:28Z</time>
      </trkpt>
      <trkpt lat="45.28485" lon="5.35462">
        <ele>649</ele>
        <time>2022-04-28T13:07:29Z</time>
      </trkpt>
      <trkpt lat="45.28485" lon="5.35458">
        <ele>648.5</ele>
        <time>2022-04-28T13:07:30Z</time>
      </trkpt>
      <trkpt lat="45.28484" lon="5.35455">
        <ele>648.2</ele>
        <time>2022-04-28T13:07:31Z</time>
      </trkpt>
      <trkpt lat="45.28481" lon="5.3545">
        <ele>647.6</ele>
        <time>2022-04-28T13:07:33Z</time>
      </trkpt>
      <trkpt lat="45.28479" lon="5.35444">
        <ele>646.9</ele>
        <time>2022-04-28T13:07:34Z</time>
      </trkpt>
      <trkpt lat="45.28475" lon="5.35437">
        <ele>646</ele>
        <time>2022-04-28T13:07:35Z</time>
      </trkpt>
      <trkpt lat="45.28472" lon="5.35432">
        <ele>645.3</ele>
        <time>2022-04-28T13:07:36Z</time>
      </trkpt>
      <trkpt lat="45.2847" lon="5.35425">
        <ele>644.5</ele>
        <time>2022-04-28T13:07:38Z</time>
      </trkpt>
      <trkpt lat="45.28468" lon="5.3542">
        <ele>643.8</ele>
        <time>2022-04-28T13:07:39Z</time>
      </trkpt>
      <trkpt lat="45.28466" lon="5.35415">
        <ele>643.2</ele>
        <time>2022-04-28T13:07:40Z</time>
      </trkpt>
      <trkpt lat="45.28462" lon="5.35406">
        <ele>641.9</ele>
        <time>2022-04-28T13:07:41Z</time>
      </trkpt>
      <trkpt lat="45.28459" lon="5.354">
        <ele>641.2</ele>
        <time>2022-04-28T13:07:42Z</time>
      </trkpt>
      <trkpt lat="45.28457" lon="5.35392">
        <ele>640.1</ele>
        <time>2022-04-28T13:07:43Z</time>
      </trkpt>
      <trkpt lat="45.28456" lon="5.35386">
        <ele>639.5</ele>
        <time>2022-04-28T13:07:44Z</time>
      </trkpt>
      <trkpt lat="45.28453" lon="5.35379">
        <ele>638.6</ele>
        <time>2022-04-28T13:07:45Z</time>
      </trkpt>
      <trkpt lat="45.28449" lon="5.35371">
        <ele>637.5</ele>
        <time>2022-04-28T13:07:46Z</time>
      </trkpt>
      <trkpt lat="45.28446" lon="5.35364">
        <ele>636.5</ele>
        <time>2022-04-28T13:07:47Z</time>
      </trkpt>
      <trkpt lat="45.28445" lon="5.35359">
        <ele>635.9</ele>
        <time>2022-04-28T13:07:48Z</time>
      </trkpt>
      <trkpt lat="45.28443" lon="5.35352">
        <ele>635.1</ele>
        <time>2022-04-28T13:07:49Z</time>
      </trkpt>
      <trkpt lat="45.2844" lon="5.35345">
        <ele>634.1</ele>
        <time>2022-04-28T13:07:50Z</time>
      </trkpt>
      <trkpt lat="45.28437" lon="5.35337">
        <ele>633.2</ele>
        <time>2022-04-28T13:07:51Z</time>
      </trkpt>
      <trkpt lat="45.28434" lon="5.35329">
        <ele>632.3</ele>
        <time>2022-04-28T13:07:52Z</time>
      </trkpt>
      <trkpt lat="45.2843" lon="5.35321">
        <ele>631.6</ele>
        <time>2022-04-28T13:07:53Z</time>
      </trkpt>
      <trkpt lat="45.28426" lon="5.35314">
        <ele>630.9</ele>
        <time>2022-04-28T13:07:54Z</time>
      </trkpt>
      <trkpt lat="45.28423" lon="5.35306">
        <ele>630.4</ele>
        <time>2022-04-28T13:07:55Z</time>
      </trkpt>
      <trkpt lat="45.2842" lon="5.35299">
        <ele>630</ele>
        <time>2022-04-28T13:07:56Z</time>
      </trkpt>
      <trkpt lat="45.28417" lon="5.35291">
        <ele>629.7</ele>
        <time>2022-04-28T13:07:57Z</time>
      </trkpt>
      <trkpt lat="45.28414" lon="5.35283">
        <ele>629.5</ele>
        <time>2022-04-28T13:07:58Z</time>
      </trkpt>
      <trkpt lat="45.28412" lon="5.35277">
        <ele>629.3</ele>
        <time>2022-04-28T13:07:59Z</time>
      </trkpt>
      <trkpt lat="45.2841" lon="5.35271">
        <ele>629.2</ele>
        <time>2022-04-28T13:08:00Z</time>
      </trkpt>
      <trkpt lat="45.28409" lon="5.35267">
        <ele>629.2</ele>
        <time>2022-04-28T13:08:01Z</time>
      </trkpt>
      <trkpt lat="45.28408" lon="5.35262">
        <ele>629.1</ele>
        <time>2022-04-28T13:08:02Z</time>
      </trkpt>
      <trkpt lat="45.28407" lon="5.35258">
        <ele>629.1</ele>
        <time>2022-04-28T13:08:03Z</time>
      </trkpt>
      <trkpt lat="45.28407" lon="5.35254">
        <ele>629</ele>
        <time>2022-04-28T13:08:04Z</time>
      </trkpt>
      <trkpt lat="45.28409" lon="5.35251">
        <ele>629</ele>
        <time>2022-04-28T13:08:06Z</time>
      </trkpt>
      <trkpt lat="45.28409" lon="5.35249">
        <ele>629</ele>
        <time>2022-04-28T13:08:07Z</time>
      </trkpt>
      <trkpt lat="45.28409" lon="5.35249">
        <ele>629</ele>
        <time>2022-04-28T13:08:08Z</time>
      </trkpt>
      <trkpt lat="45.28409" lon="5.35249">
        <ele>629</ele>
        <time>2022-04-28T13:08:09Z</time>
      </trkpt>
      <trkpt lat="45.28409" lon="5.35248">
        <ele>629</ele>
        <time>2022-04-28T13:08:10Z</time>
      </trkpt>
      <trkpt lat="45.28409" lon="5.35248">
        <ele>629</ele>
        <time>2022-04-28T13:08:11Z</time>
      </trkpt>
      <trkpt lat="45.28409" lon="5.35247">
        <ele>629</ele>
        <time>2022-04-28T13:08:12Z</time>
      </trkpt>
      <trkpt lat="45.28409" lon="5.35247">
        <ele>629</ele>
        <time>2022-04-28T13:08:13Z</time>
      </trkpt>
      <trkpt lat="45.28409" lon="5.35247">
        <ele>629</ele>
        <time>2022-04-28T13:08:14Z</time>
      </trkpt>
      <trkpt lat="45.28409" lon="5.35246">
        <ele>629</ele>
        <time>2022-04-28T13:08:15Z</time>
      </trkpt>
      <trkpt lat="45.28409" lon="5.35246">
        <ele>629</ele>
        <time>2022-04-28T13:08:16Z</time>
      </trkpt>
      <trkpt lat="45.28409" lon="5.35246">
        <ele>629</ele>
        <time>2022-04-28T13:08:17Z</time>
      </trkpt>
      <trkpt lat="45.28409" lon="5.35245">
        <ele>629</ele>
        <time>2022-04-28T13:08:18Z</time>
      </trkpt>
      <trkpt lat="45.28409" lon="5.35245">
        <ele>629</ele>
        <time>2022-04-28T13:08:19Z</time>
      </trkpt>
      <trkpt lat="45.28409" lon="5.35244">
        <ele>629</ele>
        <time>2022-04-28T13:08:20Z</time>
      </trkpt>
      <trkpt lat="45.28409" lon="5.35244">
        <ele>629</ele>
        <time>2022-04-28T13:08:21Z</time>
      </trkpt>
      <trkpt lat="45.28409" lon="5.35244">
        <ele>629</ele>
        <time>2022-04-28T13:08:38Z</time>
      </trkpt>
      <trkpt lat="45.28409" lon="5.35243">
        <ele>629</ele>
        <time>2022-04-28T13:08:39Z</time>
      </trkpt>
      <trkpt lat="45.28409" lon="5.35243">
        <ele>628.9</ele>
        <time>2022-04-28T13:08:40Z</time>
      </trkpt>
      <trkpt lat="45.28407" lon="5.35238">
        <ele>629</ele>
        <time>2022-04-28T13:08:41Z</time>
      </trkpt>
      <trkpt lat="45.28406" lon="5.35236">
        <ele>629</ele>
        <time>2022-04-28T13:08:42Z</time>
      </trkpt>
      <trkpt lat="45.28405" lon="5.3523">
        <ele>629.2</ele>
        <time>2022-04-28T13:08:43Z</time>
      </trkpt>
      <trkpt lat="45.28404" lon="5.35228">
        <ele>629.2</ele>
        <time>2022-04-28T13:08:44Z</time>
      </trkpt>
      <trkpt lat="45.28403" lon="5.35221">
        <ele>629.3</ele>
        <time>2022-04-28T13:08:45Z</time>
      </trkpt>
      <trkpt lat="45.28403" lon="5.35219">
        <ele>629.4</ele>
        <time>2022-04-28T13:08:46Z</time>
      </trkpt>
      <trkpt lat="45.28402" lon="5.35215">
        <ele>629.5</ele>
        <time>2022-04-28T13:08:47Z</time>
      </trkpt>
      <trkpt lat="45.28401" lon="5.3521">
        <ele>629.5</ele>
        <time>2022-04-28T13:08:48Z</time>
      </trkpt>
      <trkpt lat="45.28399" lon="5.35204">
        <ele>629.6</ele>
        <time>2022-04-28T13:08:49Z</time>
      </trkpt>
      <trkpt lat="45.28399" lon="5.35202">
        <ele>629.7</ele>
        <time>2022-04-28T13:08:50Z</time>
      </trkpt>
      <trkpt lat="45.28398" lon="5.35197">
        <ele>629.7</ele>
        <time>2022-04-28T13:08:51Z</time>
      </trkpt>
      <trkpt lat="45.28397" lon="5.35193">
        <ele>629.8</ele>
        <time>2022-04-28T13:08:52Z</time>
      </trkpt>
      <trkpt lat="45.28396" lon="5.35189">
        <ele>629.9</ele>
        <time>2022-04-28T13:08:53Z</time>
      </trkpt>
      <trkpt lat="45.28395" lon="5.35184">
        <ele>630</ele>
        <time>2022-04-28T13:08:54Z</time>
      </trkpt>
      <trkpt lat="45.28394" lon="5.35179">
        <ele>630</ele>
        <time>2022-04-28T13:08:55Z</time>
      </trkpt>
      <trkpt lat="45.28393" lon="5.35176">
        <ele>630.1</ele>
        <time>2022-04-28T13:08:56Z</time>
      </trkpt>
      <trkpt lat="45.28392" lon="5.35171">
        <ele>630.1</ele>
        <time>2022-04-28T13:08:57Z</time>
      </trkpt>
      <trkpt lat="45.28391" lon="5.35167">
        <ele>630.2</ele>
        <time>2022-04-28T13:08:58Z</time>
      </trkpt>
      <trkpt lat="45.28389" lon="5.35163">
        <ele>630.3</ele>
        <time>2022-04-28T13:08:59Z</time>
      </trkpt>
      <trkpt lat="45.28387" lon="5.35159">
        <ele>630.4</ele>
        <time>2022-04-28T13:09:00Z</time>
      </trkpt>
      <trkpt lat="45.28385" lon="5.35157">
        <ele>630.4</ele>
        <time>2022-04-28T13:09:01Z</time>
      </trkpt>
      <trkpt lat="45.28382" lon="5.35153">
        <ele>630.6</ele>
        <time>2022-04-28T13:09:02Z</time>
      </trkpt>
      <trkpt lat="45.2838" lon="5.35151">
        <ele>630.6</ele>
        <time>2022-04-28T13:09:03Z</time>
      </trkpt>
      <trkpt lat="45.28378" lon="5.3515">
        <ele>630.7</ele>
        <time>2022-04-28T13:09:04Z</time>
      </trkpt>
      <trkpt lat="45.28375" lon="5.35148">
        <ele>630.8</ele>
        <time>2022-04-28T13:09:05Z</time>
      </trkpt>
      <trkpt lat="45.28371" lon="5.35148">
        <ele>630.8</ele>
        <time>2022-04-28T13:09:06Z</time>
      </trkpt>
      <trkpt lat="45.28367" lon="5.35148">
        <ele>630.9</ele>
        <time>2022-04-28T13:09:07Z</time>
      </trkpt>
      <trkpt lat="45.28364" lon="5.35148">
        <ele>631</ele>
        <time>2022-04-28T13:09:08Z</time>
      </trkpt>
      <trkpt lat="45.28361" lon="5.35148">
        <ele>631.1</ele>
        <time>2022-04-28T13:09:09Z</time>
      </trkpt>
      <trkpt lat="45.28357" lon="5.35148">
        <ele>631.2</ele>
        <time>2022-04-28T13:09:10Z</time>
      </trkpt>
      <trkpt lat="45.28352" lon="5.35149">
        <ele>631.3</ele>
        <time>2022-04-28T13:09:11Z</time>
      </trkpt>
      <trkpt lat="45.28349" lon="5.35149">
        <ele>631.4</ele>
        <time>2022-04-28T13:09:12Z</time>
      </trkpt>
      <trkpt lat="45.28345" lon="5.35148">
        <ele>631.6</ele>
        <time>2022-04-28T13:09:13Z</time>
      </trkpt>
      <trkpt lat="45.28342" lon="5.35147">
        <ele>631.6</ele>
        <time>2022-04-28T13:09:14Z</time>
      </trkpt>
      <trkpt lat="45.28338" lon="5.35146">
        <ele>631.8</ele>
        <time>2022-04-28T13:09:15Z</time>
      </trkpt>
      <trkpt lat="45.28334" lon="5.35144">
        <ele>631.9</ele>
        <time>2022-04-28T13:09:16Z</time>
      </trkpt>
      <trkpt lat="45.28331" lon="5.35142">
        <ele>632</ele>
        <time>2022-04-28T13:09:17Z</time>
      </trkpt>
      <trkpt lat="45.28328" lon="5.35139">
        <ele>632.1</ele>
        <time>2022-04-28T13:09:18Z</time>
      </trkpt>
      <trkpt lat="45.28326" lon="5.35135">
        <ele>632.2</ele>
        <time>2022-04-28T13:09:19Z</time>
      </trkpt>
      <trkpt lat="45.28324" lon="5.35131">
        <ele>632.3</ele>
        <time>2022-04-28T13:09:20Z</time>
      </trkpt>
      <trkpt lat="45.2832" lon="5.35125">
        <ele>632.5</ele>
        <time>2022-04-28T13:09:22Z</time>
      </trkpt>
      <trkpt lat="45.28317" lon="5.3512">
        <ele>632.7</ele>
        <time>2022-04-28T13:09:23Z</time>
      </trkpt>
      <trkpt lat="45.28315" lon="5.35115">
        <ele>632.8</ele>
        <time>2022-04-28T13:09:24Z</time>
      </trkpt>
      <trkpt lat="45.28313" lon="5.35111">
        <ele>633</ele>
        <time>2022-04-28T13:09:25Z</time>
      </trkpt>
      <trkpt lat="45.28311" lon="5.35104">
        <ele>633.1</ele>
        <time>2022-04-28T13:09:27Z</time>
      </trkpt>
      <trkpt lat="45.2831" lon="5.351">
        <ele>633.3</ele>
        <time>2022-04-28T13:09:28Z</time>
      </trkpt>
      <trkpt lat="45.28308" lon="5.35095">
        <ele>633.4</ele>
        <time>2022-04-28T13:09:29Z</time>
      </trkpt>
      <trkpt lat="45.28307" lon="5.35089">
        <ele>633.6</ele>
        <time>2022-04-28T13:09:30Z</time>
      </trkpt>
      <trkpt lat="45.28305" lon="5.35085">
        <ele>633.8</ele>
        <time>2022-04-28T13:09:31Z</time>
      </trkpt>
      <trkpt lat="45.28303" lon="5.35078">
        <ele>634</ele>
        <time>2022-04-28T13:09:33Z</time>
      </trkpt>
      <trkpt lat="45.28302" lon="5.35073">
        <ele>634.1</ele>
        <time>2022-04-28T13:09:34Z</time>
      </trkpt>
      <trkpt lat="45.28301" lon="5.35071">
        <ele>634.2</ele>
        <time>2022-04-28T13:09:35Z</time>
      </trkpt>
      <trkpt lat="45.28299" lon="5.35065">
        <ele>634.4</ele>
        <time>2022-04-28T13:09:37Z</time>
      </trkpt>
      <trkpt lat="45.28296" lon="5.35059">
        <ele>634.6</ele>
        <time>2022-04-28T13:09:38Z</time>
      </trkpt>
      <trkpt lat="45.28293" lon="5.35055">
        <ele>634.7</ele>
        <time>2022-04-28T13:09:40Z</time>
      </trkpt>
      <trkpt lat="45.28291" lon="5.35051">
        <ele>634.9</ele>
        <time>2022-04-28T13:09:41Z</time>
      </trkpt>
      <trkpt lat="45.28288" lon="5.35047">
        <ele>635</ele>
        <time>2022-04-28T13:09:42Z</time>
      </trkpt>
      <trkpt lat="45.28284" lon="5.35043">
        <ele>635.2</ele>
        <time>2022-04-28T13:09:43Z</time>
      </trkpt>
      <trkpt lat="45.28281" lon="5.35038">
        <ele>635.5</ele>
        <time>2022-04-28T13:09:45Z</time>
      </trkpt>
      <trkpt lat="45.28277" lon="5.35034">
        <ele>635.7</ele>
        <time>2022-04-28T13:09:46Z</time>
      </trkpt>
      <trkpt lat="45.28274" lon="5.35031">
        <ele>635.9</ele>
        <time>2022-04-28T13:09:47Z</time>
      </trkpt>
      <trkpt lat="45.28269" lon="5.35028">
        <ele>636.2</ele>
        <time>2022-04-28T13:09:49Z</time>
      </trkpt>
      <trkpt lat="45.28265" lon="5.35025">
        <ele>636.4</ele>
        <time>2022-04-28T13:09:50Z</time>
      </trkpt>
      <trkpt lat="45.28262" lon="5.35023">
        <ele>636.6</ele>
        <time>2022-04-28T13:09:51Z</time>
      </trkpt>
      <trkpt lat="45.28258" lon="5.35021">
        <ele>636.7</ele>
        <time>2022-04-28T13:09:52Z</time>
      </trkpt>
      <trkpt lat="45.28255" lon="5.35019">
        <ele>636.9</ele>
        <time>2022-04-28T13:09:53Z</time>
      </trkpt>
      <trkpt lat="45.2825" lon="5.35016">
        <ele>637.2</ele>
        <time>2022-04-28T13:09:55Z</time>
      </trkpt>
      <trkpt lat="45.28246" lon="5.35015">
        <ele>637.4</ele>
        <time>2022-04-28T13:09:56Z</time>
      </trkpt>
      <trkpt lat="45.28242" lon="5.35013">
        <ele>637.6</ele>
        <time>2022-04-28T13:09:57Z</time>
      </trkpt>
      <trkpt lat="45.28239" lon="5.35012">
        <ele>637.8</ele>
        <time>2022-04-28T13:09:58Z</time>
      </trkpt>
      <trkpt lat="45.28235" lon="5.35011">
        <ele>638</ele>
        <time>2022-04-28T13:09:59Z</time>
      </trkpt>
      <trkpt lat="45.28231" lon="5.35008">
        <ele>638.2</ele>
        <time>2022-04-28T13:10:01Z</time>
      </trkpt>
      <trkpt lat="45.28228" lon="5.35007">
        <ele>638.4</ele>
        <time>2022-04-28T13:10:02Z</time>
      </trkpt>
      <trkpt lat="45.28224" lon="5.35006">
        <ele>638.6</ele>
        <time>2022-04-28T13:10:03Z</time>
      </trkpt>
      <trkpt lat="45.28221" lon="5.35004">
        <ele>638.8</ele>
        <time>2022-04-28T13:10:04Z</time>
      </trkpt>
      <trkpt lat="45.28218" lon="5.35003">
        <ele>639</ele>
        <time>2022-04-28T13:10:05Z</time>
      </trkpt>
      <trkpt lat="45.28215" lon="5.35001">
        <ele>639.1</ele>
        <time>2022-04-28T13:10:06Z</time>
      </trkpt>
      <trkpt lat="45.28211" lon="5.35">
        <ele>639.4</ele>
        <time>2022-04-28T13:10:08Z</time>
      </trkpt>
      <trkpt lat="45.28208" lon="5.34998">
        <ele>639.5</ele>
        <time>2022-04-28T13:10:09Z</time>
      </trkpt>
      <trkpt lat="45.28204" lon="5.34996">
        <ele>639.8</ele>
        <time>2022-04-28T13:10:10Z</time>
      </trkpt>
      <trkpt lat="45.282" lon="5.34995">
        <ele>640</ele>
        <time>2022-04-28T13:10:11Z</time>
      </trkpt>
      <trkpt lat="45.28196" lon="5.34993">
        <ele>640.2</ele>
        <time>2022-04-28T13:10:12Z</time>
      </trkpt>
      <trkpt lat="45.28193" lon="5.34992">
        <ele>640.3</ele>
        <time>2022-04-28T13:10:13Z</time>
      </trkpt>
      <trkpt lat="45.2819" lon="5.3499">
        <ele>640.5</ele>
        <time>2022-04-28T13:10:14Z</time>
      </trkpt>
      <trkpt lat="45.28187" lon="5.34988">
        <ele>640.7</ele>
        <time>2022-04-28T13:10:15Z</time>
      </trkpt>
      <trkpt lat="45.28185" lon="5.34986">
        <ele>640.8</ele>
        <time>2022-04-28T13:10:16Z</time>
      </trkpt>
      <trkpt lat="45.28182" lon="5.34984">
        <ele>640.9</ele>
        <time>2022-04-28T13:10:17Z</time>
      </trkpt>
      <trkpt lat="45.28179" lon="5.34982">
        <ele>641.1</ele>
        <time>2022-04-28T13:10:18Z</time>
      </trkpt>
      <trkpt lat="45.28176" lon="5.34979">
        <ele>641.3</ele>
        <time>2022-04-28T13:10:19Z</time>
      </trkpt>
      <trkpt lat="45.28172" lon="5.34976">
        <ele>641.5</ele>
        <time>2022-04-28T13:10:21Z</time>
      </trkpt>
      <trkpt lat="45.2817" lon="5.34973">
        <ele>641.6</ele>
        <time>2022-04-28T13:10:22Z</time>
      </trkpt>
      <trkpt lat="45.28166" lon="5.3497">
        <ele>641.8</ele>
        <time>2022-04-28T13:10:23Z</time>
      </trkpt>
      <trkpt lat="45.28163" lon="5.34968">
        <ele>642</ele>
        <time>2022-04-28T13:10:24Z</time>
      </trkpt>
      <trkpt lat="45.2816" lon="5.34966">
        <ele>642.1</ele>
        <time>2022-04-28T13:10:25Z</time>
      </trkpt>
      <trkpt lat="45.28158" lon="5.34963">
        <ele>642.3</ele>
        <time>2022-04-28T13:10:26Z</time>
      </trkpt>
      <trkpt lat="45.28155" lon="5.3496">
        <ele>642.5</ele>
        <time>2022-04-28T13:10:27Z</time>
      </trkpt>
      <trkpt lat="45.28152" lon="5.34957">
        <ele>642.7</ele>
        <time>2022-04-28T13:10:29Z</time>
      </trkpt>
      <trkpt lat="45.28149" lon="5.34953">
        <ele>642.9</ele>
        <time>2022-04-28T13:10:30Z</time>
      </trkpt>
      <trkpt lat="45.28146" lon="5.3495">
        <ele>643.1</ele>
        <time>2022-04-28T13:10:31Z</time>
      </trkpt>
      <trkpt lat="45.28143" lon="5.34947">
        <ele>643.3</ele>
        <time>2022-04-28T13:10:32Z</time>
      </trkpt>
      <trkpt lat="45.2814" lon="5.34944">
        <ele>643.4</ele>
        <time>2022-04-28T13:10:33Z</time>
      </trkpt>
      <trkpt lat="45.28137" lon="5.34941">
        <ele>643.6</ele>
        <time>2022-04-28T13:10:34Z</time>
      </trkpt>
      <trkpt lat="45.28135" lon="5.34939">
        <ele>643.8</ele>
        <time>2022-04-28T13:10:35Z</time>
      </trkpt>
      <trkpt lat="45.28132" lon="5.34937">
        <ele>643.9</ele>
        <time>2022-04-28T13:10:36Z</time>
      </trkpt>
      <trkpt lat="45.2813" lon="5.34935">
        <ele>644.1</ele>
        <time>2022-04-28T13:10:37Z</time>
      </trkpt>
      <trkpt lat="45.28127" lon="5.34933">
        <ele>644.2</ele>
        <time>2022-04-28T13:10:38Z</time>
      </trkpt>
      <trkpt lat="45.28124" lon="5.34931">
        <ele>644.4</ele>
        <time>2022-04-28T13:10:39Z</time>
      </trkpt>
      <trkpt lat="45.28121" lon="5.34929">
        <ele>644.6</ele>
        <time>2022-04-28T13:10:40Z</time>
      </trkpt>
      <trkpt lat="45.28118" lon="5.34927">
        <ele>644.9</ele>
        <time>2022-04-28T13:10:41Z</time>
      </trkpt>
      <trkpt lat="45.28115" lon="5.34925">
        <ele>645</ele>
        <time>2022-04-28T13:10:42Z</time>
      </trkpt>
      <trkpt lat="45.28111" lon="5.34923">
        <ele>645.3</ele>
        <time>2022-04-28T13:10:44Z</time>
      </trkpt>
      <trkpt lat="45.28107" lon="5.34921">
        <ele>645.6</ele>
        <time>2022-04-28T13:10:45Z</time>
      </trkpt>
      <trkpt lat="45.28104" lon="5.3492">
        <ele>645.8</ele>
        <time>2022-04-28T13:10:46Z</time>
      </trkpt>
      <trkpt lat="45.281" lon="5.34917">
        <ele>646.1</ele>
        <time>2022-04-28T13:10:47Z</time>
      </trkpt>
      <trkpt lat="45.28096" lon="5.34916">
        <ele>646.3</ele>
        <time>2022-04-28T13:10:48Z</time>
      </trkpt>
      <trkpt lat="45.28093" lon="5.34913">
        <ele>646.6</ele>
        <time>2022-04-28T13:10:50Z</time>
      </trkpt>
      <trkpt lat="45.28089" lon="5.3491">
        <ele>646.8</ele>
        <time>2022-04-28T13:10:51Z</time>
      </trkpt>
      <trkpt lat="45.28086" lon="5.34906">
        <ele>647.1</ele>
        <time>2022-04-28T13:10:52Z</time>
      </trkpt>
      <trkpt lat="45.28085" lon="5.34902">
        <ele>647.2</ele>
        <time>2022-04-28T13:10:53Z</time>
      </trkpt>
      <trkpt lat="45.28084" lon="5.34898">
        <ele>647.4</ele>
        <time>2022-04-28T13:10:54Z</time>
      </trkpt>
      <trkpt lat="45.28082" lon="5.34894">
        <ele>647.6</ele>
        <time>2022-04-28T13:10:55Z</time>
      </trkpt>
      <trkpt lat="45.28082" lon="5.3489">
        <ele>647.7</ele>
        <time>2022-04-28T13:10:56Z</time>
      </trkpt>
      <trkpt lat="45.28082" lon="5.34886">
        <ele>647.8</ele>
        <time>2022-04-28T13:10:57Z</time>
      </trkpt>
      <trkpt lat="45.28082" lon="5.34882">
        <ele>648</ele>
        <time>2022-04-28T13:10:58Z</time>
      </trkpt>
      <trkpt lat="45.28083" lon="5.34878">
        <ele>648.1</ele>
        <time>2022-04-28T13:10:59Z</time>
      </trkpt>
      <trkpt lat="45.28084" lon="5.34873">
        <ele>648.3</ele>
        <time>2022-04-28T13:11:00Z</time>
      </trkpt>
      <trkpt lat="45.28085" lon="5.3487">
        <ele>648.4</ele>
        <time>2022-04-28T13:11:01Z</time>
      </trkpt>
      <trkpt lat="45.28086" lon="5.34866">
        <ele>648.5</ele>
        <time>2022-04-28T13:11:02Z</time>
      </trkpt>
      <trkpt lat="45.28087" lon="5.34862">
        <ele>648.6</ele>
        <time>2022-04-28T13:11:03Z</time>
      </trkpt>
      <trkpt lat="45.28089" lon="5.34857">
        <ele>648.8</ele>
        <time>2022-04-28T13:11:04Z</time>
      </trkpt>
      <trkpt lat="45.28089" lon="5.34856">
        <ele>648.8</ele>
        <time>2022-04-28T13:11:05Z</time>
      </trkpt>
      <trkpt lat="45.28091" lon="5.34852">
        <ele>649</ele>
        <time>2022-04-28T13:11:06Z</time>
      </trkpt>
      <trkpt lat="45.28093" lon="5.34848">
        <ele>649.1</ele>
        <time>2022-04-28T13:11:08Z</time>
      </trkpt>
      <trkpt lat="45.28095" lon="5.34843">
        <ele>649.3</ele>
        <time>2022-04-28T13:11:09Z</time>
      </trkpt>
      <trkpt lat="45.28097" lon="5.3484">
        <ele>649.4</ele>
        <time>2022-04-28T13:11:10Z</time>
      </trkpt>
      <trkpt lat="45.281" lon="5.34835">
        <ele>649.6</ele>
        <time>2022-04-28T13:11:12Z</time>
      </trkpt>
      <trkpt lat="45.28101" lon="5.3483">
        <ele>649.8</ele>
        <time>2022-04-28T13:11:13Z</time>
      </trkpt>
      <trkpt lat="45.28103" lon="5.34826">
        <ele>650</ele>
        <time>2022-04-28T13:11:14Z</time>
      </trkpt>
      <trkpt lat="45.28105" lon="5.34823">
        <ele>650.1</ele>
        <time>2022-04-28T13:11:15Z</time>
      </trkpt>
      <trkpt lat="45.28107" lon="5.34819">
        <ele>650.3</ele>
        <time>2022-04-28T13:11:16Z</time>
      </trkpt>
      <trkpt lat="45.28109" lon="5.34813">
        <ele>650.5</ele>
        <time>2022-04-28T13:11:18Z</time>
      </trkpt>
      <trkpt lat="45.28111" lon="5.34809">
        <ele>650.7</ele>
        <time>2022-04-28T13:11:19Z</time>
      </trkpt>
      <trkpt lat="45.28113" lon="5.34806">
        <ele>650.8</ele>
        <time>2022-04-28T13:11:20Z</time>
      </trkpt>
      <trkpt lat="45.28114" lon="5.34804">
        <ele>650.9</ele>
        <time>2022-04-28T13:11:21Z</time>
      </trkpt>
      <trkpt lat="45.28116" lon="5.34801">
        <ele>651.1</ele>
        <time>2022-04-28T13:11:23Z</time>
      </trkpt>
      <trkpt lat="45.2812" lon="5.34797">
        <ele>651.3</ele>
        <time>2022-04-28T13:11:24Z</time>
      </trkpt>
      <trkpt lat="45.28121" lon="5.34796">
        <ele>651.4</ele>
        <time>2022-04-28T13:11:25Z</time>
      </trkpt>
      <trkpt lat="45.28123" lon="5.34793">
        <ele>651.6</ele>
        <time>2022-04-28T13:11:26Z</time>
      </trkpt>
      <trkpt lat="45.28127" lon="5.34791">
        <ele>651.8</ele>
        <time>2022-04-28T13:11:27Z</time>
      </trkpt>
      <trkpt lat="45.28129" lon="5.34788">
        <ele>651.9</ele>
        <time>2022-04-28T13:11:28Z</time>
      </trkpt>
      <trkpt lat="45.28132" lon="5.34787">
        <ele>652.1</ele>
        <time>2022-04-28T13:11:29Z</time>
      </trkpt>
      <trkpt lat="45.28135" lon="5.34784">
        <ele>652.3</ele>
        <time>2022-04-28T13:11:31Z</time>
      </trkpt>
      <trkpt lat="45.28138" lon="5.34782">
        <ele>652.4</ele>
        <time>2022-04-28T13:11:32Z</time>
      </trkpt>
      <trkpt lat="45.28141" lon="5.34778">
        <ele>652.7</ele>
        <time>2022-04-28T13:11:33Z</time>
      </trkpt>
      <trkpt lat="45.28144" lon="5.34773">
        <ele>652.9</ele>
        <time>2022-04-28T13:11:34Z</time>
      </trkpt>
      <trkpt lat="45.28146" lon="5.34769">
        <ele>653.1</ele>
        <time>2022-04-28T13:11:35Z</time>
      </trkpt>
      <trkpt lat="45.28148" lon="5.34762">
        <ele>653.4</ele>
        <time>2022-04-28T13:11:37Z</time>
      </trkpt>
      <trkpt lat="45.28148" lon="5.34756">
        <ele>653.6</ele>
        <time>2022-04-28T13:11:38Z</time>
      </trkpt>
      <trkpt lat="45.28149" lon="5.34752">
        <ele>653.7</ele>
        <time>2022-04-28T13:11:39Z</time>
      </trkpt>
      <trkpt lat="45.28149" lon="5.34747">
        <ele>653.9</ele>
        <time>2022-04-28T13:11:40Z</time>
      </trkpt>
      <trkpt lat="45.28149" lon="5.34743">
        <ele>654.1</ele>
        <time>2022-04-28T13:11:41Z</time>
      </trkpt>
      <trkpt lat="45.28149" lon="5.34738">
        <ele>654.2</ele>
        <time>2022-04-28T13:11:42Z</time>
      </trkpt>
      <trkpt lat="45.28148" lon="5.34734">
        <ele>654.4</ele>
        <time>2022-04-28T13:11:43Z</time>
      </trkpt>
      <trkpt lat="45.28147" lon="5.3473">
        <ele>654.5</ele>
        <time>2022-04-28T13:11:44Z</time>
      </trkpt>
      <trkpt lat="45.28147" lon="5.34726">
        <ele>654.7</ele>
        <time>2022-04-28T13:11:45Z</time>
      </trkpt>
      <trkpt lat="45.28147" lon="5.34722">
        <ele>654.8</ele>
        <time>2022-04-28T13:11:46Z</time>
      </trkpt>
      <trkpt lat="45.28146" lon="5.34717">
        <ele>655</ele>
        <time>2022-04-28T13:11:47Z</time>
      </trkpt>
      <trkpt lat="45.28146" lon="5.34709">
        <ele>655.3</ele>
        <time>2022-04-28T13:11:49Z</time>
      </trkpt>
      <trkpt lat="45.28145" lon="5.34705">
        <ele>655.4</ele>
        <time>2022-04-28T13:11:50Z</time>
      </trkpt>
      <trkpt lat="45.28145" lon="5.34701">
        <ele>655.6</ele>
        <time>2022-04-28T13:11:51Z</time>
      </trkpt>
      <trkpt lat="45.28145" lon="5.34695">
        <ele>655.8</ele>
        <time>2022-04-28T13:11:53Z</time>
      </trkpt>
      <trkpt lat="45.28145" lon="5.3469">
        <ele>655.9</ele>
        <time>2022-04-28T13:11:54Z</time>
      </trkpt>
      <trkpt lat="45.28145" lon="5.34685">
        <ele>656.1</ele>
        <time>2022-04-28T13:11:55Z</time>
      </trkpt>
      <trkpt lat="45.28145" lon="5.3468">
        <ele>656.2</ele>
        <time>2022-04-28T13:11:56Z</time>
      </trkpt>
      <trkpt lat="45.28146" lon="5.34675">
        <ele>656.4</ele>
        <time>2022-04-28T13:11:58Z</time>
      </trkpt>
      <trkpt lat="45.28147" lon="5.3467">
        <ele>656.6</ele>
        <time>2022-04-28T13:11:59Z</time>
      </trkpt>
      <trkpt lat="45.28148" lon="5.34665">
        <ele>656.8</ele>
        <time>2022-04-28T13:12:00Z</time>
      </trkpt>
      <trkpt lat="45.2815" lon="5.3466">
        <ele>656.9</ele>
        <time>2022-04-28T13:12:01Z</time>
      </trkpt>
      <trkpt lat="45.28151" lon="5.34655">
        <ele>657.1</ele>
        <time>2022-04-28T13:12:02Z</time>
      </trkpt>
      <trkpt lat="45.28153" lon="5.34651">
        <ele>657.3</ele>
        <time>2022-04-28T13:12:03Z</time>
      </trkpt>
      <trkpt lat="45.28154" lon="5.34648">
        <ele>657.4</ele>
        <time>2022-04-28T13:12:04Z</time>
      </trkpt>
      <trkpt lat="45.28155" lon="5.34644">
        <ele>657.5</ele>
        <time>2022-04-28T13:12:05Z</time>
      </trkpt>
      <trkpt lat="45.28158" lon="5.34636">
        <ele>657.8</ele>
        <time>2022-04-28T13:12:07Z</time>
      </trkpt>
      <trkpt lat="45.28159" lon="5.34633">
        <ele>658</ele>
        <time>2022-04-28T13:12:08Z</time>
      </trkpt>
      <trkpt lat="45.28161" lon="5.34629">
        <ele>658.1</ele>
        <time>2022-04-28T13:12:09Z</time>
      </trkpt>
      <trkpt lat="45.28163" lon="5.34626">
        <ele>658.3</ele>
        <time>2022-04-28T13:12:10Z</time>
      </trkpt>
      <trkpt lat="45.28165" lon="5.34622">
        <ele>658.5</ele>
        <time>2022-04-28T13:12:11Z</time>
      </trkpt>
      <trkpt lat="45.28167" lon="5.34617">
        <ele>658.7</ele>
        <time>2022-04-28T13:12:13Z</time>
      </trkpt>
      <trkpt lat="45.28169" lon="5.34612">
        <ele>658.8</ele>
        <time>2022-04-28T13:12:14Z</time>
      </trkpt>
      <trkpt lat="45.28171" lon="5.34607">
        <ele>659</ele>
        <time>2022-04-28T13:12:15Z</time>
      </trkpt>
      <trkpt lat="45.28172" lon="5.34603">
        <ele>659.2</ele>
        <time>2022-04-28T13:12:16Z</time>
      </trkpt>
      <trkpt lat="45.28174" lon="5.34599">
        <ele>659.4</ele>
        <time>2022-04-28T13:12:17Z</time>
      </trkpt>
      <trkpt lat="45.28174" lon="5.34594">
        <ele>659.5</ele>
        <time>2022-04-28T13:12:18Z</time>
      </trkpt>
      <trkpt lat="45.28175" lon="5.34592">
        <ele>659.6</ele>
        <time>2022-04-28T13:12:19Z</time>
      </trkpt>
      <trkpt lat="45.28176" lon="5.34587">
        <ele>659.7</ele>
        <time>2022-04-28T13:12:20Z</time>
      </trkpt>
      <trkpt lat="45.28177" lon="5.34583">
        <ele>659.9</ele>
        <time>2022-04-28T13:12:21Z</time>
      </trkpt>
      <trkpt lat="45.28178" lon="5.34579">
        <ele>660</ele>
        <time>2022-04-28T13:12:22Z</time>
      </trkpt>
      <trkpt lat="45.28179" lon="5.34575">
        <ele>660.1</ele>
        <time>2022-04-28T13:12:23Z</time>
      </trkpt>
      <trkpt lat="45.28181" lon="5.34571">
        <ele>660.3</ele>
        <time>2022-04-28T13:12:24Z</time>
      </trkpt>
      <trkpt lat="45.28182" lon="5.34567">
        <ele>660.4</ele>
        <time>2022-04-28T13:12:25Z</time>
      </trkpt>
      <trkpt lat="45.28183" lon="5.34562">
        <ele>660.5</ele>
        <time>2022-04-28T13:12:26Z</time>
      </trkpt>
      <trkpt lat="45.28184" lon="5.34558">
        <ele>660.6</ele>
        <time>2022-04-28T13:12:27Z</time>
      </trkpt>
      <trkpt lat="45.28185" lon="5.34552">
        <ele>660.8</ele>
        <time>2022-04-28T13:12:28Z</time>
      </trkpt>
      <trkpt lat="45.28185" lon="5.3455">
        <ele>660.8</ele>
        <time>2022-04-28T13:12:29Z</time>
      </trkpt>
      <trkpt lat="45.28185" lon="5.34546">
        <ele>661</ele>
        <time>2022-04-28T13:12:30Z</time>
      </trkpt>
      <trkpt lat="45.28186" lon="5.34541">
        <ele>661.1</ele>
        <time>2022-04-28T13:12:31Z</time>
      </trkpt>
      <trkpt lat="45.28186" lon="5.34535">
        <ele>661.3</ele>
        <time>2022-04-28T13:12:32Z</time>
      </trkpt>
      <trkpt lat="45.28186" lon="5.3453">
        <ele>661.4</ele>
        <time>2022-04-28T13:12:33Z</time>
      </trkpt>
      <trkpt lat="45.28186" lon="5.34525">
        <ele>661.6</ele>
        <time>2022-04-28T13:12:34Z</time>
      </trkpt>
      <trkpt lat="45.28186" lon="5.34519">
        <ele>661.7</ele>
        <time>2022-04-28T13:12:35Z</time>
      </trkpt>
      <trkpt lat="45.28187" lon="5.34517">
        <ele>661.8</ele>
        <time>2022-04-28T13:12:36Z</time>
      </trkpt>
      <trkpt lat="45.28186" lon="5.34512">
        <ele>661.9</ele>
        <time>2022-04-28T13:12:37Z</time>
      </trkpt>
      <trkpt lat="45.28186" lon="5.34506">
        <ele>662</ele>
        <time>2022-04-28T13:12:38Z</time>
      </trkpt>
      <trkpt lat="45.28187" lon="5.34503">
        <ele>662.1</ele>
        <time>2022-04-28T13:12:39Z</time>
      </trkpt>
      <trkpt lat="45.28187" lon="5.34499">
        <ele>662.2</ele>
        <time>2022-04-28T13:12:40Z</time>
      </trkpt>
      <trkpt lat="45.28188" lon="5.34494">
        <ele>662.3</ele>
        <time>2022-04-28T13:12:41Z</time>
      </trkpt>
      <trkpt lat="45.28188" lon="5.34492">
        <ele>662.3</ele>
        <time>2022-04-28T13:12:42Z</time>
      </trkpt>
      <trkpt lat="45.28189" lon="5.34488">
        <ele>662.4</ele>
        <time>2022-04-28T13:12:43Z</time>
      </trkpt>
      <trkpt lat="45.28189" lon="5.34484">
        <ele>662.5</ele>
        <time>2022-04-28T13:12:44Z</time>
      </trkpt>
      <trkpt lat="45.28191" lon="5.3448">
        <ele>662.6</ele>
        <time>2022-04-28T13:12:45Z</time>
      </trkpt>
      <trkpt lat="45.28192" lon="5.34476">
        <ele>662.6</ele>
        <time>2022-04-28T13:12:46Z</time>
      </trkpt>
      <trkpt lat="45.28193" lon="5.34472">
        <ele>662.7</ele>
        <time>2022-04-28T13:12:47Z</time>
      </trkpt>
      <trkpt lat="45.28194" lon="5.34468">
        <ele>662.8</ele>
        <time>2022-04-28T13:12:48Z</time>
      </trkpt>
      <trkpt lat="45.28195" lon="5.34464">
        <ele>662.9</ele>
        <time>2022-04-28T13:12:49Z</time>
      </trkpt>
      <trkpt lat="45.28197" lon="5.34457">
        <ele>663</ele>
        <time>2022-04-28T13:12:51Z</time>
      </trkpt>
      <trkpt lat="45.28198" lon="5.3445">
        <ele>663.1</ele>
        <time>2022-04-28T13:12:52Z</time>
      </trkpt>
      <trkpt lat="45.28199" lon="5.34445">
        <ele>663.2</ele>
        <time>2022-04-28T13:12:53Z</time>
      </trkpt>
      <trkpt lat="45.28201" lon="5.34438">
        <ele>663.3</ele>
        <time>2022-04-28T13:12:55Z</time>
      </trkpt>
      <trkpt lat="45.28202" lon="5.34432">
        <ele>663.4</ele>
        <time>2022-04-28T13:12:56Z</time>
      </trkpt>
      <trkpt lat="45.28203" lon="5.34428">
        <ele>663.5</ele>
        <time>2022-04-28T13:12:57Z</time>
      </trkpt>
      <trkpt lat="45.28204" lon="5.34422">
        <ele>663.6</ele>
        <time>2022-04-28T13:12:58Z</time>
      </trkpt>
      <trkpt lat="45.28206" lon="5.34416">
        <ele>663.8</ele>
        <time>2022-04-28T13:12:59Z</time>
      </trkpt>
      <trkpt lat="45.28206" lon="5.34409">
        <ele>663.9</ele>
        <time>2022-04-28T13:13:01Z</time>
      </trkpt>
      <trkpt lat="45.28207" lon="5.34404">
        <ele>664</ele>
        <time>2022-04-28T13:13:02Z</time>
      </trkpt>
      <trkpt lat="45.28208" lon="5.34399">
        <ele>664.2</ele>
        <time>2022-04-28T13:13:03Z</time>
      </trkpt>
      <trkpt lat="45.2821" lon="5.34392">
        <ele>664.3</ele>
        <time>2022-04-28T13:13:04Z</time>
      </trkpt>
      <trkpt lat="45.28211" lon="5.34387">
        <ele>664.4</ele>
        <time>2022-04-28T13:13:05Z</time>
      </trkpt>
      <trkpt lat="45.28212" lon="5.34382">
        <ele>664.5</ele>
        <time>2022-04-28T13:13:06Z</time>
      </trkpt>
      <trkpt lat="45.28215" lon="5.34376">
        <ele>664.6</ele>
        <time>2022-04-28T13:13:08Z</time>
      </trkpt>
      <trkpt lat="45.28218" lon="5.3437">
        <ele>664.8</ele>
        <time>2022-04-28T13:13:09Z</time>
      </trkpt>
      <trkpt lat="45.2822" lon="5.34365">
        <ele>664.9</ele>
        <time>2022-04-28T13:13:10Z</time>
      </trkpt>
      <trkpt lat="45.28223" lon="5.34361">
        <ele>665</ele>
        <time>2022-04-28T13:13:11Z</time>
      </trkpt>
      <trkpt lat="45.28226" lon="5.34356">
        <ele>665.1</ele>
        <time>2022-04-28T13:13:12Z</time>
      </trkpt>
      <trkpt lat="45.28228" lon="5.34353">
        <ele>665.2</ele>
        <time>2022-04-28T13:13:13Z</time>
      </trkpt>
      <trkpt lat="45.28231" lon="5.34349">
        <ele>665.3</ele>
        <time>2022-04-28T13:13:14Z</time>
      </trkpt>
      <trkpt lat="45.28235" lon="5.34342">
        <ele>665.4</ele>
        <time>2022-04-28T13:13:16Z</time>
      </trkpt>
      <trkpt lat="45.28239" lon="5.34336">
        <ele>665.6</ele>
        <time>2022-04-28T13:13:17Z</time>
      </trkpt>
      <trkpt lat="45.28242" lon="5.34331">
        <ele>665.7</ele>
        <time>2022-04-28T13:13:18Z</time>
      </trkpt>
      <trkpt lat="45.28245" lon="5.34327">
        <ele>665.8</ele>
        <time>2022-04-28T13:13:19Z</time>
      </trkpt>
      <trkpt lat="45.28248" lon="5.34323">
        <ele>665.9</ele>
        <time>2022-04-28T13:13:20Z</time>
      </trkpt>
      <trkpt lat="45.28249" lon="5.34319">
        <ele>666</ele>
        <time>2022-04-28T13:13:21Z</time>
      </trkpt>
      <trkpt lat="45.28251" lon="5.34314">
        <ele>666.1</ele>
        <time>2022-04-28T13:13:22Z</time>
      </trkpt>
      <trkpt lat="45.28254" lon="5.3431">
        <ele>666.2</ele>
        <time>2022-04-28T13:13:23Z</time>
      </trkpt>
      <trkpt lat="45.28256" lon="5.34305">
        <ele>666.4</ele>
        <time>2022-04-28T13:13:24Z</time>
      </trkpt>
      <trkpt lat="45.28257" lon="5.343">
        <ele>666.5</ele>
        <time>2022-04-28T13:13:25Z</time>
      </trkpt>
      <trkpt lat="45.28259" lon="5.34295">
        <ele>666.6</ele>
        <time>2022-04-28T13:13:26Z</time>
      </trkpt>
      <trkpt lat="45.28261" lon="5.3429">
        <ele>666.7</ele>
        <time>2022-04-28T13:13:27Z</time>
      </trkpt>
      <trkpt lat="45.28262" lon="5.34285">
        <ele>666.9</ele>
        <time>2022-04-28T13:13:28Z</time>
      </trkpt>
      <trkpt lat="45.28265" lon="5.34279">
        <ele>667.1</ele>
        <time>2022-04-28T13:13:30Z</time>
      </trkpt>
      <trkpt lat="45.28266" lon="5.34274">
        <ele>667.2</ele>
        <time>2022-04-28T13:13:31Z</time>
      </trkpt>
      <trkpt lat="45.28269" lon="5.34267">
        <ele>667.4</ele>
        <time>2022-04-28T13:13:32Z</time>
      </trkpt>
      <trkpt lat="45.2827" lon="5.34263">
        <ele>667.5</ele>
        <time>2022-04-28T13:13:33Z</time>
      </trkpt>
      <trkpt lat="45.28272" lon="5.34258">
        <ele>667.6</ele>
        <time>2022-04-28T13:13:34Z</time>
      </trkpt>
      <trkpt lat="45.28274" lon="5.34251">
        <ele>667.8</ele>
        <time>2022-04-28T13:13:36Z</time>
      </trkpt>
      <trkpt lat="45.28276" lon="5.34245">
        <ele>668</ele>
        <time>2022-04-28T13:13:37Z</time>
      </trkpt>
      <trkpt lat="45.28278" lon="5.34239">
        <ele>668.2</ele>
        <time>2022-04-28T13:13:38Z</time>
      </trkpt>
      <trkpt lat="45.2828" lon="5.34233">
        <ele>668.4</ele>
        <time>2022-04-28T13:13:39Z</time>
      </trkpt>
      <trkpt lat="45.28281" lon="5.34229">
        <ele>668.5</ele>
        <time>2022-04-28T13:13:40Z</time>
      </trkpt>
      <trkpt lat="45.28283" lon="5.34222">
        <ele>668.7</ele>
        <time>2022-04-28T13:13:42Z</time>
      </trkpt>
      <trkpt lat="45.28285" lon="5.34216">
        <ele>668.9</ele>
        <time>2022-04-28T13:13:43Z</time>
      </trkpt>
      <trkpt lat="45.28287" lon="5.34209">
        <ele>669</ele>
        <time>2022-04-28T13:13:44Z</time>
      </trkpt>
      <trkpt lat="45.28289" lon="5.34204">
        <ele>669.2</ele>
        <time>2022-04-28T13:13:45Z</time>
      </trkpt>
      <trkpt lat="45.28291" lon="5.34197">
        <ele>669.4</ele>
        <time>2022-04-28T13:13:47Z</time>
      </trkpt>
      <trkpt lat="45.28294" lon="5.3419">
        <ele>669.6</ele>
        <time>2022-04-28T13:13:48Z</time>
      </trkpt>
      <trkpt lat="45.28296" lon="5.34183">
        <ele>669.9</ele>
        <time>2022-04-28T13:13:50Z</time>
      </trkpt>
      <trkpt lat="45.28298" lon="5.34178">
        <ele>670</ele>
        <time>2022-04-28T13:13:51Z</time>
      </trkpt>
      <trkpt lat="45.283" lon="5.34173">
        <ele>670.1</ele>
        <time>2022-04-28T13:13:52Z</time>
      </trkpt>
      <trkpt lat="45.28301" lon="5.34168">
        <ele>670.3</ele>
        <time>2022-04-28T13:13:53Z</time>
      </trkpt>
      <trkpt lat="45.28303" lon="5.34164">
        <ele>670.4</ele>
        <time>2022-04-28T13:13:54Z</time>
      </trkpt>
      <trkpt lat="45.28305" lon="5.3416">
        <ele>670.5</ele>
        <time>2022-04-28T13:13:55Z</time>
      </trkpt>
      <trkpt lat="45.28306" lon="5.34155">
        <ele>670.7</ele>
        <time>2022-04-28T13:13:56Z</time>
      </trkpt>
      <trkpt lat="45.28308" lon="5.3415">
        <ele>670.8</ele>
        <time>2022-04-28T13:13:57Z</time>
      </trkpt>
      <trkpt lat="45.28309" lon="5.34145">
        <ele>670.9</ele>
        <time>2022-04-28T13:13:58Z</time>
      </trkpt>
      <trkpt lat="45.2831" lon="5.34141">
        <ele>671.1</ele>
        <time>2022-04-28T13:13:59Z</time>
      </trkpt>
      <trkpt lat="45.28311" lon="5.34136">
        <ele>671.2</ele>
        <time>2022-04-28T13:14:00Z</time>
      </trkpt>
      <trkpt lat="45.28312" lon="5.34131">
        <ele>671.4</ele>
        <time>2022-04-28T13:14:01Z</time>
      </trkpt>
      <trkpt lat="45.28314" lon="5.34125">
        <ele>671.5</ele>
        <time>2022-04-28T13:14:02Z</time>
      </trkpt>
      <trkpt lat="45.28315" lon="5.3412">
        <ele>671.7</ele>
        <time>2022-04-28T13:14:03Z</time>
      </trkpt>
      <trkpt lat="45.28316" lon="5.34116">
        <ele>671.8</ele>
        <time>2022-04-28T13:14:04Z</time>
      </trkpt>
      <trkpt lat="45.28317" lon="5.3411">
        <ele>672</ele>
        <time>2022-04-28T13:14:05Z</time>
      </trkpt>
      <trkpt lat="45.28318" lon="5.34105">
        <ele>672.1</ele>
        <time>2022-04-28T13:14:06Z</time>
      </trkpt>
      <trkpt lat="45.2832" lon="5.34101">
        <ele>672.3</ele>
        <time>2022-04-28T13:14:07Z</time>
      </trkpt>
      <trkpt lat="45.28321" lon="5.34095">
        <ele>672.4</ele>
        <time>2022-04-28T13:14:08Z</time>
      </trkpt>
      <trkpt lat="45.28322" lon="5.34091">
        <ele>672.6</ele>
        <time>2022-04-28T13:14:09Z</time>
      </trkpt>
      <trkpt lat="45.28323" lon="5.34086">
        <ele>672.7</ele>
        <time>2022-04-28T13:14:10Z</time>
      </trkpt>
      <trkpt lat="45.28324" lon="5.34081">
        <ele>672.9</ele>
        <time>2022-04-28T13:14:11Z</time>
      </trkpt>
      <trkpt lat="45.28324" lon="5.34076">
        <ele>673</ele>
        <time>2022-04-28T13:14:12Z</time>
      </trkpt>
      <trkpt lat="45.28324" lon="5.34071">
        <ele>673.1</ele>
        <time>2022-04-28T13:14:13Z</time>
      </trkpt>
      <trkpt lat="45.28324" lon="5.34066">
        <ele>673.3</ele>
        <time>2022-04-28T13:14:14Z</time>
      </trkpt>
      <trkpt lat="45.28325" lon="5.34061">
        <ele>673.4</ele>
        <time>2022-04-28T13:14:15Z</time>
      </trkpt>
      <trkpt lat="45.28325" lon="5.34055">
        <ele>673.6</ele>
        <time>2022-04-28T13:14:16Z</time>
      </trkpt>
      <trkpt lat="45.28326" lon="5.3405">
        <ele>673.7</ele>
        <time>2022-04-28T13:14:17Z</time>
      </trkpt>
      <trkpt lat="45.28326" lon="5.34045">
        <ele>673.8</ele>
        <time>2022-04-28T13:14:18Z</time>
      </trkpt>
      <trkpt lat="45.28326" lon="5.3404">
        <ele>674</ele>
        <time>2022-04-28T13:14:19Z</time>
      </trkpt>
      <trkpt lat="45.28326" lon="5.34034">
        <ele>674.1</ele>
        <time>2022-04-28T13:14:20Z</time>
      </trkpt>
      <trkpt lat="45.28326" lon="5.34029">
        <ele>674.2</ele>
        <time>2022-04-28T13:14:21Z</time>
      </trkpt>
      <trkpt lat="45.28326" lon="5.34024">
        <ele>674.3</ele>
        <time>2022-04-28T13:14:22Z</time>
      </trkpt>
      <trkpt lat="45.28327" lon="5.34018">
        <ele>674.5</ele>
        <time>2022-04-28T13:14:23Z</time>
      </trkpt>
      <trkpt lat="45.28327" lon="5.34013">
        <ele>674.6</ele>
        <time>2022-04-28T13:14:24Z</time>
      </trkpt>
      <trkpt lat="45.28327" lon="5.34008">
        <ele>674.7</ele>
        <time>2022-04-28T13:14:25Z</time>
      </trkpt>
      <trkpt lat="45.28327" lon="5.34002">
        <ele>674.8</ele>
        <time>2022-04-28T13:14:26Z</time>
      </trkpt>
      <trkpt lat="45.28327" lon="5.33996">
        <ele>675</ele>
        <time>2022-04-28T13:14:28Z</time>
      </trkpt>
      <trkpt lat="45.28327" lon="5.33988">
        <ele>675.2</ele>
        <time>2022-04-28T13:14:29Z</time>
      </trkpt>
      <trkpt lat="45.28326" lon="5.33982">
        <ele>675.3</ele>
        <time>2022-04-28T13:14:30Z</time>
      </trkpt>
      <trkpt lat="45.28326" lon="5.33977">
        <ele>675.3</ele>
        <time>2022-04-28T13:14:31Z</time>
      </trkpt>
      <trkpt lat="45.28325" lon="5.3397">
        <ele>675.1</ele>
        <time>2022-04-28T13:14:33Z</time>
      </trkpt>
      <trkpt lat="45.28325" lon="5.33965">
        <ele>675</ele>
        <time>2022-04-28T13:14:34Z</time>
      </trkpt>
      <trkpt lat="45.28324" lon="5.33958">
        <ele>674.9</ele>
        <time>2022-04-28T13:14:35Z</time>
      </trkpt>
      <trkpt lat="45.28322" lon="5.33952">
        <ele>675.2</ele>
        <time>2022-04-28T13:14:36Z</time>
      </trkpt>
      <trkpt lat="45.28321" lon="5.33946">
        <ele>675.4</ele>
        <time>2022-04-28T13:14:38Z</time>
      </trkpt>
      <trkpt lat="45.2832" lon="5.3394">
        <ele>675.6</ele>
        <time>2022-04-28T13:14:39Z</time>
      </trkpt>
      <trkpt lat="45.28319" lon="5.33935">
        <ele>675.8</ele>
        <time>2022-04-28T13:14:40Z</time>
      </trkpt>
      <trkpt lat="45.28319" lon="5.3393">
        <ele>676</ele>
        <time>2022-04-28T13:14:41Z</time>
      </trkpt>
      <trkpt lat="45.28317" lon="5.33925">
        <ele>676.1</ele>
        <time>2022-04-28T13:14:42Z</time>
      </trkpt>
      <trkpt lat="45.28316" lon="5.33921">
        <ele>676.3</ele>
        <time>2022-04-28T13:14:43Z</time>
      </trkpt>
      <trkpt lat="45.28316" lon="5.33917">
        <ele>676.5</ele>
        <time>2022-04-28T13:14:44Z</time>
      </trkpt>
      <trkpt lat="45.28315" lon="5.33912">
        <ele>676.7</ele>
        <time>2022-04-28T13:14:45Z</time>
      </trkpt>
      <trkpt lat="45.28314" lon="5.33908">
        <ele>676.9</ele>
        <time>2022-04-28T13:14:46Z</time>
      </trkpt>
      <trkpt lat="45.28313" lon="5.33904">
        <ele>677.1</ele>
        <time>2022-04-28T13:14:47Z</time>
      </trkpt>
      <trkpt lat="45.28312" lon="5.339">
        <ele>677.2</ele>
        <time>2022-04-28T13:14:48Z</time>
      </trkpt>
      <trkpt lat="45.28311" lon="5.33896">
        <ele>677.4</ele>
        <time>2022-04-28T13:14:49Z</time>
      </trkpt>
      <trkpt lat="45.28311" lon="5.33891">
        <ele>677.6</ele>
        <time>2022-04-28T13:14:50Z</time>
      </trkpt>
      <trkpt lat="45.2831" lon="5.33887">
        <ele>677.9</ele>
        <time>2022-04-28T13:14:51Z</time>
      </trkpt>
      <trkpt lat="45.28309" lon="5.33883">
        <ele>678</ele>
        <time>2022-04-28T13:14:52Z</time>
      </trkpt>
      <trkpt lat="45.28308" lon="5.33879">
        <ele>678.2</ele>
        <time>2022-04-28T13:14:53Z</time>
      </trkpt>
      <trkpt lat="45.28308" lon="5.33873">
        <ele>678.5</ele>
        <time>2022-04-28T13:14:54Z</time>
      </trkpt>
      <trkpt lat="45.28307" lon="5.33871">
        <ele>678.6</ele>
        <time>2022-04-28T13:14:55Z</time>
      </trkpt>
      <trkpt lat="45.28307" lon="5.33866">
        <ele>678.8</ele>
        <time>2022-04-28T13:14:57Z</time>
      </trkpt>
      <trkpt lat="45.28306" lon="5.33862">
        <ele>679</ele>
        <time>2022-04-28T13:14:58Z</time>
      </trkpt>
      <trkpt lat="45.28305" lon="5.33857">
        <ele>679.2</ele>
        <time>2022-04-28T13:14:59Z</time>
      </trkpt>
      <trkpt lat="45.28304" lon="5.33855">
        <ele>679.3</ele>
        <time>2022-04-28T13:15:00Z</time>
      </trkpt>
      <trkpt lat="45.28304" lon="5.3385">
        <ele>679.5</ele>
        <time>2022-04-28T13:15:01Z</time>
      </trkpt>
      <trkpt lat="45.28303" lon="5.33845">
        <ele>679.8</ele>
        <time>2022-04-28T13:15:02Z</time>
      </trkpt>
      <trkpt lat="45.28303" lon="5.33843">
        <ele>679.9</ele>
        <time>2022-04-28T13:15:03Z</time>
      </trkpt>
      <trkpt lat="45.28302" lon="5.33839">
        <ele>680</ele>
        <time>2022-04-28T13:15:04Z</time>
      </trkpt>
      <trkpt lat="45.28301" lon="5.33834">
        <ele>680.3</ele>
        <time>2022-04-28T13:15:06Z</time>
      </trkpt>
      <trkpt lat="45.28301" lon="5.33829">
        <ele>680.5</ele>
        <time>2022-04-28T13:15:07Z</time>
      </trkpt>
      <trkpt lat="45.283" lon="5.33825">
        <ele>680.7</ele>
        <time>2022-04-28T13:15:08Z</time>
      </trkpt>
      <trkpt lat="45.283" lon="5.3382">
        <ele>680.8</ele>
        <time>2022-04-28T13:15:09Z</time>
      </trkpt>
      <trkpt lat="45.283" lon="5.33816">
        <ele>681</ele>
        <time>2022-04-28T13:15:10Z</time>
      </trkpt>
      <trkpt lat="45.28298" lon="5.33811">
        <ele>681.2</ele>
        <time>2022-04-28T13:15:11Z</time>
      </trkpt>
      <trkpt lat="45.28298" lon="5.3381">
        <ele>681.3</ele>
        <time>2022-04-28T13:15:12Z</time>
      </trkpt>
      <trkpt lat="45.28297" lon="5.33804">
        <ele>681.5</ele>
        <time>2022-04-28T13:15:13Z</time>
      </trkpt>
      <trkpt lat="45.28297" lon="5.33803">
        <ele>681.6</ele>
        <time>2022-04-28T13:15:14Z</time>
      </trkpt>
      <trkpt lat="45.28296" lon="5.33799">
        <ele>681.8</ele>
        <time>2022-04-28T13:15:15Z</time>
      </trkpt>
      <trkpt lat="45.28294" lon="5.33794">
        <ele>682</ele>
        <time>2022-04-28T13:15:16Z</time>
      </trkpt>
      <trkpt lat="45.28294" lon="5.33792">
        <ele>682.1</ele>
        <time>2022-04-28T13:15:17Z</time>
      </trkpt>
      <trkpt lat="45.28293" lon="5.33788">
        <ele>682.2</ele>
        <time>2022-04-28T13:15:18Z</time>
      </trkpt>
      <trkpt lat="45.28291" lon="5.33782">
        <ele>682.5</ele>
        <time>2022-04-28T13:15:19Z</time>
      </trkpt>
      <trkpt lat="45.28291" lon="5.33781">
        <ele>682.6</ele>
        <time>2022-04-28T13:15:20Z</time>
      </trkpt>
      <trkpt lat="45.2829" lon="5.33773">
        <ele>682.9</ele>
        <time>2022-04-28T13:15:22Z</time>
      </trkpt>
      <trkpt lat="45.28288" lon="5.33769">
        <ele>683.1</ele>
        <time>2022-04-28T13:15:23Z</time>
      </trkpt>
      <trkpt lat="45.28287" lon="5.33763">
        <ele>683.3</ele>
        <time>2022-04-28T13:15:24Z</time>
      </trkpt>
      <trkpt lat="45.28287" lon="5.33761">
        <ele>683.4</ele>
        <time>2022-04-28T13:15:25Z</time>
      </trkpt>
      <trkpt lat="45.28287" lon="5.33755">
        <ele>683.7</ele>
        <time>2022-04-28T13:15:26Z</time>
      </trkpt>
      <trkpt lat="45.28286" lon="5.33753">
        <ele>683.7</ele>
        <time>2022-04-28T13:15:27Z</time>
      </trkpt>
      <trkpt lat="45.28286" lon="5.33749">
        <ele>683.9</ele>
        <time>2022-04-28T13:15:28Z</time>
      </trkpt>
      <trkpt lat="45.28285" lon="5.33745">
        <ele>684.1</ele>
        <time>2022-04-28T13:15:29Z</time>
      </trkpt>
      <trkpt lat="45.28284" lon="5.33739">
        <ele>684.4</ele>
        <time>2022-04-28T13:15:30Z</time>
      </trkpt>
      <trkpt lat="45.28283" lon="5.33737">
        <ele>684.4</ele>
        <time>2022-04-28T13:15:31Z</time>
      </trkpt>
      <trkpt lat="45.28282" lon="5.33734">
        <ele>684.6</ele>
        <time>2022-04-28T13:15:32Z</time>
      </trkpt>
      <trkpt lat="45.28281" lon="5.33729">
        <ele>684.8</ele>
        <time>2022-04-28T13:15:33Z</time>
      </trkpt>
      <trkpt lat="45.2828" lon="5.33728">
        <ele>684.9</ele>
        <time>2022-04-28T13:15:34Z</time>
      </trkpt>
      <trkpt lat="45.28279" lon="5.33723">
        <ele>685.1</ele>
        <time>2022-04-28T13:15:35Z</time>
      </trkpt>
      <trkpt lat="45.28279" lon="5.33721">
        <ele>685.2</ele>
        <time>2022-04-28T13:15:36Z</time>
      </trkpt>
      <trkpt lat="45.28278" lon="5.33716">
        <ele>685.4</ele>
        <time>2022-04-28T13:15:37Z</time>
      </trkpt>
      <trkpt lat="45.28278" lon="5.33715">
        <ele>685.5</ele>
        <time>2022-04-28T13:15:38Z</time>
      </trkpt>
      <trkpt lat="45.28278" lon="5.33709">
        <ele>685.7</ele>
        <time>2022-04-28T13:15:39Z</time>
      </trkpt>
      <trkpt lat="45.28278" lon="5.33708">
        <ele>685.8</ele>
        <time>2022-04-28T13:15:40Z</time>
      </trkpt>
      <trkpt lat="45.28278" lon="5.33704">
        <ele>685.9</ele>
        <time>2022-04-28T13:15:41Z</time>
      </trkpt>
      <trkpt lat="45.28278" lon="5.33698">
        <ele>686.2</ele>
        <time>2022-04-28T13:15:42Z</time>
      </trkpt>
      <trkpt lat="45.28278" lon="5.33696">
        <ele>686.2</ele>
        <time>2022-04-28T13:15:43Z</time>
      </trkpt>
      <trkpt lat="45.28278" lon="5.33692">
        <ele>686.4</ele>
        <time>2022-04-28T13:15:44Z</time>
      </trkpt>
      <trkpt lat="45.28279" lon="5.33687">
        <ele>686.6</ele>
        <time>2022-04-28T13:15:45Z</time>
      </trkpt>
      <trkpt lat="45.28279" lon="5.33683">
        <ele>686.8</ele>
        <time>2022-04-28T13:15:46Z</time>
      </trkpt>
      <trkpt lat="45.2828" lon="5.33679">
        <ele>686.9</ele>
        <time>2022-04-28T13:15:47Z</time>
      </trkpt>
      <trkpt lat="45.2828" lon="5.33675">
        <ele>687.1</ele>
        <time>2022-04-28T13:15:48Z</time>
      </trkpt>
      <trkpt lat="45.28281" lon="5.33672">
        <ele>687.3</ele>
        <time>2022-04-28T13:15:49Z</time>
      </trkpt>
      <trkpt lat="45.28282" lon="5.33666">
        <ele>687.5</ele>
        <time>2022-04-28T13:15:50Z</time>
      </trkpt>
      <trkpt lat="45.28283" lon="5.33664">
        <ele>687.6</ele>
        <time>2022-04-28T13:15:51Z</time>
      </trkpt>
      <trkpt lat="45.28283" lon="5.33661">
        <ele>687.7</ele>
        <time>2022-04-28T13:15:52Z</time>
      </trkpt>
      <trkpt lat="45.28285" lon="5.33656">
        <ele>687.9</ele>
        <time>2022-04-28T13:15:53Z</time>
      </trkpt>
      <trkpt lat="45.28286" lon="5.33655">
        <ele>688</ele>
        <time>2022-04-28T13:15:54Z</time>
      </trkpt>
      <trkpt lat="45.28287" lon="5.33651">
        <ele>688.2</ele>
        <time>2022-04-28T13:15:55Z</time>
      </trkpt>
      <trkpt lat="45.28288" lon="5.3365">
        <ele>688.2</ele>
        <time>2022-04-28T13:15:56Z</time>
      </trkpt>
      <trkpt lat="45.28288" lon="5.33645">
        <ele>688.4</ele>
        <time>2022-04-28T13:15:58Z</time>
      </trkpt>
      <trkpt lat="45.28289" lon="5.33641">
        <ele>688.6</ele>
        <time>2022-04-28T13:15:59Z</time>
      </trkpt>
      <trkpt lat="45.28291" lon="5.33637">
        <ele>688.8</ele>
        <time>2022-04-28T13:16:00Z</time>
      </trkpt>
      <trkpt lat="45.28292" lon="5.33632">
        <ele>689</ele>
        <time>2022-04-28T13:16:02Z</time>
      </trkpt>
      <trkpt lat="45.28294" lon="5.33628">
        <ele>689.2</ele>
        <time>2022-04-28T13:16:03Z</time>
      </trkpt>
      <trkpt lat="45.28294" lon="5.33622">
        <ele>689.4</ele>
        <time>2022-04-28T13:16:04Z</time>
      </trkpt>
      <trkpt lat="45.28294" lon="5.3362">
        <ele>689.5</ele>
        <time>2022-04-28T13:16:05Z</time>
      </trkpt>
      <trkpt lat="45.28295" lon="5.33616">
        <ele>689.7</ele>
        <time>2022-04-28T13:16:06Z</time>
      </trkpt>
      <trkpt lat="45.28296" lon="5.33611">
        <ele>689.9</ele>
        <time>2022-04-28T13:16:08Z</time>
      </trkpt>
      <trkpt lat="45.28297" lon="5.33606">
        <ele>690.1</ele>
        <time>2022-04-28T13:16:09Z</time>
      </trkpt>
      <trkpt lat="45.28297" lon="5.33601">
        <ele>690.4</ele>
        <time>2022-04-28T13:16:10Z</time>
      </trkpt>
      <trkpt lat="45.28297" lon="5.33596">
        <ele>690.6</ele>
        <time>2022-04-28T13:16:11Z</time>
      </trkpt>
      <trkpt lat="45.28298" lon="5.33593">
        <ele>690.7</ele>
        <time>2022-04-28T13:16:12Z</time>
      </trkpt>
      <trkpt lat="45.28297" lon="5.33587">
        <ele>691</ele>
        <time>2022-04-28T13:16:14Z</time>
      </trkpt>
      <trkpt lat="45.28296" lon="5.33582">
        <ele>691.2</ele>
        <time>2022-04-28T13:16:15Z</time>
      </trkpt>
      <trkpt lat="45.28295" lon="5.33578">
        <ele>691.4</ele>
        <time>2022-04-28T13:16:16Z</time>
      </trkpt>
      <trkpt lat="45.28294" lon="5.33572">
        <ele>691.6</ele>
        <time>2022-04-28T13:16:17Z</time>
      </trkpt>
      <trkpt lat="45.28294" lon="5.33569">
        <ele>691.8</ele>
        <time>2022-04-28T13:16:18Z</time>
      </trkpt>
      <trkpt lat="45.28293" lon="5.33566">
        <ele>691.9</ele>
        <time>2022-04-28T13:16:19Z</time>
      </trkpt>
      <trkpt lat="45.28292" lon="5.33562">
        <ele>692.1</ele>
        <time>2022-04-28T13:16:20Z</time>
      </trkpt>
      <trkpt lat="45.2829" lon="5.33557">
        <ele>692.3</ele>
        <time>2022-04-28T13:16:21Z</time>
      </trkpt>
      <trkpt lat="45.28289" lon="5.33555">
        <ele>692.4</ele>
        <time>2022-04-28T13:16:22Z</time>
      </trkpt>
      <trkpt lat="45.28287" lon="5.33552">
        <ele>692.6</ele>
        <time>2022-04-28T13:16:23Z</time>
      </trkpt>
      <trkpt lat="45.28285" lon="5.33548">
        <ele>692.8</ele>
        <time>2022-04-28T13:16:24Z</time>
      </trkpt>
      <trkpt lat="45.28283" lon="5.33545">
        <ele>693</ele>
        <time>2022-04-28T13:16:25Z</time>
      </trkpt>
      <trkpt lat="45.2828" lon="5.33541">
        <ele>693.3</ele>
        <time>2022-04-28T13:16:26Z</time>
      </trkpt>
      <trkpt lat="45.2828" lon="5.3354">
        <ele>693.3</ele>
        <time>2022-04-28T13:16:27Z</time>
      </trkpt>
      <trkpt lat="45.28278" lon="5.33537">
        <ele>693.5</ele>
        <time>2022-04-28T13:16:28Z</time>
      </trkpt>
      <trkpt lat="45.28274" lon="5.33533">
        <ele>693.8</ele>
        <time>2022-04-28T13:16:30Z</time>
      </trkpt>
      <trkpt lat="45.28271" lon="5.33529">
        <ele>694.1</ele>
        <time>2022-04-28T13:16:31Z</time>
      </trkpt>
      <trkpt lat="45.28269" lon="5.33526">
        <ele>694.3</ele>
        <time>2022-04-28T13:16:32Z</time>
      </trkpt>
      <trkpt lat="45.28267" lon="5.33522">
        <ele>694.5</ele>
        <time>2022-04-28T13:16:33Z</time>
      </trkpt>
      <trkpt lat="45.28266" lon="5.33521">
        <ele>694.6</ele>
        <time>2022-04-28T13:16:34Z</time>
      </trkpt>
      <trkpt lat="45.28265" lon="5.33518">
        <ele>694.8</ele>
        <time>2022-04-28T13:16:35Z</time>
      </trkpt>
      <trkpt lat="45.28263" lon="5.33515">
        <ele>694.9</ele>
        <time>2022-04-28T13:16:36Z</time>
      </trkpt>
      <trkpt lat="45.2826" lon="5.33511">
        <ele>695.2</ele>
        <time>2022-04-28T13:16:37Z</time>
      </trkpt>
      <trkpt lat="45.28259" lon="5.3351">
        <ele>695.3</ele>
        <time>2022-04-28T13:16:38Z</time>
      </trkpt>
      <trkpt lat="45.28257" lon="5.33507">
        <ele>695.5</ele>
        <time>2022-04-28T13:16:39Z</time>
      </trkpt>
      <trkpt lat="45.28256" lon="5.33507">
        <ele>695.5</ele>
        <time>2022-04-28T13:16:40Z</time>
      </trkpt>
      <trkpt lat="45.28254" lon="5.33504">
        <ele>695.8</ele>
        <time>2022-04-28T13:16:41Z</time>
      </trkpt>
      <trkpt lat="45.28253" lon="5.33502">
        <ele>695.9</ele>
        <time>2022-04-28T13:16:42Z</time>
      </trkpt>
      <trkpt lat="45.2825" lon="5.33499">
        <ele>696.1</ele>
        <time>2022-04-28T13:16:43Z</time>
      </trkpt>
      <trkpt lat="45.28248" lon="5.33497">
        <ele>696.3</ele>
        <time>2022-04-28T13:16:44Z</time>
      </trkpt>
      <trkpt lat="45.28246" lon="5.33494">
        <ele>696.5</ele>
        <time>2022-04-28T13:16:45Z</time>
      </trkpt>
      <trkpt lat="45.28245" lon="5.33493">
        <ele>696.6</ele>
        <time>2022-04-28T13:16:46Z</time>
      </trkpt>
      <trkpt lat="45.28242" lon="5.33489">
        <ele>696.9</ele>
        <time>2022-04-28T13:16:47Z</time>
      </trkpt>
      <trkpt lat="45.2824" lon="5.33488">
        <ele>697</ele>
        <time>2022-04-28T13:16:48Z</time>
      </trkpt>
      <trkpt lat="45.28237" lon="5.33486">
        <ele>697.2</ele>
        <time>2022-04-28T13:16:49Z</time>
      </trkpt>
      <trkpt lat="45.28236" lon="5.33485">
        <ele>697.3</ele>
        <time>2022-04-28T13:16:50Z</time>
      </trkpt>
      <trkpt lat="45.28233" lon="5.33481">
        <ele>697.5</ele>
        <time>2022-04-28T13:16:51Z</time>
      </trkpt>
      <trkpt lat="45.28232" lon="5.33479">
        <ele>697.6</ele>
        <time>2022-04-28T13:16:52Z</time>
      </trkpt>
      <trkpt lat="45.2823" lon="5.33477">
        <ele>697.8</ele>
        <time>2022-04-28T13:16:53Z</time>
      </trkpt>
      <trkpt lat="45.28227" lon="5.33473">
        <ele>698.1</ele>
        <time>2022-04-28T13:16:54Z</time>
      </trkpt>
      <trkpt lat="45.28224" lon="5.3347">
        <ele>698.3</ele>
        <time>2022-04-28T13:16:55Z</time>
      </trkpt>
      <trkpt lat="45.28222" lon="5.33467">
        <ele>698.5</ele>
        <time>2022-04-28T13:16:56Z</time>
      </trkpt>
      <trkpt lat="45.2822" lon="5.33464">
        <ele>698.7</ele>
        <time>2022-04-28T13:16:57Z</time>
      </trkpt>
      <trkpt lat="45.28218" lon="5.33462">
        <ele>698.8</ele>
        <time>2022-04-28T13:16:58Z</time>
      </trkpt>
      <trkpt lat="45.28215" lon="5.33459">
        <ele>699</ele>
        <time>2022-04-28T13:17:00Z</time>
      </trkpt>
      <trkpt lat="45.28212" lon="5.33457">
        <ele>699.3</ele>
        <time>2022-04-28T13:17:01Z</time>
      </trkpt>
      <trkpt lat="45.28212" lon="5.33456">
        <ele>699.3</ele>
        <time>2022-04-28T13:17:02Z</time>
      </trkpt>
      <trkpt lat="45.28209" lon="5.33453">
        <ele>699.5</ele>
        <time>2022-04-28T13:17:03Z</time>
      </trkpt>
      <trkpt lat="45.28207" lon="5.33452">
        <ele>699.6</ele>
        <time>2022-04-28T13:17:04Z</time>
      </trkpt>
      <trkpt lat="45.28205" lon="5.3345">
        <ele>699.8</ele>
        <time>2022-04-28T13:17:05Z</time>
      </trkpt>
      <trkpt lat="45.28202" lon="5.33445">
        <ele>700.1</ele>
        <time>2022-04-28T13:17:07Z</time>
      </trkpt>
      <trkpt lat="45.28199" lon="5.33443">
        <ele>700.3</ele>
        <time>2022-04-28T13:17:08Z</time>
      </trkpt>
      <trkpt lat="45.28196" lon="5.3344">
        <ele>700.5</ele>
        <time>2022-04-28T13:17:09Z</time>
      </trkpt>
      <trkpt lat="45.28192" lon="5.33437">
        <ele>700.8</ele>
        <time>2022-04-28T13:17:10Z</time>
      </trkpt>
      <trkpt lat="45.28188" lon="5.33433">
        <ele>701.1</ele>
        <time>2022-04-28T13:17:12Z</time>
      </trkpt>
      <trkpt lat="45.28184" lon="5.3343">
        <ele>701.4</ele>
        <time>2022-04-28T13:17:13Z</time>
      </trkpt>
      <trkpt lat="45.28181" lon="5.33427">
        <ele>701.6</ele>
        <time>2022-04-28T13:17:14Z</time>
      </trkpt>
      <trkpt lat="45.28178" lon="5.33424">
        <ele>701.8</ele>
        <time>2022-04-28T13:17:15Z</time>
      </trkpt>
      <trkpt lat="45.28174" lon="5.33419">
        <ele>702.1</ele>
        <time>2022-04-28T13:17:17Z</time>
      </trkpt>
      <trkpt lat="45.28171" lon="5.33416">
        <ele>702.3</ele>
        <time>2022-04-28T13:17:18Z</time>
      </trkpt>
      <trkpt lat="45.28168" lon="5.33415">
        <ele>702.5</ele>
        <time>2022-04-28T13:17:19Z</time>
      </trkpt>
      <trkpt lat="45.28166" lon="5.33412">
        <ele>702.7</ele>
        <time>2022-04-28T13:17:20Z</time>
      </trkpt>
      <trkpt lat="45.28163" lon="5.33409">
        <ele>702.9</ele>
        <time>2022-04-28T13:17:22Z</time>
      </trkpt>
      <trkpt lat="45.2816" lon="5.33406">
        <ele>703.1</ele>
        <time>2022-04-28T13:17:23Z</time>
      </trkpt>
      <trkpt lat="45.28157" lon="5.33403">
        <ele>703.3</ele>
        <time>2022-04-28T13:17:24Z</time>
      </trkpt>
      <trkpt lat="45.28154" lon="5.33401">
        <ele>703.5</ele>
        <time>2022-04-28T13:17:25Z</time>
      </trkpt>
      <trkpt lat="45.28151" lon="5.33399">
        <ele>703.7</ele>
        <time>2022-04-28T13:17:26Z</time>
      </trkpt>
      <trkpt lat="45.28149" lon="5.33396">
        <ele>703.9</ele>
        <time>2022-04-28T13:17:27Z</time>
      </trkpt>
      <trkpt lat="45.28147" lon="5.33394">
        <ele>704.1</ele>
        <time>2022-04-28T13:17:28Z</time>
      </trkpt>
      <trkpt lat="45.28144" lon="5.33391">
        <ele>704.3</ele>
        <time>2022-04-28T13:17:29Z</time>
      </trkpt>
      <trkpt lat="45.28141" lon="5.33388">
        <ele>704.5</ele>
        <time>2022-04-28T13:17:30Z</time>
      </trkpt>
      <trkpt lat="45.28138" lon="5.33386">
        <ele>704.7</ele>
        <time>2022-04-28T13:17:31Z</time>
      </trkpt>
      <trkpt lat="45.28136" lon="5.33384">
        <ele>704.9</ele>
        <time>2022-04-28T13:17:32Z</time>
      </trkpt>
      <trkpt lat="45.28133" lon="5.33382">
        <ele>705.1</ele>
        <time>2022-04-28T13:17:33Z</time>
      </trkpt>
      <trkpt lat="45.2813" lon="5.3338">
        <ele>705.3</ele>
        <time>2022-04-28T13:17:34Z</time>
      </trkpt>
      <trkpt lat="45.28128" lon="5.33378">
        <ele>705.5</ele>
        <time>2022-04-28T13:17:35Z</time>
      </trkpt>
      <trkpt lat="45.28124" lon="5.33376">
        <ele>705.8</ele>
        <time>2022-04-28T13:17:36Z</time>
      </trkpt>
      <trkpt lat="45.28123" lon="5.33375">
        <ele>705.9</ele>
        <time>2022-04-28T13:17:37Z</time>
      </trkpt>
      <trkpt lat="45.28119" lon="5.33373">
        <ele>706.2</ele>
        <time>2022-04-28T13:17:38Z</time>
      </trkpt>
      <trkpt lat="45.28117" lon="5.33372">
        <ele>706.3</ele>
        <time>2022-04-28T13:17:39Z</time>
      </trkpt>
      <trkpt lat="45.28115" lon="5.3337">
        <ele>706.5</ele>
        <time>2022-04-28T13:17:40Z</time>
      </trkpt>
      <trkpt lat="45.28112" lon="5.33368">
        <ele>706.7</ele>
        <time>2022-04-28T13:17:41Z</time>
      </trkpt>
      <trkpt lat="45.28109" lon="5.33367">
        <ele>706.9</ele>
        <time>2022-04-28T13:17:42Z</time>
      </trkpt>
      <trkpt lat="45.28105" lon="5.33366">
        <ele>707.1</ele>
        <time>2022-04-28T13:17:43Z</time>
      </trkpt>
      <trkpt lat="45.28102" lon="5.33365">
        <ele>707.3</ele>
        <time>2022-04-28T13:17:44Z</time>
      </trkpt>
      <trkpt lat="45.281" lon="5.33365">
        <ele>707.4</ele>
        <time>2022-04-28T13:17:45Z</time>
      </trkpt>
      <trkpt lat="45.28097" lon="5.33364">
        <ele>707.6</ele>
        <time>2022-04-28T13:17:46Z</time>
      </trkpt>
      <trkpt lat="45.28094" lon="5.33363">
        <ele>707.8</ele>
        <time>2022-04-28T13:17:47Z</time>
      </trkpt>
      <trkpt lat="45.28091" lon="5.33361">
        <ele>708</ele>
        <time>2022-04-28T13:17:48Z</time>
      </trkpt>
      <trkpt lat="45.28088" lon="5.3336">
        <ele>708.2</ele>
        <time>2022-04-28T13:17:49Z</time>
      </trkpt>
      <trkpt lat="45.28085" lon="5.33357">
        <ele>708.4</ele>
        <time>2022-04-28T13:17:50Z</time>
      </trkpt>
      <trkpt lat="45.28082" lon="5.33355">
        <ele>708.6</ele>
        <time>2022-04-28T13:17:51Z</time>
      </trkpt>
      <trkpt lat="45.2808" lon="5.33354">
        <ele>708.7</ele>
        <time>2022-04-28T13:17:52Z</time>
      </trkpt>
      <trkpt lat="45.28077" lon="5.33352">
        <ele>708.9</ele>
        <time>2022-04-28T13:17:53Z</time>
      </trkpt>
      <trkpt lat="45.28075" lon="5.33351">
        <ele>709</ele>
        <time>2022-04-28T13:17:54Z</time>
      </trkpt>
      <trkpt lat="45.28072" lon="5.33349">
        <ele>709.2</ele>
        <time>2022-04-28T13:17:55Z</time>
      </trkpt>
      <trkpt lat="45.2807" lon="5.33348">
        <ele>709.4</ele>
        <time>2022-04-28T13:17:56Z</time>
      </trkpt>
      <trkpt lat="45.28067" lon="5.33347">
        <ele>709.6</ele>
        <time>2022-04-28T13:17:57Z</time>
      </trkpt>
      <trkpt lat="45.28063" lon="5.33345">
        <ele>709.8</ele>
        <time>2022-04-28T13:17:58Z</time>
      </trkpt>
      <trkpt lat="45.28062" lon="5.33344">
        <ele>709.9</ele>
        <time>2022-04-28T13:17:59Z</time>
      </trkpt>
      <trkpt lat="45.28059" lon="5.33342">
        <ele>710.1</ele>
        <time>2022-04-28T13:18:00Z</time>
      </trkpt>
      <trkpt lat="45.28056" lon="5.33341">
        <ele>710.2</ele>
        <time>2022-04-28T13:18:01Z</time>
      </trkpt>
      <trkpt lat="45.28054" lon="5.3334">
        <ele>710.4</ele>
        <time>2022-04-28T13:18:02Z</time>
      </trkpt>
      <trkpt lat="45.28052" lon="5.33339">
        <ele>710.5</ele>
        <time>2022-04-28T13:18:03Z</time>
      </trkpt>
      <trkpt lat="45.28048" lon="5.33337">
        <ele>710.8</ele>
        <time>2022-04-28T13:18:05Z</time>
      </trkpt>
      <trkpt lat="45.28044" lon="5.33336">
        <ele>711</ele>
        <time>2022-04-28T13:18:06Z</time>
      </trkpt>
      <trkpt lat="45.28041" lon="5.33335">
        <ele>711.2</ele>
        <time>2022-04-28T13:18:07Z</time>
      </trkpt>
      <trkpt lat="45.28038" lon="5.33334">
        <ele>711.4</ele>
        <time>2022-04-28T13:18:08Z</time>
      </trkpt>
      <trkpt lat="45.28032" lon="5.33331">
        <ele>711.7</ele>
        <time>2022-04-28T13:18:10Z</time>
      </trkpt>
      <trkpt lat="45.28027" lon="5.33329">
        <ele>712</ele>
        <time>2022-04-28T13:18:12Z</time>
      </trkpt>
      <trkpt lat="45.28022" lon="5.33328">
        <ele>712.3</ele>
        <time>2022-04-28T13:18:14Z</time>
      </trkpt>
      <trkpt lat="45.28019" lon="5.33326">
        <ele>712.5</ele>
        <time>2022-04-28T13:18:15Z</time>
      </trkpt>
      <trkpt lat="45.28016" lon="5.33324">
        <ele>712.7</ele>
        <time>2022-04-28T13:18:16Z</time>
      </trkpt>
      <trkpt lat="45.28014" lon="5.33322">
        <ele>712.9</ele>
        <time>2022-04-28T13:18:17Z</time>
      </trkpt>
      <trkpt lat="45.28012" lon="5.3332">
        <ele>713</ele>
        <time>2022-04-28T13:18:18Z</time>
      </trkpt>
      <trkpt lat="45.28009" lon="5.33316">
        <ele>713.2</ele>
        <time>2022-04-28T13:18:20Z</time>
      </trkpt>
      <trkpt lat="45.28006" lon="5.33312">
        <ele>713.4</ele>
        <time>2022-04-28T13:18:21Z</time>
      </trkpt>
      <trkpt lat="45.28004" lon="5.33308">
        <ele>713.5</ele>
        <time>2022-04-28T13:18:22Z</time>
      </trkpt>
      <trkpt lat="45.28003" lon="5.33305">
        <ele>713.7</ele>
        <time>2022-04-28T13:18:23Z</time>
      </trkpt>
      <trkpt lat="45.28001" lon="5.333">
        <ele>713.8</ele>
        <time>2022-04-28T13:18:24Z</time>
      </trkpt>
      <trkpt lat="45.27999" lon="5.33294">
        <ele>714</ele>
        <time>2022-04-28T13:18:26Z</time>
      </trkpt>
      <trkpt lat="45.27997" lon="5.33289">
        <ele>714.2</ele>
        <time>2022-04-28T13:18:27Z</time>
      </trkpt>
      <trkpt lat="45.27995" lon="5.33282">
        <ele>714.4</ele>
        <time>2022-04-28T13:18:28Z</time>
      </trkpt>
      <trkpt lat="45.27994" lon="5.33278">
        <ele>714.5</ele>
        <time>2022-04-28T13:18:29Z</time>
      </trkpt>
      <trkpt lat="45.27992" lon="5.33274">
        <ele>714.6</ele>
        <time>2022-04-28T13:18:30Z</time>
      </trkpt>
      <trkpt lat="45.27991" lon="5.33269">
        <ele>714.7</ele>
        <time>2022-04-28T13:18:31Z</time>
      </trkpt>
      <trkpt lat="45.27988" lon="5.33261">
        <ele>714.9</ele>
        <time>2022-04-28T13:18:33Z</time>
      </trkpt>
      <trkpt lat="45.27987" lon="5.33257">
        <ele>715</ele>
        <time>2022-04-28T13:18:34Z</time>
      </trkpt>
      <trkpt lat="45.27986" lon="5.33251">
        <ele>715.1</ele>
        <time>2022-04-28T13:18:35Z</time>
      </trkpt>
      <trkpt lat="45.27984" lon="5.33244">
        <ele>715</ele>
        <time>2022-04-28T13:18:37Z</time>
      </trkpt>
      <trkpt lat="45.27982" lon="5.33236">
        <ele>714.9</ele>
        <time>2022-04-28T13:18:38Z</time>
      </trkpt>
      <trkpt lat="45.27981" lon="5.33227">
        <ele>714.8</ele>
        <time>2022-04-28T13:18:39Z</time>
      </trkpt>
      <trkpt lat="45.2798" lon="5.3322">
        <ele>714.7</ele>
        <time>2022-04-28T13:18:40Z</time>
      </trkpt>
      <trkpt lat="45.27978" lon="5.33213">
        <ele>714.6</ele>
        <time>2022-04-28T13:18:41Z</time>
      </trkpt>
      <trkpt lat="45.27976" lon="5.33206">
        <ele>714.4</ele>
        <time>2022-04-28T13:18:42Z</time>
      </trkpt>
      <trkpt lat="45.27975" lon="5.33198">
        <ele>714.3</ele>
        <time>2022-04-28T13:18:43Z</time>
      </trkpt>
      <trkpt lat="45.27973" lon="5.33191">
        <ele>714.2</ele>
        <time>2022-04-28T13:18:44Z</time>
      </trkpt>
      <trkpt lat="45.27971" lon="5.33184">
        <ele>714</ele>
        <time>2022-04-28T13:18:45Z</time>
      </trkpt>
      <trkpt lat="45.2797" lon="5.33178">
        <ele>713.9</ele>
        <time>2022-04-28T13:18:46Z</time>
      </trkpt>
      <trkpt lat="45.27968" lon="5.3317">
        <ele>713.8</ele>
        <time>2022-04-28T13:18:47Z</time>
      </trkpt>
      <trkpt lat="45.27965" lon="5.33162">
        <ele>713.7</ele>
        <time>2022-04-28T13:18:48Z</time>
      </trkpt>
      <trkpt lat="45.27964" lon="5.33155">
        <ele>713.6</ele>
        <time>2022-04-28T13:18:49Z</time>
      </trkpt>
      <trkpt lat="45.27961" lon="5.33148">
        <ele>713.4</ele>
        <time>2022-04-28T13:18:50Z</time>
      </trkpt>
      <trkpt lat="45.27957" lon="5.3314">
        <ele>713.3</ele>
        <time>2022-04-28T13:18:51Z</time>
      </trkpt>
      <trkpt lat="45.27954" lon="5.33134">
        <ele>713.2</ele>
        <time>2022-04-28T13:18:52Z</time>
      </trkpt>
      <trkpt lat="45.27951" lon="5.33125">
        <ele>713.1</ele>
        <time>2022-04-28T13:18:53Z</time>
      </trkpt>
      <trkpt lat="45.27948" lon="5.33118">
        <ele>713</ele>
        <time>2022-04-28T13:18:54Z</time>
      </trkpt>
      <trkpt lat="45.27944" lon="5.33111">
        <ele>712.9</ele>
        <time>2022-04-28T13:18:55Z</time>
      </trkpt>
      <trkpt lat="45.27941" lon="5.33103">
        <ele>712.8</ele>
        <time>2022-04-28T13:18:56Z</time>
      </trkpt>
      <trkpt lat="45.27936" lon="5.33093">
        <ele>712.7</ele>
        <time>2022-04-28T13:18:57Z</time>
      </trkpt>
      <trkpt lat="45.2793" lon="5.33083">
        <ele>712.5</ele>
        <time>2022-04-28T13:18:58Z</time>
      </trkpt>
      <trkpt lat="45.27928" lon="5.33072">
        <ele>712.4</ele>
        <time>2022-04-28T13:18:59Z</time>
      </trkpt>
      <trkpt lat="45.27926" lon="5.33063">
        <ele>712.3</ele>
        <time>2022-04-28T13:19:00Z</time>
      </trkpt>
      <trkpt lat="45.27924" lon="5.33055">
        <ele>712.3</ele>
        <time>2022-04-28T13:19:01Z</time>
      </trkpt>
      <trkpt lat="45.27921" lon="5.33046">
        <ele>712.1</ele>
        <time>2022-04-28T13:19:02Z</time>
      </trkpt>
      <trkpt lat="45.27918" lon="5.33039">
        <ele>712.1</ele>
        <time>2022-04-28T13:19:03Z</time>
      </trkpt>
      <trkpt lat="45.27916" lon="5.33032">
        <ele>712</ele>
        <time>2022-04-28T13:19:04Z</time>
      </trkpt>
      <trkpt lat="45.27915" lon="5.33026">
        <ele>711.9</ele>
        <time>2022-04-28T13:19:05Z</time>
      </trkpt>
      <trkpt lat="45.27913" lon="5.33018">
        <ele>711.8</ele>
        <time>2022-04-28T13:19:06Z</time>
      </trkpt>
      <trkpt lat="45.2791" lon="5.33011">
        <ele>711.7</ele>
        <time>2022-04-28T13:19:07Z</time>
      </trkpt>
      <trkpt lat="45.27909" lon="5.33004">
        <ele>711.6</ele>
        <time>2022-04-28T13:19:08Z</time>
      </trkpt>
      <trkpt lat="45.27907" lon="5.32997">
        <ele>711.5</ele>
        <time>2022-04-28T13:19:09Z</time>
      </trkpt>
      <trkpt lat="45.27905" lon="5.32989">
        <ele>711.3</ele>
        <time>2022-04-28T13:19:10Z</time>
      </trkpt>
      <trkpt lat="45.27904" lon="5.32981">
        <ele>711.1</ele>
        <time>2022-04-28T13:19:11Z</time>
      </trkpt>
      <trkpt lat="45.27902" lon="5.32971">
        <ele>710.8</ele>
        <time>2022-04-28T13:19:12Z</time>
      </trkpt>
      <trkpt lat="45.27899" lon="5.32961">
        <ele>710.5</ele>
        <time>2022-04-28T13:19:13Z</time>
      </trkpt>
      <trkpt lat="45.27897" lon="5.32951">
        <ele>710.3</ele>
        <time>2022-04-28T13:19:14Z</time>
      </trkpt>
      <trkpt lat="45.27895" lon="5.32941">
        <ele>710</ele>
        <time>2022-04-28T13:19:15Z</time>
      </trkpt>
      <trkpt lat="45.27893" lon="5.32932">
        <ele>709.8</ele>
        <time>2022-04-28T13:19:16Z</time>
      </trkpt>
      <trkpt lat="45.27891" lon="5.32921">
        <ele>709.5</ele>
        <time>2022-04-28T13:19:17Z</time>
      </trkpt>
      <trkpt lat="45.27888" lon="5.32911">
        <ele>709.2</ele>
        <time>2022-04-28T13:19:18Z</time>
      </trkpt>
      <trkpt lat="45.27884" lon="5.32901">
        <ele>708.9</ele>
        <time>2022-04-28T13:19:19Z</time>
      </trkpt>
      <trkpt lat="45.27882" lon="5.32892">
        <ele>708.6</ele>
        <time>2022-04-28T13:19:20Z</time>
      </trkpt>
      <trkpt lat="45.2788" lon="5.32882">
        <ele>708.2</ele>
        <time>2022-04-28T13:19:21Z</time>
      </trkpt>
      <trkpt lat="45.27875" lon="5.32862">
        <ele>707.5</ele>
        <time>2022-04-28T13:19:23Z</time>
      </trkpt>
      <trkpt lat="45.27872" lon="5.32851">
        <ele>707.2</ele>
        <time>2022-04-28T13:19:24Z</time>
      </trkpt>
      <trkpt lat="45.2787" lon="5.32841">
        <ele>706.8</ele>
        <time>2022-04-28T13:19:25Z</time>
      </trkpt>
      <trkpt lat="45.27868" lon="5.32831">
        <ele>706.5</ele>
        <time>2022-04-28T13:19:26Z</time>
      </trkpt>
      <trkpt lat="45.27866" lon="5.3282">
        <ele>706.1</ele>
        <time>2022-04-28T13:19:27Z</time>
      </trkpt>
      <trkpt lat="45.27863" lon="5.32809">
        <ele>705.7</ele>
        <time>2022-04-28T13:19:28Z</time>
      </trkpt>
      <trkpt lat="45.27861" lon="5.32798">
        <ele>705.3</ele>
        <time>2022-04-28T13:19:29Z</time>
      </trkpt>
      <trkpt lat="45.27858" lon="5.32788">
        <ele>705.2</ele>
        <time>2022-04-28T13:19:30Z</time>
      </trkpt>
      <trkpt lat="45.27855" lon="5.32778">
        <ele>705</ele>
        <time>2022-04-28T13:19:31Z</time>
      </trkpt>
      <trkpt lat="45.27851" lon="5.32768">
        <ele>704.7</ele>
        <time>2022-04-28T13:19:32Z</time>
      </trkpt>
      <trkpt lat="45.27846" lon="5.32755">
        <ele>704.2</ele>
        <time>2022-04-28T13:19:33Z</time>
      </trkpt>
      <trkpt lat="45.27841" lon="5.32744">
        <ele>703.7</ele>
        <time>2022-04-28T13:19:34Z</time>
      </trkpt>
      <trkpt lat="45.27837" lon="5.32733">
        <ele>703.2</ele>
        <time>2022-04-28T13:19:35Z</time>
      </trkpt>
      <trkpt lat="45.27832" lon="5.3272">
        <ele>702.8</ele>
        <time>2022-04-28T13:19:36Z</time>
      </trkpt>
      <trkpt lat="45.27829" lon="5.32709">
        <ele>702.4</ele>
        <time>2022-04-28T13:19:37Z</time>
      </trkpt>
      <trkpt lat="45.27826" lon="5.32698">
        <ele>702</ele>
        <time>2022-04-28T13:19:38Z</time>
      </trkpt>
      <trkpt lat="45.27823" lon="5.32687">
        <ele>701.6</ele>
        <time>2022-04-28T13:19:39Z</time>
      </trkpt>
      <trkpt lat="45.2782" lon="5.32674">
        <ele>701.2</ele>
        <time>2022-04-28T13:19:40Z</time>
      </trkpt>
      <trkpt lat="45.27817" lon="5.32662">
        <ele>700.8</ele>
        <time>2022-04-28T13:19:41Z</time>
      </trkpt>
      <trkpt lat="45.27814" lon="5.32652">
        <ele>700.4</ele>
        <time>2022-04-28T13:19:42Z</time>
      </trkpt>
      <trkpt lat="45.27814" lon="5.32642">
        <ele>700.1</ele>
        <time>2022-04-28T13:19:43Z</time>
      </trkpt>
      <trkpt lat="45.27814" lon="5.32631">
        <ele>699.7</ele>
        <time>2022-04-28T13:19:44Z</time>
      </trkpt>
      <trkpt lat="45.27812" lon="5.3262">
        <ele>699.4</ele>
        <time>2022-04-28T13:19:45Z</time>
      </trkpt>
      <trkpt lat="45.2781" lon="5.32611">
        <ele>699</ele>
        <time>2022-04-28T13:19:46Z</time>
      </trkpt>
      <trkpt lat="45.27808" lon="5.326">
        <ele>698.6</ele>
        <time>2022-04-28T13:19:47Z</time>
      </trkpt>
      <trkpt lat="45.27805" lon="5.32588">
        <ele>698.1</ele>
        <time>2022-04-28T13:19:48Z</time>
      </trkpt>
      <trkpt lat="45.27801" lon="5.32576">
        <ele>697.7</ele>
        <time>2022-04-28T13:19:49Z</time>
      </trkpt>
      <trkpt lat="45.27798" lon="5.32564">
        <ele>697.2</ele>
        <time>2022-04-28T13:19:50Z</time>
      </trkpt>
      <trkpt lat="45.27794" lon="5.32553">
        <ele>696.8</ele>
        <time>2022-04-28T13:19:51Z</time>
      </trkpt>
      <trkpt lat="45.27794" lon="5.32543">
        <ele>696.4</ele>
        <time>2022-04-28T13:19:52Z</time>
      </trkpt>
      <trkpt lat="45.27791" lon="5.32533">
        <ele>696</ele>
        <time>2022-04-28T13:19:53Z</time>
      </trkpt>
      <trkpt lat="45.27788" lon="5.32521">
        <ele>695.5</ele>
        <time>2022-04-28T13:19:54Z</time>
      </trkpt>
      <trkpt lat="45.27784" lon="5.3251">
        <ele>695.1</ele>
        <time>2022-04-28T13:19:55Z</time>
      </trkpt>
      <trkpt lat="45.27779" lon="5.32497">
        <ele>694.5</ele>
        <time>2022-04-28T13:19:56Z</time>
      </trkpt>
      <trkpt lat="45.27775" lon="5.32486">
        <ele>694</ele>
        <time>2022-04-28T13:19:57Z</time>
      </trkpt>
      <trkpt lat="45.27771" lon="5.32473">
        <ele>693.5</ele>
        <time>2022-04-28T13:19:58Z</time>
      </trkpt>
      <trkpt lat="45.27767" lon="5.3246">
        <ele>693</ele>
        <time>2022-04-28T13:19:59Z</time>
      </trkpt>
      <trkpt lat="45.27763" lon="5.32447">
        <ele>692.5</ele>
        <time>2022-04-28T13:20:00Z</time>
      </trkpt>
      <trkpt lat="45.27759" lon="5.32435">
        <ele>692</ele>
        <time>2022-04-28T13:20:01Z</time>
      </trkpt>
      <trkpt lat="45.27755" lon="5.32423">
        <ele>691.6</ele>
        <time>2022-04-28T13:20:02Z</time>
      </trkpt>
      <trkpt lat="45.27752" lon="5.32411">
        <ele>691.1</ele>
        <time>2022-04-28T13:20:03Z</time>
      </trkpt>
      <trkpt lat="45.27748" lon="5.32399">
        <ele>690.6</ele>
        <time>2022-04-28T13:20:04Z</time>
      </trkpt>
      <trkpt lat="45.27744" lon="5.32387">
        <ele>690.1</ele>
        <time>2022-04-28T13:20:05Z</time>
      </trkpt>
      <trkpt lat="45.2774" lon="5.32375">
        <ele>689.6</ele>
        <time>2022-04-28T13:20:06Z</time>
      </trkpt>
      <trkpt lat="45.27737" lon="5.32363">
        <ele>689.1</ele>
        <time>2022-04-28T13:20:07Z</time>
      </trkpt>
      <trkpt lat="45.27733" lon="5.32351">
        <ele>688.7</ele>
        <time>2022-04-28T13:20:08Z</time>
      </trkpt>
      <trkpt lat="45.27728" lon="5.32338">
        <ele>688.2</ele>
        <time>2022-04-28T13:20:09Z</time>
      </trkpt>
      <trkpt lat="45.27723" lon="5.32325">
        <ele>687.6</ele>
        <time>2022-04-28T13:20:10Z</time>
      </trkpt>
      <trkpt lat="45.27718" lon="5.32314">
        <ele>687.1</ele>
        <time>2022-04-28T13:20:11Z</time>
      </trkpt>
      <trkpt lat="45.27712" lon="5.32302">
        <ele>686.6</ele>
        <time>2022-04-28T13:20:12Z</time>
      </trkpt>
      <trkpt lat="45.27708" lon="5.32291">
        <ele>686.2</ele>
        <time>2022-04-28T13:20:13Z</time>
      </trkpt>
      <trkpt lat="45.27704" lon="5.3228">
        <ele>685.7</ele>
        <time>2022-04-28T13:20:14Z</time>
      </trkpt>
      <trkpt lat="45.27698" lon="5.32268">
        <ele>685.2</ele>
        <time>2022-04-28T13:20:15Z</time>
      </trkpt>
      <trkpt lat="45.27693" lon="5.32255">
        <ele>684.6</ele>
        <time>2022-04-28T13:20:16Z</time>
      </trkpt>
      <trkpt lat="45.27689" lon="5.32244">
        <ele>684.2</ele>
        <time>2022-04-28T13:20:17Z</time>
      </trkpt>
      <trkpt lat="45.27684" lon="5.32233">
        <ele>683.7</ele>
        <time>2022-04-28T13:20:18Z</time>
      </trkpt>
      <trkpt lat="45.27678" lon="5.32221">
        <ele>683.2</ele>
        <time>2022-04-28T13:20:19Z</time>
      </trkpt>
      <trkpt lat="45.27672" lon="5.32209">
        <ele>682.7</ele>
        <time>2022-04-28T13:20:20Z</time>
      </trkpt>
      <trkpt lat="45.27666" lon="5.32195">
        <ele>682.1</ele>
        <time>2022-04-28T13:20:21Z</time>
      </trkpt>
      <trkpt lat="45.27662" lon="5.32182">
        <ele>681.6</ele>
        <time>2022-04-28T13:20:22Z</time>
      </trkpt>
      <trkpt lat="45.27657" lon="5.32168">
        <ele>681</ele>
        <time>2022-04-28T13:20:23Z</time>
      </trkpt>
      <trkpt lat="45.27652" lon="5.32154">
        <ele>680.5</ele>
        <time>2022-04-28T13:20:24Z</time>
      </trkpt>
      <trkpt lat="45.27648" lon="5.32142">
        <ele>680</ele>
        <time>2022-04-28T13:20:25Z</time>
      </trkpt>
      <trkpt lat="45.27643" lon="5.3213">
        <ele>679.5</ele>
        <time>2022-04-28T13:20:26Z</time>
      </trkpt>
      <trkpt lat="45.27638" lon="5.32119">
        <ele>679.1</ele>
        <time>2022-04-28T13:20:27Z</time>
      </trkpt>
      <trkpt lat="45.27633" lon="5.32107">
        <ele>678.6</ele>
        <time>2022-04-28T13:20:28Z</time>
      </trkpt>
      <trkpt lat="45.2763" lon="5.32096">
        <ele>678.2</ele>
        <time>2022-04-28T13:20:29Z</time>
      </trkpt>
      <trkpt lat="45.27625" lon="5.32085">
        <ele>677.8</ele>
        <time>2022-04-28T13:20:30Z</time>
      </trkpt>
      <trkpt lat="45.27619" lon="5.32071">
        <ele>677.2</ele>
        <time>2022-04-28T13:20:31Z</time>
      </trkpt>
      <trkpt lat="45.27613" lon="5.32059">
        <ele>676.7</ele>
        <time>2022-04-28T13:20:32Z</time>
      </trkpt>
      <trkpt lat="45.2761" lon="5.32046">
        <ele>676.3</ele>
        <time>2022-04-28T13:20:33Z</time>
      </trkpt>
      <trkpt lat="45.27608" lon="5.32033">
        <ele>675.9</ele>
        <time>2022-04-28T13:20:34Z</time>
      </trkpt>
      <trkpt lat="45.27609" lon="5.32021">
        <ele>675.6</ele>
        <time>2022-04-28T13:20:35Z</time>
      </trkpt>
      <trkpt lat="45.27609" lon="5.32006">
        <ele>675.1</ele>
        <time>2022-04-28T13:20:36Z</time>
      </trkpt>
      <trkpt lat="45.27609" lon="5.31992">
        <ele>674.6</ele>
        <time>2022-04-28T13:20:37Z</time>
      </trkpt>
      <trkpt lat="45.27609" lon="5.31976">
        <ele>674.1</ele>
        <time>2022-04-28T13:20:38Z</time>
      </trkpt>
      <trkpt lat="45.2761" lon="5.31963">
        <ele>673.6</ele>
        <time>2022-04-28T13:20:39Z</time>
      </trkpt>
      <trkpt lat="45.27611" lon="5.31951">
        <ele>673.2</ele>
        <time>2022-04-28T13:20:40Z</time>
      </trkpt>
      <trkpt lat="45.27606" lon="5.31938">
        <ele>672.7</ele>
        <time>2022-04-28T13:20:41Z</time>
      </trkpt>
      <trkpt lat="45.27601" lon="5.31924">
        <ele>672.1</ele>
        <time>2022-04-28T13:20:42Z</time>
      </trkpt>
      <trkpt lat="45.27596" lon="5.31909">
        <ele>671.5</ele>
        <time>2022-04-28T13:20:43Z</time>
      </trkpt>
      <trkpt lat="45.2759" lon="5.31895">
        <ele>670.9</ele>
        <time>2022-04-28T13:20:44Z</time>
      </trkpt>
      <trkpt lat="45.27584" lon="5.31883">
        <ele>670.4</ele>
        <time>2022-04-28T13:20:45Z</time>
      </trkpt>
      <trkpt lat="45.27576" lon="5.31873">
        <ele>669.8</ele>
        <time>2022-04-28T13:20:46Z</time>
      </trkpt>
      <trkpt lat="45.2757" lon="5.31863">
        <ele>669.3</ele>
        <time>2022-04-28T13:20:47Z</time>
      </trkpt>
      <trkpt lat="45.27562" lon="5.31853">
        <ele>668.8</ele>
        <time>2022-04-28T13:20:48Z</time>
      </trkpt>
      <trkpt lat="45.27553" lon="5.31844">
        <ele>668.2</ele>
        <time>2022-04-28T13:20:49Z</time>
      </trkpt>
      <trkpt lat="45.27544" lon="5.31835">
        <ele>667.7</ele>
        <time>2022-04-28T13:20:50Z</time>
      </trkpt>
      <trkpt lat="45.27535" lon="5.31826">
        <ele>667.2</ele>
        <time>2022-04-28T13:20:51Z</time>
      </trkpt>
      <trkpt lat="45.27526" lon="5.31818">
        <ele>666.7</ele>
        <time>2022-04-28T13:20:52Z</time>
      </trkpt>
      <trkpt lat="45.27517" lon="5.31807">
        <ele>666.2</ele>
        <time>2022-04-28T13:20:53Z</time>
      </trkpt>
      <trkpt lat="45.27508" lon="5.31799">
        <ele>665.7</ele>
        <time>2022-04-28T13:20:54Z</time>
      </trkpt>
      <trkpt lat="45.275" lon="5.31789">
        <ele>665.2</ele>
        <time>2022-04-28T13:20:55Z</time>
      </trkpt>
      <trkpt lat="45.27493" lon="5.31778">
        <ele>664.6</ele>
        <time>2022-04-28T13:20:56Z</time>
      </trkpt>
      <trkpt lat="45.27487" lon="5.31769">
        <ele>664.1</ele>
        <time>2022-04-28T13:20:57Z</time>
      </trkpt>
      <trkpt lat="45.27483" lon="5.31756">
        <ele>663.6</ele>
        <time>2022-04-28T13:20:58Z</time>
      </trkpt>
      <trkpt lat="45.27478" lon="5.31743">
        <ele>663.1</ele>
        <time>2022-04-28T13:20:59Z</time>
      </trkpt>
      <trkpt lat="45.27475" lon="5.31729">
        <ele>662.6</ele>
        <time>2022-04-28T13:21:00Z</time>
      </trkpt>
      <trkpt lat="45.27475" lon="5.31716">
        <ele>662.2</ele>
        <time>2022-04-28T13:21:01Z</time>
      </trkpt>
      <trkpt lat="45.27474" lon="5.31702">
        <ele>661.7</ele>
        <time>2022-04-28T13:21:02Z</time>
      </trkpt>
      <trkpt lat="45.27471" lon="5.31687">
        <ele>661.2</ele>
        <time>2022-04-28T13:21:03Z</time>
      </trkpt>
      <trkpt lat="45.2747" lon="5.31673">
        <ele>660.8</ele>
        <time>2022-04-28T13:21:04Z</time>
      </trkpt>
      <trkpt lat="45.27471" lon="5.31657">
        <ele>660.2</ele>
        <time>2022-04-28T13:21:05Z</time>
      </trkpt>
      <trkpt lat="45.27475" lon="5.31642">
        <ele>659.7</ele>
        <time>2022-04-28T13:21:06Z</time>
      </trkpt>
      <trkpt lat="45.2748" lon="5.3163">
        <ele>659.2</ele>
        <time>2022-04-28T13:21:07Z</time>
      </trkpt>
      <trkpt lat="45.27485" lon="5.31618">
        <ele>658.6</ele>
        <time>2022-04-28T13:21:08Z</time>
      </trkpt>
      <trkpt lat="45.27491" lon="5.31604">
        <ele>658.1</ele>
        <time>2022-04-28T13:21:09Z</time>
      </trkpt>
      <trkpt lat="45.27495" lon="5.31589">
        <ele>657.5</ele>
        <time>2022-04-28T13:21:10Z</time>
      </trkpt>
      <trkpt lat="45.27499" lon="5.31575">
        <ele>657</ele>
        <time>2022-04-28T13:21:11Z</time>
      </trkpt>
      <trkpt lat="45.275" lon="5.31561">
        <ele>656.5</ele>
        <time>2022-04-28T13:21:12Z</time>
      </trkpt>
      <trkpt lat="45.27501" lon="5.31547">
        <ele>656</ele>
        <time>2022-04-28T13:21:13Z</time>
      </trkpt>
      <trkpt lat="45.275" lon="5.31532">
        <ele>655.5</ele>
        <time>2022-04-28T13:21:14Z</time>
      </trkpt>
      <trkpt lat="45.27497" lon="5.31516">
        <ele>654.9</ele>
        <time>2022-04-28T13:21:15Z</time>
      </trkpt>
      <trkpt lat="45.27493" lon="5.31501">
        <ele>654.3</ele>
        <time>2022-04-28T13:21:16Z</time>
      </trkpt>
      <trkpt lat="45.27489" lon="5.31486">
        <ele>653.8</ele>
        <time>2022-04-28T13:21:17Z</time>
      </trkpt>
      <trkpt lat="45.27484" lon="5.31472">
        <ele>653.4</ele>
        <time>2022-04-28T13:21:18Z</time>
      </trkpt>
      <trkpt lat="45.27481" lon="5.3146">
        <ele>653</ele>
        <time>2022-04-28T13:21:19Z</time>
      </trkpt>
      <trkpt lat="45.27478" lon="5.31447">
        <ele>652.7</ele>
        <time>2022-04-28T13:21:20Z</time>
      </trkpt>
      <trkpt lat="45.27476" lon="5.31433">
        <ele>652.3</ele>
        <time>2022-04-28T13:21:21Z</time>
      </trkpt>
      <trkpt lat="45.27474" lon="5.31418">
        <ele>651.8</ele>
        <time>2022-04-28T13:21:22Z</time>
      </trkpt>
      <trkpt lat="45.27476" lon="5.31404">
        <ele>651.3</ele>
        <time>2022-04-28T13:21:23Z</time>
      </trkpt>
      <trkpt lat="45.27481" lon="5.31391">
        <ele>650.8</ele>
        <time>2022-04-28T13:21:24Z</time>
      </trkpt>
      <trkpt lat="45.27485" lon="5.31379">
        <ele>650.3</ele>
        <time>2022-04-28T13:21:25Z</time>
      </trkpt>
      <trkpt lat="45.27489" lon="5.31367">
        <ele>649.8</ele>
        <time>2022-04-28T13:21:26Z</time>
      </trkpt>
      <trkpt lat="45.2749" lon="5.31353">
        <ele>649.4</ele>
        <time>2022-04-28T13:21:27Z</time>
      </trkpt>
      <trkpt lat="45.2749" lon="5.3134">
        <ele>648.9</ele>
        <time>2022-04-28T13:21:28Z</time>
      </trkpt>
      <trkpt lat="45.2749" lon="5.31329">
        <ele>648.6</ele>
        <time>2022-04-28T13:21:29Z</time>
      </trkpt>
      <trkpt lat="45.27487" lon="5.31315">
        <ele>648.1</ele>
        <time>2022-04-28T13:21:30Z</time>
      </trkpt>
      <trkpt lat="45.27483" lon="5.31302">
        <ele>647.6</ele>
        <time>2022-04-28T13:21:31Z</time>
      </trkpt>
      <trkpt lat="45.27482" lon="5.31288">
        <ele>647.1</ele>
        <time>2022-04-28T13:21:32Z</time>
      </trkpt>
      <trkpt lat="45.27482" lon="5.31273">
        <ele>646.6</ele>
        <time>2022-04-28T13:21:33Z</time>
      </trkpt>
      <trkpt lat="45.27481" lon="5.31259">
        <ele>646.1</ele>
        <time>2022-04-28T13:21:34Z</time>
      </trkpt>
      <trkpt lat="45.27483" lon="5.31245">
        <ele>645.7</ele>
        <time>2022-04-28T13:21:35Z</time>
      </trkpt>
      <trkpt lat="45.27484" lon="5.31232">
        <ele>645.2</ele>
        <time>2022-04-28T13:21:36Z</time>
      </trkpt>
      <trkpt lat="45.27484" lon="5.31217">
        <ele>644.7</ele>
        <time>2022-04-28T13:21:37Z</time>
      </trkpt>
      <trkpt lat="45.27483" lon="5.31204">
        <ele>644.3</ele>
        <time>2022-04-28T13:21:38Z</time>
      </trkpt>
      <trkpt lat="45.27482" lon="5.3119">
        <ele>643.8</ele>
        <time>2022-04-28T13:21:39Z</time>
      </trkpt>
      <trkpt lat="45.27479" lon="5.31177">
        <ele>643.3</ele>
        <time>2022-04-28T13:21:40Z</time>
      </trkpt>
      <trkpt lat="45.27474" lon="5.31163">
        <ele>642.8</ele>
        <time>2022-04-28T13:21:41Z</time>
      </trkpt>
      <trkpt lat="45.27468" lon="5.31149">
        <ele>642.2</ele>
        <time>2022-04-28T13:21:42Z</time>
      </trkpt>
      <trkpt lat="45.27465" lon="5.31137">
        <ele>641.7</ele>
        <time>2022-04-28T13:21:43Z</time>
      </trkpt>
      <trkpt lat="45.2746" lon="5.31125">
        <ele>641.2</ele>
        <time>2022-04-28T13:21:44Z</time>
      </trkpt>
      <trkpt lat="45.27456" lon="5.31113">
        <ele>640.8</ele>
        <time>2022-04-28T13:21:45Z</time>
      </trkpt>
      <trkpt lat="45.27452" lon="5.31102">
        <ele>640.4</ele>
        <time>2022-04-28T13:21:46Z</time>
      </trkpt>
      <trkpt lat="45.27448" lon="5.31089">
        <ele>639.9</ele>
        <time>2022-04-28T13:21:47Z</time>
      </trkpt>
      <trkpt lat="45.27442" lon="5.31076">
        <ele>639.4</ele>
        <time>2022-04-28T13:21:48Z</time>
      </trkpt>
      <trkpt lat="45.27435" lon="5.31065">
        <ele>638.9</ele>
        <time>2022-04-28T13:21:49Z</time>
      </trkpt>
      <trkpt lat="45.27428" lon="5.31053">
        <ele>638.3</ele>
        <time>2022-04-28T13:21:50Z</time>
      </trkpt>
      <trkpt lat="45.2742" lon="5.31043">
        <ele>637.8</ele>
        <time>2022-04-28T13:21:51Z</time>
      </trkpt>
      <trkpt lat="45.27413" lon="5.31033">
        <ele>637.4</ele>
        <time>2022-04-28T13:21:52Z</time>
      </trkpt>
      <trkpt lat="45.27407" lon="5.31023">
        <ele>636.9</ele>
        <time>2022-04-28T13:21:53Z</time>
      </trkpt>
      <trkpt lat="45.27402" lon="5.31012">
        <ele>636.5</ele>
        <time>2022-04-28T13:21:54Z</time>
      </trkpt>
      <trkpt lat="45.27398" lon="5.30998">
        <ele>635.9</ele>
        <time>2022-04-28T13:21:55Z</time>
      </trkpt>
      <trkpt lat="45.27395" lon="5.30984">
        <ele>635.3</ele>
        <time>2022-04-28T13:21:56Z</time>
      </trkpt>
      <trkpt lat="45.27393" lon="5.30969">
        <ele>634.7</ele>
        <time>2022-04-28T13:21:57Z</time>
      </trkpt>
      <trkpt lat="45.27394" lon="5.30955">
        <ele>634.2</ele>
        <time>2022-04-28T13:21:58Z</time>
      </trkpt>
      <trkpt lat="45.27394" lon="5.30941">
        <ele>633.7</ele>
        <time>2022-04-28T13:21:59Z</time>
      </trkpt>
      <trkpt lat="45.27393" lon="5.30926">
        <ele>633.4</ele>
        <time>2022-04-28T13:22:00Z</time>
      </trkpt>
      <trkpt lat="45.27392" lon="5.30912">
        <ele>633.2</ele>
        <time>2022-04-28T13:22:01Z</time>
      </trkpt>
      <trkpt lat="45.27391" lon="5.30897">
        <ele>633.1</ele>
        <time>2022-04-28T13:22:02Z</time>
      </trkpt>
      <trkpt lat="45.2739" lon="5.30885">
        <ele>633.1</ele>
        <time>2022-04-28T13:22:03Z</time>
      </trkpt>
      <trkpt lat="45.27388" lon="5.30872">
        <ele>633.2</ele>
        <time>2022-04-28T13:22:04Z</time>
      </trkpt>
      <trkpt lat="45.27389" lon="5.30859">
        <ele>633.2</ele>
        <time>2022-04-28T13:22:05Z</time>
      </trkpt>
      <trkpt lat="45.2739" lon="5.30847">
        <ele>633.3</ele>
        <time>2022-04-28T13:22:06Z</time>
      </trkpt>
      <trkpt lat="45.27391" lon="5.30836">
        <ele>633.4</ele>
        <time>2022-04-28T13:22:07Z</time>
      </trkpt>
      <trkpt lat="45.27392" lon="5.30825">
        <ele>633.6</ele>
        <time>2022-04-28T13:22:08Z</time>
      </trkpt>
      <trkpt lat="45.27393" lon="5.30815">
        <ele>633.8</ele>
        <time>2022-04-28T13:22:09Z</time>
      </trkpt>
      <trkpt lat="45.27394" lon="5.30803">
        <ele>634</ele>
        <time>2022-04-28T13:22:10Z</time>
      </trkpt>
      <trkpt lat="45.27394" lon="5.30793">
        <ele>634.3</ele>
        <time>2022-04-28T13:22:11Z</time>
      </trkpt>
      <trkpt lat="45.27395" lon="5.30783">
        <ele>634.6</ele>
        <time>2022-04-28T13:22:12Z</time>
      </trkpt>
      <trkpt lat="45.27397" lon="5.30774">
        <ele>634.9</ele>
        <time>2022-04-28T13:22:13Z</time>
      </trkpt>
      <trkpt lat="45.27399" lon="5.30766">
        <ele>635.2</ele>
        <time>2022-04-28T13:22:14Z</time>
      </trkpt>
      <trkpt lat="45.274" lon="5.30758">
        <ele>635.4</ele>
        <time>2022-04-28T13:22:15Z</time>
      </trkpt>
      <trkpt lat="45.274" lon="5.30752">
        <ele>635.7</ele>
        <time>2022-04-28T13:22:16Z</time>
      </trkpt>
      <trkpt lat="45.274" lon="5.30745">
        <ele>635.9</ele>
        <time>2022-04-28T13:22:17Z</time>
      </trkpt>
      <trkpt lat="45.274" lon="5.3074">
        <ele>636.1</ele>
        <time>2022-04-28T13:22:18Z</time>
      </trkpt>
      <trkpt lat="45.274" lon="5.30737">
        <ele>636.2</ele>
        <time>2022-04-28T13:22:19Z</time>
      </trkpt>
      <trkpt lat="45.27402" lon="5.30735">
        <ele>636.3</ele>
        <time>2022-04-28T13:22:20Z</time>
      </trkpt>
      <trkpt lat="45.27403" lon="5.30731">
        <ele>636.5</ele>
        <time>2022-04-28T13:22:21Z</time>
      </trkpt>
      <trkpt lat="45.27404" lon="5.30724">
        <ele>636.8</ele>
        <time>2022-04-28T13:22:22Z</time>
      </trkpt>
      <trkpt lat="45.27405" lon="5.30717">
        <ele>637.1</ele>
        <time>2022-04-28T13:22:23Z</time>
      </trkpt>
      <trkpt lat="45.27406" lon="5.30711">
        <ele>637.4</ele>
        <time>2022-04-28T13:22:24Z</time>
      </trkpt>
      <trkpt lat="45.27405" lon="5.30704">
        <ele>637.7</ele>
        <time>2022-04-28T13:22:25Z</time>
      </trkpt>
      <trkpt lat="45.27405" lon="5.30697">
        <ele>637.9</ele>
        <time>2022-04-28T13:22:26Z</time>
      </trkpt>
      <trkpt lat="45.27404" lon="5.30691">
        <ele>638.2</ele>
        <time>2022-04-28T13:22:27Z</time>
      </trkpt>
      <trkpt lat="45.27404" lon="5.30683">
        <ele>638.5</ele>
        <time>2022-04-28T13:22:28Z</time>
      </trkpt>
      <trkpt lat="45.27404" lon="5.30678">
        <ele>638.7</ele>
        <time>2022-04-28T13:22:29Z</time>
      </trkpt>
      <trkpt lat="45.27403" lon="5.30672">
        <ele>638.9</ele>
        <time>2022-04-28T13:22:30Z</time>
      </trkpt>
      <trkpt lat="45.27403" lon="5.30665">
        <ele>639.1</ele>
        <time>2022-04-28T13:22:31Z</time>
      </trkpt>
      <trkpt lat="45.27402" lon="5.3066">
        <ele>639.3</ele>
        <time>2022-04-28T13:22:32Z</time>
      </trkpt>
      <trkpt lat="45.27402" lon="5.30652">
        <ele>639.5</ele>
        <time>2022-04-28T13:22:33Z</time>
      </trkpt>
      <trkpt lat="45.27401" lon="5.30647">
        <ele>639.7</ele>
        <time>2022-04-28T13:22:34Z</time>
      </trkpt>
      <trkpt lat="45.274" lon="5.30641">
        <ele>639.9</ele>
        <time>2022-04-28T13:22:35Z</time>
      </trkpt>
      <trkpt lat="45.274" lon="5.30637">
        <ele>640.1</ele>
        <time>2022-04-28T13:22:36Z</time>
      </trkpt>
      <trkpt lat="45.274" lon="5.30631">
        <ele>640.3</ele>
        <time>2022-04-28T13:22:37Z</time>
      </trkpt>
      <trkpt lat="45.27399" lon="5.30626">
        <ele>640.4</ele>
        <time>2022-04-28T13:22:38Z</time>
      </trkpt>
      <trkpt lat="45.27399" lon="5.30622">
        <ele>640.5</ele>
        <time>2022-04-28T13:22:39Z</time>
      </trkpt>
      <trkpt lat="45.27399" lon="5.30618">
        <ele>640.7</ele>
        <time>2022-04-28T13:22:40Z</time>
      </trkpt>
      <trkpt lat="45.27398" lon="5.30612">
        <ele>640.8</ele>
        <time>2022-04-28T13:22:41Z</time>
      </trkpt>
      <trkpt lat="45.27398" lon="5.30608">
        <ele>640.9</ele>
        <time>2022-04-28T13:22:42Z</time>
      </trkpt>
      <trkpt lat="45.27398" lon="5.30603">
        <ele>641</ele>
        <time>2022-04-28T13:22:43Z</time>
      </trkpt>
      <trkpt lat="45.27397" lon="5.30597">
        <ele>641.1</ele>
        <time>2022-04-28T13:22:44Z</time>
      </trkpt>
      <trkpt lat="45.27397" lon="5.30593">
        <ele>641.1</ele>
        <time>2022-04-28T13:22:45Z</time>
      </trkpt>
      <trkpt lat="45.27396" lon="5.30588">
        <ele>641.2</ele>
        <time>2022-04-28T13:22:46Z</time>
      </trkpt>
      <trkpt lat="45.27395" lon="5.30582">
        <ele>641.3</ele>
        <time>2022-04-28T13:22:47Z</time>
      </trkpt>
      <trkpt lat="45.27395" lon="5.30576">
        <ele>641.3</ele>
        <time>2022-04-28T13:22:48Z</time>
      </trkpt>
      <trkpt lat="45.27394" lon="5.30571">
        <ele>641.4</ele>
        <time>2022-04-28T13:22:49Z</time>
      </trkpt>
      <trkpt lat="45.27394" lon="5.30566">
        <ele>641.4</ele>
        <time>2022-04-28T13:22:50Z</time>
      </trkpt>
      <trkpt lat="45.27393" lon="5.30562">
        <ele>641.5</ele>
        <time>2022-04-28T13:22:51Z</time>
      </trkpt>
      <trkpt lat="45.27393" lon="5.30557">
        <ele>641.6</ele>
        <time>2022-04-28T13:22:52Z</time>
      </trkpt>
      <trkpt lat="45.27392" lon="5.30552">
        <ele>641.6</ele>
        <time>2022-04-28T13:22:53Z</time>
      </trkpt>
      <trkpt lat="45.27392" lon="5.30546">
        <ele>641.7</ele>
        <time>2022-04-28T13:22:54Z</time>
      </trkpt>
      <trkpt lat="45.27391" lon="5.30541">
        <ele>641.7</ele>
        <time>2022-04-28T13:22:55Z</time>
      </trkpt>
      <trkpt lat="45.27391" lon="5.30536">
        <ele>641.8</ele>
        <time>2022-04-28T13:22:56Z</time>
      </trkpt>
      <trkpt lat="45.27387" lon="5.30527">
        <ele>641.9</ele>
        <time>2022-04-28T13:22:57Z</time>
      </trkpt>
      <trkpt lat="45.27386" lon="5.30521">
        <ele>641.9</ele>
        <time>2022-04-28T13:22:58Z</time>
      </trkpt>
      <trkpt lat="45.27386" lon="5.30514">
        <ele>641.9</ele>
        <time>2022-04-28T13:22:59Z</time>
      </trkpt>
      <trkpt lat="45.27385" lon="5.30506">
        <ele>641.9</ele>
        <time>2022-04-28T13:23:01Z</time>
      </trkpt>
      <trkpt lat="45.27385" lon="5.30498">
        <ele>641.9</ele>
        <time>2022-04-28T13:23:02Z</time>
      </trkpt>
      <trkpt lat="45.27384" lon="5.30492">
        <ele>642</ele>
        <time>2022-04-28T13:23:03Z</time>
      </trkpt>
      <trkpt lat="45.27383" lon="5.30485">
        <ele>642</ele>
        <time>2022-04-28T13:23:04Z</time>
      </trkpt>
      <trkpt lat="45.27383" lon="5.30476">
        <ele>642</ele>
        <time>2022-04-28T13:23:05Z</time>
      </trkpt>
      <trkpt lat="45.27382" lon="5.30466">
        <ele>642</ele>
        <time>2022-04-28T13:23:07Z</time>
      </trkpt>
      <trkpt lat="45.27381" lon="5.30453">
        <ele>642.1</ele>
        <time>2022-04-28T13:23:08Z</time>
      </trkpt>
      <trkpt lat="45.2738" lon="5.30447">
        <ele>642.2</ele>
        <time>2022-04-28T13:23:09Z</time>
      </trkpt>
      <trkpt lat="45.27379" lon="5.30442">
        <ele>642.2</ele>
        <time>2022-04-28T13:23:10Z</time>
      </trkpt>
      <trkpt lat="45.2738" lon="5.30433">
        <ele>642.3</ele>
        <time>2022-04-28T13:23:11Z</time>
      </trkpt>
      <trkpt lat="45.27379" lon="5.30427">
        <ele>642.3</ele>
        <time>2022-04-28T13:23:12Z</time>
      </trkpt>
      <trkpt lat="45.27379" lon="5.30418">
        <ele>642.4</ele>
        <time>2022-04-28T13:23:13Z</time>
      </trkpt>
      <trkpt lat="45.27379" lon="5.30412">
        <ele>642.5</ele>
        <time>2022-04-28T13:23:14Z</time>
      </trkpt>
      <trkpt lat="45.27378" lon="5.30404">
        <ele>642.7</ele>
        <time>2022-04-28T13:23:15Z</time>
      </trkpt>
      <trkpt lat="45.27379" lon="5.30398">
        <ele>642.8</ele>
        <time>2022-04-28T13:23:16Z</time>
      </trkpt>
      <trkpt lat="45.27377" lon="5.30391">
        <ele>643</ele>
        <time>2022-04-28T13:23:17Z</time>
      </trkpt>
      <trkpt lat="45.27377" lon="5.30385">
        <ele>643.1</ele>
        <time>2022-04-28T13:23:18Z</time>
      </trkpt>
      <trkpt lat="45.27374" lon="5.3038">
        <ele>643.2</ele>
        <time>2022-04-28T13:23:19Z</time>
      </trkpt>
      <trkpt lat="45.27374" lon="5.30374">
        <ele>643.4</ele>
        <time>2022-04-28T13:23:20Z</time>
      </trkpt>
      <trkpt lat="45.27373" lon="5.30368">
        <ele>643.5</ele>
        <time>2022-04-28T13:23:21Z</time>
      </trkpt>
      <trkpt lat="45.27373" lon="5.30361">
        <ele>643.7</ele>
        <time>2022-04-28T13:23:23Z</time>
      </trkpt>
      <trkpt lat="45.27373" lon="5.30349">
        <ele>644.1</ele>
        <time>2022-04-28T13:23:24Z</time>
      </trkpt>
      <trkpt lat="45.27372" lon="5.30344">
        <ele>644.2</ele>
        <time>2022-04-28T13:23:25Z</time>
      </trkpt>
      <trkpt lat="45.27372" lon="5.30338">
        <ele>644.4</ele>
        <time>2022-04-28T13:23:27Z</time>
      </trkpt>
      <trkpt lat="45.27372" lon="5.30332">
        <ele>644.5</ele>
        <time>2022-04-28T13:23:28Z</time>
      </trkpt>
      <trkpt lat="45.27373" lon="5.30327">
        <ele>644.7</ele>
        <time>2022-04-28T13:23:29Z</time>
      </trkpt>
      <trkpt lat="45.27374" lon="5.30321">
        <ele>644.9</ele>
        <time>2022-04-28T13:23:30Z</time>
      </trkpt>
      <trkpt lat="45.27374" lon="5.30316">
        <ele>645</ele>
        <time>2022-04-28T13:23:31Z</time>
      </trkpt>
      <trkpt lat="45.27376" lon="5.30311">
        <ele>645.2</ele>
        <time>2022-04-28T13:23:33Z</time>
      </trkpt>
      <trkpt lat="45.27377" lon="5.30307">
        <ele>645.3</ele>
        <time>2022-04-28T13:23:34Z</time>
      </trkpt>
      <trkpt lat="45.27379" lon="5.30302">
        <ele>645.5</ele>
        <time>2022-04-28T13:23:35Z</time>
      </trkpt>
      <trkpt lat="45.27379" lon="5.303">
        <ele>645.5</ele>
        <time>2022-04-28T13:23:36Z</time>
      </trkpt>
      <trkpt lat="45.27381" lon="5.30294">
        <ele>645.7</ele>
        <time>2022-04-28T13:23:37Z</time>
      </trkpt>
      <trkpt lat="45.27381" lon="5.30291">
        <ele>645.8</ele>
        <time>2022-04-28T13:23:38Z</time>
      </trkpt>
      <trkpt lat="45.27382" lon="5.30287">
        <ele>646</ele>
        <time>2022-04-28T13:23:39Z</time>
      </trkpt>
      <trkpt lat="45.27383" lon="5.30281">
        <ele>646.2</ele>
        <time>2022-04-28T13:23:41Z</time>
      </trkpt>
      <trkpt lat="45.27384" lon="5.30272">
        <ele>646.5</ele>
        <time>2022-04-28T13:23:42Z</time>
      </trkpt>
      <trkpt lat="45.27386" lon="5.30267">
        <ele>646.6</ele>
        <time>2022-04-28T13:23:43Z</time>
      </trkpt>
      <trkpt lat="45.27387" lon="5.30263">
        <ele>646.8</ele>
        <time>2022-04-28T13:23:44Z</time>
      </trkpt>
      <trkpt lat="45.27389" lon="5.30253">
        <ele>647.1</ele>
        <time>2022-04-28T13:23:46Z</time>
      </trkpt>
      <trkpt lat="45.2739" lon="5.30249">
        <ele>647.2</ele>
        <time>2022-04-28T13:23:47Z</time>
      </trkpt>
      <trkpt lat="45.2739" lon="5.30244">
        <ele>647.4</ele>
        <time>2022-04-28T13:23:48Z</time>
      </trkpt>
      <trkpt lat="45.27391" lon="5.30239">
        <ele>647.6</ele>
        <time>2022-04-28T13:23:49Z</time>
      </trkpt>
      <trkpt lat="45.27392" lon="5.30234">
        <ele>647.7</ele>
        <time>2022-04-28T13:23:50Z</time>
      </trkpt>
      <trkpt lat="45.27393" lon="5.30229">
        <ele>647.9</ele>
        <time>2022-04-28T13:23:51Z</time>
      </trkpt>
      <trkpt lat="45.27395" lon="5.30221">
        <ele>648.1</ele>
        <time>2022-04-28T13:23:53Z</time>
      </trkpt>
      <trkpt lat="45.27396" lon="5.30214">
        <ele>648.3</ele>
        <time>2022-04-28T13:23:54Z</time>
      </trkpt>
      <trkpt lat="45.27396" lon="5.30207">
        <ele>648.5</ele>
        <time>2022-04-28T13:23:55Z</time>
      </trkpt>
      <trkpt lat="45.27397" lon="5.30201">
        <ele>648.6</ele>
        <time>2022-04-28T13:23:56Z</time>
      </trkpt>
      <trkpt lat="45.27397" lon="5.30196">
        <ele>648.8</ele>
        <time>2022-04-28T13:23:57Z</time>
      </trkpt>
      <trkpt lat="45.27396" lon="5.30189">
        <ele>648.9</ele>
        <time>2022-04-28T13:23:58Z</time>
      </trkpt>
      <trkpt lat="45.27396" lon="5.30184">
        <ele>649.1</ele>
        <time>2022-04-28T13:23:59Z</time>
      </trkpt>
      <trkpt lat="45.27395" lon="5.30178">
        <ele>649.3</ele>
        <time>2022-04-28T13:24:00Z</time>
      </trkpt>
      <trkpt lat="45.27395" lon="5.30172">
        <ele>649.4</ele>
        <time>2022-04-28T13:24:01Z</time>
      </trkpt>
      <trkpt lat="45.27393" lon="5.30165">
        <ele>649.6</ele>
        <time>2022-04-28T13:24:02Z</time>
      </trkpt>
      <trkpt lat="45.27392" lon="5.30159">
        <ele>649.7</ele>
        <time>2022-04-28T13:24:03Z</time>
      </trkpt>
      <trkpt lat="45.27391" lon="5.30153">
        <ele>649.8</ele>
        <time>2022-04-28T13:24:04Z</time>
      </trkpt>
      <trkpt lat="45.2739" lon="5.30148">
        <ele>650</ele>
        <time>2022-04-28T13:24:05Z</time>
      </trkpt>
      <trkpt lat="45.27389" lon="5.30142">
        <ele>650.1</ele>
        <time>2022-04-28T13:24:06Z</time>
      </trkpt>
      <trkpt lat="45.27389" lon="5.30136">
        <ele>650.2</ele>
        <time>2022-04-28T13:24:07Z</time>
      </trkpt>
      <trkpt lat="45.27389" lon="5.30129">
        <ele>650.4</ele>
        <time>2022-04-28T13:24:08Z</time>
      </trkpt>
      <trkpt lat="45.27389" lon="5.30122">
        <ele>650.5</ele>
        <time>2022-04-28T13:24:09Z</time>
      </trkpt>
      <trkpt lat="45.27389" lon="5.30116">
        <ele>650.7</ele>
        <time>2022-04-28T13:24:10Z</time>
      </trkpt>
      <trkpt lat="45.27389" lon="5.30111">
        <ele>650.8</ele>
        <time>2022-04-28T13:24:11Z</time>
      </trkpt>
      <trkpt lat="45.27389" lon="5.30106">
        <ele>650.9</ele>
        <time>2022-04-28T13:24:12Z</time>
      </trkpt>
      <trkpt lat="45.2739" lon="5.301">
        <ele>651</ele>
        <time>2022-04-28T13:24:13Z</time>
      </trkpt>
      <trkpt lat="45.27389" lon="5.30095">
        <ele>651.1</ele>
        <time>2022-04-28T13:24:14Z</time>
      </trkpt>
      <trkpt lat="45.27389" lon="5.3009">
        <ele>651.2</ele>
        <time>2022-04-28T13:24:15Z</time>
      </trkpt>
      <trkpt lat="45.27389" lon="5.30084">
        <ele>651.3</ele>
        <time>2022-04-28T13:24:16Z</time>
      </trkpt>
      <trkpt lat="45.27389" lon="5.30078">
        <ele>651.4</ele>
        <time>2022-04-28T13:24:18Z</time>
      </trkpt>
      <trkpt lat="45.27389" lon="5.30071">
        <ele>651.5</ele>
        <time>2022-04-28T13:24:19Z</time>
      </trkpt>
      <trkpt lat="45.27389" lon="5.30063">
        <ele>651.6</ele>
        <time>2022-04-28T13:24:20Z</time>
      </trkpt>
      <trkpt lat="45.27388" lon="5.30055">
        <ele>651.6</ele>
        <time>2022-04-28T13:24:22Z</time>
      </trkpt>
      <trkpt lat="45.27386" lon="5.30037">
        <ele>651.7</ele>
        <time>2022-04-28T13:24:23Z</time>
      </trkpt>
      <trkpt lat="45.27386" lon="5.3003">
        <ele>651.7</ele>
        <time>2022-04-28T13:24:25Z</time>
      </trkpt>
      <trkpt lat="45.27387" lon="5.30022">
        <ele>651.8</ele>
        <time>2022-04-28T13:24:26Z</time>
      </trkpt>
      <trkpt lat="45.27386" lon="5.30015">
        <ele>651.8</ele>
        <time>2022-04-28T13:24:27Z</time>
      </trkpt>
      <trkpt lat="45.27383" lon="5.30005">
        <ele>651.8</ele>
        <time>2022-04-28T13:24:28Z</time>
      </trkpt>
      <trkpt lat="45.27382" lon="5.29999">
        <ele>651.8</ele>
        <time>2022-04-28T13:24:29Z</time>
      </trkpt>
      <trkpt lat="45.27382" lon="5.29993">
        <ele>651.9</ele>
        <time>2022-04-28T13:24:30Z</time>
      </trkpt>
      <trkpt lat="45.2738" lon="5.29984">
        <ele>651.9</ele>
        <time>2022-04-28T13:24:32Z</time>
      </trkpt>
      <trkpt lat="45.27377" lon="5.29977">
        <ele>651.9</ele>
        <time>2022-04-28T13:24:33Z</time>
      </trkpt>
      <trkpt lat="45.27374" lon="5.29971">
        <ele>651.9</ele>
        <time>2022-04-28T13:24:34Z</time>
      </trkpt>
      <trkpt lat="45.2737" lon="5.29965">
        <ele>652</ele>
        <time>2022-04-28T13:24:36Z</time>
      </trkpt>
      <trkpt lat="45.27365" lon="5.29957">
        <ele>652</ele>
        <time>2022-04-28T13:24:37Z</time>
      </trkpt>
      <trkpt lat="45.27361" lon="5.29951">
        <ele>651.9</ele>
        <time>2022-04-28T13:24:38Z</time>
      </trkpt>
      <trkpt lat="45.27356" lon="5.29942">
        <ele>651.9</ele>
        <time>2022-04-28T13:24:40Z</time>
      </trkpt>
      <trkpt lat="45.27352" lon="5.29936">
        <ele>651.9</ele>
        <time>2022-04-28T13:24:41Z</time>
      </trkpt>
      <trkpt lat="45.27348" lon="5.2993">
        <ele>651.9</ele>
        <time>2022-04-28T13:24:42Z</time>
      </trkpt>
      <trkpt lat="45.27345" lon="5.29925">
        <ele>651.9</ele>
        <time>2022-04-28T13:24:43Z</time>
      </trkpt>
      <trkpt lat="45.27341" lon="5.29919">
        <ele>651.9</ele>
        <time>2022-04-28T13:24:44Z</time>
      </trkpt>
      <trkpt lat="45.27337" lon="5.29913">
        <ele>651.9</ele>
        <time>2022-04-28T13:24:45Z</time>
      </trkpt>
      <trkpt lat="45.27332" lon="5.29906">
        <ele>652</ele>
        <time>2022-04-28T13:24:46Z</time>
      </trkpt>
      <trkpt lat="45.27329" lon="5.299">
        <ele>652</ele>
        <time>2022-04-28T13:24:47Z</time>
      </trkpt>
      <trkpt lat="45.27325" lon="5.29894">
        <ele>652</ele>
        <time>2022-04-28T13:24:48Z</time>
      </trkpt>
      <trkpt lat="45.27324" lon="5.29889">
        <ele>652</ele>
        <time>2022-04-28T13:24:49Z</time>
      </trkpt>
      <trkpt lat="45.2732" lon="5.29884">
        <ele>652.1</ele>
        <time>2022-04-28T13:24:50Z</time>
      </trkpt>
      <trkpt lat="45.27317" lon="5.29878">
        <ele>652.1</ele>
        <time>2022-04-28T13:24:51Z</time>
      </trkpt>
      <trkpt lat="45.27314" lon="5.29873">
        <ele>652.1</ele>
        <time>2022-04-28T13:24:52Z</time>
      </trkpt>
      <trkpt lat="45.27314" lon="5.29869">
        <ele>652.1</ele>
        <time>2022-04-28T13:24:53Z</time>
      </trkpt>
      <trkpt lat="45.27313" lon="5.29863">
        <ele>652.1</ele>
        <time>2022-04-28T13:24:54Z</time>
      </trkpt>
      <trkpt lat="45.27311" lon="5.2986">
        <ele>652.1</ele>
        <time>2022-04-28T13:24:55Z</time>
      </trkpt>
      <trkpt lat="45.27307" lon="5.29852">
        <ele>652</ele>
        <time>2022-04-28T13:24:56Z</time>
      </trkpt>
      <trkpt lat="45.27303" lon="5.29845">
        <ele>652</ele>
        <time>2022-04-28T13:24:57Z</time>
      </trkpt>
      <trkpt lat="45.273" lon="5.29839">
        <ele>652</ele>
        <time>2022-04-28T13:24:58Z</time>
      </trkpt>
      <trkpt lat="45.27296" lon="5.29834">
        <ele>652</ele>
        <time>2022-04-28T13:24:59Z</time>
      </trkpt>
      <trkpt lat="45.27292" lon="5.29827">
        <ele>652.1</ele>
        <time>2022-04-28T13:25:00Z</time>
      </trkpt>
      <trkpt lat="45.27288" lon="5.29819">
        <ele>652.1</ele>
        <time>2022-04-28T13:25:01Z</time>
      </trkpt>
      <trkpt lat="45.27285" lon="5.29813">
        <ele>652.1</ele>
        <time>2022-04-28T13:25:02Z</time>
      </trkpt>
      <trkpt lat="45.27281" lon="5.29813">
        <ele>652.1</ele>
        <time>2022-04-28T13:25:04Z</time>
      </trkpt>
      <trkpt lat="45.27277" lon="5.29809">
        <ele>652.1</ele>
        <time>2022-04-28T13:25:05Z</time>
      </trkpt>
      <trkpt lat="45.27273" lon="5.29791">
        <ele>652</ele>
        <time>2022-04-28T13:25:06Z</time>
      </trkpt>
      <trkpt lat="45.27269" lon="5.29783">
        <ele>651.8</ele>
        <time>2022-04-28T13:25:07Z</time>
      </trkpt>
      <trkpt lat="45.27266" lon="5.29777">
        <ele>651.7</ele>
        <time>2022-04-28T13:25:08Z</time>
      </trkpt>
      <trkpt lat="45.27263" lon="5.29769">
        <ele>651.6</ele>
        <time>2022-04-28T13:25:09Z</time>
      </trkpt>
      <trkpt lat="45.2726" lon="5.29762">
        <ele>651.5</ele>
        <time>2022-04-28T13:25:10Z</time>
      </trkpt>
      <trkpt lat="45.27256" lon="5.29754">
        <ele>651.3</ele>
        <time>2022-04-28T13:25:11Z</time>
      </trkpt>
      <trkpt lat="45.27252" lon="5.29745">
        <ele>651</ele>
        <time>2022-04-28T13:25:12Z</time>
      </trkpt>
      <trkpt lat="45.27248" lon="5.29738">
        <ele>650.8</ele>
        <time>2022-04-28T13:25:13Z</time>
      </trkpt>
      <trkpt lat="45.27244" lon="5.2973">
        <ele>650.7</ele>
        <time>2022-04-28T13:25:14Z</time>
      </trkpt>
      <trkpt lat="45.27241" lon="5.29723">
        <ele>650.5</ele>
        <time>2022-04-28T13:25:15Z</time>
      </trkpt>
      <trkpt lat="45.27236" lon="5.29715">
        <ele>650.3</ele>
        <time>2022-04-28T13:25:16Z</time>
      </trkpt>
      <trkpt lat="45.27232" lon="5.29708">
        <ele>650.1</ele>
        <time>2022-04-28T13:25:17Z</time>
      </trkpt>
      <trkpt lat="45.27229" lon="5.29701">
        <ele>650</ele>
        <time>2022-04-28T13:25:18Z</time>
      </trkpt>
      <trkpt lat="45.27225" lon="5.29694">
        <ele>649.8</ele>
        <time>2022-04-28T13:25:19Z</time>
      </trkpt>
      <trkpt lat="45.27219" lon="5.29684">
        <ele>649.6</ele>
        <time>2022-04-28T13:25:20Z</time>
      </trkpt>
      <trkpt lat="45.27213" lon="5.29675">
        <ele>649.3</ele>
        <time>2022-04-28T13:25:21Z</time>
      </trkpt>
      <trkpt lat="45.27208" lon="5.29666">
        <ele>649.1</ele>
        <time>2022-04-28T13:25:22Z</time>
      </trkpt>
      <trkpt lat="45.27201" lon="5.29657">
        <ele>648.8</ele>
        <time>2022-04-28T13:25:23Z</time>
      </trkpt>
      <trkpt lat="45.27195" lon="5.29647">
        <ele>648.6</ele>
        <time>2022-04-28T13:25:24Z</time>
      </trkpt>
      <trkpt lat="45.2719" lon="5.29638">
        <ele>648.3</ele>
        <time>2022-04-28T13:25:25Z</time>
      </trkpt>
      <trkpt lat="45.27186" lon="5.29631">
        <ele>648.2</ele>
        <time>2022-04-28T13:25:26Z</time>
      </trkpt>
      <trkpt lat="45.27181" lon="5.29623">
        <ele>648</ele>
        <time>2022-04-28T13:25:27Z</time>
      </trkpt>
      <trkpt lat="45.27176" lon="5.29614">
        <ele>647.7</ele>
        <time>2022-04-28T13:25:28Z</time>
      </trkpt>
      <trkpt lat="45.27172" lon="5.29607">
        <ele>647.5</ele>
        <time>2022-04-28T13:25:29Z</time>
      </trkpt>
      <trkpt lat="45.27167" lon="5.29598">
        <ele>647.2</ele>
        <time>2022-04-28T13:25:30Z</time>
      </trkpt>
      <trkpt lat="45.27161" lon="5.2959">
        <ele>647</ele>
        <time>2022-04-28T13:25:31Z</time>
      </trkpt>
      <trkpt lat="45.27155" lon="5.2958">
        <ele>646.8</ele>
        <time>2022-04-28T13:25:32Z</time>
      </trkpt>
      <trkpt lat="45.2715" lon="5.29572">
        <ele>646.6</ele>
        <time>2022-04-28T13:25:33Z</time>
      </trkpt>
      <trkpt lat="45.27146" lon="5.29564">
        <ele>646.4</ele>
        <time>2022-04-28T13:25:34Z</time>
      </trkpt>
      <trkpt lat="45.27142" lon="5.29556">
        <ele>646.3</ele>
        <time>2022-04-28T13:25:35Z</time>
      </trkpt>
      <trkpt lat="45.27137" lon="5.29548">
        <ele>646.1</ele>
        <time>2022-04-28T13:25:36Z</time>
      </trkpt>
      <trkpt lat="45.27132" lon="5.29539">
        <ele>645.9</ele>
        <time>2022-04-28T13:25:37Z</time>
      </trkpt>
      <trkpt lat="45.27129" lon="5.29533">
        <ele>645.8</ele>
        <time>2022-04-28T13:25:38Z</time>
      </trkpt>
      <trkpt lat="45.27124" lon="5.29524">
        <ele>645.6</ele>
        <time>2022-04-28T13:25:39Z</time>
      </trkpt>
      <trkpt lat="45.27119" lon="5.29515">
        <ele>645.4</ele>
        <time>2022-04-28T13:25:40Z</time>
      </trkpt>
      <trkpt lat="45.27113" lon="5.29506">
        <ele>645.2</ele>
        <time>2022-04-28T13:25:41Z</time>
      </trkpt>
      <trkpt lat="45.27108" lon="5.29496">
        <ele>645</ele>
        <time>2022-04-28T13:25:42Z</time>
      </trkpt>
      <trkpt lat="45.27102" lon="5.29487">
        <ele>644.8</ele>
        <time>2022-04-28T13:25:43Z</time>
      </trkpt>
      <trkpt lat="45.27097" lon="5.29477">
        <ele>644.6</ele>
        <time>2022-04-28T13:25:44Z</time>
      </trkpt>
      <trkpt lat="45.27092" lon="5.29467">
        <ele>644.4</ele>
        <time>2022-04-28T13:25:45Z</time>
      </trkpt>
      <trkpt lat="45.27086" lon="5.29457">
        <ele>644.2</ele>
        <time>2022-04-28T13:25:46Z</time>
      </trkpt>
      <trkpt lat="45.27082" lon="5.29448">
        <ele>644</ele>
        <time>2022-04-28T13:25:47Z</time>
      </trkpt>
      <trkpt lat="45.27078" lon="5.2944">
        <ele>643.8</ele>
        <time>2022-04-28T13:25:48Z</time>
      </trkpt>
      <trkpt lat="45.27073" lon="5.29431">
        <ele>643.6</ele>
        <time>2022-04-28T13:25:49Z</time>
      </trkpt>
      <trkpt lat="45.27068" lon="5.29421">
        <ele>643.4</ele>
        <time>2022-04-28T13:25:50Z</time>
      </trkpt>
      <trkpt lat="45.27064" lon="5.29412">
        <ele>643.2</ele>
        <time>2022-04-28T13:25:51Z</time>
      </trkpt>
      <trkpt lat="45.27059" lon="5.29403">
        <ele>643</ele>
        <time>2022-04-28T13:25:52Z</time>
      </trkpt>
      <trkpt lat="45.27055" lon="5.29395">
        <ele>642.8</ele>
        <time>2022-04-28T13:25:53Z</time>
      </trkpt>
      <trkpt lat="45.2705" lon="5.29387">
        <ele>642.6</ele>
        <time>2022-04-28T13:25:54Z</time>
      </trkpt>
      <trkpt lat="45.27045" lon="5.29377">
        <ele>642.4</ele>
        <time>2022-04-28T13:25:55Z</time>
      </trkpt>
      <trkpt lat="45.27039" lon="5.29368">
        <ele>642.2</ele>
        <time>2022-04-28T13:25:56Z</time>
      </trkpt>
      <trkpt lat="45.27034" lon="5.29358">
        <ele>641.9</ele>
        <time>2022-04-28T13:25:57Z</time>
      </trkpt>
      <trkpt lat="45.27029" lon="5.29349">
        <ele>641.6</ele>
        <time>2022-04-28T13:25:58Z</time>
      </trkpt>
      <trkpt lat="45.27024" lon="5.29339">
        <ele>641.3</ele>
        <time>2022-04-28T13:25:59Z</time>
      </trkpt>
      <trkpt lat="45.27019" lon="5.29328">
        <ele>641</ele>
        <time>2022-04-28T13:26:00Z</time>
      </trkpt>
      <trkpt lat="45.27014" lon="5.29316">
        <ele>640.5</ele>
        <time>2022-04-28T13:26:01Z</time>
      </trkpt>
      <trkpt lat="45.27008" lon="5.29305">
        <ele>640.2</ele>
        <time>2022-04-28T13:26:02Z</time>
      </trkpt>
      <trkpt lat="45.27002" lon="5.29294">
        <ele>639.9</ele>
        <time>2022-04-28T13:26:03Z</time>
      </trkpt>
      <trkpt lat="45.26995" lon="5.29283">
        <ele>639.5</ele>
        <time>2022-04-28T13:26:04Z</time>
      </trkpt>
      <trkpt lat="45.2699" lon="5.29272">
        <ele>639.2</ele>
        <time>2022-04-28T13:26:05Z</time>
      </trkpt>
      <trkpt lat="45.26984" lon="5.29263">
        <ele>638.9</ele>
        <time>2022-04-28T13:26:06Z</time>
      </trkpt>
      <trkpt lat="45.26979" lon="5.29253">
        <ele>638.6</ele>
        <time>2022-04-28T13:26:07Z</time>
      </trkpt>
      <trkpt lat="45.26974" lon="5.29244">
        <ele>638.4</ele>
        <time>2022-04-28T13:26:08Z</time>
      </trkpt>
      <trkpt lat="45.26969" lon="5.29233">
        <ele>638.2</ele>
        <time>2022-04-28T13:26:09Z</time>
      </trkpt>
      <trkpt lat="45.26964" lon="5.29223">
        <ele>638.1</ele>
        <time>2022-04-28T13:26:10Z</time>
      </trkpt>
      <trkpt lat="45.2696" lon="5.29213">
        <ele>637.9</ele>
        <time>2022-04-28T13:26:11Z</time>
      </trkpt>
      <trkpt lat="45.26956" lon="5.29203">
        <ele>637.8</ele>
        <time>2022-04-28T13:26:12Z</time>
      </trkpt>
      <trkpt lat="45.26951" lon="5.29192">
        <ele>637.6</ele>
        <time>2022-04-28T13:26:13Z</time>
      </trkpt>
      <trkpt lat="45.26947" lon="5.29182">
        <ele>637.5</ele>
        <time>2022-04-28T13:26:14Z</time>
      </trkpt>
      <trkpt lat="45.26943" lon="5.29171">
        <ele>637.4</ele>
        <time>2022-04-28T13:26:15Z</time>
      </trkpt>
      <trkpt lat="45.26939" lon="5.29161">
        <ele>637.3</ele>
        <time>2022-04-28T13:26:16Z</time>
      </trkpt>
      <trkpt lat="45.26935" lon="5.2915">
        <ele>637.2</ele>
        <time>2022-04-28T13:26:17Z</time>
      </trkpt>
      <trkpt lat="45.26931" lon="5.2914">
        <ele>637.1</ele>
        <time>2022-04-28T13:26:18Z</time>
      </trkpt>
      <trkpt lat="45.26927" lon="5.2913">
        <ele>636.9</ele>
        <time>2022-04-28T13:26:19Z</time>
      </trkpt>
      <trkpt lat="45.26923" lon="5.2912">
        <ele>636.8</ele>
        <time>2022-04-28T13:26:20Z</time>
      </trkpt>
      <trkpt lat="45.26919" lon="5.2911">
        <ele>636.7</ele>
        <time>2022-04-28T13:26:21Z</time>
      </trkpt>
      <trkpt lat="45.26915" lon="5.29101">
        <ele>636.6</ele>
        <time>2022-04-28T13:26:22Z</time>
      </trkpt>
      <trkpt lat="45.26911" lon="5.29091">
        <ele>636.5</ele>
        <time>2022-04-28T13:26:23Z</time>
      </trkpt>
      <trkpt lat="45.26907" lon="5.29081">
        <ele>636.4</ele>
        <time>2022-04-28T13:26:24Z</time>
      </trkpt>
      <trkpt lat="45.26903" lon="5.29071">
        <ele>636.2</ele>
        <time>2022-04-28T13:26:25Z</time>
      </trkpt>
      <trkpt lat="45.269" lon="5.29061">
        <ele>636.1</ele>
        <time>2022-04-28T13:26:26Z</time>
      </trkpt>
      <trkpt lat="45.26897" lon="5.29052">
        <ele>636</ele>
        <time>2022-04-28T13:26:27Z</time>
      </trkpt>
      <trkpt lat="45.26894" lon="5.29042">
        <ele>635.8</ele>
        <time>2022-04-28T13:26:28Z</time>
      </trkpt>
      <trkpt lat="45.2689" lon="5.29033">
        <ele>635.7</ele>
        <time>2022-04-28T13:26:29Z</time>
      </trkpt>
      <trkpt lat="45.26887" lon="5.29023">
        <ele>635.6</ele>
        <time>2022-04-28T13:26:30Z</time>
      </trkpt>
      <trkpt lat="45.26884" lon="5.29013">
        <ele>635.5</ele>
        <time>2022-04-28T13:26:31Z</time>
      </trkpt>
      <trkpt lat="45.26881" lon="5.29003">
        <ele>635.5</ele>
        <time>2022-04-28T13:26:32Z</time>
      </trkpt>
      <trkpt lat="45.26878" lon="5.28993">
        <ele>635.5</ele>
        <time>2022-04-28T13:26:33Z</time>
      </trkpt>
      <trkpt lat="45.26875" lon="5.28984">
        <ele>635.4</ele>
        <time>2022-04-28T13:26:34Z</time>
      </trkpt>
      <trkpt lat="45.26873" lon="5.28973">
        <ele>635.4</ele>
        <time>2022-04-28T13:26:35Z</time>
      </trkpt>
      <trkpt lat="45.26871" lon="5.28963">
        <ele>635.4</ele>
        <time>2022-04-28T13:26:36Z</time>
      </trkpt>
      <trkpt lat="45.26871" lon="5.28952">
        <ele>635.3</ele>
        <time>2022-04-28T13:26:37Z</time>
      </trkpt>
      <trkpt lat="45.2687" lon="5.28941">
        <ele>635.3</ele>
        <time>2022-04-28T13:26:38Z</time>
      </trkpt>
      <trkpt lat="45.2687" lon="5.28931">
        <ele>635.3</ele>
        <time>2022-04-28T13:26:39Z</time>
      </trkpt>
      <trkpt lat="45.2687" lon="5.2892">
        <ele>635.3</ele>
        <time>2022-04-28T13:26:40Z</time>
      </trkpt>
      <trkpt lat="45.2687" lon="5.2891">
        <ele>635.3</ele>
        <time>2022-04-28T13:26:41Z</time>
      </trkpt>
      <trkpt lat="45.26871" lon="5.289">
        <ele>635.3</ele>
        <time>2022-04-28T13:26:42Z</time>
      </trkpt>
      <trkpt lat="45.26872" lon="5.2889">
        <ele>635.3</ele>
        <time>2022-04-28T13:26:43Z</time>
      </trkpt>
      <trkpt lat="45.26872" lon="5.28881">
        <ele>635.3</ele>
        <time>2022-04-28T13:26:44Z</time>
      </trkpt>
      <trkpt lat="45.26872" lon="5.28873">
        <ele>635.3</ele>
        <time>2022-04-28T13:26:45Z</time>
      </trkpt>
      <trkpt lat="45.26872" lon="5.28864">
        <ele>635.2</ele>
        <time>2022-04-28T13:26:46Z</time>
      </trkpt>
      <trkpt lat="45.26873" lon="5.28856">
        <ele>635.2</ele>
        <time>2022-04-28T13:26:47Z</time>
      </trkpt>
      <trkpt lat="45.26874" lon="5.28846">
        <ele>635.1</ele>
        <time>2022-04-28T13:26:48Z</time>
      </trkpt>
      <trkpt lat="45.26874" lon="5.28835">
        <ele>635</ele>
        <time>2022-04-28T13:26:49Z</time>
      </trkpt>
      <trkpt lat="45.26874" lon="5.28825">
        <ele>634.9</ele>
        <time>2022-04-28T13:26:50Z</time>
      </trkpt>
      <trkpt lat="45.26874" lon="5.28816">
        <ele>634.9</ele>
        <time>2022-04-28T13:26:51Z</time>
      </trkpt>
      <trkpt lat="45.26875" lon="5.28807">
        <ele>634.8</ele>
        <time>2022-04-28T13:26:52Z</time>
      </trkpt>
      <trkpt lat="45.26876" lon="5.28798">
        <ele>634.7</ele>
        <time>2022-04-28T13:26:53Z</time>
      </trkpt>
      <trkpt lat="45.26877" lon="5.28788">
        <ele>634.6</ele>
        <time>2022-04-28T13:26:54Z</time>
      </trkpt>
      <trkpt lat="45.26877" lon="5.28777">
        <ele>634.5</ele>
        <time>2022-04-28T13:26:55Z</time>
      </trkpt>
      <trkpt lat="45.26878" lon="5.28767">
        <ele>634.5</ele>
        <time>2022-04-28T13:26:56Z</time>
      </trkpt>
      <trkpt lat="45.26878" lon="5.28757">
        <ele>634.4</ele>
        <time>2022-04-28T13:26:57Z</time>
      </trkpt>
      <trkpt lat="45.26878" lon="5.28746">
        <ele>634.3</ele>
        <time>2022-04-28T13:26:58Z</time>
      </trkpt>
      <trkpt lat="45.26878" lon="5.28736">
        <ele>634.3</ele>
        <time>2022-04-28T13:26:59Z</time>
      </trkpt>
      <trkpt lat="45.26878" lon="5.28726">
        <ele>634.2</ele>
        <time>2022-04-28T13:27:00Z</time>
      </trkpt>
      <trkpt lat="45.26878" lon="5.28715">
        <ele>634.2</ele>
        <time>2022-04-28T13:27:01Z</time>
      </trkpt>
      <trkpt lat="45.26877" lon="5.28705">
        <ele>634.1</ele>
        <time>2022-04-28T13:27:02Z</time>
      </trkpt>
      <trkpt lat="45.26877" lon="5.28695">
        <ele>634.1</ele>
        <time>2022-04-28T13:27:03Z</time>
      </trkpt>
      <trkpt lat="45.26877" lon="5.28686">
        <ele>634.1</ele>
        <time>2022-04-28T13:27:04Z</time>
      </trkpt>
      <trkpt lat="45.26877" lon="5.28676">
        <ele>634.1</ele>
        <time>2022-04-28T13:27:05Z</time>
      </trkpt>
      <trkpt lat="45.26876" lon="5.28667">
        <ele>634.1</ele>
        <time>2022-04-28T13:27:06Z</time>
      </trkpt>
      <trkpt lat="45.26876" lon="5.28657">
        <ele>634.1</ele>
        <time>2022-04-28T13:27:07Z</time>
      </trkpt>
      <trkpt lat="45.26875" lon="5.28648">
        <ele>634.1</ele>
        <time>2022-04-28T13:27:08Z</time>
      </trkpt>
      <trkpt lat="45.26875" lon="5.28639">
        <ele>634.1</ele>
        <time>2022-04-28T13:27:09Z</time>
      </trkpt>
      <trkpt lat="45.26874" lon="5.28629">
        <ele>634</ele>
        <time>2022-04-28T13:27:10Z</time>
      </trkpt>
      <trkpt lat="45.26873" lon="5.2862">
        <ele>634</ele>
        <time>2022-04-28T13:27:11Z</time>
      </trkpt>
      <trkpt lat="45.26872" lon="5.28611">
        <ele>633.9</ele>
        <time>2022-04-28T13:27:12Z</time>
      </trkpt>
      <trkpt lat="45.2687" lon="5.28601">
        <ele>633.9</ele>
        <time>2022-04-28T13:27:13Z</time>
      </trkpt>
      <trkpt lat="45.26867" lon="5.28591">
        <ele>633.8</ele>
        <time>2022-04-28T13:27:14Z</time>
      </trkpt>
      <trkpt lat="45.26865" lon="5.28582">
        <ele>633.8</ele>
        <time>2022-04-28T13:27:15Z</time>
      </trkpt>
      <trkpt lat="45.26862" lon="5.28572">
        <ele>633.7</ele>
        <time>2022-04-28T13:27:16Z</time>
      </trkpt>
      <trkpt lat="45.26859" lon="5.28563">
        <ele>633.7</ele>
        <time>2022-04-28T13:27:17Z</time>
      </trkpt>
      <trkpt lat="45.26855" lon="5.28554">
        <ele>633.7</ele>
        <time>2022-04-28T13:27:18Z</time>
      </trkpt>
      <trkpt lat="45.26852" lon="5.28545">
        <ele>633.6</ele>
        <time>2022-04-28T13:27:19Z</time>
      </trkpt>
      <trkpt lat="45.26849" lon="5.28536">
        <ele>633.6</ele>
        <time>2022-04-28T13:27:20Z</time>
      </trkpt>
      <trkpt lat="45.26847" lon="5.28526">
        <ele>633.5</ele>
        <time>2022-04-28T13:27:21Z</time>
      </trkpt>
      <trkpt lat="45.26844" lon="5.28518">
        <ele>633.5</ele>
        <time>2022-04-28T13:27:22Z</time>
      </trkpt>
      <trkpt lat="45.2684" lon="5.2851">
        <ele>633.5</ele>
        <time>2022-04-28T13:27:23Z</time>
      </trkpt>
      <trkpt lat="45.26836" lon="5.28502">
        <ele>633.5</ele>
        <time>2022-04-28T13:27:24Z</time>
      </trkpt>
      <trkpt lat="45.26833" lon="5.28493">
        <ele>633.5</ele>
        <time>2022-04-28T13:27:25Z</time>
      </trkpt>
      <trkpt lat="45.2683" lon="5.28485">
        <ele>633.5</ele>
        <time>2022-04-28T13:27:26Z</time>
      </trkpt>
      <trkpt lat="45.26826" lon="5.28478">
        <ele>633.6</ele>
        <time>2022-04-28T13:27:27Z</time>
      </trkpt>
      <trkpt lat="45.26821" lon="5.28472">
        <ele>633.7</ele>
        <time>2022-04-28T13:27:28Z</time>
      </trkpt>
      <trkpt lat="45.26816" lon="5.28466">
        <ele>633.8</ele>
        <time>2022-04-28T13:27:29Z</time>
      </trkpt>
      <trkpt lat="45.2681" lon="5.28461">
        <ele>633.9</ele>
        <time>2022-04-28T13:27:30Z</time>
      </trkpt>
      <trkpt lat="45.26805" lon="5.28457">
        <ele>633.9</ele>
        <time>2022-04-28T13:27:31Z</time>
      </trkpt>
      <trkpt lat="45.268" lon="5.28454">
        <ele>634</ele>
        <time>2022-04-28T13:27:32Z</time>
      </trkpt>
      <trkpt lat="45.26794" lon="5.28451">
        <ele>634.1</ele>
        <time>2022-04-28T13:27:33Z</time>
      </trkpt>
      <trkpt lat="45.26789" lon="5.28449">
        <ele>634.2</ele>
        <time>2022-04-28T13:27:34Z</time>
      </trkpt>
      <trkpt lat="45.26784" lon="5.28447">
        <ele>634.3</ele>
        <time>2022-04-28T13:27:35Z</time>
      </trkpt>
      <trkpt lat="45.26779" lon="5.28444">
        <ele>634.4</ele>
        <time>2022-04-28T13:27:36Z</time>
      </trkpt>
      <trkpt lat="45.26773" lon="5.28442">
        <ele>634.5</ele>
        <time>2022-04-28T13:27:37Z</time>
      </trkpt>
      <trkpt lat="45.26768" lon="5.2844">
        <ele>634.6</ele>
        <time>2022-04-28T13:27:38Z</time>
      </trkpt>
      <trkpt lat="45.26762" lon="5.28438">
        <ele>634.7</ele>
        <time>2022-04-28T13:27:39Z</time>
      </trkpt>
      <trkpt lat="45.26756" lon="5.28436">
        <ele>634.8</ele>
        <time>2022-04-28T13:27:40Z</time>
      </trkpt>
      <trkpt lat="45.26751" lon="5.28435">
        <ele>634.9</ele>
        <time>2022-04-28T13:27:41Z</time>
      </trkpt>
      <trkpt lat="45.26745" lon="5.28433">
        <ele>635</ele>
        <time>2022-04-28T13:27:42Z</time>
      </trkpt>
      <trkpt lat="45.26739" lon="5.28431">
        <ele>635</ele>
        <time>2022-04-28T13:27:43Z</time>
      </trkpt>
      <trkpt lat="45.26733" lon="5.2843">
        <ele>635.1</ele>
        <time>2022-04-28T13:27:44Z</time>
      </trkpt>
      <trkpt lat="45.26727" lon="5.28427">
        <ele>635.2</ele>
        <time>2022-04-28T13:27:45Z</time>
      </trkpt>
      <trkpt lat="45.26722" lon="5.28425">
        <ele>635.3</ele>
        <time>2022-04-28T13:27:46Z</time>
      </trkpt>
      <trkpt lat="45.26716" lon="5.28423">
        <ele>635.4</ele>
        <time>2022-04-28T13:27:47Z</time>
      </trkpt>
      <trkpt lat="45.2671" lon="5.28422">
        <ele>635.5</ele>
        <time>2022-04-28T13:27:48Z</time>
      </trkpt>
      <trkpt lat="45.26705" lon="5.2842">
        <ele>635.6</ele>
        <time>2022-04-28T13:27:49Z</time>
      </trkpt>
      <trkpt lat="45.26699" lon="5.28419">
        <ele>635.7</ele>
        <time>2022-04-28T13:27:50Z</time>
      </trkpt>
      <trkpt lat="45.26694" lon="5.28417">
        <ele>635.8</ele>
        <time>2022-04-28T13:27:51Z</time>
      </trkpt>
      <trkpt lat="45.26688" lon="5.28415">
        <ele>635.9</ele>
        <time>2022-04-28T13:27:52Z</time>
      </trkpt>
      <trkpt lat="45.26683" lon="5.28413">
        <ele>636</ele>
        <time>2022-04-28T13:27:53Z</time>
      </trkpt>
      <trkpt lat="45.26677" lon="5.28411">
        <ele>636.1</ele>
        <time>2022-04-28T13:27:54Z</time>
      </trkpt>
      <trkpt lat="45.26671" lon="5.2841">
        <ele>636.2</ele>
        <time>2022-04-28T13:27:55Z</time>
      </trkpt>
      <trkpt lat="45.26666" lon="5.28408">
        <ele>636.3</ele>
        <time>2022-04-28T13:27:56Z</time>
      </trkpt>
      <trkpt lat="45.2666" lon="5.28407">
        <ele>636.3</ele>
        <time>2022-04-28T13:27:57Z</time>
      </trkpt>
      <trkpt lat="45.26655" lon="5.28405">
        <ele>636.3</ele>
        <time>2022-04-28T13:27:58Z</time>
      </trkpt>
      <trkpt lat="45.26649" lon="5.28403">
        <ele>636.3</ele>
        <time>2022-04-28T13:27:59Z</time>
      </trkpt>
      <trkpt lat="45.26644" lon="5.28401">
        <ele>636.3</ele>
        <time>2022-04-28T13:28:00Z</time>
      </trkpt>
      <trkpt lat="45.26638" lon="5.28399">
        <ele>636.2</ele>
        <time>2022-04-28T13:28:01Z</time>
      </trkpt>
      <trkpt lat="45.26633" lon="5.28397">
        <ele>636.1</ele>
        <time>2022-04-28T13:28:02Z</time>
      </trkpt>
      <trkpt lat="45.26627" lon="5.28395">
        <ele>636</ele>
        <time>2022-04-28T13:28:03Z</time>
      </trkpt>
      <trkpt lat="45.26622" lon="5.28394">
        <ele>635.9</ele>
        <time>2022-04-28T13:28:04Z</time>
      </trkpt>
      <trkpt lat="45.26616" lon="5.28392">
        <ele>635.8</ele>
        <time>2022-04-28T13:28:05Z</time>
      </trkpt>
      <trkpt lat="45.2661" lon="5.28391">
        <ele>635.6</ele>
        <time>2022-04-28T13:28:06Z</time>
      </trkpt>
      <trkpt lat="45.26604" lon="5.28389">
        <ele>635.4</ele>
        <time>2022-04-28T13:28:07Z</time>
      </trkpt>
      <trkpt lat="45.26599" lon="5.28386">
        <ele>635.2</ele>
        <time>2022-04-28T13:28:08Z</time>
      </trkpt>
      <trkpt lat="45.26592" lon="5.28384">
        <ele>634.9</ele>
        <time>2022-04-28T13:28:09Z</time>
      </trkpt>
      <trkpt lat="45.26586" lon="5.28382">
        <ele>634.6</ele>
        <time>2022-04-28T13:28:10Z</time>
      </trkpt>
      <trkpt lat="45.26579" lon="5.28379">
        <ele>634.3</ele>
        <time>2022-04-28T13:28:11Z</time>
      </trkpt>
      <trkpt lat="45.26574" lon="5.28378">
        <ele>634.1</ele>
        <time>2022-04-28T13:28:12Z</time>
      </trkpt>
      <trkpt lat="45.26567" lon="5.28376">
        <ele>633.7</ele>
        <time>2022-04-28T13:28:13Z</time>
      </trkpt>
      <trkpt lat="45.2656" lon="5.28374">
        <ele>633.4</ele>
        <time>2022-04-28T13:28:14Z</time>
      </trkpt>
      <trkpt lat="45.26553" lon="5.28372">
        <ele>633</ele>
        <time>2022-04-28T13:28:15Z</time>
      </trkpt>
      <trkpt lat="45.26546" lon="5.28368">
        <ele>632.8</ele>
        <time>2022-04-28T13:28:16Z</time>
      </trkpt>
      <trkpt lat="45.26539" lon="5.28363">
        <ele>632.5</ele>
        <time>2022-04-28T13:28:17Z</time>
      </trkpt>
      <trkpt lat="45.26533" lon="5.28356">
        <ele>632.2</ele>
        <time>2022-04-28T13:28:18Z</time>
      </trkpt>
      <trkpt lat="45.26526" lon="5.2835">
        <ele>631.9</ele>
        <time>2022-04-28T13:28:19Z</time>
      </trkpt>
      <trkpt lat="45.26521" lon="5.28342">
        <ele>631.5</ele>
        <time>2022-04-28T13:28:20Z</time>
      </trkpt>
      <trkpt lat="45.26514" lon="5.28334">
        <ele>631</ele>
        <time>2022-04-28T13:28:21Z</time>
      </trkpt>
      <trkpt lat="45.26508" lon="5.28325">
        <ele>630.6</ele>
        <time>2022-04-28T13:28:22Z</time>
      </trkpt>
      <trkpt lat="45.26502" lon="5.28315">
        <ele>630.1</ele>
        <time>2022-04-28T13:28:23Z</time>
      </trkpt>
      <trkpt lat="45.26496" lon="5.28305">
        <ele>629.7</ele>
        <time>2022-04-28T13:28:24Z</time>
      </trkpt>
      <trkpt lat="45.2649" lon="5.28295">
        <ele>629.3</ele>
        <time>2022-04-28T13:28:25Z</time>
      </trkpt>
      <trkpt lat="45.26484" lon="5.28285">
        <ele>628.9</ele>
        <time>2022-04-28T13:28:26Z</time>
      </trkpt>
      <trkpt lat="45.26478" lon="5.28274">
        <ele>628.5</ele>
        <time>2022-04-28T13:28:27Z</time>
      </trkpt>
      <trkpt lat="45.26472" lon="5.28265">
        <ele>628.1</ele>
        <time>2022-04-28T13:28:28Z</time>
      </trkpt>
      <trkpt lat="45.26467" lon="5.28258">
        <ele>627.7</ele>
        <time>2022-04-28T13:28:29Z</time>
      </trkpt>
      <trkpt lat="45.26462" lon="5.28249">
        <ele>627.3</ele>
        <time>2022-04-28T13:28:30Z</time>
      </trkpt>
      <trkpt lat="45.26456" lon="5.28239">
        <ele>626.9</ele>
        <time>2022-04-28T13:28:31Z</time>
      </trkpt>
      <trkpt lat="45.2645" lon="5.28229">
        <ele>626.5</ele>
        <time>2022-04-28T13:28:32Z</time>
      </trkpt>
      <trkpt lat="45.26444" lon="5.28219">
        <ele>626</ele>
        <time>2022-04-28T13:28:33Z</time>
      </trkpt>
      <trkpt lat="45.26438" lon="5.28209">
        <ele>625.6</ele>
        <time>2022-04-28T13:28:34Z</time>
      </trkpt>
      <trkpt lat="45.26432" lon="5.28198">
        <ele>625.1</ele>
        <time>2022-04-28T13:28:35Z</time>
      </trkpt>
      <trkpt lat="45.26426" lon="5.28188">
        <ele>624.6</ele>
        <time>2022-04-28T13:28:36Z</time>
      </trkpt>
      <trkpt lat="45.2642" lon="5.28176">
        <ele>624.2</ele>
        <time>2022-04-28T13:28:37Z</time>
      </trkpt>
      <trkpt lat="45.26414" lon="5.28165">
        <ele>623.7</ele>
        <time>2022-04-28T13:28:38Z</time>
      </trkpt>
      <trkpt lat="45.26408" lon="5.28155">
        <ele>623.3</ele>
        <time>2022-04-28T13:28:39Z</time>
      </trkpt>
      <trkpt lat="45.26402" lon="5.28145">
        <ele>622.9</ele>
        <time>2022-04-28T13:28:40Z</time>
      </trkpt>
      <trkpt lat="45.26395" lon="5.28134">
        <ele>622.5</ele>
        <time>2022-04-28T13:28:41Z</time>
      </trkpt>
      <trkpt lat="45.26386" lon="5.28124">
        <ele>621.9</ele>
        <time>2022-04-28T13:28:42Z</time>
      </trkpt>
      <trkpt lat="45.26379" lon="5.28115">
        <ele>621.4</ele>
        <time>2022-04-28T13:28:43Z</time>
      </trkpt>
      <trkpt lat="45.26372" lon="5.28106">
        <ele>621</ele>
        <time>2022-04-28T13:28:44Z</time>
      </trkpt>
      <trkpt lat="45.26365" lon="5.28096">
        <ele>620.4</ele>
        <time>2022-04-28T13:28:45Z</time>
      </trkpt>
      <trkpt lat="45.26357" lon="5.28087">
        <ele>619.9</ele>
        <time>2022-04-28T13:28:46Z</time>
      </trkpt>
      <trkpt lat="45.2635" lon="5.28079">
        <ele>619.5</ele>
        <time>2022-04-28T13:28:47Z</time>
      </trkpt>
      <trkpt lat="45.26343" lon="5.28071">
        <ele>619</ele>
        <time>2022-04-28T13:28:48Z</time>
      </trkpt>
      <trkpt lat="45.26336" lon="5.28064">
        <ele>618.7</ele>
        <time>2022-04-28T13:28:49Z</time>
      </trkpt>
      <trkpt lat="45.26327" lon="5.28058">
        <ele>618.3</ele>
        <time>2022-04-28T13:28:50Z</time>
      </trkpt>
      <trkpt lat="45.26319" lon="5.28053">
        <ele>617.9</ele>
        <time>2022-04-28T13:28:51Z</time>
      </trkpt>
      <trkpt lat="45.26309" lon="5.28049">
        <ele>617.5</ele>
        <time>2022-04-28T13:28:52Z</time>
      </trkpt>
      <trkpt lat="45.263" lon="5.28044">
        <ele>617.1</ele>
        <time>2022-04-28T13:28:53Z</time>
      </trkpt>
      <trkpt lat="45.26292" lon="5.2804">
        <ele>616.8</ele>
        <time>2022-04-28T13:28:54Z</time>
      </trkpt>
      <trkpt lat="45.26283" lon="5.28033">
        <ele>616.5</ele>
        <time>2022-04-28T13:28:55Z</time>
      </trkpt>
      <trkpt lat="45.26275" lon="5.28027">
        <ele>616.1</ele>
        <time>2022-04-28T13:28:56Z</time>
      </trkpt>
      <trkpt lat="45.26267" lon="5.28019">
        <ele>615.7</ele>
        <time>2022-04-28T13:28:57Z</time>
      </trkpt>
      <trkpt lat="45.26259" lon="5.28012">
        <ele>615.3</ele>
        <time>2022-04-28T13:28:58Z</time>
      </trkpt>
      <trkpt lat="45.26251" lon="5.28004">
        <ele>614.8</ele>
        <time>2022-04-28T13:28:59Z</time>
      </trkpt>
      <trkpt lat="45.26244" lon="5.27996">
        <ele>614.4</ele>
        <time>2022-04-28T13:29:00Z</time>
      </trkpt>
      <trkpt lat="45.26237" lon="5.27988">
        <ele>614.1</ele>
        <time>2022-04-28T13:29:01Z</time>
      </trkpt>
      <trkpt lat="45.2623" lon="5.2798">
        <ele>613.7</ele>
        <time>2022-04-28T13:29:02Z</time>
      </trkpt>
      <trkpt lat="45.26222" lon="5.27972">
        <ele>613.3</ele>
        <time>2022-04-28T13:29:03Z</time>
      </trkpt>
      <trkpt lat="45.26214" lon="5.27964">
        <ele>613</ele>
        <time>2022-04-28T13:29:04Z</time>
      </trkpt>
      <trkpt lat="45.26206" lon="5.27956">
        <ele>612.6</ele>
        <time>2022-04-28T13:29:05Z</time>
      </trkpt>
      <trkpt lat="45.26199" lon="5.27948">
        <ele>612.2</ele>
        <time>2022-04-28T13:29:06Z</time>
      </trkpt>
      <trkpt lat="45.26192" lon="5.27939">
        <ele>611.8</ele>
        <time>2022-04-28T13:29:07Z</time>
      </trkpt>
      <trkpt lat="45.26184" lon="5.2793">
        <ele>611.4</ele>
        <time>2022-04-28T13:29:08Z</time>
      </trkpt>
      <trkpt lat="45.26176" lon="5.27921">
        <ele>610.9</ele>
        <time>2022-04-28T13:29:09Z</time>
      </trkpt>
      <trkpt lat="45.26169" lon="5.27911">
        <ele>610.4</ele>
        <time>2022-04-28T13:29:10Z</time>
      </trkpt>
      <trkpt lat="45.26162" lon="5.27901">
        <ele>610</ele>
        <time>2022-04-28T13:29:11Z</time>
      </trkpt>
      <trkpt lat="45.26156" lon="5.27889">
        <ele>609.6</ele>
        <time>2022-04-28T13:29:12Z</time>
      </trkpt>
      <trkpt lat="45.2615" lon="5.27877">
        <ele>609.2</ele>
        <time>2022-04-28T13:29:13Z</time>
      </trkpt>
      <trkpt lat="45.26145" lon="5.27865">
        <ele>608.7</ele>
        <time>2022-04-28T13:29:14Z</time>
      </trkpt>
      <trkpt lat="45.2614" lon="5.27853">
        <ele>608.3</ele>
        <time>2022-04-28T13:29:15Z</time>
      </trkpt>
      <trkpt lat="45.26136" lon="5.27841">
        <ele>607.9</ele>
        <time>2022-04-28T13:29:16Z</time>
      </trkpt>
      <trkpt lat="45.26133" lon="5.27828">
        <ele>607.5</ele>
        <time>2022-04-28T13:29:17Z</time>
      </trkpt>
      <trkpt lat="45.26131" lon="5.27814">
        <ele>607.2</ele>
        <time>2022-04-28T13:29:18Z</time>
      </trkpt>
      <trkpt lat="45.26131" lon="5.278">
        <ele>606.8</ele>
        <time>2022-04-28T13:29:19Z</time>
      </trkpt>
      <trkpt lat="45.26131" lon="5.27786">
        <ele>606.4</ele>
        <time>2022-04-28T13:29:20Z</time>
      </trkpt>
      <trkpt lat="45.26133" lon="5.27773">
        <ele>606</ele>
        <time>2022-04-28T13:29:21Z</time>
      </trkpt>
      <trkpt lat="45.26136" lon="5.2776">
        <ele>605.6</ele>
        <time>2022-04-28T13:29:22Z</time>
      </trkpt>
      <trkpt lat="45.2614" lon="5.27748">
        <ele>605.3</ele>
        <time>2022-04-28T13:29:23Z</time>
      </trkpt>
      <trkpt lat="45.26144" lon="5.27736">
        <ele>605</ele>
        <time>2022-04-28T13:29:24Z</time>
      </trkpt>
      <trkpt lat="45.26149" lon="5.27724">
        <ele>604.6</ele>
        <time>2022-04-28T13:29:25Z</time>
      </trkpt>
      <trkpt lat="45.26153" lon="5.27712">
        <ele>604.3</ele>
        <time>2022-04-28T13:29:26Z</time>
      </trkpt>
      <trkpt lat="45.26156" lon="5.277">
        <ele>603.9</ele>
        <time>2022-04-28T13:29:27Z</time>
      </trkpt>
      <trkpt lat="45.26157" lon="5.27688">
        <ele>603.6</ele>
        <time>2022-04-28T13:29:28Z</time>
      </trkpt>
      <trkpt lat="45.26158" lon="5.27677">
        <ele>603.3</ele>
        <time>2022-04-28T13:29:29Z</time>
      </trkpt>
      <trkpt lat="45.26157" lon="5.27667">
        <ele>603.1</ele>
        <time>2022-04-28T13:29:30Z</time>
      </trkpt>
      <trkpt lat="45.26154" lon="5.27659">
        <ele>602.8</ele>
        <time>2022-04-28T13:29:31Z</time>
      </trkpt>
      <trkpt lat="45.26146" lon="5.27649">
        <ele>602.4</ele>
        <time>2022-04-28T13:29:32Z</time>
      </trkpt>
      <trkpt lat="45.26138" lon="5.27638">
        <ele>602</ele>
        <time>2022-04-28T13:29:33Z</time>
      </trkpt>
      <trkpt lat="45.26132" lon="5.27628">
        <ele>601.6</ele>
        <time>2022-04-28T13:29:34Z</time>
      </trkpt>
      <trkpt lat="45.26128" lon="5.27617">
        <ele>601.3</ele>
        <time>2022-04-28T13:29:35Z</time>
      </trkpt>
      <trkpt lat="45.26124" lon="5.27606">
        <ele>600.9</ele>
        <time>2022-04-28T13:29:36Z</time>
      </trkpt>
      <trkpt lat="45.2612" lon="5.27594">
        <ele>600.5</ele>
        <time>2022-04-28T13:29:37Z</time>
      </trkpt>
      <trkpt lat="45.26116" lon="5.27581">
        <ele>600.1</ele>
        <time>2022-04-28T13:29:38Z</time>
      </trkpt>
      <trkpt lat="45.26113" lon="5.27568">
        <ele>599.7</ele>
        <time>2022-04-28T13:29:39Z</time>
      </trkpt>
      <trkpt lat="45.26112" lon="5.27557">
        <ele>599.4</ele>
        <time>2022-04-28T13:29:40Z</time>
      </trkpt>
      <trkpt lat="45.2611" lon="5.27545">
        <ele>599</ele>
        <time>2022-04-28T13:29:41Z</time>
      </trkpt>
      <trkpt lat="45.26106" lon="5.27531">
        <ele>598.6</ele>
        <time>2022-04-28T13:29:42Z</time>
      </trkpt>
      <trkpt lat="45.26104" lon="5.27517">
        <ele>598.2</ele>
        <time>2022-04-28T13:29:43Z</time>
      </trkpt>
      <trkpt lat="45.26102" lon="5.27504">
        <ele>597.8</ele>
        <time>2022-04-28T13:29:44Z</time>
      </trkpt>
      <trkpt lat="45.261" lon="5.2749">
        <ele>597.4</ele>
        <time>2022-04-28T13:29:45Z</time>
      </trkpt>
      <trkpt lat="45.26098" lon="5.27477">
        <ele>596.9</ele>
        <time>2022-04-28T13:29:46Z</time>
      </trkpt>
      <trkpt lat="45.26096" lon="5.27464">
        <ele>596.5</ele>
        <time>2022-04-28T13:29:47Z</time>
      </trkpt>
      <trkpt lat="45.26093" lon="5.27449">
        <ele>596.1</ele>
        <time>2022-04-28T13:29:48Z</time>
      </trkpt>
      <trkpt lat="45.2609" lon="5.27436">
        <ele>595.7</ele>
        <time>2022-04-28T13:29:49Z</time>
      </trkpt>
      <trkpt lat="45.26087" lon="5.27423">
        <ele>595.2</ele>
        <time>2022-04-28T13:29:50Z</time>
      </trkpt>
      <trkpt lat="45.26086" lon="5.27411">
        <ele>594.8</ele>
        <time>2022-04-28T13:29:51Z</time>
      </trkpt>
      <trkpt lat="45.26084" lon="5.27398">
        <ele>594.4</ele>
        <time>2022-04-28T13:29:52Z</time>
      </trkpt>
      <trkpt lat="45.26083" lon="5.27385">
        <ele>594</ele>
        <time>2022-04-28T13:29:53Z</time>
      </trkpt>
      <trkpt lat="45.26083" lon="5.27372">
        <ele>593.6</ele>
        <time>2022-04-28T13:29:54Z</time>
      </trkpt>
      <trkpt lat="45.26082" lon="5.27358">
        <ele>593.1</ele>
        <time>2022-04-28T13:29:55Z</time>
      </trkpt>
      <trkpt lat="45.26081" lon="5.27344">
        <ele>592.6</ele>
        <time>2022-04-28T13:29:56Z</time>
      </trkpt>
      <trkpt lat="45.26081" lon="5.2733">
        <ele>592.2</ele>
        <time>2022-04-28T13:29:57Z</time>
      </trkpt>
      <trkpt lat="45.2608" lon="5.27316">
        <ele>591.7</ele>
        <time>2022-04-28T13:29:58Z</time>
      </trkpt>
      <trkpt lat="45.2608" lon="5.27302">
        <ele>591.3</ele>
        <time>2022-04-28T13:29:59Z</time>
      </trkpt>
      <trkpt lat="45.26079" lon="5.27288">
        <ele>590.8</ele>
        <time>2022-04-28T13:30:00Z</time>
      </trkpt>
      <trkpt lat="45.26078" lon="5.27273">
        <ele>590.4</ele>
        <time>2022-04-28T13:30:01Z</time>
      </trkpt>
      <trkpt lat="45.26078" lon="5.27258">
        <ele>589.9</ele>
        <time>2022-04-28T13:30:02Z</time>
      </trkpt>
      <trkpt lat="45.26078" lon="5.27244">
        <ele>589.4</ele>
        <time>2022-04-28T13:30:03Z</time>
      </trkpt>
      <trkpt lat="45.2608" lon="5.27231">
        <ele>589</ele>
        <time>2022-04-28T13:30:04Z</time>
      </trkpt>
      <trkpt lat="45.26082" lon="5.27216">
        <ele>588.5</ele>
        <time>2022-04-28T13:30:05Z</time>
      </trkpt>
      <trkpt lat="45.26085" lon="5.27203">
        <ele>588</ele>
        <time>2022-04-28T13:30:06Z</time>
      </trkpt>
      <trkpt lat="45.26089" lon="5.2719">
        <ele>587.5</ele>
        <time>2022-04-28T13:30:07Z</time>
      </trkpt>
      <trkpt lat="45.26095" lon="5.27178">
        <ele>586.9</ele>
        <time>2022-04-28T13:30:08Z</time>
      </trkpt>
      <trkpt lat="45.26101" lon="5.27166">
        <ele>586.3</ele>
        <time>2022-04-28T13:30:09Z</time>
      </trkpt>
      <trkpt lat="45.26106" lon="5.27154">
        <ele>585.7</ele>
        <time>2022-04-28T13:30:10Z</time>
      </trkpt>
      <trkpt lat="45.26107" lon="5.2714">
        <ele>585.1</ele>
        <time>2022-04-28T13:30:11Z</time>
      </trkpt>
      <trkpt lat="45.26106" lon="5.27126">
        <ele>584.6</ele>
        <time>2022-04-28T13:30:12Z</time>
      </trkpt>
      <trkpt lat="45.26102" lon="5.27113">
        <ele>584.2</ele>
        <time>2022-04-28T13:30:13Z</time>
      </trkpt>
      <trkpt lat="45.26096" lon="5.27102">
        <ele>583.7</ele>
        <time>2022-04-28T13:30:14Z</time>
      </trkpt>
      <trkpt lat="45.26089" lon="5.2709">
        <ele>583.3</ele>
        <time>2022-04-28T13:30:15Z</time>
      </trkpt>
      <trkpt lat="45.26084" lon="5.27076">
        <ele>582.8</ele>
        <time>2022-04-28T13:30:16Z</time>
      </trkpt>
      <trkpt lat="45.26081" lon="5.27061">
        <ele>582.3</ele>
        <time>2022-04-28T13:30:17Z</time>
      </trkpt>
      <trkpt lat="45.26081" lon="5.27046">
        <ele>581.9</ele>
        <time>2022-04-28T13:30:18Z</time>
      </trkpt>
      <trkpt lat="45.26082" lon="5.27031">
        <ele>581.4</ele>
        <time>2022-04-28T13:30:19Z</time>
      </trkpt>
      <trkpt lat="45.26085" lon="5.27016">
        <ele>580.8</ele>
        <time>2022-04-28T13:30:20Z</time>
      </trkpt>
      <trkpt lat="45.2609" lon="5.27004">
        <ele>580.3</ele>
        <time>2022-04-28T13:30:21Z</time>
      </trkpt>
      <trkpt lat="45.26096" lon="5.26994">
        <ele>579.8</ele>
        <time>2022-04-28T13:30:22Z</time>
      </trkpt>
      <trkpt lat="45.26105" lon="5.26985">
        <ele>579.2</ele>
        <time>2022-04-28T13:30:23Z</time>
      </trkpt>
      <trkpt lat="45.26112" lon="5.26975">
        <ele>578.6</ele>
        <time>2022-04-28T13:30:24Z</time>
      </trkpt>
      <trkpt lat="45.26118" lon="5.26962">
        <ele>578</ele>
        <time>2022-04-28T13:30:25Z</time>
      </trkpt>
      <trkpt lat="45.26121" lon="5.26949">
        <ele>577.5</ele>
        <time>2022-04-28T13:30:26Z</time>
      </trkpt>
      <trkpt lat="45.26121" lon="5.26934">
        <ele>577</ele>
        <time>2022-04-28T13:30:27Z</time>
      </trkpt>
      <trkpt lat="45.26118" lon="5.2692">
        <ele>576.5</ele>
        <time>2022-04-28T13:30:28Z</time>
      </trkpt>
      <trkpt lat="45.26115" lon="5.26907">
        <ele>576</ele>
        <time>2022-04-28T13:30:29Z</time>
      </trkpt>
      <trkpt lat="45.26112" lon="5.26892">
        <ele>575.5</ele>
        <time>2022-04-28T13:30:30Z</time>
      </trkpt>
      <trkpt lat="45.26111" lon="5.26878">
        <ele>575</ele>
        <time>2022-04-28T13:30:31Z</time>
      </trkpt>
      <trkpt lat="45.26112" lon="5.26863">
        <ele>574.4</ele>
        <time>2022-04-28T13:30:32Z</time>
      </trkpt>
      <trkpt lat="45.26113" lon="5.26848">
        <ele>573.9</ele>
        <time>2022-04-28T13:30:33Z</time>
      </trkpt>
      <trkpt lat="45.26115" lon="5.26833">
        <ele>573.4</ele>
        <time>2022-04-28T13:30:34Z</time>
      </trkpt>
      <trkpt lat="45.26117" lon="5.26818">
        <ele>572.9</ele>
        <time>2022-04-28T13:30:35Z</time>
      </trkpt>
      <trkpt lat="45.2612" lon="5.26804">
        <ele>572.4</ele>
        <time>2022-04-28T13:30:36Z</time>
      </trkpt>
      <trkpt lat="45.26124" lon="5.26789">
        <ele>571.8</ele>
        <time>2022-04-28T13:30:37Z</time>
      </trkpt>
      <trkpt lat="45.26129" lon="5.26775">
        <ele>571.3</ele>
        <time>2022-04-28T13:30:38Z</time>
      </trkpt>
      <trkpt lat="45.26137" lon="5.26764">
        <ele>570.7</ele>
        <time>2022-04-28T13:30:39Z</time>
      </trkpt>
      <trkpt lat="45.26145" lon="5.26754">
        <ele>570.1</ele>
        <time>2022-04-28T13:30:40Z</time>
      </trkpt>
      <trkpt lat="45.26154" lon="5.26746">
        <ele>569.6</ele>
        <time>2022-04-28T13:30:41Z</time>
      </trkpt>
      <trkpt lat="45.26161" lon="5.26736">
        <ele>569.1</ele>
        <time>2022-04-28T13:30:42Z</time>
      </trkpt>
      <trkpt lat="45.26166" lon="5.26724">
        <ele>568.5</ele>
        <time>2022-04-28T13:30:43Z</time>
      </trkpt>
      <trkpt lat="45.26166" lon="5.26712">
        <ele>568</ele>
        <time>2022-04-28T13:30:44Z</time>
      </trkpt>
      <trkpt lat="45.26164" lon="5.267">
        <ele>567.4</ele>
        <time>2022-04-28T13:30:45Z</time>
      </trkpt>
      <trkpt lat="45.26157" lon="5.26689">
        <ele>566.8</ele>
        <time>2022-04-28T13:30:46Z</time>
      </trkpt>
      <trkpt lat="45.26145" lon="5.26684">
        <ele>566.2</ele>
        <time>2022-04-28T13:30:47Z</time>
      </trkpt>
      <trkpt lat="45.26133" lon="5.26679">
        <ele>565.6</ele>
        <time>2022-04-28T13:30:48Z</time>
      </trkpt>
      <trkpt lat="45.26123" lon="5.26671">
        <ele>565</ele>
        <time>2022-04-28T13:30:49Z</time>
      </trkpt>
      <trkpt lat="45.26117" lon="5.2666">
        <ele>564.5</ele>
        <time>2022-04-28T13:30:50Z</time>
      </trkpt>
      <trkpt lat="45.26113" lon="5.26648">
        <ele>564</ele>
        <time>2022-04-28T13:30:51Z</time>
      </trkpt>
      <trkpt lat="45.26112" lon="5.26633">
        <ele>563.5</ele>
        <time>2022-04-28T13:30:52Z</time>
      </trkpt>
      <trkpt lat="45.26114" lon="5.26618">
        <ele>563</ele>
        <time>2022-04-28T13:30:53Z</time>
      </trkpt>
      <trkpt lat="45.26116" lon="5.26603">
        <ele>562.5</ele>
        <time>2022-04-28T13:30:54Z</time>
      </trkpt>
      <trkpt lat="45.26117" lon="5.26588">
        <ele>562</ele>
        <time>2022-04-28T13:30:55Z</time>
      </trkpt>
      <trkpt lat="45.26118" lon="5.26574">
        <ele>561.5</ele>
        <time>2022-04-28T13:30:56Z</time>
      </trkpt>
      <trkpt lat="45.2612" lon="5.2656">
        <ele>561</ele>
        <time>2022-04-28T13:30:57Z</time>
      </trkpt>
      <trkpt lat="45.2612" lon="5.26546">
        <ele>560.5</ele>
        <time>2022-04-28T13:30:58Z</time>
      </trkpt>
      <trkpt lat="45.26122" lon="5.26531">
        <ele>559.9</ele>
        <time>2022-04-28T13:30:59Z</time>
      </trkpt>
      <trkpt lat="45.26124" lon="5.26517">
        <ele>559.4</ele>
        <time>2022-04-28T13:31:00Z</time>
      </trkpt>
      <trkpt lat="45.26127" lon="5.26503">
        <ele>558.9</ele>
        <time>2022-04-28T13:31:01Z</time>
      </trkpt>
      <trkpt lat="45.26132" lon="5.26489">
        <ele>558.4</ele>
        <time>2022-04-28T13:31:02Z</time>
      </trkpt>
      <trkpt lat="45.26137" lon="5.26476">
        <ele>557.9</ele>
        <time>2022-04-28T13:31:03Z</time>
      </trkpt>
      <trkpt lat="45.26144" lon="5.26465">
        <ele>557.4</ele>
        <time>2022-04-28T13:31:04Z</time>
      </trkpt>
      <trkpt lat="45.26151" lon="5.26454">
        <ele>556.9</ele>
        <time>2022-04-28T13:31:05Z</time>
      </trkpt>
      <trkpt lat="45.26157" lon="5.26443">
        <ele>556.4</ele>
        <time>2022-04-28T13:31:06Z</time>
      </trkpt>
      <trkpt lat="45.26163" lon="5.26431">
        <ele>555.9</ele>
        <time>2022-04-28T13:31:07Z</time>
      </trkpt>
      <trkpt lat="45.26167" lon="5.26417">
        <ele>555.4</ele>
        <time>2022-04-28T13:31:08Z</time>
      </trkpt>
      <trkpt lat="45.26171" lon="5.26404">
        <ele>555</ele>
        <time>2022-04-28T13:31:09Z</time>
      </trkpt>
      <trkpt lat="45.26173" lon="5.2639">
        <ele>554.5</ele>
        <time>2022-04-28T13:31:10Z</time>
      </trkpt>
      <trkpt lat="45.26175" lon="5.26375">
        <ele>554</ele>
        <time>2022-04-28T13:31:11Z</time>
      </trkpt>
      <trkpt lat="45.26178" lon="5.26361">
        <ele>553.4</ele>
        <time>2022-04-28T13:31:12Z</time>
      </trkpt>
      <trkpt lat="45.2618" lon="5.26348">
        <ele>552.9</ele>
        <time>2022-04-28T13:31:13Z</time>
      </trkpt>
      <trkpt lat="45.26184" lon="5.26319">
        <ele>551.9</ele>
        <time>2022-04-28T13:31:15Z</time>
      </trkpt>
      <trkpt lat="45.26186" lon="5.26305">
        <ele>551.4</ele>
        <time>2022-04-28T13:31:16Z</time>
      </trkpt>
      <trkpt lat="45.26189" lon="5.26291">
        <ele>550.9</ele>
        <time>2022-04-28T13:31:17Z</time>
      </trkpt>
      <trkpt lat="45.26191" lon="5.26277">
        <ele>550.4</ele>
        <time>2022-04-28T13:31:18Z</time>
      </trkpt>
      <trkpt lat="45.26194" lon="5.26263">
        <ele>549.9</ele>
        <time>2022-04-28T13:31:19Z</time>
      </trkpt>
      <trkpt lat="45.26196" lon="5.26249">
        <ele>549.4</ele>
        <time>2022-04-28T13:31:20Z</time>
      </trkpt>
      <trkpt lat="45.26198" lon="5.26235">
        <ele>548.9</ele>
        <time>2022-04-28T13:31:21Z</time>
      </trkpt>
      <trkpt lat="45.26201" lon="5.2622">
        <ele>548.4</ele>
        <time>2022-04-28T13:31:22Z</time>
      </trkpt>
      <trkpt lat="45.26203" lon="5.26207">
        <ele>547.9</ele>
        <time>2022-04-28T13:31:23Z</time>
      </trkpt>
      <trkpt lat="45.26206" lon="5.26193">
        <ele>547.4</ele>
        <time>2022-04-28T13:31:24Z</time>
      </trkpt>
      <trkpt lat="45.26208" lon="5.26179">
        <ele>546.9</ele>
        <time>2022-04-28T13:31:25Z</time>
      </trkpt>
      <trkpt lat="45.26211" lon="5.26165">
        <ele>546.3</ele>
        <time>2022-04-28T13:31:26Z</time>
      </trkpt>
      <trkpt lat="45.26213" lon="5.26151">
        <ele>545.8</ele>
        <time>2022-04-28T13:31:27Z</time>
      </trkpt>
      <trkpt lat="45.26216" lon="5.26137">
        <ele>545.2</ele>
        <time>2022-04-28T13:31:28Z</time>
      </trkpt>
      <trkpt lat="45.26218" lon="5.26123">
        <ele>544.7</ele>
        <time>2022-04-28T13:31:29Z</time>
      </trkpt>
      <trkpt lat="45.2622" lon="5.26109">
        <ele>544.2</ele>
        <time>2022-04-28T13:31:30Z</time>
      </trkpt>
      <trkpt lat="45.26223" lon="5.26094">
        <ele>543.6</ele>
        <time>2022-04-28T13:31:31Z</time>
      </trkpt>
      <trkpt lat="45.26225" lon="5.26079">
        <ele>543</ele>
        <time>2022-04-28T13:31:32Z</time>
      </trkpt>
      <trkpt lat="45.26227" lon="5.26065">
        <ele>542.5</ele>
        <time>2022-04-28T13:31:33Z</time>
      </trkpt>
      <trkpt lat="45.26229" lon="5.26051">
        <ele>542.1</ele>
        <time>2022-04-28T13:31:34Z</time>
      </trkpt>
      <trkpt lat="45.26231" lon="5.26037">
        <ele>541.6</ele>
        <time>2022-04-28T13:31:35Z</time>
      </trkpt>
      <trkpt lat="45.26234" lon="5.26023">
        <ele>541.1</ele>
        <time>2022-04-28T13:31:36Z</time>
      </trkpt>
      <trkpt lat="45.26235" lon="5.26008">
        <ele>540.6</ele>
        <time>2022-04-28T13:31:37Z</time>
      </trkpt>
      <trkpt lat="45.26238" lon="5.25995">
        <ele>540.2</ele>
        <time>2022-04-28T13:31:38Z</time>
      </trkpt>
      <trkpt lat="45.2624" lon="5.2598">
        <ele>539.8</ele>
        <time>2022-04-28T13:31:39Z</time>
      </trkpt>
      <trkpt lat="45.26242" lon="5.25966">
        <ele>539.4</ele>
        <time>2022-04-28T13:31:40Z</time>
      </trkpt>
      <trkpt lat="45.26244" lon="5.25951">
        <ele>538.9</ele>
        <time>2022-04-28T13:31:41Z</time>
      </trkpt>
      <trkpt lat="45.26249" lon="5.25939">
        <ele>538.5</ele>
        <time>2022-04-28T13:31:42Z</time>
      </trkpt>
      <trkpt lat="45.26251" lon="5.25924">
        <ele>538.1</ele>
        <time>2022-04-28T13:31:43Z</time>
      </trkpt>
      <trkpt lat="45.26254" lon="5.25908">
        <ele>537.7</ele>
        <time>2022-04-28T13:31:44Z</time>
      </trkpt>
      <trkpt lat="45.26256" lon="5.25892">
        <ele>537.2</ele>
        <time>2022-04-28T13:31:45Z</time>
      </trkpt>
      <trkpt lat="45.26258" lon="5.25877">
        <ele>536.7</ele>
        <time>2022-04-28T13:31:46Z</time>
      </trkpt>
      <trkpt lat="45.2626" lon="5.25861">
        <ele>536.2</ele>
        <time>2022-04-28T13:31:47Z</time>
      </trkpt>
      <trkpt lat="45.26263" lon="5.25845">
        <ele>535.7</ele>
        <time>2022-04-28T13:31:48Z</time>
      </trkpt>
      <trkpt lat="45.26265" lon="5.25829">
        <ele>535.1</ele>
        <time>2022-04-28T13:31:49Z</time>
      </trkpt>
      <trkpt lat="45.26267" lon="5.25814">
        <ele>534.6</ele>
        <time>2022-04-28T13:31:50Z</time>
      </trkpt>
      <trkpt lat="45.26269" lon="5.25798">
        <ele>534</ele>
        <time>2022-04-28T13:31:51Z</time>
      </trkpt>
      <trkpt lat="45.26272" lon="5.25783">
        <ele>533.4</ele>
        <time>2022-04-28T13:31:52Z</time>
      </trkpt>
      <trkpt lat="45.26274" lon="5.25767">
        <ele>532.9</ele>
        <time>2022-04-28T13:31:53Z</time>
      </trkpt>
      <trkpt lat="45.26277" lon="5.25751">
        <ele>532.4</ele>
        <time>2022-04-28T13:31:54Z</time>
      </trkpt>
      <trkpt lat="45.26279" lon="5.25735">
        <ele>531.9</ele>
        <time>2022-04-28T13:31:55Z</time>
      </trkpt>
      <trkpt lat="45.26281" lon="5.25719">
        <ele>531.3</ele>
        <time>2022-04-28T13:31:56Z</time>
      </trkpt>
      <trkpt lat="45.26283" lon="5.25703">
        <ele>530.8</ele>
        <time>2022-04-28T13:31:57Z</time>
      </trkpt>
      <trkpt lat="45.26285" lon="5.25688">
        <ele>530.3</ele>
        <time>2022-04-28T13:31:58Z</time>
      </trkpt>
      <trkpt lat="45.26287" lon="5.25673">
        <ele>529.7</ele>
        <time>2022-04-28T13:31:59Z</time>
      </trkpt>
      <trkpt lat="45.26289" lon="5.25658">
        <ele>529.2</ele>
        <time>2022-04-28T13:32:00Z</time>
      </trkpt>
      <trkpt lat="45.26291" lon="5.25643">
        <ele>528.6</ele>
        <time>2022-04-28T13:32:01Z</time>
      </trkpt>
      <trkpt lat="45.26293" lon="5.25628">
        <ele>528</ele>
        <time>2022-04-28T13:32:02Z</time>
      </trkpt>
      <trkpt lat="45.26295" lon="5.25614">
        <ele>527.5</ele>
        <time>2022-04-28T13:32:03Z</time>
      </trkpt>
      <trkpt lat="45.26297" lon="5.256">
        <ele>526.9</ele>
        <time>2022-04-28T13:32:04Z</time>
      </trkpt>
      <trkpt lat="45.26299" lon="5.25586">
        <ele>526.2</ele>
        <time>2022-04-28T13:32:05Z</time>
      </trkpt>
      <trkpt lat="45.26301" lon="5.25572">
        <ele>525.6</ele>
        <time>2022-04-28T13:32:06Z</time>
      </trkpt>
      <trkpt lat="45.26303" lon="5.25558">
        <ele>525</ele>
        <time>2022-04-28T13:32:07Z</time>
      </trkpt>
      <trkpt lat="45.26304" lon="5.25544">
        <ele>524.3</ele>
        <time>2022-04-28T13:32:08Z</time>
      </trkpt>
      <trkpt lat="45.26303" lon="5.25529">
        <ele>523.8</ele>
        <time>2022-04-28T13:32:09Z</time>
      </trkpt>
      <trkpt lat="45.26301" lon="5.25517">
        <ele>523.3</ele>
        <time>2022-04-28T13:32:10Z</time>
      </trkpt>
      <trkpt lat="45.26298" lon="5.25505">
        <ele>523</ele>
        <time>2022-04-28T13:32:11Z</time>
      </trkpt>
      <trkpt lat="45.26293" lon="5.25493">
        <ele>522.7</ele>
        <time>2022-04-28T13:32:12Z</time>
      </trkpt>
      <trkpt lat="45.26288" lon="5.25482">
        <ele>522.5</ele>
        <time>2022-04-28T13:32:13Z</time>
      </trkpt>
      <trkpt lat="45.26282" lon="5.25471">
        <ele>522.4</ele>
        <time>2022-04-28T13:32:14Z</time>
      </trkpt>
      <trkpt lat="45.26275" lon="5.25463">
        <ele>522.3</ele>
        <time>2022-04-28T13:32:15Z</time>
      </trkpt>
      <trkpt lat="45.26269" lon="5.25456">
        <ele>522.3</ele>
        <time>2022-04-28T13:32:16Z</time>
      </trkpt>
      <trkpt lat="45.26263" lon="5.25448">
        <ele>522.3</ele>
        <time>2022-04-28T13:32:17Z</time>
      </trkpt>
      <trkpt lat="45.26256" lon="5.2544">
        <ele>522.4</ele>
        <time>2022-04-28T13:32:18Z</time>
      </trkpt>
      <trkpt lat="45.2625" lon="5.25434">
        <ele>522.4</ele>
        <time>2022-04-28T13:32:19Z</time>
      </trkpt>
      <trkpt lat="45.26244" lon="5.25427">
        <ele>522.5</ele>
        <time>2022-04-28T13:32:20Z</time>
      </trkpt>
      <trkpt lat="45.26238" lon="5.2542">
        <ele>522.6</ele>
        <time>2022-04-28T13:32:21Z</time>
      </trkpt>
      <trkpt lat="45.26233" lon="5.25413">
        <ele>522.7</ele>
        <time>2022-04-28T13:32:22Z</time>
      </trkpt>
      <trkpt lat="45.26227" lon="5.25405">
        <ele>522.8</ele>
        <time>2022-04-28T13:32:23Z</time>
      </trkpt>
      <trkpt lat="45.26222" lon="5.25397">
        <ele>522.9</ele>
        <time>2022-04-28T13:32:24Z</time>
      </trkpt>
      <trkpt lat="45.26218" lon="5.25388">
        <ele>523</ele>
        <time>2022-04-28T13:32:25Z</time>
      </trkpt>
      <trkpt lat="45.26215" lon="5.25378">
        <ele>523</ele>
        <time>2022-04-28T13:32:26Z</time>
      </trkpt>
      <trkpt lat="45.26214" lon="5.25369">
        <ele>523.1</ele>
        <time>2022-04-28T13:32:27Z</time>
      </trkpt>
      <trkpt lat="45.26213" lon="5.25359">
        <ele>523.2</ele>
        <time>2022-04-28T13:32:28Z</time>
      </trkpt>
      <trkpt lat="45.26212" lon="5.2535">
        <ele>523.3</ele>
        <time>2022-04-28T13:32:29Z</time>
      </trkpt>
      <trkpt lat="45.26212" lon="5.25341">
        <ele>523.4</ele>
        <time>2022-04-28T13:32:30Z</time>
      </trkpt>
      <trkpt lat="45.26212" lon="5.25332">
        <ele>523.5</ele>
        <time>2022-04-28T13:32:31Z</time>
      </trkpt>
      <trkpt lat="45.26213" lon="5.25324">
        <ele>523.6</ele>
        <time>2022-04-28T13:32:32Z</time>
      </trkpt>
      <trkpt lat="45.26214" lon="5.25316">
        <ele>523.6</ele>
        <time>2022-04-28T13:32:33Z</time>
      </trkpt>
      <trkpt lat="45.26214" lon="5.25308">
        <ele>523.7</ele>
        <time>2022-04-28T13:32:34Z</time>
      </trkpt>
      <trkpt lat="45.26214" lon="5.25299">
        <ele>523.8</ele>
        <time>2022-04-28T13:32:35Z</time>
      </trkpt>
      <trkpt lat="45.26214" lon="5.25291">
        <ele>523.9</ele>
        <time>2022-04-28T13:32:36Z</time>
      </trkpt>
      <trkpt lat="45.26215" lon="5.25283">
        <ele>523.9</ele>
        <time>2022-04-28T13:32:37Z</time>
      </trkpt>
      <trkpt lat="45.26216" lon="5.25275">
        <ele>524</ele>
        <time>2022-04-28T13:32:38Z</time>
      </trkpt>
      <trkpt lat="45.26217" lon="5.25266">
        <ele>524</ele>
        <time>2022-04-28T13:32:39Z</time>
      </trkpt>
      <trkpt lat="45.26218" lon="5.25258">
        <ele>524.1</ele>
        <time>2022-04-28T13:32:40Z</time>
      </trkpt>
      <trkpt lat="45.2622" lon="5.2525">
        <ele>524.2</ele>
        <time>2022-04-28T13:32:41Z</time>
      </trkpt>
      <trkpt lat="45.26222" lon="5.25242">
        <ele>524.2</ele>
        <time>2022-04-28T13:32:42Z</time>
      </trkpt>
      <trkpt lat="45.26224" lon="5.25236">
        <ele>524.3</ele>
        <time>2022-04-28T13:32:43Z</time>
      </trkpt>
      <trkpt lat="45.26226" lon="5.25228">
        <ele>524.4</ele>
        <time>2022-04-28T13:32:44Z</time>
      </trkpt>
      <trkpt lat="45.26228" lon="5.25222">
        <ele>524.5</ele>
        <time>2022-04-28T13:32:45Z</time>
      </trkpt>
      <trkpt lat="45.26229" lon="5.25215">
        <ele>524.5</ele>
        <time>2022-04-28T13:32:46Z</time>
      </trkpt>
      <trkpt lat="45.26231" lon="5.25208">
        <ele>524.6</ele>
        <time>2022-04-28T13:32:47Z</time>
      </trkpt>
      <trkpt lat="45.26232" lon="5.252">
        <ele>524.7</ele>
        <time>2022-04-28T13:32:48Z</time>
      </trkpt>
      <trkpt lat="45.26233" lon="5.25193">
        <ele>524.8</ele>
        <time>2022-04-28T13:32:49Z</time>
      </trkpt>
      <trkpt lat="45.26235" lon="5.25187">
        <ele>524.9</ele>
        <time>2022-04-28T13:32:50Z</time>
      </trkpt>
      <trkpt lat="45.26236" lon="5.2518">
        <ele>524.9</ele>
        <time>2022-04-28T13:32:51Z</time>
      </trkpt>
      <trkpt lat="45.26237" lon="5.25172">
        <ele>525</ele>
        <time>2022-04-28T13:32:52Z</time>
      </trkpt>
      <trkpt lat="45.26238" lon="5.25165">
        <ele>525.1</ele>
        <time>2022-04-28T13:32:53Z</time>
      </trkpt>
      <trkpt lat="45.26239" lon="5.25158">
        <ele>525.2</ele>
        <time>2022-04-28T13:32:54Z</time>
      </trkpt>
      <trkpt lat="45.26239" lon="5.25152">
        <ele>525.3</ele>
        <time>2022-04-28T13:32:55Z</time>
      </trkpt>
      <trkpt lat="45.2624" lon="5.25144">
        <ele>525.3</ele>
        <time>2022-04-28T13:32:56Z</time>
      </trkpt>
      <trkpt lat="45.26241" lon="5.25138">
        <ele>525.4</ele>
        <time>2022-04-28T13:32:57Z</time>
      </trkpt>
      <trkpt lat="45.26242" lon="5.25131">
        <ele>525.5</ele>
        <time>2022-04-28T13:32:58Z</time>
      </trkpt>
      <trkpt lat="45.26242" lon="5.25123">
        <ele>525.6</ele>
        <time>2022-04-28T13:32:59Z</time>
      </trkpt>
      <trkpt lat="45.26243" lon="5.25116">
        <ele>525.6</ele>
        <time>2022-04-28T13:33:00Z</time>
      </trkpt>
      <trkpt lat="45.26243" lon="5.25108">
        <ele>525.7</ele>
        <time>2022-04-28T13:33:01Z</time>
      </trkpt>
      <trkpt lat="45.26244" lon="5.251">
        <ele>525.7</ele>
        <time>2022-04-28T13:33:02Z</time>
      </trkpt>
      <trkpt lat="45.26244" lon="5.25092">
        <ele>525.8</ele>
        <time>2022-04-28T13:33:03Z</time>
      </trkpt>
      <trkpt lat="45.26244" lon="5.25084">
        <ele>525.8</ele>
        <time>2022-04-28T13:33:04Z</time>
      </trkpt>
      <trkpt lat="45.26245" lon="5.25076">
        <ele>525.8</ele>
        <time>2022-04-28T13:33:05Z</time>
      </trkpt>
      <trkpt lat="45.26246" lon="5.25069">
        <ele>525.9</ele>
        <time>2022-04-28T13:33:06Z</time>
      </trkpt>
      <trkpt lat="45.26247" lon="5.25061">
        <ele>525.9</ele>
        <time>2022-04-28T13:33:07Z</time>
      </trkpt>
      <trkpt lat="45.26248" lon="5.25054">
        <ele>526</ele>
        <time>2022-04-28T13:33:08Z</time>
      </trkpt>
      <trkpt lat="45.26249" lon="5.25047">
        <ele>526.1</ele>
        <time>2022-04-28T13:33:09Z</time>
      </trkpt>
      <trkpt lat="45.2625" lon="5.2504">
        <ele>526.1</ele>
        <time>2022-04-28T13:33:10Z</time>
      </trkpt>
      <trkpt lat="45.26252" lon="5.25034">
        <ele>526.2</ele>
        <time>2022-04-28T13:33:11Z</time>
      </trkpt>
      <trkpt lat="45.26254" lon="5.25028">
        <ele>526.3</ele>
        <time>2022-04-28T13:33:12Z</time>
      </trkpt>
      <trkpt lat="45.26257" lon="5.25022">
        <ele>526.4</ele>
        <time>2022-04-28T13:33:13Z</time>
      </trkpt>
      <trkpt lat="45.26258" lon="5.25016">
        <ele>526.5</ele>
        <time>2022-04-28T13:33:14Z</time>
      </trkpt>
      <trkpt lat="45.26261" lon="5.25011">
        <ele>526.6</ele>
        <time>2022-04-28T13:33:15Z</time>
      </trkpt>
      <trkpt lat="45.26262" lon="5.25006">
        <ele>526.7</ele>
        <time>2022-04-28T13:33:16Z</time>
      </trkpt>
      <trkpt lat="45.26264" lon="5.25">
        <ele>526.7</ele>
        <time>2022-04-28T13:33:17Z</time>
      </trkpt>
      <trkpt lat="45.26266" lon="5.24994">
        <ele>526.8</ele>
        <time>2022-04-28T13:33:18Z</time>
      </trkpt>
      <trkpt lat="45.26268" lon="5.24987">
        <ele>526.9</ele>
        <time>2022-04-28T13:33:19Z</time>
      </trkpt>
      <trkpt lat="45.26269" lon="5.2498">
        <ele>527</ele>
        <time>2022-04-28T13:33:20Z</time>
      </trkpt>
      <trkpt lat="45.26271" lon="5.24974">
        <ele>527.1</ele>
        <time>2022-04-28T13:33:21Z</time>
      </trkpt>
      <trkpt lat="45.26272" lon="5.24966">
        <ele>527.1</ele>
        <time>2022-04-28T13:33:22Z</time>
      </trkpt>
      <trkpt lat="45.26272" lon="5.2496">
        <ele>527.2</ele>
        <time>2022-04-28T13:33:23Z</time>
      </trkpt>
      <trkpt lat="45.26272" lon="5.24953">
        <ele>527.3</ele>
        <time>2022-04-28T13:33:24Z</time>
      </trkpt>
      <trkpt lat="45.26273" lon="5.24946">
        <ele>527.3</ele>
        <time>2022-04-28T13:33:25Z</time>
      </trkpt>
      <trkpt lat="45.26272" lon="5.24938">
        <ele>527.4</ele>
        <time>2022-04-28T13:33:26Z</time>
      </trkpt>
      <trkpt lat="45.2627" lon="5.24931">
        <ele>527.5</ele>
        <time>2022-04-28T13:33:27Z</time>
      </trkpt>
      <trkpt lat="45.2627" lon="5.24924">
        <ele>527.6</ele>
        <time>2022-04-28T13:33:28Z</time>
      </trkpt>
      <trkpt lat="45.26269" lon="5.24917">
        <ele>527.6</ele>
        <time>2022-04-28T13:33:29Z</time>
      </trkpt>
      <trkpt lat="45.26267" lon="5.2491">
        <ele>527.7</ele>
        <time>2022-04-28T13:33:30Z</time>
      </trkpt>
      <trkpt lat="45.26265" lon="5.24904">
        <ele>527.8</ele>
        <time>2022-04-28T13:33:31Z</time>
      </trkpt>
      <trkpt lat="45.26263" lon="5.24899">
        <ele>527.8</ele>
        <time>2022-04-28T13:33:32Z</time>
      </trkpt>
      <trkpt lat="45.26261" lon="5.24893">
        <ele>527.9</ele>
        <time>2022-04-28T13:33:33Z</time>
      </trkpt>
      <trkpt lat="45.26257" lon="5.24887">
        <ele>527.9</ele>
        <time>2022-04-28T13:33:34Z</time>
      </trkpt>
      <trkpt lat="45.26254" lon="5.24881">
        <ele>528</ele>
        <time>2022-04-28T13:33:35Z</time>
      </trkpt>
      <trkpt lat="45.26251" lon="5.24875">
        <ele>528.1</ele>
        <time>2022-04-28T13:33:36Z</time>
      </trkpt>
      <trkpt lat="45.26247" lon="5.24869">
        <ele>528.2</ele>
        <time>2022-04-28T13:33:37Z</time>
      </trkpt>
      <trkpt lat="45.26244" lon="5.24865">
        <ele>528.2</ele>
        <time>2022-04-28T13:33:38Z</time>
      </trkpt>
      <trkpt lat="45.26239" lon="5.2486">
        <ele>528.3</ele>
        <time>2022-04-28T13:33:39Z</time>
      </trkpt>
      <trkpt lat="45.26235" lon="5.24856">
        <ele>528.4</ele>
        <time>2022-04-28T13:33:40Z</time>
      </trkpt>
      <trkpt lat="45.26231" lon="5.24851">
        <ele>528.5</ele>
        <time>2022-04-28T13:33:41Z</time>
      </trkpt>
      <trkpt lat="45.26227" lon="5.24847">
        <ele>528.6</ele>
        <time>2022-04-28T13:33:42Z</time>
      </trkpt>
      <trkpt lat="45.26223" lon="5.24842">
        <ele>528.7</ele>
        <time>2022-04-28T13:33:43Z</time>
      </trkpt>
      <trkpt lat="45.26219" lon="5.24837">
        <ele>528.8</ele>
        <time>2022-04-28T13:33:44Z</time>
      </trkpt>
      <trkpt lat="45.26215" lon="5.24832">
        <ele>528.8</ele>
        <time>2022-04-28T13:33:45Z</time>
      </trkpt>
      <trkpt lat="45.26212" lon="5.24826">
        <ele>528.9</ele>
        <time>2022-04-28T13:33:46Z</time>
      </trkpt>
      <trkpt lat="45.26208" lon="5.24821">
        <ele>529</ele>
        <time>2022-04-28T13:33:47Z</time>
      </trkpt>
      <trkpt lat="45.26205" lon="5.24818">
        <ele>529.1</ele>
        <time>2022-04-28T13:33:48Z</time>
      </trkpt>
      <trkpt lat="45.26201" lon="5.24814">
        <ele>529.1</ele>
        <time>2022-04-28T13:33:49Z</time>
      </trkpt>
      <trkpt lat="45.26197" lon="5.2481">
        <ele>529.2</ele>
        <time>2022-04-28T13:33:50Z</time>
      </trkpt>
      <trkpt lat="45.26192" lon="5.24805">
        <ele>529.3</ele>
        <time>2022-04-28T13:33:51Z</time>
      </trkpt>
      <trkpt lat="45.26188" lon="5.248">
        <ele>529.4</ele>
        <time>2022-04-28T13:33:52Z</time>
      </trkpt>
      <trkpt lat="45.26183" lon="5.24796">
        <ele>529.5</ele>
        <time>2022-04-28T13:33:53Z</time>
      </trkpt>
      <trkpt lat="45.26179" lon="5.24791">
        <ele>529.6</ele>
        <time>2022-04-28T13:33:54Z</time>
      </trkpt>
      <trkpt lat="45.26175" lon="5.24786">
        <ele>529.7</ele>
        <time>2022-04-28T13:33:55Z</time>
      </trkpt>
      <trkpt lat="45.26171" lon="5.24782">
        <ele>529.8</ele>
        <time>2022-04-28T13:33:56Z</time>
      </trkpt>
      <trkpt lat="45.26167" lon="5.24777">
        <ele>529.9</ele>
        <time>2022-04-28T13:33:57Z</time>
      </trkpt>
      <trkpt lat="45.26163" lon="5.24773">
        <ele>530</ele>
        <time>2022-04-28T13:33:58Z</time>
      </trkpt>
      <trkpt lat="45.26159" lon="5.24768">
        <ele>530.1</ele>
        <time>2022-04-28T13:33:59Z</time>
      </trkpt>
      <trkpt lat="45.26155" lon="5.24764">
        <ele>530.3</ele>
        <time>2022-04-28T13:34:00Z</time>
      </trkpt>
      <trkpt lat="45.26151" lon="5.24759">
        <ele>530.4</ele>
        <time>2022-04-28T13:34:01Z</time>
      </trkpt>
      <trkpt lat="45.26146" lon="5.24754">
        <ele>530.5</ele>
        <time>2022-04-28T13:34:02Z</time>
      </trkpt>
      <trkpt lat="45.26142" lon="5.2475">
        <ele>530.6</ele>
        <time>2022-04-28T13:34:03Z</time>
      </trkpt>
      <trkpt lat="45.26138" lon="5.24745">
        <ele>530.8</ele>
        <time>2022-04-28T13:34:04Z</time>
      </trkpt>
      <trkpt lat="45.26135" lon="5.2474">
        <ele>530.9</ele>
        <time>2022-04-28T13:34:05Z</time>
      </trkpt>
      <trkpt lat="45.26131" lon="5.24737">
        <ele>531</ele>
        <time>2022-04-28T13:34:06Z</time>
      </trkpt>
      <trkpt lat="45.26128" lon="5.24734">
        <ele>531.1</ele>
        <time>2022-04-28T13:34:07Z</time>
      </trkpt>
      <trkpt lat="45.26124" lon="5.24731">
        <ele>531.2</ele>
        <time>2022-04-28T13:34:08Z</time>
      </trkpt>
      <trkpt lat="45.26121" lon="5.24728">
        <ele>531.3</ele>
        <time>2022-04-28T13:34:09Z</time>
      </trkpt>
      <trkpt lat="45.26119" lon="5.24727">
        <ele>531.3</ele>
        <time>2022-04-28T13:34:10Z</time>
      </trkpt>
      <trkpt lat="45.26117" lon="5.24724">
        <ele>531.4</ele>
        <time>2022-04-28T13:34:11Z</time>
      </trkpt>
      <trkpt lat="45.26114" lon="5.24718">
        <ele>531.5</ele>
        <time>2022-04-28T13:34:12Z</time>
      </trkpt>
      <trkpt lat="45.26112" lon="5.24713">
        <ele>531.6</ele>
        <time>2022-04-28T13:34:13Z</time>
      </trkpt>
      <trkpt lat="45.26112" lon="5.2471">
        <ele>531.6</ele>
        <time>2022-04-28T13:34:14Z</time>
      </trkpt>
      <trkpt lat="45.26114" lon="5.24707">
        <ele>531.7</ele>
        <time>2022-04-28T13:34:16Z</time>
      </trkpt>
      <trkpt lat="45.2611" lon="5.24697">
        <ele>531.8</ele>
        <time>2022-04-28T13:34:18Z</time>
      </trkpt>
      <trkpt lat="45.26108" lon="5.24692">
        <ele>531.8</ele>
        <time>2022-04-28T13:34:19Z</time>
      </trkpt>
      <trkpt lat="45.26104" lon="5.24687">
        <ele>531.8</ele>
        <time>2022-04-28T13:34:20Z</time>
      </trkpt>
      <trkpt lat="45.261" lon="5.24682">
        <ele>531.9</ele>
        <time>2022-04-28T13:34:21Z</time>
      </trkpt>
      <trkpt lat="45.26095" lon="5.24677">
        <ele>532</ele>
        <time>2022-04-28T13:34:22Z</time>
      </trkpt>
      <trkpt lat="45.26092" lon="5.24673">
        <ele>532.1</ele>
        <time>2022-04-28T13:34:23Z</time>
      </trkpt>
      <trkpt lat="45.26089" lon="5.24666">
        <ele>532.2</ele>
        <time>2022-04-28T13:34:25Z</time>
      </trkpt>
      <trkpt lat="45.26086" lon="5.2466">
        <ele>532.2</ele>
        <time>2022-04-28T13:34:26Z</time>
      </trkpt>
      <trkpt lat="45.26084" lon="5.24654">
        <ele>532.3</ele>
        <time>2022-04-28T13:34:27Z</time>
      </trkpt>
      <trkpt lat="45.26082" lon="5.24649">
        <ele>532.3</ele>
        <time>2022-04-28T13:34:28Z</time>
      </trkpt>
      <trkpt lat="45.26079" lon="5.24641">
        <ele>532.4</ele>
        <time>2022-04-28T13:34:29Z</time>
      </trkpt>
      <trkpt lat="45.26077" lon="5.24637">
        <ele>532.4</ele>
        <time>2022-04-28T13:34:30Z</time>
      </trkpt>
      <trkpt lat="45.26074" lon="5.24632">
        <ele>532.4</ele>
        <time>2022-04-28T13:34:31Z</time>
      </trkpt>
      <trkpt lat="45.26071" lon="5.24628">
        <ele>532.4</ele>
        <time>2022-04-28T13:34:32Z</time>
      </trkpt>
      <trkpt lat="45.26067" lon="5.24624">
        <ele>532.4</ele>
        <time>2022-04-28T13:34:33Z</time>
      </trkpt>
      <trkpt lat="45.26064" lon="5.24621">
        <ele>532.4</ele>
        <time>2022-04-28T13:34:34Z</time>
      </trkpt>
      <trkpt lat="45.26058" lon="5.24617">
        <ele>532.3</ele>
        <time>2022-04-28T13:34:35Z</time>
      </trkpt>
      <trkpt lat="45.26054" lon="5.24613">
        <ele>532.3</ele>
        <time>2022-04-28T13:34:36Z</time>
      </trkpt>
      <trkpt lat="45.2605" lon="5.2461">
        <ele>532.2</ele>
        <time>2022-04-28T13:34:37Z</time>
      </trkpt>
      <trkpt lat="45.26046" lon="5.24605">
        <ele>532.1</ele>
        <time>2022-04-28T13:34:38Z</time>
      </trkpt>
      <trkpt lat="45.26042" lon="5.246">
        <ele>532</ele>
        <time>2022-04-28T13:34:39Z</time>
      </trkpt>
      <trkpt lat="45.26039" lon="5.24595">
        <ele>531.8</ele>
        <time>2022-04-28T13:34:40Z</time>
      </trkpt>
      <trkpt lat="45.26035" lon="5.2459">
        <ele>531.7</ele>
        <time>2022-04-28T13:34:41Z</time>
      </trkpt>
      <trkpt lat="45.2603" lon="5.24585">
        <ele>531.5</ele>
        <time>2022-04-28T13:34:42Z</time>
      </trkpt>
      <trkpt lat="45.26025" lon="5.24581">
        <ele>531.3</ele>
        <time>2022-04-28T13:34:43Z</time>
      </trkpt>
      <trkpt lat="45.26021" lon="5.24576">
        <ele>531.1</ele>
        <time>2022-04-28T13:34:44Z</time>
      </trkpt>
      <trkpt lat="45.26016" lon="5.2457">
        <ele>530.9</ele>
        <time>2022-04-28T13:34:45Z</time>
      </trkpt>
      <trkpt lat="45.26012" lon="5.24564">
        <ele>530.6</ele>
        <time>2022-04-28T13:34:46Z</time>
      </trkpt>
      <trkpt lat="45.26008" lon="5.24558">
        <ele>530.4</ele>
        <time>2022-04-28T13:34:47Z</time>
      </trkpt>
      <trkpt lat="45.26004" lon="5.24553">
        <ele>530.2</ele>
        <time>2022-04-28T13:34:48Z</time>
      </trkpt>
      <trkpt lat="45.26001" lon="5.24547">
        <ele>530</ele>
        <time>2022-04-28T13:34:49Z</time>
      </trkpt>
      <trkpt lat="45.25997" lon="5.24541">
        <ele>529.9</ele>
        <time>2022-04-28T13:34:50Z</time>
      </trkpt>
      <trkpt lat="45.25993" lon="5.24536">
        <ele>529.7</ele>
        <time>2022-04-28T13:34:51Z</time>
      </trkpt>
      <trkpt lat="45.25989" lon="5.24531">
        <ele>529.5</ele>
        <time>2022-04-28T13:34:52Z</time>
      </trkpt>
      <trkpt lat="45.25985" lon="5.24526">
        <ele>529.3</ele>
        <time>2022-04-28T13:34:53Z</time>
      </trkpt>
      <trkpt lat="45.25981" lon="5.24519">
        <ele>529.2</ele>
        <time>2022-04-28T13:34:54Z</time>
      </trkpt>
      <trkpt lat="45.25978" lon="5.24513">
        <ele>529</ele>
        <time>2022-04-28T13:34:55Z</time>
      </trkpt>
      <trkpt lat="45.25974" lon="5.24507">
        <ele>528.9</ele>
        <time>2022-04-28T13:34:56Z</time>
      </trkpt>
      <trkpt lat="45.2597" lon="5.24501">
        <ele>528.7</ele>
        <time>2022-04-28T13:34:57Z</time>
      </trkpt>
      <trkpt lat="45.25965" lon="5.24494">
        <ele>528.5</ele>
        <time>2022-04-28T13:34:58Z</time>
      </trkpt>
      <trkpt lat="45.2596" lon="5.24489">
        <ele>528.3</ele>
        <time>2022-04-28T13:34:59Z</time>
      </trkpt>
      <trkpt lat="45.25956" lon="5.24484">
        <ele>528</ele>
        <time>2022-04-28T13:35:00Z</time>
      </trkpt>
      <trkpt lat="45.2595" lon="5.24478">
        <ele>527.7</ele>
        <time>2022-04-28T13:35:01Z</time>
      </trkpt>
      <trkpt lat="45.25945" lon="5.24471">
        <ele>527.4</ele>
        <time>2022-04-28T13:35:02Z</time>
      </trkpt>
      <trkpt lat="45.2594" lon="5.24464">
        <ele>527.1</ele>
        <time>2022-04-28T13:35:03Z</time>
      </trkpt>
      <trkpt lat="45.25935" lon="5.24457">
        <ele>526.8</ele>
        <time>2022-04-28T13:35:04Z</time>
      </trkpt>
      <trkpt lat="45.2593" lon="5.24449">
        <ele>526.4</ele>
        <time>2022-04-28T13:35:05Z</time>
      </trkpt>
      <trkpt lat="45.25924" lon="5.24441">
        <ele>525.9</ele>
        <time>2022-04-28T13:35:06Z</time>
      </trkpt>
      <trkpt lat="45.25918" lon="5.24435">
        <ele>525.3</ele>
        <time>2022-04-28T13:35:07Z</time>
      </trkpt>
      <trkpt lat="45.25913" lon="5.24428">
        <ele>524.9</ele>
        <time>2022-04-28T13:35:08Z</time>
      </trkpt>
      <trkpt lat="45.25908" lon="5.24422">
        <ele>524.5</ele>
        <time>2022-04-28T13:35:09Z</time>
      </trkpt>
      <trkpt lat="45.25903" lon="5.24416">
        <ele>524.2</ele>
        <time>2022-04-28T13:35:10Z</time>
      </trkpt>
      <trkpt lat="45.25897" lon="5.2441">
        <ele>523.7</ele>
        <time>2022-04-28T13:35:11Z</time>
      </trkpt>
      <trkpt lat="45.25892" lon="5.24404">
        <ele>523.2</ele>
        <time>2022-04-28T13:35:12Z</time>
      </trkpt>
      <trkpt lat="45.25887" lon="5.24399">
        <ele>522.8</ele>
        <time>2022-04-28T13:35:13Z</time>
      </trkpt>
      <trkpt lat="45.25883" lon="5.24395">
        <ele>522.4</ele>
        <time>2022-04-28T13:35:14Z</time>
      </trkpt>
      <trkpt lat="45.25879" lon="5.24392">
        <ele>522</ele>
        <time>2022-04-28T13:35:15Z</time>
      </trkpt>
      <trkpt lat="45.25876" lon="5.24389">
        <ele>521.7</ele>
        <time>2022-04-28T13:35:16Z</time>
      </trkpt>
      <trkpt lat="45.25871" lon="5.24386">
        <ele>521.3</ele>
        <time>2022-04-28T13:35:17Z</time>
      </trkpt>
      <trkpt lat="45.25867" lon="5.24384">
        <ele>521</ele>
        <time>2022-04-28T13:35:18Z</time>
      </trkpt>
      <trkpt lat="45.25864" lon="5.24382">
        <ele>520.7</ele>
        <time>2022-04-28T13:35:19Z</time>
      </trkpt>
      <trkpt lat="45.25859" lon="5.2438">
        <ele>520.4</ele>
        <time>2022-04-28T13:35:20Z</time>
      </trkpt>
      <trkpt lat="45.25856" lon="5.24378">
        <ele>520.2</ele>
        <time>2022-04-28T13:35:21Z</time>
      </trkpt>
      <trkpt lat="45.25852" lon="5.24377">
        <ele>520</ele>
        <time>2022-04-28T13:35:22Z</time>
      </trkpt>
      <trkpt lat="45.2585" lon="5.24374">
        <ele>519.8</ele>
        <time>2022-04-28T13:35:23Z</time>
      </trkpt>
      <trkpt lat="45.25844" lon="5.24371">
        <ele>519.4</ele>
        <time>2022-04-28T13:35:24Z</time>
      </trkpt>
      <trkpt lat="45.25839" lon="5.24369">
        <ele>519.2</ele>
        <time>2022-04-28T13:35:25Z</time>
      </trkpt>
      <trkpt lat="45.25836" lon="5.24367">
        <ele>518.9</ele>
        <time>2022-04-28T13:35:26Z</time>
      </trkpt>
      <trkpt lat="45.25833" lon="5.24367">
        <ele>518.7</ele>
        <time>2022-04-28T13:35:27Z</time>
      </trkpt>
      <trkpt lat="45.25828" lon="5.24364">
        <ele>518.3</ele>
        <time>2022-04-28T13:35:28Z</time>
      </trkpt>
      <trkpt lat="45.25825" lon="5.24364">
        <ele>518.1</ele>
        <time>2022-04-28T13:35:29Z</time>
      </trkpt>
      <trkpt lat="45.25821" lon="5.24362">
        <ele>517.8</ele>
        <time>2022-04-28T13:35:31Z</time>
      </trkpt>
      <trkpt lat="45.25817" lon="5.24361">
        <ele>517.7</ele>
        <time>2022-04-28T13:35:32Z</time>
      </trkpt>
      <trkpt lat="45.25814" lon="5.24362">
        <ele>517.6</ele>
        <time>2022-04-28T13:35:33Z</time>
      </trkpt>
      <trkpt lat="45.25813" lon="5.24363">
        <ele>517.6</ele>
        <time>2022-04-28T13:35:34Z</time>
      </trkpt>
      <trkpt lat="45.25811" lon="5.24364">
        <ele>517.5</ele>
        <time>2022-04-28T13:35:35Z</time>
      </trkpt>
      <trkpt lat="45.25812" lon="5.24363">
        <ele>517.5</ele>
        <time>2022-04-28T13:35:36Z</time>
      </trkpt>
      <trkpt lat="45.25812" lon="5.24363">
        <ele>517.5</ele>
        <time>2022-04-28T13:35:37Z</time>
      </trkpt>
      <trkpt lat="45.2581" lon="5.24362">
        <ele>517.5</ele>
        <time>2022-04-28T13:35:38Z</time>
      </trkpt>
      <trkpt lat="45.2581" lon="5.24365">
        <ele>517.5</ele>
        <time>2022-04-28T13:35:40Z</time>
      </trkpt>
      <trkpt lat="45.25807" lon="5.24368">
        <ele>517.4</ele>
        <time>2022-04-28T13:35:41Z</time>
      </trkpt>
      <trkpt lat="45.25806" lon="5.24374">
        <ele>517.3</ele>
        <time>2022-04-28T13:35:42Z</time>
      </trkpt>
      <trkpt lat="45.25801" lon="5.24374">
        <ele>517.2</ele>
        <time>2022-04-28T13:35:43Z</time>
      </trkpt>
      <trkpt lat="45.25797" lon="5.24376">
        <ele>517.1</ele>
        <time>2022-04-28T13:35:44Z</time>
      </trkpt>
      <trkpt lat="45.25796" lon="5.2438">
        <ele>517</ele>
        <time>2022-04-28T13:35:46Z</time>
      </trkpt>
      <trkpt lat="45.25795" lon="5.24386">
        <ele>516.9</ele>
        <time>2022-04-28T13:35:47Z</time>
      </trkpt>
      <trkpt lat="45.25792" lon="5.24391">
        <ele>516.8</ele>
        <time>2022-04-28T13:35:49Z</time>
      </trkpt>
      <trkpt lat="45.25789" lon="5.2439">
        <ele>516.7</ele>
        <time>2022-04-28T13:35:50Z</time>
      </trkpt>
      <trkpt lat="45.25788" lon="5.2439">
        <ele>516.7</ele>
        <time>2022-04-28T13:35:51Z</time>
      </trkpt>
      <trkpt lat="45.25785" lon="5.24388">
        <ele>516.6</ele>
        <time>2022-04-28T13:35:52Z</time>
      </trkpt>
      <trkpt lat="45.25782" lon="5.24386">
        <ele>516.6</ele>
        <time>2022-04-28T13:35:53Z</time>
      </trkpt>
      <trkpt lat="45.25782" lon="5.24385">
        <ele>516.6</ele>
        <time>2022-04-28T13:35:54Z</time>
      </trkpt>
      <trkpt lat="45.2578" lon="5.24383">
        <ele>516.6</ele>
        <time>2022-04-28T13:35:55Z</time>
      </trkpt>
      <trkpt lat="45.25779" lon="5.24382">
        <ele>516.6</ele>
        <time>2022-04-28T13:35:56Z</time>
      </trkpt>
      <trkpt lat="45.25778" lon="5.24381">
        <ele>516.5</ele>
        <time>2022-04-28T13:35:57Z</time>
      </trkpt>
      <trkpt lat="45.25778" lon="5.2438">
        <ele>516.5</ele>
        <time>2022-04-28T13:35:58Z</time>
      </trkpt>
      <trkpt lat="45.25777" lon="5.24379">
        <ele>516.5</ele>
        <time>2022-04-28T13:35:59Z</time>
      </trkpt>
      <trkpt lat="45.25777" lon="5.24379">
        <ele>516.5</ele>
        <time>2022-04-28T13:36:00Z</time>
      </trkpt>
      <trkpt lat="45.25777" lon="5.24378">
        <ele>516.5</ele>
        <time>2022-04-28T13:36:01Z</time>
      </trkpt>
      <trkpt lat="45.25776" lon="5.24376">
        <ele>516.5</ele>
        <time>2022-04-28T13:36:02Z</time>
      </trkpt>
      <trkpt lat="45.25775" lon="5.24375">
        <ele>516.5</ele>
        <time>2022-04-28T13:36:03Z</time>
      </trkpt>
      <trkpt lat="45.25775" lon="5.24375">
        <ele>516.5</ele>
        <time>2022-04-28T13:36:04Z</time>
      </trkpt>
      <trkpt lat="45.25775" lon="5.24375">
        <ele>516.5</ele>
        <time>2022-04-28T13:36:05Z</time>
      </trkpt>
      <trkpt lat="45.25775" lon="5.24375">
        <ele>516.5</ele>
        <time>2022-04-28T13:36:06Z</time>
      </trkpt>
      <trkpt lat="45.25775" lon="5.24375">
        <ele>516.5</ele>
        <time>2022-04-28T13:36:07Z</time>
      </trkpt>
      <trkpt lat="45.25775" lon="5.24375">
        <ele>516.5</ele>
        <time>2022-04-28T13:36:08Z</time>
      </trkpt>
      <trkpt lat="45.25775" lon="5.24375">
        <ele>516.5</ele>
        <time>2022-04-28T13:36:09Z</time>
      </trkpt>
      <trkpt lat="45.25775" lon="5.24375">
        <ele>516.5</ele>
        <time>2022-04-28T13:36:10Z</time>
      </trkpt>
      <trkpt lat="45.25775" lon="5.24375">
        <ele>516.5</ele>
        <time>2022-04-28T13:36:11Z</time>
      </trkpt>
      <trkpt lat="45.25775" lon="5.24375">
        <ele>516.5</ele>
        <time>2022-04-28T13:36:12Z</time>
      </trkpt>
      <trkpt lat="45.25775" lon="5.24375">
        <ele>516.5</ele>
        <time>2022-04-28T13:36:13Z</time>
      </trkpt>
      <trkpt lat="45.25775" lon="5.24375">
        <ele>516.5</ele>
        <time>2022-04-28T13:36:14Z</time>
      </trkpt>
      <trkpt lat="45.25775" lon="5.24375">
        <ele>516.5</ele>
        <time>2022-04-28T13:36:15Z</time>
      </trkpt>
      <trkpt lat="45.25775" lon="5.24375">
        <ele>516.5</ele>
        <time>2022-04-28T13:36:16Z</time>
      </trkpt>
      <trkpt lat="45.25775" lon="5.24375">
        <ele>516.5</ele>
        <time>2022-04-28T13:36:17Z</time>
      </trkpt>
      <trkpt lat="45.25775" lon="5.24375">
        <ele>516.5</ele>
        <time>2022-04-28T13:36:18Z</time>
      </trkpt>
      <trkpt lat="45.25775" lon="5.24375">
        <ele>516.5</ele>
        <time>2022-04-28T13:36:19Z</time>
      </trkpt>
      <trkpt lat="45.25775" lon="5.24375">
        <ele>516.5</ele>
        <time>2022-04-28T13:36:20Z</time>
      </trkpt>
      <trkpt lat="45.25775" lon="5.24375">
        <ele>516.5</ele>
        <time>2022-04-28T13:36:21Z</time>
      </trkpt>
      <trkpt lat="45.25775" lon="5.24375">
        <ele>516.5</ele>
        <time>2022-04-28T13:36:22Z</time>
      </trkpt>
      <trkpt lat="45.25775" lon="5.24375">
        <ele>516.5</ele>
        <time>2022-04-28T13:36:23Z</time>
      </trkpt>
      <trkpt lat="45.25775" lon="5.24375">
        <ele>516.5</ele>
        <time>2022-04-28T13:36:24Z</time>
      </trkpt>
      <trkpt lat="45.25775" lon="5.24375">
        <ele>516.5</ele>
        <time>2022-04-28T13:36:25Z</time>
      </trkpt>
      <trkpt lat="45.25775" lon="5.24375">
        <ele>516.5</ele>
        <time>2022-04-28T13:36:26Z</time>
      </trkpt>
      <trkpt lat="45.25775" lon="5.24375">
        <ele>516.5</ele>
        <time>2022-04-28T13:36:27Z</time>
      </trkpt>
      <trkpt lat="45.25775" lon="5.24375">
        <ele>516.5</ele>
        <time>2022-04-28T13:36:28Z</time>
      </trkpt>
      <trkpt lat="45.25775" lon="5.24375">
        <ele>516.5</ele>
        <time>2022-04-28T13:36:29Z</time>
      </trkpt>
      <trkpt lat="45.25775" lon="5.24375">
        <ele>516.5</ele>
        <time>2022-04-28T13:36:30Z</time>
      </trkpt>
      <trkpt lat="45.25775" lon="5.24375">
        <ele>516.5</ele>
        <time>2022-04-28T13:36:31Z</time>
      </trkpt>
      <trkpt lat="45.25775" lon="5.24375">
        <ele>516.5</ele>
        <time>2022-04-28T13:36:32Z</time>
      </trkpt>
      <trkpt lat="45.25775" lon="5.24375">
        <ele>516.5</ele>
        <time>2022-04-28T13:36:33Z</time>
      </trkpt>
      <trkpt lat="45.25775" lon="5.24375">
        <ele>516.5</ele>
        <time>2022-04-28T13:36:34Z</time>
      </trkpt>
      <trkpt lat="45.25775" lon="5.24375">
        <ele>516.5</ele>
        <time>2022-04-28T13:36:35Z</time>
      </trkpt>
      <trkpt lat="45.25775" lon="5.24375">
        <ele>516.5</ele>
        <time>2022-04-28T13:36:36Z</time>
      </trkpt>
      <trkpt lat="45.25775" lon="5.24375">
        <ele>516.5</ele>
        <time>2022-04-28T13:36:37Z</time>
      </trkpt>
      <trkpt lat="45.25775" lon="5.24375">
        <ele>516.5</ele>
        <time>2022-04-28T13:36:38Z</time>
      </trkpt>
      <trkpt lat="45.25775" lon="5.24375">
        <ele>516.5</ele>
        <time>2022-04-28T13:36:39Z</time>
      </trkpt>
      <trkpt lat="45.25775" lon="5.24375">
        <ele>516.5</ele>
        <time>2022-04-28T13:36:40Z</time>
      </trkpt>
      <trkpt lat="45.25775" lon="5.24375">
        <ele>516.5</ele>
        <time>2022-04-28T13:36:41Z</time>
      </trkpt>
      <trkpt lat="45.25775" lon="5.24375">
        <ele>516.5</ele>
        <time>2022-04-28T13:36:42Z</time>
      </trkpt>
      <trkpt lat="45.25775" lon="5.24375">
        <ele>516.5</ele>
        <time>2022-04-28T13:36:43Z</time>
      </trkpt>
      <trkpt lat="45.25775" lon="5.24375">
        <ele>516.5</ele>
        <time>2022-04-28T13:36:44Z</time>
      </trkpt>
      <trkpt lat="45.25775" lon="5.24375">
        <ele>516.5</ele>
        <time>2022-04-28T13:36:45Z</time>
      </trkpt>
      <trkpt lat="45.25775" lon="5.24375">
        <ele>516.5</ele>
        <time>2022-04-28T13:36:46Z</time>
      </trkpt>
      <trkpt lat="45.25775" lon="5.24375">
        <ele>516.5</ele>
        <time>2022-04-28T13:36:47Z</time>
      </trkpt>
      <trkpt lat="45.25775" lon="5.24375">
        <ele>516.5</ele>
        <time>2022-04-28T13:36:48Z</time>
      </trkpt>
      <trkpt lat="45.25775" lon="5.24375">
        <ele>516.5</ele>
        <time>2022-04-28T13:36:49Z</time>
      </trkpt>
      <trkpt lat="45.25775" lon="5.24375">
        <ele>516.5</ele>
        <time>2022-04-28T13:36:50Z</time>
      </trkpt>
      <trkpt lat="45.25775" lon="5.24375">
        <ele>516.5</ele>
        <time>2022-04-28T13:36:51Z</time>
      </trkpt>
      <trkpt lat="45.25775" lon="5.24375">
        <ele>516.5</ele>
        <time>2022-04-28T13:36:52Z</time>
      </trkpt>
      <trkpt lat="45.25775" lon="5.24375">
        <ele>516.5</ele>
        <time>2022-04-28T13:36:53Z</time>
      </trkpt>
      <trkpt lat="45.25775" lon="5.24375">
        <ele>516.5</ele>
        <time>2022-04-28T13:36:54Z</time>
      </trkpt>
      <trkpt lat="45.25775" lon="5.24375">
        <ele>516.5</ele>
        <time>2022-04-28T13:36:55Z</time>
      </trkpt>
      <trkpt lat="45.25775" lon="5.24375">
        <ele>516.5</ele>
        <time>2022-04-28T13:36:56Z</time>
      </trkpt>
      <trkpt lat="45.25775" lon="5.24375">
        <ele>516.5</ele>
        <time>2022-04-28T13:36:57Z</time>
      </trkpt>
      <trkpt lat="45.25775" lon="5.24375">
        <ele>516.5</ele>
        <time>2022-04-28T13:36:58Z</time>
      </trkpt>
      <trkpt lat="45.25775" lon="5.24375">
        <ele>516.5</ele>
        <time>2022-04-28T13:36:59Z</time>
      </trkpt>
      <trkpt lat="45.25774" lon="5.24375">
        <ele>516.5</ele>
        <time>2022-04-28T13:37:00Z</time>
      </trkpt>
      <trkpt lat="45.25774" lon="5.24375">
        <ele>516.5</ele>
        <time>2022-04-28T13:37:01Z</time>
      </trkpt>
      <trkpt lat="45.25774" lon="5.24375">
        <ele>516.5</ele>
        <time>2022-04-28T13:37:02Z</time>
      </trkpt>
      <trkpt lat="45.25774" lon="5.24374">
        <ele>516.5</ele>
        <time>2022-04-28T13:37:03Z</time>
      </trkpt>
      <trkpt lat="45.25774" lon="5.24374">
        <ele>516.5</ele>
        <time>2022-04-28T13:37:04Z</time>
      </trkpt>
      <trkpt lat="45.25774" lon="5.24374">
        <ele>516.5</ele>
        <time>2022-04-28T13:37:05Z</time>
      </trkpt>
      <trkpt lat="45.25774" lon="5.24374">
        <ele>516.5</ele>
        <time>2022-04-28T13:37:06Z</time>
      </trkpt>
      <trkpt lat="45.25774" lon="5.24374">
        <ele>516.5</ele>
        <time>2022-04-28T13:37:07Z</time>
      </trkpt>
      <trkpt lat="45.25774" lon="5.24374">
        <ele>516.5</ele>
        <time>2022-04-28T13:37:08Z</time>
      </trkpt>
      <trkpt lat="45.25774" lon="5.24374">
        <ele>516.5</ele>
        <time>2022-04-28T13:37:09Z</time>
      </trkpt>
      <trkpt lat="45.25774" lon="5.24374">
        <ele>516.5</ele>
        <time>2022-04-28T13:37:10Z</time>
      </trkpt>
      <trkpt lat="45.25774" lon="5.24374">
        <ele>516.5</ele>
        <time>2022-04-28T13:37:11Z</time>
      </trkpt>
      <trkpt lat="45.25774" lon="5.24374">
        <ele>516.5</ele>
        <time>2022-04-28T13:37:12Z</time>
      </trkpt>
      <trkpt lat="45.2577" lon="5.24381">
        <ele>516.3</ele>
        <time>2022-04-28T13:42:04Z</time>
      </trkpt>
      <trkpt lat="45.25767" lon="5.24383">
        <ele>516.2</ele>
        <time>2022-04-28T13:42:05Z</time>
      </trkpt>
      <trkpt lat="45.25764" lon="5.24385">
        <ele>516.1</ele>
        <time>2022-04-28T13:42:06Z</time>
      </trkpt>
      <trkpt lat="45.25761" lon="5.24385">
        <ele>516</ele>
        <time>2022-04-28T13:42:07Z</time>
      </trkpt>
      <trkpt lat="45.25757" lon="5.24386">
        <ele>515.9</ele>
        <time>2022-04-28T13:42:08Z</time>
      </trkpt>
      <trkpt lat="45.25754" lon="5.24387">
        <ele>515.8</ele>
        <time>2022-04-28T13:42:09Z</time>
      </trkpt>
      <trkpt lat="45.2575" lon="5.24389">
        <ele>515.7</ele>
        <time>2022-04-28T13:42:10Z</time>
      </trkpt>
      <trkpt lat="45.25747" lon="5.2439">
        <ele>515.7</ele>
        <time>2022-04-28T13:42:11Z</time>
      </trkpt>
      <trkpt lat="45.25743" lon="5.24392">
        <ele>515.6</ele>
        <time>2022-04-28T13:42:12Z</time>
      </trkpt>
      <trkpt lat="45.25739" lon="5.24393">
        <ele>515.5</ele>
        <time>2022-04-28T13:42:13Z</time>
      </trkpt>
      <trkpt lat="45.25735" lon="5.24396">
        <ele>515.5</ele>
        <time>2022-04-28T13:42:14Z</time>
      </trkpt>
      <trkpt lat="45.25731" lon="5.24398">
        <ele>515.4</ele>
        <time>2022-04-28T13:42:15Z</time>
      </trkpt>
      <trkpt lat="45.25727" lon="5.24401">
        <ele>515.3</ele>
        <time>2022-04-28T13:42:16Z</time>
      </trkpt>
      <trkpt lat="45.25723" lon="5.24402">
        <ele>515.3</ele>
        <time>2022-04-28T13:42:17Z</time>
      </trkpt>
      <trkpt lat="45.25719" lon="5.24403">
        <ele>515.2</ele>
        <time>2022-04-28T13:42:18Z</time>
      </trkpt>
      <trkpt lat="45.25715" lon="5.24403">
        <ele>515.2</ele>
        <time>2022-04-28T13:42:19Z</time>
      </trkpt>
      <trkpt lat="45.25712" lon="5.24405">
        <ele>515.2</ele>
        <time>2022-04-28T13:42:20Z</time>
      </trkpt>
      <trkpt lat="45.2571" lon="5.24407">
        <ele>515.3</ele>
        <time>2022-04-28T13:42:21Z</time>
      </trkpt>
      <trkpt lat="45.25707" lon="5.24411">
        <ele>515.4</ele>
        <time>2022-04-28T13:42:22Z</time>
      </trkpt>
      <trkpt lat="45.25705" lon="5.24415">
        <ele>515.5</ele>
        <time>2022-04-28T13:42:23Z</time>
      </trkpt>
      <trkpt lat="45.25703" lon="5.24419">
        <ele>515.6</ele>
        <time>2022-04-28T13:42:24Z</time>
      </trkpt>
      <trkpt lat="45.25701" lon="5.24424">
        <ele>515.7</ele>
        <time>2022-04-28T13:42:25Z</time>
      </trkpt>
      <trkpt lat="45.25698" lon="5.24428">
        <ele>515.8</ele>
        <time>2022-04-28T13:42:26Z</time>
      </trkpt>
      <trkpt lat="45.25697" lon="5.24429">
        <ele>515.8</ele>
        <time>2022-04-28T13:42:27Z</time>
      </trkpt>
      <trkpt lat="45.25695" lon="5.24432">
        <ele>515.9</ele>
        <time>2022-04-28T13:42:28Z</time>
      </trkpt>
      <trkpt lat="45.25692" lon="5.24436">
        <ele>516</ele>
        <time>2022-04-28T13:42:29Z</time>
      </trkpt>
      <trkpt lat="45.25688" lon="5.2444">
        <ele>516.1</ele>
        <time>2022-04-28T13:42:30Z</time>
      </trkpt>
      <trkpt lat="45.25686" lon="5.24444">
        <ele>516.2</ele>
        <time>2022-04-28T13:42:31Z</time>
      </trkpt>
      <trkpt lat="45.25683" lon="5.24447">
        <ele>516.3</ele>
        <time>2022-04-28T13:42:32Z</time>
      </trkpt>
      <trkpt lat="45.2568" lon="5.24451">
        <ele>516.3</ele>
        <time>2022-04-28T13:42:33Z</time>
      </trkpt>
      <trkpt lat="45.25678" lon="5.24454">
        <ele>516.3</ele>
        <time>2022-04-28T13:42:34Z</time>
      </trkpt>
      <trkpt lat="45.25674" lon="5.24459">
        <ele>516.4</ele>
        <time>2022-04-28T13:42:35Z</time>
      </trkpt>
      <trkpt lat="45.25672" lon="5.24463">
        <ele>516.4</ele>
        <time>2022-04-28T13:42:36Z</time>
      </trkpt>
      <trkpt lat="45.25669" lon="5.24466">
        <ele>516.5</ele>
        <time>2022-04-28T13:42:37Z</time>
      </trkpt>
      <trkpt lat="45.25667" lon="5.24469">
        <ele>516.5</ele>
        <time>2022-04-28T13:42:38Z</time>
      </trkpt>
      <trkpt lat="45.25666" lon="5.24472">
        <ele>516.5</ele>
        <time>2022-04-28T13:42:39Z</time>
      </trkpt>
      <trkpt lat="45.25663" lon="5.24475">
        <ele>516.6</ele>
        <time>2022-04-28T13:42:40Z</time>
      </trkpt>
      <trkpt lat="45.25662" lon="5.24476">
        <ele>516.6</ele>
        <time>2022-04-28T13:42:41Z</time>
      </trkpt>
      <trkpt lat="45.25659" lon="5.24479">
        <ele>516.6</ele>
        <time>2022-04-28T13:42:42Z</time>
      </trkpt>
      <trkpt lat="45.25658" lon="5.24481">
        <ele>516.6</ele>
        <time>2022-04-28T13:42:43Z</time>
      </trkpt>
      <trkpt lat="45.25657" lon="5.24482">
        <ele>516.6</ele>
        <time>2022-04-28T13:42:44Z</time>
      </trkpt>
      <trkpt lat="45.25656" lon="5.24483">
        <ele>516.6</ele>
        <time>2022-04-28T13:42:45Z</time>
      </trkpt>
      <trkpt lat="45.25655" lon="5.24484">
        <ele>516.6</ele>
        <time>2022-04-28T13:42:46Z</time>
      </trkpt>
      <trkpt lat="45.25655" lon="5.24485">
        <ele>516.6</ele>
        <time>2022-04-28T13:42:47Z</time>
      </trkpt>
      <trkpt lat="45.25654" lon="5.24486">
        <ele>516.6</ele>
        <time>2022-04-28T13:42:48Z</time>
      </trkpt>
      <trkpt lat="45.25654" lon="5.24487">
        <ele>516.6</ele>
        <time>2022-04-28T13:42:49Z</time>
      </trkpt>
      <trkpt lat="45.25653" lon="5.24487">
        <ele>516.6</ele>
        <time>2022-04-28T13:42:50Z</time>
      </trkpt>
      <trkpt lat="45.25652" lon="5.24488">
        <ele>516.6</ele>
        <time>2022-04-28T13:42:51Z</time>
      </trkpt>
      <trkpt lat="45.25652" lon="5.24489">
        <ele>516.6</ele>
        <time>2022-04-28T13:42:52Z</time>
      </trkpt>
      <trkpt lat="45.25651" lon="5.2449">
        <ele>516.6</ele>
        <time>2022-04-28T13:42:53Z</time>
      </trkpt>
      <trkpt lat="45.2565" lon="5.24491">
        <ele>516.6</ele>
        <time>2022-04-28T13:42:54Z</time>
      </trkpt>
      <trkpt lat="45.2565" lon="5.24492">
        <ele>516.6</ele>
        <time>2022-04-28T13:42:55Z</time>
      </trkpt>
      <trkpt lat="45.25649" lon="5.24492">
        <ele>516.6</ele>
        <time>2022-04-28T13:43:54Z</time>
      </trkpt>
      <trkpt lat="45.25649" lon="5.24493">
        <ele>516.6</ele>
        <time>2022-04-28T13:43:55Z</time>
      </trkpt>
      <trkpt lat="45.25645" lon="5.24497">
        <ele>516.6</ele>
        <time>2022-04-28T13:43:56Z</time>
      </trkpt>
      <trkpt lat="45.25641" lon="5.24501">
        <ele>516.6</ele>
        <time>2022-04-28T13:43:57Z</time>
      </trkpt>
      <trkpt lat="45.25638" lon="5.24505">
        <ele>516.6</ele>
        <time>2022-04-28T13:43:58Z</time>
      </trkpt>
      <trkpt lat="45.25635" lon="5.2451">
        <ele>516.6</ele>
        <time>2022-04-28T13:43:59Z</time>
      </trkpt>
      <trkpt lat="45.25631" lon="5.24514">
        <ele>516.6</ele>
        <time>2022-04-28T13:44:00Z</time>
      </trkpt>
      <trkpt lat="45.25627" lon="5.24518">
        <ele>516.6</ele>
        <time>2022-04-28T13:44:01Z</time>
      </trkpt>
      <trkpt lat="45.25624" lon="5.24522">
        <ele>516.7</ele>
        <time>2022-04-28T13:44:02Z</time>
      </trkpt>
      <trkpt lat="45.2562" lon="5.24527">
        <ele>516.8</ele>
        <time>2022-04-28T13:44:03Z</time>
      </trkpt>
      <trkpt lat="45.25616" lon="5.24531">
        <ele>516.8</ele>
        <time>2022-04-28T13:44:04Z</time>
      </trkpt>
      <trkpt lat="45.25612" lon="5.24534">
        <ele>516.9</ele>
        <time>2022-04-28T13:44:05Z</time>
      </trkpt>
      <trkpt lat="45.25608" lon="5.24537">
        <ele>516.9</ele>
        <time>2022-04-28T13:44:06Z</time>
      </trkpt>
      <trkpt lat="45.25605" lon="5.24541">
        <ele>516.9</ele>
        <time>2022-04-28T13:44:07Z</time>
      </trkpt>
      <trkpt lat="45.25601" lon="5.24544">
        <ele>517</ele>
        <time>2022-04-28T13:44:08Z</time>
      </trkpt>
      <trkpt lat="45.25597" lon="5.24548">
        <ele>517.1</ele>
        <time>2022-04-28T13:44:09Z</time>
      </trkpt>
      <trkpt lat="45.25593" lon="5.24551">
        <ele>517.1</ele>
        <time>2022-04-28T13:44:10Z</time>
      </trkpt>
      <trkpt lat="45.25589" lon="5.24554">
        <ele>517.1</ele>
        <time>2022-04-28T13:44:11Z</time>
      </trkpt>
      <trkpt lat="45.25585" lon="5.24557">
        <ele>517.2</ele>
        <time>2022-04-28T13:44:12Z</time>
      </trkpt>
      <trkpt lat="45.25581" lon="5.2456">
        <ele>517.2</ele>
        <time>2022-04-28T13:44:13Z</time>
      </trkpt>
      <trkpt lat="45.25578" lon="5.24563">
        <ele>517.3</ele>
        <time>2022-04-28T13:44:14Z</time>
      </trkpt>
      <trkpt lat="45.25575" lon="5.24566">
        <ele>517.3</ele>
        <time>2022-04-28T13:44:15Z</time>
      </trkpt>
      <trkpt lat="45.25572" lon="5.24569">
        <ele>517.4</ele>
        <time>2022-04-28T13:44:16Z</time>
      </trkpt>
      <trkpt lat="45.25569" lon="5.24572">
        <ele>517.4</ele>
        <time>2022-04-28T13:44:17Z</time>
      </trkpt>
      <trkpt lat="45.25565" lon="5.24575">
        <ele>517.4</ele>
        <time>2022-04-28T13:44:18Z</time>
      </trkpt>
      <trkpt lat="45.25561" lon="5.24578">
        <ele>517.5</ele>
        <time>2022-04-28T13:44:19Z</time>
      </trkpt>
      <trkpt lat="45.25557" lon="5.24581">
        <ele>517.5</ele>
        <time>2022-04-28T13:44:20Z</time>
      </trkpt>
      <trkpt lat="45.25552" lon="5.24585">
        <ele>517.6</ele>
        <time>2022-04-28T13:44:21Z</time>
      </trkpt>
      <trkpt lat="45.25547" lon="5.24587">
        <ele>517.6</ele>
        <time>2022-04-28T13:44:22Z</time>
      </trkpt>
      <trkpt lat="45.25541" lon="5.24591">
        <ele>517.7</ele>
        <time>2022-04-28T13:44:23Z</time>
      </trkpt>
      <trkpt lat="45.25537" lon="5.24593">
        <ele>517.7</ele>
        <time>2022-04-28T13:44:24Z</time>
      </trkpt>
      <trkpt lat="45.25534" lon="5.24596">
        <ele>517.7</ele>
        <time>2022-04-28T13:44:25Z</time>
      </trkpt>
      <trkpt lat="45.25528" lon="5.246">
        <ele>517.7</ele>
        <time>2022-04-28T13:44:26Z</time>
      </trkpt>
      <trkpt lat="45.25523" lon="5.24602">
        <ele>517.7</ele>
        <time>2022-04-28T13:44:27Z</time>
      </trkpt>
      <trkpt lat="45.25518" lon="5.24606">
        <ele>517.8</ele>
        <time>2022-04-28T13:44:28Z</time>
      </trkpt>
      <trkpt lat="45.25514" lon="5.24609">
        <ele>517.8</ele>
        <time>2022-04-28T13:44:29Z</time>
      </trkpt>
      <trkpt lat="45.25509" lon="5.24611">
        <ele>517.8</ele>
        <time>2022-04-28T13:44:30Z</time>
      </trkpt>
      <trkpt lat="45.25504" lon="5.24614">
        <ele>517.8</ele>
        <time>2022-04-28T13:44:31Z</time>
      </trkpt>
      <trkpt lat="45.25498" lon="5.24617">
        <ele>517.9</ele>
        <time>2022-04-28T13:44:32Z</time>
      </trkpt>
      <trkpt lat="45.25494" lon="5.24621">
        <ele>517.9</ele>
        <time>2022-04-28T13:44:33Z</time>
      </trkpt>
      <trkpt lat="45.25489" lon="5.24624">
        <ele>517.9</ele>
        <time>2022-04-28T13:44:34Z</time>
      </trkpt>
      <trkpt lat="45.25484" lon="5.24626">
        <ele>517.9</ele>
        <time>2022-04-28T13:44:35Z</time>
      </trkpt>
      <trkpt lat="45.2548" lon="5.24629">
        <ele>518</ele>
        <time>2022-04-28T13:44:36Z</time>
      </trkpt>
      <trkpt lat="45.25475" lon="5.24633">
        <ele>518</ele>
        <time>2022-04-28T13:44:37Z</time>
      </trkpt>
      <trkpt lat="45.25471" lon="5.24636">
        <ele>518</ele>
        <time>2022-04-28T13:44:38Z</time>
      </trkpt>
      <trkpt lat="45.25468" lon="5.24639">
        <ele>518.1</ele>
        <time>2022-04-28T13:44:39Z</time>
      </trkpt>
      <trkpt lat="45.25463" lon="5.24642">
        <ele>518.1</ele>
        <time>2022-04-28T13:44:40Z</time>
      </trkpt>
      <trkpt lat="45.25458" lon="5.24645">
        <ele>518.2</ele>
        <time>2022-04-28T13:44:41Z</time>
      </trkpt>
      <trkpt lat="45.25454" lon="5.24648">
        <ele>518.2</ele>
        <time>2022-04-28T13:44:42Z</time>
      </trkpt>
      <trkpt lat="45.25449" lon="5.24651">
        <ele>518.2</ele>
        <time>2022-04-28T13:44:43Z</time>
      </trkpt>
      <trkpt lat="45.25446" lon="5.24652">
        <ele>518.3</ele>
        <time>2022-04-28T13:44:44Z</time>
      </trkpt>
      <trkpt lat="45.25441" lon="5.24653">
        <ele>518.3</ele>
        <time>2022-04-28T13:44:45Z</time>
      </trkpt>
      <trkpt lat="45.25436" lon="5.24656">
        <ele>518.3</ele>
        <time>2022-04-28T13:44:46Z</time>
      </trkpt>
      <trkpt lat="45.25431" lon="5.2466">
        <ele>518.4</ele>
        <time>2022-04-28T13:44:47Z</time>
      </trkpt>
      <trkpt lat="45.25426" lon="5.24664">
        <ele>518.4</ele>
        <time>2022-04-28T13:44:48Z</time>
      </trkpt>
      <trkpt lat="45.25422" lon="5.24668">
        <ele>518.4</ele>
        <time>2022-04-28T13:44:49Z</time>
      </trkpt>
      <trkpt lat="45.25417" lon="5.24671">
        <ele>518.5</ele>
        <time>2022-04-28T13:44:50Z</time>
      </trkpt>
      <trkpt lat="45.25412" lon="5.24674">
        <ele>518.5</ele>
        <time>2022-04-28T13:44:51Z</time>
      </trkpt>
      <trkpt lat="45.25407" lon="5.24676">
        <ele>518.6</ele>
        <time>2022-04-28T13:44:52Z</time>
      </trkpt>
      <trkpt lat="45.25402" lon="5.24679">
        <ele>518.6</ele>
        <time>2022-04-28T13:44:53Z</time>
      </trkpt>
      <trkpt lat="45.25397" lon="5.24681">
        <ele>518.6</ele>
        <time>2022-04-28T13:44:54Z</time>
      </trkpt>
      <trkpt lat="45.25392" lon="5.24685">
        <ele>518.7</ele>
        <time>2022-04-28T13:44:55Z</time>
      </trkpt>
      <trkpt lat="45.25387" lon="5.24688">
        <ele>518.7</ele>
        <time>2022-04-28T13:44:56Z</time>
      </trkpt>
      <trkpt lat="45.25382" lon="5.2469">
        <ele>518.7</ele>
        <time>2022-04-28T13:44:57Z</time>
      </trkpt>
      <trkpt lat="45.25377" lon="5.24693">
        <ele>518.7</ele>
        <time>2022-04-28T13:44:58Z</time>
      </trkpt>
      <trkpt lat="45.25373" lon="5.24696">
        <ele>518.6</ele>
        <time>2022-04-28T13:44:59Z</time>
      </trkpt>
      <trkpt lat="45.25368" lon="5.24699">
        <ele>518.6</ele>
        <time>2022-04-28T13:45:00Z</time>
      </trkpt>
      <trkpt lat="45.25364" lon="5.24702">
        <ele>518.6</ele>
        <time>2022-04-28T13:45:01Z</time>
      </trkpt>
      <trkpt lat="45.25359" lon="5.24705">
        <ele>518.6</ele>
        <time>2022-04-28T13:45:02Z</time>
      </trkpt>
      <trkpt lat="45.25354" lon="5.24709">
        <ele>518.7</ele>
        <time>2022-04-28T13:45:03Z</time>
      </trkpt>
      <trkpt lat="45.25349" lon="5.24712">
        <ele>518.7</ele>
        <time>2022-04-28T13:45:04Z</time>
      </trkpt>
      <trkpt lat="45.25344" lon="5.24715">
        <ele>518.7</ele>
        <time>2022-04-28T13:45:05Z</time>
      </trkpt>
      <trkpt lat="45.25339" lon="5.24717">
        <ele>518.8</ele>
        <time>2022-04-28T13:45:06Z</time>
      </trkpt>
      <trkpt lat="45.25333" lon="5.24719">
        <ele>518.8</ele>
        <time>2022-04-28T13:45:07Z</time>
      </trkpt>
      <trkpt lat="45.25328" lon="5.24721">
        <ele>518.9</ele>
        <time>2022-04-28T13:45:08Z</time>
      </trkpt>
      <trkpt lat="45.25323" lon="5.24724">
        <ele>518.9</ele>
        <time>2022-04-28T13:45:09Z</time>
      </trkpt>
      <trkpt lat="45.25319" lon="5.24728">
        <ele>519</ele>
        <time>2022-04-28T13:45:10Z</time>
      </trkpt>
      <trkpt lat="45.25314" lon="5.24731">
        <ele>519</ele>
        <time>2022-04-28T13:45:11Z</time>
      </trkpt>
      <trkpt lat="45.25309" lon="5.24733">
        <ele>519.1</ele>
        <time>2022-04-28T13:45:12Z</time>
      </trkpt>
      <trkpt lat="45.25304" lon="5.24735">
        <ele>519.2</ele>
        <time>2022-04-28T13:45:13Z</time>
      </trkpt>
      <trkpt lat="45.25299" lon="5.24737">
        <ele>519.2</ele>
        <time>2022-04-28T13:45:14Z</time>
      </trkpt>
      <trkpt lat="45.25294" lon="5.24737">
        <ele>519.3</ele>
        <time>2022-04-28T13:45:15Z</time>
      </trkpt>
      <trkpt lat="45.25289" lon="5.24738">
        <ele>519.3</ele>
        <time>2022-04-28T13:45:16Z</time>
      </trkpt>
      <trkpt lat="45.25284" lon="5.24739">
        <ele>519.3</ele>
        <time>2022-04-28T13:45:17Z</time>
      </trkpt>
      <trkpt lat="45.25279" lon="5.24739">
        <ele>519.4</ele>
        <time>2022-04-28T13:45:18Z</time>
      </trkpt>
      <trkpt lat="45.25273" lon="5.2474">
        <ele>519.4</ele>
        <time>2022-04-28T13:45:19Z</time>
      </trkpt>
      <trkpt lat="45.25267" lon="5.2474">
        <ele>519.5</ele>
        <time>2022-04-28T13:45:20Z</time>
      </trkpt>
      <trkpt lat="45.25262" lon="5.2474">
        <ele>519.5</ele>
        <time>2022-04-28T13:45:21Z</time>
      </trkpt>
      <trkpt lat="45.25257" lon="5.24739">
        <ele>519.6</ele>
        <time>2022-04-28T13:45:22Z</time>
      </trkpt>
      <trkpt lat="45.25251" lon="5.24739">
        <ele>519.7</ele>
        <time>2022-04-28T13:45:23Z</time>
      </trkpt>
      <trkpt lat="45.25246" lon="5.24738">
        <ele>519.8</ele>
        <time>2022-04-28T13:45:24Z</time>
      </trkpt>
      <trkpt lat="45.25241" lon="5.24738">
        <ele>519.8</ele>
        <time>2022-04-28T13:45:25Z</time>
      </trkpt>
      <trkpt lat="45.25237" lon="5.24738">
        <ele>519.9</ele>
        <time>2022-04-28T13:45:26Z</time>
      </trkpt>
      <trkpt lat="45.25232" lon="5.24738">
        <ele>519.9</ele>
        <time>2022-04-28T13:45:27Z</time>
      </trkpt>
      <trkpt lat="45.25228" lon="5.24737">
        <ele>519.9</ele>
        <time>2022-04-28T13:45:28Z</time>
      </trkpt>
      <trkpt lat="45.25223" lon="5.24738">
        <ele>520</ele>
        <time>2022-04-28T13:45:29Z</time>
      </trkpt>
      <trkpt lat="45.25218" lon="5.2474">
        <ele>520</ele>
        <time>2022-04-28T13:45:30Z</time>
      </trkpt>
      <trkpt lat="45.25212" lon="5.24741">
        <ele>520</ele>
        <time>2022-04-28T13:45:31Z</time>
      </trkpt>
      <trkpt lat="45.25207" lon="5.24744">
        <ele>520</ele>
        <time>2022-04-28T13:45:32Z</time>
      </trkpt>
      <trkpt lat="45.25201" lon="5.24745">
        <ele>520</ele>
        <time>2022-04-28T13:45:33Z</time>
      </trkpt>
      <trkpt lat="45.25196" lon="5.24747">
        <ele>520</ele>
        <time>2022-04-28T13:45:34Z</time>
      </trkpt>
      <trkpt lat="45.25191" lon="5.24749">
        <ele>520.1</ele>
        <time>2022-04-28T13:45:35Z</time>
      </trkpt>
      <trkpt lat="45.25185" lon="5.24751">
        <ele>520.1</ele>
        <time>2022-04-28T13:45:36Z</time>
      </trkpt>
      <trkpt lat="45.2518" lon="5.24754">
        <ele>520.1</ele>
        <time>2022-04-28T13:45:37Z</time>
      </trkpt>
      <trkpt lat="45.25175" lon="5.24757">
        <ele>520.2</ele>
        <time>2022-04-28T13:45:38Z</time>
      </trkpt>
      <trkpt lat="45.2517" lon="5.24759">
        <ele>520.2</ele>
        <time>2022-04-28T13:45:39Z</time>
      </trkpt>
      <trkpt lat="45.25165" lon="5.24761">
        <ele>520.2</ele>
        <time>2022-04-28T13:45:40Z</time>
      </trkpt>
      <trkpt lat="45.2516" lon="5.24764">
        <ele>520.2</ele>
        <time>2022-04-28T13:45:41Z</time>
      </trkpt>
      <trkpt lat="45.25155" lon="5.24767">
        <ele>520.2</ele>
        <time>2022-04-28T13:45:42Z</time>
      </trkpt>
      <trkpt lat="45.2515" lon="5.2477">
        <ele>520.2</ele>
        <time>2022-04-28T13:45:43Z</time>
      </trkpt>
      <trkpt lat="45.25144" lon="5.24773">
        <ele>520.2</ele>
        <time>2022-04-28T13:45:44Z</time>
      </trkpt>
      <trkpt lat="45.25139" lon="5.24776">
        <ele>520.2</ele>
        <time>2022-04-28T13:45:45Z</time>
      </trkpt>
      <trkpt lat="45.25134" lon="5.2478">
        <ele>520.2</ele>
        <time>2022-04-28T13:45:46Z</time>
      </trkpt>
      <trkpt lat="45.25129" lon="5.24782">
        <ele>520.2</ele>
        <time>2022-04-28T13:45:47Z</time>
      </trkpt>
      <trkpt lat="45.25125" lon="5.24786">
        <ele>520.3</ele>
        <time>2022-04-28T13:45:48Z</time>
      </trkpt>
      <trkpt lat="45.2512" lon="5.24789">
        <ele>520.3</ele>
        <time>2022-04-28T13:45:49Z</time>
      </trkpt>
      <trkpt lat="45.25115" lon="5.24792">
        <ele>520.4</ele>
        <time>2022-04-28T13:45:50Z</time>
      </trkpt>
      <trkpt lat="45.2511" lon="5.24795">
        <ele>520.4</ele>
        <time>2022-04-28T13:45:51Z</time>
      </trkpt>
      <trkpt lat="45.25105" lon="5.24798">
        <ele>520.4</ele>
        <time>2022-04-28T13:45:52Z</time>
      </trkpt>
      <trkpt lat="45.251" lon="5.248">
        <ele>520.5</ele>
        <time>2022-04-28T13:45:53Z</time>
      </trkpt>
      <trkpt lat="45.25095" lon="5.24804">
        <ele>520.5</ele>
        <time>2022-04-28T13:45:54Z</time>
      </trkpt>
      <trkpt lat="45.25091" lon="5.24807">
        <ele>520.5</ele>
        <time>2022-04-28T13:45:55Z</time>
      </trkpt>
      <trkpt lat="45.25086" lon="5.2481">
        <ele>520.5</ele>
        <time>2022-04-28T13:45:56Z</time>
      </trkpt>
      <trkpt lat="45.25082" lon="5.24814">
        <ele>520.6</ele>
        <time>2022-04-28T13:45:57Z</time>
      </trkpt>
      <trkpt lat="45.25077" lon="5.24818">
        <ele>520.6</ele>
        <time>2022-04-28T13:45:58Z</time>
      </trkpt>
      <trkpt lat="45.25073" lon="5.24822">
        <ele>520.6</ele>
        <time>2022-04-28T13:45:59Z</time>
      </trkpt>
      <trkpt lat="45.25068" lon="5.24825">
        <ele>520.6</ele>
        <time>2022-04-28T13:46:00Z</time>
      </trkpt>
      <trkpt lat="45.25062" lon="5.24828">
        <ele>520.6</ele>
        <time>2022-04-28T13:46:01Z</time>
      </trkpt>
      <trkpt lat="45.25057" lon="5.24832">
        <ele>520.6</ele>
        <time>2022-04-28T13:46:02Z</time>
      </trkpt>
      <trkpt lat="45.25053" lon="5.24835">
        <ele>520.6</ele>
        <time>2022-04-28T13:46:03Z</time>
      </trkpt>
      <trkpt lat="45.25048" lon="5.24838">
        <ele>520.6</ele>
        <time>2022-04-28T13:46:04Z</time>
      </trkpt>
      <trkpt lat="45.25042" lon="5.24842">
        <ele>520.7</ele>
        <time>2022-04-28T13:46:05Z</time>
      </trkpt>
      <trkpt lat="45.25038" lon="5.24845">
        <ele>520.7</ele>
        <time>2022-04-28T13:46:06Z</time>
      </trkpt>
      <trkpt lat="45.25032" lon="5.24849">
        <ele>520.7</ele>
        <time>2022-04-28T13:46:07Z</time>
      </trkpt>
      <trkpt lat="45.25028" lon="5.24852">
        <ele>520.7</ele>
        <time>2022-04-28T13:46:08Z</time>
      </trkpt>
      <trkpt lat="45.25023" lon="5.24856">
        <ele>520.7</ele>
        <time>2022-04-28T13:46:09Z</time>
      </trkpt>
      <trkpt lat="45.25018" lon="5.2486">
        <ele>520.7</ele>
        <time>2022-04-28T13:46:10Z</time>
      </trkpt>
      <trkpt lat="45.25013" lon="5.24863">
        <ele>520.7</ele>
        <time>2022-04-28T13:46:11Z</time>
      </trkpt>
      <trkpt lat="45.25009" lon="5.24867">
        <ele>520.7</ele>
        <time>2022-04-28T13:46:12Z</time>
      </trkpt>
      <trkpt lat="45.25003" lon="5.2487">
        <ele>520.8</ele>
        <time>2022-04-28T13:46:13Z</time>
      </trkpt>
      <trkpt lat="45.24998" lon="5.24873">
        <ele>520.8</ele>
        <time>2022-04-28T13:46:14Z</time>
      </trkpt>
      <trkpt lat="45.24993" lon="5.24877">
        <ele>520.8</ele>
        <time>2022-04-28T13:46:15Z</time>
      </trkpt>
      <trkpt lat="45.24988" lon="5.24879">
        <ele>520.8</ele>
        <time>2022-04-28T13:46:16Z</time>
      </trkpt>
      <trkpt lat="45.24983" lon="5.24882">
        <ele>520.9</ele>
        <time>2022-04-28T13:46:17Z</time>
      </trkpt>
      <trkpt lat="45.24978" lon="5.24884">
        <ele>520.9</ele>
        <time>2022-04-28T13:46:18Z</time>
      </trkpt>
      <trkpt lat="45.24973" lon="5.24886">
        <ele>521</ele>
        <time>2022-04-28T13:46:19Z</time>
      </trkpt>
      <trkpt lat="45.24968" lon="5.24889">
        <ele>521</ele>
        <time>2022-04-28T13:46:20Z</time>
      </trkpt>
      <trkpt lat="45.24962" lon="5.24891">
        <ele>521.1</ele>
        <time>2022-04-28T13:46:21Z</time>
      </trkpt>
      <trkpt lat="45.24957" lon="5.24894">
        <ele>521.1</ele>
        <time>2022-04-28T13:46:22Z</time>
      </trkpt>
      <trkpt lat="45.24952" lon="5.24896">
        <ele>521.1</ele>
        <time>2022-04-28T13:46:23Z</time>
      </trkpt>
      <trkpt lat="45.24948" lon="5.24898">
        <ele>521.1</ele>
        <time>2022-04-28T13:46:24Z</time>
      </trkpt>
      <trkpt lat="45.24943" lon="5.24899">
        <ele>521.2</ele>
        <time>2022-04-28T13:46:25Z</time>
      </trkpt>
      <trkpt lat="45.24937" lon="5.24901">
        <ele>521.2</ele>
        <time>2022-04-28T13:46:26Z</time>
      </trkpt>
      <trkpt lat="45.24932" lon="5.24903">
        <ele>521.2</ele>
        <time>2022-04-28T13:46:27Z</time>
      </trkpt>
      <trkpt lat="45.24926" lon="5.24905">
        <ele>521.2</ele>
        <time>2022-04-28T13:46:28Z</time>
      </trkpt>
      <trkpt lat="45.24921" lon="5.24906">
        <ele>521.2</ele>
        <time>2022-04-28T13:46:29Z</time>
      </trkpt>
      <trkpt lat="45.24916" lon="5.24908">
        <ele>521.3</ele>
        <time>2022-04-28T13:46:30Z</time>
      </trkpt>
      <trkpt lat="45.2491" lon="5.24909">
        <ele>521.3</ele>
        <time>2022-04-28T13:46:31Z</time>
      </trkpt>
      <trkpt lat="45.24905" lon="5.2491">
        <ele>521.3</ele>
        <time>2022-04-28T13:46:32Z</time>
      </trkpt>
      <trkpt lat="45.249" lon="5.24912">
        <ele>521.4</ele>
        <time>2022-04-28T13:46:33Z</time>
      </trkpt>
      <trkpt lat="45.24894" lon="5.24913">
        <ele>521.4</ele>
        <time>2022-04-28T13:46:34Z</time>
      </trkpt>
      <trkpt lat="45.24889" lon="5.24915">
        <ele>521.5</ele>
        <time>2022-04-28T13:46:35Z</time>
      </trkpt>
      <trkpt lat="45.24883" lon="5.24916">
        <ele>521.5</ele>
        <time>2022-04-28T13:46:36Z</time>
      </trkpt>
      <trkpt lat="45.24878" lon="5.24918">
        <ele>521.5</ele>
        <time>2022-04-28T13:46:37Z</time>
      </trkpt>
      <trkpt lat="45.24873" lon="5.24919">
        <ele>521.5</ele>
        <time>2022-04-28T13:46:38Z</time>
      </trkpt>
      <trkpt lat="45.24867" lon="5.24921">
        <ele>521.5</ele>
        <time>2022-04-28T13:46:39Z</time>
      </trkpt>
      <trkpt lat="45.24862" lon="5.24922">
        <ele>521.6</ele>
        <time>2022-04-28T13:46:40Z</time>
      </trkpt>
      <trkpt lat="45.24856" lon="5.24924">
        <ele>521.6</ele>
        <time>2022-04-28T13:46:41Z</time>
      </trkpt>
      <trkpt lat="45.24851" lon="5.24926">
        <ele>521.6</ele>
        <time>2022-04-28T13:46:42Z</time>
      </trkpt>
      <trkpt lat="45.24846" lon="5.24928">
        <ele>521.6</ele>
        <time>2022-04-28T13:46:43Z</time>
      </trkpt>
      <trkpt lat="45.2484" lon="5.24929">
        <ele>521.7</ele>
        <time>2022-04-28T13:46:44Z</time>
      </trkpt>
      <trkpt lat="45.24835" lon="5.2493">
        <ele>521.7</ele>
        <time>2022-04-28T13:46:45Z</time>
      </trkpt>
      <trkpt lat="45.24829" lon="5.24932">
        <ele>521.7</ele>
        <time>2022-04-28T13:46:46Z</time>
      </trkpt>
      <trkpt lat="45.24824" lon="5.24933">
        <ele>521.7</ele>
        <time>2022-04-28T13:46:47Z</time>
      </trkpt>
      <trkpt lat="45.24818" lon="5.24934">
        <ele>521.8</ele>
        <time>2022-04-28T13:46:48Z</time>
      </trkpt>
      <trkpt lat="45.24813" lon="5.24935">
        <ele>521.8</ele>
        <time>2022-04-28T13:46:49Z</time>
      </trkpt>
      <trkpt lat="45.24807" lon="5.24936">
        <ele>521.8</ele>
        <time>2022-04-28T13:46:50Z</time>
      </trkpt>
      <trkpt lat="45.24802" lon="5.24937">
        <ele>521.9</ele>
        <time>2022-04-28T13:46:51Z</time>
      </trkpt>
      <trkpt lat="45.24796" lon="5.24936">
        <ele>521.9</ele>
        <time>2022-04-28T13:46:52Z</time>
      </trkpt>
      <trkpt lat="45.24791" lon="5.24936">
        <ele>521.9</ele>
        <time>2022-04-28T13:46:53Z</time>
      </trkpt>
      <trkpt lat="45.24786" lon="5.24934">
        <ele>522</ele>
        <time>2022-04-28T13:46:54Z</time>
      </trkpt>
      <trkpt lat="45.2478" lon="5.24933">
        <ele>522</ele>
        <time>2022-04-28T13:46:55Z</time>
      </trkpt>
      <trkpt lat="45.24775" lon="5.24932">
        <ele>522</ele>
        <time>2022-04-28T13:46:56Z</time>
      </trkpt>
      <trkpt lat="45.2477" lon="5.24929">
        <ele>522.1</ele>
        <time>2022-04-28T13:46:57Z</time>
      </trkpt>
      <trkpt lat="45.24765" lon="5.24927">
        <ele>522.1</ele>
        <time>2022-04-28T13:46:58Z</time>
      </trkpt>
      <trkpt lat="45.2476" lon="5.24925">
        <ele>522.1</ele>
        <time>2022-04-28T13:46:59Z</time>
      </trkpt>
      <trkpt lat="45.24755" lon="5.24922">
        <ele>522.1</ele>
        <time>2022-04-28T13:47:00Z</time>
      </trkpt>
      <trkpt lat="45.2475" lon="5.24919">
        <ele>522.1</ele>
        <time>2022-04-28T13:47:01Z</time>
      </trkpt>
      <trkpt lat="45.24746" lon="5.24917">
        <ele>522.2</ele>
        <time>2022-04-28T13:47:02Z</time>
      </trkpt>
      <trkpt lat="45.24741" lon="5.24914">
        <ele>522.2</ele>
        <time>2022-04-28T13:47:03Z</time>
      </trkpt>
      <trkpt lat="45.24736" lon="5.24911">
        <ele>522.2</ele>
        <time>2022-04-28T13:47:04Z</time>
      </trkpt>
      <trkpt lat="45.24731" lon="5.24908">
        <ele>522.2</ele>
        <time>2022-04-28T13:47:05Z</time>
      </trkpt>
      <trkpt lat="45.24726" lon="5.24906">
        <ele>522.2</ele>
        <time>2022-04-28T13:47:06Z</time>
      </trkpt>
      <trkpt lat="45.2472" lon="5.24903">
        <ele>522.2</ele>
        <time>2022-04-28T13:47:07Z</time>
      </trkpt>
      <trkpt lat="45.24715" lon="5.24901">
        <ele>522.3</ele>
        <time>2022-04-28T13:47:08Z</time>
      </trkpt>
      <trkpt lat="45.2471" lon="5.24899">
        <ele>522.3</ele>
        <time>2022-04-28T13:47:09Z</time>
      </trkpt>
      <trkpt lat="45.24705" lon="5.24896">
        <ele>522.3</ele>
        <time>2022-04-28T13:47:10Z</time>
      </trkpt>
      <trkpt lat="45.247" lon="5.24894">
        <ele>522.4</ele>
        <time>2022-04-28T13:47:11Z</time>
      </trkpt>
      <trkpt lat="45.24694" lon="5.24892">
        <ele>522.4</ele>
        <time>2022-04-28T13:47:12Z</time>
      </trkpt>
      <trkpt lat="45.24689" lon="5.24889">
        <ele>522.4</ele>
        <time>2022-04-28T13:47:13Z</time>
      </trkpt>
      <trkpt lat="45.24684" lon="5.24887">
        <ele>522.4</ele>
        <time>2022-04-28T13:47:14Z</time>
      </trkpt>
      <trkpt lat="45.24678" lon="5.24884">
        <ele>522.4</ele>
        <time>2022-04-28T13:47:15Z</time>
      </trkpt>
      <trkpt lat="45.24673" lon="5.24882">
        <ele>522.4</ele>
        <time>2022-04-28T13:47:16Z</time>
      </trkpt>
      <trkpt lat="45.24668" lon="5.2488">
        <ele>522.4</ele>
        <time>2022-04-28T13:47:17Z</time>
      </trkpt>
      <trkpt lat="45.24663" lon="5.24878">
        <ele>522.4</ele>
        <time>2022-04-28T13:47:18Z</time>
      </trkpt>
      <trkpt lat="45.24658" lon="5.24876">
        <ele>522.4</ele>
        <time>2022-04-28T13:47:19Z</time>
      </trkpt>
      <trkpt lat="45.24653" lon="5.24874">
        <ele>522.4</ele>
        <time>2022-04-28T13:47:20Z</time>
      </trkpt>
      <trkpt lat="45.24648" lon="5.24871">
        <ele>522.4</ele>
        <time>2022-04-28T13:47:21Z</time>
      </trkpt>
      <trkpt lat="45.24643" lon="5.24869">
        <ele>522.4</ele>
        <time>2022-04-28T13:47:22Z</time>
      </trkpt>
      <trkpt lat="45.24638" lon="5.24867">
        <ele>522.4</ele>
        <time>2022-04-28T13:47:23Z</time>
      </trkpt>
      <trkpt lat="45.24633" lon="5.24865">
        <ele>522.4</ele>
        <time>2022-04-28T13:47:24Z</time>
      </trkpt>
      <trkpt lat="45.24631" lon="5.24864">
        <ele>522.4</ele>
        <time>2022-04-28T13:47:25Z</time>
      </trkpt>
      <trkpt lat="45.24625" lon="5.24861">
        <ele>522.4</ele>
        <time>2022-04-28T13:47:26Z</time>
      </trkpt>
      <trkpt lat="45.2462" lon="5.24858">
        <ele>522.4</ele>
        <time>2022-04-28T13:47:27Z</time>
      </trkpt>
      <trkpt lat="45.24614" lon="5.24856">
        <ele>522.5</ele>
        <time>2022-04-28T13:47:28Z</time>
      </trkpt>
      <trkpt lat="45.24609" lon="5.24855">
        <ele>522.5</ele>
        <time>2022-04-28T13:47:29Z</time>
      </trkpt>
      <trkpt lat="45.24603" lon="5.24853">
        <ele>522.5</ele>
        <time>2022-04-28T13:47:30Z</time>
      </trkpt>
      <trkpt lat="45.24598" lon="5.24851">
        <ele>522.5</ele>
        <time>2022-04-28T13:47:31Z</time>
      </trkpt>
      <trkpt lat="45.24592" lon="5.2485">
        <ele>522.6</ele>
        <time>2022-04-28T13:47:32Z</time>
      </trkpt>
      <trkpt lat="45.24587" lon="5.24849">
        <ele>522.7</ele>
        <time>2022-04-28T13:47:33Z</time>
      </trkpt>
      <trkpt lat="45.24582" lon="5.24849">
        <ele>522.8</ele>
        <time>2022-04-28T13:47:34Z</time>
      </trkpt>
      <trkpt lat="45.24576" lon="5.2485">
        <ele>522.9</ele>
        <time>2022-04-28T13:47:35Z</time>
      </trkpt>
      <trkpt lat="45.24571" lon="5.24851">
        <ele>522.9</ele>
        <time>2022-04-28T13:47:36Z</time>
      </trkpt>
      <trkpt lat="45.24566" lon="5.24854">
        <ele>523</ele>
        <time>2022-04-28T13:47:37Z</time>
      </trkpt>
      <trkpt lat="45.24561" lon="5.24856">
        <ele>523.1</ele>
        <time>2022-04-28T13:47:38Z</time>
      </trkpt>
      <trkpt lat="45.24556" lon="5.24858">
        <ele>523.2</ele>
        <time>2022-04-28T13:47:39Z</time>
      </trkpt>
      <trkpt lat="45.24551" lon="5.24861">
        <ele>523.3</ele>
        <time>2022-04-28T13:47:40Z</time>
      </trkpt>
      <trkpt lat="45.24547" lon="5.24864">
        <ele>523.3</ele>
        <time>2022-04-28T13:47:41Z</time>
      </trkpt>
      <trkpt lat="45.24543" lon="5.24867">
        <ele>523.4</ele>
        <time>2022-04-28T13:47:42Z</time>
      </trkpt>
      <trkpt lat="45.24538" lon="5.24871">
        <ele>523.5</ele>
        <time>2022-04-28T13:47:43Z</time>
      </trkpt>
      <trkpt lat="45.24533" lon="5.24874">
        <ele>523.6</ele>
        <time>2022-04-28T13:47:44Z</time>
      </trkpt>
      <trkpt lat="45.24529" lon="5.24876">
        <ele>523.7</ele>
        <time>2022-04-28T13:47:45Z</time>
      </trkpt>
      <trkpt lat="45.24524" lon="5.24879">
        <ele>523.8</ele>
        <time>2022-04-28T13:47:46Z</time>
      </trkpt>
      <trkpt lat="45.2452" lon="5.24881">
        <ele>523.9</ele>
        <time>2022-04-28T13:47:47Z</time>
      </trkpt>
      <trkpt lat="45.24517" lon="5.24883">
        <ele>524</ele>
        <time>2022-04-28T13:47:48Z</time>
      </trkpt>
      <trkpt lat="45.24512" lon="5.24886">
        <ele>524.2</ele>
        <time>2022-04-28T13:47:49Z</time>
      </trkpt>
      <trkpt lat="45.24507" lon="5.24889">
        <ele>524.3</ele>
        <time>2022-04-28T13:47:50Z</time>
      </trkpt>
      <trkpt lat="45.24503" lon="5.24892">
        <ele>524.5</ele>
        <time>2022-04-28T13:47:51Z</time>
      </trkpt>
      <trkpt lat="45.24499" lon="5.24895">
        <ele>524.6</ele>
        <time>2022-04-28T13:47:52Z</time>
      </trkpt>
      <trkpt lat="45.24495" lon="5.24897">
        <ele>524.7</ele>
        <time>2022-04-28T13:47:53Z</time>
      </trkpt>
      <trkpt lat="45.2449" lon="5.249">
        <ele>524.9</ele>
        <time>2022-04-28T13:47:54Z</time>
      </trkpt>
      <trkpt lat="45.24486" lon="5.24903">
        <ele>525</ele>
        <time>2022-04-28T13:47:55Z</time>
      </trkpt>
      <trkpt lat="45.24481" lon="5.24906">
        <ele>525.2</ele>
        <time>2022-04-28T13:47:56Z</time>
      </trkpt>
      <trkpt lat="45.24479" lon="5.24908">
        <ele>525.3</ele>
        <time>2022-04-28T13:47:57Z</time>
      </trkpt>
      <trkpt lat="45.24475" lon="5.2491">
        <ele>525.4</ele>
        <time>2022-04-28T13:47:58Z</time>
      </trkpt>
      <trkpt lat="45.24473" lon="5.24915">
        <ele>525.6</ele>
        <time>2022-04-28T13:48:00Z</time>
      </trkpt>
      <trkpt lat="45.24468" lon="5.24917">
        <ele>525.8</ele>
        <time>2022-04-28T13:48:01Z</time>
      </trkpt>
      <trkpt lat="45.24463" lon="5.2492">
        <ele>526</ele>
        <time>2022-04-28T13:48:02Z</time>
      </trkpt>
      <trkpt lat="45.24457" lon="5.24923">
        <ele>526.2</ele>
        <time>2022-04-28T13:48:03Z</time>
      </trkpt>
      <trkpt lat="45.24453" lon="5.24926">
        <ele>526.4</ele>
        <time>2022-04-28T13:48:04Z</time>
      </trkpt>
      <trkpt lat="45.24448" lon="5.24928">
        <ele>526.5</ele>
        <time>2022-04-28T13:48:05Z</time>
      </trkpt>
      <trkpt lat="45.24442" lon="5.24932">
        <ele>526.7</ele>
        <time>2022-04-28T13:48:07Z</time>
      </trkpt>
      <trkpt lat="45.24437" lon="5.24934">
        <ele>526.9</ele>
        <time>2022-04-28T13:48:08Z</time>
      </trkpt>
      <trkpt lat="45.24432" lon="5.24936">
        <ele>527.1</ele>
        <time>2022-04-28T13:48:09Z</time>
      </trkpt>
      <trkpt lat="45.24428" lon="5.24938">
        <ele>527.3</ele>
        <time>2022-04-28T13:48:10Z</time>
      </trkpt>
      <trkpt lat="45.24422" lon="5.24941">
        <ele>527.5</ele>
        <time>2022-04-28T13:48:12Z</time>
      </trkpt>
      <trkpt lat="45.24417" lon="5.24943">
        <ele>527.7</ele>
        <time>2022-04-28T13:48:13Z</time>
      </trkpt>
      <trkpt lat="45.24413" lon="5.24945">
        <ele>527.8</ele>
        <time>2022-04-28T13:48:14Z</time>
      </trkpt>
      <trkpt lat="45.24407" lon="5.24948">
        <ele>528</ele>
        <time>2022-04-28T13:48:15Z</time>
      </trkpt>
      <trkpt lat="45.24404" lon="5.24949">
        <ele>528.1</ele>
        <time>2022-04-28T13:48:16Z</time>
      </trkpt>
      <trkpt lat="45.244" lon="5.24951">
        <ele>528.3</ele>
        <time>2022-04-28T13:48:17Z</time>
      </trkpt>
      <trkpt lat="45.24396" lon="5.24954">
        <ele>528.5</ele>
        <time>2022-04-28T13:48:18Z</time>
      </trkpt>
      <trkpt lat="45.24388" lon="5.24957">
        <ele>528.8</ele>
        <time>2022-04-28T13:48:20Z</time>
      </trkpt>
      <trkpt lat="45.24385" lon="5.24959">
        <ele>528.9</ele>
        <time>2022-04-28T13:48:21Z</time>
      </trkpt>
      <trkpt lat="45.2438" lon="5.24961">
        <ele>529.1</ele>
        <time>2022-04-28T13:48:22Z</time>
      </trkpt>
      <trkpt lat="45.24376" lon="5.24963">
        <ele>529.2</ele>
        <time>2022-04-28T13:48:23Z</time>
      </trkpt>
      <trkpt lat="45.24372" lon="5.24964">
        <ele>529.4</ele>
        <time>2022-04-28T13:48:24Z</time>
      </trkpt>
      <trkpt lat="45.24368" lon="5.24965">
        <ele>529.5</ele>
        <time>2022-04-28T13:48:25Z</time>
      </trkpt>
      <trkpt lat="45.24365" lon="5.24966">
        <ele>529.6</ele>
        <time>2022-04-28T13:48:26Z</time>
      </trkpt>
      <trkpt lat="45.2436" lon="5.24967">
        <ele>529.8</ele>
        <time>2022-04-28T13:48:27Z</time>
      </trkpt>
      <trkpt lat="45.24356" lon="5.24967">
        <ele>529.9</ele>
        <time>2022-04-28T13:48:28Z</time>
      </trkpt>
      <trkpt lat="45.24353" lon="5.24968">
        <ele>530</ele>
        <time>2022-04-28T13:48:29Z</time>
      </trkpt>
      <trkpt lat="45.24349" lon="5.24969">
        <ele>530.1</ele>
        <time>2022-04-28T13:48:30Z</time>
      </trkpt>
      <trkpt lat="45.24346" lon="5.24968">
        <ele>530.2</ele>
        <time>2022-04-28T13:48:31Z</time>
      </trkpt>
      <trkpt lat="45.24342" lon="5.24968">
        <ele>530.3</ele>
        <time>2022-04-28T13:48:32Z</time>
      </trkpt>
      <trkpt lat="45.24339" lon="5.24968">
        <ele>530.4</ele>
        <time>2022-04-28T13:48:33Z</time>
      </trkpt>
      <trkpt lat="45.24334" lon="5.2497">
        <ele>530.6</ele>
        <time>2022-04-28T13:48:34Z</time>
      </trkpt>
      <trkpt lat="45.2433" lon="5.24971">
        <ele>530.7</ele>
        <time>2022-04-28T13:48:35Z</time>
      </trkpt>
      <trkpt lat="45.24325" lon="5.24972">
        <ele>530.8</ele>
        <time>2022-04-28T13:48:37Z</time>
      </trkpt>
      <trkpt lat="45.24321" lon="5.24973">
        <ele>530.9</ele>
        <time>2022-04-28T13:48:38Z</time>
      </trkpt>
      <trkpt lat="45.24315" lon="5.24974">
        <ele>531</ele>
        <time>2022-04-28T13:48:39Z</time>
      </trkpt>
      <trkpt lat="45.2431" lon="5.24975">
        <ele>531.2</ele>
        <time>2022-04-28T13:48:41Z</time>
      </trkpt>
      <trkpt lat="45.24306" lon="5.24976">
        <ele>531.3</ele>
        <time>2022-04-28T13:48:42Z</time>
      </trkpt>
      <trkpt lat="45.24301" lon="5.24976">
        <ele>531.4</ele>
        <time>2022-04-28T13:48:43Z</time>
      </trkpt>
      <trkpt lat="45.24294" lon="5.24977">
        <ele>531.5</ele>
        <time>2022-04-28T13:48:44Z</time>
      </trkpt>
      <trkpt lat="45.24288" lon="5.24977">
        <ele>531.7</ele>
        <time>2022-04-28T13:48:46Z</time>
      </trkpt>
      <trkpt lat="45.24284" lon="5.24978">
        <ele>531.7</ele>
        <time>2022-04-28T13:48:47Z</time>
      </trkpt>
      <trkpt lat="45.24278" lon="5.2498">
        <ele>531.8</ele>
        <time>2022-04-28T13:48:48Z</time>
      </trkpt>
      <trkpt lat="45.24273" lon="5.24981">
        <ele>532</ele>
        <time>2022-04-28T13:48:49Z</time>
      </trkpt>
      <trkpt lat="45.24269" lon="5.24981">
        <ele>532.1</ele>
        <time>2022-04-28T13:48:50Z</time>
      </trkpt>
      <trkpt lat="45.24261" lon="5.24983">
        <ele>532.2</ele>
        <time>2022-04-28T13:48:52Z</time>
      </trkpt>
      <trkpt lat="45.24257" lon="5.24983">
        <ele>532.3</ele>
        <time>2022-04-28T13:48:53Z</time>
      </trkpt>
      <trkpt lat="45.24253" lon="5.24984">
        <ele>532.4</ele>
        <time>2022-04-28T13:48:54Z</time>
      </trkpt>
      <trkpt lat="45.24247" lon="5.24984">
        <ele>532.5</ele>
        <time>2022-04-28T13:48:56Z</time>
      </trkpt>
      <trkpt lat="45.24241" lon="5.24986">
        <ele>532.6</ele>
        <time>2022-04-28T13:48:57Z</time>
      </trkpt>
      <trkpt lat="45.24237" lon="5.24986">
        <ele>532.7</ele>
        <time>2022-04-28T13:48:58Z</time>
      </trkpt>
      <trkpt lat="45.2423" lon="5.24987">
        <ele>532.8</ele>
        <time>2022-04-28T13:49:00Z</time>
      </trkpt>
      <trkpt lat="45.24226" lon="5.24987">
        <ele>532.9</ele>
        <time>2022-04-28T13:49:01Z</time>
      </trkpt>
      <trkpt lat="45.24221" lon="5.24987">
        <ele>533</ele>
        <time>2022-04-28T13:49:02Z</time>
      </trkpt>
      <trkpt lat="45.24216" lon="5.24987">
        <ele>533</ele>
        <time>2022-04-28T13:49:03Z</time>
      </trkpt>
      <trkpt lat="45.24212" lon="5.24987">
        <ele>533.1</ele>
        <time>2022-04-28T13:49:04Z</time>
      </trkpt>
      <trkpt lat="45.24207" lon="5.24988">
        <ele>533.2</ele>
        <time>2022-04-28T13:49:05Z</time>
      </trkpt>
      <trkpt lat="45.24203" lon="5.24988">
        <ele>533.3</ele>
        <time>2022-04-28T13:49:06Z</time>
      </trkpt>
      <trkpt lat="45.24196" lon="5.24988">
        <ele>533.4</ele>
        <time>2022-04-28T13:49:08Z</time>
      </trkpt>
      <trkpt lat="45.24192" lon="5.24986">
        <ele>533.5</ele>
        <time>2022-04-28T13:49:09Z</time>
      </trkpt>
      <trkpt lat="45.24186" lon="5.24985">
        <ele>533.6</ele>
        <time>2022-04-28T13:49:10Z</time>
      </trkpt>
      <trkpt lat="45.24182" lon="5.24984">
        <ele>533.7</ele>
        <time>2022-04-28T13:49:11Z</time>
      </trkpt>
      <trkpt lat="45.24177" lon="5.24983">
        <ele>533.8</ele>
        <time>2022-04-28T13:49:12Z</time>
      </trkpt>
      <trkpt lat="45.24173" lon="5.24981">
        <ele>533.9</ele>
        <time>2022-04-28T13:49:13Z</time>
      </trkpt>
      <trkpt lat="45.24169" lon="5.2498">
        <ele>534</ele>
        <time>2022-04-28T13:49:14Z</time>
      </trkpt>
      <trkpt lat="45.24164" lon="5.24977">
        <ele>534.1</ele>
        <time>2022-04-28T13:49:15Z</time>
      </trkpt>
      <trkpt lat="45.2416" lon="5.24975">
        <ele>534.2</ele>
        <time>2022-04-28T13:49:16Z</time>
      </trkpt>
      <trkpt lat="45.24156" lon="5.24973">
        <ele>534.3</ele>
        <time>2022-04-28T13:49:17Z</time>
      </trkpt>
      <trkpt lat="45.24152" lon="5.24971">
        <ele>534.4</ele>
        <time>2022-04-28T13:49:18Z</time>
      </trkpt>
      <trkpt lat="45.24148" lon="5.24969">
        <ele>534.5</ele>
        <time>2022-04-28T13:49:19Z</time>
      </trkpt>
      <trkpt lat="45.24144" lon="5.24966">
        <ele>534.5</ele>
        <time>2022-04-28T13:49:20Z</time>
      </trkpt>
      <trkpt lat="45.2414" lon="5.24964">
        <ele>534.6</ele>
        <time>2022-04-28T13:49:21Z</time>
      </trkpt>
      <trkpt lat="45.24136" lon="5.24961">
        <ele>534.7</ele>
        <time>2022-04-28T13:49:22Z</time>
      </trkpt>
      <trkpt lat="45.24132" lon="5.24958">
        <ele>534.8</ele>
        <time>2022-04-28T13:49:23Z</time>
      </trkpt>
      <trkpt lat="45.24129" lon="5.24955">
        <ele>535</ele>
        <time>2022-04-28T13:49:24Z</time>
      </trkpt>
      <trkpt lat="45.24122" lon="5.24948">
        <ele>535.1</ele>
        <time>2022-04-28T13:49:26Z</time>
      </trkpt>
      <trkpt lat="45.24118" lon="5.24943">
        <ele>535.3</ele>
        <time>2022-04-28T13:49:27Z</time>
      </trkpt>
      <trkpt lat="45.24115" lon="5.24939">
        <ele>535.4</ele>
        <time>2022-04-28T13:49:28Z</time>
      </trkpt>
      <trkpt lat="45.24113" lon="5.24937">
        <ele>535.5</ele>
        <time>2022-04-28T13:49:29Z</time>
      </trkpt>
      <trkpt lat="45.24108" lon="5.24932">
        <ele>535.6</ele>
        <time>2022-04-28T13:49:31Z</time>
      </trkpt>
      <trkpt lat="45.24104" lon="5.24929">
        <ele>535.7</ele>
        <time>2022-04-28T13:49:32Z</time>
      </trkpt>
      <trkpt lat="45.24101" lon="5.24925">
        <ele>535.8</ele>
        <time>2022-04-28T13:49:33Z</time>
      </trkpt>
      <trkpt lat="45.24098" lon="5.24921">
        <ele>535.9</ele>
        <time>2022-04-28T13:49:34Z</time>
      </trkpt>
      <trkpt lat="45.24093" lon="5.24916">
        <ele>536</ele>
        <time>2022-04-28T13:49:35Z</time>
      </trkpt>
      <trkpt lat="45.24089" lon="5.24912">
        <ele>536.1</ele>
        <time>2022-04-28T13:49:36Z</time>
      </trkpt>
      <trkpt lat="45.24086" lon="5.24909">
        <ele>536.2</ele>
        <time>2022-04-28T13:49:37Z</time>
      </trkpt>
      <trkpt lat="45.24083" lon="5.24905">
        <ele>536.3</ele>
        <time>2022-04-28T13:49:38Z</time>
      </trkpt>
      <trkpt lat="45.24078" lon="5.24899">
        <ele>536.5</ele>
        <time>2022-04-28T13:49:40Z</time>
      </trkpt>
      <trkpt lat="45.24073" lon="5.24894">
        <ele>536.6</ele>
        <time>2022-04-28T13:49:41Z</time>
      </trkpt>
      <trkpt lat="45.24069" lon="5.24891">
        <ele>536.7</ele>
        <time>2022-04-28T13:49:42Z</time>
      </trkpt>
      <trkpt lat="45.24066" lon="5.24888">
        <ele>536.8</ele>
        <time>2022-04-28T13:49:43Z</time>
      </trkpt>
      <trkpt lat="45.24062" lon="5.24884">
        <ele>537</ele>
        <time>2022-04-28T13:49:44Z</time>
      </trkpt>
      <trkpt lat="45.24059" lon="5.2488">
        <ele>537.1</ele>
        <time>2022-04-28T13:49:45Z</time>
      </trkpt>
      <trkpt lat="45.24054" lon="5.24876">
        <ele>537.2</ele>
        <time>2022-04-28T13:49:47Z</time>
      </trkpt>
      <trkpt lat="45.24048" lon="5.24869">
        <ele>537.3</ele>
        <time>2022-04-28T13:49:48Z</time>
      </trkpt>
      <trkpt lat="45.24045" lon="5.24866">
        <ele>537.4</ele>
        <time>2022-04-28T13:49:49Z</time>
      </trkpt>
      <trkpt lat="45.24043" lon="5.24865">
        <ele>537.4</ele>
        <time>2022-04-28T13:49:50Z</time>
      </trkpt>
      <trkpt lat="45.24038" lon="5.2486">
        <ele>537.6</ele>
        <time>2022-04-28T13:49:51Z</time>
      </trkpt>
      <trkpt lat="45.24033" lon="5.24856">
        <ele>537.7</ele>
        <time>2022-04-28T13:49:52Z</time>
      </trkpt>
      <trkpt lat="45.2403" lon="5.24852">
        <ele>537.8</ele>
        <time>2022-04-28T13:49:53Z</time>
      </trkpt>
      <trkpt lat="45.24025" lon="5.24849">
        <ele>537.9</ele>
        <time>2022-04-28T13:49:55Z</time>
      </trkpt>
      <trkpt lat="45.24022" lon="5.24846">
        <ele>538</ele>
        <time>2022-04-28T13:49:56Z</time>
      </trkpt>
      <trkpt lat="45.24016" lon="5.24838">
        <ele>538.2</ele>
        <time>2022-04-28T13:49:57Z</time>
      </trkpt>
      <trkpt lat="45.24012" lon="5.24834">
        <ele>538.3</ele>
        <time>2022-04-28T13:49:58Z</time>
      </trkpt>
      <trkpt lat="45.24009" lon="5.24832">
        <ele>538.3</ele>
        <time>2022-04-28T13:49:59Z</time>
      </trkpt>
      <trkpt lat="45.24005" lon="5.24829">
        <ele>538.4</ele>
        <time>2022-04-28T13:50:01Z</time>
      </trkpt>
      <trkpt lat="45.24" lon="5.24824">
        <ele>538.5</ele>
        <time>2022-04-28T13:50:02Z</time>
      </trkpt>
      <trkpt lat="45.23997" lon="5.2482">
        <ele>538.6</ele>
        <time>2022-04-28T13:50:03Z</time>
      </trkpt>
      <trkpt lat="45.23991" lon="5.24815">
        <ele>538.7</ele>
        <time>2022-04-28T13:50:04Z</time>
      </trkpt>
      <trkpt lat="45.23986" lon="5.24809">
        <ele>538.8</ele>
        <time>2022-04-28T13:50:06Z</time>
      </trkpt>
      <trkpt lat="45.23982" lon="5.24805">
        <ele>538.9</ele>
        <time>2022-04-28T13:50:07Z</time>
      </trkpt>
      <trkpt lat="45.23978" lon="5.24801">
        <ele>539</ele>
        <time>2022-04-28T13:50:08Z</time>
      </trkpt>
      <trkpt lat="45.23973" lon="5.24796">
        <ele>539.1</ele>
        <time>2022-04-28T13:50:09Z</time>
      </trkpt>
      <trkpt lat="45.2397" lon="5.24792">
        <ele>539.2</ele>
        <time>2022-04-28T13:50:10Z</time>
      </trkpt>
      <trkpt lat="45.23966" lon="5.24788">
        <ele>539.3</ele>
        <time>2022-04-28T13:50:11Z</time>
      </trkpt>
      <trkpt lat="45.23963" lon="5.24784">
        <ele>539.4</ele>
        <time>2022-04-28T13:50:12Z</time>
      </trkpt>
      <trkpt lat="45.23957" lon="5.24778">
        <ele>539.6</ele>
        <time>2022-04-28T13:50:14Z</time>
      </trkpt>
      <trkpt lat="45.23952" lon="5.24774">
        <ele>539.7</ele>
        <time>2022-04-28T13:50:15Z</time>
      </trkpt>
      <trkpt lat="45.23949" lon="5.2477">
        <ele>539.8</ele>
        <time>2022-04-28T13:50:16Z</time>
      </trkpt>
      <trkpt lat="45.23946" lon="5.24767">
        <ele>539.9</ele>
        <time>2022-04-28T13:50:17Z</time>
      </trkpt>
      <trkpt lat="45.23942" lon="5.24763">
        <ele>539.9</ele>
        <time>2022-04-28T13:50:18Z</time>
      </trkpt>
      <trkpt lat="45.23939" lon="5.2476">
        <ele>540</ele>
        <time>2022-04-28T13:50:19Z</time>
      </trkpt>
      <trkpt lat="45.23933" lon="5.24756">
        <ele>540.2</ele>
        <time>2022-04-28T13:50:21Z</time>
      </trkpt>
      <trkpt lat="45.23928" lon="5.24751">
        <ele>540.3</ele>
        <time>2022-04-28T13:50:22Z</time>
      </trkpt>
      <trkpt lat="45.23925" lon="5.24748">
        <ele>540.4</ele>
        <time>2022-04-28T13:50:23Z</time>
      </trkpt>
      <trkpt lat="45.2392" lon="5.24744">
        <ele>540.6</ele>
        <time>2022-04-28T13:50:24Z</time>
      </trkpt>
      <trkpt lat="45.23917" lon="5.24741">
        <ele>540.6</ele>
        <time>2022-04-28T13:50:25Z</time>
      </trkpt>
      <trkpt lat="45.23912" lon="5.24739">
        <ele>540.7</ele>
        <time>2022-04-28T13:50:26Z</time>
      </trkpt>
      <trkpt lat="45.23909" lon="5.24737">
        <ele>540.8</ele>
        <time>2022-04-28T13:50:27Z</time>
      </trkpt>
      <trkpt lat="45.23905" lon="5.24734">
        <ele>540.9</ele>
        <time>2022-04-28T13:50:28Z</time>
      </trkpt>
      <trkpt lat="45.23901" lon="5.24731">
        <ele>541</ele>
        <time>2022-04-28T13:50:29Z</time>
      </trkpt>
      <trkpt lat="45.23896" lon="5.24729">
        <ele>541.1</ele>
        <time>2022-04-28T13:50:30Z</time>
      </trkpt>
      <trkpt lat="45.23892" lon="5.24727">
        <ele>541.2</ele>
        <time>2022-04-28T13:50:31Z</time>
      </trkpt>
      <trkpt lat="45.23888" lon="5.24726">
        <ele>541.3</ele>
        <time>2022-04-28T13:50:32Z</time>
      </trkpt>
      <trkpt lat="45.23883" lon="5.24724">
        <ele>541.4</ele>
        <time>2022-04-28T13:50:33Z</time>
      </trkpt>
      <trkpt lat="45.23879" lon="5.24723">
        <ele>541.5</ele>
        <time>2022-04-28T13:50:34Z</time>
      </trkpt>
      <trkpt lat="45.23873" lon="5.2472">
        <ele>541.6</ele>
        <time>2022-04-28T13:50:36Z</time>
      </trkpt>
      <trkpt lat="45.23867" lon="5.24718">
        <ele>541.8</ele>
        <time>2022-04-28T13:50:37Z</time>
      </trkpt>
      <trkpt lat="45.23862" lon="5.24715">
        <ele>541.9</ele>
        <time>2022-04-28T13:50:38Z</time>
      </trkpt>
      <trkpt lat="45.23858" lon="5.24713">
        <ele>542</ele>
        <time>2022-04-28T13:50:39Z</time>
      </trkpt>
      <trkpt lat="45.23853" lon="5.24711">
        <ele>542</ele>
        <time>2022-04-28T13:50:40Z</time>
      </trkpt>
      <trkpt lat="45.23848" lon="5.24709">
        <ele>542.1</ele>
        <time>2022-04-28T13:50:41Z</time>
      </trkpt>
      <trkpt lat="45.23845" lon="5.24705">
        <ele>542.2</ele>
        <time>2022-04-28T13:50:43Z</time>
      </trkpt>
      <trkpt lat="45.23839" lon="5.24703">
        <ele>542.3</ele>
        <time>2022-04-28T13:50:44Z</time>
      </trkpt>
      <trkpt lat="45.23833" lon="5.24702">
        <ele>542.4</ele>
        <time>2022-04-28T13:50:45Z</time>
      </trkpt>
      <trkpt lat="45.23829" lon="5.247">
        <ele>542.5</ele>
        <time>2022-04-28T13:50:46Z</time>
      </trkpt>
      <trkpt lat="45.23825" lon="5.24698">
        <ele>542.6</ele>
        <time>2022-04-28T13:50:47Z</time>
      </trkpt>
      <trkpt lat="45.23819" lon="5.24697">
        <ele>542.8</ele>
        <time>2022-04-28T13:50:48Z</time>
      </trkpt>
      <trkpt lat="45.23812" lon="5.24694">
        <ele>542.9</ele>
        <time>2022-04-28T13:50:50Z</time>
      </trkpt>
      <trkpt lat="45.23804" lon="5.2469">
        <ele>543.1</ele>
        <time>2022-04-28T13:50:51Z</time>
      </trkpt>
      <trkpt lat="45.238" lon="5.24687">
        <ele>543.2</ele>
        <time>2022-04-28T13:50:52Z</time>
      </trkpt>
      <trkpt lat="45.23796" lon="5.24684">
        <ele>543.3</ele>
        <time>2022-04-28T13:50:53Z</time>
      </trkpt>
      <trkpt lat="45.23792" lon="5.24681">
        <ele>543.4</ele>
        <time>2022-04-28T13:50:54Z</time>
      </trkpt>
      <trkpt lat="45.23788" lon="5.24679">
        <ele>543.5</ele>
        <time>2022-04-28T13:50:55Z</time>
      </trkpt>
      <trkpt lat="45.23785" lon="5.24675">
        <ele>543.6</ele>
        <time>2022-04-28T13:50:56Z</time>
      </trkpt>
      <trkpt lat="45.23781" lon="5.24672">
        <ele>543.7</ele>
        <time>2022-04-28T13:50:57Z</time>
      </trkpt>
      <trkpt lat="45.23777" lon="5.24669">
        <ele>543.8</ele>
        <time>2022-04-28T13:50:58Z</time>
      </trkpt>
      <trkpt lat="45.23774" lon="5.24664">
        <ele>543.9</ele>
        <time>2022-04-28T13:51:00Z</time>
      </trkpt>
      <trkpt lat="45.2377" lon="5.24662">
        <ele>544</ele>
        <time>2022-04-28T13:51:01Z</time>
      </trkpt>
      <trkpt lat="45.23766" lon="5.24658">
        <ele>544.1</ele>
        <time>2022-04-28T13:51:02Z</time>
      </trkpt>
      <trkpt lat="45.23761" lon="5.24654">
        <ele>544.2</ele>
        <time>2022-04-28T13:51:03Z</time>
      </trkpt>
      <trkpt lat="45.23756" lon="5.2465">
        <ele>544.4</ele>
        <time>2022-04-28T13:51:04Z</time>
      </trkpt>
      <trkpt lat="45.23752" lon="5.24645">
        <ele>544.5</ele>
        <time>2022-04-28T13:51:06Z</time>
      </trkpt>
      <trkpt lat="45.23748" lon="5.24642">
        <ele>544.6</ele>
        <time>2022-04-28T13:51:07Z</time>
      </trkpt>
      <trkpt lat="45.23745" lon="5.24638">
        <ele>544.8</ele>
        <time>2022-04-28T13:51:08Z</time>
      </trkpt>
      <trkpt lat="45.23741" lon="5.24634">
        <ele>544.9</ele>
        <time>2022-04-28T13:51:09Z</time>
      </trkpt>
      <trkpt lat="45.23738" lon="5.2463">
        <ele>545</ele>
        <time>2022-04-28T13:51:10Z</time>
      </trkpt>
      <trkpt lat="45.23734" lon="5.24625">
        <ele>545.1</ele>
        <time>2022-04-28T13:51:11Z</time>
      </trkpt>
      <trkpt lat="45.23729" lon="5.24619">
        <ele>545.3</ele>
        <time>2022-04-28T13:51:12Z</time>
      </trkpt>
      <trkpt lat="45.23726" lon="5.24615">
        <ele>545.4</ele>
        <time>2022-04-28T13:51:13Z</time>
      </trkpt>
      <trkpt lat="45.23722" lon="5.2461">
        <ele>545.5</ele>
        <time>2022-04-28T13:51:15Z</time>
      </trkpt>
      <trkpt lat="45.23718" lon="5.24607">
        <ele>545.6</ele>
        <time>2022-04-28T13:51:16Z</time>
      </trkpt>
      <trkpt lat="45.23715" lon="5.24602">
        <ele>545.7</ele>
        <time>2022-04-28T13:51:17Z</time>
      </trkpt>
      <trkpt lat="45.2371" lon="5.24596">
        <ele>545.9</ele>
        <time>2022-04-28T13:51:18Z</time>
      </trkpt>
      <trkpt lat="45.23706" lon="5.2459">
        <ele>546</ele>
        <time>2022-04-28T13:51:20Z</time>
      </trkpt>
      <trkpt lat="45.23703" lon="5.24586">
        <ele>546.1</ele>
        <time>2022-04-28T13:51:21Z</time>
      </trkpt>
      <trkpt lat="45.23699" lon="5.24582">
        <ele>546.2</ele>
        <time>2022-04-28T13:51:22Z</time>
      </trkpt>
      <trkpt lat="45.23695" lon="5.24576">
        <ele>546.4</ele>
        <time>2022-04-28T13:51:23Z</time>
      </trkpt>
      <trkpt lat="45.23691" lon="5.24571">
        <ele>546.5</ele>
        <time>2022-04-28T13:51:24Z</time>
      </trkpt>
      <trkpt lat="45.23688" lon="5.24567">
        <ele>546.6</ele>
        <time>2022-04-28T13:51:25Z</time>
      </trkpt>
      <trkpt lat="45.23681" lon="5.2456">
        <ele>546.8</ele>
        <time>2022-04-28T13:51:27Z</time>
      </trkpt>
      <trkpt lat="45.23678" lon="5.24555">
        <ele>546.9</ele>
        <time>2022-04-28T13:51:28Z</time>
      </trkpt>
      <trkpt lat="45.23675" lon="5.24551">
        <ele>547</ele>
        <time>2022-04-28T13:51:29Z</time>
      </trkpt>
      <trkpt lat="45.23668" lon="5.24543">
        <ele>547.3</ele>
        <time>2022-04-28T13:51:31Z</time>
      </trkpt>
      <trkpt lat="45.23665" lon="5.24539">
        <ele>547.4</ele>
        <time>2022-04-28T13:51:32Z</time>
      </trkpt>
      <trkpt lat="45.23661" lon="5.24535">
        <ele>547.5</ele>
        <time>2022-04-28T13:51:33Z</time>
      </trkpt>
      <trkpt lat="45.23655" lon="5.24528">
        <ele>547.6</ele>
        <time>2022-04-28T13:51:35Z</time>
      </trkpt>
      <trkpt lat="45.23651" lon="5.24523">
        <ele>547.7</ele>
        <time>2022-04-28T13:51:36Z</time>
      </trkpt>
      <trkpt lat="45.23647" lon="5.24518">
        <ele>547.9</ele>
        <time>2022-04-28T13:51:38Z</time>
      </trkpt>
      <trkpt lat="45.23644" lon="5.24514">
        <ele>548</ele>
        <time>2022-04-28T13:51:39Z</time>
      </trkpt>
      <trkpt lat="45.2364" lon="5.24509">
        <ele>548.1</ele>
        <time>2022-04-28T13:51:40Z</time>
      </trkpt>
      <trkpt lat="45.23635" lon="5.24504">
        <ele>548.2</ele>
        <time>2022-04-28T13:51:41Z</time>
      </trkpt>
      <trkpt lat="45.23632" lon="5.245">
        <ele>548.3</ele>
        <time>2022-04-28T13:51:42Z</time>
      </trkpt>
      <trkpt lat="45.23628" lon="5.24496">
        <ele>548.4</ele>
        <time>2022-04-28T13:51:43Z</time>
      </trkpt>
      <trkpt lat="45.23625" lon="5.24493">
        <ele>548.5</ele>
        <time>2022-04-28T13:51:44Z</time>
      </trkpt>
      <trkpt lat="45.23621" lon="5.24487">
        <ele>548.6</ele>
        <time>2022-04-28T13:51:45Z</time>
      </trkpt>
      <trkpt lat="45.23618" lon="5.24482">
        <ele>548.6</ele>
        <time>2022-04-28T13:51:46Z</time>
      </trkpt>
      <trkpt lat="45.23615" lon="5.24477">
        <ele>548.7</ele>
        <time>2022-04-28T13:51:47Z</time>
      </trkpt>
      <trkpt lat="45.23611" lon="5.24473">
        <ele>548.7</ele>
        <time>2022-04-28T13:51:48Z</time>
      </trkpt>
      <trkpt lat="45.23608" lon="5.24469">
        <ele>548.8</ele>
        <time>2022-04-28T13:51:49Z</time>
      </trkpt>
      <trkpt lat="45.23605" lon="5.24464">
        <ele>548.8</ele>
        <time>2022-04-28T13:51:50Z</time>
      </trkpt>
      <trkpt lat="45.23601" lon="5.24458">
        <ele>548.9</ele>
        <time>2022-04-28T13:51:51Z</time>
      </trkpt>
      <trkpt lat="45.23598" lon="5.24454">
        <ele>548.9</ele>
        <time>2022-04-28T13:51:52Z</time>
      </trkpt>
      <trkpt lat="45.23595" lon="5.24449">
        <ele>549</ele>
        <time>2022-04-28T13:51:53Z</time>
      </trkpt>
      <trkpt lat="45.23591" lon="5.24444">
        <ele>549</ele>
        <time>2022-04-28T13:51:54Z</time>
      </trkpt>
      <trkpt lat="45.23587" lon="5.2444">
        <ele>549.1</ele>
        <time>2022-04-28T13:51:55Z</time>
      </trkpt>
      <trkpt lat="45.23583" lon="5.24435">
        <ele>549.2</ele>
        <time>2022-04-28T13:51:56Z</time>
      </trkpt>
      <trkpt lat="45.23579" lon="5.24431">
        <ele>549.3</ele>
        <time>2022-04-28T13:51:57Z</time>
      </trkpt>
      <trkpt lat="45.23575" lon="5.24427">
        <ele>549.4</ele>
        <time>2022-04-28T13:51:58Z</time>
      </trkpt>
      <trkpt lat="45.23571" lon="5.24424">
        <ele>549.5</ele>
        <time>2022-04-28T13:51:59Z</time>
      </trkpt>
      <trkpt lat="45.23566" lon="5.2442">
        <ele>549.6</ele>
        <time>2022-04-28T13:52:00Z</time>
      </trkpt>
      <trkpt lat="45.23562" lon="5.24417">
        <ele>549.7</ele>
        <time>2022-04-28T13:52:01Z</time>
      </trkpt>
      <trkpt lat="45.23557" lon="5.24415">
        <ele>549.7</ele>
        <time>2022-04-28T13:52:02Z</time>
      </trkpt>
      <trkpt lat="45.23552" lon="5.24412">
        <ele>549.8</ele>
        <time>2022-04-28T13:52:03Z</time>
      </trkpt>
      <trkpt lat="45.23548" lon="5.2441">
        <ele>549.8</ele>
        <time>2022-04-28T13:52:04Z</time>
      </trkpt>
      <trkpt lat="45.23544" lon="5.24407">
        <ele>549.9</ele>
        <time>2022-04-28T13:52:05Z</time>
      </trkpt>
      <trkpt lat="45.23539" lon="5.24404">
        <ele>549.9</ele>
        <time>2022-04-28T13:52:06Z</time>
      </trkpt>
      <trkpt lat="45.23535" lon="5.24402">
        <ele>550</ele>
        <time>2022-04-28T13:52:07Z</time>
      </trkpt>
      <trkpt lat="45.23532" lon="5.244">
        <ele>550.1</ele>
        <time>2022-04-28T13:52:08Z</time>
      </trkpt>
      <trkpt lat="45.23526" lon="5.24398">
        <ele>550.2</ele>
        <time>2022-04-28T13:52:09Z</time>
      </trkpt>
      <trkpt lat="45.2352" lon="5.24396">
        <ele>550.3</ele>
        <time>2022-04-28T13:52:10Z</time>
      </trkpt>
      <trkpt lat="45.23515" lon="5.24395">
        <ele>550.4</ele>
        <time>2022-04-28T13:52:11Z</time>
      </trkpt>
      <trkpt lat="45.2351" lon="5.24394">
        <ele>550.5</ele>
        <time>2022-04-28T13:52:12Z</time>
      </trkpt>
      <trkpt lat="45.23505" lon="5.24393">
        <ele>550.6</ele>
        <time>2022-04-28T13:52:13Z</time>
      </trkpt>
      <trkpt lat="45.23499" lon="5.24392">
        <ele>550.7</ele>
        <time>2022-04-28T13:52:14Z</time>
      </trkpt>
      <trkpt lat="45.23494" lon="5.24391">
        <ele>550.8</ele>
        <time>2022-04-28T13:52:15Z</time>
      </trkpt>
      <trkpt lat="45.2349" lon="5.24388">
        <ele>550.8</ele>
        <time>2022-04-28T13:52:16Z</time>
      </trkpt>
      <trkpt lat="45.23487" lon="5.24387">
        <ele>550.9</ele>
        <time>2022-04-28T13:52:17Z</time>
      </trkpt>
      <trkpt lat="45.23482" lon="5.24385">
        <ele>551</ele>
        <time>2022-04-28T13:52:18Z</time>
      </trkpt>
      <trkpt lat="45.23477" lon="5.24383">
        <ele>551.1</ele>
        <time>2022-04-28T13:52:19Z</time>
      </trkpt>
      <trkpt lat="45.23472" lon="5.24382">
        <ele>551.2</ele>
        <time>2022-04-28T13:52:20Z</time>
      </trkpt>
      <trkpt lat="45.23469" lon="5.2438">
        <ele>551.2</ele>
        <time>2022-04-28T13:52:21Z</time>
      </trkpt>
      <trkpt lat="45.23463" lon="5.24377">
        <ele>551.3</ele>
        <time>2022-04-28T13:52:22Z</time>
      </trkpt>
      <trkpt lat="45.23458" lon="5.24374">
        <ele>551.4</ele>
        <time>2022-04-28T13:52:23Z</time>
      </trkpt>
      <trkpt lat="45.23454" lon="5.2437">
        <ele>551.4</ele>
        <time>2022-04-28T13:52:24Z</time>
      </trkpt>
      <trkpt lat="45.23449" lon="5.24366">
        <ele>551.5</ele>
        <time>2022-04-28T13:52:25Z</time>
      </trkpt>
      <trkpt lat="45.23447" lon="5.24364">
        <ele>551.6</ele>
        <time>2022-04-28T13:52:26Z</time>
      </trkpt>
      <trkpt lat="45.23443" lon="5.2436">
        <ele>551.6</ele>
        <time>2022-04-28T13:52:27Z</time>
      </trkpt>
      <trkpt lat="45.23439" lon="5.24356">
        <ele>551.7</ele>
        <time>2022-04-28T13:52:28Z</time>
      </trkpt>
      <trkpt lat="45.23435" lon="5.24351">
        <ele>551.8</ele>
        <time>2022-04-28T13:52:29Z</time>
      </trkpt>
      <trkpt lat="45.23431" lon="5.24347">
        <ele>551.9</ele>
        <time>2022-04-28T13:52:30Z</time>
      </trkpt>
      <trkpt lat="45.23427" lon="5.24342">
        <ele>552</ele>
        <time>2022-04-28T13:52:31Z</time>
      </trkpt>
      <trkpt lat="45.23424" lon="5.24338">
        <ele>552.1</ele>
        <time>2022-04-28T13:52:32Z</time>
      </trkpt>
      <trkpt lat="45.23421" lon="5.24334">
        <ele>552.1</ele>
        <time>2022-04-28T13:52:33Z</time>
      </trkpt>
      <trkpt lat="45.23417" lon="5.24329">
        <ele>552.2</ele>
        <time>2022-04-28T13:52:34Z</time>
      </trkpt>
      <trkpt lat="45.23414" lon="5.24331">
        <ele>552.3</ele>
        <time>2022-04-28T13:52:36Z</time>
      </trkpt>
      <trkpt lat="45.2341" lon="5.24327">
        <ele>552.4</ele>
        <time>2022-04-28T13:52:37Z</time>
      </trkpt>
      <trkpt lat="45.23406" lon="5.24321">
        <ele>552.5</ele>
        <time>2022-04-28T13:52:38Z</time>
      </trkpt>
      <trkpt lat="45.23403" lon="5.24317">
        <ele>552.6</ele>
        <time>2022-04-28T13:52:39Z</time>
      </trkpt>
      <trkpt lat="45.23399" lon="5.24313">
        <ele>552.6</ele>
        <time>2022-04-28T13:52:40Z</time>
      </trkpt>
      <trkpt lat="45.23394" lon="5.24307">
        <ele>552.7</ele>
        <time>2022-04-28T13:52:42Z</time>
      </trkpt>
      <trkpt lat="45.2339" lon="5.24301">
        <ele>552.8</ele>
        <time>2022-04-28T13:52:43Z</time>
      </trkpt>
      <trkpt lat="45.23386" lon="5.24296">
        <ele>552.9</ele>
        <time>2022-04-28T13:52:44Z</time>
      </trkpt>
      <trkpt lat="45.2338" lon="5.2429">
        <ele>553</ele>
        <time>2022-04-28T13:52:46Z</time>
      </trkpt>
      <trkpt lat="45.23372" lon="5.24284">
        <ele>553.1</ele>
        <time>2022-04-28T13:52:47Z</time>
      </trkpt>
      <trkpt lat="45.23368" lon="5.24281">
        <ele>553.2</ele>
        <time>2022-04-28T13:52:48Z</time>
      </trkpt>
      <trkpt lat="45.23365" lon="5.24278">
        <ele>553.2</ele>
        <time>2022-04-28T13:52:49Z</time>
      </trkpt>
      <trkpt lat="45.23362" lon="5.24276">
        <ele>553.3</ele>
        <time>2022-04-28T13:52:50Z</time>
      </trkpt>
      <trkpt lat="45.23356" lon="5.24271">
        <ele>553.4</ele>
        <time>2022-04-28T13:52:51Z</time>
      </trkpt>
      <trkpt lat="45.23352" lon="5.24266">
        <ele>553.5</ele>
        <time>2022-04-28T13:52:52Z</time>
      </trkpt>
      <trkpt lat="45.23348" lon="5.24262">
        <ele>553.6</ele>
        <time>2022-04-28T13:52:53Z</time>
      </trkpt>
      <trkpt lat="45.23344" lon="5.24259">
        <ele>553.7</ele>
        <time>2022-04-28T13:52:54Z</time>
      </trkpt>
      <trkpt lat="45.2334" lon="5.24255">
        <ele>553.8</ele>
        <time>2022-04-28T13:52:55Z</time>
      </trkpt>
      <trkpt lat="45.23336" lon="5.24251">
        <ele>553.8</ele>
        <time>2022-04-28T13:52:56Z</time>
      </trkpt>
      <trkpt lat="45.23333" lon="5.24247">
        <ele>553.9</ele>
        <time>2022-04-28T13:52:57Z</time>
      </trkpt>
      <trkpt lat="45.23328" lon="5.24243">
        <ele>554</ele>
        <time>2022-04-28T13:52:58Z</time>
      </trkpt>
      <trkpt lat="45.23324" lon="5.24238">
        <ele>554</ele>
        <time>2022-04-28T13:52:59Z</time>
      </trkpt>
      <trkpt lat="45.23319" lon="5.24235">
        <ele>554.1</ele>
        <time>2022-04-28T13:53:00Z</time>
      </trkpt>
      <trkpt lat="45.23314" lon="5.24233">
        <ele>554.1</ele>
        <time>2022-04-28T13:53:01Z</time>
      </trkpt>
      <trkpt lat="45.23309" lon="5.24229">
        <ele>554.2</ele>
        <time>2022-04-28T13:53:02Z</time>
      </trkpt>
      <trkpt lat="45.23305" lon="5.24226">
        <ele>554.3</ele>
        <time>2022-04-28T13:53:03Z</time>
      </trkpt>
      <trkpt lat="45.23301" lon="5.24222">
        <ele>554.4</ele>
        <time>2022-04-28T13:53:04Z</time>
      </trkpt>
      <trkpt lat="45.23297" lon="5.24218">
        <ele>554.4</ele>
        <time>2022-04-28T13:53:05Z</time>
      </trkpt>
      <trkpt lat="45.23293" lon="5.24215">
        <ele>554.5</ele>
        <time>2022-04-28T13:53:06Z</time>
      </trkpt>
      <trkpt lat="45.23289" lon="5.24211">
        <ele>554.6</ele>
        <time>2022-04-28T13:53:07Z</time>
      </trkpt>
      <trkpt lat="45.23287" lon="5.24209">
        <ele>554.6</ele>
        <time>2022-04-28T13:53:08Z</time>
      </trkpt>
      <trkpt lat="45.23283" lon="5.24205">
        <ele>554.7</ele>
        <time>2022-04-28T13:53:09Z</time>
      </trkpt>
      <trkpt lat="45.2328" lon="5.24202">
        <ele>554.7</ele>
        <time>2022-04-28T13:53:10Z</time>
      </trkpt>
      <trkpt lat="45.23277" lon="5.24198">
        <ele>554.8</ele>
        <time>2022-04-28T13:53:11Z</time>
      </trkpt>
      <trkpt lat="45.23274" lon="5.24195">
        <ele>554.8</ele>
        <time>2022-04-28T13:53:12Z</time>
      </trkpt>
      <trkpt lat="45.23271" lon="5.24192">
        <ele>554.9</ele>
        <time>2022-04-28T13:53:13Z</time>
      </trkpt>
      <trkpt lat="45.23269" lon="5.24188">
        <ele>554.9</ele>
        <time>2022-04-28T13:53:14Z</time>
      </trkpt>
      <trkpt lat="45.23263" lon="5.24181">
        <ele>555.1</ele>
        <time>2022-04-28T13:53:15Z</time>
      </trkpt>
      <trkpt lat="45.23261" lon="5.24178">
        <ele>555.2</ele>
        <time>2022-04-28T13:53:16Z</time>
      </trkpt>
      <trkpt lat="45.23256" lon="5.24174">
        <ele>555.3</ele>
        <time>2022-04-28T13:53:17Z</time>
      </trkpt>
      <trkpt lat="45.23253" lon="5.24169">
        <ele>555.4</ele>
        <time>2022-04-28T13:53:18Z</time>
      </trkpt>
      <trkpt lat="45.23249" lon="5.24165">
        <ele>555.5</ele>
        <time>2022-04-28T13:53:19Z</time>
      </trkpt>
      <trkpt lat="45.23245" lon="5.24161">
        <ele>555.6</ele>
        <time>2022-04-28T13:53:20Z</time>
      </trkpt>
      <trkpt lat="45.23241" lon="5.24157">
        <ele>555.7</ele>
        <time>2022-04-28T13:53:21Z</time>
      </trkpt>
      <trkpt lat="45.23238" lon="5.24153">
        <ele>555.8</ele>
        <time>2022-04-28T13:53:22Z</time>
      </trkpt>
      <trkpt lat="45.23234" lon="5.24149">
        <ele>555.9</ele>
        <time>2022-04-28T13:53:24Z</time>
      </trkpt>
      <trkpt lat="45.23231" lon="5.24145">
        <ele>556</ele>
        <time>2022-04-28T13:53:25Z</time>
      </trkpt>
      <trkpt lat="45.23227" lon="5.2414">
        <ele>556.2</ele>
        <time>2022-04-28T13:53:26Z</time>
      </trkpt>
      <trkpt lat="45.23223" lon="5.24136">
        <ele>556.3</ele>
        <time>2022-04-28T13:53:27Z</time>
      </trkpt>
      <trkpt lat="45.2322" lon="5.24132">
        <ele>556.4</ele>
        <time>2022-04-28T13:53:28Z</time>
      </trkpt>
      <trkpt lat="45.23216" lon="5.24128">
        <ele>556.5</ele>
        <time>2022-04-28T13:53:29Z</time>
      </trkpt>
      <trkpt lat="45.23211" lon="5.24122">
        <ele>556.7</ele>
        <time>2022-04-28T13:53:31Z</time>
      </trkpt>
      <trkpt lat="45.23206" lon="5.24117">
        <ele>556.9</ele>
        <time>2022-04-28T13:53:32Z</time>
      </trkpt>
      <trkpt lat="45.23202" lon="5.24113">
        <ele>557.1</ele>
        <time>2022-04-28T13:53:33Z</time>
      </trkpt>
      <trkpt lat="45.23199" lon="5.24109">
        <ele>557.2</ele>
        <time>2022-04-28T13:53:34Z</time>
      </trkpt>
      <trkpt lat="45.23195" lon="5.24106">
        <ele>557.3</ele>
        <time>2022-04-28T13:53:35Z</time>
      </trkpt>
      <trkpt lat="45.23192" lon="5.24101">
        <ele>557.5</ele>
        <time>2022-04-28T13:53:37Z</time>
      </trkpt>
      <trkpt lat="45.23189" lon="5.24098">
        <ele>557.6</ele>
        <time>2022-04-28T13:53:38Z</time>
      </trkpt>
      <trkpt lat="45.23186" lon="5.24094">
        <ele>557.8</ele>
        <time>2022-04-28T13:53:39Z</time>
      </trkpt>
      <trkpt lat="45.23183" lon="5.24091">
        <ele>557.9</ele>
        <time>2022-04-28T13:53:40Z</time>
      </trkpt>
      <trkpt lat="45.2318" lon="5.24089">
        <ele>558.1</ele>
        <time>2022-04-28T13:53:41Z</time>
      </trkpt>
      <trkpt lat="45.23177" lon="5.24085">
        <ele>558.2</ele>
        <time>2022-04-28T13:53:42Z</time>
      </trkpt>
      <trkpt lat="45.23173" lon="5.24081">
        <ele>558.3</ele>
        <time>2022-04-28T13:53:43Z</time>
      </trkpt>
      <trkpt lat="45.2317" lon="5.24078">
        <ele>558.5</ele>
        <time>2022-04-28T13:53:44Z</time>
      </trkpt>
      <trkpt lat="45.23167" lon="5.24075">
        <ele>558.5</ele>
        <time>2022-04-28T13:53:45Z</time>
      </trkpt>
      <trkpt lat="45.23164" lon="5.24072">
        <ele>558.6</ele>
        <time>2022-04-28T13:53:46Z</time>
      </trkpt>
      <trkpt lat="45.23159" lon="5.24067">
        <ele>558.8</ele>
        <time>2022-04-28T13:53:48Z</time>
      </trkpt>
      <trkpt lat="45.23155" lon="5.24062">
        <ele>558.9</ele>
        <time>2022-04-28T13:53:49Z</time>
      </trkpt>
      <trkpt lat="45.2315" lon="5.24058">
        <ele>559.1</ele>
        <time>2022-04-28T13:53:50Z</time>
      </trkpt>
      <trkpt lat="45.23147" lon="5.24054">
        <ele>559.2</ele>
        <time>2022-04-28T13:53:51Z</time>
      </trkpt>
      <trkpt lat="45.23142" lon="5.24049">
        <ele>559.4</ele>
        <time>2022-04-28T13:53:53Z</time>
      </trkpt>
      <trkpt lat="45.23137" lon="5.24045">
        <ele>559.6</ele>
        <time>2022-04-28T13:53:54Z</time>
      </trkpt>
      <trkpt lat="45.23134" lon="5.24041">
        <ele>559.8</ele>
        <time>2022-04-28T13:53:55Z</time>
      </trkpt>
      <trkpt lat="45.23128" lon="5.24037">
        <ele>560</ele>
        <time>2022-04-28T13:53:57Z</time>
      </trkpt>
      <trkpt lat="45.23124" lon="5.24035">
        <ele>560.1</ele>
        <time>2022-04-28T13:53:58Z</time>
      </trkpt>
      <trkpt lat="45.23121" lon="5.24032">
        <ele>560.2</ele>
        <time>2022-04-28T13:53:59Z</time>
      </trkpt>
      <trkpt lat="45.23118" lon="5.2403">
        <ele>560.3</ele>
        <time>2022-04-28T13:54:00Z</time>
      </trkpt>
      <trkpt lat="45.23114" lon="5.24028">
        <ele>560.4</ele>
        <time>2022-04-28T13:54:01Z</time>
      </trkpt>
      <trkpt lat="45.23111" lon="5.24025">
        <ele>560.5</ele>
        <time>2022-04-28T13:54:02Z</time>
      </trkpt>
      <trkpt lat="45.23107" lon="5.24022">
        <ele>560.6</ele>
        <time>2022-04-28T13:54:03Z</time>
      </trkpt>
      <trkpt lat="45.23105" lon="5.24019">
        <ele>560.7</ele>
        <time>2022-04-28T13:54:04Z</time>
      </trkpt>
      <trkpt lat="45.23101" lon="5.24015">
        <ele>560.8</ele>
        <time>2022-04-28T13:54:05Z</time>
      </trkpt>
      <trkpt lat="45.23096" lon="5.24011">
        <ele>561</ele>
        <time>2022-04-28T13:54:07Z</time>
      </trkpt>
      <trkpt lat="45.23093" lon="5.24007">
        <ele>561.1</ele>
        <time>2022-04-28T13:54:08Z</time>
      </trkpt>
      <trkpt lat="45.23089" lon="5.24005">
        <ele>561.2</ele>
        <time>2022-04-28T13:54:09Z</time>
      </trkpt>
      <trkpt lat="45.23086" lon="5.24003">
        <ele>561.3</ele>
        <time>2022-04-28T13:54:10Z</time>
      </trkpt>
      <trkpt lat="45.23082" lon="5.24">
        <ele>561.4</ele>
        <time>2022-04-28T13:54:11Z</time>
      </trkpt>
      <trkpt lat="45.23078" lon="5.23997">
        <ele>561.6</ele>
        <time>2022-04-28T13:54:12Z</time>
      </trkpt>
      <trkpt lat="45.23075" lon="5.23995">
        <ele>561.7</ele>
        <time>2022-04-28T13:54:13Z</time>
      </trkpt>
      <trkpt lat="45.2307" lon="5.23992">
        <ele>561.8</ele>
        <time>2022-04-28T13:54:14Z</time>
      </trkpt>
      <trkpt lat="45.23067" lon="5.23988">
        <ele>561.9</ele>
        <time>2022-04-28T13:54:15Z</time>
      </trkpt>
      <trkpt lat="45.23064" lon="5.23985">
        <ele>562</ele>
        <time>2022-04-28T13:54:16Z</time>
      </trkpt>
      <trkpt lat="45.2306" lon="5.23983">
        <ele>562.1</ele>
        <time>2022-04-28T13:54:17Z</time>
      </trkpt>
      <trkpt lat="45.23057" lon="5.2398">
        <ele>562.2</ele>
        <time>2022-04-28T13:54:18Z</time>
      </trkpt>
      <trkpt lat="45.23053" lon="5.23977">
        <ele>562.4</ele>
        <time>2022-04-28T13:54:19Z</time>
      </trkpt>
      <trkpt lat="45.2305" lon="5.23975">
        <ele>562.5</ele>
        <time>2022-04-28T13:54:20Z</time>
      </trkpt>
      <trkpt lat="45.23046" lon="5.23973">
        <ele>562.6</ele>
        <time>2022-04-28T13:54:21Z</time>
      </trkpt>
      <trkpt lat="45.23042" lon="5.2397">
        <ele>562.7</ele>
        <time>2022-04-28T13:54:23Z</time>
      </trkpt>
      <trkpt lat="45.23039" lon="5.23967">
        <ele>562.8</ele>
        <time>2022-04-28T13:54:24Z</time>
      </trkpt>
      <trkpt lat="45.23035" lon="5.23966">
        <ele>562.9</ele>
        <time>2022-04-28T13:54:25Z</time>
      </trkpt>
      <trkpt lat="45.2303" lon="5.23963">
        <ele>563</ele>
        <time>2022-04-28T13:54:26Z</time>
      </trkpt>
      <trkpt lat="45.23025" lon="5.23961">
        <ele>563.1</ele>
        <time>2022-04-28T13:54:28Z</time>
      </trkpt>
      <trkpt lat="45.23021" lon="5.23958">
        <ele>563.2</ele>
        <time>2022-04-28T13:54:29Z</time>
      </trkpt>
      <trkpt lat="45.23017" lon="5.23957">
        <ele>563.3</ele>
        <time>2022-04-28T13:54:30Z</time>
      </trkpt>
      <trkpt lat="45.23014" lon="5.23955">
        <ele>563.5</ele>
        <time>2022-04-28T13:54:31Z</time>
      </trkpt>
      <trkpt lat="45.2301" lon="5.23953">
        <ele>563.6</ele>
        <time>2022-04-28T13:54:32Z</time>
      </trkpt>
      <trkpt lat="45.23006" lon="5.23952">
        <ele>563.7</ele>
        <time>2022-04-28T13:54:33Z</time>
      </trkpt>
      <trkpt lat="45.23001" lon="5.23951">
        <ele>563.9</ele>
        <time>2022-04-28T13:54:34Z</time>
      </trkpt>
      <trkpt lat="45.22995" lon="5.23949">
        <ele>564</ele>
        <time>2022-04-28T13:54:35Z</time>
      </trkpt>
      <trkpt lat="45.22992" lon="5.23948">
        <ele>564.2</ele>
        <time>2022-04-28T13:54:36Z</time>
      </trkpt>
      <trkpt lat="45.22989" lon="5.23946">
        <ele>564.3</ele>
        <time>2022-04-28T13:54:37Z</time>
      </trkpt>
      <trkpt lat="45.22984" lon="5.23941">
        <ele>564.5</ele>
        <time>2022-04-28T13:54:39Z</time>
      </trkpt>
      <trkpt lat="45.2298" lon="5.23939">
        <ele>564.6</ele>
        <time>2022-04-28T13:54:40Z</time>
      </trkpt>
      <trkpt lat="45.22978" lon="5.23937">
        <ele>564.7</ele>
        <time>2022-04-28T13:54:41Z</time>
      </trkpt>
      <trkpt lat="45.22977" lon="5.23936">
        <ele>564.8</ele>
        <time>2022-04-28T13:54:42Z</time>
      </trkpt>
      <trkpt lat="45.22976" lon="5.23935">
        <ele>564.8</ele>
        <time>2022-04-28T13:54:43Z</time>
      </trkpt>
      <trkpt lat="45.22976" lon="5.23935">
        <ele>564.8</ele>
        <time>2022-04-28T13:54:44Z</time>
      </trkpt>
      <trkpt lat="45.22976" lon="5.23935">
        <ele>564.8</ele>
        <time>2022-04-28T13:54:45Z</time>
      </trkpt>
      <trkpt lat="45.22976" lon="5.23935">
        <ele>564.8</ele>
        <time>2022-04-28T13:54:46Z</time>
      </trkpt>
      <trkpt lat="45.22975" lon="5.23936">
        <ele>564.8</ele>
        <time>2022-04-28T13:54:47Z</time>
      </trkpt>
      <trkpt lat="45.22975" lon="5.23936">
        <ele>564.8</ele>
        <time>2022-04-28T13:54:48Z</time>
      </trkpt>
      <trkpt lat="45.22975" lon="5.23936">
        <ele>564.8</ele>
        <time>2022-04-28T13:54:49Z</time>
      </trkpt>
      <trkpt lat="45.22974" lon="5.23936">
        <ele>564.8</ele>
        <time>2022-04-28T13:54:50Z</time>
      </trkpt>
      <trkpt lat="45.22974" lon="5.23936">
        <ele>564.9</ele>
        <time>2022-04-28T13:54:51Z</time>
      </trkpt>
      <trkpt lat="45.22974" lon="5.23936">
        <ele>564.9</ele>
        <time>2022-04-28T13:54:52Z</time>
      </trkpt>
      <trkpt lat="45.22974" lon="5.23936">
        <ele>564.9</ele>
        <time>2022-04-28T13:54:53Z</time>
      </trkpt>
      <trkpt lat="45.22973" lon="5.23936">
        <ele>564.9</ele>
        <time>2022-04-28T13:54:54Z</time>
      </trkpt>
      <trkpt lat="45.22973" lon="5.23936">
        <ele>564.9</ele>
        <time>2022-04-28T13:57:26Z</time>
      </trkpt>
      <trkpt lat="45.22973" lon="5.23936">
        <ele>564.9</ele>
        <time>2022-04-28T13:57:27Z</time>
      </trkpt>
      <trkpt lat="45.22972" lon="5.23936">
        <ele>564.9</ele>
        <time>2022-04-28T13:57:28Z</time>
      </trkpt>
      <trkpt lat="45.22972" lon="5.23936">
        <ele>564.9</ele>
        <time>2022-04-28T13:57:29Z</time>
      </trkpt>
      <trkpt lat="45.22969" lon="5.23933">
        <ele>565</ele>
        <time>2022-04-28T13:57:30Z</time>
      </trkpt>
      <trkpt lat="45.22967" lon="5.23932">
        <ele>565.1</ele>
        <time>2022-04-28T13:57:31Z</time>
      </trkpt>
      <trkpt lat="45.22964" lon="5.23929">
        <ele>565.2</ele>
        <time>2022-04-28T13:57:32Z</time>
      </trkpt>
      <trkpt lat="45.22962" lon="5.23928">
        <ele>565.2</ele>
        <time>2022-04-28T13:57:33Z</time>
      </trkpt>
      <trkpt lat="45.2296" lon="5.23926">
        <ele>565.3</ele>
        <time>2022-04-28T13:57:34Z</time>
      </trkpt>
      <trkpt lat="45.22957" lon="5.23924">
        <ele>565.3</ele>
        <time>2022-04-28T13:57:35Z</time>
      </trkpt>
      <trkpt lat="45.22955" lon="5.23921">
        <ele>565.4</ele>
        <time>2022-04-28T13:57:36Z</time>
      </trkpt>
      <trkpt lat="45.22951" lon="5.23918">
        <ele>565.5</ele>
        <time>2022-04-28T13:57:37Z</time>
      </trkpt>
      <trkpt lat="45.22949" lon="5.23915">
        <ele>565.5</ele>
        <time>2022-04-28T13:57:38Z</time>
      </trkpt>
      <trkpt lat="45.22946" lon="5.23912">
        <ele>565.6</ele>
        <time>2022-04-28T13:57:39Z</time>
      </trkpt>
      <trkpt lat="45.22943" lon="5.23908">
        <ele>565.7</ele>
        <time>2022-04-28T13:57:40Z</time>
      </trkpt>
      <trkpt lat="45.2294" lon="5.23905">
        <ele>565.8</ele>
        <time>2022-04-28T13:57:41Z</time>
      </trkpt>
      <trkpt lat="45.22937" lon="5.23902">
        <ele>565.9</ele>
        <time>2022-04-28T13:57:42Z</time>
      </trkpt>
      <trkpt lat="45.22933" lon="5.23899">
        <ele>566</ele>
        <time>2022-04-28T13:57:43Z</time>
      </trkpt>
      <trkpt lat="45.2293" lon="5.23896">
        <ele>566.2</ele>
        <time>2022-04-28T13:57:44Z</time>
      </trkpt>
      <trkpt lat="45.22925" lon="5.23891">
        <ele>566.3</ele>
        <time>2022-04-28T13:57:46Z</time>
      </trkpt>
      <trkpt lat="45.22921" lon="5.23888">
        <ele>566.5</ele>
        <time>2022-04-28T13:57:47Z</time>
      </trkpt>
      <trkpt lat="45.22917" lon="5.23884">
        <ele>566.7</ele>
        <time>2022-04-28T13:57:48Z</time>
      </trkpt>
      <trkpt lat="45.22913" lon="5.23882">
        <ele>566.8</ele>
        <time>2022-04-28T13:57:49Z</time>
      </trkpt>
      <trkpt lat="45.22911" lon="5.2388">
        <ele>566.9</ele>
        <time>2022-04-28T13:57:50Z</time>
      </trkpt>
      <trkpt lat="45.22908" lon="5.23878">
        <ele>567.1</ele>
        <time>2022-04-28T13:57:51Z</time>
      </trkpt>
      <trkpt lat="45.22904" lon="5.23876">
        <ele>567.2</ele>
        <time>2022-04-28T13:57:52Z</time>
      </trkpt>
      <trkpt lat="45.22899" lon="5.23874">
        <ele>567.3</ele>
        <time>2022-04-28T13:57:54Z</time>
      </trkpt>
      <trkpt lat="45.22896" lon="5.23873">
        <ele>567.5</ele>
        <time>2022-04-28T13:57:55Z</time>
      </trkpt>
      <trkpt lat="45.22891" lon="5.23872">
        <ele>567.6</ele>
        <time>2022-04-28T13:57:56Z</time>
      </trkpt>
      <trkpt lat="45.22888" lon="5.2387">
        <ele>567.7</ele>
        <time>2022-04-28T13:57:57Z</time>
      </trkpt>
      <trkpt lat="45.22884" lon="5.23869">
        <ele>567.8</ele>
        <time>2022-04-28T13:57:58Z</time>
      </trkpt>
      <trkpt lat="45.2288" lon="5.23868">
        <ele>567.9</ele>
        <time>2022-04-28T13:57:59Z</time>
      </trkpt>
      <trkpt lat="45.22875" lon="5.23865">
        <ele>568.1</ele>
        <time>2022-04-28T13:58:01Z</time>
      </trkpt>
      <trkpt lat="45.22871" lon="5.23863">
        <ele>568.2</ele>
        <time>2022-04-28T13:58:02Z</time>
      </trkpt>
      <trkpt lat="45.22866" lon="5.23861">
        <ele>568.4</ele>
        <time>2022-04-28T13:58:03Z</time>
      </trkpt>
      <trkpt lat="45.22862" lon="5.23859">
        <ele>568.5</ele>
        <time>2022-04-28T13:58:04Z</time>
      </trkpt>
      <trkpt lat="45.22858" lon="5.23857">
        <ele>568.6</ele>
        <time>2022-04-28T13:58:05Z</time>
      </trkpt>
      <trkpt lat="45.22855" lon="5.23855">
        <ele>568.7</ele>
        <time>2022-04-28T13:58:06Z</time>
      </trkpt>
      <trkpt lat="45.22851" lon="5.23854">
        <ele>568.8</ele>
        <time>2022-04-28T13:58:07Z</time>
      </trkpt>
      <trkpt lat="45.22848" lon="5.23851">
        <ele>568.9</ele>
        <time>2022-04-28T13:58:08Z</time>
      </trkpt>
      <trkpt lat="45.22845" lon="5.23849">
        <ele>569</ele>
        <time>2022-04-28T13:58:09Z</time>
      </trkpt>
      <trkpt lat="45.22841" lon="5.23847">
        <ele>569.1</ele>
        <time>2022-04-28T13:58:10Z</time>
      </trkpt>
      <trkpt lat="45.22838" lon="5.23844">
        <ele>569.2</ele>
        <time>2022-04-28T13:58:11Z</time>
      </trkpt>
      <trkpt lat="45.22834" lon="5.23842">
        <ele>569.3</ele>
        <time>2022-04-28T13:58:12Z</time>
      </trkpt>
      <trkpt lat="45.22831" lon="5.2384">
        <ele>569.4</ele>
        <time>2022-04-28T13:58:13Z</time>
      </trkpt>
      <trkpt lat="45.22828" lon="5.23838">
        <ele>569.5</ele>
        <time>2022-04-28T13:58:14Z</time>
      </trkpt>
      <trkpt lat="45.22824" lon="5.23835">
        <ele>569.7</ele>
        <time>2022-04-28T13:58:15Z</time>
      </trkpt>
      <trkpt lat="45.22821" lon="5.23832">
        <ele>569.8</ele>
        <time>2022-04-28T13:58:16Z</time>
      </trkpt>
      <trkpt lat="45.22818" lon="5.2383">
        <ele>569.9</ele>
        <time>2022-04-28T13:58:17Z</time>
      </trkpt>
      <trkpt lat="45.22814" lon="5.23828">
        <ele>570</ele>
        <time>2022-04-28T13:58:18Z</time>
      </trkpt>
      <trkpt lat="45.22811" lon="5.23825">
        <ele>570.1</ele>
        <time>2022-04-28T13:58:19Z</time>
      </trkpt>
      <trkpt lat="45.22808" lon="5.23822">
        <ele>570.3</ele>
        <time>2022-04-28T13:58:20Z</time>
      </trkpt>
      <trkpt lat="45.22805" lon="5.23819">
        <ele>570.4</ele>
        <time>2022-04-28T13:58:21Z</time>
      </trkpt>
      <trkpt lat="45.22801" lon="5.23816">
        <ele>570.5</ele>
        <time>2022-04-28T13:58:22Z</time>
      </trkpt>
      <trkpt lat="45.22798" lon="5.23813">
        <ele>570.6</ele>
        <time>2022-04-28T13:58:23Z</time>
      </trkpt>
      <trkpt lat="45.22795" lon="5.23809">
        <ele>570.7</ele>
        <time>2022-04-28T13:58:24Z</time>
      </trkpt>
      <trkpt lat="45.22793" lon="5.23806">
        <ele>570.8</ele>
        <time>2022-04-28T13:58:25Z</time>
      </trkpt>
      <trkpt lat="45.22789" lon="5.23802">
        <ele>571</ele>
        <time>2022-04-28T13:58:26Z</time>
      </trkpt>
      <trkpt lat="45.22786" lon="5.23799">
        <ele>571.1</ele>
        <time>2022-04-28T13:58:27Z</time>
      </trkpt>
      <trkpt lat="45.22783" lon="5.23795">
        <ele>571.2</ele>
        <time>2022-04-28T13:58:28Z</time>
      </trkpt>
      <trkpt lat="45.2278" lon="5.23792">
        <ele>571.3</ele>
        <time>2022-04-28T13:58:29Z</time>
      </trkpt>
      <trkpt lat="45.22777" lon="5.23787">
        <ele>571.4</ele>
        <time>2022-04-28T13:58:31Z</time>
      </trkpt>
      <trkpt lat="45.22774" lon="5.23782">
        <ele>571.6</ele>
        <time>2022-04-28T13:58:32Z</time>
      </trkpt>
      <trkpt lat="45.22771" lon="5.23777">
        <ele>571.8</ele>
        <time>2022-04-28T13:58:33Z</time>
      </trkpt>
      <trkpt lat="45.22768" lon="5.23772">
        <ele>571.9</ele>
        <time>2022-04-28T13:58:35Z</time>
      </trkpt>
      <trkpt lat="45.22765" lon="5.23766">
        <ele>572.1</ele>
        <time>2022-04-28T13:58:36Z</time>
      </trkpt>
      <trkpt lat="45.22761" lon="5.2376">
        <ele>572.3</ele>
        <time>2022-04-28T13:58:37Z</time>
      </trkpt>
      <trkpt lat="45.22758" lon="5.23756">
        <ele>572.5</ele>
        <time>2022-04-28T13:58:38Z</time>
      </trkpt>
      <trkpt lat="45.22756" lon="5.23752">
        <ele>572.6</ele>
        <time>2022-04-28T13:58:39Z</time>
      </trkpt>
      <trkpt lat="45.22752" lon="5.23747">
        <ele>572.8</ele>
        <time>2022-04-28T13:58:41Z</time>
      </trkpt>
      <trkpt lat="45.22749" lon="5.23743">
        <ele>572.9</ele>
        <time>2022-04-28T13:58:42Z</time>
      </trkpt>
      <trkpt lat="45.22746" lon="5.23738">
        <ele>573</ele>
        <time>2022-04-28T13:58:43Z</time>
      </trkpt>
      <trkpt lat="45.2274" lon="5.23731">
        <ele>573.3</ele>
        <time>2022-04-28T13:58:45Z</time>
      </trkpt>
      <trkpt lat="45.22737" lon="5.23728">
        <ele>573.4</ele>
        <time>2022-04-28T13:58:46Z</time>
      </trkpt>
      <trkpt lat="45.22734" lon="5.23725">
        <ele>573.6</ele>
        <time>2022-04-28T13:58:47Z</time>
      </trkpt>
      <trkpt lat="45.22731" lon="5.23721">
        <ele>573.7</ele>
        <time>2022-04-28T13:58:48Z</time>
      </trkpt>
      <trkpt lat="45.22728" lon="5.23719">
        <ele>573.8</ele>
        <time>2022-04-28T13:58:49Z</time>
      </trkpt>
      <trkpt lat="45.22724" lon="5.23715">
        <ele>574</ele>
        <time>2022-04-28T13:58:51Z</time>
      </trkpt>
      <trkpt lat="45.22719" lon="5.23713">
        <ele>574.2</ele>
        <time>2022-04-28T13:58:52Z</time>
      </trkpt>
      <trkpt lat="45.22715" lon="5.2371">
        <ele>574.4</ele>
        <time>2022-04-28T13:58:53Z</time>
      </trkpt>
      <trkpt lat="45.22712" lon="5.23708">
        <ele>574.5</ele>
        <time>2022-04-28T13:58:54Z</time>
      </trkpt>
      <trkpt lat="45.22708" lon="5.23705">
        <ele>574.7</ele>
        <time>2022-04-28T13:58:55Z</time>
      </trkpt>
      <trkpt lat="45.22704" lon="5.23703">
        <ele>574.9</ele>
        <time>2022-04-28T13:58:56Z</time>
      </trkpt>
      <trkpt lat="45.22701" lon="5.237">
        <ele>575</ele>
        <time>2022-04-28T13:58:57Z</time>
      </trkpt>
      <trkpt lat="45.22697" lon="5.23698">
        <ele>575.2</ele>
        <time>2022-04-28T13:58:58Z</time>
      </trkpt>
      <trkpt lat="45.22694" lon="5.23697">
        <ele>575.3</ele>
        <time>2022-04-28T13:58:59Z</time>
      </trkpt>
      <trkpt lat="45.22691" lon="5.23694">
        <ele>575.4</ele>
        <time>2022-04-28T13:59:00Z</time>
      </trkpt>
      <trkpt lat="45.22687" lon="5.23691">
        <ele>575.5</ele>
        <time>2022-04-28T13:59:01Z</time>
      </trkpt>
      <trkpt lat="45.22684" lon="5.23688">
        <ele>575.6</ele>
        <time>2022-04-28T13:59:02Z</time>
      </trkpt>
      <trkpt lat="45.22681" lon="5.23686">
        <ele>575.7</ele>
        <time>2022-04-28T13:59:03Z</time>
      </trkpt>
      <trkpt lat="45.22677" lon="5.23684">
        <ele>575.8</ele>
        <time>2022-04-28T13:59:04Z</time>
      </trkpt>
      <trkpt lat="45.22674" lon="5.23681">
        <ele>575.9</ele>
        <time>2022-04-28T13:59:05Z</time>
      </trkpt>
      <trkpt lat="45.2267" lon="5.23679">
        <ele>576.1</ele>
        <time>2022-04-28T13:59:06Z</time>
      </trkpt>
      <trkpt lat="45.22667" lon="5.23677">
        <ele>576.2</ele>
        <time>2022-04-28T13:59:07Z</time>
      </trkpt>
      <trkpt lat="45.22664" lon="5.23675">
        <ele>576.3</ele>
        <time>2022-04-28T13:59:08Z</time>
      </trkpt>
      <trkpt lat="45.22661" lon="5.23673">
        <ele>576.4</ele>
        <time>2022-04-28T13:59:09Z</time>
      </trkpt>
      <trkpt lat="45.22657" lon="5.2367">
        <ele>576.6</ele>
        <time>2022-04-28T13:59:11Z</time>
      </trkpt>
      <trkpt lat="45.22653" lon="5.23667">
        <ele>576.7</ele>
        <time>2022-04-28T13:59:12Z</time>
      </trkpt>
      <trkpt lat="45.22648" lon="5.23664">
        <ele>576.9</ele>
        <time>2022-04-28T13:59:14Z</time>
      </trkpt>
      <trkpt lat="45.22645" lon="5.23662">
        <ele>577</ele>
        <time>2022-04-28T13:59:15Z</time>
      </trkpt>
      <trkpt lat="45.2264" lon="5.23659">
        <ele>577.2</ele>
        <time>2022-04-28T13:59:16Z</time>
      </trkpt>
      <trkpt lat="45.22636" lon="5.23656">
        <ele>577.4</ele>
        <time>2022-04-28T13:59:17Z</time>
      </trkpt>
      <trkpt lat="45.22633" lon="5.23654">
        <ele>577.5</ele>
        <time>2022-04-28T13:59:18Z</time>
      </trkpt>
      <trkpt lat="45.22631" lon="5.23651">
        <ele>577.6</ele>
        <time>2022-04-28T13:59:19Z</time>
      </trkpt>
      <trkpt lat="45.22628" lon="5.23649">
        <ele>577.8</ele>
        <time>2022-04-28T13:59:20Z</time>
      </trkpt>
      <trkpt lat="45.22625" lon="5.23646">
        <ele>577.9</ele>
        <time>2022-04-28T13:59:21Z</time>
      </trkpt>
      <trkpt lat="45.22622" lon="5.23643">
        <ele>578.1</ele>
        <time>2022-04-28T13:59:22Z</time>
      </trkpt>
      <trkpt lat="45.22617" lon="5.2364">
        <ele>578.3</ele>
        <time>2022-04-28T13:59:24Z</time>
      </trkpt>
      <trkpt lat="45.22614" lon="5.23637">
        <ele>578.4</ele>
        <time>2022-04-28T13:59:25Z</time>
      </trkpt>
      <trkpt lat="45.2261" lon="5.23634">
        <ele>578.6</ele>
        <time>2022-04-28T13:59:26Z</time>
      </trkpt>
      <trkpt lat="45.22607" lon="5.23632">
        <ele>578.8</ele>
        <time>2022-04-28T13:59:27Z</time>
      </trkpt>
      <trkpt lat="45.22604" lon="5.2363">
        <ele>578.9</ele>
        <time>2022-04-28T13:59:28Z</time>
      </trkpt>
      <trkpt lat="45.22598" lon="5.23628">
        <ele>579.2</ele>
        <time>2022-04-28T13:59:30Z</time>
      </trkpt>
      <trkpt lat="45.22593" lon="5.23627">
        <ele>579.4</ele>
        <time>2022-04-28T13:59:31Z</time>
      </trkpt>
      <trkpt lat="45.22588" lon="5.23629">
        <ele>579.6</ele>
        <time>2022-04-28T13:59:33Z</time>
      </trkpt>
      <trkpt lat="45.22584" lon="5.23631">
        <ele>579.8</ele>
        <time>2022-04-28T13:59:34Z</time>
      </trkpt>
      <trkpt lat="45.2258" lon="5.23635">
        <ele>580</ele>
        <time>2022-04-28T13:59:35Z</time>
      </trkpt>
      <trkpt lat="45.22577" lon="5.23638">
        <ele>580.1</ele>
        <time>2022-04-28T13:59:36Z</time>
      </trkpt>
      <trkpt lat="45.22575" lon="5.23642">
        <ele>580.1</ele>
        <time>2022-04-28T13:59:37Z</time>
      </trkpt>
      <trkpt lat="45.22572" lon="5.23649">
        <ele>580.3</ele>
        <time>2022-04-28T13:59:39Z</time>
      </trkpt>
      <trkpt lat="45.22572" lon="5.23655">
        <ele>580.3</ele>
        <time>2022-04-28T13:59:40Z</time>
      </trkpt>
      <trkpt lat="45.22572" lon="5.2366">
        <ele>580.4</ele>
        <time>2022-04-28T13:59:41Z</time>
      </trkpt>
      <trkpt lat="45.22573" lon="5.23665">
        <ele>580.5</ele>
        <time>2022-04-28T13:59:42Z</time>
      </trkpt>
      <trkpt lat="45.22573" lon="5.23667">
        <ele>580.5</ele>
        <time>2022-04-28T13:59:43Z</time>
      </trkpt>
      <trkpt lat="45.22574" lon="5.23673">
        <ele>580.5</ele>
        <time>2022-04-28T13:59:45Z</time>
      </trkpt>
      <trkpt lat="45.22575" lon="5.23677">
        <ele>580.6</ele>
        <time>2022-04-28T13:59:46Z</time>
      </trkpt>
      <trkpt lat="45.22575" lon="5.23682">
        <ele>580.6</ele>
        <time>2022-04-28T13:59:47Z</time>
      </trkpt>
      <trkpt lat="45.22577" lon="5.23688">
        <ele>580.7</ele>
        <time>2022-04-28T13:59:48Z</time>
      </trkpt>
      <trkpt lat="45.22579" lon="5.23695">
        <ele>580.8</ele>
        <time>2022-04-28T13:59:49Z</time>
      </trkpt>
      <trkpt lat="45.2258" lon="5.237">
        <ele>580.9</ele>
        <time>2022-04-28T13:59:50Z</time>
      </trkpt>
      <trkpt lat="45.22581" lon="5.23705">
        <ele>581.1</ele>
        <time>2022-04-28T13:59:51Z</time>
      </trkpt>
      <trkpt lat="45.22582" lon="5.23711">
        <ele>581.2</ele>
        <time>2022-04-28T13:59:52Z</time>
      </trkpt>
      <trkpt lat="45.22583" lon="5.23717">
        <ele>581.3</ele>
        <time>2022-04-28T13:59:53Z</time>
      </trkpt>
      <trkpt lat="45.22584" lon="5.23723">
        <ele>581.5</ele>
        <time>2022-04-28T13:59:54Z</time>
      </trkpt>
      <trkpt lat="45.22586" lon="5.23734">
        <ele>581.8</ele>
        <time>2022-04-28T13:59:56Z</time>
      </trkpt>
      <trkpt lat="45.22587" lon="5.23742">
        <ele>582</ele>
        <time>2022-04-28T13:59:57Z</time>
      </trkpt>
      <trkpt lat="45.22588" lon="5.23749">
        <ele>582.3</ele>
        <time>2022-04-28T13:59:58Z</time>
      </trkpt>
      <trkpt lat="45.22589" lon="5.23755">
        <ele>582.4</ele>
        <time>2022-04-28T13:59:59Z</time>
      </trkpt>
      <trkpt lat="45.2259" lon="5.23761">
        <ele>582.6</ele>
        <time>2022-04-28T14:00:00Z</time>
      </trkpt>
      <trkpt lat="45.2259" lon="5.2377">
        <ele>582.9</ele>
        <time>2022-04-28T14:00:02Z</time>
      </trkpt>
      <trkpt lat="45.22589" lon="5.23777">
        <ele>583.1</ele>
        <time>2022-04-28T14:00:03Z</time>
      </trkpt>
      <trkpt lat="45.22587" lon="5.23782">
        <ele>583.3</ele>
        <time>2022-04-28T14:00:04Z</time>
      </trkpt>
      <trkpt lat="45.22584" lon="5.23786">
        <ele>583.5</ele>
        <time>2022-04-28T14:00:05Z</time>
      </trkpt>
      <trkpt lat="45.22581" lon="5.2379">
        <ele>583.6</ele>
        <time>2022-04-28T14:00:06Z</time>
      </trkpt>
      <trkpt lat="45.22578" lon="5.23792">
        <ele>583.8</ele>
        <time>2022-04-28T14:00:07Z</time>
      </trkpt>
      <trkpt lat="45.22575" lon="5.23794">
        <ele>583.9</ele>
        <time>2022-04-28T14:00:08Z</time>
      </trkpt>
      <trkpt lat="45.2257" lon="5.23795">
        <ele>584.1</ele>
        <time>2022-04-28T14:00:09Z</time>
      </trkpt>
      <trkpt lat="45.22566" lon="5.23797">
        <ele>584.3</ele>
        <time>2022-04-28T14:00:10Z</time>
      </trkpt>
      <trkpt lat="45.22562" lon="5.23798">
        <ele>584.4</ele>
        <time>2022-04-28T14:00:11Z</time>
      </trkpt>
      <trkpt lat="45.22559" lon="5.23799">
        <ele>584.5</ele>
        <time>2022-04-28T14:00:12Z</time>
      </trkpt>
      <trkpt lat="45.22555" lon="5.23799">
        <ele>584.6</ele>
        <time>2022-04-28T14:00:13Z</time>
      </trkpt>
      <trkpt lat="45.22551" lon="5.23799">
        <ele>584.8</ele>
        <time>2022-04-28T14:00:14Z</time>
      </trkpt>
      <trkpt lat="45.22548" lon="5.23799">
        <ele>584.9</ele>
        <time>2022-04-28T14:00:15Z</time>
      </trkpt>
      <trkpt lat="45.22545" lon="5.23799">
        <ele>585</ele>
        <time>2022-04-28T14:00:16Z</time>
      </trkpt>
      <trkpt lat="45.22541" lon="5.238">
        <ele>585.1</ele>
        <time>2022-04-28T14:00:17Z</time>
      </trkpt>
      <trkpt lat="45.22538" lon="5.238">
        <ele>585.2</ele>
        <time>2022-04-28T14:00:18Z</time>
      </trkpt>
      <trkpt lat="45.22534" lon="5.238">
        <ele>585.3</ele>
        <time>2022-04-28T14:00:19Z</time>
      </trkpt>
      <trkpt lat="45.22531" lon="5.238">
        <ele>585.4</ele>
        <time>2022-04-28T14:00:20Z</time>
      </trkpt>
      <trkpt lat="45.22527" lon="5.238">
        <ele>585.6</ele>
        <time>2022-04-28T14:00:21Z</time>
      </trkpt>
      <trkpt lat="45.22524" lon="5.238">
        <ele>585.7</ele>
        <time>2022-04-28T14:00:22Z</time>
      </trkpt>
      <trkpt lat="45.22521" lon="5.238">
        <ele>585.7</ele>
        <time>2022-04-28T14:00:24Z</time>
      </trkpt>
      <trkpt lat="45.22517" lon="5.238">
        <ele>585.9</ele>
        <time>2022-04-28T14:00:25Z</time>
      </trkpt>
      <trkpt lat="45.22513" lon="5.23801">
        <ele>586</ele>
        <time>2022-04-28T14:00:26Z</time>
      </trkpt>
      <trkpt lat="45.22509" lon="5.23801">
        <ele>586.1</ele>
        <time>2022-04-28T14:00:28Z</time>
      </trkpt>
      <trkpt lat="45.22505" lon="5.23802">
        <ele>586.2</ele>
        <time>2022-04-28T14:00:29Z</time>
      </trkpt>
      <trkpt lat="45.22502" lon="5.23802">
        <ele>586.3</ele>
        <time>2022-04-28T14:00:30Z</time>
      </trkpt>
      <trkpt lat="45.22497" lon="5.23803">
        <ele>586.5</ele>
        <time>2022-04-28T14:00:31Z</time>
      </trkpt>
      <trkpt lat="45.22494" lon="5.23804">
        <ele>586.6</ele>
        <time>2022-04-28T14:00:32Z</time>
      </trkpt>
      <trkpt lat="45.22489" lon="5.23804">
        <ele>586.7</ele>
        <time>2022-04-28T14:00:34Z</time>
      </trkpt>
      <trkpt lat="45.22485" lon="5.23806">
        <ele>586.8</ele>
        <time>2022-04-28T14:00:35Z</time>
      </trkpt>
      <trkpt lat="45.22479" lon="5.23809">
        <ele>587</ele>
        <time>2022-04-28T14:00:36Z</time>
      </trkpt>
      <trkpt lat="45.22474" lon="5.23811">
        <ele>587.1</ele>
        <time>2022-04-28T14:00:37Z</time>
      </trkpt>
      <trkpt lat="45.2247" lon="5.23812">
        <ele>587.2</ele>
        <time>2022-04-28T14:00:38Z</time>
      </trkpt>
      <trkpt lat="45.22466" lon="5.23814">
        <ele>587.4</ele>
        <time>2022-04-28T14:00:39Z</time>
      </trkpt>
      <trkpt lat="45.2246" lon="5.23816">
        <ele>587.5</ele>
        <time>2022-04-28T14:00:41Z</time>
      </trkpt>
      <trkpt lat="45.22453" lon="5.23818">
        <ele>587.7</ele>
        <time>2022-04-28T14:00:42Z</time>
      </trkpt>
      <trkpt lat="45.22449" lon="5.23819">
        <ele>587.8</ele>
        <time>2022-04-28T14:00:43Z</time>
      </trkpt>
      <trkpt lat="45.2244" lon="5.23822">
        <ele>588.1</ele>
        <time>2022-04-28T14:00:45Z</time>
      </trkpt>
      <trkpt lat="45.22435" lon="5.23823">
        <ele>588.3</ele>
        <time>2022-04-28T14:00:46Z</time>
      </trkpt>
      <trkpt lat="45.22431" lon="5.23824">
        <ele>588.5</ele>
        <time>2022-04-28T14:00:47Z</time>
      </trkpt>
      <trkpt lat="45.22424" lon="5.23824">
        <ele>588.7</ele>
        <time>2022-04-28T14:00:49Z</time>
      </trkpt>
      <trkpt lat="45.22419" lon="5.23824">
        <ele>588.9</ele>
        <time>2022-04-28T14:00:50Z</time>
      </trkpt>
      <trkpt lat="45.22414" lon="5.23823">
        <ele>589.1</ele>
        <time>2022-04-28T14:00:51Z</time>
      </trkpt>
      <trkpt lat="45.22408" lon="5.23821">
        <ele>589.2</ele>
        <time>2022-04-28T14:00:52Z</time>
      </trkpt>
      <trkpt lat="45.22404" lon="5.2382">
        <ele>589.4</ele>
        <time>2022-04-28T14:00:53Z</time>
      </trkpt>
      <trkpt lat="45.224" lon="5.23819">
        <ele>589.5</ele>
        <time>2022-04-28T14:00:54Z</time>
      </trkpt>
      <trkpt lat="45.22396" lon="5.23818">
        <ele>589.7</ele>
        <time>2022-04-28T14:00:55Z</time>
      </trkpt>
      <trkpt lat="45.2239" lon="5.23816">
        <ele>589.9</ele>
        <time>2022-04-28T14:00:57Z</time>
      </trkpt>
      <trkpt lat="45.22386" lon="5.23814">
        <ele>590</ele>
        <time>2022-04-28T14:00:58Z</time>
      </trkpt>
      <trkpt lat="45.22381" lon="5.23812">
        <ele>590.2</ele>
        <time>2022-04-28T14:00:59Z</time>
      </trkpt>
      <trkpt lat="45.22376" lon="5.23809">
        <ele>590.4</ele>
        <time>2022-04-28T14:01:00Z</time>
      </trkpt>
      <trkpt lat="45.2237" lon="5.23806">
        <ele>590.6</ele>
        <time>2022-04-28T14:01:02Z</time>
      </trkpt>
      <trkpt lat="45.22367" lon="5.23803">
        <ele>590.8</ele>
        <time>2022-04-28T14:01:03Z</time>
      </trkpt>
      <trkpt lat="45.22362" lon="5.23799">
        <ele>591</ele>
        <time>2022-04-28T14:01:04Z</time>
      </trkpt>
      <trkpt lat="45.22359" lon="5.23797">
        <ele>591.1</ele>
        <time>2022-04-28T14:01:05Z</time>
      </trkpt>
      <trkpt lat="45.22356" lon="5.23794">
        <ele>591.2</ele>
        <time>2022-04-28T14:01:06Z</time>
      </trkpt>
      <trkpt lat="45.22352" lon="5.23791">
        <ele>591.4</ele>
        <time>2022-04-28T14:01:07Z</time>
      </trkpt>
      <trkpt lat="45.22349" lon="5.23787">
        <ele>591.5</ele>
        <time>2022-04-28T14:01:08Z</time>
      </trkpt>
      <trkpt lat="45.22346" lon="5.23784">
        <ele>591.7</ele>
        <time>2022-04-28T14:01:09Z</time>
      </trkpt>
      <trkpt lat="45.22342" lon="5.2378">
        <ele>591.8</ele>
        <time>2022-04-28T14:01:10Z</time>
      </trkpt>
      <trkpt lat="45.22339" lon="5.23776">
        <ele>592</ele>
        <time>2022-04-28T14:01:11Z</time>
      </trkpt>
      <trkpt lat="45.22336" lon="5.23773">
        <ele>592.1</ele>
        <time>2022-04-28T14:01:12Z</time>
      </trkpt>
      <trkpt lat="45.22333" lon="5.23769">
        <ele>592.2</ele>
        <time>2022-04-28T14:01:13Z</time>
      </trkpt>
      <trkpt lat="45.2233" lon="5.23765">
        <ele>592.3</ele>
        <time>2022-04-28T14:01:14Z</time>
      </trkpt>
      <trkpt lat="45.22327" lon="5.23761">
        <ele>592.5</ele>
        <time>2022-04-28T14:01:15Z</time>
      </trkpt>
      <trkpt lat="45.22324" lon="5.23756">
        <ele>592.6</ele>
        <time>2022-04-28T14:01:16Z</time>
      </trkpt>
      <trkpt lat="45.22322" lon="5.23752">
        <ele>592.7</ele>
        <time>2022-04-28T14:01:17Z</time>
      </trkpt>
      <trkpt lat="45.22318" lon="5.23746">
        <ele>592.9</ele>
        <time>2022-04-28T14:01:19Z</time>
      </trkpt>
      <trkpt lat="45.22315" lon="5.23741">
        <ele>593.1</ele>
        <time>2022-04-28T14:01:20Z</time>
      </trkpt>
      <trkpt lat="45.22313" lon="5.23736">
        <ele>593.2</ele>
        <time>2022-04-28T14:01:21Z</time>
      </trkpt>
      <trkpt lat="45.22311" lon="5.2373">
        <ele>593.4</ele>
        <time>2022-04-28T14:01:22Z</time>
      </trkpt>
      <trkpt lat="45.22308" lon="5.23723">
        <ele>593.5</ele>
        <time>2022-04-28T14:01:24Z</time>
      </trkpt>
      <trkpt lat="45.22307" lon="5.23717">
        <ele>593.7</ele>
        <time>2022-04-28T14:01:25Z</time>
      </trkpt>
      <trkpt lat="45.22305" lon="5.23711">
        <ele>593.9</ele>
        <time>2022-04-28T14:01:26Z</time>
      </trkpt>
      <trkpt lat="45.22304" lon="5.23704">
        <ele>594</ele>
        <time>2022-04-28T14:01:27Z</time>
      </trkpt>
      <trkpt lat="45.22303" lon="5.23698">
        <ele>594.2</ele>
        <time>2022-04-28T14:01:28Z</time>
      </trkpt>
      <trkpt lat="45.22302" lon="5.23692">
        <ele>594.4</ele>
        <time>2022-04-28T14:01:29Z</time>
      </trkpt>
      <trkpt lat="45.22301" lon="5.23683">
        <ele>594.6</ele>
        <time>2022-04-28T14:01:31Z</time>
      </trkpt>
      <trkpt lat="45.22301" lon="5.23678">
        <ele>594.8</ele>
        <time>2022-04-28T14:01:32Z</time>
      </trkpt>
      <trkpt lat="45.223" lon="5.23671">
        <ele>595</ele>
        <time>2022-04-28T14:01:33Z</time>
      </trkpt>
      <trkpt lat="45.22299" lon="5.23667">
        <ele>595.2</ele>
        <time>2022-04-28T14:01:34Z</time>
      </trkpt>
      <trkpt lat="45.22298" lon="5.2366">
        <ele>595.4</ele>
        <time>2022-04-28T14:01:36Z</time>
      </trkpt>
      <trkpt lat="45.22299" lon="5.23655">
        <ele>595.6</ele>
        <time>2022-04-28T14:01:37Z</time>
      </trkpt>
      <trkpt lat="45.22299" lon="5.23652">
        <ele>595.7</ele>
        <time>2022-04-28T14:01:38Z</time>
      </trkpt>
      <trkpt lat="45.22299" lon="5.23649">
        <ele>595.8</ele>
        <time>2022-04-28T14:01:39Z</time>
      </trkpt>
      <trkpt lat="45.22299" lon="5.23647">
        <ele>595.9</ele>
        <time>2022-04-28T14:01:40Z</time>
      </trkpt>
      <trkpt lat="45.22299" lon="5.23645">
        <ele>595.9</ele>
        <time>2022-04-28T14:01:41Z</time>
      </trkpt>
      <trkpt lat="45.22299" lon="5.23643">
        <ele>596</ele>
        <time>2022-04-28T14:01:42Z</time>
      </trkpt>
      <trkpt lat="45.223" lon="5.23639">
        <ele>596.2</ele>
        <time>2022-04-28T14:01:43Z</time>
      </trkpt>
      <trkpt lat="45.22301" lon="5.23637">
        <ele>596.2</ele>
        <time>2022-04-28T14:01:44Z</time>
      </trkpt>
      <trkpt lat="45.22301" lon="5.23632">
        <ele>596.4</ele>
        <time>2022-04-28T14:01:45Z</time>
      </trkpt>
      <trkpt lat="45.22301" lon="5.23631">
        <ele>596.4</ele>
        <time>2022-04-28T14:01:46Z</time>
      </trkpt>
      <trkpt lat="45.223" lon="5.23625">
        <ele>596.6</ele>
        <time>2022-04-28T14:01:47Z</time>
      </trkpt>
      <trkpt lat="45.223" lon="5.23623">
        <ele>596.7</ele>
        <time>2022-04-28T14:01:48Z</time>
      </trkpt>
      <trkpt lat="45.22299" lon="5.23619">
        <ele>596.8</ele>
        <time>2022-04-28T14:01:49Z</time>
      </trkpt>
      <trkpt lat="45.22296" lon="5.23614">
        <ele>596.9</ele>
        <time>2022-04-28T14:01:51Z</time>
      </trkpt>
      <trkpt lat="45.22292" lon="5.23608">
        <ele>597.1</ele>
        <time>2022-04-28T14:01:52Z</time>
      </trkpt>
      <trkpt lat="45.22287" lon="5.23601">
        <ele>597.3</ele>
        <time>2022-04-28T14:01:54Z</time>
      </trkpt>
      <trkpt lat="45.22281" lon="5.23596">
        <ele>597.5</ele>
        <time>2022-04-28T14:01:55Z</time>
      </trkpt>
      <trkpt lat="45.22278" lon="5.23594">
        <ele>597.6</ele>
        <time>2022-04-28T14:01:56Z</time>
      </trkpt>
      <trkpt lat="45.22274" lon="5.2359">
        <ele>597.7</ele>
        <time>2022-04-28T14:01:57Z</time>
      </trkpt>
      <trkpt lat="45.22268" lon="5.23586">
        <ele>597.9</ele>
        <time>2022-04-28T14:01:59Z</time>
      </trkpt>
      <trkpt lat="45.22263" lon="5.23582">
        <ele>598.1</ele>
        <time>2022-04-28T14:02:00Z</time>
      </trkpt>
      <trkpt lat="45.22259" lon="5.2358">
        <ele>598.3</ele>
        <time>2022-04-28T14:02:01Z</time>
      </trkpt>
      <trkpt lat="45.22255" lon="5.23577">
        <ele>598.4</ele>
        <time>2022-04-28T14:02:02Z</time>
      </trkpt>
      <trkpt lat="45.2225" lon="5.23574">
        <ele>598.6</ele>
        <time>2022-04-28T14:02:03Z</time>
      </trkpt>
      <trkpt lat="45.22245" lon="5.2357">
        <ele>598.8</ele>
        <time>2022-04-28T14:02:04Z</time>
      </trkpt>
      <trkpt lat="45.22239" lon="5.23566">
        <ele>599.1</ele>
        <time>2022-04-28T14:02:06Z</time>
      </trkpt>
      <trkpt lat="45.22235" lon="5.23563">
        <ele>599.3</ele>
        <time>2022-04-28T14:02:07Z</time>
      </trkpt>
      <trkpt lat="45.22231" lon="5.23559">
        <ele>599.5</ele>
        <time>2022-04-28T14:02:08Z</time>
      </trkpt>
      <trkpt lat="45.22228" lon="5.23556">
        <ele>599.7</ele>
        <time>2022-04-28T14:02:09Z</time>
      </trkpt>
      <trkpt lat="45.22224" lon="5.23554">
        <ele>599.8</ele>
        <time>2022-04-28T14:02:10Z</time>
      </trkpt>
      <trkpt lat="45.22221" lon="5.23551">
        <ele>600</ele>
        <time>2022-04-28T14:02:11Z</time>
      </trkpt>
      <trkpt lat="45.22217" lon="5.23548">
        <ele>600.1</ele>
        <time>2022-04-28T14:02:12Z</time>
      </trkpt>
      <trkpt lat="45.22214" lon="5.23545">
        <ele>600.3</ele>
        <time>2022-04-28T14:02:13Z</time>
      </trkpt>
      <trkpt lat="45.22211" lon="5.23543">
        <ele>600.4</ele>
        <time>2022-04-28T14:02:14Z</time>
      </trkpt>
      <trkpt lat="45.22207" lon="5.2354">
        <ele>600.6</ele>
        <time>2022-04-28T14:02:15Z</time>
      </trkpt>
      <trkpt lat="45.22205" lon="5.23539">
        <ele>600.7</ele>
        <time>2022-04-28T14:02:16Z</time>
      </trkpt>
      <trkpt lat="45.22202" lon="5.23537">
        <ele>600.8</ele>
        <time>2022-04-28T14:02:17Z</time>
      </trkpt>
      <trkpt lat="45.22196" lon="5.23534">
        <ele>601</ele>
        <time>2022-04-28T14:02:18Z</time>
      </trkpt>
      <trkpt lat="45.22191" lon="5.23532">
        <ele>601.2</ele>
        <time>2022-04-28T14:02:20Z</time>
      </trkpt>
      <trkpt lat="45.22186" lon="5.23531">
        <ele>601.4</ele>
        <time>2022-04-28T14:02:21Z</time>
      </trkpt>
      <trkpt lat="45.22182" lon="5.23529">
        <ele>601.5</ele>
        <time>2022-04-28T14:02:22Z</time>
      </trkpt>
      <trkpt lat="45.22175" lon="5.23527">
        <ele>601.7</ele>
        <time>2022-04-28T14:02:23Z</time>
      </trkpt>
      <trkpt lat="45.22171" lon="5.23525">
        <ele>601.9</ele>
        <time>2022-04-28T14:02:24Z</time>
      </trkpt>
      <trkpt lat="45.22166" lon="5.23523">
        <ele>602</ele>
        <time>2022-04-28T14:02:25Z</time>
      </trkpt>
      <trkpt lat="45.22162" lon="5.23523">
        <ele>602.1</ele>
        <time>2022-04-28T14:02:26Z</time>
      </trkpt>
      <trkpt lat="45.22158" lon="5.23521">
        <ele>602.3</ele>
        <time>2022-04-28T14:02:27Z</time>
      </trkpt>
      <trkpt lat="45.22154" lon="5.2352">
        <ele>602.4</ele>
        <time>2022-04-28T14:02:28Z</time>
      </trkpt>
      <trkpt lat="45.2215" lon="5.23519">
        <ele>602.6</ele>
        <time>2022-04-28T14:02:30Z</time>
      </trkpt>
      <trkpt lat="45.22146" lon="5.23518">
        <ele>602.7</ele>
        <time>2022-04-28T14:02:31Z</time>
      </trkpt>
      <trkpt lat="45.22143" lon="5.23516">
        <ele>602.8</ele>
        <time>2022-04-28T14:02:32Z</time>
      </trkpt>
      <trkpt lat="45.22138" lon="5.23514">
        <ele>603</ele>
        <time>2022-04-28T14:02:33Z</time>
      </trkpt>
      <trkpt lat="45.22134" lon="5.23512">
        <ele>603.1</ele>
        <time>2022-04-28T14:02:34Z</time>
      </trkpt>
      <trkpt lat="45.22131" lon="5.2351">
        <ele>603.3</ele>
        <time>2022-04-28T14:02:35Z</time>
      </trkpt>
      <trkpt lat="45.22127" lon="5.23509">
        <ele>603.4</ele>
        <time>2022-04-28T14:02:36Z</time>
      </trkpt>
      <trkpt lat="45.22122" lon="5.23506">
        <ele>603.5</ele>
        <time>2022-04-28T14:02:37Z</time>
      </trkpt>
      <trkpt lat="45.22116" lon="5.23504">
        <ele>603.7</ele>
        <time>2022-04-28T14:02:39Z</time>
      </trkpt>
      <trkpt lat="45.22111" lon="5.235">
        <ele>603.9</ele>
        <time>2022-04-28T14:02:40Z</time>
      </trkpt>
      <trkpt lat="45.22106" lon="5.23497">
        <ele>604.1</ele>
        <time>2022-04-28T14:02:42Z</time>
      </trkpt>
      <trkpt lat="45.221" lon="5.23494">
        <ele>604.3</ele>
        <time>2022-04-28T14:02:43Z</time>
      </trkpt>
      <trkpt lat="45.22096" lon="5.23491">
        <ele>604.5</ele>
        <time>2022-04-28T14:02:44Z</time>
      </trkpt>
      <trkpt lat="45.22092" lon="5.23489">
        <ele>604.6</ele>
        <time>2022-04-28T14:02:45Z</time>
      </trkpt>
      <trkpt lat="45.22088" lon="5.23485">
        <ele>604.8</ele>
        <time>2022-04-28T14:02:47Z</time>
      </trkpt>
      <trkpt lat="45.22084" lon="5.23482">
        <ele>605</ele>
        <time>2022-04-28T14:02:48Z</time>
      </trkpt>
      <trkpt lat="45.22079" lon="5.23478">
        <ele>605.2</ele>
        <time>2022-04-28T14:02:49Z</time>
      </trkpt>
      <trkpt lat="45.22075" lon="5.23475">
        <ele>605.3</ele>
        <time>2022-04-28T14:02:50Z</time>
      </trkpt>
      <trkpt lat="45.22073" lon="5.23471">
        <ele>605.4</ele>
        <time>2022-04-28T14:02:51Z</time>
      </trkpt>
      <trkpt lat="45.2207" lon="5.23467">
        <ele>605.5</ele>
        <time>2022-04-28T14:02:52Z</time>
      </trkpt>
      <trkpt lat="45.22066" lon="5.23462">
        <ele>605.6</ele>
        <time>2022-04-28T14:02:53Z</time>
      </trkpt>
      <trkpt lat="45.22063" lon="5.23458">
        <ele>605.7</ele>
        <time>2022-04-28T14:02:54Z</time>
      </trkpt>
      <trkpt lat="45.22061" lon="5.23453">
        <ele>605.9</ele>
        <time>2022-04-28T14:02:55Z</time>
      </trkpt>
      <trkpt lat="45.22058" lon="5.23448">
        <ele>606</ele>
        <time>2022-04-28T14:02:56Z</time>
      </trkpt>
      <trkpt lat="45.22054" lon="5.23443">
        <ele>606.1</ele>
        <time>2022-04-28T14:02:58Z</time>
      </trkpt>
      <trkpt lat="45.22051" lon="5.23438">
        <ele>606.3</ele>
        <time>2022-04-28T14:02:59Z</time>
      </trkpt>
      <trkpt lat="45.22048" lon="5.23434">
        <ele>606.4</ele>
        <time>2022-04-28T14:03:00Z</time>
      </trkpt>
      <trkpt lat="45.22046" lon="5.2343">
        <ele>606.5</ele>
        <time>2022-04-28T14:03:01Z</time>
      </trkpt>
      <trkpt lat="45.22043" lon="5.23427">
        <ele>606.6</ele>
        <time>2022-04-28T14:03:02Z</time>
      </trkpt>
      <trkpt lat="45.22041" lon="5.23424">
        <ele>606.7</ele>
        <time>2022-04-28T14:03:03Z</time>
      </trkpt>
      <trkpt lat="45.22038" lon="5.23421">
        <ele>606.8</ele>
        <time>2022-04-28T14:03:04Z</time>
      </trkpt>
      <trkpt lat="45.22035" lon="5.23417">
        <ele>607</ele>
        <time>2022-04-28T14:03:05Z</time>
      </trkpt>
      <trkpt lat="45.22032" lon="5.23414">
        <ele>607.1</ele>
        <time>2022-04-28T14:03:06Z</time>
      </trkpt>
      <trkpt lat="45.22029" lon="5.23411">
        <ele>607.2</ele>
        <time>2022-04-28T14:03:07Z</time>
      </trkpt>
      <trkpt lat="45.22024" lon="5.23406">
        <ele>607.5</ele>
        <time>2022-04-28T14:03:09Z</time>
      </trkpt>
      <trkpt lat="45.22021" lon="5.23402">
        <ele>607.7</ele>
        <time>2022-04-28T14:03:10Z</time>
      </trkpt>
      <trkpt lat="45.22017" lon="5.23398">
        <ele>607.9</ele>
        <time>2022-04-28T14:03:11Z</time>
      </trkpt>
      <trkpt lat="45.22013" lon="5.23395">
        <ele>608.1</ele>
        <time>2022-04-28T14:03:12Z</time>
      </trkpt>
      <trkpt lat="45.22009" lon="5.23393">
        <ele>608.3</ele>
        <time>2022-04-28T14:03:13Z</time>
      </trkpt>
      <trkpt lat="45.22006" lon="5.23391">
        <ele>608.5</ele>
        <time>2022-04-28T14:03:14Z</time>
      </trkpt>
      <trkpt lat="45.22003" lon="5.23388">
        <ele>608.7</ele>
        <time>2022-04-28T14:03:15Z</time>
      </trkpt>
      <trkpt lat="45.22" lon="5.23385">
        <ele>608.9</ele>
        <time>2022-04-28T14:03:16Z</time>
      </trkpt>
      <trkpt lat="45.21996" lon="5.23383">
        <ele>609.1</ele>
        <time>2022-04-28T14:03:17Z</time>
      </trkpt>
      <trkpt lat="45.21993" lon="5.23381">
        <ele>609.3</ele>
        <time>2022-04-28T14:03:18Z</time>
      </trkpt>
      <trkpt lat="45.2199" lon="5.2338">
        <ele>609.4</ele>
        <time>2022-04-28T14:03:19Z</time>
      </trkpt>
      <trkpt lat="45.21987" lon="5.23379">
        <ele>609.6</ele>
        <time>2022-04-28T14:03:20Z</time>
      </trkpt>
      <trkpt lat="45.21982" lon="5.23376">
        <ele>609.8</ele>
        <time>2022-04-28T14:03:22Z</time>
      </trkpt>
      <trkpt lat="45.21978" lon="5.23375">
        <ele>610</ele>
        <time>2022-04-28T14:03:23Z</time>
      </trkpt>
      <trkpt lat="45.21973" lon="5.23372">
        <ele>610.3</ele>
        <time>2022-04-28T14:03:24Z</time>
      </trkpt>
      <trkpt lat="45.2197" lon="5.23371">
        <ele>610.5</ele>
        <time>2022-04-28T14:03:25Z</time>
      </trkpt>
      <trkpt lat="45.21966" lon="5.2337">
        <ele>610.6</ele>
        <time>2022-04-28T14:03:26Z</time>
      </trkpt>
      <trkpt lat="45.21963" lon="5.23369">
        <ele>610.8</ele>
        <time>2022-04-28T14:03:27Z</time>
      </trkpt>
      <trkpt lat="45.21959" lon="5.23368">
        <ele>610.9</ele>
        <time>2022-04-28T14:03:28Z</time>
      </trkpt>
      <trkpt lat="45.21958" lon="5.23367">
        <ele>611</ele>
        <time>2022-04-28T14:03:29Z</time>
      </trkpt>
      <trkpt lat="45.21956" lon="5.23365">
        <ele>611.1</ele>
        <time>2022-04-28T14:03:30Z</time>
      </trkpt>
      <trkpt lat="45.21952" lon="5.23362">
        <ele>611.3</ele>
        <time>2022-04-28T14:03:31Z</time>
      </trkpt>
      <trkpt lat="45.21949" lon="5.23358">
        <ele>611.5</ele>
        <time>2022-04-28T14:03:32Z</time>
      </trkpt>
      <trkpt lat="45.21945" lon="5.23355">
        <ele>611.6</ele>
        <time>2022-04-28T14:03:33Z</time>
      </trkpt>
      <trkpt lat="45.21943" lon="5.23353">
        <ele>611.7</ele>
        <time>2022-04-28T14:03:34Z</time>
      </trkpt>
      <trkpt lat="45.2194" lon="5.23348">
        <ele>611.9</ele>
        <time>2022-04-28T14:03:35Z</time>
      </trkpt>
      <trkpt lat="45.21937" lon="5.23343">
        <ele>612</ele>
        <time>2022-04-28T14:03:36Z</time>
      </trkpt>
      <trkpt lat="45.21934" lon="5.23338">
        <ele>612.2</ele>
        <time>2022-04-28T14:03:37Z</time>
      </trkpt>
      <trkpt lat="45.21932" lon="5.23334">
        <ele>612.3</ele>
        <time>2022-04-28T14:03:38Z</time>
      </trkpt>
      <trkpt lat="45.21929" lon="5.2333">
        <ele>612.4</ele>
        <time>2022-04-28T14:03:39Z</time>
      </trkpt>
      <trkpt lat="45.21927" lon="5.23326">
        <ele>612.5</ele>
        <time>2022-04-28T14:03:40Z</time>
      </trkpt>
      <trkpt lat="45.21926" lon="5.23323">
        <ele>612.6</ele>
        <time>2022-04-28T14:03:41Z</time>
      </trkpt>
      <trkpt lat="45.21923" lon="5.23319">
        <ele>612.7</ele>
        <time>2022-04-28T14:03:42Z</time>
      </trkpt>
      <trkpt lat="45.21921" lon="5.23314">
        <ele>612.8</ele>
        <time>2022-04-28T14:03:43Z</time>
      </trkpt>
      <trkpt lat="45.21918" lon="5.23309">
        <ele>612.9</ele>
        <time>2022-04-28T14:03:44Z</time>
      </trkpt>
      <trkpt lat="45.21915" lon="5.23305">
        <ele>613</ele>
        <time>2022-04-28T14:03:45Z</time>
      </trkpt>
      <trkpt lat="45.21913" lon="5.23302">
        <ele>613.1</ele>
        <time>2022-04-28T14:03:46Z</time>
      </trkpt>
      <trkpt lat="45.21911" lon="5.23299">
        <ele>613.2</ele>
        <time>2022-04-28T14:03:47Z</time>
      </trkpt>
      <trkpt lat="45.21909" lon="5.23295">
        <ele>613.3</ele>
        <time>2022-04-28T14:03:48Z</time>
      </trkpt>
      <trkpt lat="45.21907" lon="5.23291">
        <ele>613.5</ele>
        <time>2022-04-28T14:03:49Z</time>
      </trkpt>
      <trkpt lat="45.21903" lon="5.23286">
        <ele>613.6</ele>
        <time>2022-04-28T14:03:51Z</time>
      </trkpt>
      <trkpt lat="45.219" lon="5.2328">
        <ele>613.8</ele>
        <time>2022-04-28T14:03:52Z</time>
      </trkpt>
      <trkpt lat="45.21897" lon="5.23275">
        <ele>614</ele>
        <time>2022-04-28T14:03:53Z</time>
      </trkpt>
      <trkpt lat="45.21895" lon="5.2327">
        <ele>614.1</ele>
        <time>2022-04-28T14:03:54Z</time>
      </trkpt>
      <trkpt lat="45.21892" lon="5.23266">
        <ele>614.2</ele>
        <time>2022-04-28T14:03:55Z</time>
      </trkpt>
      <trkpt lat="45.2189" lon="5.2326">
        <ele>614.3</ele>
        <time>2022-04-28T14:03:56Z</time>
      </trkpt>
      <trkpt lat="45.21885" lon="5.23252">
        <ele>614.6</ele>
        <time>2022-04-28T14:03:58Z</time>
      </trkpt>
      <trkpt lat="45.2188" lon="5.23243">
        <ele>614.8</ele>
        <time>2022-04-28T14:03:59Z</time>
      </trkpt>
      <trkpt lat="45.21877" lon="5.23237">
        <ele>615</ele>
        <time>2022-04-28T14:04:00Z</time>
      </trkpt>
      <trkpt lat="45.21873" lon="5.23226">
        <ele>615.2</ele>
        <time>2022-04-28T14:04:01Z</time>
      </trkpt>
      <trkpt lat="45.21871" lon="5.23216">
        <ele>615.5</ele>
        <time>2022-04-28T14:04:03Z</time>
      </trkpt>
      <trkpt lat="45.21868" lon="5.23211">
        <ele>615.6</ele>
        <time>2022-04-28T14:04:04Z</time>
      </trkpt>
      <trkpt lat="45.21863" lon="5.23204">
        <ele>615.9</ele>
        <time>2022-04-28T14:04:06Z</time>
      </trkpt>
      <trkpt lat="45.21861" lon="5.23199">
        <ele>616</ele>
        <time>2022-04-28T14:04:07Z</time>
      </trkpt>
      <trkpt lat="45.21858" lon="5.23193">
        <ele>616.2</ele>
        <time>2022-04-28T14:04:08Z</time>
      </trkpt>
      <trkpt lat="45.21856" lon="5.23187">
        <ele>616.3</ele>
        <time>2022-04-28T14:04:09Z</time>
      </trkpt>
      <trkpt lat="45.21853" lon="5.23179">
        <ele>616.5</ele>
        <time>2022-04-28T14:04:11Z</time>
      </trkpt>
      <trkpt lat="45.21849" lon="5.23172">
        <ele>616.8</ele>
        <time>2022-04-28T14:04:12Z</time>
      </trkpt>
      <trkpt lat="45.21846" lon="5.23166">
        <ele>617</ele>
        <time>2022-04-28T14:04:13Z</time>
      </trkpt>
      <trkpt lat="45.21843" lon="5.2316">
        <ele>617.1</ele>
        <time>2022-04-28T14:04:14Z</time>
      </trkpt>
      <trkpt lat="45.21842" lon="5.23156">
        <ele>617.3</ele>
        <time>2022-04-28T14:04:15Z</time>
      </trkpt>
      <trkpt lat="45.21839" lon="5.2315">
        <ele>617.4</ele>
        <time>2022-04-28T14:04:16Z</time>
      </trkpt>
      <trkpt lat="45.21837" lon="5.23146">
        <ele>617.5</ele>
        <time>2022-04-28T14:04:17Z</time>
      </trkpt>
      <trkpt lat="45.21835" lon="5.23141">
        <ele>617.7</ele>
        <time>2022-04-28T14:04:18Z</time>
      </trkpt>
      <trkpt lat="45.21832" lon="5.23135">
        <ele>617.8</ele>
        <time>2022-04-28T14:04:20Z</time>
      </trkpt>
      <trkpt lat="45.2183" lon="5.23129">
        <ele>618</ele>
        <time>2022-04-28T14:04:21Z</time>
      </trkpt>
      <trkpt lat="45.21828" lon="5.23124">
        <ele>618.1</ele>
        <time>2022-04-28T14:04:22Z</time>
      </trkpt>
      <trkpt lat="45.21827" lon="5.23119">
        <ele>618.2</ele>
        <time>2022-04-28T14:04:23Z</time>
      </trkpt>
      <trkpt lat="45.21825" lon="5.23114">
        <ele>618.3</ele>
        <time>2022-04-28T14:04:24Z</time>
      </trkpt>
      <trkpt lat="45.21822" lon="5.23109">
        <ele>618.5</ele>
        <time>2022-04-28T14:04:25Z</time>
      </trkpt>
      <trkpt lat="45.2182" lon="5.23104">
        <ele>618.6</ele>
        <time>2022-04-28T14:04:26Z</time>
      </trkpt>
      <trkpt lat="45.21818" lon="5.23099">
        <ele>618.7</ele>
        <time>2022-04-28T14:04:27Z</time>
      </trkpt>
      <trkpt lat="45.21814" lon="5.23091">
        <ele>618.9</ele>
        <time>2022-04-28T14:04:29Z</time>
      </trkpt>
      <trkpt lat="45.21812" lon="5.23085">
        <ele>619</ele>
        <time>2022-04-28T14:04:30Z</time>
      </trkpt>
      <trkpt lat="45.2181" lon="5.23079">
        <ele>619.2</ele>
        <time>2022-04-28T14:04:31Z</time>
      </trkpt>
      <trkpt lat="45.21807" lon="5.23073">
        <ele>619.3</ele>
        <time>2022-04-28T14:04:32Z</time>
      </trkpt>
      <trkpt lat="45.21804" lon="5.23069">
        <ele>619.4</ele>
        <time>2022-04-28T14:04:33Z</time>
      </trkpt>
      <trkpt lat="45.21802" lon="5.23063">
        <ele>619.6</ele>
        <time>2022-04-28T14:04:34Z</time>
      </trkpt>
      <trkpt lat="45.21799" lon="5.23057">
        <ele>619.7</ele>
        <time>2022-04-28T14:04:35Z</time>
      </trkpt>
      <trkpt lat="45.21797" lon="5.23052">
        <ele>619.8</ele>
        <time>2022-04-28T14:04:36Z</time>
      </trkpt>
      <trkpt lat="45.21795" lon="5.23047">
        <ele>619.9</ele>
        <time>2022-04-28T14:04:37Z</time>
      </trkpt>
      <trkpt lat="45.21793" lon="5.23042">
        <ele>620</ele>
        <time>2022-04-28T14:04:38Z</time>
      </trkpt>
      <trkpt lat="45.2179" lon="5.23034">
        <ele>620.2</ele>
        <time>2022-04-28T14:04:40Z</time>
      </trkpt>
      <trkpt lat="45.21787" lon="5.23028">
        <ele>620.3</ele>
        <time>2022-04-28T14:04:41Z</time>
      </trkpt>
      <trkpt lat="45.21784" lon="5.23018">
        <ele>620.5</ele>
        <time>2022-04-28T14:04:42Z</time>
      </trkpt>
      <trkpt lat="45.21782" lon="5.23012">
        <ele>620.6</ele>
        <time>2022-04-28T14:04:43Z</time>
      </trkpt>
      <trkpt lat="45.21778" lon="5.23008">
        <ele>620.7</ele>
        <time>2022-04-28T14:04:45Z</time>
      </trkpt>
      <trkpt lat="45.21776" lon="5.23005">
        <ele>620.8</ele>
        <time>2022-04-28T14:04:46Z</time>
      </trkpt>
      <trkpt lat="45.21772" lon="5.22996">
        <ele>621</ele>
        <time>2022-04-28T14:04:47Z</time>
      </trkpt>
      <trkpt lat="45.21769" lon="5.22988">
        <ele>621.1</ele>
        <time>2022-04-28T14:04:49Z</time>
      </trkpt>
      <trkpt lat="45.21766" lon="5.22981">
        <ele>621.2</ele>
        <time>2022-04-28T14:04:50Z</time>
      </trkpt>
      <trkpt lat="45.21763" lon="5.22976">
        <ele>621.3</ele>
        <time>2022-04-28T14:04:51Z</time>
      </trkpt>
      <trkpt lat="45.21761" lon="5.22971">
        <ele>621.4</ele>
        <time>2022-04-28T14:04:52Z</time>
      </trkpt>
      <trkpt lat="45.21759" lon="5.22965">
        <ele>621.4</ele>
        <time>2022-04-28T14:04:53Z</time>
      </trkpt>
      <trkpt lat="45.21757" lon="5.22959">
        <ele>621.5</ele>
        <time>2022-04-28T14:04:54Z</time>
      </trkpt>
      <trkpt lat="45.21753" lon="5.22952">
        <ele>621.6</ele>
        <time>2022-04-28T14:04:56Z</time>
      </trkpt>
      <trkpt lat="45.21751" lon="5.22946">
        <ele>621.7</ele>
        <time>2022-04-28T14:04:57Z</time>
      </trkpt>
      <trkpt lat="45.21748" lon="5.2294">
        <ele>621.8</ele>
        <time>2022-04-28T14:04:58Z</time>
      </trkpt>
      <trkpt lat="45.21746" lon="5.22935">
        <ele>621.9</ele>
        <time>2022-04-28T14:04:59Z</time>
      </trkpt>
      <trkpt lat="45.21743" lon="5.22929">
        <ele>621.9</ele>
        <time>2022-04-28T14:05:00Z</time>
      </trkpt>
      <trkpt lat="45.21739" lon="5.22921">
        <ele>622</ele>
        <time>2022-04-28T14:05:02Z</time>
      </trkpt>
      <trkpt lat="45.21737" lon="5.22915">
        <ele>622.1</ele>
        <time>2022-04-28T14:05:03Z</time>
      </trkpt>
      <trkpt lat="45.21732" lon="5.22908">
        <ele>622.2</ele>
        <time>2022-04-28T14:05:04Z</time>
      </trkpt>
      <trkpt lat="45.21729" lon="5.22903">
        <ele>622.2</ele>
        <time>2022-04-28T14:05:05Z</time>
      </trkpt>
      <trkpt lat="45.21728" lon="5.22899">
        <ele>622.3</ele>
        <time>2022-04-28T14:05:06Z</time>
      </trkpt>
      <trkpt lat="45.21727" lon="5.22892">
        <ele>622.3</ele>
        <time>2022-04-28T14:05:08Z</time>
      </trkpt>
      <trkpt lat="45.21722" lon="5.22881">
        <ele>622.4</ele>
        <time>2022-04-28T14:05:09Z</time>
      </trkpt>
      <trkpt lat="45.2172" lon="5.22874">
        <ele>622.4</ele>
        <time>2022-04-28T14:05:10Z</time>
      </trkpt>
      <trkpt lat="45.21717" lon="5.22868">
        <ele>622.5</ele>
        <time>2022-04-28T14:05:11Z</time>
      </trkpt>
      <trkpt lat="45.21714" lon="5.22862">
        <ele>622.5</ele>
        <time>2022-04-28T14:05:12Z</time>
      </trkpt>
      <trkpt lat="45.21711" lon="5.22857">
        <ele>622.5</ele>
        <time>2022-04-28T14:05:13Z</time>
      </trkpt>
      <trkpt lat="45.21709" lon="5.2285">
        <ele>622.6</ele>
        <time>2022-04-28T14:05:14Z</time>
      </trkpt>
      <trkpt lat="45.21706" lon="5.22844">
        <ele>622.6</ele>
        <time>2022-04-28T14:05:15Z</time>
      </trkpt>
      <trkpt lat="45.21703" lon="5.22838">
        <ele>622.7</ele>
        <time>2022-04-28T14:05:16Z</time>
      </trkpt>
      <trkpt lat="45.21701" lon="5.22832">
        <ele>622.7</ele>
        <time>2022-04-28T14:05:17Z</time>
      </trkpt>
      <trkpt lat="45.21698" lon="5.22826">
        <ele>622.8</ele>
        <time>2022-04-28T14:05:18Z</time>
      </trkpt>
      <trkpt lat="45.21695" lon="5.22821">
        <ele>622.8</ele>
        <time>2022-04-28T14:05:19Z</time>
      </trkpt>
      <trkpt lat="45.21693" lon="5.22816">
        <ele>622.9</ele>
        <time>2022-04-28T14:05:20Z</time>
      </trkpt>
      <trkpt lat="45.2169" lon="5.2281">
        <ele>622.9</ele>
        <time>2022-04-28T14:05:21Z</time>
      </trkpt>
      <trkpt lat="45.21687" lon="5.22805">
        <ele>623</ele>
        <time>2022-04-28T14:05:22Z</time>
      </trkpt>
      <trkpt lat="45.21686" lon="5.22799">
        <ele>623</ele>
        <time>2022-04-28T14:05:23Z</time>
      </trkpt>
      <trkpt lat="45.21682" lon="5.22792">
        <ele>623.1</ele>
        <time>2022-04-28T14:05:24Z</time>
      </trkpt>
      <trkpt lat="45.2168" lon="5.22785">
        <ele>623.1</ele>
        <time>2022-04-28T14:05:25Z</time>
      </trkpt>
      <trkpt lat="45.21677" lon="5.22779">
        <ele>623.2</ele>
        <time>2022-04-28T14:05:26Z</time>
      </trkpt>
      <trkpt lat="45.21675" lon="5.22773">
        <ele>623.2</ele>
        <time>2022-04-28T14:05:27Z</time>
      </trkpt>
      <trkpt lat="45.21671" lon="5.22766">
        <ele>623.3</ele>
        <time>2022-04-28T14:05:28Z</time>
      </trkpt>
      <trkpt lat="45.21669" lon="5.22759">
        <ele>623.3</ele>
        <time>2022-04-28T14:05:29Z</time>
      </trkpt>
      <trkpt lat="45.21667" lon="5.22754">
        <ele>623.3</ele>
        <time>2022-04-28T14:05:30Z</time>
      </trkpt>
      <trkpt lat="45.21664" lon="5.22747">
        <ele>623.4</ele>
        <time>2022-04-28T14:05:31Z</time>
      </trkpt>
      <trkpt lat="45.21661" lon="5.22741">
        <ele>623.4</ele>
        <time>2022-04-28T14:05:32Z</time>
      </trkpt>
      <trkpt lat="45.21659" lon="5.22736">
        <ele>623.4</ele>
        <time>2022-04-28T14:05:33Z</time>
      </trkpt>
      <trkpt lat="45.21657" lon="5.2273">
        <ele>623.4</ele>
        <time>2022-04-28T14:05:34Z</time>
      </trkpt>
      <trkpt lat="45.21654" lon="5.22724">
        <ele>623.5</ele>
        <time>2022-04-28T14:05:35Z</time>
      </trkpt>
      <trkpt lat="45.21651" lon="5.22716">
        <ele>623.5</ele>
        <time>2022-04-28T14:05:36Z</time>
      </trkpt>
      <trkpt lat="45.21648" lon="5.2271">
        <ele>623.5</ele>
        <time>2022-04-28T14:05:37Z</time>
      </trkpt>
      <trkpt lat="45.21645" lon="5.22703">
        <ele>623.6</ele>
        <time>2022-04-28T14:05:38Z</time>
      </trkpt>
      <trkpt lat="45.21643" lon="5.22697">
        <ele>623.6</ele>
        <time>2022-04-28T14:05:39Z</time>
      </trkpt>
      <trkpt lat="45.2164" lon="5.22692">
        <ele>623.6</ele>
        <time>2022-04-28T14:05:40Z</time>
      </trkpt>
      <trkpt lat="45.21637" lon="5.22686">
        <ele>623.7</ele>
        <time>2022-04-28T14:05:41Z</time>
      </trkpt>
      <trkpt lat="45.21634" lon="5.2268">
        <ele>623.7</ele>
        <time>2022-04-28T14:05:42Z</time>
      </trkpt>
      <trkpt lat="45.21631" lon="5.22674">
        <ele>623.7</ele>
        <time>2022-04-28T14:05:43Z</time>
      </trkpt>
      <trkpt lat="45.21628" lon="5.22667">
        <ele>623.7</ele>
        <time>2022-04-28T14:05:44Z</time>
      </trkpt>
      <trkpt lat="45.21625" lon="5.22661">
        <ele>623.7</ele>
        <time>2022-04-28T14:05:45Z</time>
      </trkpt>
      <trkpt lat="45.21623" lon="5.22654">
        <ele>623.7</ele>
        <time>2022-04-28T14:05:46Z</time>
      </trkpt>
      <trkpt lat="45.2162" lon="5.22648">
        <ele>623.7</ele>
        <time>2022-04-28T14:05:47Z</time>
      </trkpt>
      <trkpt lat="45.21617" lon="5.22641">
        <ele>623.8</ele>
        <time>2022-04-28T14:05:48Z</time>
      </trkpt>
      <trkpt lat="45.21614" lon="5.22634">
        <ele>623.8</ele>
        <time>2022-04-28T14:05:49Z</time>
      </trkpt>
      <trkpt lat="45.21611" lon="5.22627">
        <ele>623.8</ele>
        <time>2022-04-28T14:05:50Z</time>
      </trkpt>
      <trkpt lat="45.21609" lon="5.22621">
        <ele>623.8</ele>
        <time>2022-04-28T14:05:51Z</time>
      </trkpt>
      <trkpt lat="45.21606" lon="5.22614">
        <ele>623.9</ele>
        <time>2022-04-28T14:05:52Z</time>
      </trkpt>
      <trkpt lat="45.21603" lon="5.22608">
        <ele>623.9</ele>
        <time>2022-04-28T14:05:53Z</time>
      </trkpt>
      <trkpt lat="45.216" lon="5.22601">
        <ele>623.9</ele>
        <time>2022-04-28T14:05:54Z</time>
      </trkpt>
      <trkpt lat="45.21598" lon="5.22595">
        <ele>623.9</ele>
        <time>2022-04-28T14:05:55Z</time>
      </trkpt>
      <trkpt lat="45.21595" lon="5.22589">
        <ele>624</ele>
        <time>2022-04-28T14:05:56Z</time>
      </trkpt>
      <trkpt lat="45.21592" lon="5.22582">
        <ele>624</ele>
        <time>2022-04-28T14:05:57Z</time>
      </trkpt>
      <trkpt lat="45.21589" lon="5.22575">
        <ele>624.1</ele>
        <time>2022-04-28T14:05:58Z</time>
      </trkpt>
      <trkpt lat="45.21586" lon="5.22568">
        <ele>624.2</ele>
        <time>2022-04-28T14:05:59Z</time>
      </trkpt>
      <trkpt lat="45.21583" lon="5.22561">
        <ele>624.2</ele>
        <time>2022-04-28T14:06:00Z</time>
      </trkpt>
      <trkpt lat="45.2158" lon="5.22555">
        <ele>624.3</ele>
        <time>2022-04-28T14:06:01Z</time>
      </trkpt>
      <trkpt lat="45.21577" lon="5.22548">
        <ele>624.3</ele>
        <time>2022-04-28T14:06:02Z</time>
      </trkpt>
      <trkpt lat="45.21574" lon="5.22542">
        <ele>624.4</ele>
        <time>2022-04-28T14:06:03Z</time>
      </trkpt>
      <trkpt lat="45.21572" lon="5.22535">
        <ele>624.4</ele>
        <time>2022-04-28T14:06:04Z</time>
      </trkpt>
      <trkpt lat="45.21569" lon="5.22529">
        <ele>624.5</ele>
        <time>2022-04-28T14:06:05Z</time>
      </trkpt>
      <trkpt lat="45.21566" lon="5.22522">
        <ele>624.5</ele>
        <time>2022-04-28T14:06:06Z</time>
      </trkpt>
      <trkpt lat="45.21563" lon="5.22515">
        <ele>624.6</ele>
        <time>2022-04-28T14:06:07Z</time>
      </trkpt>
      <trkpt lat="45.21561" lon="5.22507">
        <ele>624.6</ele>
        <time>2022-04-28T14:06:08Z</time>
      </trkpt>
      <trkpt lat="45.21558" lon="5.22501">
        <ele>624.6</ele>
        <time>2022-04-28T14:06:09Z</time>
      </trkpt>
      <trkpt lat="45.21555" lon="5.22494">
        <ele>624.7</ele>
        <time>2022-04-28T14:06:10Z</time>
      </trkpt>
      <trkpt lat="45.21552" lon="5.22487">
        <ele>624.7</ele>
        <time>2022-04-28T14:06:11Z</time>
      </trkpt>
      <trkpt lat="45.21549" lon="5.22481">
        <ele>624.7</ele>
        <time>2022-04-28T14:06:12Z</time>
      </trkpt>
      <trkpt lat="45.21546" lon="5.22475">
        <ele>624.8</ele>
        <time>2022-04-28T14:06:13Z</time>
      </trkpt>
      <trkpt lat="45.21544" lon="5.22469">
        <ele>624.8</ele>
        <time>2022-04-28T14:06:14Z</time>
      </trkpt>
      <trkpt lat="45.2154" lon="5.22463">
        <ele>624.8</ele>
        <time>2022-04-28T14:06:15Z</time>
      </trkpt>
      <trkpt lat="45.21537" lon="5.22458">
        <ele>624.9</ele>
        <time>2022-04-28T14:06:16Z</time>
      </trkpt>
      <trkpt lat="45.21533" lon="5.22452">
        <ele>624.9</ele>
        <time>2022-04-28T14:06:17Z</time>
      </trkpt>
      <trkpt lat="45.21529" lon="5.22447">
        <ele>624.9</ele>
        <time>2022-04-28T14:06:18Z</time>
      </trkpt>
      <trkpt lat="45.21525" lon="5.22442">
        <ele>624.9</ele>
        <time>2022-04-28T14:06:19Z</time>
      </trkpt>
      <trkpt lat="45.21521" lon="5.22437">
        <ele>624.9</ele>
        <time>2022-04-28T14:06:20Z</time>
      </trkpt>
      <trkpt lat="45.21518" lon="5.22431">
        <ele>624.9</ele>
        <time>2022-04-28T14:06:21Z</time>
      </trkpt>
      <trkpt lat="45.21514" lon="5.22426">
        <ele>624.9</ele>
        <time>2022-04-28T14:06:22Z</time>
      </trkpt>
      <trkpt lat="45.2151" lon="5.22421">
        <ele>624.9</ele>
        <time>2022-04-28T14:06:23Z</time>
      </trkpt>
      <trkpt lat="45.21505" lon="5.22415">
        <ele>624.8</ele>
        <time>2022-04-28T14:06:24Z</time>
      </trkpt>
      <trkpt lat="45.21501" lon="5.2241">
        <ele>624.8</ele>
        <time>2022-04-28T14:06:25Z</time>
      </trkpt>
      <trkpt lat="45.21497" lon="5.22404">
        <ele>624.8</ele>
        <time>2022-04-28T14:06:26Z</time>
      </trkpt>
      <trkpt lat="45.21493" lon="5.22399">
        <ele>624.7</ele>
        <time>2022-04-28T14:06:27Z</time>
      </trkpt>
      <trkpt lat="45.21488" lon="5.22394">
        <ele>624.7</ele>
        <time>2022-04-28T14:06:28Z</time>
      </trkpt>
      <trkpt lat="45.21484" lon="5.22388">
        <ele>624.6</ele>
        <time>2022-04-28T14:06:29Z</time>
      </trkpt>
      <trkpt lat="45.21479" lon="5.22382">
        <ele>624.6</ele>
        <time>2022-04-28T14:06:30Z</time>
      </trkpt>
      <trkpt lat="45.21475" lon="5.22376">
        <ele>624.5</ele>
        <time>2022-04-28T14:06:31Z</time>
      </trkpt>
      <trkpt lat="45.21471" lon="5.2237">
        <ele>624.5</ele>
        <time>2022-04-28T14:06:32Z</time>
      </trkpt>
      <trkpt lat="45.21467" lon="5.22363">
        <ele>624.4</ele>
        <time>2022-04-28T14:06:33Z</time>
      </trkpt>
      <trkpt lat="45.21463" lon="5.22357">
        <ele>624.4</ele>
        <time>2022-04-28T14:06:34Z</time>
      </trkpt>
      <trkpt lat="45.21458" lon="5.22351">
        <ele>624.3</ele>
        <time>2022-04-28T14:06:35Z</time>
      </trkpt>
      <trkpt lat="45.21453" lon="5.22345">
        <ele>624.3</ele>
        <time>2022-04-28T14:06:36Z</time>
      </trkpt>
      <trkpt lat="45.21448" lon="5.22339">
        <ele>624.3</ele>
        <time>2022-04-28T14:06:37Z</time>
      </trkpt>
      <trkpt lat="45.21444" lon="5.22333">
        <ele>624.2</ele>
        <time>2022-04-28T14:06:38Z</time>
      </trkpt>
      <trkpt lat="45.21439" lon="5.22328">
        <ele>624.2</ele>
        <time>2022-04-28T14:06:39Z</time>
      </trkpt>
      <trkpt lat="45.21435" lon="5.22322">
        <ele>624.2</ele>
        <time>2022-04-28T14:06:40Z</time>
      </trkpt>
      <trkpt lat="45.21431" lon="5.22317">
        <ele>624.1</ele>
        <time>2022-04-28T14:06:41Z</time>
      </trkpt>
      <trkpt lat="45.21426" lon="5.2231">
        <ele>624.1</ele>
        <time>2022-04-28T14:06:42Z</time>
      </trkpt>
      <trkpt lat="45.21422" lon="5.22305">
        <ele>624.1</ele>
        <time>2022-04-28T14:06:43Z</time>
      </trkpt>
      <trkpt lat="45.21417" lon="5.22299">
        <ele>624.1</ele>
        <time>2022-04-28T14:06:44Z</time>
      </trkpt>
      <trkpt lat="45.21412" lon="5.22293">
        <ele>624</ele>
        <time>2022-04-28T14:06:45Z</time>
      </trkpt>
      <trkpt lat="45.21408" lon="5.22287">
        <ele>624</ele>
        <time>2022-04-28T14:06:46Z</time>
      </trkpt>
      <trkpt lat="45.21404" lon="5.22282">
        <ele>624</ele>
        <time>2022-04-28T14:06:47Z</time>
      </trkpt>
      <trkpt lat="45.214" lon="5.22276">
        <ele>624</ele>
        <time>2022-04-28T14:06:48Z</time>
      </trkpt>
      <trkpt lat="45.21397" lon="5.22269">
        <ele>624</ele>
        <time>2022-04-28T14:06:49Z</time>
      </trkpt>
      <trkpt lat="45.21392" lon="5.22263">
        <ele>624</ele>
        <time>2022-04-28T14:06:50Z</time>
      </trkpt>
      <trkpt lat="45.21388" lon="5.22256">
        <ele>624</ele>
        <time>2022-04-28T14:06:51Z</time>
      </trkpt>
      <trkpt lat="45.21384" lon="5.22248">
        <ele>624</ele>
        <time>2022-04-28T14:06:52Z</time>
      </trkpt>
      <trkpt lat="45.2138" lon="5.22243">
        <ele>624</ele>
        <time>2022-04-28T14:06:53Z</time>
      </trkpt>
      <trkpt lat="45.21375" lon="5.22236">
        <ele>624</ele>
        <time>2022-04-28T14:06:54Z</time>
      </trkpt>
      <trkpt lat="45.21371" lon="5.22231">
        <ele>624</ele>
        <time>2022-04-28T14:06:55Z</time>
      </trkpt>
      <trkpt lat="45.21366" lon="5.22225">
        <ele>624</ele>
        <time>2022-04-28T14:06:56Z</time>
      </trkpt>
      <trkpt lat="45.21361" lon="5.22219">
        <ele>624</ele>
        <time>2022-04-28T14:06:57Z</time>
      </trkpt>
      <trkpt lat="45.21356" lon="5.22214">
        <ele>624</ele>
        <time>2022-04-28T14:06:58Z</time>
      </trkpt>
      <trkpt lat="45.21352" lon="5.22208">
        <ele>624</ele>
        <time>2022-04-28T14:06:59Z</time>
      </trkpt>
      <trkpt lat="45.21348" lon="5.22201">
        <ele>624</ele>
        <time>2022-04-28T14:07:00Z</time>
      </trkpt>
      <trkpt lat="45.21343" lon="5.22195">
        <ele>624</ele>
        <time>2022-04-28T14:07:01Z</time>
      </trkpt>
      <trkpt lat="45.21337" lon="5.22191">
        <ele>624</ele>
        <time>2022-04-28T14:07:02Z</time>
      </trkpt>
      <trkpt lat="45.21332" lon="5.22187">
        <ele>624</ele>
        <time>2022-04-28T14:07:03Z</time>
      </trkpt>
      <trkpt lat="45.21325" lon="5.22185">
        <ele>624</ele>
        <time>2022-04-28T14:07:04Z</time>
      </trkpt>
      <trkpt lat="45.21319" lon="5.22182">
        <ele>624</ele>
        <time>2022-04-28T14:07:05Z</time>
      </trkpt>
      <trkpt lat="45.21313" lon="5.22181">
        <ele>623.9</ele>
        <time>2022-04-28T14:07:06Z</time>
      </trkpt>
      <trkpt lat="45.21307" lon="5.22178">
        <ele>623.9</ele>
        <time>2022-04-28T14:07:07Z</time>
      </trkpt>
      <trkpt lat="45.213" lon="5.22177">
        <ele>623.9</ele>
        <time>2022-04-28T14:07:08Z</time>
      </trkpt>
      <trkpt lat="45.21294" lon="5.22176">
        <ele>623.9</ele>
        <time>2022-04-28T14:07:09Z</time>
      </trkpt>
      <trkpt lat="45.21287" lon="5.22174">
        <ele>623.9</ele>
        <time>2022-04-28T14:07:10Z</time>
      </trkpt>
      <trkpt lat="45.21281" lon="5.22172">
        <ele>623.8</ele>
        <time>2022-04-28T14:07:11Z</time>
      </trkpt>
      <trkpt lat="45.21275" lon="5.22171">
        <ele>623.7</ele>
        <time>2022-04-28T14:07:12Z</time>
      </trkpt>
      <trkpt lat="45.21269" lon="5.22169">
        <ele>623.7</ele>
        <time>2022-04-28T14:07:13Z</time>
      </trkpt>
      <trkpt lat="45.21262" lon="5.22168">
        <ele>623.6</ele>
        <time>2022-04-28T14:07:14Z</time>
      </trkpt>
      <trkpt lat="45.21256" lon="5.22166">
        <ele>623.5</ele>
        <time>2022-04-28T14:07:15Z</time>
      </trkpt>
      <trkpt lat="45.2125" lon="5.22164">
        <ele>623.4</ele>
        <time>2022-04-28T14:07:16Z</time>
      </trkpt>
      <trkpt lat="45.21244" lon="5.22163">
        <ele>623.3</ele>
        <time>2022-04-28T14:07:17Z</time>
      </trkpt>
      <trkpt lat="45.21238" lon="5.22161">
        <ele>623.3</ele>
        <time>2022-04-28T14:07:18Z</time>
      </trkpt>
      <trkpt lat="45.21231" lon="5.22159">
        <ele>623.2</ele>
        <time>2022-04-28T14:07:19Z</time>
      </trkpt>
      <trkpt lat="45.21225" lon="5.22158">
        <ele>623.1</ele>
        <time>2022-04-28T14:07:20Z</time>
      </trkpt>
      <trkpt lat="45.21218" lon="5.22156">
        <ele>623</ele>
        <time>2022-04-28T14:07:21Z</time>
      </trkpt>
      <trkpt lat="45.21212" lon="5.22155">
        <ele>623</ele>
        <time>2022-04-28T14:07:22Z</time>
      </trkpt>
      <trkpt lat="45.21205" lon="5.22154">
        <ele>622.8</ele>
        <time>2022-04-28T14:07:23Z</time>
      </trkpt>
      <trkpt lat="45.21199" lon="5.22151">
        <ele>622.7</ele>
        <time>2022-04-28T14:07:24Z</time>
      </trkpt>
      <trkpt lat="45.21193" lon="5.2215">
        <ele>622.6</ele>
        <time>2022-04-28T14:07:25Z</time>
      </trkpt>
      <trkpt lat="45.21186" lon="5.22148">
        <ele>622.4</ele>
        <time>2022-04-28T14:07:26Z</time>
      </trkpt>
      <trkpt lat="45.2118" lon="5.22147">
        <ele>622.3</ele>
        <time>2022-04-28T14:07:27Z</time>
      </trkpt>
      <trkpt lat="45.21174" lon="5.22145">
        <ele>622.2</ele>
        <time>2022-04-28T14:07:28Z</time>
      </trkpt>
      <trkpt lat="45.21168" lon="5.22143">
        <ele>622.1</ele>
        <time>2022-04-28T14:07:29Z</time>
      </trkpt>
      <trkpt lat="45.21162" lon="5.22141">
        <ele>621.9</ele>
        <time>2022-04-28T14:07:30Z</time>
      </trkpt>
      <trkpt lat="45.21156" lon="5.22139">
        <ele>621.8</ele>
        <time>2022-04-28T14:07:31Z</time>
      </trkpt>
      <trkpt lat="45.2115" lon="5.22138">
        <ele>621.6</ele>
        <time>2022-04-28T14:07:32Z</time>
      </trkpt>
      <trkpt lat="45.21144" lon="5.22136">
        <ele>621.4</ele>
        <time>2022-04-28T14:07:33Z</time>
      </trkpt>
      <trkpt lat="45.21138" lon="5.22135">
        <ele>621.3</ele>
        <time>2022-04-28T14:07:34Z</time>
      </trkpt>
      <trkpt lat="45.21132" lon="5.22133">
        <ele>621.1</ele>
        <time>2022-04-28T14:07:35Z</time>
      </trkpt>
      <trkpt lat="45.21125" lon="5.22132">
        <ele>620.9</ele>
        <time>2022-04-28T14:07:36Z</time>
      </trkpt>
      <trkpt lat="45.21119" lon="5.2213">
        <ele>620.7</ele>
        <time>2022-04-28T14:07:37Z</time>
      </trkpt>
      <trkpt lat="45.21112" lon="5.22128">
        <ele>620.5</ele>
        <time>2022-04-28T14:07:38Z</time>
      </trkpt>
      <trkpt lat="45.21106" lon="5.22126">
        <ele>620.2</ele>
        <time>2022-04-28T14:07:39Z</time>
      </trkpt>
      <trkpt lat="45.211" lon="5.22125">
        <ele>620</ele>
        <time>2022-04-28T14:07:40Z</time>
      </trkpt>
      <trkpt lat="45.21093" lon="5.22123">
        <ele>619.7</ele>
        <time>2022-04-28T14:07:41Z</time>
      </trkpt>
      <trkpt lat="45.21086" lon="5.22121">
        <ele>619.5</ele>
        <time>2022-04-28T14:07:42Z</time>
      </trkpt>
      <trkpt lat="45.21079" lon="5.2212">
        <ele>619.3</ele>
        <time>2022-04-28T14:07:43Z</time>
      </trkpt>
      <trkpt lat="45.21073" lon="5.22121">
        <ele>619.1</ele>
        <time>2022-04-28T14:07:44Z</time>
      </trkpt>
      <trkpt lat="45.21067" lon="5.22121">
        <ele>618.9</ele>
        <time>2022-04-28T14:07:45Z</time>
      </trkpt>
      <trkpt lat="45.21062" lon="5.2212">
        <ele>618.8</ele>
        <time>2022-04-28T14:07:46Z</time>
      </trkpt>
      <trkpt lat="45.21058" lon="5.22119">
        <ele>618.6</ele>
        <time>2022-04-28T14:07:47Z</time>
      </trkpt>
      <trkpt lat="45.21053" lon="5.22118">
        <ele>618.5</ele>
        <time>2022-04-28T14:07:48Z</time>
      </trkpt>
      <trkpt lat="45.21051" lon="5.22117">
        <ele>618.4</ele>
        <time>2022-04-28T14:07:49Z</time>
      </trkpt>
      <trkpt lat="45.21048" lon="5.22117">
        <ele>618.2</ele>
        <time>2022-04-28T14:07:50Z</time>
      </trkpt>
      <trkpt lat="45.21047" lon="5.22116">
        <ele>618.2</ele>
        <time>2022-04-28T14:07:51Z</time>
      </trkpt>
      <trkpt lat="45.21045" lon="5.22116">
        <ele>618.1</ele>
        <time>2022-04-28T14:07:52Z</time>
      </trkpt>
      <trkpt lat="45.21045" lon="5.22116">
        <ele>618.1</ele>
        <time>2022-04-28T14:07:53Z</time>
      </trkpt>
      <trkpt lat="45.21044" lon="5.22116">
        <ele>618.1</ele>
        <time>2022-04-28T14:07:54Z</time>
      </trkpt>
      <trkpt lat="45.21044" lon="5.22116">
        <ele>618.1</ele>
        <time>2022-04-28T14:07:55Z</time>
      </trkpt>
      <trkpt lat="45.21043" lon="5.22116">
        <ele>618.1</ele>
        <time>2022-04-28T14:07:56Z</time>
      </trkpt>
      <trkpt lat="45.21043" lon="5.22115">
        <ele>618</ele>
        <time>2022-04-28T14:07:57Z</time>
      </trkpt>
      <trkpt lat="45.21042" lon="5.22115">
        <ele>618</ele>
        <time>2022-04-28T14:07:58Z</time>
      </trkpt>
      <trkpt lat="45.21042" lon="5.22114">
        <ele>618</ele>
        <time>2022-04-28T14:07:59Z</time>
      </trkpt>
      <trkpt lat="45.21042" lon="5.22114">
        <ele>618</ele>
        <time>2022-04-28T14:08:00Z</time>
      </trkpt>
      <trkpt lat="45.21041" lon="5.22113">
        <ele>617.9</ele>
        <time>2022-04-28T14:08:01Z</time>
      </trkpt>
      <trkpt lat="45.21041" lon="5.22113">
        <ele>617.9</ele>
        <time>2022-04-28T14:08:02Z</time>
      </trkpt>
      <trkpt lat="45.21041" lon="5.22112">
        <ele>617.9</ele>
        <time>2022-04-28T14:08:03Z</time>
      </trkpt>
      <trkpt lat="45.2104" lon="5.22112">
        <ele>617.9</ele>
        <time>2022-04-28T14:08:04Z</time>
      </trkpt>
      <trkpt lat="45.2104" lon="5.22111">
        <ele>617.9</ele>
        <time>2022-04-28T14:08:43Z</time>
      </trkpt>
      <trkpt lat="45.21039" lon="5.22111">
        <ele>617.8</ele>
        <time>2022-04-28T14:08:44Z</time>
      </trkpt>
      <trkpt lat="45.21036" lon="5.22107">
        <ele>617.7</ele>
        <time>2022-04-28T14:08:45Z</time>
      </trkpt>
      <trkpt lat="45.21033" lon="5.22105">
        <ele>617.5</ele>
        <time>2022-04-28T14:08:46Z</time>
      </trkpt>
      <trkpt lat="45.21029" lon="5.22101">
        <ele>617.3</ele>
        <time>2022-04-28T14:08:47Z</time>
      </trkpt>
      <trkpt lat="45.21024" lon="5.22096">
        <ele>617</ele>
        <time>2022-04-28T14:08:48Z</time>
      </trkpt>
      <trkpt lat="45.21018" lon="5.22087">
        <ele>616.6</ele>
        <time>2022-04-28T14:08:49Z</time>
      </trkpt>
      <trkpt lat="45.21014" lon="5.22081">
        <ele>616.3</ele>
        <time>2022-04-28T14:08:50Z</time>
      </trkpt>
      <trkpt lat="45.2101" lon="5.22074">
        <ele>616</ele>
        <time>2022-04-28T14:08:51Z</time>
      </trkpt>
      <trkpt lat="45.21007" lon="5.22067">
        <ele>615.7</ele>
        <time>2022-04-28T14:08:52Z</time>
      </trkpt>
      <trkpt lat="45.21005" lon="5.22058">
        <ele>615.3</ele>
        <time>2022-04-28T14:08:53Z</time>
      </trkpt>
      <trkpt lat="45.21002" lon="5.2205">
        <ele>615</ele>
        <time>2022-04-28T14:08:54Z</time>
      </trkpt>
      <trkpt lat="45.21" lon="5.22041">
        <ele>614.6</ele>
        <time>2022-04-28T14:08:55Z</time>
      </trkpt>
      <trkpt lat="45.20997" lon="5.22032">
        <ele>614.2</ele>
        <time>2022-04-28T14:08:56Z</time>
      </trkpt>
      <trkpt lat="45.20994" lon="5.22023">
        <ele>613.8</ele>
        <time>2022-04-28T14:08:57Z</time>
      </trkpt>
      <trkpt lat="45.20991" lon="5.22013">
        <ele>613.4</ele>
        <time>2022-04-28T14:08:58Z</time>
      </trkpt>
      <trkpt lat="45.20988" lon="5.22004">
        <ele>612.9</ele>
        <time>2022-04-28T14:08:59Z</time>
      </trkpt>
      <trkpt lat="45.20985" lon="5.21994">
        <ele>612.5</ele>
        <time>2022-04-28T14:09:00Z</time>
      </trkpt>
      <trkpt lat="45.20982" lon="5.21984">
        <ele>612.1</ele>
        <time>2022-04-28T14:09:01Z</time>
      </trkpt>
      <trkpt lat="45.20979" lon="5.21973">
        <ele>611.6</ele>
        <time>2022-04-28T14:09:02Z</time>
      </trkpt>
      <trkpt lat="45.20976" lon="5.21963">
        <ele>611.1</ele>
        <time>2022-04-28T14:09:03Z</time>
      </trkpt>
      <trkpt lat="45.20973" lon="5.21952">
        <ele>610.6</ele>
        <time>2022-04-28T14:09:04Z</time>
      </trkpt>
      <trkpt lat="45.20969" lon="5.21941">
        <ele>610.1</ele>
        <time>2022-04-28T14:09:05Z</time>
      </trkpt>
      <trkpt lat="45.20967" lon="5.2193">
        <ele>609.6</ele>
        <time>2022-04-28T14:09:06Z</time>
      </trkpt>
      <trkpt lat="45.20963" lon="5.21919">
        <ele>609.2</ele>
        <time>2022-04-28T14:09:07Z</time>
      </trkpt>
      <trkpt lat="45.2096" lon="5.21908">
        <ele>608.7</ele>
        <time>2022-04-28T14:09:08Z</time>
      </trkpt>
      <trkpt lat="45.20957" lon="5.21895">
        <ele>608.1</ele>
        <time>2022-04-28T14:09:09Z</time>
      </trkpt>
      <trkpt lat="45.20953" lon="5.21883">
        <ele>607.6</ele>
        <time>2022-04-28T14:09:10Z</time>
      </trkpt>
      <trkpt lat="45.20949" lon="5.21871">
        <ele>607.1</ele>
        <time>2022-04-28T14:09:11Z</time>
      </trkpt>
      <trkpt lat="45.20946" lon="5.21858">
        <ele>606.6</ele>
        <time>2022-04-28T14:09:12Z</time>
      </trkpt>
      <trkpt lat="45.20942" lon="5.21846">
        <ele>606.1</ele>
        <time>2022-04-28T14:09:13Z</time>
      </trkpt>
      <trkpt lat="45.20939" lon="5.21833">
        <ele>605.6</ele>
        <time>2022-04-28T14:09:14Z</time>
      </trkpt>
      <trkpt lat="45.20936" lon="5.21821">
        <ele>605.1</ele>
        <time>2022-04-28T14:09:15Z</time>
      </trkpt>
      <trkpt lat="45.20932" lon="5.21808">
        <ele>604.5</ele>
        <time>2022-04-28T14:09:16Z</time>
      </trkpt>
      <trkpt lat="45.20928" lon="5.21796">
        <ele>604</ele>
        <time>2022-04-28T14:09:17Z</time>
      </trkpt>
      <trkpt lat="45.20924" lon="5.21784">
        <ele>603.4</ele>
        <time>2022-04-28T14:09:18Z</time>
      </trkpt>
      <trkpt lat="45.2092" lon="5.21772">
        <ele>602.9</ele>
        <time>2022-04-28T14:09:19Z</time>
      </trkpt>
      <trkpt lat="45.20916" lon="5.2176">
        <ele>602.3</ele>
        <time>2022-04-28T14:09:20Z</time>
      </trkpt>
      <trkpt lat="45.20912" lon="5.21747">
        <ele>601.8</ele>
        <time>2022-04-28T14:09:21Z</time>
      </trkpt>
      <trkpt lat="45.20908" lon="5.21735">
        <ele>601.3</ele>
        <time>2022-04-28T14:09:22Z</time>
      </trkpt>
      <trkpt lat="45.20904" lon="5.21722">
        <ele>600.9</ele>
        <time>2022-04-28T14:09:23Z</time>
      </trkpt>
      <trkpt lat="45.209" lon="5.21709">
        <ele>600.5</ele>
        <time>2022-04-28T14:09:24Z</time>
      </trkpt>
      <trkpt lat="45.20896" lon="5.21695">
        <ele>600.1</ele>
        <time>2022-04-28T14:09:25Z</time>
      </trkpt>
      <trkpt lat="45.20893" lon="5.21681">
        <ele>599.7</ele>
        <time>2022-04-28T14:09:26Z</time>
      </trkpt>
      <trkpt lat="45.20889" lon="5.21667">
        <ele>599.4</ele>
        <time>2022-04-28T14:09:27Z</time>
      </trkpt>
      <trkpt lat="45.20885" lon="5.21655">
        <ele>599.1</ele>
        <time>2022-04-28T14:09:28Z</time>
      </trkpt>
      <trkpt lat="45.20882" lon="5.21642">
        <ele>598.9</ele>
        <time>2022-04-28T14:09:29Z</time>
      </trkpt>
      <trkpt lat="45.20878" lon="5.2163">
        <ele>598.6</ele>
        <time>2022-04-28T14:09:30Z</time>
      </trkpt>
      <trkpt lat="45.20875" lon="5.21618">
        <ele>598.4</ele>
        <time>2022-04-28T14:09:31Z</time>
      </trkpt>
      <trkpt lat="45.20872" lon="5.21606">
        <ele>598.2</ele>
        <time>2022-04-28T14:09:32Z</time>
      </trkpt>
      <trkpt lat="45.20869" lon="5.21595">
        <ele>598.1</ele>
        <time>2022-04-28T14:09:33Z</time>
      </trkpt>
      <trkpt lat="45.20865" lon="5.21584">
        <ele>597.9</ele>
        <time>2022-04-28T14:09:34Z</time>
      </trkpt>
      <trkpt lat="45.20862" lon="5.21572">
        <ele>597.7</ele>
        <time>2022-04-28T14:09:35Z</time>
      </trkpt>
      <trkpt lat="45.20859" lon="5.21561">
        <ele>597.5</ele>
        <time>2022-04-28T14:09:36Z</time>
      </trkpt>
      <trkpt lat="45.20856" lon="5.2155">
        <ele>597.3</ele>
        <time>2022-04-28T14:09:37Z</time>
      </trkpt>
      <trkpt lat="45.20852" lon="5.21537">
        <ele>597.1</ele>
        <time>2022-04-28T14:09:38Z</time>
      </trkpt>
      <trkpt lat="45.20849" lon="5.21526">
        <ele>596.9</ele>
        <time>2022-04-28T14:09:39Z</time>
      </trkpt>
      <trkpt lat="45.20845" lon="5.21515">
        <ele>596.6</ele>
        <time>2022-04-28T14:09:40Z</time>
      </trkpt>
      <trkpt lat="45.20841" lon="5.21505">
        <ele>596.4</ele>
        <time>2022-04-28T14:09:41Z</time>
      </trkpt>
      <trkpt lat="45.20838" lon="5.21494">
        <ele>596.2</ele>
        <time>2022-04-28T14:09:42Z</time>
      </trkpt>
      <trkpt lat="45.20835" lon="5.21482">
        <ele>596</ele>
        <time>2022-04-28T14:09:43Z</time>
      </trkpt>
      <trkpt lat="45.20832" lon="5.21471">
        <ele>595.7</ele>
        <time>2022-04-28T14:09:44Z</time>
      </trkpt>
      <trkpt lat="45.20828" lon="5.2146">
        <ele>595.5</ele>
        <time>2022-04-28T14:09:45Z</time>
      </trkpt>
      <trkpt lat="45.20825" lon="5.21448">
        <ele>595.2</ele>
        <time>2022-04-28T14:09:46Z</time>
      </trkpt>
      <trkpt lat="45.20821" lon="5.21438">
        <ele>594.8</ele>
        <time>2022-04-28T14:09:47Z</time>
      </trkpt>
      <trkpt lat="45.20818" lon="5.21427">
        <ele>594.5</ele>
        <time>2022-04-28T14:09:48Z</time>
      </trkpt>
      <trkpt lat="45.20814" lon="5.21416">
        <ele>594.1</ele>
        <time>2022-04-28T14:09:49Z</time>
      </trkpt>
      <trkpt lat="45.20811" lon="5.21406">
        <ele>593.7</ele>
        <time>2022-04-28T14:09:50Z</time>
      </trkpt>
      <trkpt lat="45.20806" lon="5.21394">
        <ele>593.3</ele>
        <time>2022-04-28T14:09:51Z</time>
      </trkpt>
      <trkpt lat="45.20801" lon="5.21384">
        <ele>592.9</ele>
        <time>2022-04-28T14:09:52Z</time>
      </trkpt>
      <trkpt lat="45.20796" lon="5.21375">
        <ele>592.5</ele>
        <time>2022-04-28T14:09:53Z</time>
      </trkpt>
      <trkpt lat="45.20791" lon="5.21365">
        <ele>592</ele>
        <time>2022-04-28T14:09:54Z</time>
      </trkpt>
      <trkpt lat="45.20784" lon="5.21355">
        <ele>591.6</ele>
        <time>2022-04-28T14:09:55Z</time>
      </trkpt>
      <trkpt lat="45.20777" lon="5.21349">
        <ele>591.2</ele>
        <time>2022-04-28T14:09:56Z</time>
      </trkpt>
      <trkpt lat="45.20769" lon="5.21343">
        <ele>590.7</ele>
        <time>2022-04-28T14:09:57Z</time>
      </trkpt>
      <trkpt lat="45.20759" lon="5.21339">
        <ele>590.3</ele>
        <time>2022-04-28T14:09:58Z</time>
      </trkpt>
      <trkpt lat="45.2075" lon="5.21335">
        <ele>589.8</ele>
        <time>2022-04-28T14:09:59Z</time>
      </trkpt>
      <trkpt lat="45.20741" lon="5.2133">
        <ele>589.3</ele>
        <time>2022-04-28T14:10:00Z</time>
      </trkpt>
      <trkpt lat="45.20732" lon="5.21324">
        <ele>588.8</ele>
        <time>2022-04-28T14:10:01Z</time>
      </trkpt>
      <trkpt lat="45.20724" lon="5.21317">
        <ele>588.3</ele>
        <time>2022-04-28T14:10:02Z</time>
      </trkpt>
      <trkpt lat="45.20716" lon="5.21309">
        <ele>587.7</ele>
        <time>2022-04-28T14:10:03Z</time>
      </trkpt>
      <trkpt lat="45.20709" lon="5.21298">
        <ele>587.2</ele>
        <time>2022-04-28T14:10:04Z</time>
      </trkpt>
      <trkpt lat="45.20705" lon="5.21285">
        <ele>586.6</ele>
        <time>2022-04-28T14:10:05Z</time>
      </trkpt>
      <trkpt lat="45.20704" lon="5.2127">
        <ele>586</ele>
        <time>2022-04-28T14:10:06Z</time>
      </trkpt>
      <trkpt lat="45.20703" lon="5.21255">
        <ele>585.4</ele>
        <time>2022-04-28T14:10:07Z</time>
      </trkpt>
      <trkpt lat="45.20702" lon="5.21241">
        <ele>584.9</ele>
        <time>2022-04-28T14:10:08Z</time>
      </trkpt>
      <trkpt lat="45.20702" lon="5.21227">
        <ele>584.3</ele>
        <time>2022-04-28T14:10:09Z</time>
      </trkpt>
      <trkpt lat="45.20702" lon="5.21212">
        <ele>583.8</ele>
        <time>2022-04-28T14:10:10Z</time>
      </trkpt>
      <trkpt lat="45.20703" lon="5.21197">
        <ele>583.2</ele>
        <time>2022-04-28T14:10:11Z</time>
      </trkpt>
      <trkpt lat="45.20705" lon="5.21183">
        <ele>582.7</ele>
        <time>2022-04-28T14:10:12Z</time>
      </trkpt>
      <trkpt lat="45.20708" lon="5.2117">
        <ele>582.2</ele>
        <time>2022-04-28T14:10:13Z</time>
      </trkpt>
      <trkpt lat="45.2071" lon="5.21156">
        <ele>581.8</ele>
        <time>2022-04-28T14:10:14Z</time>
      </trkpt>
      <trkpt lat="45.20711" lon="5.21142">
        <ele>581.4</ele>
        <time>2022-04-28T14:10:15Z</time>
      </trkpt>
      <trkpt lat="45.2071" lon="5.21129">
        <ele>580.9</ele>
        <time>2022-04-28T14:10:16Z</time>
      </trkpt>
      <trkpt lat="45.20707" lon="5.21116">
        <ele>580.6</ele>
        <time>2022-04-28T14:10:17Z</time>
      </trkpt>
      <trkpt lat="45.20701" lon="5.21105">
        <ele>580.2</ele>
        <time>2022-04-28T14:10:18Z</time>
      </trkpt>
      <trkpt lat="45.20694" lon="5.21097">
        <ele>579.8</ele>
        <time>2022-04-28T14:10:19Z</time>
      </trkpt>
      <trkpt lat="45.20688" lon="5.2109">
        <ele>579.5</ele>
        <time>2022-04-28T14:10:20Z</time>
      </trkpt>
      <trkpt lat="45.20682" lon="5.21081">
        <ele>579</ele>
        <time>2022-04-28T14:10:21Z</time>
      </trkpt>
      <trkpt lat="45.20678" lon="5.21069">
        <ele>578.4</ele>
        <time>2022-04-28T14:10:22Z</time>
      </trkpt>
      <trkpt lat="45.20674" lon="5.21056">
        <ele>577.9</ele>
        <time>2022-04-28T14:10:23Z</time>
      </trkpt>
      <trkpt lat="45.20671" lon="5.21043">
        <ele>577.3</ele>
        <time>2022-04-28T14:10:24Z</time>
      </trkpt>
      <trkpt lat="45.20665" lon="5.21033">
        <ele>576.8</ele>
        <time>2022-04-28T14:10:25Z</time>
      </trkpt>
      <trkpt lat="45.20658" lon="5.21024">
        <ele>576.2</ele>
        <time>2022-04-28T14:10:26Z</time>
      </trkpt>
      <trkpt lat="45.20649" lon="5.21018">
        <ele>575.6</ele>
        <time>2022-04-28T14:10:27Z</time>
      </trkpt>
      <trkpt lat="45.2064" lon="5.2101">
        <ele>575</ele>
        <time>2022-04-28T14:10:28Z</time>
      </trkpt>
      <trkpt lat="45.20632" lon="5.21001">
        <ele>574.4</ele>
        <time>2022-04-28T14:10:29Z</time>
      </trkpt>
      <trkpt lat="45.20624" lon="5.20992">
        <ele>573.8</ele>
        <time>2022-04-28T14:10:30Z</time>
      </trkpt>
      <trkpt lat="45.20616" lon="5.20983">
        <ele>573.2</ele>
        <time>2022-04-28T14:10:31Z</time>
      </trkpt>
      <trkpt lat="45.2061" lon="5.20976">
        <ele>572.7</ele>
        <time>2022-04-28T14:10:32Z</time>
      </trkpt>
      <trkpt lat="45.20602" lon="5.20967">
        <ele>572.1</ele>
        <time>2022-04-28T14:10:33Z</time>
      </trkpt>
      <trkpt lat="45.20594" lon="5.20956">
        <ele>571.5</ele>
        <time>2022-04-28T14:10:34Z</time>
      </trkpt>
      <trkpt lat="45.20589" lon="5.20943">
        <ele>570.9</ele>
        <time>2022-04-28T14:10:35Z</time>
      </trkpt>
      <trkpt lat="45.20585" lon="5.20929">
        <ele>570.3</ele>
        <time>2022-04-28T14:10:36Z</time>
      </trkpt>
      <trkpt lat="45.20584" lon="5.20914">
        <ele>569.7</ele>
        <time>2022-04-28T14:10:37Z</time>
      </trkpt>
      <trkpt lat="45.20585" lon="5.20899">
        <ele>569.1</ele>
        <time>2022-04-28T14:10:38Z</time>
      </trkpt>
      <trkpt lat="45.20584" lon="5.20883">
        <ele>568.5</ele>
        <time>2022-04-28T14:10:39Z</time>
      </trkpt>
      <trkpt lat="45.20582" lon="5.20867">
        <ele>567.9</ele>
        <time>2022-04-28T14:10:40Z</time>
      </trkpt>
      <trkpt lat="45.2058" lon="5.20852">
        <ele>567.2</ele>
        <time>2022-04-28T14:10:41Z</time>
      </trkpt>
      <trkpt lat="45.20578" lon="5.20838">
        <ele>566.6</ele>
        <time>2022-04-28T14:10:42Z</time>
      </trkpt>
      <trkpt lat="45.20573" lon="5.20823">
        <ele>566</ele>
        <time>2022-04-28T14:10:43Z</time>
      </trkpt>
      <trkpt lat="45.20566" lon="5.20811">
        <ele>565.4</ele>
        <time>2022-04-28T14:10:44Z</time>
      </trkpt>
      <trkpt lat="45.20557" lon="5.20803">
        <ele>564.9</ele>
        <time>2022-04-28T14:10:45Z</time>
      </trkpt>
      <trkpt lat="45.20547" lon="5.20796">
        <ele>564.3</ele>
        <time>2022-04-28T14:10:46Z</time>
      </trkpt>
      <trkpt lat="45.20537" lon="5.20789">
        <ele>563.8</ele>
        <time>2022-04-28T14:10:47Z</time>
      </trkpt>
      <trkpt lat="45.20527" lon="5.20782">
        <ele>563.2</ele>
        <time>2022-04-28T14:10:48Z</time>
      </trkpt>
      <trkpt lat="45.20518" lon="5.20774">
        <ele>562.4</ele>
        <time>2022-04-28T14:10:49Z</time>
      </trkpt>
      <trkpt lat="45.20508" lon="5.20767">
        <ele>561.6</ele>
        <time>2022-04-28T14:10:50Z</time>
      </trkpt>
      <trkpt lat="45.20498" lon="5.20761">
        <ele>560.6</ele>
        <time>2022-04-28T14:10:51Z</time>
      </trkpt>
      <trkpt lat="45.20487" lon="5.20758">
        <ele>559.7</ele>
        <time>2022-04-28T14:10:52Z</time>
      </trkpt>
      <trkpt lat="45.20477" lon="5.20756">
        <ele>558.9</ele>
        <time>2022-04-28T14:10:53Z</time>
      </trkpt>
      <trkpt lat="45.20465" lon="5.20755">
        <ele>558.2</ele>
        <time>2022-04-28T14:10:54Z</time>
      </trkpt>
      <trkpt lat="45.20453" lon="5.20755">
        <ele>557.6</ele>
        <time>2022-04-28T14:10:55Z</time>
      </trkpt>
      <trkpt lat="45.20441" lon="5.20756">
        <ele>557.1</ele>
        <time>2022-04-28T14:10:56Z</time>
      </trkpt>
      <trkpt lat="45.2043" lon="5.20759">
        <ele>556.6</ele>
        <time>2022-04-28T14:10:57Z</time>
      </trkpt>
      <trkpt lat="45.20418" lon="5.20764">
        <ele>556</ele>
        <time>2022-04-28T14:10:58Z</time>
      </trkpt>
      <trkpt lat="45.20407" lon="5.2077">
        <ele>555.5</ele>
        <time>2022-04-28T14:10:59Z</time>
      </trkpt>
      <trkpt lat="45.20396" lon="5.20776">
        <ele>554.8</ele>
        <time>2022-04-28T14:11:00Z</time>
      </trkpt>
      <trkpt lat="45.20386" lon="5.20782">
        <ele>554.1</ele>
        <time>2022-04-28T14:11:01Z</time>
      </trkpt>
      <trkpt lat="45.20375" lon="5.20785">
        <ele>553.4</ele>
        <time>2022-04-28T14:11:02Z</time>
      </trkpt>
      <trkpt lat="45.20363" lon="5.20788">
        <ele>552.6</ele>
        <time>2022-04-28T14:11:03Z</time>
      </trkpt>
      <trkpt lat="45.20351" lon="5.20792">
        <ele>551.8</ele>
        <time>2022-04-28T14:11:04Z</time>
      </trkpt>
      <trkpt lat="45.20339" lon="5.20795">
        <ele>551</ele>
        <time>2022-04-28T14:11:05Z</time>
      </trkpt>
      <trkpt lat="45.20328" lon="5.20799">
        <ele>550.2</ele>
        <time>2022-04-28T14:11:06Z</time>
      </trkpt>
      <trkpt lat="45.20316" lon="5.20802">
        <ele>549.5</ele>
        <time>2022-04-28T14:11:07Z</time>
      </trkpt>
      <trkpt lat="45.20305" lon="5.20806">
        <ele>548.7</ele>
        <time>2022-04-28T14:11:08Z</time>
      </trkpt>
      <trkpt lat="45.20293" lon="5.2081">
        <ele>548</ele>
        <time>2022-04-28T14:11:09Z</time>
      </trkpt>
      <trkpt lat="45.20281" lon="5.20813">
        <ele>547.3</ele>
        <time>2022-04-28T14:11:10Z</time>
      </trkpt>
      <trkpt lat="45.20269" lon="5.20815">
        <ele>546.6</ele>
        <time>2022-04-28T14:11:11Z</time>
      </trkpt>
      <trkpt lat="45.20256" lon="5.20814">
        <ele>545.9</ele>
        <time>2022-04-28T14:11:12Z</time>
      </trkpt>
      <trkpt lat="45.20244" lon="5.20813">
        <ele>545.3</ele>
        <time>2022-04-28T14:11:13Z</time>
      </trkpt>
      <trkpt lat="45.20232" lon="5.20812">
        <ele>544.6</ele>
        <time>2022-04-28T14:11:14Z</time>
      </trkpt>
      <trkpt lat="45.2022" lon="5.20808">
        <ele>544</ele>
        <time>2022-04-28T14:11:15Z</time>
      </trkpt>
      <trkpt lat="45.20208" lon="5.20802">
        <ele>543.3</ele>
        <time>2022-04-28T14:11:16Z</time>
      </trkpt>
      <trkpt lat="45.20196" lon="5.20796">
        <ele>542.7</ele>
        <time>2022-04-28T14:11:17Z</time>
      </trkpt>
      <trkpt lat="45.20186" lon="5.20786">
        <ele>542.1</ele>
        <time>2022-04-28T14:11:18Z</time>
      </trkpt>
      <trkpt lat="45.20177" lon="5.20774">
        <ele>541.4</ele>
        <time>2022-04-28T14:11:19Z</time>
      </trkpt>
      <trkpt lat="45.20169" lon="5.20759">
        <ele>540.7</ele>
        <time>2022-04-28T14:11:20Z</time>
      </trkpt>
      <trkpt lat="45.20163" lon="5.20743">
        <ele>539.9</ele>
        <time>2022-04-28T14:11:21Z</time>
      </trkpt>
      <trkpt lat="45.20157" lon="5.20726">
        <ele>539.2</ele>
        <time>2022-04-28T14:11:22Z</time>
      </trkpt>
      <trkpt lat="45.20151" lon="5.20711">
        <ele>538.4</ele>
        <time>2022-04-28T14:11:23Z</time>
      </trkpt>
      <trkpt lat="45.20144" lon="5.20697">
        <ele>537.6</ele>
        <time>2022-04-28T14:11:24Z</time>
      </trkpt>
      <trkpt lat="45.20136" lon="5.20683">
        <ele>536.8</ele>
        <time>2022-04-28T14:11:25Z</time>
      </trkpt>
      <trkpt lat="45.20128" lon="5.2067">
        <ele>535.9</ele>
        <time>2022-04-28T14:11:26Z</time>
      </trkpt>
      <trkpt lat="45.20118" lon="5.20657">
        <ele>535.1</ele>
        <time>2022-04-28T14:11:27Z</time>
      </trkpt>
      <trkpt lat="45.20109" lon="5.20646">
        <ele>534.2</ele>
        <time>2022-04-28T14:11:28Z</time>
      </trkpt>
      <trkpt lat="45.20099" lon="5.20635">
        <ele>533.3</ele>
        <time>2022-04-28T14:11:29Z</time>
      </trkpt>
      <trkpt lat="45.20088" lon="5.20626">
        <ele>532.4</ele>
        <time>2022-04-28T14:11:30Z</time>
      </trkpt>
      <trkpt lat="45.20077" lon="5.20619">
        <ele>531.6</ele>
        <time>2022-04-28T14:11:31Z</time>
      </trkpt>
      <trkpt lat="45.20067" lon="5.20611">
        <ele>530.8</ele>
        <time>2022-04-28T14:11:32Z</time>
      </trkpt>
      <trkpt lat="45.20056" lon="5.20604">
        <ele>530.1</ele>
        <time>2022-04-28T14:11:33Z</time>
      </trkpt>
      <trkpt lat="45.20045" lon="5.20597">
        <ele>529.3</ele>
        <time>2022-04-28T14:11:34Z</time>
      </trkpt>
      <trkpt lat="45.20034" lon="5.2059">
        <ele>528.5</ele>
        <time>2022-04-28T14:11:35Z</time>
      </trkpt>
      <trkpt lat="45.20023" lon="5.20584">
        <ele>527.7</ele>
        <time>2022-04-28T14:11:36Z</time>
      </trkpt>
      <trkpt lat="45.20011" lon="5.20577">
        <ele>526.9</ele>
        <time>2022-04-28T14:11:37Z</time>
      </trkpt>
      <trkpt lat="45.2" lon="5.20571">
        <ele>526.2</ele>
        <time>2022-04-28T14:11:38Z</time>
      </trkpt>
      <trkpt lat="45.19988" lon="5.20566">
        <ele>525.5</ele>
        <time>2022-04-28T14:11:39Z</time>
      </trkpt>
      <trkpt lat="45.19976" lon="5.2056">
        <ele>524.9</ele>
        <time>2022-04-28T14:11:40Z</time>
      </trkpt>
      <trkpt lat="45.19966" lon="5.20554">
        <ele>524.3</ele>
        <time>2022-04-28T14:11:41Z</time>
      </trkpt>
      <trkpt lat="45.19955" lon="5.20548">
        <ele>523.7</ele>
        <time>2022-04-28T14:11:42Z</time>
      </trkpt>
      <trkpt lat="45.19944" lon="5.20543">
        <ele>523.1</ele>
        <time>2022-04-28T14:11:43Z</time>
      </trkpt>
      <trkpt lat="45.19933" lon="5.2054">
        <ele>522.5</ele>
        <time>2022-04-28T14:11:44Z</time>
      </trkpt>
      <trkpt lat="45.19922" lon="5.20536">
        <ele>521.9</ele>
        <time>2022-04-28T14:11:45Z</time>
      </trkpt>
      <trkpt lat="45.19911" lon="5.20532">
        <ele>521.3</ele>
        <time>2022-04-28T14:11:46Z</time>
      </trkpt>
      <trkpt lat="45.199" lon="5.20528">
        <ele>520.6</ele>
        <time>2022-04-28T14:11:47Z</time>
      </trkpt>
      <trkpt lat="45.1989" lon="5.20524">
        <ele>520</ele>
        <time>2022-04-28T14:11:48Z</time>
      </trkpt>
      <trkpt lat="45.19879" lon="5.20519">
        <ele>519.4</ele>
        <time>2022-04-28T14:11:49Z</time>
      </trkpt>
      <trkpt lat="45.19869" lon="5.20514">
        <ele>518.9</ele>
        <time>2022-04-28T14:11:50Z</time>
      </trkpt>
      <trkpt lat="45.19858" lon="5.20511">
        <ele>518.4</ele>
        <time>2022-04-28T14:11:51Z</time>
      </trkpt>
      <trkpt lat="45.19847" lon="5.20507">
        <ele>517.8</ele>
        <time>2022-04-28T14:11:52Z</time>
      </trkpt>
      <trkpt lat="45.19837" lon="5.20505">
        <ele>517.3</ele>
        <time>2022-04-28T14:11:53Z</time>
      </trkpt>
      <trkpt lat="45.19826" lon="5.20501">
        <ele>516.8</ele>
        <time>2022-04-28T14:11:54Z</time>
      </trkpt>
      <trkpt lat="45.19816" lon="5.20495">
        <ele>516.2</ele>
        <time>2022-04-28T14:11:55Z</time>
      </trkpt>
      <trkpt lat="45.19806" lon="5.20487">
        <ele>515.5</ele>
        <time>2022-04-28T14:11:56Z</time>
      </trkpt>
      <trkpt lat="45.19798" lon="5.20478">
        <ele>514.9</ele>
        <time>2022-04-28T14:11:57Z</time>
      </trkpt>
      <trkpt lat="45.1979" lon="5.20466">
        <ele>514.2</ele>
        <time>2022-04-28T14:11:58Z</time>
      </trkpt>
      <trkpt lat="45.19785" lon="5.20453">
        <ele>513.5</ele>
        <time>2022-04-28T14:11:59Z</time>
      </trkpt>
      <trkpt lat="45.19781" lon="5.20437">
        <ele>512.8</ele>
        <time>2022-04-28T14:12:00Z</time>
      </trkpt>
      <trkpt lat="45.19779" lon="5.20422">
        <ele>512.1</ele>
        <time>2022-04-28T14:12:01Z</time>
      </trkpt>
      <trkpt lat="45.19777" lon="5.20406">
        <ele>511.3</ele>
        <time>2022-04-28T14:12:02Z</time>
      </trkpt>
      <trkpt lat="45.19775" lon="5.2039">
        <ele>510.6</ele>
        <time>2022-04-28T14:12:03Z</time>
      </trkpt>
      <trkpt lat="45.19773" lon="5.20375">
        <ele>509.9</ele>
        <time>2022-04-28T14:12:04Z</time>
      </trkpt>
      <trkpt lat="45.19771" lon="5.2036">
        <ele>509.3</ele>
        <time>2022-04-28T14:12:05Z</time>
      </trkpt>
      <trkpt lat="45.1977" lon="5.20344">
        <ele>508.7</ele>
        <time>2022-04-28T14:12:06Z</time>
      </trkpt>
      <trkpt lat="45.19768" lon="5.20329">
        <ele>508.1</ele>
        <time>2022-04-28T14:12:07Z</time>
      </trkpt>
      <trkpt lat="45.19767" lon="5.20313">
        <ele>507.5</ele>
        <time>2022-04-28T14:12:08Z</time>
      </trkpt>
      <trkpt lat="45.19767" lon="5.20298">
        <ele>506.8</ele>
        <time>2022-04-28T14:12:09Z</time>
      </trkpt>
      <trkpt lat="45.19768" lon="5.20282">
        <ele>506.2</ele>
        <time>2022-04-28T14:12:10Z</time>
      </trkpt>
      <trkpt lat="45.19771" lon="5.20268">
        <ele>505.6</ele>
        <time>2022-04-28T14:12:11Z</time>
      </trkpt>
      <trkpt lat="45.19775" lon="5.20255">
        <ele>505</ele>
        <time>2022-04-28T14:12:12Z</time>
      </trkpt>
      <trkpt lat="45.19779" lon="5.20245">
        <ele>504.6</ele>
        <time>2022-04-28T14:12:13Z</time>
      </trkpt>
      <trkpt lat="45.19781" lon="5.20234">
        <ele>504.1</ele>
        <time>2022-04-28T14:12:14Z</time>
      </trkpt>
      <trkpt lat="45.19781" lon="5.20223">
        <ele>503.7</ele>
        <time>2022-04-28T14:12:15Z</time>
      </trkpt>
      <trkpt lat="45.19777" lon="5.20213">
        <ele>503.3</ele>
        <time>2022-04-28T14:12:16Z</time>
      </trkpt>
      <trkpt lat="45.19772" lon="5.20204">
        <ele>502.9</ele>
        <time>2022-04-28T14:12:17Z</time>
      </trkpt>
      <trkpt lat="45.19765" lon="5.20197">
        <ele>502.4</ele>
        <time>2022-04-28T14:12:18Z</time>
      </trkpt>
      <trkpt lat="45.19758" lon="5.2019">
        <ele>501.9</ele>
        <time>2022-04-28T14:12:19Z</time>
      </trkpt>
      <trkpt lat="45.19751" lon="5.20182">
        <ele>501.4</ele>
        <time>2022-04-28T14:12:20Z</time>
      </trkpt>
      <trkpt lat="45.19745" lon="5.20173">
        <ele>500.9</ele>
        <time>2022-04-28T14:12:21Z</time>
      </trkpt>
      <trkpt lat="45.19739" lon="5.20163">
        <ele>500.4</ele>
        <time>2022-04-28T14:12:22Z</time>
      </trkpt>
      <trkpt lat="45.19733" lon="5.20153">
        <ele>499.9</ele>
        <time>2022-04-28T14:12:23Z</time>
      </trkpt>
      <trkpt lat="45.19727" lon="5.20143">
        <ele>499.4</ele>
        <time>2022-04-28T14:12:24Z</time>
      </trkpt>
      <trkpt lat="45.19721" lon="5.20132">
        <ele>498.9</ele>
        <time>2022-04-28T14:12:25Z</time>
      </trkpt>
      <trkpt lat="45.19716" lon="5.20121">
        <ele>498.3</ele>
        <time>2022-04-28T14:12:26Z</time>
      </trkpt>
      <trkpt lat="45.19711" lon="5.2011">
        <ele>497.8</ele>
        <time>2022-04-28T14:12:27Z</time>
      </trkpt>
      <trkpt lat="45.19705" lon="5.201">
        <ele>497.3</ele>
        <time>2022-04-28T14:12:28Z</time>
      </trkpt>
      <trkpt lat="45.19699" lon="5.20089">
        <ele>496.7</ele>
        <time>2022-04-28T14:12:29Z</time>
      </trkpt>
      <trkpt lat="45.19693" lon="5.20079">
        <ele>496.2</ele>
        <time>2022-04-28T14:12:30Z</time>
      </trkpt>
      <trkpt lat="45.19687" lon="5.20068">
        <ele>495.7</ele>
        <time>2022-04-28T14:12:31Z</time>
      </trkpt>
      <trkpt lat="45.19681" lon="5.20057">
        <ele>495.2</ele>
        <time>2022-04-28T14:12:32Z</time>
      </trkpt>
      <trkpt lat="45.19676" lon="5.20046">
        <ele>494.7</ele>
        <time>2022-04-28T14:12:33Z</time>
      </trkpt>
      <trkpt lat="45.1967" lon="5.20034">
        <ele>494.3</ele>
        <time>2022-04-28T14:12:34Z</time>
      </trkpt>
      <trkpt lat="45.19665" lon="5.20023">
        <ele>493.9</ele>
        <time>2022-04-28T14:12:35Z</time>
      </trkpt>
      <trkpt lat="45.19659" lon="5.20012">
        <ele>493.6</ele>
        <time>2022-04-28T14:12:36Z</time>
      </trkpt>
      <trkpt lat="45.19654" lon="5.20003">
        <ele>493.4</ele>
        <time>2022-04-28T14:12:37Z</time>
      </trkpt>
      <trkpt lat="45.19649" lon="5.19995">
        <ele>493.3</ele>
        <time>2022-04-28T14:12:38Z</time>
      </trkpt>
      <trkpt lat="45.19644" lon="5.1999">
        <ele>493.1</ele>
        <time>2022-04-28T14:12:39Z</time>
      </trkpt>
      <trkpt lat="45.1964" lon="5.19989">
        <ele>493.1</ele>
        <time>2022-04-28T14:12:40Z</time>
      </trkpt>
      <trkpt lat="45.19637" lon="5.1999">
        <ele>493</ele>
        <time>2022-04-28T14:12:41Z</time>
      </trkpt>
      <trkpt lat="45.19636" lon="5.1999">
        <ele>493</ele>
        <time>2022-04-28T14:12:42Z</time>
      </trkpt>
      <trkpt lat="45.19633" lon="5.19992">
        <ele>492.5</ele>
        <time>2022-04-28T14:12:43Z</time>
      </trkpt>
      <trkpt lat="45.19633" lon="5.19993">
        <ele>492.4</ele>
        <time>2022-04-28T14:12:44Z</time>
      </trkpt>
      <trkpt lat="45.19631" lon="5.19997">
        <ele>492.3</ele>
        <time>2022-04-28T14:12:45Z</time>
      </trkpt>
      <trkpt lat="45.1963" lon="5.20001">
        <ele>492.1</ele>
        <time>2022-04-28T14:12:46Z</time>
      </trkpt>
      <trkpt lat="45.19629" lon="5.20006">
        <ele>491.9</ele>
        <time>2022-04-28T14:12:47Z</time>
      </trkpt>
      <trkpt lat="45.19629" lon="5.20008">
        <ele>491.8</ele>
        <time>2022-04-28T14:12:48Z</time>
      </trkpt>
      <trkpt lat="45.19629" lon="5.20009">
        <ele>491.7</ele>
        <time>2022-04-28T14:12:49Z</time>
      </trkpt>
      <trkpt lat="45.19629" lon="5.20023">
        <ele>491.1</ele>
        <time>2022-04-28T14:12:50Z</time>
      </trkpt>
      <trkpt lat="45.19628" lon="5.20032">
        <ele>490.7</ele>
        <time>2022-04-28T14:12:51Z</time>
      </trkpt>
      <trkpt lat="45.19629" lon="5.20038">
        <ele>490.4</ele>
        <time>2022-04-28T14:12:52Z</time>
      </trkpt>
      <trkpt lat="45.19628" lon="5.20046">
        <ele>490.1</ele>
        <time>2022-04-28T14:12:53Z</time>
      </trkpt>
      <trkpt lat="45.19628" lon="5.20055">
        <ele>489.7</ele>
        <time>2022-04-28T14:12:54Z</time>
      </trkpt>
      <trkpt lat="45.19628" lon="5.20062">
        <ele>489.4</ele>
        <time>2022-04-28T14:12:55Z</time>
      </trkpt>
      <trkpt lat="45.19629" lon="5.20069">
        <ele>489.1</ele>
        <time>2022-04-28T14:12:56Z</time>
      </trkpt>
      <trkpt lat="45.1963" lon="5.20079">
        <ele>488.7</ele>
        <time>2022-04-28T14:12:57Z</time>
      </trkpt>
      <trkpt lat="45.19631" lon="5.20088">
        <ele>488.3</ele>
        <time>2022-04-28T14:12:58Z</time>
      </trkpt>
      <trkpt lat="45.19631" lon="5.20099">
        <ele>487.8</ele>
        <time>2022-04-28T14:12:59Z</time>
      </trkpt>
      <trkpt lat="45.19633" lon="5.20109">
        <ele>487.4</ele>
        <time>2022-04-28T14:13:00Z</time>
      </trkpt>
      <trkpt lat="45.19636" lon="5.20119">
        <ele>487</ele>
        <time>2022-04-28T14:13:01Z</time>
      </trkpt>
      <trkpt lat="45.19641" lon="5.20128">
        <ele>486.6</ele>
        <time>2022-04-28T14:13:02Z</time>
      </trkpt>
      <trkpt lat="45.19646" lon="5.20137">
        <ele>486.1</ele>
        <time>2022-04-28T14:13:03Z</time>
      </trkpt>
      <trkpt lat="45.19652" lon="5.20145">
        <ele>485.7</ele>
        <time>2022-04-28T14:13:04Z</time>
      </trkpt>
      <trkpt lat="45.19659" lon="5.20154">
        <ele>485.3</ele>
        <time>2022-04-28T14:13:05Z</time>
      </trkpt>
      <trkpt lat="45.19665" lon="5.20162">
        <ele>484.9</ele>
        <time>2022-04-28T14:13:06Z</time>
      </trkpt>
      <trkpt lat="45.19671" lon="5.2017">
        <ele>484.5</ele>
        <time>2022-04-28T14:13:07Z</time>
      </trkpt>
      <trkpt lat="45.19674" lon="5.20181">
        <ele>484.1</ele>
        <time>2022-04-28T14:13:08Z</time>
      </trkpt>
      <trkpt lat="45.19674" lon="5.20193">
        <ele>483.6</ele>
        <time>2022-04-28T14:13:09Z</time>
      </trkpt>
      <trkpt lat="45.19671" lon="5.20205">
        <ele>483</ele>
        <time>2022-04-28T14:13:10Z</time>
      </trkpt>
      <trkpt lat="45.19665" lon="5.20215">
        <ele>482.4</ele>
        <time>2022-04-28T14:13:11Z</time>
      </trkpt>
      <trkpt lat="45.19657" lon="5.20221">
        <ele>481.8</ele>
        <time>2022-04-28T14:13:12Z</time>
      </trkpt>
      <trkpt lat="45.19648" lon="5.20225">
        <ele>481.1</ele>
        <time>2022-04-28T14:13:13Z</time>
      </trkpt>
      <trkpt lat="45.19639" lon="5.20227">
        <ele>480.3</ele>
        <time>2022-04-28T14:13:14Z</time>
      </trkpt>
      <trkpt lat="45.19629" lon="5.20228">
        <ele>479.6</ele>
        <time>2022-04-28T14:13:15Z</time>
      </trkpt>
      <trkpt lat="45.19619" lon="5.2023">
        <ele>478.9</ele>
        <time>2022-04-28T14:13:16Z</time>
      </trkpt>
      <trkpt lat="45.1961" lon="5.20234">
        <ele>478.2</ele>
        <time>2022-04-28T14:13:17Z</time>
      </trkpt>
      <trkpt lat="45.19601" lon="5.20242">
        <ele>477.5</ele>
        <time>2022-04-28T14:13:18Z</time>
      </trkpt>
      <trkpt lat="45.19594" lon="5.20252">
        <ele>476.8</ele>
        <time>2022-04-28T14:13:19Z</time>
      </trkpt>
      <trkpt lat="45.19587" lon="5.20263">
        <ele>476</ele>
        <time>2022-04-28T14:13:20Z</time>
      </trkpt>
      <trkpt lat="45.19581" lon="5.20275">
        <ele>475.3</ele>
        <time>2022-04-28T14:13:21Z</time>
      </trkpt>
      <trkpt lat="45.19575" lon="5.20288">
        <ele>474.5</ele>
        <time>2022-04-28T14:13:22Z</time>
      </trkpt>
      <trkpt lat="45.1957" lon="5.20301">
        <ele>473.7</ele>
        <time>2022-04-28T14:13:23Z</time>
      </trkpt>
      <trkpt lat="45.19564" lon="5.20314">
        <ele>472.9</ele>
        <time>2022-04-28T14:13:24Z</time>
      </trkpt>
      <trkpt lat="45.19559" lon="5.20327">
        <ele>472.1</ele>
        <time>2022-04-28T14:13:25Z</time>
      </trkpt>
      <trkpt lat="45.19553" lon="5.20341">
        <ele>471.3</ele>
        <time>2022-04-28T14:13:26Z</time>
      </trkpt>
      <trkpt lat="45.19548" lon="5.20355">
        <ele>470.5</ele>
        <time>2022-04-28T14:13:27Z</time>
      </trkpt>
      <trkpt lat="45.19544" lon="5.2037">
        <ele>469.7</ele>
        <time>2022-04-28T14:13:28Z</time>
      </trkpt>
      <trkpt lat="45.19541" lon="5.20386">
        <ele>469</ele>
        <time>2022-04-28T14:13:29Z</time>
      </trkpt>
      <trkpt lat="45.1954" lon="5.20402">
        <ele>468.3</ele>
        <time>2022-04-28T14:13:30Z</time>
      </trkpt>
      <trkpt lat="45.19539" lon="5.20419">
        <ele>467.6</ele>
        <time>2022-04-28T14:13:31Z</time>
      </trkpt>
      <trkpt lat="45.19538" lon="5.20436">
        <ele>466.9</ele>
        <time>2022-04-28T14:13:32Z</time>
      </trkpt>
      <trkpt lat="45.19537" lon="5.20453">
        <ele>466.2</ele>
        <time>2022-04-28T14:13:33Z</time>
      </trkpt>
      <trkpt lat="45.19536" lon="5.2047">
        <ele>465.5</ele>
        <time>2022-04-28T14:13:34Z</time>
      </trkpt>
      <trkpt lat="45.19534" lon="5.20487">
        <ele>464.8</ele>
        <time>2022-04-28T14:13:35Z</time>
      </trkpt>
      <trkpt lat="45.19531" lon="5.20502">
        <ele>464.1</ele>
        <time>2022-04-28T14:13:36Z</time>
      </trkpt>
      <trkpt lat="45.19527" lon="5.20515">
        <ele>463.4</ele>
        <time>2022-04-28T14:13:37Z</time>
      </trkpt>
      <trkpt lat="45.19522" lon="5.20529">
        <ele>462.7</ele>
        <time>2022-04-28T14:13:38Z</time>
      </trkpt>
      <trkpt lat="45.19517" lon="5.20542">
        <ele>462</ele>
        <time>2022-04-28T14:13:39Z</time>
      </trkpt>
      <trkpt lat="45.19511" lon="5.20555">
        <ele>461.3</ele>
        <time>2022-04-28T14:13:40Z</time>
      </trkpt>
      <trkpt lat="45.19504" lon="5.20566">
        <ele>460.6</ele>
        <time>2022-04-28T14:13:41Z</time>
      </trkpt>
      <trkpt lat="45.19496" lon="5.20578">
        <ele>459.7</ele>
        <time>2022-04-28T14:13:42Z</time>
      </trkpt>
      <trkpt lat="45.19488" lon="5.20587">
        <ele>458.8</ele>
        <time>2022-04-28T14:13:43Z</time>
      </trkpt>
      <trkpt lat="45.19478" lon="5.20596">
        <ele>457.9</ele>
        <time>2022-04-28T14:13:44Z</time>
      </trkpt>
      <trkpt lat="45.19469" lon="5.20605">
        <ele>457</ele>
        <time>2022-04-28T14:13:45Z</time>
      </trkpt>
      <trkpt lat="45.19459" lon="5.20613">
        <ele>456.1</ele>
        <time>2022-04-28T14:13:46Z</time>
      </trkpt>
      <trkpt lat="45.19449" lon="5.20621">
        <ele>455.5</ele>
        <time>2022-04-28T14:13:47Z</time>
      </trkpt>
      <trkpt lat="45.19438" lon="5.20626">
        <ele>454.9</ele>
        <time>2022-04-28T14:13:48Z</time>
      </trkpt>
      <trkpt lat="45.19427" lon="5.2063">
        <ele>454.4</ele>
        <time>2022-04-28T14:13:49Z</time>
      </trkpt>
      <trkpt lat="45.19416" lon="5.20634">
        <ele>453.9</ele>
        <time>2022-04-28T14:13:50Z</time>
      </trkpt>
      <trkpt lat="45.19405" lon="5.20637">
        <ele>453.4</ele>
        <time>2022-04-28T14:13:51Z</time>
      </trkpt>
      <trkpt lat="45.19394" lon="5.2064">
        <ele>452.9</ele>
        <time>2022-04-28T14:13:52Z</time>
      </trkpt>
      <trkpt lat="45.19383" lon="5.20643">
        <ele>452.4</ele>
        <time>2022-04-28T14:13:53Z</time>
      </trkpt>
      <trkpt lat="45.19372" lon="5.20645">
        <ele>451.9</ele>
        <time>2022-04-28T14:13:54Z</time>
      </trkpt>
      <trkpt lat="45.19361" lon="5.20648">
        <ele>451.5</ele>
        <time>2022-04-28T14:13:55Z</time>
      </trkpt>
      <trkpt lat="45.1935" lon="5.20651">
        <ele>451</ele>
        <time>2022-04-28T14:13:56Z</time>
      </trkpt>
      <trkpt lat="45.19339" lon="5.20654">
        <ele>450.5</ele>
        <time>2022-04-28T14:13:57Z</time>
      </trkpt>
      <trkpt lat="45.1933" lon="5.2066">
        <ele>450.1</ele>
        <time>2022-04-28T14:13:58Z</time>
      </trkpt>
      <trkpt lat="45.19319" lon="5.20664">
        <ele>449.6</ele>
        <time>2022-04-28T14:13:59Z</time>
      </trkpt>
      <trkpt lat="45.19308" lon="5.20666">
        <ele>449.1</ele>
        <time>2022-04-28T14:14:00Z</time>
      </trkpt>
      <trkpt lat="45.19297" lon="5.20669">
        <ele>448.6</ele>
        <time>2022-04-28T14:14:01Z</time>
      </trkpt>
      <trkpt lat="45.19287" lon="5.20672">
        <ele>448.1</ele>
        <time>2022-04-28T14:14:02Z</time>
      </trkpt>
      <trkpt lat="45.19276" lon="5.20677">
        <ele>447.7</ele>
        <time>2022-04-28T14:14:03Z</time>
      </trkpt>
      <trkpt lat="45.19266" lon="5.20682">
        <ele>447.2</ele>
        <time>2022-04-28T14:14:04Z</time>
      </trkpt>
      <trkpt lat="45.19256" lon="5.20689">
        <ele>446.7</ele>
        <time>2022-04-28T14:14:05Z</time>
      </trkpt>
      <trkpt lat="45.19248" lon="5.20697">
        <ele>446.3</ele>
        <time>2022-04-28T14:14:06Z</time>
      </trkpt>
      <trkpt lat="45.19239" lon="5.20706">
        <ele>445.8</ele>
        <time>2022-04-28T14:14:07Z</time>
      </trkpt>
      <trkpt lat="45.19231" lon="5.20715">
        <ele>445.3</ele>
        <time>2022-04-28T14:14:08Z</time>
      </trkpt>
      <trkpt lat="45.19223" lon="5.20723">
        <ele>444.9</ele>
        <time>2022-04-28T14:14:09Z</time>
      </trkpt>
      <trkpt lat="45.19215" lon="5.2073">
        <ele>444.5</ele>
        <time>2022-04-28T14:14:10Z</time>
      </trkpt>
      <trkpt lat="45.19206" lon="5.20738">
        <ele>444</ele>
        <time>2022-04-28T14:14:11Z</time>
      </trkpt>
      <trkpt lat="45.19197" lon="5.20746">
        <ele>443.6</ele>
        <time>2022-04-28T14:14:12Z</time>
      </trkpt>
      <trkpt lat="45.19189" lon="5.20754">
        <ele>443.1</ele>
        <time>2022-04-28T14:14:13Z</time>
      </trkpt>
      <trkpt lat="45.1918" lon="5.20763">
        <ele>442.6</ele>
        <time>2022-04-28T14:14:14Z</time>
      </trkpt>
      <trkpt lat="45.19171" lon="5.20771">
        <ele>442.2</ele>
        <time>2022-04-28T14:14:15Z</time>
      </trkpt>
      <trkpt lat="45.19163" lon="5.20779">
        <ele>441.8</ele>
        <time>2022-04-28T14:14:16Z</time>
      </trkpt>
      <trkpt lat="45.19154" lon="5.20787">
        <ele>441.4</ele>
        <time>2022-04-28T14:14:17Z</time>
      </trkpt>
      <trkpt lat="45.19146" lon="5.20795">
        <ele>441.1</ele>
        <time>2022-04-28T14:14:18Z</time>
      </trkpt>
      <trkpt lat="45.19138" lon="5.20803">
        <ele>440.8</ele>
        <time>2022-04-28T14:14:19Z</time>
      </trkpt>
      <trkpt lat="45.19131" lon="5.20811">
        <ele>440.5</ele>
        <time>2022-04-28T14:14:20Z</time>
      </trkpt>
      <trkpt lat="45.19123" lon="5.2082">
        <ele>440.2</ele>
        <time>2022-04-28T14:14:21Z</time>
      </trkpt>
      <trkpt lat="45.19116" lon="5.20829">
        <ele>439.9</ele>
        <time>2022-04-28T14:14:22Z</time>
      </trkpt>
      <trkpt lat="45.19109" lon="5.20838">
        <ele>439.6</ele>
        <time>2022-04-28T14:14:23Z</time>
      </trkpt>
      <trkpt lat="45.19103" lon="5.20849">
        <ele>439.3</ele>
        <time>2022-04-28T14:14:24Z</time>
      </trkpt>
      <trkpt lat="45.19098" lon="5.20858">
        <ele>439.1</ele>
        <time>2022-04-28T14:14:25Z</time>
      </trkpt>
      <trkpt lat="45.19093" lon="5.20868">
        <ele>438.8</ele>
        <time>2022-04-28T14:14:26Z</time>
      </trkpt>
      <trkpt lat="45.19089" lon="5.20879">
        <ele>438.6</ele>
        <time>2022-04-28T14:14:27Z</time>
      </trkpt>
      <trkpt lat="45.19085" lon="5.20889">
        <ele>438.3</ele>
        <time>2022-04-28T14:14:28Z</time>
      </trkpt>
      <trkpt lat="45.19081" lon="5.20901">
        <ele>438.1</ele>
        <time>2022-04-28T14:14:29Z</time>
      </trkpt>
      <trkpt lat="45.19077" lon="5.20912">
        <ele>437.8</ele>
        <time>2022-04-28T14:14:30Z</time>
      </trkpt>
      <trkpt lat="45.19074" lon="5.20923">
        <ele>437.5</ele>
        <time>2022-04-28T14:14:31Z</time>
      </trkpt>
      <trkpt lat="45.19071" lon="5.20933">
        <ele>437.2</ele>
        <time>2022-04-28T14:14:32Z</time>
      </trkpt>
      <trkpt lat="45.19067" lon="5.20943">
        <ele>436.9</ele>
        <time>2022-04-28T14:14:33Z</time>
      </trkpt>
      <trkpt lat="45.19064" lon="5.20954">
        <ele>436.6</ele>
        <time>2022-04-28T14:14:34Z</time>
      </trkpt>
      <trkpt lat="45.1906" lon="5.20965">
        <ele>436.2</ele>
        <time>2022-04-28T14:14:35Z</time>
      </trkpt>
      <trkpt lat="45.19055" lon="5.20975">
        <ele>435.8</ele>
        <time>2022-04-28T14:14:36Z</time>
      </trkpt>
      <trkpt lat="45.1905" lon="5.20985">
        <ele>435.4</ele>
        <time>2022-04-28T14:14:37Z</time>
      </trkpt>
      <trkpt lat="45.19043" lon="5.20994">
        <ele>434.9</ele>
        <time>2022-04-28T14:14:38Z</time>
      </trkpt>
      <trkpt lat="45.19036" lon="5.21002">
        <ele>434.4</ele>
        <time>2022-04-28T14:14:39Z</time>
      </trkpt>
      <trkpt lat="45.19029" lon="5.2101">
        <ele>433.8</ele>
        <time>2022-04-28T14:14:40Z</time>
      </trkpt>
      <trkpt lat="45.19021" lon="5.21018">
        <ele>433.2</ele>
        <time>2022-04-28T14:14:41Z</time>
      </trkpt>
      <trkpt lat="45.19014" lon="5.21026">
        <ele>432.7</ele>
        <time>2022-04-28T14:14:42Z</time>
      </trkpt>
      <trkpt lat="45.19006" lon="5.21034">
        <ele>432.1</ele>
        <time>2022-04-28T14:14:43Z</time>
      </trkpt>
      <trkpt lat="45.18999" lon="5.21042">
        <ele>431.6</ele>
        <time>2022-04-28T14:14:44Z</time>
      </trkpt>
      <trkpt lat="45.18991" lon="5.21049">
        <ele>431.1</ele>
        <time>2022-04-28T14:14:45Z</time>
      </trkpt>
      <trkpt lat="45.18984" lon="5.21057">
        <ele>430.6</ele>
        <time>2022-04-28T14:14:46Z</time>
      </trkpt>
      <trkpt lat="45.18976" lon="5.21065">
        <ele>430</ele>
        <time>2022-04-28T14:14:47Z</time>
      </trkpt>
      <trkpt lat="45.18968" lon="5.21073">
        <ele>429.5</ele>
        <time>2022-04-28T14:14:48Z</time>
      </trkpt>
      <trkpt lat="45.18959" lon="5.21079">
        <ele>428.8</ele>
        <time>2022-04-28T14:14:49Z</time>
      </trkpt>
      <trkpt lat="45.18951" lon="5.21084">
        <ele>428.2</ele>
        <time>2022-04-28T14:14:50Z</time>
      </trkpt>
      <trkpt lat="45.18942" lon="5.2109">
        <ele>427.6</ele>
        <time>2022-04-28T14:14:51Z</time>
      </trkpt>
      <trkpt lat="45.18932" lon="5.21095">
        <ele>426.9</ele>
        <time>2022-04-28T14:14:52Z</time>
      </trkpt>
      <trkpt lat="45.18923" lon="5.21099">
        <ele>426.2</ele>
        <time>2022-04-28T14:14:53Z</time>
      </trkpt>
      <trkpt lat="45.18912" lon="5.21104">
        <ele>425.5</ele>
        <time>2022-04-28T14:14:54Z</time>
      </trkpt>
      <trkpt lat="45.18903" lon="5.21109">
        <ele>424.9</ele>
        <time>2022-04-28T14:14:55Z</time>
      </trkpt>
      <trkpt lat="45.18892" lon="5.21113">
        <ele>424.2</ele>
        <time>2022-04-28T14:14:56Z</time>
      </trkpt>
      <trkpt lat="45.18882" lon="5.21118">
        <ele>423.5</ele>
        <time>2022-04-28T14:14:57Z</time>
      </trkpt>
      <trkpt lat="45.18871" lon="5.21122">
        <ele>422.8</ele>
        <time>2022-04-28T14:14:58Z</time>
      </trkpt>
      <trkpt lat="45.18861" lon="5.21127">
        <ele>422.1</ele>
        <time>2022-04-28T14:14:59Z</time>
      </trkpt>
      <trkpt lat="45.18852" lon="5.21133">
        <ele>421.5</ele>
        <time>2022-04-28T14:15:00Z</time>
      </trkpt>
      <trkpt lat="45.18841" lon="5.21136">
        <ele>420.8</ele>
        <time>2022-04-28T14:15:01Z</time>
      </trkpt>
      <trkpt lat="45.18831" lon="5.2114">
        <ele>420.1</ele>
        <time>2022-04-28T14:15:02Z</time>
      </trkpt>
      <trkpt lat="45.1882" lon="5.21142">
        <ele>419.4</ele>
        <time>2022-04-28T14:15:03Z</time>
      </trkpt>
      <trkpt lat="45.18808" lon="5.21144">
        <ele>418.6</ele>
        <time>2022-04-28T14:15:04Z</time>
      </trkpt>
      <trkpt lat="45.18798" lon="5.21146">
        <ele>417.9</ele>
        <time>2022-04-28T14:15:05Z</time>
      </trkpt>
      <trkpt lat="45.18787" lon="5.21148">
        <ele>417.1</ele>
        <time>2022-04-28T14:15:06Z</time>
      </trkpt>
      <trkpt lat="45.18776" lon="5.21151">
        <ele>416.3</ele>
        <time>2022-04-28T14:15:07Z</time>
      </trkpt>
      <trkpt lat="45.18764" lon="5.21153">
        <ele>415.5</ele>
        <time>2022-04-28T14:15:08Z</time>
      </trkpt>
      <trkpt lat="45.18753" lon="5.21155">
        <ele>414.8</ele>
        <time>2022-04-28T14:15:09Z</time>
      </trkpt>
      <trkpt lat="45.18742" lon="5.21159">
        <ele>414.1</ele>
        <time>2022-04-28T14:15:10Z</time>
      </trkpt>
      <trkpt lat="45.18732" lon="5.21163">
        <ele>413.4</ele>
        <time>2022-04-28T14:15:11Z</time>
      </trkpt>
      <trkpt lat="45.18723" lon="5.21169">
        <ele>412.7</ele>
        <time>2022-04-28T14:15:12Z</time>
      </trkpt>
      <trkpt lat="45.18713" lon="5.21175">
        <ele>411.9</ele>
        <time>2022-04-28T14:15:13Z</time>
      </trkpt>
      <trkpt lat="45.18702" lon="5.21181">
        <ele>411.1</ele>
        <time>2022-04-28T14:15:14Z</time>
      </trkpt>
      <trkpt lat="45.18691" lon="5.21186">
        <ele>410.4</ele>
        <time>2022-04-28T14:15:15Z</time>
      </trkpt>
      <trkpt lat="45.18681" lon="5.21193">
        <ele>409.6</ele>
        <time>2022-04-28T14:15:16Z</time>
      </trkpt>
      <trkpt lat="45.1867" lon="5.21199">
        <ele>408.8</ele>
        <time>2022-04-28T14:15:17Z</time>
      </trkpt>
      <trkpt lat="45.18659" lon="5.21205">
        <ele>408.1</ele>
        <time>2022-04-28T14:15:18Z</time>
      </trkpt>
      <trkpt lat="45.18649" lon="5.21211">
        <ele>407.4</ele>
        <time>2022-04-28T14:15:19Z</time>
      </trkpt>
      <trkpt lat="45.18638" lon="5.21217">
        <ele>406.7</ele>
        <time>2022-04-28T14:15:20Z</time>
      </trkpt>
      <trkpt lat="45.18628" lon="5.21223">
        <ele>406</ele>
        <time>2022-04-28T14:15:21Z</time>
      </trkpt>
      <trkpt lat="45.18618" lon="5.21229">
        <ele>405.3</ele>
        <time>2022-04-28T14:15:22Z</time>
      </trkpt>
      <trkpt lat="45.18607" lon="5.21235">
        <ele>404.6</ele>
        <time>2022-04-28T14:15:23Z</time>
      </trkpt>
      <trkpt lat="45.18597" lon="5.21241">
        <ele>403.9</ele>
        <time>2022-04-28T14:15:24Z</time>
      </trkpt>
      <trkpt lat="45.18586" lon="5.21246">
        <ele>403.2</ele>
        <time>2022-04-28T14:15:25Z</time>
      </trkpt>
      <trkpt lat="45.18576" lon="5.21252">
        <ele>402.5</ele>
        <time>2022-04-28T14:15:26Z</time>
      </trkpt>
      <trkpt lat="45.18566" lon="5.21259">
        <ele>401.8</ele>
        <time>2022-04-28T14:15:27Z</time>
      </trkpt>
      <trkpt lat="45.18555" lon="5.21264">
        <ele>401.2</ele>
        <time>2022-04-28T14:15:28Z</time>
      </trkpt>
      <trkpt lat="45.18545" lon="5.2127">
        <ele>400.5</ele>
        <time>2022-04-28T14:15:29Z</time>
      </trkpt>
      <trkpt lat="45.18534" lon="5.21277">
        <ele>399.7</ele>
        <time>2022-04-28T14:15:30Z</time>
      </trkpt>
      <trkpt lat="45.18524" lon="5.21283">
        <ele>399</ele>
        <time>2022-04-28T14:15:31Z</time>
      </trkpt>
      <trkpt lat="45.18513" lon="5.21289">
        <ele>398.3</ele>
        <time>2022-04-28T14:15:32Z</time>
      </trkpt>
      <trkpt lat="45.18502" lon="5.21295">
        <ele>397.5</ele>
        <time>2022-04-28T14:15:33Z</time>
      </trkpt>
      <trkpt lat="45.18491" lon="5.21301">
        <ele>396.7</ele>
        <time>2022-04-28T14:15:34Z</time>
      </trkpt>
      <trkpt lat="45.18481" lon="5.21308">
        <ele>396</ele>
        <time>2022-04-28T14:15:35Z</time>
      </trkpt>
      <trkpt lat="45.1847" lon="5.21314">
        <ele>395.3</ele>
        <time>2022-04-28T14:15:36Z</time>
      </trkpt>
      <trkpt lat="45.1846" lon="5.21321">
        <ele>394.6</ele>
        <time>2022-04-28T14:15:37Z</time>
      </trkpt>
      <trkpt lat="45.18449" lon="5.21327">
        <ele>393.9</ele>
        <time>2022-04-28T14:15:38Z</time>
      </trkpt>
      <trkpt lat="45.18439" lon="5.21334">
        <ele>393.2</ele>
        <time>2022-04-28T14:15:39Z</time>
      </trkpt>
      <trkpt lat="45.18429" lon="5.2134">
        <ele>392.5</ele>
        <time>2022-04-28T14:15:40Z</time>
      </trkpt>
      <trkpt lat="45.18418" lon="5.21347">
        <ele>391.7</ele>
        <time>2022-04-28T14:15:41Z</time>
      </trkpt>
      <trkpt lat="45.18407" lon="5.21353">
        <ele>391</ele>
        <time>2022-04-28T14:15:42Z</time>
      </trkpt>
      <trkpt lat="45.18396" lon="5.2136">
        <ele>390.3</ele>
        <time>2022-04-28T14:15:43Z</time>
      </trkpt>
      <trkpt lat="45.18384" lon="5.21365">
        <ele>389.5</ele>
        <time>2022-04-28T14:15:44Z</time>
      </trkpt>
      <trkpt lat="45.18372" lon="5.21371">
        <ele>388.7</ele>
        <time>2022-04-28T14:15:45Z</time>
      </trkpt>
      <trkpt lat="45.18361" lon="5.21378">
        <ele>387.9</ele>
        <time>2022-04-28T14:15:46Z</time>
      </trkpt>
      <trkpt lat="45.18349" lon="5.21384">
        <ele>387.1</ele>
        <time>2022-04-28T14:15:47Z</time>
      </trkpt>
      <trkpt lat="45.18338" lon="5.2139">
        <ele>386.3</ele>
        <time>2022-04-28T14:15:48Z</time>
      </trkpt>
      <trkpt lat="45.18326" lon="5.21396">
        <ele>385.5</ele>
        <time>2022-04-28T14:15:49Z</time>
      </trkpt>
      <trkpt lat="45.18315" lon="5.21401">
        <ele>384.8</ele>
        <time>2022-04-28T14:15:50Z</time>
      </trkpt>
      <trkpt lat="45.18304" lon="5.21406">
        <ele>384.1</ele>
        <time>2022-04-28T14:15:51Z</time>
      </trkpt>
      <trkpt lat="45.18293" lon="5.21412">
        <ele>383.4</ele>
        <time>2022-04-28T14:15:52Z</time>
      </trkpt>
      <trkpt lat="45.18282" lon="5.21418">
        <ele>382.6</ele>
        <time>2022-04-28T14:15:53Z</time>
      </trkpt>
      <trkpt lat="45.1827" lon="5.21424">
        <ele>381.9</ele>
        <time>2022-04-28T14:15:54Z</time>
      </trkpt>
      <trkpt lat="45.18259" lon="5.21427">
        <ele>381.1</ele>
        <time>2022-04-28T14:15:55Z</time>
      </trkpt>
      <trkpt lat="45.18247" lon="5.2143">
        <ele>380.4</ele>
        <time>2022-04-28T14:15:56Z</time>
      </trkpt>
      <trkpt lat="45.18235" lon="5.21433">
        <ele>379.6</ele>
        <time>2022-04-28T14:15:57Z</time>
      </trkpt>
      <trkpt lat="45.18223" lon="5.21437">
        <ele>378.9</ele>
        <time>2022-04-28T14:15:58Z</time>
      </trkpt>
      <trkpt lat="45.18211" lon="5.21438">
        <ele>378.2</ele>
        <time>2022-04-28T14:15:59Z</time>
      </trkpt>
      <trkpt lat="45.18199" lon="5.21436">
        <ele>377.5</ele>
        <time>2022-04-28T14:16:00Z</time>
      </trkpt>
      <trkpt lat="45.18187" lon="5.21432">
        <ele>376.9</ele>
        <time>2022-04-28T14:16:01Z</time>
      </trkpt>
      <trkpt lat="45.18175" lon="5.21428">
        <ele>376.2</ele>
        <time>2022-04-28T14:16:02Z</time>
      </trkpt>
      <trkpt lat="45.18163" lon="5.21425">
        <ele>375.7</ele>
        <time>2022-04-28T14:16:03Z</time>
      </trkpt>
      <trkpt lat="45.18151" lon="5.21424">
        <ele>375.1</ele>
        <time>2022-04-28T14:16:04Z</time>
      </trkpt>
      <trkpt lat="45.18139" lon="5.21421">
        <ele>374.6</ele>
        <time>2022-04-28T14:16:05Z</time>
      </trkpt>
      <trkpt lat="45.18127" lon="5.2142">
        <ele>374</ele>
        <time>2022-04-28T14:16:06Z</time>
      </trkpt>
      <trkpt lat="45.18115" lon="5.21419">
        <ele>373.5</ele>
        <time>2022-04-28T14:16:07Z</time>
      </trkpt>
      <trkpt lat="45.18103" lon="5.2142">
        <ele>373</ele>
        <time>2022-04-28T14:16:08Z</time>
      </trkpt>
      <trkpt lat="45.18091" lon="5.21421">
        <ele>372.5</ele>
        <time>2022-04-28T14:16:09Z</time>
      </trkpt>
      <trkpt lat="45.1808" lon="5.21424">
        <ele>372</ele>
        <time>2022-04-28T14:16:10Z</time>
      </trkpt>
      <trkpt lat="45.18068" lon="5.21427">
        <ele>371.4</ele>
        <time>2022-04-28T14:16:11Z</time>
      </trkpt>
      <trkpt lat="45.18057" lon="5.2143">
        <ele>370.8</ele>
        <time>2022-04-28T14:16:12Z</time>
      </trkpt>
      <trkpt lat="45.18045" lon="5.21432">
        <ele>370.3</ele>
        <time>2022-04-28T14:16:13Z</time>
      </trkpt>
      <trkpt lat="45.18033" lon="5.21433">
        <ele>369.7</ele>
        <time>2022-04-28T14:16:14Z</time>
      </trkpt>
      <trkpt lat="45.18022" lon="5.21432">
        <ele>369.2</ele>
        <time>2022-04-28T14:16:15Z</time>
      </trkpt>
      <trkpt lat="45.1801" lon="5.21427">
        <ele>368.7</ele>
        <time>2022-04-28T14:16:16Z</time>
      </trkpt>
      <trkpt lat="45.17999" lon="5.21421">
        <ele>368.2</ele>
        <time>2022-04-28T14:16:17Z</time>
      </trkpt>
      <trkpt lat="45.17988" lon="5.21414">
        <ele>367.7</ele>
        <time>2022-04-28T14:16:18Z</time>
      </trkpt>
      <trkpt lat="45.17978" lon="5.21406">
        <ele>367.3</ele>
        <time>2022-04-28T14:16:19Z</time>
      </trkpt>
      <trkpt lat="45.17968" lon="5.21399">
        <ele>366.9</ele>
        <time>2022-04-28T14:16:20Z</time>
      </trkpt>
      <trkpt lat="45.17958" lon="5.21393">
        <ele>366.4</ele>
        <time>2022-04-28T14:16:21Z</time>
      </trkpt>
      <trkpt lat="45.17948" lon="5.21385">
        <ele>366</ele>
        <time>2022-04-28T14:16:22Z</time>
      </trkpt>
      <trkpt lat="45.17939" lon="5.21376">
        <ele>365.6</ele>
        <time>2022-04-28T14:16:23Z</time>
      </trkpt>
      <trkpt lat="45.1793" lon="5.21368">
        <ele>365.1</ele>
        <time>2022-04-28T14:16:24Z</time>
      </trkpt>
      <trkpt lat="45.17921" lon="5.21359">
        <ele>364.6</ele>
        <time>2022-04-28T14:16:25Z</time>
      </trkpt>
      <trkpt lat="45.17912" lon="5.21354">
        <ele>364.3</ele>
        <time>2022-04-28T14:16:26Z</time>
      </trkpt>
      <trkpt lat="45.17903" lon="5.21349">
        <ele>363.8</ele>
        <time>2022-04-28T14:16:27Z</time>
      </trkpt>
      <trkpt lat="45.17893" lon="5.21348">
        <ele>363.4</ele>
        <time>2022-04-28T14:16:28Z</time>
      </trkpt>
      <trkpt lat="45.17882" lon="5.21349">
        <ele>363</ele>
        <time>2022-04-28T14:16:29Z</time>
      </trkpt>
      <trkpt lat="45.17872" lon="5.21351">
        <ele>362.5</ele>
        <time>2022-04-28T14:16:30Z</time>
      </trkpt>
      <trkpt lat="45.17861" lon="5.21354">
        <ele>362.1</ele>
        <time>2022-04-28T14:16:31Z</time>
      </trkpt>
      <trkpt lat="45.17851" lon="5.21357">
        <ele>361.8</ele>
        <time>2022-04-28T14:16:32Z</time>
      </trkpt>
      <trkpt lat="45.17841" lon="5.2136">
        <ele>361.5</ele>
        <time>2022-04-28T14:16:33Z</time>
      </trkpt>
      <trkpt lat="45.17831" lon="5.21362">
        <ele>361.3</ele>
        <time>2022-04-28T14:16:34Z</time>
      </trkpt>
      <trkpt lat="45.17822" lon="5.21364">
        <ele>361.2</ele>
        <time>2022-04-28T14:16:35Z</time>
      </trkpt>
      <trkpt lat="45.17812" lon="5.21367">
        <ele>361</ele>
        <time>2022-04-28T14:16:36Z</time>
      </trkpt>
      <trkpt lat="45.17802" lon="5.21368">
        <ele>361</ele>
        <time>2022-04-28T14:16:37Z</time>
      </trkpt>
      <trkpt lat="45.17793" lon="5.21369">
        <ele>361</ele>
        <time>2022-04-28T14:16:38Z</time>
      </trkpt>
      <trkpt lat="45.17784" lon="5.2137">
        <ele>361</ele>
        <time>2022-04-28T14:16:39Z</time>
      </trkpt>
      <trkpt lat="45.17776" lon="5.21372">
        <ele>361</ele>
        <time>2022-04-28T14:16:40Z</time>
      </trkpt>
      <trkpt lat="45.17767" lon="5.21374">
        <ele>361</ele>
        <time>2022-04-28T14:16:41Z</time>
      </trkpt>
      <trkpt lat="45.1776" lon="5.21378">
        <ele>361</ele>
        <time>2022-04-28T14:16:42Z</time>
      </trkpt>
      <trkpt lat="45.17753" lon="5.21383">
        <ele>361</ele>
        <time>2022-04-28T14:16:43Z</time>
      </trkpt>
      <trkpt lat="45.17747" lon="5.2139">
        <ele>361</ele>
        <time>2022-04-28T14:16:44Z</time>
      </trkpt>
      <trkpt lat="45.17741" lon="5.21397">
        <ele>360.9</ele>
        <time>2022-04-28T14:16:45Z</time>
      </trkpt>
      <trkpt lat="45.17735" lon="5.21404">
        <ele>360.9</ele>
        <time>2022-04-28T14:16:46Z</time>
      </trkpt>
      <trkpt lat="45.17731" lon="5.21412">
        <ele>360.8</ele>
        <time>2022-04-28T14:16:47Z</time>
      </trkpt>
      <trkpt lat="45.17726" lon="5.21419">
        <ele>360.6</ele>
        <time>2022-04-28T14:16:48Z</time>
      </trkpt>
      <trkpt lat="45.1772" lon="5.21426">
        <ele>360.5</ele>
        <time>2022-04-28T14:16:49Z</time>
      </trkpt>
      <trkpt lat="45.17715" lon="5.21432">
        <ele>360.3</ele>
        <time>2022-04-28T14:16:50Z</time>
      </trkpt>
      <trkpt lat="45.1771" lon="5.21439">
        <ele>360.1</ele>
        <time>2022-04-28T14:16:51Z</time>
      </trkpt>
      <trkpt lat="45.17705" lon="5.21447">
        <ele>359.8</ele>
        <time>2022-04-28T14:16:52Z</time>
      </trkpt>
      <trkpt lat="45.177" lon="5.21454">
        <ele>359.6</ele>
        <time>2022-04-28T14:16:53Z</time>
      </trkpt>
      <trkpt lat="45.17695" lon="5.2146">
        <ele>359.3</ele>
        <time>2022-04-28T14:16:54Z</time>
      </trkpt>
      <trkpt lat="45.17687" lon="5.21463">
        <ele>359.1</ele>
        <time>2022-04-28T14:16:55Z</time>
      </trkpt>
      <trkpt lat="45.17679" lon="5.21466">
        <ele>358.8</ele>
        <time>2022-04-28T14:16:56Z</time>
      </trkpt>
      <trkpt lat="45.1767" lon="5.21467">
        <ele>358.4</ele>
        <time>2022-04-28T14:16:57Z</time>
      </trkpt>
      <trkpt lat="45.17662" lon="5.21467">
        <ele>358</ele>
        <time>2022-04-28T14:16:58Z</time>
      </trkpt>
      <trkpt lat="45.17653" lon="5.21465">
        <ele>357.7</ele>
        <time>2022-04-28T14:16:59Z</time>
      </trkpt>
      <trkpt lat="45.17645" lon="5.21462">
        <ele>357.4</ele>
        <time>2022-04-28T14:17:00Z</time>
      </trkpt>
      <trkpt lat="45.17637" lon="5.21459">
        <ele>357.1</ele>
        <time>2022-04-28T14:17:01Z</time>
      </trkpt>
      <trkpt lat="45.17629" lon="5.21455">
        <ele>356.8</ele>
        <time>2022-04-28T14:17:02Z</time>
      </trkpt>
      <trkpt lat="45.17621" lon="5.21451">
        <ele>356.5</ele>
        <time>2022-04-28T14:17:03Z</time>
      </trkpt>
      <trkpt lat="45.17612" lon="5.21448">
        <ele>356.4</ele>
        <time>2022-04-28T14:17:04Z</time>
      </trkpt>
      <trkpt lat="45.17604" lon="5.21446">
        <ele>356.3</ele>
        <time>2022-04-28T14:17:05Z</time>
      </trkpt>
      <trkpt lat="45.17596" lon="5.21446">
        <ele>356.2</ele>
        <time>2022-04-28T14:17:06Z</time>
      </trkpt>
      <trkpt lat="45.17589" lon="5.21449">
        <ele>356.1</ele>
        <time>2022-04-28T14:17:07Z</time>
      </trkpt>
      <trkpt lat="45.17581" lon="5.21453">
        <ele>356.1</ele>
        <time>2022-04-28T14:17:08Z</time>
      </trkpt>
      <trkpt lat="45.17575" lon="5.21459">
        <ele>356.1</ele>
        <time>2022-04-28T14:17:09Z</time>
      </trkpt>
      <trkpt lat="45.17568" lon="5.21463">
        <ele>356</ele>
        <time>2022-04-28T14:17:10Z</time>
      </trkpt>
      <trkpt lat="45.17562" lon="5.21468">
        <ele>356</ele>
        <time>2022-04-28T14:17:11Z</time>
      </trkpt>
      <trkpt lat="45.17555" lon="5.21472">
        <ele>356.1</ele>
        <time>2022-04-28T14:17:12Z</time>
      </trkpt>
      <trkpt lat="45.17549" lon="5.21477">
        <ele>356.1</ele>
        <time>2022-04-28T14:17:13Z</time>
      </trkpt>
      <trkpt lat="45.17543" lon="5.21482">
        <ele>356.2</ele>
        <time>2022-04-28T14:17:14Z</time>
      </trkpt>
      <trkpt lat="45.17537" lon="5.21486">
        <ele>356.2</ele>
        <time>2022-04-28T14:17:15Z</time>
      </trkpt>
      <trkpt lat="45.17531" lon="5.21491">
        <ele>356.3</ele>
        <time>2022-04-28T14:17:16Z</time>
      </trkpt>
      <trkpt lat="45.17525" lon="5.21496">
        <ele>356.3</ele>
        <time>2022-04-28T14:17:17Z</time>
      </trkpt>
      <trkpt lat="45.1752" lon="5.215">
        <ele>356.4</ele>
        <time>2022-04-28T14:17:18Z</time>
      </trkpt>
      <trkpt lat="45.17515" lon="5.21505">
        <ele>356.5</ele>
        <time>2022-04-28T14:17:19Z</time>
      </trkpt>
      <trkpt lat="45.17511" lon="5.2151">
        <ele>356.6</ele>
        <time>2022-04-28T14:17:20Z</time>
      </trkpt>
      <trkpt lat="45.17506" lon="5.21515">
        <ele>356.7</ele>
        <time>2022-04-28T14:17:21Z</time>
      </trkpt>
      <trkpt lat="45.17502" lon="5.2152">
        <ele>356.7</ele>
        <time>2022-04-28T14:17:22Z</time>
      </trkpt>
      <trkpt lat="45.17498" lon="5.21525">
        <ele>356.8</ele>
        <time>2022-04-28T14:17:23Z</time>
      </trkpt>
      <trkpt lat="45.17494" lon="5.2153">
        <ele>356.9</ele>
        <time>2022-04-28T14:17:24Z</time>
      </trkpt>
      <trkpt lat="45.17491" lon="5.21536">
        <ele>357</ele>
        <time>2022-04-28T14:17:25Z</time>
      </trkpt>
      <trkpt lat="45.17489" lon="5.21542">
        <ele>357.1</ele>
        <time>2022-04-28T14:17:26Z</time>
      </trkpt>
      <trkpt lat="45.17487" lon="5.21549">
        <ele>357.2</ele>
        <time>2022-04-28T14:17:27Z</time>
      </trkpt>
      <trkpt lat="45.17485" lon="5.21554">
        <ele>357.2</ele>
        <time>2022-04-28T14:17:28Z</time>
      </trkpt>
      <trkpt lat="45.17483" lon="5.21557">
        <ele>357.2</ele>
        <time>2022-04-28T14:17:29Z</time>
      </trkpt>
      <trkpt lat="45.1748" lon="5.21562">
        <ele>357.2</ele>
        <time>2022-04-28T14:17:30Z</time>
      </trkpt>
      <trkpt lat="45.17479" lon="5.21566">
        <ele>357.3</ele>
        <time>2022-04-28T14:17:31Z</time>
      </trkpt>
      <trkpt lat="45.17477" lon="5.21572">
        <ele>357.3</ele>
        <time>2022-04-28T14:17:32Z</time>
      </trkpt>
      <trkpt lat="45.17475" lon="5.21577">
        <ele>357.3</ele>
        <time>2022-04-28T14:17:33Z</time>
      </trkpt>
      <trkpt lat="45.17473" lon="5.21581">
        <ele>357.3</ele>
        <time>2022-04-28T14:17:34Z</time>
      </trkpt>
      <trkpt lat="45.1747" lon="5.21587">
        <ele>357.3</ele>
        <time>2022-04-28T14:17:35Z</time>
      </trkpt>
      <trkpt lat="45.17467" lon="5.21593">
        <ele>357.3</ele>
        <time>2022-04-28T14:17:36Z</time>
      </trkpt>
      <trkpt lat="45.17464" lon="5.21598">
        <ele>357.3</ele>
        <time>2022-04-28T14:17:37Z</time>
      </trkpt>
      <trkpt lat="45.17466" lon="5.21595">
        <ele>357.2</ele>
        <time>2022-04-28T14:17:39Z</time>
      </trkpt>
      <trkpt lat="45.17462" lon="5.21604">
        <ele>357.2</ele>
        <time>2022-04-28T14:17:41Z</time>
      </trkpt>
      <trkpt lat="45.17458" lon="5.21611">
        <ele>357.2</ele>
        <time>2022-04-28T14:17:42Z</time>
      </trkpt>
      <trkpt lat="45.17455" lon="5.21618">
        <ele>357.1</ele>
        <time>2022-04-28T14:17:43Z</time>
      </trkpt>
      <trkpt lat="45.17452" lon="5.21626">
        <ele>357</ele>
        <time>2022-04-28T14:17:44Z</time>
      </trkpt>
      <trkpt lat="45.17449" lon="5.21633">
        <ele>357</ele>
        <time>2022-04-28T14:17:45Z</time>
      </trkpt>
      <trkpt lat="45.17445" lon="5.21639">
        <ele>356.9</ele>
        <time>2022-04-28T14:17:46Z</time>
      </trkpt>
      <trkpt lat="45.17441" lon="5.21649">
        <ele>356.8</ele>
        <time>2022-04-28T14:17:48Z</time>
      </trkpt>
      <trkpt lat="45.17439" lon="5.21658">
        <ele>356.7</ele>
        <time>2022-04-28T14:17:49Z</time>
      </trkpt>
      <trkpt lat="45.17435" lon="5.21665">
        <ele>356.5</ele>
        <time>2022-04-28T14:17:51Z</time>
      </trkpt>
      <trkpt lat="45.1743" lon="5.21673">
        <ele>356.3</ele>
        <time>2022-04-28T14:17:52Z</time>
      </trkpt>
      <trkpt lat="45.17427" lon="5.2168">
        <ele>356.2</ele>
        <time>2022-04-28T14:17:53Z</time>
      </trkpt>
      <trkpt lat="45.17424" lon="5.21685">
        <ele>356</ele>
        <time>2022-04-28T14:17:54Z</time>
      </trkpt>
      <trkpt lat="45.17422" lon="5.21691">
        <ele>355.9</ele>
        <time>2022-04-28T14:17:55Z</time>
      </trkpt>
      <trkpt lat="45.17419" lon="5.21696">
        <ele>355.7</ele>
        <time>2022-04-28T14:17:56Z</time>
      </trkpt>
      <trkpt lat="45.17416" lon="5.21702">
        <ele>355.6</ele>
        <time>2022-04-28T14:17:57Z</time>
      </trkpt>
      <trkpt lat="45.17414" lon="5.21707">
        <ele>355.4</ele>
        <time>2022-04-28T14:17:58Z</time>
      </trkpt>
      <trkpt lat="45.17411" lon="5.21713">
        <ele>355.3</ele>
        <time>2022-04-28T14:17:59Z</time>
      </trkpt>
      <trkpt lat="45.17407" lon="5.21719">
        <ele>355.1</ele>
        <time>2022-04-28T14:18:00Z</time>
      </trkpt>
      <trkpt lat="45.17404" lon="5.21726">
        <ele>355</ele>
        <time>2022-04-28T14:18:01Z</time>
      </trkpt>
      <trkpt lat="45.174" lon="5.21732">
        <ele>354.8</ele>
        <time>2022-04-28T14:18:02Z</time>
      </trkpt>
      <trkpt lat="45.17397" lon="5.21739">
        <ele>354.6</ele>
        <time>2022-04-28T14:18:03Z</time>
      </trkpt>
      <trkpt lat="45.17393" lon="5.21746">
        <ele>354.5</ele>
        <time>2022-04-28T14:18:04Z</time>
      </trkpt>
      <trkpt lat="45.1739" lon="5.21753">
        <ele>354.3</ele>
        <time>2022-04-28T14:18:05Z</time>
      </trkpt>
      <trkpt lat="45.17387" lon="5.21759">
        <ele>354.2</ele>
        <time>2022-04-28T14:18:06Z</time>
      </trkpt>
      <trkpt lat="45.17383" lon="5.21766">
        <ele>354</ele>
        <time>2022-04-28T14:18:07Z</time>
      </trkpt>
      <trkpt lat="45.17379" lon="5.21773">
        <ele>353.9</ele>
        <time>2022-04-28T14:18:08Z</time>
      </trkpt>
      <trkpt lat="45.17376" lon="5.21779">
        <ele>353.8</ele>
        <time>2022-04-28T14:18:09Z</time>
      </trkpt>
      <trkpt lat="45.17373" lon="5.21785">
        <ele>353.6</ele>
        <time>2022-04-28T14:18:10Z</time>
      </trkpt>
      <trkpt lat="45.1737" lon="5.21791">
        <ele>353.5</ele>
        <time>2022-04-28T14:18:11Z</time>
      </trkpt>
      <trkpt lat="45.17366" lon="5.21798">
        <ele>353.4</ele>
        <time>2022-04-28T14:18:12Z</time>
      </trkpt>
      <trkpt lat="45.17363" lon="5.21805">
        <ele>353.3</ele>
        <time>2022-04-28T14:18:13Z</time>
      </trkpt>
      <trkpt lat="45.1736" lon="5.21811">
        <ele>353.2</ele>
        <time>2022-04-28T14:18:14Z</time>
      </trkpt>
      <trkpt lat="45.17357" lon="5.21818">
        <ele>353.1</ele>
        <time>2022-04-28T14:18:15Z</time>
      </trkpt>
      <trkpt lat="45.17354" lon="5.21824">
        <ele>353</ele>
        <time>2022-04-28T14:18:16Z</time>
      </trkpt>
      <trkpt lat="45.17351" lon="5.2183">
        <ele>352.9</ele>
        <time>2022-04-28T14:18:17Z</time>
      </trkpt>
      <trkpt lat="45.17348" lon="5.21836">
        <ele>352.8</ele>
        <time>2022-04-28T14:18:18Z</time>
      </trkpt>
      <trkpt lat="45.17346" lon="5.21843">
        <ele>352.5</ele>
        <time>2022-04-28T14:18:19Z</time>
      </trkpt>
      <trkpt lat="45.17344" lon="5.2185">
        <ele>352.3</ele>
        <time>2022-04-28T14:18:20Z</time>
      </trkpt>
      <trkpt lat="45.17342" lon="5.21858">
        <ele>352.2</ele>
        <time>2022-04-28T14:18:21Z</time>
      </trkpt>
      <trkpt lat="45.1734" lon="5.21866">
        <ele>352</ele>
        <time>2022-04-28T14:18:22Z</time>
      </trkpt>
      <trkpt lat="45.17338" lon="5.21875">
        <ele>351.9</ele>
        <time>2022-04-28T14:18:23Z</time>
      </trkpt>
      <trkpt lat="45.17337" lon="5.21884">
        <ele>351.7</ele>
        <time>2022-04-28T14:18:24Z</time>
      </trkpt>
      <trkpt lat="45.17337" lon="5.21892">
        <ele>351.6</ele>
        <time>2022-04-28T14:18:25Z</time>
      </trkpt>
      <trkpt lat="45.17337" lon="5.21901">
        <ele>351.4</ele>
        <time>2022-04-28T14:18:26Z</time>
      </trkpt>
      <trkpt lat="45.17337" lon="5.2191">
        <ele>351.3</ele>
        <time>2022-04-28T14:18:27Z</time>
      </trkpt>
      <trkpt lat="45.17337" lon="5.21919">
        <ele>351.1</ele>
        <time>2022-04-28T14:18:28Z</time>
      </trkpt>
      <trkpt lat="45.17337" lon="5.21929">
        <ele>351</ele>
        <time>2022-04-28T14:18:29Z</time>
      </trkpt>
      <trkpt lat="45.17337" lon="5.21938">
        <ele>350.9</ele>
        <time>2022-04-28T14:18:30Z</time>
      </trkpt>
      <trkpt lat="45.17337" lon="5.21948">
        <ele>350.8</ele>
        <time>2022-04-28T14:18:31Z</time>
      </trkpt>
      <trkpt lat="45.17337" lon="5.21957">
        <ele>350.7</ele>
        <time>2022-04-28T14:18:32Z</time>
      </trkpt>
      <trkpt lat="45.17337" lon="5.21965">
        <ele>350.6</ele>
        <time>2022-04-28T14:18:33Z</time>
      </trkpt>
      <trkpt lat="45.17338" lon="5.21973">
        <ele>350.5</ele>
        <time>2022-04-28T14:18:34Z</time>
      </trkpt>
      <trkpt lat="45.17338" lon="5.21982">
        <ele>350.5</ele>
        <time>2022-04-28T14:18:35Z</time>
      </trkpt>
      <trkpt lat="45.17338" lon="5.21991">
        <ele>350.4</ele>
        <time>2022-04-28T14:18:36Z</time>
      </trkpt>
      <trkpt lat="45.17338" lon="5.22">
        <ele>350.4</ele>
        <time>2022-04-28T14:18:37Z</time>
      </trkpt>
      <trkpt lat="45.17338" lon="5.22009">
        <ele>350.4</ele>
        <time>2022-04-28T14:18:38Z</time>
      </trkpt>
      <trkpt lat="45.17338" lon="5.22017">
        <ele>350.4</ele>
        <time>2022-04-28T14:18:39Z</time>
      </trkpt>
      <trkpt lat="45.17338" lon="5.22025">
        <ele>350.4</ele>
        <time>2022-04-28T14:18:40Z</time>
      </trkpt>
      <trkpt lat="45.17338" lon="5.22033">
        <ele>350.4</ele>
        <time>2022-04-28T14:18:41Z</time>
      </trkpt>
      <trkpt lat="45.17338" lon="5.2204">
        <ele>350.4</ele>
        <time>2022-04-28T14:18:42Z</time>
      </trkpt>
      <trkpt lat="45.17338" lon="5.22047">
        <ele>350.4</ele>
        <time>2022-04-28T14:18:43Z</time>
      </trkpt>
      <trkpt lat="45.17338" lon="5.22054">
        <ele>350.4</ele>
        <time>2022-04-28T14:18:44Z</time>
      </trkpt>
      <trkpt lat="45.17338" lon="5.22061">
        <ele>350.5</ele>
        <time>2022-04-28T14:18:45Z</time>
      </trkpt>
      <trkpt lat="45.17338" lon="5.22067">
        <ele>350.4</ele>
        <time>2022-04-28T14:18:46Z</time>
      </trkpt>
      <trkpt lat="45.17339" lon="5.22074">
        <ele>350.4</ele>
        <time>2022-04-28T14:18:47Z</time>
      </trkpt>
      <trkpt lat="45.17339" lon="5.22081">
        <ele>350.4</ele>
        <time>2022-04-28T14:18:48Z</time>
      </trkpt>
      <trkpt lat="45.17339" lon="5.22089">
        <ele>350.4</ele>
        <time>2022-04-28T14:18:49Z</time>
      </trkpt>
      <trkpt lat="45.17339" lon="5.22096">
        <ele>350.4</ele>
        <time>2022-04-28T14:18:50Z</time>
      </trkpt>
      <trkpt lat="45.17339" lon="5.22105">
        <ele>350.3</ele>
        <time>2022-04-28T14:18:51Z</time>
      </trkpt>
      <trkpt lat="45.17339" lon="5.22113">
        <ele>350.3</ele>
        <time>2022-04-28T14:18:52Z</time>
      </trkpt>
      <trkpt lat="45.17339" lon="5.22121">
        <ele>350.3</ele>
        <time>2022-04-28T14:18:53Z</time>
      </trkpt>
      <trkpt lat="45.17339" lon="5.2213">
        <ele>350.3</ele>
        <time>2022-04-28T14:18:54Z</time>
      </trkpt>
      <trkpt lat="45.1734" lon="5.22137">
        <ele>350.3</ele>
        <time>2022-04-28T14:18:55Z</time>
      </trkpt>
      <trkpt lat="45.1734" lon="5.22145">
        <ele>350.3</ele>
        <time>2022-04-28T14:18:56Z</time>
      </trkpt>
      <trkpt lat="45.1734" lon="5.22152">
        <ele>350.3</ele>
        <time>2022-04-28T14:18:57Z</time>
      </trkpt>
      <trkpt lat="45.17341" lon="5.22161">
        <ele>350.3</ele>
        <time>2022-04-28T14:18:58Z</time>
      </trkpt>
      <trkpt lat="45.17341" lon="5.22169">
        <ele>350.4</ele>
        <time>2022-04-28T14:18:59Z</time>
      </trkpt>
      <trkpt lat="45.1734" lon="5.22178">
        <ele>350.4</ele>
        <time>2022-04-28T14:19:00Z</time>
      </trkpt>
      <trkpt lat="45.1734" lon="5.22186">
        <ele>350.4</ele>
        <time>2022-04-28T14:19:01Z</time>
      </trkpt>
      <trkpt lat="45.1734" lon="5.22194">
        <ele>350.4</ele>
        <time>2022-04-28T14:19:02Z</time>
      </trkpt>
      <trkpt lat="45.1734" lon="5.22202">
        <ele>350.4</ele>
        <time>2022-04-28T14:19:03Z</time>
      </trkpt>
      <trkpt lat="45.17341" lon="5.2221">
        <ele>350.4</ele>
        <time>2022-04-28T14:19:04Z</time>
      </trkpt>
      <trkpt lat="45.17341" lon="5.22219">
        <ele>350.4</ele>
        <time>2022-04-28T14:19:05Z</time>
      </trkpt>
      <trkpt lat="45.17341" lon="5.22226">
        <ele>350.5</ele>
        <time>2022-04-28T14:19:06Z</time>
      </trkpt>
      <trkpt lat="45.17342" lon="5.22234">
        <ele>350.5</ele>
        <time>2022-04-28T14:19:07Z</time>
      </trkpt>
      <trkpt lat="45.17341" lon="5.22241">
        <ele>350.5</ele>
        <time>2022-04-28T14:19:08Z</time>
      </trkpt>
      <trkpt lat="45.17341" lon="5.22249">
        <ele>350.5</ele>
        <time>2022-04-28T14:19:09Z</time>
      </trkpt>
      <trkpt lat="45.17339" lon="5.22256">
        <ele>350.5</ele>
        <time>2022-04-28T14:19:10Z</time>
      </trkpt>
      <trkpt lat="45.17337" lon="5.22263">
        <ele>350.5</ele>
        <time>2022-04-28T14:19:11Z</time>
      </trkpt>
      <trkpt lat="45.17334" lon="5.2227">
        <ele>350.5</ele>
        <time>2022-04-28T14:19:12Z</time>
      </trkpt>
      <trkpt lat="45.17332" lon="5.22276">
        <ele>350.5</ele>
        <time>2022-04-28T14:19:13Z</time>
      </trkpt>
      <trkpt lat="45.17329" lon="5.22283">
        <ele>350.5</ele>
        <time>2022-04-28T14:19:14Z</time>
      </trkpt>
      <trkpt lat="45.17325" lon="5.22289">
        <ele>350.6</ele>
        <time>2022-04-28T14:19:15Z</time>
      </trkpt>
      <trkpt lat="45.17322" lon="5.22295">
        <ele>350.6</ele>
        <time>2022-04-28T14:19:16Z</time>
      </trkpt>
      <trkpt lat="45.17318" lon="5.22302">
        <ele>350.6</ele>
        <time>2022-04-28T14:19:17Z</time>
      </trkpt>
      <trkpt lat="45.17315" lon="5.22308">
        <ele>350.6</ele>
        <time>2022-04-28T14:19:18Z</time>
      </trkpt>
      <trkpt lat="45.17311" lon="5.22313">
        <ele>350.6</ele>
        <time>2022-04-28T14:19:19Z</time>
      </trkpt>
      <trkpt lat="45.17306" lon="5.22319">
        <ele>350.6</ele>
        <time>2022-04-28T14:19:20Z</time>
      </trkpt>
      <trkpt lat="45.17302" lon="5.22324">
        <ele>350.6</ele>
        <time>2022-04-28T14:19:21Z</time>
      </trkpt>
      <trkpt lat="45.17298" lon="5.22329">
        <ele>350.6</ele>
        <time>2022-04-28T14:19:22Z</time>
      </trkpt>
      <trkpt lat="45.17294" lon="5.22334">
        <ele>350.6</ele>
        <time>2022-04-28T14:19:23Z</time>
      </trkpt>
      <trkpt lat="45.17289" lon="5.22338">
        <ele>350.6</ele>
        <time>2022-04-28T14:19:24Z</time>
      </trkpt>
      <trkpt lat="45.17285" lon="5.22344">
        <ele>350.6</ele>
        <time>2022-04-28T14:19:25Z</time>
      </trkpt>
      <trkpt lat="45.17281" lon="5.22349">
        <ele>350.6</ele>
        <time>2022-04-28T14:19:26Z</time>
      </trkpt>
      <trkpt lat="45.17277" lon="5.22355">
        <ele>350.6</ele>
        <time>2022-04-28T14:19:27Z</time>
      </trkpt>
      <trkpt lat="45.17273" lon="5.2236">
        <ele>350.6</ele>
        <time>2022-04-28T14:19:28Z</time>
      </trkpt>
      <trkpt lat="45.1727" lon="5.22364">
        <ele>350.7</ele>
        <time>2022-04-28T14:19:29Z</time>
      </trkpt>
      <trkpt lat="45.17266" lon="5.22369">
        <ele>350.7</ele>
        <time>2022-04-28T14:19:30Z</time>
      </trkpt>
      <trkpt lat="45.17262" lon="5.22375">
        <ele>350.7</ele>
        <time>2022-04-28T14:19:31Z</time>
      </trkpt>
      <trkpt lat="45.17258" lon="5.2238">
        <ele>350.7</ele>
        <time>2022-04-28T14:19:32Z</time>
      </trkpt>
      <trkpt lat="45.17254" lon="5.22386">
        <ele>350.8</ele>
        <time>2022-04-28T14:19:33Z</time>
      </trkpt>
      <trkpt lat="45.1725" lon="5.22391">
        <ele>350.8</ele>
        <time>2022-04-28T14:19:34Z</time>
      </trkpt>
      <trkpt lat="45.17246" lon="5.22397">
        <ele>350.8</ele>
        <time>2022-04-28T14:19:35Z</time>
      </trkpt>
      <trkpt lat="45.17242" lon="5.22401">
        <ele>350.9</ele>
        <time>2022-04-28T14:19:36Z</time>
      </trkpt>
      <trkpt lat="45.17238" lon="5.22406">
        <ele>350.9</ele>
        <time>2022-04-28T14:19:37Z</time>
      </trkpt>
      <trkpt lat="45.17235" lon="5.22411">
        <ele>351</ele>
        <time>2022-04-28T14:19:38Z</time>
      </trkpt>
      <trkpt lat="45.17231" lon="5.22417">
        <ele>351.1</ele>
        <time>2022-04-28T14:19:39Z</time>
      </trkpt>
      <trkpt lat="45.17227" lon="5.22422">
        <ele>351.1</ele>
        <time>2022-04-28T14:19:40Z</time>
      </trkpt>
      <trkpt lat="45.17224" lon="5.22428">
        <ele>351.1</ele>
        <time>2022-04-28T14:19:41Z</time>
      </trkpt>
      <trkpt lat="45.1722" lon="5.22433">
        <ele>351.2</ele>
        <time>2022-04-28T14:19:42Z</time>
      </trkpt>
      <trkpt lat="45.17216" lon="5.22438">
        <ele>351.2</ele>
        <time>2022-04-28T14:19:43Z</time>
      </trkpt>
      <trkpt lat="45.17211" lon="5.22443">
        <ele>351.3</ele>
        <time>2022-04-28T14:19:44Z</time>
      </trkpt>
      <trkpt lat="45.17208" lon="5.22448">
        <ele>351.3</ele>
        <time>2022-04-28T14:19:45Z</time>
      </trkpt>
      <trkpt lat="45.17204" lon="5.22453">
        <ele>351.4</ele>
        <time>2022-04-28T14:19:46Z</time>
      </trkpt>
      <trkpt lat="45.172" lon="5.22458">
        <ele>351.5</ele>
        <time>2022-04-28T14:19:47Z</time>
      </trkpt>
      <trkpt lat="45.17196" lon="5.22463">
        <ele>351.5</ele>
        <time>2022-04-28T14:19:48Z</time>
      </trkpt>
      <trkpt lat="45.17192" lon="5.22468">
        <ele>351.6</ele>
        <time>2022-04-28T14:19:49Z</time>
      </trkpt>
      <trkpt lat="45.17189" lon="5.22473">
        <ele>351.7</ele>
        <time>2022-04-28T14:19:50Z</time>
      </trkpt>
      <trkpt lat="45.17186" lon="5.22478">
        <ele>351.8</ele>
        <time>2022-04-28T14:19:51Z</time>
      </trkpt>
      <trkpt lat="45.17183" lon="5.22483">
        <ele>352</ele>
        <time>2022-04-28T14:19:52Z</time>
      </trkpt>
      <trkpt lat="45.1718" lon="5.22488">
        <ele>352.1</ele>
        <time>2022-04-28T14:19:53Z</time>
      </trkpt>
      <trkpt lat="45.17178" lon="5.22493">
        <ele>352.3</ele>
        <time>2022-04-28T14:19:54Z</time>
      </trkpt>
      <trkpt lat="45.17176" lon="5.22498">
        <ele>352.4</ele>
        <time>2022-04-28T14:19:55Z</time>
      </trkpt>
      <trkpt lat="45.17174" lon="5.22502">
        <ele>352.6</ele>
        <time>2022-04-28T14:19:56Z</time>
      </trkpt>
      <trkpt lat="45.17172" lon="5.22508">
        <ele>352.8</ele>
        <time>2022-04-28T14:19:57Z</time>
      </trkpt>
      <trkpt lat="45.17171" lon="5.22513">
        <ele>352.9</ele>
        <time>2022-04-28T14:19:58Z</time>
      </trkpt>
      <trkpt lat="45.17169" lon="5.22519">
        <ele>353.1</ele>
        <time>2022-04-28T14:19:59Z</time>
      </trkpt>
      <trkpt lat="45.17168" lon="5.22523">
        <ele>353.2</ele>
        <time>2022-04-28T14:20:00Z</time>
      </trkpt>
      <trkpt lat="45.17167" lon="5.22528">
        <ele>353.4</ele>
        <time>2022-04-28T14:20:01Z</time>
      </trkpt>
      <trkpt lat="45.17164" lon="5.2253">
        <ele>353.5</ele>
        <time>2022-04-28T14:20:03Z</time>
      </trkpt>
      <trkpt lat="45.17164" lon="5.22536">
        <ele>353.8</ele>
        <time>2022-04-28T14:20:04Z</time>
      </trkpt>
      <trkpt lat="45.17165" lon="5.22545">
        <ele>354</ele>
        <time>2022-04-28T14:20:05Z</time>
      </trkpt>
      <trkpt lat="45.17166" lon="5.22551">
        <ele>354.2</ele>
        <time>2022-04-28T14:20:06Z</time>
      </trkpt>
      <trkpt lat="45.17167" lon="5.22556">
        <ele>354.4</ele>
        <time>2022-04-28T14:20:07Z</time>
      </trkpt>
      <trkpt lat="45.17168" lon="5.22563">
        <ele>354.6</ele>
        <time>2022-04-28T14:20:09Z</time>
      </trkpt>
      <trkpt lat="45.17168" lon="5.22569">
        <ele>354.8</ele>
        <time>2022-04-28T14:20:10Z</time>
      </trkpt>
      <trkpt lat="45.17168" lon="5.22577">
        <ele>355.1</ele>
        <time>2022-04-28T14:20:11Z</time>
      </trkpt>
      <trkpt lat="45.17168" lon="5.22583">
        <ele>355.3</ele>
        <time>2022-04-28T14:20:12Z</time>
      </trkpt>
      <trkpt lat="45.17167" lon="5.22588">
        <ele>355.4</ele>
        <time>2022-04-28T14:20:13Z</time>
      </trkpt>
      <trkpt lat="45.17168" lon="5.22593">
        <ele>355.6</ele>
        <time>2022-04-28T14:20:14Z</time>
      </trkpt>
      <trkpt lat="45.17168" lon="5.22598">
        <ele>355.7</ele>
        <time>2022-04-28T14:20:15Z</time>
      </trkpt>
      <trkpt lat="45.17167" lon="5.22604">
        <ele>355.9</ele>
        <time>2022-04-28T14:20:16Z</time>
      </trkpt>
      <trkpt lat="45.17166" lon="5.22609">
        <ele>356.1</ele>
        <time>2022-04-28T14:20:17Z</time>
      </trkpt>
      <trkpt lat="45.17164" lon="5.22618">
        <ele>356.4</ele>
        <time>2022-04-28T14:20:19Z</time>
      </trkpt>
      <trkpt lat="45.17162" lon="5.22626">
        <ele>356.7</ele>
        <time>2022-04-28T14:20:21Z</time>
      </trkpt>
      <trkpt lat="45.1716" lon="5.22633">
        <ele>356.9</ele>
        <time>2022-04-28T14:20:22Z</time>
      </trkpt>
      <trkpt lat="45.17158" lon="5.22636">
        <ele>357.1</ele>
        <time>2022-04-28T14:20:23Z</time>
      </trkpt>
      <trkpt lat="45.17155" lon="5.22642">
        <ele>357.3</ele>
        <time>2022-04-28T14:20:25Z</time>
      </trkpt>
      <trkpt lat="45.17154" lon="5.22648">
        <ele>357.5</ele>
        <time>2022-04-28T14:20:26Z</time>
      </trkpt>
      <trkpt lat="45.17151" lon="5.22653">
        <ele>357.8</ele>
        <time>2022-04-28T14:20:27Z</time>
      </trkpt>
      <trkpt lat="45.1715" lon="5.22657">
        <ele>357.9</ele>
        <time>2022-04-28T14:20:28Z</time>
      </trkpt>
      <trkpt lat="45.17148" lon="5.22661">
        <ele>358.1</ele>
        <time>2022-04-28T14:20:29Z</time>
      </trkpt>
      <trkpt lat="45.17146" lon="5.22665">
        <ele>358.3</ele>
        <time>2022-04-28T14:20:30Z</time>
      </trkpt>
      <trkpt lat="45.17144" lon="5.22671">
        <ele>358.5</ele>
        <time>2022-04-28T14:20:32Z</time>
      </trkpt>
      <trkpt lat="45.17141" lon="5.22675">
        <ele>358.7</ele>
        <time>2022-04-28T14:20:33Z</time>
      </trkpt>
      <trkpt lat="45.17139" lon="5.22681">
        <ele>358.9</ele>
        <time>2022-04-28T14:20:34Z</time>
      </trkpt>
      <trkpt lat="45.17137" lon="5.22685">
        <ele>359</ele>
        <time>2022-04-28T14:20:35Z</time>
      </trkpt>
      <trkpt lat="45.17135" lon="5.22689">
        <ele>359.2</ele>
        <time>2022-04-28T14:20:36Z</time>
      </trkpt>
      <trkpt lat="45.17133" lon="5.22693">
        <ele>359.4</ele>
        <time>2022-04-28T14:20:37Z</time>
      </trkpt>
      <trkpt lat="45.17131" lon="5.22697">
        <ele>359.5</ele>
        <time>2022-04-28T14:20:38Z</time>
      </trkpt>
      <trkpt lat="45.17128" lon="5.22703">
        <ele>359.8</ele>
        <time>2022-04-28T14:20:40Z</time>
      </trkpt>
      <trkpt lat="45.17125" lon="5.22709">
        <ele>360.1</ele>
        <time>2022-04-28T14:20:41Z</time>
      </trkpt>
      <trkpt lat="45.17123" lon="5.22714">
        <ele>360.3</ele>
        <time>2022-04-28T14:20:42Z</time>
      </trkpt>
      <trkpt lat="45.1712" lon="5.22718">
        <ele>360.5</ele>
        <time>2022-04-28T14:20:43Z</time>
      </trkpt>
      <trkpt lat="45.17118" lon="5.22722">
        <ele>360.7</ele>
        <time>2022-04-28T14:20:44Z</time>
      </trkpt>
      <trkpt lat="45.17117" lon="5.22726">
        <ele>360.8</ele>
        <time>2022-04-28T14:20:45Z</time>
      </trkpt>
      <trkpt lat="45.17115" lon="5.2273">
        <ele>361</ele>
        <time>2022-04-28T14:20:46Z</time>
      </trkpt>
      <trkpt lat="45.17113" lon="5.22735">
        <ele>361.2</ele>
        <time>2022-04-28T14:20:47Z</time>
      </trkpt>
      <trkpt lat="45.17111" lon="5.22739">
        <ele>361.5</ele>
        <time>2022-04-28T14:20:48Z</time>
      </trkpt>
      <trkpt lat="45.17108" lon="5.22744">
        <ele>361.7</ele>
        <time>2022-04-28T14:20:49Z</time>
      </trkpt>
      <trkpt lat="45.17106" lon="5.22748">
        <ele>361.9</ele>
        <time>2022-04-28T14:20:50Z</time>
      </trkpt>
      <trkpt lat="45.17105" lon="5.22751">
        <ele>362.1</ele>
        <time>2022-04-28T14:20:52Z</time>
      </trkpt>
      <trkpt lat="45.17103" lon="5.22756">
        <ele>362.4</ele>
        <time>2022-04-28T14:20:53Z</time>
      </trkpt>
      <trkpt lat="45.17102" lon="5.22761">
        <ele>362.6</ele>
        <time>2022-04-28T14:20:54Z</time>
      </trkpt>
      <trkpt lat="45.17101" lon="5.22763">
        <ele>362.7</ele>
        <time>2022-04-28T14:20:55Z</time>
      </trkpt>
      <trkpt lat="45.17099" lon="5.22766">
        <ele>362.9</ele>
        <time>2022-04-28T14:20:56Z</time>
      </trkpt>
      <trkpt lat="45.17098" lon="5.2277">
        <ele>363.1</ele>
        <time>2022-04-28T14:20:57Z</time>
      </trkpt>
      <trkpt lat="45.17096" lon="5.22773">
        <ele>363.3</ele>
        <time>2022-04-28T14:20:58Z</time>
      </trkpt>
      <trkpt lat="45.17095" lon="5.22777">
        <ele>363.5</ele>
        <time>2022-04-28T14:20:59Z</time>
      </trkpt>
      <trkpt lat="45.17094" lon="5.22782">
        <ele>363.8</ele>
        <time>2022-04-28T14:21:00Z</time>
      </trkpt>
      <trkpt lat="45.17093" lon="5.22784">
        <ele>363.9</ele>
        <time>2022-04-28T14:21:01Z</time>
      </trkpt>
      <trkpt lat="45.17092" lon="5.22789">
        <ele>364.1</ele>
        <time>2022-04-28T14:21:03Z</time>
      </trkpt>
      <trkpt lat="45.17091" lon="5.22793">
        <ele>364.3</ele>
        <time>2022-04-28T14:21:04Z</time>
      </trkpt>
      <trkpt lat="45.1709" lon="5.22798">
        <ele>364.6</ele>
        <time>2022-04-28T14:21:05Z</time>
      </trkpt>
      <trkpt lat="45.1709" lon="5.22803">
        <ele>364.8</ele>
        <time>2022-04-28T14:21:06Z</time>
      </trkpt>
      <trkpt lat="45.17087" lon="5.22809">
        <ele>365.1</ele>
        <time>2022-04-28T14:21:08Z</time>
      </trkpt>
      <trkpt lat="45.17086" lon="5.22813">
        <ele>365.3</ele>
        <time>2022-04-28T14:21:09Z</time>
      </trkpt>
      <trkpt lat="45.17085" lon="5.22817">
        <ele>365.5</ele>
        <time>2022-04-28T14:21:10Z</time>
      </trkpt>
      <trkpt lat="45.17084" lon="5.22822">
        <ele>365.7</ele>
        <time>2022-04-28T14:21:11Z</time>
      </trkpt>
      <trkpt lat="45.17083" lon="5.22826">
        <ele>365.8</ele>
        <time>2022-04-28T14:21:12Z</time>
      </trkpt>
      <trkpt lat="45.17081" lon="5.22831">
        <ele>366.1</ele>
        <time>2022-04-28T14:21:13Z</time>
      </trkpt>
      <trkpt lat="45.1708" lon="5.22833">
        <ele>366.1</ele>
        <time>2022-04-28T14:21:14Z</time>
      </trkpt>
      <trkpt lat="45.17078" lon="5.22837">
        <ele>366.3</ele>
        <time>2022-04-28T14:21:15Z</time>
      </trkpt>
      <trkpt lat="45.17076" lon="5.22843">
        <ele>366.6</ele>
        <time>2022-04-28T14:21:17Z</time>
      </trkpt>
      <trkpt lat="45.17075" lon="5.22849">
        <ele>366.8</ele>
        <time>2022-04-28T14:21:18Z</time>
      </trkpt>
      <trkpt lat="45.17072" lon="5.22853">
        <ele>367</ele>
        <time>2022-04-28T14:21:19Z</time>
      </trkpt>
      <trkpt lat="45.1707" lon="5.22856">
        <ele>367.2</ele>
        <time>2022-04-28T14:21:20Z</time>
      </trkpt>
      <trkpt lat="45.17068" lon="5.22859">
        <ele>367.4</ele>
        <time>2022-04-28T14:21:21Z</time>
      </trkpt>
      <trkpt lat="45.17066" lon="5.22863">
        <ele>367.5</ele>
        <time>2022-04-28T14:21:22Z</time>
      </trkpt>
      <trkpt lat="45.17064" lon="5.22866">
        <ele>367.7</ele>
        <time>2022-04-28T14:21:23Z</time>
      </trkpt>
      <trkpt lat="45.1706" lon="5.2287">
        <ele>367.9</ele>
        <time>2022-04-28T14:21:25Z</time>
      </trkpt>
      <trkpt lat="45.17057" lon="5.22874">
        <ele>368.1</ele>
        <time>2022-04-28T14:21:26Z</time>
      </trkpt>
      <trkpt lat="45.17054" lon="5.22877">
        <ele>368.3</ele>
        <time>2022-04-28T14:21:27Z</time>
      </trkpt>
      <trkpt lat="45.17051" lon="5.2288">
        <ele>368.5</ele>
        <time>2022-04-28T14:21:28Z</time>
      </trkpt>
      <trkpt lat="45.17049" lon="5.22882">
        <ele>368.7</ele>
        <time>2022-04-28T14:21:29Z</time>
      </trkpt>
      <trkpt lat="45.17047" lon="5.22884">
        <ele>368.8</ele>
        <time>2022-04-28T14:21:30Z</time>
      </trkpt>
      <trkpt lat="45.17044" lon="5.22887">
        <ele>369</ele>
        <time>2022-04-28T14:21:31Z</time>
      </trkpt>
      <trkpt lat="45.17042" lon="5.22889">
        <ele>369.1</ele>
        <time>2022-04-28T14:21:32Z</time>
      </trkpt>
      <trkpt lat="45.17039" lon="5.22892">
        <ele>369.3</ele>
        <time>2022-04-28T14:21:33Z</time>
      </trkpt>
      <trkpt lat="45.17036" lon="5.22896">
        <ele>369.5</ele>
        <time>2022-04-28T14:21:35Z</time>
      </trkpt>
      <trkpt lat="45.17033" lon="5.22899">
        <ele>369.7</ele>
        <time>2022-04-28T14:21:36Z</time>
      </trkpt>
      <trkpt lat="45.1703" lon="5.22902">
        <ele>369.8</ele>
        <time>2022-04-28T14:21:37Z</time>
      </trkpt>
      <trkpt lat="45.17026" lon="5.22906">
        <ele>370.1</ele>
        <time>2022-04-28T14:21:39Z</time>
      </trkpt>
      <trkpt lat="45.17023" lon="5.22909">
        <ele>370.2</ele>
        <time>2022-04-28T14:21:40Z</time>
      </trkpt>
      <trkpt lat="45.1702" lon="5.22913">
        <ele>370.4</ele>
        <time>2022-04-28T14:21:41Z</time>
      </trkpt>
      <trkpt lat="45.17018" lon="5.22915">
        <ele>370.6</ele>
        <time>2022-04-28T14:21:42Z</time>
      </trkpt>
      <trkpt lat="45.17015" lon="5.22918">
        <ele>370.7</ele>
        <time>2022-04-28T14:21:43Z</time>
      </trkpt>
      <trkpt lat="45.17013" lon="5.22921">
        <ele>370.9</ele>
        <time>2022-04-28T14:21:44Z</time>
      </trkpt>
      <trkpt lat="45.1701" lon="5.22924">
        <ele>371</ele>
        <time>2022-04-28T14:21:45Z</time>
      </trkpt>
      <trkpt lat="45.17007" lon="5.22927">
        <ele>371.2</ele>
        <time>2022-04-28T14:21:46Z</time>
      </trkpt>
      <trkpt lat="45.17005" lon="5.22929">
        <ele>371.3</ele>
        <time>2022-04-28T14:21:47Z</time>
      </trkpt>
      <trkpt lat="45.17003" lon="5.22932">
        <ele>371.4</ele>
        <time>2022-04-28T14:21:48Z</time>
      </trkpt>
      <trkpt lat="45.17" lon="5.22936">
        <ele>371.6</ele>
        <time>2022-04-28T14:21:50Z</time>
      </trkpt>
      <trkpt lat="45.16997" lon="5.22939">
        <ele>371.7</ele>
        <time>2022-04-28T14:21:51Z</time>
      </trkpt>
      <trkpt lat="45.16993" lon="5.22944">
        <ele>371.9</ele>
        <time>2022-04-28T14:21:52Z</time>
      </trkpt>
      <trkpt lat="45.16989" lon="5.22947">
        <ele>372</ele>
        <time>2022-04-28T14:21:54Z</time>
      </trkpt>
      <trkpt lat="45.16986" lon="5.2295">
        <ele>372.1</ele>
        <time>2022-04-28T14:21:55Z</time>
      </trkpt>
      <trkpt lat="45.16983" lon="5.22954">
        <ele>372.2</ele>
        <time>2022-04-28T14:21:56Z</time>
      </trkpt>
      <trkpt lat="45.1698" lon="5.22957">
        <ele>372.3</ele>
        <time>2022-04-28T14:21:57Z</time>
      </trkpt>
      <trkpt lat="45.16977" lon="5.2296">
        <ele>372.4</ele>
        <time>2022-04-28T14:21:58Z</time>
      </trkpt>
      <trkpt lat="45.16972" lon="5.22966">
        <ele>372.6</ele>
        <time>2022-04-28T14:22:00Z</time>
      </trkpt>
      <trkpt lat="45.16969" lon="5.2297">
        <ele>372.6</ele>
        <time>2022-04-28T14:22:01Z</time>
      </trkpt>
      <trkpt lat="45.16966" lon="5.22974">
        <ele>372.7</ele>
        <time>2022-04-28T14:22:02Z</time>
      </trkpt>
      <trkpt lat="45.16963" lon="5.22977">
        <ele>372.8</ele>
        <time>2022-04-28T14:22:03Z</time>
      </trkpt>
      <trkpt lat="45.1696" lon="5.22981">
        <ele>372.9</ele>
        <time>2022-04-28T14:22:04Z</time>
      </trkpt>
      <trkpt lat="45.16957" lon="5.22985">
        <ele>372.9</ele>
        <time>2022-04-28T14:22:05Z</time>
      </trkpt>
      <trkpt lat="45.16953" lon="5.22989">
        <ele>373</ele>
        <time>2022-04-28T14:22:06Z</time>
      </trkpt>
      <trkpt lat="45.16951" lon="5.22992">
        <ele>373</ele>
        <time>2022-04-28T14:22:07Z</time>
      </trkpt>
      <trkpt lat="45.16947" lon="5.22996">
        <ele>373</ele>
        <time>2022-04-28T14:22:09Z</time>
      </trkpt>
      <trkpt lat="45.16944" lon="5.22999">
        <ele>373.1</ele>
        <time>2022-04-28T14:22:10Z</time>
      </trkpt>
      <trkpt lat="45.16941" lon="5.23003">
        <ele>373.1</ele>
        <time>2022-04-28T14:22:11Z</time>
      </trkpt>
      <trkpt lat="45.16938" lon="5.23006">
        <ele>373.2</ele>
        <time>2022-04-28T14:22:12Z</time>
      </trkpt>
      <trkpt lat="45.16934" lon="5.23011">
        <ele>373.2</ele>
        <time>2022-04-28T14:22:13Z</time>
      </trkpt>
      <trkpt lat="45.16931" lon="5.23014">
        <ele>373.3</ele>
        <time>2022-04-28T14:22:14Z</time>
      </trkpt>
      <trkpt lat="45.16927" lon="5.23019">
        <ele>373.3</ele>
        <time>2022-04-28T14:22:16Z</time>
      </trkpt>
      <trkpt lat="45.16922" lon="5.23025">
        <ele>373.4</ele>
        <time>2022-04-28T14:22:17Z</time>
      </trkpt>
      <trkpt lat="45.16919" lon="5.23029">
        <ele>373.4</ele>
        <time>2022-04-28T14:22:18Z</time>
      </trkpt>
      <trkpt lat="45.16915" lon="5.23032">
        <ele>373.5</ele>
        <time>2022-04-28T14:22:19Z</time>
      </trkpt>
      <trkpt lat="45.16912" lon="5.23034">
        <ele>373.6</ele>
        <time>2022-04-28T14:22:20Z</time>
      </trkpt>
      <trkpt lat="45.16908" lon="5.23037">
        <ele>373.6</ele>
        <time>2022-04-28T14:22:21Z</time>
      </trkpt>
      <trkpt lat="45.16901" lon="5.23041">
        <ele>373.7</ele>
        <time>2022-04-28T14:22:23Z</time>
      </trkpt>
      <trkpt lat="45.16897" lon="5.23045">
        <ele>373.8</ele>
        <time>2022-04-28T14:22:24Z</time>
      </trkpt>
      <trkpt lat="45.16892" lon="5.23048">
        <ele>373.9</ele>
        <time>2022-04-28T14:22:25Z</time>
      </trkpt>
      <trkpt lat="45.16887" lon="5.23052">
        <ele>374</ele>
        <time>2022-04-28T14:22:26Z</time>
      </trkpt>
      <trkpt lat="45.16883" lon="5.23054">
        <ele>374.1</ele>
        <time>2022-04-28T14:22:27Z</time>
      </trkpt>
      <trkpt lat="45.16879" lon="5.23057">
        <ele>374.2</ele>
        <time>2022-04-28T14:22:28Z</time>
      </trkpt>
      <trkpt lat="45.16874" lon="5.2306">
        <ele>374.2</ele>
        <time>2022-04-28T14:22:29Z</time>
      </trkpt>
      <trkpt lat="45.16871" lon="5.23063">
        <ele>374.3</ele>
        <time>2022-04-28T14:22:30Z</time>
      </trkpt>
      <trkpt lat="45.16867" lon="5.23066">
        <ele>374.4</ele>
        <time>2022-04-28T14:22:31Z</time>
      </trkpt>
      <trkpt lat="45.16863" lon="5.23068">
        <ele>374.5</ele>
        <time>2022-04-28T14:22:32Z</time>
      </trkpt>
      <trkpt lat="45.16859" lon="5.23071">
        <ele>374.6</ele>
        <time>2022-04-28T14:22:33Z</time>
      </trkpt>
      <trkpt lat="45.16855" lon="5.23073">
        <ele>374.7</ele>
        <time>2022-04-28T14:22:34Z</time>
      </trkpt>
      <trkpt lat="45.16851" lon="5.23076">
        <ele>374.8</ele>
        <time>2022-04-28T14:22:35Z</time>
      </trkpt>
      <trkpt lat="45.16847" lon="5.23078">
        <ele>374.9</ele>
        <time>2022-04-28T14:22:36Z</time>
      </trkpt>
      <trkpt lat="45.16843" lon="5.23081">
        <ele>375</ele>
        <time>2022-04-28T14:22:37Z</time>
      </trkpt>
      <trkpt lat="45.16839" lon="5.23083">
        <ele>375.1</ele>
        <time>2022-04-28T14:22:38Z</time>
      </trkpt>
      <trkpt lat="45.16835" lon="5.23085">
        <ele>375.1</ele>
        <time>2022-04-28T14:22:39Z</time>
      </trkpt>
      <trkpt lat="45.16831" lon="5.23087">
        <ele>375.2</ele>
        <time>2022-04-28T14:22:40Z</time>
      </trkpt>
      <trkpt lat="45.16827" lon="5.2309">
        <ele>375.3</ele>
        <time>2022-04-28T14:22:41Z</time>
      </trkpt>
      <trkpt lat="45.16823" lon="5.23092">
        <ele>375.3</ele>
        <time>2022-04-28T14:22:42Z</time>
      </trkpt>
      <trkpt lat="45.16818" lon="5.23095">
        <ele>375.4</ele>
        <time>2022-04-28T14:22:43Z</time>
      </trkpt>
      <trkpt lat="45.16815" lon="5.23097">
        <ele>375.5</ele>
        <time>2022-04-28T14:22:44Z</time>
      </trkpt>
      <trkpt lat="45.16811" lon="5.231">
        <ele>375.5</ele>
        <time>2022-04-28T14:22:45Z</time>
      </trkpt>
      <trkpt lat="45.16807" lon="5.23102">
        <ele>375.6</ele>
        <time>2022-04-28T14:22:46Z</time>
      </trkpt>
      <trkpt lat="45.16803" lon="5.23105">
        <ele>375.6</ele>
        <time>2022-04-28T14:22:47Z</time>
      </trkpt>
      <trkpt lat="45.16798" lon="5.23107">
        <ele>375.7</ele>
        <time>2022-04-28T14:22:49Z</time>
      </trkpt>
      <trkpt lat="45.16792" lon="5.23111">
        <ele>375.8</ele>
        <time>2022-04-28T14:22:50Z</time>
      </trkpt>
      <trkpt lat="45.16787" lon="5.23114">
        <ele>375.8</ele>
        <time>2022-04-28T14:22:52Z</time>
      </trkpt>
      <trkpt lat="45.16782" lon="5.23116">
        <ele>375.9</ele>
        <time>2022-04-28T14:22:53Z</time>
      </trkpt>
      <trkpt lat="45.16778" lon="5.23119">
        <ele>375.9</ele>
        <time>2022-04-28T14:22:54Z</time>
      </trkpt>
      <trkpt lat="45.16774" lon="5.23121">
        <ele>375.9</ele>
        <time>2022-04-28T14:22:55Z</time>
      </trkpt>
      <trkpt lat="45.1677" lon="5.23124">
        <ele>376</ele>
        <time>2022-04-28T14:22:56Z</time>
      </trkpt>
      <trkpt lat="45.16764" lon="5.23128">
        <ele>376</ele>
        <time>2022-04-28T14:22:57Z</time>
      </trkpt>
      <trkpt lat="45.16759" lon="5.23131">
        <ele>376</ele>
        <time>2022-04-28T14:22:58Z</time>
      </trkpt>
      <trkpt lat="45.16754" lon="5.23134">
        <ele>376</ele>
        <time>2022-04-28T14:22:59Z</time>
      </trkpt>
      <trkpt lat="45.1675" lon="5.23137">
        <ele>376</ele>
        <time>2022-04-28T14:23:00Z</time>
      </trkpt>
      <trkpt lat="45.16746" lon="5.23139">
        <ele>375.9</ele>
        <time>2022-04-28T14:23:01Z</time>
      </trkpt>
      <trkpt lat="45.16741" lon="5.23141">
        <ele>375.9</ele>
        <time>2022-04-28T14:23:02Z</time>
      </trkpt>
      <trkpt lat="45.16736" lon="5.23144">
        <ele>375.8</ele>
        <time>2022-04-28T14:23:03Z</time>
      </trkpt>
      <trkpt lat="45.16731" lon="5.23146">
        <ele>375.7</ele>
        <time>2022-04-28T14:23:04Z</time>
      </trkpt>
      <trkpt lat="45.16727" lon="5.2315">
        <ele>375.6</ele>
        <time>2022-04-28T14:23:05Z</time>
      </trkpt>
      <trkpt lat="45.16722" lon="5.23153">
        <ele>375.5</ele>
        <time>2022-04-28T14:23:06Z</time>
      </trkpt>
      <trkpt lat="45.16717" lon="5.23156">
        <ele>375.4</ele>
        <time>2022-04-28T14:23:07Z</time>
      </trkpt>
      <trkpt lat="45.16711" lon="5.23159">
        <ele>375.3</ele>
        <time>2022-04-28T14:23:08Z</time>
      </trkpt>
      <trkpt lat="45.16706" lon="5.23162">
        <ele>375.1</ele>
        <time>2022-04-28T14:23:09Z</time>
      </trkpt>
      <trkpt lat="45.167" lon="5.23165">
        <ele>375</ele>
        <time>2022-04-28T14:23:10Z</time>
      </trkpt>
      <trkpt lat="45.16695" lon="5.23169">
        <ele>374.8</ele>
        <time>2022-04-28T14:23:11Z</time>
      </trkpt>
      <trkpt lat="45.16689" lon="5.23173">
        <ele>374.7</ele>
        <time>2022-04-28T14:23:12Z</time>
      </trkpt>
      <trkpt lat="45.16683" lon="5.23177">
        <ele>374.5</ele>
        <time>2022-04-28T14:23:13Z</time>
      </trkpt>
      <trkpt lat="45.16677" lon="5.2318">
        <ele>374.3</ele>
        <time>2022-04-28T14:23:14Z</time>
      </trkpt>
      <trkpt lat="45.16671" lon="5.23184">
        <ele>374.2</ele>
        <time>2022-04-28T14:23:15Z</time>
      </trkpt>
      <trkpt lat="45.16665" lon="5.23188">
        <ele>374</ele>
        <time>2022-04-28T14:23:16Z</time>
      </trkpt>
      <trkpt lat="45.16659" lon="5.23191">
        <ele>373.8</ele>
        <time>2022-04-28T14:23:17Z</time>
      </trkpt>
      <trkpt lat="45.16653" lon="5.23195">
        <ele>373.6</ele>
        <time>2022-04-28T14:23:18Z</time>
      </trkpt>
      <trkpt lat="45.16648" lon="5.23198">
        <ele>373.5</ele>
        <time>2022-04-28T14:23:19Z</time>
      </trkpt>
      <trkpt lat="45.16642" lon="5.23201">
        <ele>373.3</ele>
        <time>2022-04-28T14:23:20Z</time>
      </trkpt>
      <trkpt lat="45.16636" lon="5.23205">
        <ele>373.1</ele>
        <time>2022-04-28T14:23:21Z</time>
      </trkpt>
      <trkpt lat="45.1663" lon="5.23208">
        <ele>372.9</ele>
        <time>2022-04-28T14:23:22Z</time>
      </trkpt>
      <trkpt lat="45.16623" lon="5.23211">
        <ele>372.7</ele>
        <time>2022-04-28T14:23:23Z</time>
      </trkpt>
      <trkpt lat="45.16617" lon="5.23214">
        <ele>372.6</ele>
        <time>2022-04-28T14:23:24Z</time>
      </trkpt>
      <trkpt lat="45.16611" lon="5.23218">
        <ele>372.4</ele>
        <time>2022-04-28T14:23:25Z</time>
      </trkpt>
      <trkpt lat="45.16605" lon="5.23222">
        <ele>372.2</ele>
        <time>2022-04-28T14:23:26Z</time>
      </trkpt>
      <trkpt lat="45.166" lon="5.23226">
        <ele>372</ele>
        <time>2022-04-28T14:23:27Z</time>
      </trkpt>
      <trkpt lat="45.16594" lon="5.23231">
        <ele>371.8</ele>
        <time>2022-04-28T14:23:28Z</time>
      </trkpt>
      <trkpt lat="45.16587" lon="5.23234">
        <ele>371.6</ele>
        <time>2022-04-28T14:23:29Z</time>
      </trkpt>
      <trkpt lat="45.16581" lon="5.23238">
        <ele>371.4</ele>
        <time>2022-04-28T14:23:30Z</time>
      </trkpt>
      <trkpt lat="45.16575" lon="5.23242">
        <ele>371.2</ele>
        <time>2022-04-28T14:23:31Z</time>
      </trkpt>
      <trkpt lat="45.16569" lon="5.23246">
        <ele>371</ele>
        <time>2022-04-28T14:23:32Z</time>
      </trkpt>
      <trkpt lat="45.16563" lon="5.2325">
        <ele>370.7</ele>
        <time>2022-04-28T14:23:33Z</time>
      </trkpt>
      <trkpt lat="45.16556" lon="5.23254">
        <ele>370.4</ele>
        <time>2022-04-28T14:23:34Z</time>
      </trkpt>
      <trkpt lat="45.1655" lon="5.23259">
        <ele>370.1</ele>
        <time>2022-04-28T14:23:35Z</time>
      </trkpt>
      <trkpt lat="45.16544" lon="5.23265">
        <ele>369.7</ele>
        <time>2022-04-28T14:23:36Z</time>
      </trkpt>
      <trkpt lat="45.16538" lon="5.23271">
        <ele>369.3</ele>
        <time>2022-04-28T14:23:37Z</time>
      </trkpt>
      <trkpt lat="45.16532" lon="5.23277">
        <ele>368.8</ele>
        <time>2022-04-28T14:23:38Z</time>
      </trkpt>
      <trkpt lat="45.16526" lon="5.23285">
        <ele>368.4</ele>
        <time>2022-04-28T14:23:39Z</time>
      </trkpt>
      <trkpt lat="45.1652" lon="5.23292">
        <ele>368</ele>
        <time>2022-04-28T14:23:40Z</time>
      </trkpt>
      <trkpt lat="45.16513" lon="5.23298">
        <ele>367.6</ele>
        <time>2022-04-28T14:23:41Z</time>
      </trkpt>
      <trkpt lat="45.16506" lon="5.23305">
        <ele>367.2</ele>
        <time>2022-04-28T14:23:42Z</time>
      </trkpt>
      <trkpt lat="45.16499" lon="5.23312">
        <ele>366.7</ele>
        <time>2022-04-28T14:23:43Z</time>
      </trkpt>
      <trkpt lat="45.16492" lon="5.23319">
        <ele>366.3</ele>
        <time>2022-04-28T14:23:44Z</time>
      </trkpt>
      <trkpt lat="45.16485" lon="5.23327">
        <ele>365.8</ele>
        <time>2022-04-28T14:23:45Z</time>
      </trkpt>
      <trkpt lat="45.16477" lon="5.23334">
        <ele>365.3</ele>
        <time>2022-04-28T14:23:46Z</time>
      </trkpt>
      <trkpt lat="45.1647" lon="5.23341">
        <ele>364.8</ele>
        <time>2022-04-28T14:23:47Z</time>
      </trkpt>
      <trkpt lat="45.16462" lon="5.23347">
        <ele>364.4</ele>
        <time>2022-04-28T14:23:48Z</time>
      </trkpt>
      <trkpt lat="45.16454" lon="5.23355">
        <ele>363.9</ele>
        <time>2022-04-28T14:23:49Z</time>
      </trkpt>
      <trkpt lat="45.16446" lon="5.23362">
        <ele>363.4</ele>
        <time>2022-04-28T14:23:50Z</time>
      </trkpt>
      <trkpt lat="45.16438" lon="5.2337">
        <ele>362.9</ele>
        <time>2022-04-28T14:23:51Z</time>
      </trkpt>
      <trkpt lat="45.16431" lon="5.23378">
        <ele>362.5</ele>
        <time>2022-04-28T14:23:52Z</time>
      </trkpt>
      <trkpt lat="45.16423" lon="5.23386">
        <ele>362.1</ele>
        <time>2022-04-28T14:23:53Z</time>
      </trkpt>
      <trkpt lat="45.16415" lon="5.23394">
        <ele>361.8</ele>
        <time>2022-04-28T14:23:54Z</time>
      </trkpt>
      <trkpt lat="45.16407" lon="5.23401">
        <ele>361.5</ele>
        <time>2022-04-28T14:23:55Z</time>
      </trkpt>
      <trkpt lat="45.16399" lon="5.23408">
        <ele>361.3</ele>
        <time>2022-04-28T14:23:56Z</time>
      </trkpt>
      <trkpt lat="45.16391" lon="5.23415">
        <ele>361.1</ele>
        <time>2022-04-28T14:23:57Z</time>
      </trkpt>
      <trkpt lat="45.16383" lon="5.23424">
        <ele>361</ele>
        <time>2022-04-28T14:23:58Z</time>
      </trkpt>
      <trkpt lat="45.16375" lon="5.23431">
        <ele>360.8</ele>
        <time>2022-04-28T14:23:59Z</time>
      </trkpt>
      <trkpt lat="45.16367" lon="5.23437">
        <ele>360.7</ele>
        <time>2022-04-28T14:24:00Z</time>
      </trkpt>
      <trkpt lat="45.16359" lon="5.23444">
        <ele>360.6</ele>
        <time>2022-04-28T14:24:01Z</time>
      </trkpt>
      <trkpt lat="45.16352" lon="5.23451">
        <ele>360.6</ele>
        <time>2022-04-28T14:24:02Z</time>
      </trkpt>
      <trkpt lat="45.16345" lon="5.23459">
        <ele>360.6</ele>
        <time>2022-04-28T14:24:03Z</time>
      </trkpt>
      <trkpt lat="45.16338" lon="5.23465">
        <ele>360.6</ele>
        <time>2022-04-28T14:24:04Z</time>
      </trkpt>
      <trkpt lat="45.16332" lon="5.23472">
        <ele>360.6</ele>
        <time>2022-04-28T14:24:05Z</time>
      </trkpt>
      <trkpt lat="45.16325" lon="5.23479">
        <ele>360.5</ele>
        <time>2022-04-28T14:24:06Z</time>
      </trkpt>
      <trkpt lat="45.16318" lon="5.23485">
        <ele>360.5</ele>
        <time>2022-04-28T14:24:07Z</time>
      </trkpt>
      <trkpt lat="45.16311" lon="5.23491">
        <ele>360.4</ele>
        <time>2022-04-28T14:24:08Z</time>
      </trkpt>
      <trkpt lat="45.16305" lon="5.23497">
        <ele>360.3</ele>
        <time>2022-04-28T14:24:09Z</time>
      </trkpt>
      <trkpt lat="45.16298" lon="5.23503">
        <ele>360.1</ele>
        <time>2022-04-28T14:24:10Z</time>
      </trkpt>
      <trkpt lat="45.16292" lon="5.23508">
        <ele>359.9</ele>
        <time>2022-04-28T14:24:11Z</time>
      </trkpt>
      <trkpt lat="45.16286" lon="5.23513">
        <ele>359.6</ele>
        <time>2022-04-28T14:24:12Z</time>
      </trkpt>
      <trkpt lat="45.16279" lon="5.23517">
        <ele>359.3</ele>
        <time>2022-04-28T14:24:13Z</time>
      </trkpt>
      <trkpt lat="45.16272" lon="5.23522">
        <ele>359</ele>
        <time>2022-04-28T14:24:14Z</time>
      </trkpt>
      <trkpt lat="45.16266" lon="5.23526">
        <ele>358.6</ele>
        <time>2022-04-28T14:24:15Z</time>
      </trkpt>
      <trkpt lat="45.16259" lon="5.23531">
        <ele>358.2</ele>
        <time>2022-04-28T14:24:16Z</time>
      </trkpt>
      <trkpt lat="45.16252" lon="5.23535">
        <ele>357.9</ele>
        <time>2022-04-28T14:24:17Z</time>
      </trkpt>
      <trkpt lat="45.16246" lon="5.2354">
        <ele>357.5</ele>
        <time>2022-04-28T14:24:18Z</time>
      </trkpt>
      <trkpt lat="45.16239" lon="5.23545">
        <ele>357.1</ele>
        <time>2022-04-28T14:24:19Z</time>
      </trkpt>
      <trkpt lat="45.16232" lon="5.23551">
        <ele>356.8</ele>
        <time>2022-04-28T14:24:20Z</time>
      </trkpt>
      <trkpt lat="45.16226" lon="5.23559">
        <ele>356.4</ele>
        <time>2022-04-28T14:24:21Z</time>
      </trkpt>
      <trkpt lat="45.1622" lon="5.23565">
        <ele>356.1</ele>
        <time>2022-04-28T14:24:22Z</time>
      </trkpt>
      <trkpt lat="45.16213" lon="5.23572">
        <ele>355.7</ele>
        <time>2022-04-28T14:24:23Z</time>
      </trkpt>
      <trkpt lat="45.16207" lon="5.23579">
        <ele>355.3</ele>
        <time>2022-04-28T14:24:24Z</time>
      </trkpt>
      <trkpt lat="45.162" lon="5.23586">
        <ele>355</ele>
        <time>2022-04-28T14:24:25Z</time>
      </trkpt>
      <trkpt lat="45.16194" lon="5.23594">
        <ele>354.6</ele>
        <time>2022-04-28T14:24:26Z</time>
      </trkpt>
      <trkpt lat="45.16187" lon="5.23601">
        <ele>354.1</ele>
        <time>2022-04-28T14:24:27Z</time>
      </trkpt>
      <trkpt lat="45.1618" lon="5.23609">
        <ele>353.7</ele>
        <time>2022-04-28T14:24:28Z</time>
      </trkpt>
      <trkpt lat="45.16172" lon="5.23616">
        <ele>353.3</ele>
        <time>2022-04-28T14:24:29Z</time>
      </trkpt>
      <trkpt lat="45.16165" lon="5.23622">
        <ele>352.9</ele>
        <time>2022-04-28T14:24:30Z</time>
      </trkpt>
      <trkpt lat="45.16157" lon="5.23628">
        <ele>352.5</ele>
        <time>2022-04-28T14:24:31Z</time>
      </trkpt>
      <trkpt lat="45.16149" lon="5.23633">
        <ele>352.1</ele>
        <time>2022-04-28T14:24:32Z</time>
      </trkpt>
      <trkpt lat="45.1614" lon="5.2364">
        <ele>351.7</ele>
        <time>2022-04-28T14:24:33Z</time>
      </trkpt>
      <trkpt lat="45.16132" lon="5.23646">
        <ele>351.3</ele>
        <time>2022-04-28T14:24:34Z</time>
      </trkpt>
      <trkpt lat="45.16124" lon="5.23651">
        <ele>350.9</ele>
        <time>2022-04-28T14:24:35Z</time>
      </trkpt>
      <trkpt lat="45.16115" lon="5.23658">
        <ele>350.5</ele>
        <time>2022-04-28T14:24:36Z</time>
      </trkpt>
      <trkpt lat="45.16107" lon="5.23664">
        <ele>350.1</ele>
        <time>2022-04-28T14:24:37Z</time>
      </trkpt>
      <trkpt lat="45.16098" lon="5.2367">
        <ele>349.7</ele>
        <time>2022-04-28T14:24:38Z</time>
      </trkpt>
      <trkpt lat="45.16089" lon="5.23677">
        <ele>349.3</ele>
        <time>2022-04-28T14:24:39Z</time>
      </trkpt>
      <trkpt lat="45.16081" lon="5.23683">
        <ele>348.9</ele>
        <time>2022-04-28T14:24:40Z</time>
      </trkpt>
      <trkpt lat="45.16073" lon="5.23688">
        <ele>348.6</ele>
        <time>2022-04-28T14:24:41Z</time>
      </trkpt>
      <trkpt lat="45.16065" lon="5.23694">
        <ele>348.2</ele>
        <time>2022-04-28T14:24:42Z</time>
      </trkpt>
      <trkpt lat="45.16057" lon="5.237">
        <ele>347.8</ele>
        <time>2022-04-28T14:24:43Z</time>
      </trkpt>
      <trkpt lat="45.16049" lon="5.23706">
        <ele>347.4</ele>
        <time>2022-04-28T14:24:44Z</time>
      </trkpt>
      <trkpt lat="45.16041" lon="5.23714">
        <ele>347.1</ele>
        <time>2022-04-28T14:24:45Z</time>
      </trkpt>
      <trkpt lat="45.16033" lon="5.23721">
        <ele>346.7</ele>
        <time>2022-04-28T14:24:46Z</time>
      </trkpt>
      <trkpt lat="45.16027" lon="5.2373">
        <ele>346.4</ele>
        <time>2022-04-28T14:24:47Z</time>
      </trkpt>
      <trkpt lat="45.1602" lon="5.23738">
        <ele>346.1</ele>
        <time>2022-04-28T14:24:48Z</time>
      </trkpt>
      <trkpt lat="45.16014" lon="5.23747">
        <ele>345.8</ele>
        <time>2022-04-28T14:24:49Z</time>
      </trkpt>
      <trkpt lat="45.16006" lon="5.23754">
        <ele>345.4</ele>
        <time>2022-04-28T14:24:50Z</time>
      </trkpt>
      <trkpt lat="45.15998" lon="5.23761">
        <ele>345.1</ele>
        <time>2022-04-28T14:24:51Z</time>
      </trkpt>
      <trkpt lat="45.1599" lon="5.23766">
        <ele>344.7</ele>
        <time>2022-04-28T14:24:52Z</time>
      </trkpt>
      <trkpt lat="45.15981" lon="5.23771">
        <ele>344.3</ele>
        <time>2022-04-28T14:24:53Z</time>
      </trkpt>
      <trkpt lat="45.15972" lon="5.23775">
        <ele>343.9</ele>
        <time>2022-04-28T14:24:54Z</time>
      </trkpt>
      <trkpt lat="45.15963" lon="5.2378">
        <ele>343.5</ele>
        <time>2022-04-28T14:24:55Z</time>
      </trkpt>
      <trkpt lat="45.15954" lon="5.23785">
        <ele>343.1</ele>
        <time>2022-04-28T14:24:56Z</time>
      </trkpt>
      <trkpt lat="45.15945" lon="5.2379">
        <ele>342.7</ele>
        <time>2022-04-28T14:24:57Z</time>
      </trkpt>
      <trkpt lat="45.15936" lon="5.23795">
        <ele>342.3</ele>
        <time>2022-04-28T14:24:58Z</time>
      </trkpt>
      <trkpt lat="45.15927" lon="5.238">
        <ele>341.9</ele>
        <time>2022-04-28T14:24:59Z</time>
      </trkpt>
      <trkpt lat="45.15918" lon="5.23805">
        <ele>341.5</ele>
        <time>2022-04-28T14:25:00Z</time>
      </trkpt>
      <trkpt lat="45.15908" lon="5.2381">
        <ele>341</ele>
        <time>2022-04-28T14:25:01Z</time>
      </trkpt>
      <trkpt lat="45.15899" lon="5.23815">
        <ele>340.6</ele>
        <time>2022-04-28T14:25:02Z</time>
      </trkpt>
      <trkpt lat="45.1589" lon="5.2382">
        <ele>340.2</ele>
        <time>2022-04-28T14:25:03Z</time>
      </trkpt>
      <trkpt lat="45.15881" lon="5.23825">
        <ele>339.7</ele>
        <time>2022-04-28T14:25:04Z</time>
      </trkpt>
      <trkpt lat="45.15872" lon="5.2383">
        <ele>339.3</ele>
        <time>2022-04-28T14:25:05Z</time>
      </trkpt>
      <trkpt lat="45.15864" lon="5.23835">
        <ele>338.9</ele>
        <time>2022-04-28T14:25:06Z</time>
      </trkpt>
      <trkpt lat="45.15855" lon="5.2384">
        <ele>338.4</ele>
        <time>2022-04-28T14:25:07Z</time>
      </trkpt>
      <trkpt lat="45.15847" lon="5.23845">
        <ele>338</ele>
        <time>2022-04-28T14:25:08Z</time>
      </trkpt>
      <trkpt lat="45.15838" lon="5.2385">
        <ele>337.6</ele>
        <time>2022-04-28T14:25:09Z</time>
      </trkpt>
      <trkpt lat="45.1583" lon="5.23854">
        <ele>337.2</ele>
        <time>2022-04-28T14:25:10Z</time>
      </trkpt>
      <trkpt lat="45.15821" lon="5.23859">
        <ele>336.7</ele>
        <time>2022-04-28T14:25:11Z</time>
      </trkpt>
      <trkpt lat="45.15813" lon="5.23863">
        <ele>336.3</ele>
        <time>2022-04-28T14:25:12Z</time>
      </trkpt>
      <trkpt lat="45.15804" lon="5.23868">
        <ele>335.9</ele>
        <time>2022-04-28T14:25:13Z</time>
      </trkpt>
      <trkpt lat="45.15796" lon="5.23873">
        <ele>335.4</ele>
        <time>2022-04-28T14:25:14Z</time>
      </trkpt>
      <trkpt lat="45.15788" lon="5.2388">
        <ele>334.9</ele>
        <time>2022-04-28T14:25:15Z</time>
      </trkpt>
      <trkpt lat="45.15782" lon="5.23887">
        <ele>334.5</ele>
        <time>2022-04-28T14:25:16Z</time>
      </trkpt>
      <trkpt lat="45.15776" lon="5.23897">
        <ele>334</ele>
        <time>2022-04-28T14:25:17Z</time>
      </trkpt>
      <trkpt lat="45.15772" lon="5.23908">
        <ele>333.5</ele>
        <time>2022-04-28T14:25:18Z</time>
      </trkpt>
      <trkpt lat="45.1577" lon="5.23921">
        <ele>333.1</ele>
        <time>2022-04-28T14:25:19Z</time>
      </trkpt>
      <trkpt lat="45.1577" lon="5.23935">
        <ele>332.7</ele>
        <time>2022-04-28T14:25:20Z</time>
      </trkpt>
      <trkpt lat="45.15771" lon="5.23948">
        <ele>332.3</ele>
        <time>2022-04-28T14:25:21Z</time>
      </trkpt>
      <trkpt lat="45.15773" lon="5.2396">
        <ele>332</ele>
        <time>2022-04-28T14:25:22Z</time>
      </trkpt>
      <trkpt lat="45.15774" lon="5.23972">
        <ele>331.6</ele>
        <time>2022-04-28T14:25:23Z</time>
      </trkpt>
      <trkpt lat="45.15774" lon="5.23984">
        <ele>331.3</ele>
        <time>2022-04-28T14:25:24Z</time>
      </trkpt>
      <trkpt lat="45.15771" lon="5.23997">
        <ele>330.9</ele>
        <time>2022-04-28T14:25:25Z</time>
      </trkpt>
      <trkpt lat="45.15767" lon="5.24008">
        <ele>330.5</ele>
        <time>2022-04-28T14:25:26Z</time>
      </trkpt>
      <trkpt lat="45.15761" lon="5.24019">
        <ele>330.1</ele>
        <time>2022-04-28T14:25:27Z</time>
      </trkpt>
      <trkpt lat="45.15756" lon="5.24029">
        <ele>329.7</ele>
        <time>2022-04-28T14:25:28Z</time>
      </trkpt>
      <trkpt lat="45.1575" lon="5.24039">
        <ele>329.3</ele>
        <time>2022-04-28T14:25:29Z</time>
      </trkpt>
      <trkpt lat="45.15744" lon="5.2405">
        <ele>328.9</ele>
        <time>2022-04-28T14:25:30Z</time>
      </trkpt>
      <trkpt lat="45.15737" lon="5.2406">
        <ele>328.6</ele>
        <time>2022-04-28T14:25:31Z</time>
      </trkpt>
      <trkpt lat="45.1573" lon="5.24069">
        <ele>328.2</ele>
        <time>2022-04-28T14:25:32Z</time>
      </trkpt>
      <trkpt lat="45.15722" lon="5.24079">
        <ele>327.8</ele>
        <time>2022-04-28T14:25:33Z</time>
      </trkpt>
      <trkpt lat="45.15714" lon="5.24087">
        <ele>327.4</ele>
        <time>2022-04-28T14:25:34Z</time>
      </trkpt>
      <trkpt lat="45.15706" lon="5.24095">
        <ele>327</ele>
        <time>2022-04-28T14:25:35Z</time>
      </trkpt>
      <trkpt lat="45.15697" lon="5.24103">
        <ele>326.5</ele>
        <time>2022-04-28T14:25:36Z</time>
      </trkpt>
      <trkpt lat="45.15688" lon="5.24111">
        <ele>326.1</ele>
        <time>2022-04-28T14:25:37Z</time>
      </trkpt>
      <trkpt lat="45.15679" lon="5.24118">
        <ele>325.6</ele>
        <time>2022-04-28T14:25:38Z</time>
      </trkpt>
      <trkpt lat="45.15671" lon="5.24126">
        <ele>325.3</ele>
        <time>2022-04-28T14:25:39Z</time>
      </trkpt>
      <trkpt lat="45.15661" lon="5.24133">
        <ele>324.9</ele>
        <time>2022-04-28T14:25:40Z</time>
      </trkpt>
      <trkpt lat="45.15653" lon="5.2414">
        <ele>324.5</ele>
        <time>2022-04-28T14:25:41Z</time>
      </trkpt>
      <trkpt lat="45.15644" lon="5.24147">
        <ele>324.2</ele>
        <time>2022-04-28T14:25:42Z</time>
      </trkpt>
      <trkpt lat="45.15635" lon="5.24154">
        <ele>323.8</ele>
        <time>2022-04-28T14:25:43Z</time>
      </trkpt>
      <trkpt lat="45.15627" lon="5.24161">
        <ele>323.4</ele>
        <time>2022-04-28T14:25:44Z</time>
      </trkpt>
      <trkpt lat="45.15618" lon="5.24168">
        <ele>323.1</ele>
        <time>2022-04-28T14:25:45Z</time>
      </trkpt>
      <trkpt lat="45.1561" lon="5.24175">
        <ele>322.7</ele>
        <time>2022-04-28T14:25:46Z</time>
      </trkpt>
      <trkpt lat="45.15603" lon="5.24182">
        <ele>322.4</ele>
        <time>2022-04-28T14:25:47Z</time>
      </trkpt>
      <trkpt lat="45.15597" lon="5.24192">
        <ele>322.1</ele>
        <time>2022-04-28T14:25:48Z</time>
      </trkpt>
      <trkpt lat="45.15591" lon="5.24204">
        <ele>321.7</ele>
        <time>2022-04-28T14:25:49Z</time>
      </trkpt>
      <trkpt lat="45.15585" lon="5.24216">
        <ele>321.3</ele>
        <time>2022-04-28T14:25:50Z</time>
      </trkpt>
      <trkpt lat="45.1558" lon="5.24228">
        <ele>321</ele>
        <time>2022-04-28T14:25:51Z</time>
      </trkpt>
      <trkpt lat="45.15576" lon="5.2424">
        <ele>320.7</ele>
        <time>2022-04-28T14:25:52Z</time>
      </trkpt>
      <trkpt lat="45.15571" lon="5.24252">
        <ele>320.4</ele>
        <time>2022-04-28T14:25:53Z</time>
      </trkpt>
      <trkpt lat="45.15566" lon="5.24262">
        <ele>320.1</ele>
        <time>2022-04-28T14:25:54Z</time>
      </trkpt>
      <trkpt lat="45.1556" lon="5.24273">
        <ele>319.8</ele>
        <time>2022-04-28T14:25:55Z</time>
      </trkpt>
      <trkpt lat="45.15554" lon="5.24283">
        <ele>319.3</ele>
        <time>2022-04-28T14:25:56Z</time>
      </trkpt>
      <trkpt lat="45.15546" lon="5.24291">
        <ele>318.9</ele>
        <time>2022-04-28T14:25:57Z</time>
      </trkpt>
      <trkpt lat="45.15537" lon="5.24299">
        <ele>318.3</ele>
        <time>2022-04-28T14:25:58Z</time>
      </trkpt>
      <trkpt lat="45.15529" lon="5.24305">
        <ele>317.8</ele>
        <time>2022-04-28T14:25:59Z</time>
      </trkpt>
      <trkpt lat="45.15519" lon="5.2431">
        <ele>317.2</ele>
        <time>2022-04-28T14:26:00Z</time>
      </trkpt>
      <trkpt lat="45.15508" lon="5.24317">
        <ele>316.5</ele>
        <time>2022-04-28T14:26:01Z</time>
      </trkpt>
      <trkpt lat="45.15498" lon="5.24323">
        <ele>315.9</ele>
        <time>2022-04-28T14:26:02Z</time>
      </trkpt>
      <trkpt lat="45.15488" lon="5.24329">
        <ele>315.4</ele>
        <time>2022-04-28T14:26:03Z</time>
      </trkpt>
      <trkpt lat="45.15478" lon="5.24336">
        <ele>314.9</ele>
        <time>2022-04-28T14:26:04Z</time>
      </trkpt>
      <trkpt lat="45.15469" lon="5.24343">
        <ele>314.5</ele>
        <time>2022-04-28T14:26:05Z</time>
      </trkpt>
      <trkpt lat="45.15461" lon="5.24352">
        <ele>314.1</ele>
        <time>2022-04-28T14:26:06Z</time>
      </trkpt>
      <trkpt lat="45.15453" lon="5.24359">
        <ele>313.7</ele>
        <time>2022-04-28T14:26:07Z</time>
      </trkpt>
      <trkpt lat="45.15445" lon="5.24366">
        <ele>313.3</ele>
        <time>2022-04-28T14:26:08Z</time>
      </trkpt>
      <trkpt lat="45.15436" lon="5.24375">
        <ele>312.9</ele>
        <time>2022-04-28T14:26:09Z</time>
      </trkpt>
      <trkpt lat="45.15429" lon="5.24384">
        <ele>312.5</ele>
        <time>2022-04-28T14:26:10Z</time>
      </trkpt>
      <trkpt lat="45.15422" lon="5.24394">
        <ele>312.1</ele>
        <time>2022-04-28T14:26:11Z</time>
      </trkpt>
      <trkpt lat="45.15416" lon="5.24405">
        <ele>311.8</ele>
        <time>2022-04-28T14:26:12Z</time>
      </trkpt>
      <trkpt lat="45.15412" lon="5.24418">
        <ele>311.6</ele>
        <time>2022-04-28T14:26:13Z</time>
      </trkpt>
      <trkpt lat="45.15409" lon="5.24432">
        <ele>311.4</ele>
        <time>2022-04-28T14:26:14Z</time>
      </trkpt>
      <trkpt lat="45.15407" lon="5.24445">
        <ele>311.2</ele>
        <time>2022-04-28T14:26:15Z</time>
      </trkpt>
      <trkpt lat="45.15405" lon="5.24459">
        <ele>311</ele>
        <time>2022-04-28T14:26:16Z</time>
      </trkpt>
      <trkpt lat="45.15402" lon="5.24472">
        <ele>310.7</ele>
        <time>2022-04-28T14:26:17Z</time>
      </trkpt>
      <trkpt lat="45.15399" lon="5.24484">
        <ele>310.5</ele>
        <time>2022-04-28T14:26:18Z</time>
      </trkpt>
      <trkpt lat="45.15395" lon="5.24496">
        <ele>310.1</ele>
        <time>2022-04-28T14:26:19Z</time>
      </trkpt>
      <trkpt lat="45.15389" lon="5.24508">
        <ele>309.7</ele>
        <time>2022-04-28T14:26:20Z</time>
      </trkpt>
      <trkpt lat="45.15382" lon="5.24519">
        <ele>309.3</ele>
        <time>2022-04-28T14:26:21Z</time>
      </trkpt>
      <trkpt lat="45.15375" lon="5.24529">
        <ele>308.9</ele>
        <time>2022-04-28T14:26:22Z</time>
      </trkpt>
      <trkpt lat="45.15369" lon="5.24539">
        <ele>308.4</ele>
        <time>2022-04-28T14:26:23Z</time>
      </trkpt>
      <trkpt lat="45.15363" lon="5.24549">
        <ele>308</ele>
        <time>2022-04-28T14:26:24Z</time>
      </trkpt>
      <trkpt lat="45.15358" lon="5.2456">
        <ele>307.5</ele>
        <time>2022-04-28T14:26:25Z</time>
      </trkpt>
      <trkpt lat="45.15352" lon="5.24571">
        <ele>307.1</ele>
        <time>2022-04-28T14:26:26Z</time>
      </trkpt>
      <trkpt lat="45.15346" lon="5.24582">
        <ele>306.6</ele>
        <time>2022-04-28T14:26:27Z</time>
      </trkpt>
      <trkpt lat="45.15341" lon="5.24593">
        <ele>306.2</ele>
        <time>2022-04-28T14:26:28Z</time>
      </trkpt>
      <trkpt lat="45.15335" lon="5.24604">
        <ele>305.8</ele>
        <time>2022-04-28T14:26:29Z</time>
      </trkpt>
      <trkpt lat="45.15329" lon="5.24615">
        <ele>305.4</ele>
        <time>2022-04-28T14:26:30Z</time>
      </trkpt>
      <trkpt lat="45.15323" lon="5.24626">
        <ele>305.1</ele>
        <time>2022-04-28T14:26:31Z</time>
      </trkpt>
      <trkpt lat="45.15317" lon="5.24638">
        <ele>304.7</ele>
        <time>2022-04-28T14:26:32Z</time>
      </trkpt>
      <trkpt lat="45.15311" lon="5.24649">
        <ele>304.3</ele>
        <time>2022-04-28T14:26:33Z</time>
      </trkpt>
      <trkpt lat="45.15305" lon="5.24661">
        <ele>303.8</ele>
        <time>2022-04-28T14:26:34Z</time>
      </trkpt>
      <trkpt lat="45.15298" lon="5.24673">
        <ele>303.2</ele>
        <time>2022-04-28T14:26:35Z</time>
      </trkpt>
      <trkpt lat="45.15291" lon="5.24684">
        <ele>302.7</ele>
        <time>2022-04-28T14:26:36Z</time>
      </trkpt>
      <trkpt lat="45.15284" lon="5.24694">
        <ele>302.1</ele>
        <time>2022-04-28T14:26:37Z</time>
      </trkpt>
      <trkpt lat="45.15275" lon="5.24704">
        <ele>301.5</ele>
        <time>2022-04-28T14:26:38Z</time>
      </trkpt>
      <trkpt lat="45.15266" lon="5.24713">
        <ele>300.9</ele>
        <time>2022-04-28T14:26:39Z</time>
      </trkpt>
      <trkpt lat="45.15257" lon="5.24721">
        <ele>300.3</ele>
        <time>2022-04-28T14:26:40Z</time>
      </trkpt>
      <trkpt lat="45.15248" lon="5.24728">
        <ele>299.7</ele>
        <time>2022-04-28T14:26:41Z</time>
      </trkpt>
      <trkpt lat="45.15239" lon="5.24735">
        <ele>299.2</ele>
        <time>2022-04-28T14:26:42Z</time>
      </trkpt>
      <trkpt lat="45.1523" lon="5.24742">
        <ele>298.7</ele>
        <time>2022-04-28T14:26:43Z</time>
      </trkpt>
      <trkpt lat="45.15222" lon="5.2475">
        <ele>298.2</ele>
        <time>2022-04-28T14:26:44Z</time>
      </trkpt>
      <trkpt lat="45.15214" lon="5.24757">
        <ele>297.7</ele>
        <time>2022-04-28T14:26:45Z</time>
      </trkpt>
      <trkpt lat="45.15205" lon="5.24764">
        <ele>297.3</ele>
        <time>2022-04-28T14:26:46Z</time>
      </trkpt>
      <trkpt lat="45.15197" lon="5.24769">
        <ele>297</ele>
        <time>2022-04-28T14:26:47Z</time>
      </trkpt>
      <trkpt lat="45.15189" lon="5.24775">
        <ele>296.7</ele>
        <time>2022-04-28T14:26:48Z</time>
      </trkpt>
      <trkpt lat="45.15183" lon="5.24777">
        <ele>296.6</ele>
        <time>2022-04-28T14:26:49Z</time>
      </trkpt>
      <trkpt lat="45.15175" lon="5.24782">
        <ele>296.6</ele>
        <time>2022-04-28T14:26:50Z</time>
      </trkpt>
      <trkpt lat="45.15168" lon="5.24786">
        <ele>296.6</ele>
        <time>2022-04-28T14:26:51Z</time>
      </trkpt>
      <trkpt lat="45.15163" lon="5.24795">
        <ele>296.7</ele>
        <time>2022-04-28T14:26:52Z</time>
      </trkpt>
      <trkpt lat="45.1516" lon="5.24808">
        <ele>296.8</ele>
        <time>2022-04-28T14:26:53Z</time>
      </trkpt>
      <trkpt lat="45.15161" lon="5.24821">
        <ele>296.6</ele>
        <time>2022-04-28T14:26:54Z</time>
      </trkpt>
      <trkpt lat="45.15163" lon="5.24834">
        <ele>296.5</ele>
        <time>2022-04-28T14:26:55Z</time>
      </trkpt>
      <trkpt lat="45.15166" lon="5.24847">
        <ele>296.5</ele>
        <time>2022-04-28T14:26:56Z</time>
      </trkpt>
      <trkpt lat="45.15168" lon="5.24859">
        <ele>296.6</ele>
        <time>2022-04-28T14:26:57Z</time>
      </trkpt>
      <trkpt lat="45.1517" lon="5.24869">
        <ele>296.8</ele>
        <time>2022-04-28T14:26:58Z</time>
      </trkpt>
      <trkpt lat="45.15172" lon="5.24879">
        <ele>297.1</ele>
        <time>2022-04-28T14:26:59Z</time>
      </trkpt>
      <trkpt lat="45.15175" lon="5.24887">
        <ele>297.4</ele>
        <time>2022-04-28T14:27:00Z</time>
      </trkpt>
      <trkpt lat="45.15177" lon="5.24894">
        <ele>297.6</ele>
        <time>2022-04-28T14:27:01Z</time>
      </trkpt>
      <trkpt lat="45.15179" lon="5.24901">
        <ele>298</ele>
        <time>2022-04-28T14:27:02Z</time>
      </trkpt>
      <trkpt lat="45.15182" lon="5.24906">
        <ele>298.3</ele>
        <time>2022-04-28T14:27:03Z</time>
      </trkpt>
      <trkpt lat="45.15185" lon="5.24911">
        <ele>298.6</ele>
        <time>2022-04-28T14:27:04Z</time>
      </trkpt>
      <trkpt lat="45.15187" lon="5.24914">
        <ele>298.8</ele>
        <time>2022-04-28T14:27:05Z</time>
      </trkpt>
      <trkpt lat="45.1519" lon="5.24917">
        <ele>299</ele>
        <time>2022-04-28T14:27:06Z</time>
      </trkpt>
      <trkpt lat="45.15193" lon="5.24918">
        <ele>299.2</ele>
        <time>2022-04-28T14:27:07Z</time>
      </trkpt>
      <trkpt lat="45.15197" lon="5.2492">
        <ele>299.4</ele>
        <time>2022-04-28T14:27:08Z</time>
      </trkpt>
      <trkpt lat="45.15201" lon="5.24921">
        <ele>299.6</ele>
        <time>2022-04-28T14:27:09Z</time>
      </trkpt>
      <trkpt lat="45.15204" lon="5.24921">
        <ele>299.7</ele>
        <time>2022-04-28T14:27:10Z</time>
      </trkpt>
      <trkpt lat="45.15208" lon="5.2492">
        <ele>299.8</ele>
        <time>2022-04-28T14:27:11Z</time>
      </trkpt>
      <trkpt lat="45.15209" lon="5.24916">
        <ele>299.9</ele>
        <time>2022-04-28T14:27:12Z</time>
      </trkpt>
      <trkpt lat="45.15213" lon="5.24916">
        <ele>300.1</ele>
        <time>2022-04-28T14:27:13Z</time>
      </trkpt>
      <trkpt lat="45.15218" lon="5.24918">
        <ele>300.2</ele>
        <time>2022-04-28T14:27:15Z</time>
      </trkpt>
      <trkpt lat="45.15222" lon="5.24919">
        <ele>300.4</ele>
        <time>2022-04-28T14:27:16Z</time>
      </trkpt>
      <trkpt lat="45.15226" lon="5.2492">
        <ele>300.6</ele>
        <time>2022-04-28T14:27:17Z</time>
      </trkpt>
      <trkpt lat="45.15231" lon="5.24921">
        <ele>300.8</ele>
        <time>2022-04-28T14:27:18Z</time>
      </trkpt>
      <trkpt lat="45.15234" lon="5.24921">
        <ele>301</ele>
        <time>2022-04-28T14:27:19Z</time>
      </trkpt>
      <trkpt lat="45.1524" lon="5.2492">
        <ele>301.3</ele>
        <time>2022-04-28T14:27:21Z</time>
      </trkpt>
      <trkpt lat="45.15244" lon="5.2492">
        <ele>301.5</ele>
        <time>2022-04-28T14:27:22Z</time>
      </trkpt>
      <trkpt lat="45.15247" lon="5.24919">
        <ele>301.6</ele>
        <time>2022-04-28T14:27:23Z</time>
      </trkpt>
      <trkpt lat="45.1525" lon="5.24919">
        <ele>301.8</ele>
        <time>2022-04-28T14:27:24Z</time>
      </trkpt>
      <trkpt lat="45.15252" lon="5.2492">
        <ele>301.9</ele>
        <time>2022-04-28T14:27:25Z</time>
      </trkpt>
      <trkpt lat="45.15256" lon="5.2492">
        <ele>302.2</ele>
        <time>2022-04-28T14:27:27Z</time>
      </trkpt>
      <trkpt lat="45.1526" lon="5.24919">
        <ele>302.4</ele>
        <time>2022-04-28T14:27:28Z</time>
      </trkpt>
      <trkpt lat="45.15262" lon="5.24919">
        <ele>302.5</ele>
        <time>2022-04-28T14:27:29Z</time>
      </trkpt>
      <trkpt lat="45.15263" lon="5.24918">
        <ele>302.6</ele>
        <time>2022-04-28T14:27:30Z</time>
      </trkpt>
      <trkpt lat="45.15267" lon="5.24918">
        <ele>302.8</ele>
        <time>2022-04-28T14:27:31Z</time>
      </trkpt>
      <trkpt lat="45.15269" lon="5.24918">
        <ele>302.9</ele>
        <time>2022-04-28T14:27:32Z</time>
      </trkpt>
      <trkpt lat="45.15274" lon="5.24919">
        <ele>303.3</ele>
        <time>2022-04-28T14:27:34Z</time>
      </trkpt>
      <trkpt lat="45.15279" lon="5.24919">
        <ele>303.6</ele>
        <time>2022-04-28T14:27:36Z</time>
      </trkpt>
      <trkpt lat="45.15282" lon="5.24919">
        <ele>303.8</ele>
        <time>2022-04-28T14:27:37Z</time>
      </trkpt>
      <trkpt lat="45.15286" lon="5.24919">
        <ele>304.1</ele>
        <time>2022-04-28T14:27:38Z</time>
      </trkpt>
      <trkpt lat="45.15288" lon="5.24919">
        <ele>304.2</ele>
        <time>2022-04-28T14:27:39Z</time>
      </trkpt>
      <trkpt lat="45.15291" lon="5.24919">
        <ele>304.4</ele>
        <time>2022-04-28T14:27:40Z</time>
      </trkpt>
      <trkpt lat="45.15294" lon="5.24919">
        <ele>304.7</ele>
        <time>2022-04-28T14:27:41Z</time>
      </trkpt>
      <trkpt lat="45.15295" lon="5.2492">
        <ele>304.8</ele>
        <time>2022-04-28T14:27:42Z</time>
      </trkpt>
      <trkpt lat="45.15299" lon="5.2492">
        <ele>305</ele>
        <time>2022-04-28T14:27:43Z</time>
      </trkpt>
      <trkpt lat="45.153" lon="5.2492">
        <ele>305.1</ele>
        <time>2022-04-28T14:27:44Z</time>
      </trkpt>
      <trkpt lat="45.15303" lon="5.24919">
        <ele>305.4</ele>
        <time>2022-04-28T14:27:45Z</time>
      </trkpt>
      <trkpt lat="45.15305" lon="5.24919">
        <ele>305.4</ele>
        <time>2022-04-28T14:27:46Z</time>
      </trkpt>
      <trkpt lat="45.15307" lon="5.24919">
        <ele>305.6</ele>
        <time>2022-04-28T14:27:47Z</time>
      </trkpt>
      <trkpt lat="45.15311" lon="5.24919">
        <ele>306</ele>
        <time>2022-04-28T14:27:48Z</time>
      </trkpt>
      <trkpt lat="45.15313" lon="5.24919">
        <ele>306.1</ele>
        <time>2022-04-28T14:27:49Z</time>
      </trkpt>
      <trkpt lat="45.15318" lon="5.24919">
        <ele>306.5</ele>
        <time>2022-04-28T14:27:51Z</time>
      </trkpt>
      <trkpt lat="45.1532" lon="5.2492">
        <ele>306.7</ele>
        <time>2022-04-28T14:27:52Z</time>
      </trkpt>
      <trkpt lat="45.15322" lon="5.2492">
        <ele>306.8</ele>
        <time>2022-04-28T14:27:53Z</time>
      </trkpt>
      <trkpt lat="45.15326" lon="5.24919">
        <ele>307.1</ele>
        <time>2022-04-28T14:27:54Z</time>
      </trkpt>
      <trkpt lat="45.15327" lon="5.24919">
        <ele>307.2</ele>
        <time>2022-04-28T14:27:55Z</time>
      </trkpt>
      <trkpt lat="45.15331" lon="5.24918">
        <ele>307.6</ele>
        <time>2022-04-28T14:27:56Z</time>
      </trkpt>
      <trkpt lat="45.15332" lon="5.24918">
        <ele>307.7</ele>
        <time>2022-04-28T14:27:57Z</time>
      </trkpt>
      <trkpt lat="45.15335" lon="5.24916">
        <ele>307.9</ele>
        <time>2022-04-28T14:27:58Z</time>
      </trkpt>
      <trkpt lat="45.15339" lon="5.24916">
        <ele>308.3</ele>
        <time>2022-04-28T14:27:59Z</time>
      </trkpt>
      <trkpt lat="45.1534" lon="5.24915">
        <ele>308.4</ele>
        <time>2022-04-28T14:28:00Z</time>
      </trkpt>
      <trkpt lat="45.15343" lon="5.24915">
        <ele>308.6</ele>
        <time>2022-04-28T14:28:01Z</time>
      </trkpt>
      <trkpt lat="45.15347" lon="5.24914">
        <ele>308.9</ele>
        <time>2022-04-28T14:28:02Z</time>
      </trkpt>
      <trkpt lat="45.15348" lon="5.24914">
        <ele>309</ele>
        <time>2022-04-28T14:28:03Z</time>
      </trkpt>
      <trkpt lat="45.15351" lon="5.24913">
        <ele>309.3</ele>
        <time>2022-04-28T14:28:04Z</time>
      </trkpt>
      <trkpt lat="45.15352" lon="5.24913">
        <ele>309.4</ele>
        <time>2022-04-28T14:28:05Z</time>
      </trkpt>
      <trkpt lat="45.15356" lon="5.24913">
        <ele>309.7</ele>
        <time>2022-04-28T14:28:06Z</time>
      </trkpt>
      <trkpt lat="45.15357" lon="5.24913">
        <ele>309.8</ele>
        <time>2022-04-28T14:28:07Z</time>
      </trkpt>
      <trkpt lat="45.15361" lon="5.24914">
        <ele>310.1</ele>
        <time>2022-04-28T14:28:08Z</time>
      </trkpt>
      <trkpt lat="45.15362" lon="5.24915">
        <ele>310.2</ele>
        <time>2022-04-28T14:28:09Z</time>
      </trkpt>
      <trkpt lat="45.15365" lon="5.24916">
        <ele>310.4</ele>
        <time>2022-04-28T14:28:10Z</time>
      </trkpt>
      <trkpt lat="45.15367" lon="5.24916">
        <ele>310.5</ele>
        <time>2022-04-28T14:28:11Z</time>
      </trkpt>
      <trkpt lat="45.1537" lon="5.24917">
        <ele>310.8</ele>
        <time>2022-04-28T14:28:12Z</time>
      </trkpt>
      <trkpt lat="45.15371" lon="5.24917">
        <ele>310.8</ele>
        <time>2022-04-28T14:28:13Z</time>
      </trkpt>
      <trkpt lat="45.15375" lon="5.24918">
        <ele>311.1</ele>
        <time>2022-04-28T14:28:14Z</time>
      </trkpt>
      <trkpt lat="45.15376" lon="5.24918">
        <ele>311.2</ele>
        <time>2022-04-28T14:28:15Z</time>
      </trkpt>
      <trkpt lat="45.15381" lon="5.24919">
        <ele>311.5</ele>
        <time>2022-04-28T14:28:17Z</time>
      </trkpt>
      <trkpt lat="45.15382" lon="5.24919">
        <ele>311.6</ele>
        <time>2022-04-28T14:28:18Z</time>
      </trkpt>
      <trkpt lat="45.15384" lon="5.24919">
        <ele>311.7</ele>
        <time>2022-04-28T14:28:19Z</time>
      </trkpt>
      <trkpt lat="45.15387" lon="5.24921">
        <ele>312</ele>
        <time>2022-04-28T14:28:20Z</time>
      </trkpt>
      <trkpt lat="45.1539" lon="5.24921">
        <ele>312.2</ele>
        <time>2022-04-28T14:28:22Z</time>
      </trkpt>
      <trkpt lat="45.15394" lon="5.24923">
        <ele>312.5</ele>
        <time>2022-04-28T14:28:23Z</time>
      </trkpt>
      <trkpt lat="45.15398" lon="5.24924">
        <ele>312.8</ele>
        <time>2022-04-28T14:28:24Z</time>
      </trkpt>
      <trkpt lat="45.15402" lon="5.24924">
        <ele>313.1</ele>
        <time>2022-04-28T14:28:25Z</time>
      </trkpt>
      <trkpt lat="45.15403" lon="5.24924">
        <ele>313.2</ele>
        <time>2022-04-28T14:28:26Z</time>
      </trkpt>
      <trkpt lat="45.15405" lon="5.24925">
        <ele>313.4</ele>
        <time>2022-04-28T14:28:27Z</time>
      </trkpt>
      <trkpt lat="45.15408" lon="5.24925">
        <ele>313.6</ele>
        <time>2022-04-28T14:28:29Z</time>
      </trkpt>
      <trkpt lat="45.15412" lon="5.24927">
        <ele>313.9</ele>
        <time>2022-04-28T14:28:30Z</time>
      </trkpt>
      <trkpt lat="45.15413" lon="5.24928">
        <ele>314</ele>
        <time>2022-04-28T14:28:31Z</time>
      </trkpt>
      <trkpt lat="45.15417" lon="5.24931">
        <ele>314.3</ele>
        <time>2022-04-28T14:28:33Z</time>
      </trkpt>
      <trkpt lat="45.1542" lon="5.24935">
        <ele>314.5</ele>
        <time>2022-04-28T14:28:34Z</time>
      </trkpt>
      <trkpt lat="45.15423" lon="5.24937">
        <ele>314.8</ele>
        <time>2022-04-28T14:28:35Z</time>
      </trkpt>
      <trkpt lat="45.15426" lon="5.24939">
        <ele>315</ele>
        <time>2022-04-28T14:28:36Z</time>
      </trkpt>
      <trkpt lat="45.15429" lon="5.24942">
        <ele>315.2</ele>
        <time>2022-04-28T14:28:37Z</time>
      </trkpt>
      <trkpt lat="45.15432" lon="5.24945">
        <ele>315.5</ele>
        <time>2022-04-28T14:28:39Z</time>
      </trkpt>
      <trkpt lat="45.15435" lon="5.24947">
        <ele>315.7</ele>
        <time>2022-04-28T14:28:40Z</time>
      </trkpt>
      <trkpt lat="45.15437" lon="5.24949">
        <ele>315.9</ele>
        <time>2022-04-28T14:28:41Z</time>
      </trkpt>
      <trkpt lat="45.1544" lon="5.2495">
        <ele>316.2</ele>
        <time>2022-04-28T14:28:42Z</time>
      </trkpt>
      <trkpt lat="45.15441" lon="5.24951">
        <ele>316.2</ele>
        <time>2022-04-28T14:28:43Z</time>
      </trkpt>
      <trkpt lat="45.15443" lon="5.24952">
        <ele>316.4</ele>
        <time>2022-04-28T14:28:44Z</time>
      </trkpt>
      <trkpt lat="45.15446" lon="5.24954">
        <ele>316.6</ele>
        <time>2022-04-28T14:28:46Z</time>
      </trkpt>
      <trkpt lat="45.15448" lon="5.24957">
        <ele>316.9</ele>
        <time>2022-04-28T14:28:47Z</time>
      </trkpt>
      <trkpt lat="45.15451" lon="5.2496">
        <ele>317.1</ele>
        <time>2022-04-28T14:28:48Z</time>
      </trkpt>
      <trkpt lat="45.15452" lon="5.2496">
        <ele>317.2</ele>
        <time>2022-04-28T14:28:49Z</time>
      </trkpt>
      <trkpt lat="45.15456" lon="5.24962">
        <ele>317.5</ele>
        <time>2022-04-28T14:28:50Z</time>
      </trkpt>
      <trkpt lat="45.15457" lon="5.24963">
        <ele>317.6</ele>
        <time>2022-04-28T14:28:51Z</time>
      </trkpt>
      <trkpt lat="45.15459" lon="5.24964">
        <ele>317.8</ele>
        <time>2022-04-28T14:28:52Z</time>
      </trkpt>
      <trkpt lat="45.15463" lon="5.24967">
        <ele>318.2</ele>
        <time>2022-04-28T14:28:53Z</time>
      </trkpt>
      <trkpt lat="45.15466" lon="5.24969">
        <ele>318.5</ele>
        <time>2022-04-28T14:28:54Z</time>
      </trkpt>
      <trkpt lat="45.15468" lon="5.24971">
        <ele>318.8</ele>
        <time>2022-04-28T14:28:55Z</time>
      </trkpt>
      <trkpt lat="45.15472" lon="5.24974">
        <ele>319.1</ele>
        <time>2022-04-28T14:28:57Z</time>
      </trkpt>
      <trkpt lat="45.15474" lon="5.24977">
        <ele>319.4</ele>
        <time>2022-04-28T14:28:58Z</time>
      </trkpt>
      <trkpt lat="45.15477" lon="5.2498">
        <ele>319.7</ele>
        <time>2022-04-28T14:28:59Z</time>
      </trkpt>
      <trkpt lat="45.15481" lon="5.24983">
        <ele>320.1</ele>
        <time>2022-04-28T14:29:01Z</time>
      </trkpt>
      <trkpt lat="45.15483" lon="5.24985">
        <ele>320.4</ele>
        <time>2022-04-28T14:29:02Z</time>
      </trkpt>
      <trkpt lat="45.15487" lon="5.24989">
        <ele>320.8</ele>
        <time>2022-04-28T14:29:03Z</time>
      </trkpt>
      <trkpt lat="45.15488" lon="5.24991">
        <ele>320.9</ele>
        <time>2022-04-28T14:29:04Z</time>
      </trkpt>
      <trkpt lat="45.15491" lon="5.24994">
        <ele>321.2</ele>
        <time>2022-04-28T14:29:05Z</time>
      </trkpt>
      <trkpt lat="45.15493" lon="5.24998">
        <ele>321.5</ele>
        <time>2022-04-28T14:29:06Z</time>
      </trkpt>
      <trkpt lat="45.15495" lon="5.25001">
        <ele>321.7</ele>
        <time>2022-04-28T14:29:07Z</time>
      </trkpt>
      <trkpt lat="45.15497" lon="5.25004">
        <ele>321.9</ele>
        <time>2022-04-28T14:29:08Z</time>
      </trkpt>
      <trkpt lat="45.15499" lon="5.25007">
        <ele>322.1</ele>
        <time>2022-04-28T14:29:09Z</time>
      </trkpt>
      <trkpt lat="45.15502" lon="5.2501">
        <ele>322.4</ele>
        <time>2022-04-28T14:29:10Z</time>
      </trkpt>
      <trkpt lat="45.15503" lon="5.25011">
        <ele>322.5</ele>
        <time>2022-04-28T14:29:11Z</time>
      </trkpt>
      <trkpt lat="45.15504" lon="5.25016">
        <ele>322.7</ele>
        <time>2022-04-28T14:29:12Z</time>
      </trkpt>
      <trkpt lat="45.15505" lon="5.25017">
        <ele>322.8</ele>
        <time>2022-04-28T14:29:13Z</time>
      </trkpt>
      <trkpt lat="45.15507" lon="5.25021">
        <ele>323.1</ele>
        <time>2022-04-28T14:29:14Z</time>
      </trkpt>
      <trkpt lat="45.15507" lon="5.25023">
        <ele>323.2</ele>
        <time>2022-04-28T14:29:15Z</time>
      </trkpt>
      <trkpt lat="45.15509" lon="5.25027">
        <ele>323.4</ele>
        <time>2022-04-28T14:29:16Z</time>
      </trkpt>
      <trkpt lat="45.1551" lon="5.25029">
        <ele>323.5</ele>
        <time>2022-04-28T14:29:17Z</time>
      </trkpt>
      <trkpt lat="45.15512" lon="5.25032">
        <ele>323.7</ele>
        <time>2022-04-28T14:29:18Z</time>
      </trkpt>
      <trkpt lat="45.15514" lon="5.25035">
        <ele>323.9</ele>
        <time>2022-04-28T14:29:20Z</time>
      </trkpt>
      <trkpt lat="45.15517" lon="5.2504">
        <ele>324.3</ele>
        <time>2022-04-28T14:29:21Z</time>
      </trkpt>
      <trkpt lat="45.15518" lon="5.25042">
        <ele>324.4</ele>
        <time>2022-04-28T14:29:22Z</time>
      </trkpt>
      <trkpt lat="45.15521" lon="5.25046">
        <ele>324.7</ele>
        <time>2022-04-28T14:29:23Z</time>
      </trkpt>
      <trkpt lat="45.15521" lon="5.25047">
        <ele>324.8</ele>
        <time>2022-04-28T14:29:24Z</time>
      </trkpt>
      <trkpt lat="45.15524" lon="5.25051">
        <ele>325</ele>
        <time>2022-04-28T14:29:26Z</time>
      </trkpt>
      <trkpt lat="45.15526" lon="5.25054">
        <ele>325.3</ele>
        <time>2022-04-28T14:29:27Z</time>
      </trkpt>
      <trkpt lat="45.15528" lon="5.25058">
        <ele>325.5</ele>
        <time>2022-04-28T14:29:28Z</time>
      </trkpt>
      <trkpt lat="45.1553" lon="5.25062">
        <ele>325.8</ele>
        <time>2022-04-28T14:29:29Z</time>
      </trkpt>
      <trkpt lat="45.15531" lon="5.25064">
        <ele>325.9</ele>
        <time>2022-04-28T14:29:30Z</time>
      </trkpt>
      <trkpt lat="45.15533" lon="5.25067">
        <ele>326.1</ele>
        <time>2022-04-28T14:29:31Z</time>
      </trkpt>
      <trkpt lat="45.15534" lon="5.2507">
        <ele>326.3</ele>
        <time>2022-04-28T14:29:32Z</time>
      </trkpt>
      <trkpt lat="45.15537" lon="5.25074">
        <ele>326.6</ele>
        <time>2022-04-28T14:29:33Z</time>
      </trkpt>
      <trkpt lat="45.15538" lon="5.25075">
        <ele>326.7</ele>
        <time>2022-04-28T14:29:34Z</time>
      </trkpt>
      <trkpt lat="45.1554" lon="5.2508">
        <ele>326.9</ele>
        <time>2022-04-28T14:29:35Z</time>
      </trkpt>
      <trkpt lat="45.15541" lon="5.25081">
        <ele>327</ele>
        <time>2022-04-28T14:29:36Z</time>
      </trkpt>
      <trkpt lat="45.15543" lon="5.25085">
        <ele>327.3</ele>
        <time>2022-04-28T14:29:37Z</time>
      </trkpt>
      <trkpt lat="45.15544" lon="5.25086">
        <ele>327.4</ele>
        <time>2022-04-28T14:29:38Z</time>
      </trkpt>
      <trkpt lat="45.15547" lon="5.2509">
        <ele>327.7</ele>
        <time>2022-04-28T14:29:39Z</time>
      </trkpt>
      <trkpt lat="45.15547" lon="5.25091">
        <ele>327.8</ele>
        <time>2022-04-28T14:29:40Z</time>
      </trkpt>
      <trkpt lat="45.15549" lon="5.25095">
        <ele>328.1</ele>
        <time>2022-04-28T14:29:41Z</time>
      </trkpt>
      <trkpt lat="45.1555" lon="5.25097">
        <ele>328.1</ele>
        <time>2022-04-28T14:29:42Z</time>
      </trkpt>
      <trkpt lat="45.15552" lon="5.25101">
        <ele>328.4</ele>
        <time>2022-04-28T14:29:43Z</time>
      </trkpt>
      <trkpt lat="45.15553" lon="5.25102">
        <ele>328.5</ele>
        <time>2022-04-28T14:29:44Z</time>
      </trkpt>
      <trkpt lat="45.15555" lon="5.25107">
        <ele>328.8</ele>
        <time>2022-04-28T14:29:45Z</time>
      </trkpt>
      <trkpt lat="45.15556" lon="5.25108">
        <ele>328.9</ele>
        <time>2022-04-28T14:29:46Z</time>
      </trkpt>
      <trkpt lat="45.15558" lon="5.25112">
        <ele>329.2</ele>
        <time>2022-04-28T14:29:47Z</time>
      </trkpt>
      <trkpt lat="45.15559" lon="5.25113">
        <ele>329.3</ele>
        <time>2022-04-28T14:29:48Z</time>
      </trkpt>
      <trkpt lat="45.1556" lon="5.25116">
        <ele>329.5</ele>
        <time>2022-04-28T14:29:49Z</time>
      </trkpt>
      <trkpt lat="45.15563" lon="5.2512">
        <ele>329.9</ele>
        <time>2022-04-28T14:29:51Z</time>
      </trkpt>
      <trkpt lat="45.15565" lon="5.25123">
        <ele>330.1</ele>
        <time>2022-04-28T14:29:52Z</time>
      </trkpt>
      <trkpt lat="45.15567" lon="5.25127">
        <ele>330.5</ele>
        <time>2022-04-28T14:29:53Z</time>
      </trkpt>
      <trkpt lat="45.15568" lon="5.25128">
        <ele>330.6</ele>
        <time>2022-04-28T14:29:54Z</time>
      </trkpt>
      <trkpt lat="45.1557" lon="5.25133">
        <ele>330.9</ele>
        <time>2022-04-28T14:29:55Z</time>
      </trkpt>
      <trkpt lat="45.1557" lon="5.25135">
        <ele>331</ele>
        <time>2022-04-28T14:29:56Z</time>
      </trkpt>
      <trkpt lat="45.15572" lon="5.2514">
        <ele>331.4</ele>
        <time>2022-04-28T14:29:57Z</time>
      </trkpt>
      <trkpt lat="45.15573" lon="5.25141">
        <ele>331.5</ele>
        <time>2022-04-28T14:29:58Z</time>
      </trkpt>
      <trkpt lat="45.15574" lon="5.25145">
        <ele>331.7</ele>
        <time>2022-04-28T14:29:59Z</time>
      </trkpt>
      <trkpt lat="45.15576" lon="5.2515">
        <ele>332.1</ele>
        <time>2022-04-28T14:30:01Z</time>
      </trkpt>
      <trkpt lat="45.15577" lon="5.25155">
        <ele>332.4</ele>
        <time>2022-04-28T14:30:02Z</time>
      </trkpt>
      <trkpt lat="45.15578" lon="5.2516">
        <ele>332.8</ele>
        <time>2022-04-28T14:30:03Z</time>
      </trkpt>
      <trkpt lat="45.15578" lon="5.25162">
        <ele>332.9</ele>
        <time>2022-04-28T14:30:04Z</time>
      </trkpt>
      <trkpt lat="45.15579" lon="5.25168">
        <ele>333.3</ele>
        <time>2022-04-28T14:30:05Z</time>
      </trkpt>
      <trkpt lat="45.1558" lon="5.2517">
        <ele>333.4</ele>
        <time>2022-04-28T14:30:06Z</time>
      </trkpt>
      <trkpt lat="45.15581" lon="5.25174">
        <ele>333.8</ele>
        <time>2022-04-28T14:30:07Z</time>
      </trkpt>
      <trkpt lat="45.15581" lon="5.25176">
        <ele>333.9</ele>
        <time>2022-04-28T14:30:08Z</time>
      </trkpt>
      <trkpt lat="45.15582" lon="5.2518">
        <ele>334.2</ele>
        <time>2022-04-28T14:30:09Z</time>
      </trkpt>
      <trkpt lat="45.15582" lon="5.25183">
        <ele>334.4</ele>
        <time>2022-04-28T14:30:10Z</time>
      </trkpt>
      <trkpt lat="45.15583" lon="5.25189">
        <ele>334.8</ele>
        <time>2022-04-28T14:30:12Z</time>
      </trkpt>
      <trkpt lat="45.15584" lon="5.25195">
        <ele>335.2</ele>
        <time>2022-04-28T14:30:13Z</time>
      </trkpt>
      <trkpt lat="45.15584" lon="5.25197">
        <ele>335.3</ele>
        <time>2022-04-28T14:30:14Z</time>
      </trkpt>
      <trkpt lat="45.15584" lon="5.252">
        <ele>335.6</ele>
        <time>2022-04-28T14:30:15Z</time>
      </trkpt>
      <trkpt lat="45.15584" lon="5.25204">
        <ele>335.8</ele>
        <time>2022-04-28T14:30:16Z</time>
      </trkpt>
      <trkpt lat="45.15585" lon="5.25211">
        <ele>336.3</ele>
        <time>2022-04-28T14:30:18Z</time>
      </trkpt>
      <trkpt lat="45.15585" lon="5.25215">
        <ele>336.5</ele>
        <time>2022-04-28T14:30:19Z</time>
      </trkpt>
      <trkpt lat="45.15585" lon="5.2522">
        <ele>336.8</ele>
        <time>2022-04-28T14:30:20Z</time>
      </trkpt>
      <trkpt lat="45.15584" lon="5.25225">
        <ele>337.1</ele>
        <time>2022-04-28T14:30:22Z</time>
      </trkpt>
      <trkpt lat="45.15583" lon="5.25229">
        <ele>337.3</ele>
        <time>2022-04-28T14:30:23Z</time>
      </trkpt>
      <trkpt lat="45.15583" lon="5.25233">
        <ele>337.6</ele>
        <time>2022-04-28T14:30:24Z</time>
      </trkpt>
      <trkpt lat="45.15582" lon="5.25238">
        <ele>337.9</ele>
        <time>2022-04-28T14:30:25Z</time>
      </trkpt>
      <trkpt lat="45.15581" lon="5.25242">
        <ele>338.1</ele>
        <time>2022-04-28T14:30:26Z</time>
      </trkpt>
      <trkpt lat="45.1558" lon="5.25248">
        <ele>338.5</ele>
        <time>2022-04-28T14:30:27Z</time>
      </trkpt>
      <trkpt lat="45.15579" lon="5.2525">
        <ele>338.6</ele>
        <time>2022-04-28T14:30:28Z</time>
      </trkpt>
      <trkpt lat="45.15578" lon="5.25255">
        <ele>338.9</ele>
        <time>2022-04-28T14:30:29Z</time>
      </trkpt>
      <trkpt lat="45.15577" lon="5.25257">
        <ele>339</ele>
        <time>2022-04-28T14:30:30Z</time>
      </trkpt>
      <trkpt lat="45.15576" lon="5.25262">
        <ele>339.3</ele>
        <time>2022-04-28T14:30:31Z</time>
      </trkpt>
      <trkpt lat="45.15575" lon="5.25264">
        <ele>339.4</ele>
        <time>2022-04-28T14:30:32Z</time>
      </trkpt>
      <trkpt lat="45.15574" lon="5.25269">
        <ele>339.8</ele>
        <time>2022-04-28T14:30:34Z</time>
      </trkpt>
      <trkpt lat="45.15573" lon="5.25273">
        <ele>340</ele>
        <time>2022-04-28T14:30:35Z</time>
      </trkpt>
      <trkpt lat="45.15571" lon="5.25277">
        <ele>340.3</ele>
        <time>2022-04-28T14:30:36Z</time>
      </trkpt>
      <trkpt lat="45.15569" lon="5.25282">
        <ele>340.7</ele>
        <time>2022-04-28T14:30:37Z</time>
      </trkpt>
      <trkpt lat="45.15568" lon="5.25284">
        <ele>340.8</ele>
        <time>2022-04-28T14:30:38Z</time>
      </trkpt>
      <trkpt lat="45.15566" lon="5.25289">
        <ele>341.2</ele>
        <time>2022-04-28T14:30:39Z</time>
      </trkpt>
      <trkpt lat="45.15565" lon="5.25291">
        <ele>341.3</ele>
        <time>2022-04-28T14:30:40Z</time>
      </trkpt>
      <trkpt lat="45.15563" lon="5.25295">
        <ele>341.6</ele>
        <time>2022-04-28T14:30:41Z</time>
      </trkpt>
      <trkpt lat="45.15561" lon="5.25298">
        <ele>341.8</ele>
        <time>2022-04-28T14:30:42Z</time>
      </trkpt>
      <trkpt lat="45.15559" lon="5.25301">
        <ele>342.1</ele>
        <time>2022-04-28T14:30:43Z</time>
      </trkpt>
      <trkpt lat="45.15557" lon="5.25305">
        <ele>342.4</ele>
        <time>2022-04-28T14:30:44Z</time>
      </trkpt>
      <trkpt lat="45.15556" lon="5.25307">
        <ele>342.5</ele>
        <time>2022-04-28T14:30:45Z</time>
      </trkpt>
      <trkpt lat="45.15553" lon="5.25311">
        <ele>342.8</ele>
        <time>2022-04-28T14:30:46Z</time>
      </trkpt>
      <trkpt lat="45.15552" lon="5.25312">
        <ele>342.9</ele>
        <time>2022-04-28T14:30:47Z</time>
      </trkpt>
      <trkpt lat="45.15549" lon="5.25316">
        <ele>343.3</ele>
        <time>2022-04-28T14:30:48Z</time>
      </trkpt>
      <trkpt lat="45.15548" lon="5.25317">
        <ele>343.4</ele>
        <time>2022-04-28T14:30:49Z</time>
      </trkpt>
      <trkpt lat="45.15545" lon="5.25322">
        <ele>343.8</ele>
        <time>2022-04-28T14:30:51Z</time>
      </trkpt>
      <trkpt lat="45.15544" lon="5.25324">
        <ele>343.9</ele>
        <time>2022-04-28T14:30:52Z</time>
      </trkpt>
      <trkpt lat="45.15543" lon="5.25326">
        <ele>344.1</ele>
        <time>2022-04-28T14:30:53Z</time>
      </trkpt>
      <trkpt lat="45.15541" lon="5.25329">
        <ele>344.3</ele>
        <time>2022-04-28T14:30:54Z</time>
      </trkpt>
      <trkpt lat="45.15539" lon="5.25333">
        <ele>344.6</ele>
        <time>2022-04-28T14:30:55Z</time>
      </trkpt>
      <trkpt lat="45.15538" lon="5.25335">
        <ele>344.7</ele>
        <time>2022-04-28T14:30:56Z</time>
      </trkpt>
      <trkpt lat="45.15536" lon="5.25338">
        <ele>345</ele>
        <time>2022-04-28T14:30:57Z</time>
      </trkpt>
      <trkpt lat="45.15534" lon="5.25341">
        <ele>345.3</ele>
        <time>2022-04-28T14:30:58Z</time>
      </trkpt>
      <trkpt lat="45.15533" lon="5.25342">
        <ele>345.4</ele>
        <time>2022-04-28T14:30:59Z</time>
      </trkpt>
      <trkpt lat="45.1553" lon="5.25346">
        <ele>345.7</ele>
        <time>2022-04-28T14:31:01Z</time>
      </trkpt>
      <trkpt lat="45.15528" lon="5.25349">
        <ele>345.9</ele>
        <time>2022-04-28T14:31:02Z</time>
      </trkpt>
      <trkpt lat="45.15526" lon="5.25353">
        <ele>346.2</ele>
        <time>2022-04-28T14:31:03Z</time>
      </trkpt>
      <trkpt lat="45.15523" lon="5.25357">
        <ele>346.5</ele>
        <time>2022-04-28T14:31:04Z</time>
      </trkpt>
      <trkpt lat="45.15521" lon="5.25361">
        <ele>346.8</ele>
        <time>2022-04-28T14:31:06Z</time>
      </trkpt>
      <trkpt lat="45.15519" lon="5.25365">
        <ele>347.1</ele>
        <time>2022-04-28T14:31:07Z</time>
      </trkpt>
      <trkpt lat="45.15517" lon="5.25368">
        <ele>347.3</ele>
        <time>2022-04-28T14:31:08Z</time>
      </trkpt>
      <trkpt lat="45.15515" lon="5.25372">
        <ele>347.6</ele>
        <time>2022-04-28T14:31:09Z</time>
      </trkpt>
      <trkpt lat="45.15514" lon="5.25373">
        <ele>347.7</ele>
        <time>2022-04-28T14:31:10Z</time>
      </trkpt>
      <trkpt lat="45.15511" lon="5.25377">
        <ele>348</ele>
        <time>2022-04-28T14:31:11Z</time>
      </trkpt>
      <trkpt lat="45.1551" lon="5.25378">
        <ele>348</ele>
        <time>2022-04-28T14:31:12Z</time>
      </trkpt>
      <trkpt lat="45.15508" lon="5.25382">
        <ele>348.3</ele>
        <time>2022-04-28T14:31:13Z</time>
      </trkpt>
      <trkpt lat="45.15507" lon="5.25384">
        <ele>348.4</ele>
        <time>2022-04-28T14:31:14Z</time>
      </trkpt>
      <trkpt lat="45.15505" lon="5.25387">
        <ele>348.6</ele>
        <time>2022-04-28T14:31:15Z</time>
      </trkpt>
      <trkpt lat="45.15503" lon="5.25391">
        <ele>348.9</ele>
        <time>2022-04-28T14:31:16Z</time>
      </trkpt>
      <trkpt lat="45.15502" lon="5.25393">
        <ele>349</ele>
        <time>2022-04-28T14:31:17Z</time>
      </trkpt>
      <trkpt lat="45.155" lon="5.25397">
        <ele>349.2</ele>
        <time>2022-04-28T14:31:19Z</time>
      </trkpt>
      <trkpt lat="45.15497" lon="5.254">
        <ele>349.4</ele>
        <time>2022-04-28T14:31:20Z</time>
      </trkpt>
      <trkpt lat="45.15495" lon="5.25403">
        <ele>349.6</ele>
        <time>2022-04-28T14:31:21Z</time>
      </trkpt>
      <trkpt lat="45.15493" lon="5.25406">
        <ele>349.7</ele>
        <time>2022-04-28T14:31:22Z</time>
      </trkpt>
      <trkpt lat="45.15491" lon="5.2541">
        <ele>350</ele>
        <time>2022-04-28T14:31:24Z</time>
      </trkpt>
      <trkpt lat="45.15488" lon="5.25415">
        <ele>350.2</ele>
        <time>2022-04-28T14:31:25Z</time>
      </trkpt>
      <trkpt lat="45.15487" lon="5.25416">
        <ele>350.3</ele>
        <time>2022-04-28T14:31:26Z</time>
      </trkpt>
      <trkpt lat="45.15484" lon="5.25421">
        <ele>350.6</ele>
        <time>2022-04-28T14:31:27Z</time>
      </trkpt>
      <trkpt lat="45.15483" lon="5.25422">
        <ele>350.6</ele>
        <time>2022-04-28T14:31:28Z</time>
      </trkpt>
      <trkpt lat="45.15481" lon="5.25425">
        <ele>350.8</ele>
        <time>2022-04-28T14:31:29Z</time>
      </trkpt>
      <trkpt lat="45.1548" lon="5.25428">
        <ele>350.9</ele>
        <time>2022-04-28T14:31:30Z</time>
      </trkpt>
      <trkpt lat="45.15478" lon="5.25431">
        <ele>351.1</ele>
        <time>2022-04-28T14:31:32Z</time>
      </trkpt>
      <trkpt lat="45.15476" lon="5.25434">
        <ele>351.2</ele>
        <time>2022-04-28T14:31:33Z</time>
      </trkpt>
      <trkpt lat="45.15474" lon="5.25438">
        <ele>351.4</ele>
        <time>2022-04-28T14:31:34Z</time>
      </trkpt>
      <trkpt lat="45.15471" lon="5.25442">
        <ele>351.6</ele>
        <time>2022-04-28T14:31:36Z</time>
      </trkpt>
      <trkpt lat="45.15469" lon="5.25444">
        <ele>351.7</ele>
        <time>2022-04-28T14:31:37Z</time>
      </trkpt>
      <trkpt lat="45.15466" lon="5.25448">
        <ele>351.9</ele>
        <time>2022-04-28T14:31:38Z</time>
      </trkpt>
      <trkpt lat="45.15465" lon="5.25449">
        <ele>352</ele>
        <time>2022-04-28T14:31:39Z</time>
      </trkpt>
      <trkpt lat="45.15462" lon="5.25453">
        <ele>352.2</ele>
        <time>2022-04-28T14:31:41Z</time>
      </trkpt>
      <trkpt lat="45.15459" lon="5.25458">
        <ele>352.4</ele>
        <time>2022-04-28T14:31:42Z</time>
      </trkpt>
      <trkpt lat="45.15458" lon="5.2546">
        <ele>352.5</ele>
        <time>2022-04-28T14:31:43Z</time>
      </trkpt>
      <trkpt lat="45.15456" lon="5.25462">
        <ele>352.7</ele>
        <time>2022-04-28T14:31:44Z</time>
      </trkpt>
      <trkpt lat="45.15453" lon="5.25465">
        <ele>352.9</ele>
        <time>2022-04-28T14:31:45Z</time>
      </trkpt>
      <trkpt lat="45.15451" lon="5.25468">
        <ele>353</ele>
        <time>2022-04-28T14:31:46Z</time>
      </trkpt>
      <trkpt lat="45.15448" lon="5.25471">
        <ele>353.2</ele>
        <time>2022-04-28T14:31:47Z</time>
      </trkpt>
      <trkpt lat="45.15446" lon="5.25473">
        <ele>353.4</ele>
        <time>2022-04-28T14:31:48Z</time>
      </trkpt>
      <trkpt lat="45.15444" lon="5.25476">
        <ele>353.5</ele>
        <time>2022-04-28T14:31:49Z</time>
      </trkpt>
      <trkpt lat="45.15442" lon="5.25479">
        <ele>353.7</ele>
        <time>2022-04-28T14:31:50Z</time>
      </trkpt>
      <trkpt lat="45.1544" lon="5.25483">
        <ele>353.9</ele>
        <time>2022-04-28T14:31:51Z</time>
      </trkpt>
      <trkpt lat="45.15438" lon="5.25486">
        <ele>354</ele>
        <time>2022-04-28T14:31:52Z</time>
      </trkpt>
      <trkpt lat="45.15436" lon="5.2549">
        <ele>354.2</ele>
        <time>2022-04-28T14:31:53Z</time>
      </trkpt>
      <trkpt lat="45.15435" lon="5.25493">
        <ele>354.4</ele>
        <time>2022-04-28T14:31:54Z</time>
      </trkpt>
      <trkpt lat="45.15433" lon="5.25497">
        <ele>354.5</ele>
        <time>2022-04-28T14:31:55Z</time>
      </trkpt>
      <trkpt lat="45.15433" lon="5.25502">
        <ele>354.7</ele>
        <time>2022-04-28T14:31:56Z</time>
      </trkpt>
      <trkpt lat="45.15432" lon="5.25506">
        <ele>354.9</ele>
        <time>2022-04-28T14:31:57Z</time>
      </trkpt>
      <trkpt lat="45.15431" lon="5.2551">
        <ele>355</ele>
        <time>2022-04-28T14:31:58Z</time>
      </trkpt>
      <trkpt lat="45.15431" lon="5.25515">
        <ele>355.2</ele>
        <time>2022-04-28T14:31:59Z</time>
      </trkpt>
      <trkpt lat="45.15431" lon="5.25519">
        <ele>355.3</ele>
        <time>2022-04-28T14:32:00Z</time>
      </trkpt>
      <trkpt lat="45.15431" lon="5.25523">
        <ele>355.4</ele>
        <time>2022-04-28T14:32:01Z</time>
      </trkpt>
      <trkpt lat="45.15432" lon="5.25528">
        <ele>355.5</ele>
        <time>2022-04-28T14:32:02Z</time>
      </trkpt>
      <trkpt lat="45.15432" lon="5.25533">
        <ele>355.6</ele>
        <time>2022-04-28T14:32:03Z</time>
      </trkpt>
      <trkpt lat="45.15434" lon="5.25538">
        <ele>355.7</ele>
        <time>2022-04-28T14:32:04Z</time>
      </trkpt>
      <trkpt lat="45.15435" lon="5.25543">
        <ele>355.8</ele>
        <time>2022-04-28T14:32:05Z</time>
      </trkpt>
      <trkpt lat="45.15436" lon="5.25549">
        <ele>355.9</ele>
        <time>2022-04-28T14:32:06Z</time>
      </trkpt>
      <trkpt lat="45.15437" lon="5.25554">
        <ele>356</ele>
        <time>2022-04-28T14:32:07Z</time>
      </trkpt>
      <trkpt lat="45.15438" lon="5.2556">
        <ele>356.1</ele>
        <time>2022-04-28T14:32:08Z</time>
      </trkpt>
      <trkpt lat="45.1544" lon="5.25565">
        <ele>356.2</ele>
        <time>2022-04-28T14:32:09Z</time>
      </trkpt>
      <trkpt lat="45.15441" lon="5.2557">
        <ele>356.4</ele>
        <time>2022-04-28T14:32:10Z</time>
      </trkpt>
      <trkpt lat="45.15441" lon="5.25575">
        <ele>356.5</ele>
        <time>2022-04-28T14:32:11Z</time>
      </trkpt>
      <trkpt lat="45.15442" lon="5.2558">
        <ele>356.6</ele>
        <time>2022-04-28T14:32:12Z</time>
      </trkpt>
      <trkpt lat="45.15444" lon="5.25585">
        <ele>356.8</ele>
        <time>2022-04-28T14:32:14Z</time>
      </trkpt>
      <trkpt lat="45.15445" lon="5.25589">
        <ele>356.9</ele>
        <time>2022-04-28T14:32:15Z</time>
      </trkpt>
      <trkpt lat="45.15447" lon="5.25594">
        <ele>357.1</ele>
        <time>2022-04-28T14:32:16Z</time>
      </trkpt>
      <trkpt lat="45.15449" lon="5.25599">
        <ele>357.2</ele>
        <time>2022-04-28T14:32:17Z</time>
      </trkpt>
      <trkpt lat="45.1545" lon="5.25604">
        <ele>357.4</ele>
        <time>2022-04-28T14:32:18Z</time>
      </trkpt>
      <trkpt lat="45.15453" lon="5.2561">
        <ele>357.5</ele>
        <time>2022-04-28T14:32:20Z</time>
      </trkpt>
      <trkpt lat="45.15454" lon="5.25614">
        <ele>357.7</ele>
        <time>2022-04-28T14:32:21Z</time>
      </trkpt>
      <trkpt lat="45.15457" lon="5.25619">
        <ele>357.8</ele>
        <time>2022-04-28T14:32:22Z</time>
      </trkpt>
      <trkpt lat="45.15459" lon="5.25622">
        <ele>358</ele>
        <time>2022-04-28T14:32:23Z</time>
      </trkpt>
      <trkpt lat="45.15461" lon="5.25624">
        <ele>358.1</ele>
        <time>2022-04-28T14:32:24Z</time>
      </trkpt>
      <trkpt lat="45.15463" lon="5.25627">
        <ele>358.2</ele>
        <time>2022-04-28T14:32:25Z</time>
      </trkpt>
      <trkpt lat="45.15465" lon="5.25631">
        <ele>358.3</ele>
        <time>2022-04-28T14:32:26Z</time>
      </trkpt>
      <trkpt lat="45.15467" lon="5.25634">
        <ele>358.4</ele>
        <time>2022-04-28T14:32:27Z</time>
      </trkpt>
      <trkpt lat="45.15469" lon="5.25638">
        <ele>358.5</ele>
        <time>2022-04-28T14:32:28Z</time>
      </trkpt>
      <trkpt lat="45.15471" lon="5.25642">
        <ele>358.6</ele>
        <time>2022-04-28T14:32:29Z</time>
      </trkpt>
      <trkpt lat="45.15473" lon="5.25646">
        <ele>358.7</ele>
        <time>2022-04-28T14:32:30Z</time>
      </trkpt>
      <trkpt lat="45.15476" lon="5.2565">
        <ele>358.9</ele>
        <time>2022-04-28T14:32:31Z</time>
      </trkpt>
      <trkpt lat="45.15478" lon="5.25654">
        <ele>359</ele>
        <time>2022-04-28T14:32:32Z</time>
      </trkpt>
      <trkpt lat="45.1548" lon="5.25656">
        <ele>359.1</ele>
        <time>2022-04-28T14:32:33Z</time>
      </trkpt>
      <trkpt lat="45.15483" lon="5.2566">
        <ele>359.2</ele>
        <time>2022-04-28T14:32:35Z</time>
      </trkpt>
      <trkpt lat="45.15485" lon="5.25665">
        <ele>359.3</ele>
        <time>2022-04-28T14:32:36Z</time>
      </trkpt>
      <trkpt lat="45.15488" lon="5.2567">
        <ele>359.5</ele>
        <time>2022-04-28T14:32:37Z</time>
      </trkpt>
      <trkpt lat="45.15491" lon="5.25675">
        <ele>359.6</ele>
        <time>2022-04-28T14:32:39Z</time>
      </trkpt>
      <trkpt lat="45.15495" lon="5.2568">
        <ele>359.7</ele>
        <time>2022-04-28T14:32:40Z</time>
      </trkpt>
      <trkpt lat="45.15497" lon="5.25684">
        <ele>359.7</ele>
        <time>2022-04-28T14:32:41Z</time>
      </trkpt>
      <trkpt lat="45.155" lon="5.25689">
        <ele>359.8</ele>
        <time>2022-04-28T14:32:43Z</time>
      </trkpt>
      <trkpt lat="45.15502" lon="5.25693">
        <ele>359.8</ele>
        <time>2022-04-28T14:32:44Z</time>
      </trkpt>
      <trkpt lat="45.15504" lon="5.25697">
        <ele>359.8</ele>
        <time>2022-04-28T14:32:45Z</time>
      </trkpt>
      <trkpt lat="45.15504" lon="5.25698">
        <ele>359.8</ele>
        <time>2022-04-28T14:32:46Z</time>
      </trkpt>
      <trkpt lat="45.15504" lon="5.25699">
        <ele>359.8</ele>
        <time>2022-04-28T14:32:47Z</time>
      </trkpt>
      <trkpt lat="45.15504" lon="5.25699">
        <ele>359.8</ele>
        <time>2022-04-28T14:32:48Z</time>
      </trkpt>
      <trkpt lat="45.15504" lon="5.25699">
        <ele>359.8</ele>
        <time>2022-04-28T14:32:49Z</time>
      </trkpt>
      <trkpt lat="45.15504" lon="5.25699">
        <ele>359.8</ele>
        <time>2022-04-28T14:32:50Z</time>
      </trkpt>
      <trkpt lat="45.15504" lon="5.25699">
        <ele>359.8</ele>
        <time>2022-04-28T14:32:51Z</time>
      </trkpt>
      <trkpt lat="45.15504" lon="5.25699">
        <ele>359.8</ele>
        <time>2022-04-28T14:32:52Z</time>
      </trkpt>
      <trkpt lat="45.15503" lon="5.25699">
        <ele>359.8</ele>
        <time>2022-04-28T14:32:53Z</time>
      </trkpt>
      <trkpt lat="45.15503" lon="5.25699">
        <ele>359.8</ele>
        <time>2022-04-28T14:32:54Z</time>
      </trkpt>
      <trkpt lat="45.15503" lon="5.25699">
        <ele>359.8</ele>
        <time>2022-04-28T14:32:55Z</time>
      </trkpt>
      <trkpt lat="45.15503" lon="5.25699">
        <ele>359.8</ele>
        <time>2022-04-28T14:32:56Z</time>
      </trkpt>
      <trkpt lat="45.15503" lon="5.25699">
        <ele>359.8</ele>
        <time>2022-04-28T14:32:57Z</time>
      </trkpt>
      <trkpt lat="45.15503" lon="5.25699">
        <ele>359.8</ele>
        <time>2022-04-28T14:32:58Z</time>
      </trkpt>
      <trkpt lat="45.15507" lon="5.257">
        <ele>359.8</ele>
        <time>2022-04-28T14:37:13Z</time>
      </trkpt>
      <trkpt lat="45.15508" lon="5.25702">
        <ele>359.8</ele>
        <time>2022-04-28T14:37:14Z</time>
      </trkpt>
      <trkpt lat="45.15509" lon="5.25704">
        <ele>359.8</ele>
        <time>2022-04-28T14:37:15Z</time>
      </trkpt>
      <trkpt lat="45.15511" lon="5.25708">
        <ele>359.7</ele>
        <time>2022-04-28T14:37:16Z</time>
      </trkpt>
      <trkpt lat="45.15514" lon="5.25711">
        <ele>359.7</ele>
        <time>2022-04-28T14:37:17Z</time>
      </trkpt>
      <trkpt lat="45.15514" lon="5.25714">
        <ele>359.6</ele>
        <time>2022-04-28T14:37:19Z</time>
      </trkpt>
      <trkpt lat="45.15519" lon="5.2572">
        <ele>359.5</ele>
        <time>2022-04-28T14:37:21Z</time>
      </trkpt>
      <trkpt lat="45.15523" lon="5.25725">
        <ele>359.4</ele>
        <time>2022-04-28T14:37:22Z</time>
      </trkpt>
      <trkpt lat="45.15526" lon="5.2573">
        <ele>359.2</ele>
        <time>2022-04-28T14:37:23Z</time>
      </trkpt>
      <trkpt lat="45.15529" lon="5.25735">
        <ele>359.1</ele>
        <time>2022-04-28T14:37:24Z</time>
      </trkpt>
      <trkpt lat="45.15532" lon="5.2574">
        <ele>359</ele>
        <time>2022-04-28T14:37:25Z</time>
      </trkpt>
      <trkpt lat="45.15536" lon="5.25746">
        <ele>358.8</ele>
        <time>2022-04-28T14:37:27Z</time>
      </trkpt>
      <trkpt lat="45.1554" lon="5.25752">
        <ele>358.6</ele>
        <time>2022-04-28T14:37:28Z</time>
      </trkpt>
      <trkpt lat="45.15543" lon="5.25756">
        <ele>358.4</ele>
        <time>2022-04-28T14:37:29Z</time>
      </trkpt>
      <trkpt lat="45.15546" lon="5.2576">
        <ele>358.2</ele>
        <time>2022-04-28T14:37:30Z</time>
      </trkpt>
      <trkpt lat="45.15549" lon="5.25764">
        <ele>358.1</ele>
        <time>2022-04-28T14:37:31Z</time>
      </trkpt>
      <trkpt lat="45.15552" lon="5.25769">
        <ele>357.9</ele>
        <time>2022-04-28T14:37:32Z</time>
      </trkpt>
      <trkpt lat="45.15555" lon="5.25773">
        <ele>357.6</ele>
        <time>2022-04-28T14:37:33Z</time>
      </trkpt>
      <trkpt lat="45.15558" lon="5.25777">
        <ele>357.4</ele>
        <time>2022-04-28T14:37:34Z</time>
      </trkpt>
      <trkpt lat="45.15564" lon="5.25782">
        <ele>357</ele>
        <time>2022-04-28T14:37:35Z</time>
      </trkpt>
      <trkpt lat="45.15568" lon="5.25786">
        <ele>356.7</ele>
        <time>2022-04-28T14:37:36Z</time>
      </trkpt>
      <trkpt lat="45.15574" lon="5.25788">
        <ele>356.4</ele>
        <time>2022-04-28T14:37:37Z</time>
      </trkpt>
      <trkpt lat="45.15579" lon="5.25791">
        <ele>356</ele>
        <time>2022-04-28T14:37:38Z</time>
      </trkpt>
      <trkpt lat="45.15585" lon="5.25794">
        <ele>355.7</ele>
        <time>2022-04-28T14:37:39Z</time>
      </trkpt>
      <trkpt lat="45.15591" lon="5.25801">
        <ele>355.2</ele>
        <time>2022-04-28T14:37:40Z</time>
      </trkpt>
      <trkpt lat="45.15596" lon="5.25808">
        <ele>354.7</ele>
        <time>2022-04-28T14:37:41Z</time>
      </trkpt>
      <trkpt lat="45.15602" lon="5.25815">
        <ele>354.2</ele>
        <time>2022-04-28T14:37:42Z</time>
      </trkpt>
      <trkpt lat="45.15608" lon="5.25823">
        <ele>353.6</ele>
        <time>2022-04-28T14:37:43Z</time>
      </trkpt>
      <trkpt lat="45.15614" lon="5.25831">
        <ele>353.1</ele>
        <time>2022-04-28T14:37:44Z</time>
      </trkpt>
      <trkpt lat="45.15619" lon="5.25841">
        <ele>352.5</ele>
        <time>2022-04-28T14:37:45Z</time>
      </trkpt>
      <trkpt lat="45.15625" lon="5.2585">
        <ele>351.9</ele>
        <time>2022-04-28T14:37:46Z</time>
      </trkpt>
      <trkpt lat="45.1563" lon="5.25859">
        <ele>351.4</ele>
        <time>2022-04-28T14:37:47Z</time>
      </trkpt>
      <trkpt lat="45.15634" lon="5.25869">
        <ele>350.8</ele>
        <time>2022-04-28T14:37:48Z</time>
      </trkpt>
      <trkpt lat="45.1564" lon="5.25881">
        <ele>350.2</ele>
        <time>2022-04-28T14:37:49Z</time>
      </trkpt>
      <trkpt lat="45.15644" lon="5.25892">
        <ele>349.5</ele>
        <time>2022-04-28T14:37:50Z</time>
      </trkpt>
      <trkpt lat="45.1565" lon="5.25905">
        <ele>348.8</ele>
        <time>2022-04-28T14:37:51Z</time>
      </trkpt>
      <trkpt lat="45.15657" lon="5.25917">
        <ele>348.1</ele>
        <time>2022-04-28T14:37:52Z</time>
      </trkpt>
      <trkpt lat="45.15661" lon="5.25929">
        <ele>347.3</ele>
        <time>2022-04-28T14:37:53Z</time>
      </trkpt>
      <trkpt lat="45.15666" lon="5.25942">
        <ele>346.5</ele>
        <time>2022-04-28T14:37:54Z</time>
      </trkpt>
      <trkpt lat="45.15668" lon="5.25955">
        <ele>345.7</ele>
        <time>2022-04-28T14:37:55Z</time>
      </trkpt>
      <trkpt lat="45.15667" lon="5.2597">
        <ele>344.9</ele>
        <time>2022-04-28T14:37:56Z</time>
      </trkpt>
      <trkpt lat="45.15664" lon="5.25986">
        <ele>343.9</ele>
        <time>2022-04-28T14:37:57Z</time>
      </trkpt>
      <trkpt lat="45.1566" lon="5.26">
        <ele>342.9</ele>
        <time>2022-04-28T14:37:58Z</time>
      </trkpt>
      <trkpt lat="45.15654" lon="5.26014">
        <ele>342</ele>
        <time>2022-04-28T14:37:59Z</time>
      </trkpt>
      <trkpt lat="45.15649" lon="5.26028">
        <ele>341.2</ele>
        <time>2022-04-28T14:38:00Z</time>
      </trkpt>
      <trkpt lat="45.15644" lon="5.26042">
        <ele>340.3</ele>
        <time>2022-04-28T14:38:01Z</time>
      </trkpt>
      <trkpt lat="45.15639" lon="5.26057">
        <ele>339.4</ele>
        <time>2022-04-28T14:38:02Z</time>
      </trkpt>
      <trkpt lat="45.15634" lon="5.26072">
        <ele>338.5</ele>
        <time>2022-04-28T14:38:03Z</time>
      </trkpt>
      <trkpt lat="45.1563" lon="5.26088">
        <ele>337.6</ele>
        <time>2022-04-28T14:38:04Z</time>
      </trkpt>
      <trkpt lat="45.15627" lon="5.26104">
        <ele>336.6</ele>
        <time>2022-04-28T14:38:05Z</time>
      </trkpt>
      <trkpt lat="45.15625" lon="5.26121">
        <ele>335.6</ele>
        <time>2022-04-28T14:38:06Z</time>
      </trkpt>
      <trkpt lat="45.15623" lon="5.26137">
        <ele>334.7</ele>
        <time>2022-04-28T14:38:07Z</time>
      </trkpt>
      <trkpt lat="45.15622" lon="5.26154">
        <ele>333.8</ele>
        <time>2022-04-28T14:38:08Z</time>
      </trkpt>
      <trkpt lat="45.1562" lon="5.2617">
        <ele>332.9</ele>
        <time>2022-04-28T14:38:09Z</time>
      </trkpt>
      <trkpt lat="45.15618" lon="5.26186">
        <ele>332</ele>
        <time>2022-04-28T14:38:10Z</time>
      </trkpt>
      <trkpt lat="45.15616" lon="5.26203">
        <ele>331</ele>
        <time>2022-04-28T14:38:11Z</time>
      </trkpt>
      <trkpt lat="45.15615" lon="5.2622">
        <ele>330.1</ele>
        <time>2022-04-28T14:38:12Z</time>
      </trkpt>
      <trkpt lat="45.15613" lon="5.26237">
        <ele>329.2</ele>
        <time>2022-04-28T14:38:13Z</time>
      </trkpt>
      <trkpt lat="45.15611" lon="5.26254">
        <ele>328.4</ele>
        <time>2022-04-28T14:38:14Z</time>
      </trkpt>
      <trkpt lat="45.15609" lon="5.26271">
        <ele>327.5</ele>
        <time>2022-04-28T14:38:15Z</time>
      </trkpt>
      <trkpt lat="45.15605" lon="5.26287">
        <ele>326.5</ele>
        <time>2022-04-28T14:38:16Z</time>
      </trkpt>
      <trkpt lat="45.15601" lon="5.26303">
        <ele>325.5</ele>
        <time>2022-04-28T14:38:17Z</time>
      </trkpt>
      <trkpt lat="45.15595" lon="5.26319">
        <ele>324.5</ele>
        <time>2022-04-28T14:38:18Z</time>
      </trkpt>
      <trkpt lat="45.15588" lon="5.26333">
        <ele>323.5</ele>
        <time>2022-04-28T14:38:19Z</time>
      </trkpt>
      <trkpt lat="45.15581" lon="5.26348">
        <ele>322.5</ele>
        <time>2022-04-28T14:38:20Z</time>
      </trkpt>
      <trkpt lat="45.15575" lon="5.26362">
        <ele>321.5</ele>
        <time>2022-04-28T14:38:21Z</time>
      </trkpt>
      <trkpt lat="45.15568" lon="5.26376">
        <ele>320.5</ele>
        <time>2022-04-28T14:38:22Z</time>
      </trkpt>
      <trkpt lat="45.15562" lon="5.26391">
        <ele>319.5</ele>
        <time>2022-04-28T14:38:23Z</time>
      </trkpt>
      <trkpt lat="45.15555" lon="5.26406">
        <ele>318.4</ele>
        <time>2022-04-28T14:38:24Z</time>
      </trkpt>
      <trkpt lat="45.15549" lon="5.26422">
        <ele>317.4</ele>
        <time>2022-04-28T14:38:25Z</time>
      </trkpt>
      <trkpt lat="45.15543" lon="5.26437">
        <ele>316.3</ele>
        <time>2022-04-28T14:38:26Z</time>
      </trkpt>
      <trkpt lat="45.15537" lon="5.26453">
        <ele>315.4</ele>
        <time>2022-04-28T14:38:27Z</time>
      </trkpt>
      <trkpt lat="45.15533" lon="5.26469">
        <ele>314.6</ele>
        <time>2022-04-28T14:38:28Z</time>
      </trkpt>
      <trkpt lat="45.1553" lon="5.26485">
        <ele>313.7</ele>
        <time>2022-04-28T14:38:29Z</time>
      </trkpt>
      <trkpt lat="45.15526" lon="5.26502">
        <ele>312.9</ele>
        <time>2022-04-28T14:38:30Z</time>
      </trkpt>
      <trkpt lat="45.15523" lon="5.2652">
        <ele>312.1</ele>
        <time>2022-04-28T14:38:31Z</time>
      </trkpt>
      <trkpt lat="45.1552" lon="5.26537">
        <ele>311.4</ele>
        <time>2022-04-28T14:38:32Z</time>
      </trkpt>
      <trkpt lat="45.15517" lon="5.26553">
        <ele>310.7</ele>
        <time>2022-04-28T14:38:33Z</time>
      </trkpt>
      <trkpt lat="45.15513" lon="5.2657">
        <ele>310</ele>
        <time>2022-04-28T14:38:34Z</time>
      </trkpt>
      <trkpt lat="45.1551" lon="5.26585">
        <ele>309.5</ele>
        <time>2022-04-28T14:38:35Z</time>
      </trkpt>
      <trkpt lat="45.15505" lon="5.266">
        <ele>309</ele>
        <time>2022-04-28T14:38:36Z</time>
      </trkpt>
      <trkpt lat="45.155" lon="5.26615">
        <ele>308.5</ele>
        <time>2022-04-28T14:38:37Z</time>
      </trkpt>
      <trkpt lat="45.15494" lon="5.2663">
        <ele>308</ele>
        <time>2022-04-28T14:38:38Z</time>
      </trkpt>
      <trkpt lat="45.15488" lon="5.26644">
        <ele>307.6</ele>
        <time>2022-04-28T14:38:39Z</time>
      </trkpt>
      <trkpt lat="45.15482" lon="5.26658">
        <ele>307.3</ele>
        <time>2022-04-28T14:38:40Z</time>
      </trkpt>
      <trkpt lat="45.15476" lon="5.26671">
        <ele>307</ele>
        <time>2022-04-28T14:38:41Z</time>
      </trkpt>
      <trkpt lat="45.15471" lon="5.26684">
        <ele>306.8</ele>
        <time>2022-04-28T14:38:42Z</time>
      </trkpt>
      <trkpt lat="45.15465" lon="5.26697">
        <ele>306.6</ele>
        <time>2022-04-28T14:38:43Z</time>
      </trkpt>
      <trkpt lat="45.15459" lon="5.26709">
        <ele>306.4</ele>
        <time>2022-04-28T14:38:44Z</time>
      </trkpt>
      <trkpt lat="45.15453" lon="5.26723">
        <ele>306.3</ele>
        <time>2022-04-28T14:38:45Z</time>
      </trkpt>
      <trkpt lat="45.15447" lon="5.26735">
        <ele>306.3</ele>
        <time>2022-04-28T14:38:46Z</time>
      </trkpt>
      <trkpt lat="45.15442" lon="5.26746">
        <ele>306.3</ele>
        <time>2022-04-28T14:38:47Z</time>
      </trkpt>
      <trkpt lat="45.15437" lon="5.26757">
        <ele>306.4</ele>
        <time>2022-04-28T14:38:48Z</time>
      </trkpt>
      <trkpt lat="45.15433" lon="5.26768">
        <ele>306.4</ele>
        <time>2022-04-28T14:38:49Z</time>
      </trkpt>
      <trkpt lat="45.15429" lon="5.26776">
        <ele>306.5</ele>
        <time>2022-04-28T14:38:50Z</time>
      </trkpt>
      <trkpt lat="45.15425" lon="5.26784">
        <ele>306.5</ele>
        <time>2022-04-28T14:38:51Z</time>
      </trkpt>
      <trkpt lat="45.1542" lon="5.26793">
        <ele>306.6</ele>
        <time>2022-04-28T14:38:52Z</time>
      </trkpt>
      <trkpt lat="45.15416" lon="5.26801">
        <ele>306.7</ele>
        <time>2022-04-28T14:38:53Z</time>
      </trkpt>
      <trkpt lat="45.15411" lon="5.26808">
        <ele>306.7</ele>
        <time>2022-04-28T14:38:54Z</time>
      </trkpt>
      <trkpt lat="45.15406" lon="5.26817">
        <ele>306.7</ele>
        <time>2022-04-28T14:38:55Z</time>
      </trkpt>
      <trkpt lat="45.15401" lon="5.26824">
        <ele>306.6</ele>
        <time>2022-04-28T14:38:56Z</time>
      </trkpt>
      <trkpt lat="45.15397" lon="5.26831">
        <ele>306.5</ele>
        <time>2022-04-28T14:38:57Z</time>
      </trkpt>
      <trkpt lat="45.15392" lon="5.26836">
        <ele>306.5</ele>
        <time>2022-04-28T14:38:58Z</time>
      </trkpt>
      <trkpt lat="45.15388" lon="5.2684">
        <ele>306.4</ele>
        <time>2022-04-28T14:38:59Z</time>
      </trkpt>
      <trkpt lat="45.15384" lon="5.26843">
        <ele>306.3</ele>
        <time>2022-04-28T14:39:00Z</time>
      </trkpt>
      <trkpt lat="45.1538" lon="5.26847">
        <ele>306.3</ele>
        <time>2022-04-28T14:39:01Z</time>
      </trkpt>
      <trkpt lat="45.15375" lon="5.26852">
        <ele>306.2</ele>
        <time>2022-04-28T14:39:02Z</time>
      </trkpt>
      <trkpt lat="45.15371" lon="5.26855">
        <ele>306.2</ele>
        <time>2022-04-28T14:39:03Z</time>
      </trkpt>
      <trkpt lat="45.15368" lon="5.26858">
        <ele>306.1</ele>
        <time>2022-04-28T14:39:04Z</time>
      </trkpt>
      <trkpt lat="45.15366" lon="5.26857">
        <ele>306.1</ele>
        <time>2022-04-28T14:39:05Z</time>
      </trkpt>
      <trkpt lat="45.15366" lon="5.26858">
        <ele>306.1</ele>
        <time>2022-04-28T14:39:06Z</time>
      </trkpt>
      <trkpt lat="45.15366" lon="5.26858">
        <ele>306.1</ele>
        <time>2022-04-28T14:39:07Z</time>
      </trkpt>
      <trkpt lat="45.15365" lon="5.26858">
        <ele>306.1</ele>
        <time>2022-04-28T14:39:08Z</time>
      </trkpt>
      <trkpt lat="45.15365" lon="5.26859">
        <ele>306.1</ele>
        <time>2022-04-28T14:39:09Z</time>
      </trkpt>
      <trkpt lat="45.15364" lon="5.26859">
        <ele>306.1</ele>
        <time>2022-04-28T14:39:10Z</time>
      </trkpt>
      <trkpt lat="45.15364" lon="5.26859">
        <ele>306.1</ele>
        <time>2022-04-28T14:39:11Z</time>
      </trkpt>
      <trkpt lat="45.15364" lon="5.2686">
        <ele>306.1</ele>
        <time>2022-04-28T14:39:12Z</time>
      </trkpt>
      <trkpt lat="45.15363" lon="5.2686">
        <ele>306.1</ele>
        <time>2022-04-28T14:39:13Z</time>
      </trkpt>
      <trkpt lat="45.15363" lon="5.2686">
        <ele>306</ele>
        <time>2022-04-28T14:39:14Z</time>
      </trkpt>
      <trkpt lat="45.15362" lon="5.26861">
        <ele>306</ele>
        <time>2022-04-28T14:39:15Z</time>
      </trkpt>
      <trkpt lat="45.15362" lon="5.26861">
        <ele>306</ele>
        <time>2022-04-28T14:39:16Z</time>
      </trkpt>
      <trkpt lat="45.15361" lon="5.26861">
        <ele>306</ele>
        <time>2022-04-28T14:39:17Z</time>
      </trkpt>
      <trkpt lat="45.15361" lon="5.26861">
        <ele>306</ele>
        <time>2022-04-28T14:39:18Z</time>
      </trkpt>
      <trkpt lat="45.15361" lon="5.26862">
        <ele>306</ele>
        <time>2022-04-28T14:39:19Z</time>
      </trkpt>
      <trkpt lat="45.1536" lon="5.26862">
        <ele>306</ele>
        <time>2022-04-28T14:39:20Z</time>
      </trkpt>
      <trkpt lat="45.1536" lon="5.26862">
        <ele>306</ele>
        <time>2022-04-28T14:39:21Z</time>
      </trkpt>
      <trkpt lat="45.15359" lon="5.26863">
        <ele>306</ele>
        <time>2022-04-28T14:39:22Z</time>
      </trkpt>
      <trkpt lat="45.15359" lon="5.26863">
        <ele>306</ele>
        <time>2022-04-28T14:41:40Z</time>
      </trkpt>
      <trkpt lat="45.15359" lon="5.26863">
        <ele>306</ele>
        <time>2022-04-28T14:41:41Z</time>
      </trkpt>
      <trkpt lat="45.15358" lon="5.26864">
        <ele>306</ele>
        <time>2022-04-28T14:41:42Z</time>
      </trkpt>
      <trkpt lat="45.15355" lon="5.26866">
        <ele>305.9</ele>
        <time>2022-04-28T14:41:43Z</time>
      </trkpt>
      <trkpt lat="45.15352" lon="5.26869">
        <ele>305.8</ele>
        <time>2022-04-28T14:41:44Z</time>
      </trkpt>
      <trkpt lat="45.15349" lon="5.26872">
        <ele>305.8</ele>
        <time>2022-04-28T14:41:45Z</time>
      </trkpt>
      <trkpt lat="45.15344" lon="5.26878">
        <ele>305.6</ele>
        <time>2022-04-28T14:41:47Z</time>
      </trkpt>
      <trkpt lat="45.1534" lon="5.26882">
        <ele>305.5</ele>
        <time>2022-04-28T14:41:48Z</time>
      </trkpt>
      <trkpt lat="45.15336" lon="5.26885">
        <ele>305.4</ele>
        <time>2022-04-28T14:41:49Z</time>
      </trkpt>
      <trkpt lat="45.15326" lon="5.26899">
        <ele>305.2</ele>
        <time>2022-04-28T14:41:50Z</time>
      </trkpt>
      <trkpt lat="45.15321" lon="5.26904">
        <ele>305.1</ele>
        <time>2022-04-28T14:41:51Z</time>
      </trkpt>
      <trkpt lat="45.15317" lon="5.26909">
        <ele>305</ele>
        <time>2022-04-28T14:41:52Z</time>
      </trkpt>
      <trkpt lat="45.15312" lon="5.26914">
        <ele>304.9</ele>
        <time>2022-04-28T14:41:53Z</time>
      </trkpt>
      <trkpt lat="45.15308" lon="5.26918">
        <ele>304.9</ele>
        <time>2022-04-28T14:41:54Z</time>
      </trkpt>
      <trkpt lat="45.15304" lon="5.26923">
        <ele>304.8</ele>
        <time>2022-04-28T14:41:55Z</time>
      </trkpt>
      <trkpt lat="45.153" lon="5.26929">
        <ele>304.7</ele>
        <time>2022-04-28T14:41:56Z</time>
      </trkpt>
      <trkpt lat="45.15295" lon="5.26933">
        <ele>304.6</ele>
        <time>2022-04-28T14:41:57Z</time>
      </trkpt>
      <trkpt lat="45.1529" lon="5.26937">
        <ele>304.6</ele>
        <time>2022-04-28T14:41:58Z</time>
      </trkpt>
      <trkpt lat="45.15286" lon="5.26941">
        <ele>304.5</ele>
        <time>2022-04-28T14:41:59Z</time>
      </trkpt>
      <trkpt lat="45.15282" lon="5.26947">
        <ele>304.5</ele>
        <time>2022-04-28T14:42:00Z</time>
      </trkpt>
      <trkpt lat="45.15278" lon="5.26955">
        <ele>304.4</ele>
        <time>2022-04-28T14:42:01Z</time>
      </trkpt>
      <trkpt lat="45.15274" lon="5.2696">
        <ele>304.3</ele>
        <time>2022-04-28T14:42:02Z</time>
      </trkpt>
      <trkpt lat="45.15269" lon="5.26965">
        <ele>304.2</ele>
        <time>2022-04-28T14:42:03Z</time>
      </trkpt>
      <trkpt lat="45.15264" lon="5.26971">
        <ele>304.2</ele>
        <time>2022-04-28T14:42:04Z</time>
      </trkpt>
      <trkpt lat="45.15259" lon="5.26977">
        <ele>304.1</ele>
        <time>2022-04-28T14:42:05Z</time>
      </trkpt>
      <trkpt lat="45.15254" lon="5.26983">
        <ele>304</ele>
        <time>2022-04-28T14:42:06Z</time>
      </trkpt>
      <trkpt lat="45.15249" lon="5.26989">
        <ele>303.9</ele>
        <time>2022-04-28T14:42:07Z</time>
      </trkpt>
      <trkpt lat="45.15244" lon="5.26994">
        <ele>303.7</ele>
        <time>2022-04-28T14:42:08Z</time>
      </trkpt>
      <trkpt lat="45.15239" lon="5.27">
        <ele>303.6</ele>
        <time>2022-04-28T14:42:09Z</time>
      </trkpt>
      <trkpt lat="45.15234" lon="5.27005">
        <ele>303.5</ele>
        <time>2022-04-28T14:42:10Z</time>
      </trkpt>
      <trkpt lat="45.15228" lon="5.27011">
        <ele>303.3</ele>
        <time>2022-04-28T14:42:11Z</time>
      </trkpt>
      <trkpt lat="45.15223" lon="5.27015">
        <ele>303.2</ele>
        <time>2022-04-28T14:42:12Z</time>
      </trkpt>
      <trkpt lat="45.15218" lon="5.27021">
        <ele>303.1</ele>
        <time>2022-04-28T14:42:13Z</time>
      </trkpt>
      <trkpt lat="45.15213" lon="5.27027">
        <ele>303</ele>
        <time>2022-04-28T14:42:14Z</time>
      </trkpt>
      <trkpt lat="45.15208" lon="5.27032">
        <ele>302.9</ele>
        <time>2022-04-28T14:42:15Z</time>
      </trkpt>
      <trkpt lat="45.15202" lon="5.27038">
        <ele>302.8</ele>
        <time>2022-04-28T14:42:16Z</time>
      </trkpt>
      <trkpt lat="45.15197" lon="5.27043">
        <ele>302.8</ele>
        <time>2022-04-28T14:42:17Z</time>
      </trkpt>
      <trkpt lat="45.15192" lon="5.27048">
        <ele>302.7</ele>
        <time>2022-04-28T14:42:18Z</time>
      </trkpt>
      <trkpt lat="45.15186" lon="5.27053">
        <ele>302.6</ele>
        <time>2022-04-28T14:42:19Z</time>
      </trkpt>
      <trkpt lat="45.1518" lon="5.27059">
        <ele>302.6</ele>
        <time>2022-04-28T14:42:20Z</time>
      </trkpt>
      <trkpt lat="45.15175" lon="5.27063">
        <ele>302.5</ele>
        <time>2022-04-28T14:42:21Z</time>
      </trkpt>
      <trkpt lat="45.1517" lon="5.27069">
        <ele>302.4</ele>
        <time>2022-04-28T14:42:22Z</time>
      </trkpt>
      <trkpt lat="45.15164" lon="5.27074">
        <ele>302.3</ele>
        <time>2022-04-28T14:42:23Z</time>
      </trkpt>
      <trkpt lat="45.15158" lon="5.27079">
        <ele>302.2</ele>
        <time>2022-04-28T14:42:24Z</time>
      </trkpt>
      <trkpt lat="45.15153" lon="5.27084">
        <ele>302.1</ele>
        <time>2022-04-28T14:42:25Z</time>
      </trkpt>
      <trkpt lat="45.15147" lon="5.2709">
        <ele>302</ele>
        <time>2022-04-28T14:42:26Z</time>
      </trkpt>
      <trkpt lat="45.15142" lon="5.27095">
        <ele>301.9</ele>
        <time>2022-04-28T14:42:27Z</time>
      </trkpt>
      <trkpt lat="45.15137" lon="5.271">
        <ele>301.8</ele>
        <time>2022-04-28T14:42:28Z</time>
      </trkpt>
      <trkpt lat="45.15133" lon="5.27105">
        <ele>301.8</ele>
        <time>2022-04-28T14:42:29Z</time>
      </trkpt>
      <trkpt lat="45.15127" lon="5.2711">
        <ele>301.7</ele>
        <time>2022-04-28T14:42:30Z</time>
      </trkpt>
      <trkpt lat="45.15122" lon="5.27116">
        <ele>301.6</ele>
        <time>2022-04-28T14:42:31Z</time>
      </trkpt>
      <trkpt lat="45.15116" lon="5.27121">
        <ele>301.5</ele>
        <time>2022-04-28T14:42:32Z</time>
      </trkpt>
      <trkpt lat="45.15111" lon="5.27127">
        <ele>301.4</ele>
        <time>2022-04-28T14:42:33Z</time>
      </trkpt>
      <trkpt lat="45.15105" lon="5.27133">
        <ele>301.3</ele>
        <time>2022-04-28T14:42:34Z</time>
      </trkpt>
      <trkpt lat="45.151" lon="5.2714">
        <ele>301.2</ele>
        <time>2022-04-28T14:42:35Z</time>
      </trkpt>
      <trkpt lat="45.15094" lon="5.27145">
        <ele>301.1</ele>
        <time>2022-04-28T14:42:36Z</time>
      </trkpt>
      <trkpt lat="45.15088" lon="5.2715">
        <ele>301</ele>
        <time>2022-04-28T14:42:37Z</time>
      </trkpt>
      <trkpt lat="45.15082" lon="5.27155">
        <ele>301</ele>
        <time>2022-04-28T14:42:38Z</time>
      </trkpt>
      <trkpt lat="45.15077" lon="5.2716">
        <ele>300.9</ele>
        <time>2022-04-28T14:42:39Z</time>
      </trkpt>
      <trkpt lat="45.15071" lon="5.27166">
        <ele>300.9</ele>
        <time>2022-04-28T14:42:40Z</time>
      </trkpt>
      <trkpt lat="45.15066" lon="5.27172">
        <ele>300.8</ele>
        <time>2022-04-28T14:42:41Z</time>
      </trkpt>
      <trkpt lat="45.1506" lon="5.27178">
        <ele>300.7</ele>
        <time>2022-04-28T14:42:42Z</time>
      </trkpt>
      <trkpt lat="45.15054" lon="5.27184">
        <ele>300.7</ele>
        <time>2022-04-28T14:42:43Z</time>
      </trkpt>
      <trkpt lat="45.15049" lon="5.2719">
        <ele>300.6</ele>
        <time>2022-04-28T14:42:44Z</time>
      </trkpt>
      <trkpt lat="45.15043" lon="5.27196">
        <ele>300.5</ele>
        <time>2022-04-28T14:42:45Z</time>
      </trkpt>
      <trkpt lat="45.15037" lon="5.27202">
        <ele>300.4</ele>
        <time>2022-04-28T14:42:46Z</time>
      </trkpt>
      <trkpt lat="45.15031" lon="5.27208">
        <ele>300.3</ele>
        <time>2022-04-28T14:42:47Z</time>
      </trkpt>
      <trkpt lat="45.15025" lon="5.27214">
        <ele>300.2</ele>
        <time>2022-04-28T14:42:48Z</time>
      </trkpt>
      <trkpt lat="45.1502" lon="5.27219">
        <ele>300.1</ele>
        <time>2022-04-28T14:42:49Z</time>
      </trkpt>
      <trkpt lat="45.15014" lon="5.27226">
        <ele>300.1</ele>
        <time>2022-04-28T14:42:50Z</time>
      </trkpt>
      <trkpt lat="45.15009" lon="5.27232">
        <ele>300</ele>
        <time>2022-04-28T14:42:51Z</time>
      </trkpt>
      <trkpt lat="45.15003" lon="5.27238">
        <ele>299.9</ele>
        <time>2022-04-28T14:42:52Z</time>
      </trkpt>
      <trkpt lat="45.14996" lon="5.27244">
        <ele>299.8</ele>
        <time>2022-04-28T14:42:53Z</time>
      </trkpt>
      <trkpt lat="45.14991" lon="5.27251">
        <ele>299.7</ele>
        <time>2022-04-28T14:42:54Z</time>
      </trkpt>
      <trkpt lat="45.14985" lon="5.27258">
        <ele>299.7</ele>
        <time>2022-04-28T14:42:55Z</time>
      </trkpt>
      <trkpt lat="45.1498" lon="5.27263">
        <ele>299.6</ele>
        <time>2022-04-28T14:42:56Z</time>
      </trkpt>
      <trkpt lat="45.14974" lon="5.27269">
        <ele>299.6</ele>
        <time>2022-04-28T14:42:57Z</time>
      </trkpt>
      <trkpt lat="45.14968" lon="5.27275">
        <ele>299.6</ele>
        <time>2022-04-28T14:42:58Z</time>
      </trkpt>
      <trkpt lat="45.14962" lon="5.27281">
        <ele>299.6</ele>
        <time>2022-04-28T14:42:59Z</time>
      </trkpt>
      <trkpt lat="45.14956" lon="5.27287">
        <ele>299.5</ele>
        <time>2022-04-28T14:43:00Z</time>
      </trkpt>
      <trkpt lat="45.1495" lon="5.27293">
        <ele>299.5</ele>
        <time>2022-04-28T14:43:01Z</time>
      </trkpt>
      <trkpt lat="45.14945" lon="5.27299">
        <ele>299.5</ele>
        <time>2022-04-28T14:43:02Z</time>
      </trkpt>
      <trkpt lat="45.14939" lon="5.27305">
        <ele>299.4</ele>
        <time>2022-04-28T14:43:03Z</time>
      </trkpt>
      <trkpt lat="45.14933" lon="5.2731">
        <ele>299.3</ele>
        <time>2022-04-28T14:43:04Z</time>
      </trkpt>
      <trkpt lat="45.14927" lon="5.27315">
        <ele>299.3</ele>
        <time>2022-04-28T14:43:05Z</time>
      </trkpt>
      <trkpt lat="45.14921" lon="5.27321">
        <ele>299.2</ele>
        <time>2022-04-28T14:43:06Z</time>
      </trkpt>
      <trkpt lat="45.14915" lon="5.27327">
        <ele>299.1</ele>
        <time>2022-04-28T14:43:07Z</time>
      </trkpt>
      <trkpt lat="45.1491" lon="5.27333">
        <ele>299.1</ele>
        <time>2022-04-28T14:43:08Z</time>
      </trkpt>
      <trkpt lat="45.14905" lon="5.27339">
        <ele>299.1</ele>
        <time>2022-04-28T14:43:09Z</time>
      </trkpt>
      <trkpt lat="45.14899" lon="5.27345">
        <ele>299</ele>
        <time>2022-04-28T14:43:10Z</time>
      </trkpt>
      <trkpt lat="45.14894" lon="5.2735">
        <ele>299</ele>
        <time>2022-04-28T14:43:11Z</time>
      </trkpt>
      <trkpt lat="45.14888" lon="5.27355">
        <ele>299</ele>
        <time>2022-04-28T14:43:12Z</time>
      </trkpt>
      <trkpt lat="45.14882" lon="5.27361">
        <ele>298.9</ele>
        <time>2022-04-28T14:43:13Z</time>
      </trkpt>
      <trkpt lat="45.14876" lon="5.27367">
        <ele>298.9</ele>
        <time>2022-04-28T14:43:14Z</time>
      </trkpt>
      <trkpt lat="45.14871" lon="5.27372">
        <ele>298.9</ele>
        <time>2022-04-28T14:43:15Z</time>
      </trkpt>
      <trkpt lat="45.14865" lon="5.27379">
        <ele>298.9</ele>
        <time>2022-04-28T14:43:16Z</time>
      </trkpt>
      <trkpt lat="45.1486" lon="5.27384">
        <ele>298.9</ele>
        <time>2022-04-28T14:43:17Z</time>
      </trkpt>
      <trkpt lat="45.14854" lon="5.2739">
        <ele>298.8</ele>
        <time>2022-04-28T14:43:18Z</time>
      </trkpt>
      <trkpt lat="45.14849" lon="5.27395">
        <ele>298.8</ele>
        <time>2022-04-28T14:43:19Z</time>
      </trkpt>
      <trkpt lat="45.14843" lon="5.274">
        <ele>298.8</ele>
        <time>2022-04-28T14:43:20Z</time>
      </trkpt>
      <trkpt lat="45.14837" lon="5.27406">
        <ele>298.8</ele>
        <time>2022-04-28T14:43:21Z</time>
      </trkpt>
      <trkpt lat="45.14832" lon="5.27413">
        <ele>298.8</ele>
        <time>2022-04-28T14:43:22Z</time>
      </trkpt>
      <trkpt lat="45.14826" lon="5.27418">
        <ele>298.8</ele>
        <time>2022-04-28T14:43:23Z</time>
      </trkpt>
      <trkpt lat="45.14821" lon="5.27423">
        <ele>298.8</ele>
        <time>2022-04-28T14:43:24Z</time>
      </trkpt>
      <trkpt lat="45.14815" lon="5.27428">
        <ele>298.7</ele>
        <time>2022-04-28T14:43:25Z</time>
      </trkpt>
      <trkpt lat="45.14809" lon="5.27433">
        <ele>298.7</ele>
        <time>2022-04-28T14:43:26Z</time>
      </trkpt>
      <trkpt lat="45.14803" lon="5.27437">
        <ele>298.7</ele>
        <time>2022-04-28T14:43:27Z</time>
      </trkpt>
      <trkpt lat="45.14798" lon="5.27441">
        <ele>298.6</ele>
        <time>2022-04-28T14:43:28Z</time>
      </trkpt>
      <trkpt lat="45.14792" lon="5.27446">
        <ele>298.5</ele>
        <time>2022-04-28T14:43:29Z</time>
      </trkpt>
      <trkpt lat="45.14786" lon="5.2745">
        <ele>298.5</ele>
        <time>2022-04-28T14:43:30Z</time>
      </trkpt>
      <trkpt lat="45.1478" lon="5.27454">
        <ele>298.4</ele>
        <time>2022-04-28T14:43:31Z</time>
      </trkpt>
      <trkpt lat="45.14774" lon="5.27459">
        <ele>298.3</ele>
        <time>2022-04-28T14:43:32Z</time>
      </trkpt>
      <trkpt lat="45.14768" lon="5.27463">
        <ele>298.2</ele>
        <time>2022-04-28T14:43:33Z</time>
      </trkpt>
      <trkpt lat="45.14762" lon="5.27467">
        <ele>298.2</ele>
        <time>2022-04-28T14:43:34Z</time>
      </trkpt>
      <trkpt lat="45.14756" lon="5.27472">
        <ele>298.1</ele>
        <time>2022-04-28T14:43:35Z</time>
      </trkpt>
      <trkpt lat="45.1475" lon="5.27477">
        <ele>298.1</ele>
        <time>2022-04-28T14:43:36Z</time>
      </trkpt>
      <trkpt lat="45.14744" lon="5.27481">
        <ele>298</ele>
        <time>2022-04-28T14:43:37Z</time>
      </trkpt>
      <trkpt lat="45.14737" lon="5.27484">
        <ele>297.9</ele>
        <time>2022-04-28T14:43:38Z</time>
      </trkpt>
      <trkpt lat="45.14731" lon="5.27488">
        <ele>297.8</ele>
        <time>2022-04-28T14:43:39Z</time>
      </trkpt>
      <trkpt lat="45.14724" lon="5.2749">
        <ele>297.7</ele>
        <time>2022-04-28T14:43:40Z</time>
      </trkpt>
      <trkpt lat="45.14717" lon="5.27492">
        <ele>297.5</ele>
        <time>2022-04-28T14:43:41Z</time>
      </trkpt>
      <trkpt lat="45.1471" lon="5.27495">
        <ele>297.3</ele>
        <time>2022-04-28T14:43:42Z</time>
      </trkpt>
      <trkpt lat="45.14703" lon="5.275">
        <ele>297.1</ele>
        <time>2022-04-28T14:43:43Z</time>
      </trkpt>
      <trkpt lat="45.14697" lon="5.27505">
        <ele>296.9</ele>
        <time>2022-04-28T14:43:44Z</time>
      </trkpt>
      <trkpt lat="45.1469" lon="5.27509">
        <ele>296.6</ele>
        <time>2022-04-28T14:43:45Z</time>
      </trkpt>
      <trkpt lat="45.14683" lon="5.27513">
        <ele>296.4</ele>
        <time>2022-04-28T14:43:46Z</time>
      </trkpt>
      <trkpt lat="45.14677" lon="5.27518">
        <ele>296.1</ele>
        <time>2022-04-28T14:43:47Z</time>
      </trkpt>
      <trkpt lat="45.1467" lon="5.27521">
        <ele>295.9</ele>
        <time>2022-04-28T14:43:48Z</time>
      </trkpt>
      <trkpt lat="45.14663" lon="5.27526">
        <ele>295.6</ele>
        <time>2022-04-28T14:43:49Z</time>
      </trkpt>
      <trkpt lat="45.14656" lon="5.27531">
        <ele>295.3</ele>
        <time>2022-04-28T14:43:50Z</time>
      </trkpt>
      <trkpt lat="45.14649" lon="5.27536">
        <ele>295</ele>
        <time>2022-04-28T14:43:51Z</time>
      </trkpt>
      <trkpt lat="45.14642" lon="5.27541">
        <ele>294.8</ele>
        <time>2022-04-28T14:43:52Z</time>
      </trkpt>
      <trkpt lat="45.14636" lon="5.27546">
        <ele>294.5</ele>
        <time>2022-04-28T14:43:53Z</time>
      </trkpt>
      <trkpt lat="45.14629" lon="5.27551">
        <ele>294.2</ele>
        <time>2022-04-28T14:43:54Z</time>
      </trkpt>
      <trkpt lat="45.14622" lon="5.27555">
        <ele>294</ele>
        <time>2022-04-28T14:43:55Z</time>
      </trkpt>
      <trkpt lat="45.14615" lon="5.2756">
        <ele>293.7</ele>
        <time>2022-04-28T14:43:56Z</time>
      </trkpt>
      <trkpt lat="45.14609" lon="5.27564">
        <ele>293.5</ele>
        <time>2022-04-28T14:43:57Z</time>
      </trkpt>
      <trkpt lat="45.14602" lon="5.27568">
        <ele>293.2</ele>
        <time>2022-04-28T14:43:58Z</time>
      </trkpt>
      <trkpt lat="45.14596" lon="5.27573">
        <ele>293</ele>
        <time>2022-04-28T14:43:59Z</time>
      </trkpt>
      <trkpt lat="45.14589" lon="5.27578">
        <ele>292.8</ele>
        <time>2022-04-28T14:44:00Z</time>
      </trkpt>
      <trkpt lat="45.14584" lon="5.27583">
        <ele>292.6</ele>
        <time>2022-04-28T14:44:01Z</time>
      </trkpt>
      <trkpt lat="45.14579" lon="5.2759">
        <ele>292.3</ele>
        <time>2022-04-28T14:44:02Z</time>
      </trkpt>
      <trkpt lat="45.14574" lon="5.27597">
        <ele>292.1</ele>
        <time>2022-04-28T14:44:03Z</time>
      </trkpt>
      <trkpt lat="45.14571" lon="5.27604">
        <ele>291.9</ele>
        <time>2022-04-28T14:44:04Z</time>
      </trkpt>
      <trkpt lat="45.14567" lon="5.27611">
        <ele>291.7</ele>
        <time>2022-04-28T14:44:05Z</time>
      </trkpt>
      <trkpt lat="45.14564" lon="5.27619">
        <ele>291.5</ele>
        <time>2022-04-28T14:44:06Z</time>
      </trkpt>
      <trkpt lat="45.1456" lon="5.27626">
        <ele>291.2</ele>
        <time>2022-04-28T14:44:07Z</time>
      </trkpt>
      <trkpt lat="45.14557" lon="5.27634">
        <ele>291</ele>
        <time>2022-04-28T14:44:08Z</time>
      </trkpt>
      <trkpt lat="45.14554" lon="5.27643">
        <ele>290.8</ele>
        <time>2022-04-28T14:44:09Z</time>
      </trkpt>
      <trkpt lat="45.14551" lon="5.27651">
        <ele>290.7</ele>
        <time>2022-04-28T14:44:10Z</time>
      </trkpt>
      <trkpt lat="45.14548" lon="5.2766">
        <ele>290.5</ele>
        <time>2022-04-28T14:44:11Z</time>
      </trkpt>
      <trkpt lat="45.14545" lon="5.27671">
        <ele>290</ele>
        <time>2022-04-28T14:44:12Z</time>
      </trkpt>
      <trkpt lat="45.14542" lon="5.27681">
        <ele>289.7</ele>
        <time>2022-04-28T14:44:13Z</time>
      </trkpt>
      <trkpt lat="45.1454" lon="5.2769">
        <ele>289.4</ele>
        <time>2022-04-28T14:44:14Z</time>
      </trkpt>
      <trkpt lat="45.14537" lon="5.27701">
        <ele>289.1</ele>
        <time>2022-04-28T14:44:15Z</time>
      </trkpt>
      <trkpt lat="45.14534" lon="5.27711">
        <ele>288.8</ele>
        <time>2022-04-28T14:44:16Z</time>
      </trkpt>
      <trkpt lat="45.14532" lon="5.27722">
        <ele>288.4</ele>
        <time>2022-04-28T14:44:17Z</time>
      </trkpt>
      <trkpt lat="45.14529" lon="5.27733">
        <ele>288.1</ele>
        <time>2022-04-28T14:44:18Z</time>
      </trkpt>
      <trkpt lat="45.14526" lon="5.27744">
        <ele>287.8</ele>
        <time>2022-04-28T14:44:19Z</time>
      </trkpt>
      <trkpt lat="45.14523" lon="5.27754">
        <ele>287.6</ele>
        <time>2022-04-28T14:44:20Z</time>
      </trkpt>
      <trkpt lat="45.1452" lon="5.27765">
        <ele>287.4</ele>
        <time>2022-04-28T14:44:21Z</time>
      </trkpt>
      <trkpt lat="45.14517" lon="5.27774">
        <ele>287.2</ele>
        <time>2022-04-28T14:44:22Z</time>
      </trkpt>
      <trkpt lat="45.14514" lon="5.27784">
        <ele>287</ele>
        <time>2022-04-28T14:44:23Z</time>
      </trkpt>
      <trkpt lat="45.1451" lon="5.27794">
        <ele>286.8</ele>
        <time>2022-04-28T14:44:24Z</time>
      </trkpt>
      <trkpt lat="45.14507" lon="5.27803">
        <ele>286.7</ele>
        <time>2022-04-28T14:44:25Z</time>
      </trkpt>
      <trkpt lat="45.14504" lon="5.27814">
        <ele>286.5</ele>
        <time>2022-04-28T14:44:26Z</time>
      </trkpt>
      <trkpt lat="45.145" lon="5.27824">
        <ele>286.3</ele>
        <time>2022-04-28T14:44:27Z</time>
      </trkpt>
      <trkpt lat="45.14496" lon="5.27835">
        <ele>286.1</ele>
        <time>2022-04-28T14:44:28Z</time>
      </trkpt>
      <trkpt lat="45.14492" lon="5.27845">
        <ele>285.9</ele>
        <time>2022-04-28T14:44:29Z</time>
      </trkpt>
      <trkpt lat="45.14488" lon="5.27854">
        <ele>285.8</ele>
        <time>2022-04-28T14:44:30Z</time>
      </trkpt>
      <trkpt lat="45.14483" lon="5.27863">
        <ele>285.6</ele>
        <time>2022-04-28T14:44:31Z</time>
      </trkpt>
      <trkpt lat="45.14478" lon="5.27873">
        <ele>285.5</ele>
        <time>2022-04-28T14:44:32Z</time>
      </trkpt>
      <trkpt lat="45.14473" lon="5.27881">
        <ele>285.4</ele>
        <time>2022-04-28T14:44:33Z</time>
      </trkpt>
      <trkpt lat="45.14469" lon="5.2789">
        <ele>285.4</ele>
        <time>2022-04-28T14:44:34Z</time>
      </trkpt>
      <trkpt lat="45.14464" lon="5.27899">
        <ele>285.3</ele>
        <time>2022-04-28T14:44:35Z</time>
      </trkpt>
      <trkpt lat="45.1446" lon="5.27908">
        <ele>285.2</ele>
        <time>2022-04-28T14:44:36Z</time>
      </trkpt>
      <trkpt lat="45.14456" lon="5.27916">
        <ele>285.1</ele>
        <time>2022-04-28T14:44:37Z</time>
      </trkpt>
      <trkpt lat="45.14452" lon="5.27926">
        <ele>285</ele>
        <time>2022-04-28T14:44:38Z</time>
      </trkpt>
      <trkpt lat="45.14448" lon="5.27935">
        <ele>284.9</ele>
        <time>2022-04-28T14:44:39Z</time>
      </trkpt>
      <trkpt lat="45.14443" lon="5.27943">
        <ele>284.9</ele>
        <time>2022-04-28T14:44:40Z</time>
      </trkpt>
      <trkpt lat="45.14438" lon="5.27952">
        <ele>284.8</ele>
        <time>2022-04-28T14:44:41Z</time>
      </trkpt>
      <trkpt lat="45.14434" lon="5.27962">
        <ele>284.7</ele>
        <time>2022-04-28T14:44:42Z</time>
      </trkpt>
      <trkpt lat="45.1443" lon="5.27972">
        <ele>284.7</ele>
        <time>2022-04-28T14:44:43Z</time>
      </trkpt>
      <trkpt lat="45.14426" lon="5.27981">
        <ele>284.6</ele>
        <time>2022-04-28T14:44:44Z</time>
      </trkpt>
      <trkpt lat="45.14422" lon="5.27989">
        <ele>284.5</ele>
        <time>2022-04-28T14:44:45Z</time>
      </trkpt>
      <trkpt lat="45.14418" lon="5.27998">
        <ele>284.5</ele>
        <time>2022-04-28T14:44:46Z</time>
      </trkpt>
      <trkpt lat="45.14414" lon="5.28006">
        <ele>284.4</ele>
        <time>2022-04-28T14:44:47Z</time>
      </trkpt>
      <trkpt lat="45.1441" lon="5.28014">
        <ele>284.3</ele>
        <time>2022-04-28T14:44:48Z</time>
      </trkpt>
      <trkpt lat="45.14406" lon="5.28023">
        <ele>284.2</ele>
        <time>2022-04-28T14:44:49Z</time>
      </trkpt>
      <trkpt lat="45.14402" lon="5.2803">
        <ele>284.1</ele>
        <time>2022-04-28T14:44:50Z</time>
      </trkpt>
      <trkpt lat="45.14399" lon="5.28038">
        <ele>284</ele>
        <time>2022-04-28T14:44:51Z</time>
      </trkpt>
      <trkpt lat="45.14395" lon="5.28046">
        <ele>284</ele>
        <time>2022-04-28T14:44:52Z</time>
      </trkpt>
      <trkpt lat="45.14391" lon="5.28055">
        <ele>283.9</ele>
        <time>2022-04-28T14:44:53Z</time>
      </trkpt>
      <trkpt lat="45.14387" lon="5.28064">
        <ele>283.8</ele>
        <time>2022-04-28T14:44:54Z</time>
      </trkpt>
      <trkpt lat="45.14383" lon="5.28073">
        <ele>283.7</ele>
        <time>2022-04-28T14:44:55Z</time>
      </trkpt>
      <trkpt lat="45.14379" lon="5.28081">
        <ele>283.7</ele>
        <time>2022-04-28T14:44:56Z</time>
      </trkpt>
      <trkpt lat="45.14375" lon="5.28089">
        <ele>283.7</ele>
        <time>2022-04-28T14:44:57Z</time>
      </trkpt>
      <trkpt lat="45.14372" lon="5.28097">
        <ele>283.8</ele>
        <time>2022-04-28T14:44:58Z</time>
      </trkpt>
      <trkpt lat="45.14368" lon="5.28102">
        <ele>283.8</ele>
        <time>2022-04-28T14:44:59Z</time>
      </trkpt>
      <trkpt lat="45.14366" lon="5.28107">
        <ele>283.9</ele>
        <time>2022-04-28T14:45:00Z</time>
      </trkpt>
      <trkpt lat="45.14363" lon="5.2811">
        <ele>283.9</ele>
        <time>2022-04-28T14:45:01Z</time>
      </trkpt>
      <trkpt lat="45.14361" lon="5.28111">
        <ele>283.9</ele>
        <time>2022-04-28T14:45:02Z</time>
      </trkpt>
      <trkpt lat="45.1436" lon="5.28114">
        <ele>284</ele>
        <time>2022-04-28T14:45:03Z</time>
      </trkpt>
      <trkpt lat="45.14358" lon="5.28118">
        <ele>284</ele>
        <time>2022-04-28T14:45:04Z</time>
      </trkpt>
      <trkpt lat="45.14358" lon="5.28118">
        <ele>284</ele>
        <time>2022-04-28T14:45:05Z</time>
      </trkpt>
      <trkpt lat="45.14357" lon="5.28125">
        <ele>284.1</ele>
        <time>2022-04-28T14:45:06Z</time>
      </trkpt>
      <trkpt lat="45.14356" lon="5.28128">
        <ele>284.1</ele>
        <time>2022-04-28T14:45:07Z</time>
      </trkpt>
      <trkpt lat="45.14357" lon="5.28132">
        <ele>284.1</ele>
        <time>2022-04-28T14:45:08Z</time>
      </trkpt>
      <trkpt lat="45.14358" lon="5.28137">
        <ele>284.2</ele>
        <time>2022-04-28T14:45:09Z</time>
      </trkpt>
      <trkpt lat="45.14356" lon="5.28148">
        <ele>284.3</ele>
        <time>2022-04-28T14:45:10Z</time>
      </trkpt>
      <trkpt lat="45.14355" lon="5.28154">
        <ele>284.3</ele>
        <time>2022-04-28T14:45:11Z</time>
      </trkpt>
      <trkpt lat="45.14354" lon="5.28163">
        <ele>284.4</ele>
        <time>2022-04-28T14:45:12Z</time>
      </trkpt>
      <trkpt lat="45.14352" lon="5.28169">
        <ele>284.4</ele>
        <time>2022-04-28T14:45:13Z</time>
      </trkpt>
      <trkpt lat="45.14351" lon="5.28176">
        <ele>284.5</ele>
        <time>2022-04-28T14:45:14Z</time>
      </trkpt>
      <trkpt lat="45.1435" lon="5.28183">
        <ele>284.6</ele>
        <time>2022-04-28T14:45:15Z</time>
      </trkpt>
      <trkpt lat="45.14349" lon="5.28191">
        <ele>284.7</ele>
        <time>2022-04-28T14:45:16Z</time>
      </trkpt>
      <trkpt lat="45.14348" lon="5.28198">
        <ele>284.7</ele>
        <time>2022-04-28T14:45:17Z</time>
      </trkpt>
      <trkpt lat="45.14347" lon="5.28205">
        <ele>284.8</ele>
        <time>2022-04-28T14:45:18Z</time>
      </trkpt>
      <trkpt lat="45.14346" lon="5.28212">
        <ele>284.9</ele>
        <time>2022-04-28T14:45:19Z</time>
      </trkpt>
      <trkpt lat="45.14345" lon="5.28219">
        <ele>285</ele>
        <time>2022-04-28T14:45:20Z</time>
      </trkpt>
      <trkpt lat="45.14344" lon="5.28226">
        <ele>285</ele>
        <time>2022-04-28T14:45:21Z</time>
      </trkpt>
      <trkpt lat="45.14344" lon="5.28234">
        <ele>285.1</ele>
        <time>2022-04-28T14:45:22Z</time>
      </trkpt>
      <trkpt lat="45.14344" lon="5.2824">
        <ele>285.2</ele>
        <time>2022-04-28T14:45:23Z</time>
      </trkpt>
      <trkpt lat="45.14343" lon="5.28246">
        <ele>285.3</ele>
        <time>2022-04-28T14:45:24Z</time>
      </trkpt>
      <trkpt lat="45.14343" lon="5.28252">
        <ele>285.4</ele>
        <time>2022-04-28T14:45:26Z</time>
      </trkpt>
      <trkpt lat="45.14343" lon="5.28255">
        <ele>285.4</ele>
        <time>2022-04-28T14:45:27Z</time>
      </trkpt>
      <trkpt lat="45.14344" lon="5.28259">
        <ele>285.5</ele>
        <time>2022-04-28T14:45:28Z</time>
      </trkpt>
      <trkpt lat="45.14343" lon="5.28263">
        <ele>285.4</ele>
        <time>2022-04-28T14:45:29Z</time>
      </trkpt>
      <trkpt lat="45.14342" lon="5.28271">
        <ele>285.4</ele>
        <time>2022-04-28T14:45:31Z</time>
      </trkpt>
      <trkpt lat="45.14337" lon="5.28285">
        <ele>285.3</ele>
        <time>2022-04-28T14:45:32Z</time>
      </trkpt>
      <trkpt lat="45.14334" lon="5.28292">
        <ele>285.3</ele>
        <time>2022-04-28T14:45:33Z</time>
      </trkpt>
      <trkpt lat="45.14331" lon="5.28298">
        <ele>285.2</ele>
        <time>2022-04-28T14:45:34Z</time>
      </trkpt>
      <trkpt lat="45.14329" lon="5.28304">
        <ele>285.2</ele>
        <time>2022-04-28T14:45:35Z</time>
      </trkpt>
      <trkpt lat="45.14326" lon="5.2831">
        <ele>285.1</ele>
        <time>2022-04-28T14:45:36Z</time>
      </trkpt>
      <trkpt lat="45.14323" lon="5.28316">
        <ele>285.1</ele>
        <time>2022-04-28T14:45:37Z</time>
      </trkpt>
      <trkpt lat="45.14321" lon="5.28322">
        <ele>285.1</ele>
        <time>2022-04-28T14:45:38Z</time>
      </trkpt>
      <trkpt lat="45.14318" lon="5.28328">
        <ele>285.1</ele>
        <time>2022-04-28T14:45:39Z</time>
      </trkpt>
      <trkpt lat="45.14315" lon="5.28334">
        <ele>285.1</ele>
        <time>2022-04-28T14:45:40Z</time>
      </trkpt>
      <trkpt lat="45.14312" lon="5.28341">
        <ele>285</ele>
        <time>2022-04-28T14:45:41Z</time>
      </trkpt>
      <trkpt lat="45.1431" lon="5.28347">
        <ele>285</ele>
        <time>2022-04-28T14:45:42Z</time>
      </trkpt>
      <trkpt lat="45.14307" lon="5.28354">
        <ele>285</ele>
        <time>2022-04-28T14:45:43Z</time>
      </trkpt>
      <trkpt lat="45.14305" lon="5.28361">
        <ele>285</ele>
        <time>2022-04-28T14:45:44Z</time>
      </trkpt>
      <trkpt lat="45.14302" lon="5.28368">
        <ele>285</ele>
        <time>2022-04-28T14:45:45Z</time>
      </trkpt>
      <trkpt lat="45.14299" lon="5.28375">
        <ele>285</ele>
        <time>2022-04-28T14:45:46Z</time>
      </trkpt>
      <trkpt lat="45.14296" lon="5.28382">
        <ele>285</ele>
        <time>2022-04-28T14:45:47Z</time>
      </trkpt>
      <trkpt lat="45.14292" lon="5.28389">
        <ele>285</ele>
        <time>2022-04-28T14:45:48Z</time>
      </trkpt>
      <trkpt lat="45.14289" lon="5.28397">
        <ele>285</ele>
        <time>2022-04-28T14:45:49Z</time>
      </trkpt>
      <trkpt lat="45.14287" lon="5.28403">
        <ele>285</ele>
        <time>2022-04-28T14:45:50Z</time>
      </trkpt>
      <trkpt lat="45.14285" lon="5.28411">
        <ele>284.9</ele>
        <time>2022-04-28T14:45:51Z</time>
      </trkpt>
      <trkpt lat="45.14283" lon="5.28419">
        <ele>284.9</ele>
        <time>2022-04-28T14:45:52Z</time>
      </trkpt>
      <trkpt lat="45.1428" lon="5.28425">
        <ele>284.9</ele>
        <time>2022-04-28T14:45:53Z</time>
      </trkpt>
      <trkpt lat="45.14278" lon="5.28432">
        <ele>284.9</ele>
        <time>2022-04-28T14:45:54Z</time>
      </trkpt>
      <trkpt lat="45.14275" lon="5.28439">
        <ele>284.9</ele>
        <time>2022-04-28T14:45:55Z</time>
      </trkpt>
      <trkpt lat="45.14271" lon="5.28446">
        <ele>284.9</ele>
        <time>2022-04-28T14:45:56Z</time>
      </trkpt>
      <trkpt lat="45.14269" lon="5.28451">
        <ele>284.9</ele>
        <time>2022-04-28T14:45:57Z</time>
      </trkpt>
      <trkpt lat="45.14266" lon="5.28458">
        <ele>284.9</ele>
        <time>2022-04-28T14:45:58Z</time>
      </trkpt>
      <trkpt lat="45.14264" lon="5.28465">
        <ele>284.9</ele>
        <time>2022-04-28T14:45:59Z</time>
      </trkpt>
      <trkpt lat="45.1426" lon="5.28471">
        <ele>284.9</ele>
        <time>2022-04-28T14:46:00Z</time>
      </trkpt>
      <trkpt lat="45.14257" lon="5.28476">
        <ele>285</ele>
        <time>2022-04-28T14:46:01Z</time>
      </trkpt>
      <trkpt lat="45.14255" lon="5.28481">
        <ele>285</ele>
        <time>2022-04-28T14:46:02Z</time>
      </trkpt>
      <trkpt lat="45.14252" lon="5.28487">
        <ele>285</ele>
        <time>2022-04-28T14:46:03Z</time>
      </trkpt>
      <trkpt lat="45.14249" lon="5.28494">
        <ele>285</ele>
        <time>2022-04-28T14:46:04Z</time>
      </trkpt>
      <trkpt lat="45.14246" lon="5.285">
        <ele>285.1</ele>
        <time>2022-04-28T14:46:05Z</time>
      </trkpt>
      <trkpt lat="45.14243" lon="5.28506">
        <ele>285</ele>
        <time>2022-04-28T14:46:06Z</time>
      </trkpt>
      <trkpt lat="45.1424" lon="5.28513">
        <ele>285</ele>
        <time>2022-04-28T14:46:07Z</time>
      </trkpt>
      <trkpt lat="45.14239" lon="5.2852">
        <ele>285</ele>
        <time>2022-04-28T14:46:08Z</time>
      </trkpt>
      <trkpt lat="45.14237" lon="5.28527">
        <ele>285</ele>
        <time>2022-04-28T14:46:09Z</time>
      </trkpt>
      <trkpt lat="45.14235" lon="5.28534">
        <ele>285</ele>
        <time>2022-04-28T14:46:10Z</time>
      </trkpt>
      <trkpt lat="45.14234" lon="5.28539">
        <ele>285</ele>
        <time>2022-04-28T14:46:11Z</time>
      </trkpt>
      <trkpt lat="45.14232" lon="5.28545">
        <ele>284.9</ele>
        <time>2022-04-28T14:46:12Z</time>
      </trkpt>
      <trkpt lat="45.1423" lon="5.28551">
        <ele>284.9</ele>
        <time>2022-04-28T14:46:13Z</time>
      </trkpt>
      <trkpt lat="45.1423" lon="5.28555">
        <ele>284.9</ele>
        <time>2022-04-28T14:46:14Z</time>
      </trkpt>
      <trkpt lat="45.14229" lon="5.2856">
        <ele>284.8</ele>
        <time>2022-04-28T14:46:15Z</time>
      </trkpt>
      <trkpt lat="45.14229" lon="5.28566">
        <ele>284.8</ele>
        <time>2022-04-28T14:46:16Z</time>
      </trkpt>
      <trkpt lat="45.14227" lon="5.28571">
        <ele>284.7</ele>
        <time>2022-04-28T14:46:17Z</time>
      </trkpt>
      <trkpt lat="45.14225" lon="5.2858">
        <ele>284.6</ele>
        <time>2022-04-28T14:46:18Z</time>
      </trkpt>
      <trkpt lat="45.14223" lon="5.28588">
        <ele>284.4</ele>
        <time>2022-04-28T14:46:19Z</time>
      </trkpt>
      <trkpt lat="45.14221" lon="5.28597">
        <ele>284.3</ele>
        <time>2022-04-28T14:46:20Z</time>
      </trkpt>
      <trkpt lat="45.14219" lon="5.28606">
        <ele>284.2</ele>
        <time>2022-04-28T14:46:21Z</time>
      </trkpt>
      <trkpt lat="45.14216" lon="5.28614">
        <ele>284</ele>
        <time>2022-04-28T14:46:22Z</time>
      </trkpt>
      <trkpt lat="45.14213" lon="5.28622">
        <ele>283.9</ele>
        <time>2022-04-28T14:46:23Z</time>
      </trkpt>
      <trkpt lat="45.1421" lon="5.28629">
        <ele>283.8</ele>
        <time>2022-04-28T14:46:24Z</time>
      </trkpt>
      <trkpt lat="45.14206" lon="5.28638">
        <ele>283.7</ele>
        <time>2022-04-28T14:46:25Z</time>
      </trkpt>
      <trkpt lat="45.14204" lon="5.28646">
        <ele>283.6</ele>
        <time>2022-04-28T14:46:26Z</time>
      </trkpt>
      <trkpt lat="45.142" lon="5.28654">
        <ele>283.5</ele>
        <time>2022-04-28T14:46:27Z</time>
      </trkpt>
      <trkpt lat="45.14196" lon="5.28662">
        <ele>283.3</ele>
        <time>2022-04-28T14:46:28Z</time>
      </trkpt>
      <trkpt lat="45.14192" lon="5.28669">
        <ele>283.1</ele>
        <time>2022-04-28T14:46:29Z</time>
      </trkpt>
      <trkpt lat="45.14187" lon="5.28676">
        <ele>282.9</ele>
        <time>2022-04-28T14:46:30Z</time>
      </trkpt>
      <trkpt lat="45.14182" lon="5.28684">
        <ele>282.8</ele>
        <time>2022-04-28T14:46:31Z</time>
      </trkpt>
      <trkpt lat="45.14177" lon="5.2869">
        <ele>282.6</ele>
        <time>2022-04-28T14:46:32Z</time>
      </trkpt>
      <trkpt lat="45.14173" lon="5.28697">
        <ele>282.5</ele>
        <time>2022-04-28T14:46:33Z</time>
      </trkpt>
      <trkpt lat="45.14168" lon="5.28705">
        <ele>282.3</ele>
        <time>2022-04-28T14:46:34Z</time>
      </trkpt>
      <trkpt lat="45.14165" lon="5.28711">
        <ele>282.2</ele>
        <time>2022-04-28T14:46:35Z</time>
      </trkpt>
      <trkpt lat="45.14161" lon="5.28718">
        <ele>282</ele>
        <time>2022-04-28T14:46:36Z</time>
      </trkpt>
      <trkpt lat="45.14157" lon="5.28726">
        <ele>281.9</ele>
        <time>2022-04-28T14:46:37Z</time>
      </trkpt>
      <trkpt lat="45.14153" lon="5.28734">
        <ele>281.8</ele>
        <time>2022-04-28T14:46:38Z</time>
      </trkpt>
      <trkpt lat="45.1415" lon="5.28739">
        <ele>281.7</ele>
        <time>2022-04-28T14:46:39Z</time>
      </trkpt>
      <trkpt lat="45.14146" lon="5.28746">
        <ele>281.6</ele>
        <time>2022-04-28T14:46:40Z</time>
      </trkpt>
      <trkpt lat="45.14143" lon="5.28753">
        <ele>281.5</ele>
        <time>2022-04-28T14:46:41Z</time>
      </trkpt>
      <trkpt lat="45.14138" lon="5.28758">
        <ele>281.5</ele>
        <time>2022-04-28T14:46:42Z</time>
      </trkpt>
      <trkpt lat="45.14135" lon="5.28764">
        <ele>281.4</ele>
        <time>2022-04-28T14:46:43Z</time>
      </trkpt>
      <trkpt lat="45.14133" lon="5.28771">
        <ele>281.3</ele>
        <time>2022-04-28T14:46:44Z</time>
      </trkpt>
      <trkpt lat="45.14132" lon="5.28778">
        <ele>281.1</ele>
        <time>2022-04-28T14:46:45Z</time>
      </trkpt>
      <trkpt lat="45.1413" lon="5.28786">
        <ele>281</ele>
        <time>2022-04-28T14:46:46Z</time>
      </trkpt>
      <trkpt lat="45.14129" lon="5.28795">
        <ele>280.8</ele>
        <time>2022-04-28T14:46:47Z</time>
      </trkpt>
      <trkpt lat="45.14128" lon="5.28802">
        <ele>280.7</ele>
        <time>2022-04-28T14:46:48Z</time>
      </trkpt>
      <trkpt lat="45.14126" lon="5.2881">
        <ele>280.5</ele>
        <time>2022-04-28T14:46:49Z</time>
      </trkpt>
      <trkpt lat="45.14125" lon="5.28818">
        <ele>280.4</ele>
        <time>2022-04-28T14:46:50Z</time>
      </trkpt>
      <trkpt lat="45.14125" lon="5.28826">
        <ele>280.3</ele>
        <time>2022-04-28T14:46:51Z</time>
      </trkpt>
      <trkpt lat="45.14124" lon="5.28833">
        <ele>280.2</ele>
        <time>2022-04-28T14:46:52Z</time>
      </trkpt>
      <trkpt lat="45.14123" lon="5.28838">
        <ele>280.2</ele>
        <time>2022-04-28T14:46:53Z</time>
      </trkpt>
      <trkpt lat="45.14122" lon="5.28842">
        <ele>280.1</ele>
        <time>2022-04-28T14:46:54Z</time>
      </trkpt>
      <trkpt lat="45.14122" lon="5.28843">
        <ele>280.1</ele>
        <time>2022-04-28T14:46:55Z</time>
      </trkpt>
      <trkpt lat="45.14122" lon="5.28847">
        <ele>280.1</ele>
        <time>2022-04-28T14:46:56Z</time>
      </trkpt>
      <trkpt lat="45.14122" lon="5.28849">
        <ele>280.1</ele>
        <time>2022-04-28T14:46:57Z</time>
      </trkpt>
      <trkpt lat="45.14122" lon="5.28852">
        <ele>280</ele>
        <time>2022-04-28T14:46:58Z</time>
      </trkpt>
      <trkpt lat="45.14122" lon="5.28854">
        <ele>280</ele>
        <time>2022-04-28T14:46:59Z</time>
      </trkpt>
      <trkpt lat="45.14122" lon="5.28855">
        <ele>280</ele>
        <time>2022-04-28T14:47:00Z</time>
      </trkpt>
      <trkpt lat="45.14122" lon="5.28856">
        <ele>280</ele>
        <time>2022-04-28T14:47:01Z</time>
      </trkpt>
      <trkpt lat="45.14123" lon="5.28857">
        <ele>280</ele>
        <time>2022-04-28T14:47:02Z</time>
      </trkpt>
      <trkpt lat="45.14123" lon="5.28857">
        <ele>280</ele>
        <time>2022-04-28T14:47:03Z</time>
      </trkpt>
      <trkpt lat="45.14123" lon="5.28858">
        <ele>280</ele>
        <time>2022-04-28T14:47:04Z</time>
      </trkpt>
      <trkpt lat="45.14124" lon="5.28859">
        <ele>280</ele>
        <time>2022-04-28T14:47:05Z</time>
      </trkpt>
      <trkpt lat="45.14124" lon="5.28859">
        <ele>280</ele>
        <time>2022-04-28T14:47:06Z</time>
      </trkpt>
      <trkpt lat="45.14124" lon="5.2886">
        <ele>280</ele>
        <time>2022-04-28T14:47:07Z</time>
      </trkpt>
      <trkpt lat="45.14125" lon="5.28861">
        <ele>280</ele>
        <time>2022-04-28T14:47:08Z</time>
      </trkpt>
      <trkpt lat="45.14125" lon="5.28862">
        <ele>279.9</ele>
        <time>2022-04-28T14:47:09Z</time>
      </trkpt>
      <trkpt lat="45.14125" lon="5.28862">
        <ele>279.9</ele>
        <time>2022-04-28T14:47:10Z</time>
      </trkpt>
      <trkpt lat="45.14126" lon="5.28863">
        <ele>279.9</ele>
        <time>2022-04-28T14:47:40Z</time>
      </trkpt>
      <trkpt lat="45.14126" lon="5.28864">
        <ele>279.9</ele>
        <time>2022-04-28T14:47:41Z</time>
      </trkpt>
      <trkpt lat="45.14126" lon="5.28864">
        <ele>279.9</ele>
        <time>2022-04-28T14:47:42Z</time>
      </trkpt>
      <trkpt lat="45.14127" lon="5.2887">
        <ele>279.9</ele>
        <time>2022-04-28T14:47:43Z</time>
      </trkpt>
      <trkpt lat="45.14128" lon="5.28871">
        <ele>279.9</ele>
        <time>2022-04-28T14:47:44Z</time>
      </trkpt>
      <trkpt lat="45.14129" lon="5.28875">
        <ele>279.8</ele>
        <time>2022-04-28T14:47:45Z</time>
      </trkpt>
      <trkpt lat="45.1413" lon="5.2888">
        <ele>279.8</ele>
        <time>2022-04-28T14:47:46Z</time>
      </trkpt>
      <trkpt lat="45.1413" lon="5.28885">
        <ele>279.8</ele>
        <time>2022-04-28T14:47:47Z</time>
      </trkpt>
      <trkpt lat="45.14131" lon="5.2889">
        <ele>279.7</ele>
        <time>2022-04-28T14:47:48Z</time>
      </trkpt>
      <trkpt lat="45.14133" lon="5.28895">
        <ele>279.7</ele>
        <time>2022-04-28T14:47:49Z</time>
      </trkpt>
      <trkpt lat="45.14134" lon="5.289">
        <ele>279.7</ele>
        <time>2022-04-28T14:47:50Z</time>
      </trkpt>
      <trkpt lat="45.14136" lon="5.28905">
        <ele>279.6</ele>
        <time>2022-04-28T14:47:51Z</time>
      </trkpt>
      <trkpt lat="45.14138" lon="5.28909">
        <ele>279.6</ele>
        <time>2022-04-28T14:47:52Z</time>
      </trkpt>
      <trkpt lat="45.1414" lon="5.28914">
        <ele>279.5</ele>
        <time>2022-04-28T14:47:53Z</time>
      </trkpt>
      <trkpt lat="45.14143" lon="5.2892">
        <ele>279.5</ele>
        <time>2022-04-28T14:47:54Z</time>
      </trkpt>
      <trkpt lat="45.14145" lon="5.28925">
        <ele>279.5</ele>
        <time>2022-04-28T14:47:55Z</time>
      </trkpt>
      <trkpt lat="45.14147" lon="5.2893">
        <ele>279.5</ele>
        <time>2022-04-28T14:47:56Z</time>
      </trkpt>
      <trkpt lat="45.14149" lon="5.28937">
        <ele>279.5</ele>
        <time>2022-04-28T14:47:57Z</time>
      </trkpt>
      <trkpt lat="45.1415" lon="5.28944">
        <ele>279.4</ele>
        <time>2022-04-28T14:47:58Z</time>
      </trkpt>
      <trkpt lat="45.14152" lon="5.28951">
        <ele>279.2</ele>
        <time>2022-04-28T14:47:59Z</time>
      </trkpt>
      <trkpt lat="45.14153" lon="5.28958">
        <ele>278.9</ele>
        <time>2022-04-28T14:48:00Z</time>
      </trkpt>
      <trkpt lat="45.14155" lon="5.28963">
        <ele>278.8</ele>
        <time>2022-04-28T14:48:01Z</time>
      </trkpt>
      <trkpt lat="45.14159" lon="5.28968">
        <ele>278.7</ele>
        <time>2022-04-28T14:48:02Z</time>
      </trkpt>
      <trkpt lat="45.14164" lon="5.28972">
        <ele>278.7</ele>
        <time>2022-04-28T14:48:03Z</time>
      </trkpt>
      <trkpt lat="45.14169" lon="5.28976">
        <ele>278.6</ele>
        <time>2022-04-28T14:48:04Z</time>
      </trkpt>
      <trkpt lat="45.14174" lon="5.2898">
        <ele>278.5</ele>
        <time>2022-04-28T14:48:05Z</time>
      </trkpt>
      <trkpt lat="45.14178" lon="5.28986">
        <ele>278.4</ele>
        <time>2022-04-28T14:48:06Z</time>
      </trkpt>
      <trkpt lat="45.14182" lon="5.28993">
        <ele>278.3</ele>
        <time>2022-04-28T14:48:07Z</time>
      </trkpt>
      <trkpt lat="45.14185" lon="5.28999">
        <ele>278.1</ele>
        <time>2022-04-28T14:48:08Z</time>
      </trkpt>
      <trkpt lat="45.14188" lon="5.29006">
        <ele>278</ele>
        <time>2022-04-28T14:48:09Z</time>
      </trkpt>
      <trkpt lat="45.14192" lon="5.29012">
        <ele>277.9</ele>
        <time>2022-04-28T14:48:10Z</time>
      </trkpt>
      <trkpt lat="45.14196" lon="5.29019">
        <ele>277.7</ele>
        <time>2022-04-28T14:48:11Z</time>
      </trkpt>
      <trkpt lat="45.142" lon="5.29025">
        <ele>277.6</ele>
        <time>2022-04-28T14:48:12Z</time>
      </trkpt>
      <trkpt lat="45.14204" lon="5.29032">
        <ele>277.4</ele>
        <time>2022-04-28T14:48:13Z</time>
      </trkpt>
      <trkpt lat="45.14208" lon="5.29039">
        <ele>277.3</ele>
        <time>2022-04-28T14:48:14Z</time>
      </trkpt>
      <trkpt lat="45.14211" lon="5.29045">
        <ele>277.2</ele>
        <time>2022-04-28T14:48:15Z</time>
      </trkpt>
      <trkpt lat="45.14215" lon="5.29051">
        <ele>277.1</ele>
        <time>2022-04-28T14:48:16Z</time>
      </trkpt>
      <trkpt lat="45.14219" lon="5.29057">
        <ele>277</ele>
        <time>2022-04-28T14:48:17Z</time>
      </trkpt>
      <trkpt lat="45.14222" lon="5.29064">
        <ele>276.9</ele>
        <time>2022-04-28T14:48:18Z</time>
      </trkpt>
      <trkpt lat="45.14226" lon="5.2907">
        <ele>276.8</ele>
        <time>2022-04-28T14:48:19Z</time>
      </trkpt>
      <trkpt lat="45.14229" lon="5.29076">
        <ele>276.7</ele>
        <time>2022-04-28T14:48:20Z</time>
      </trkpt>
      <trkpt lat="45.14234" lon="5.29081">
        <ele>276.6</ele>
        <time>2022-04-28T14:48:21Z</time>
      </trkpt>
      <trkpt lat="45.14238" lon="5.29087">
        <ele>276.5</ele>
        <time>2022-04-28T14:48:22Z</time>
      </trkpt>
      <trkpt lat="45.14243" lon="5.29093">
        <ele>276.4</ele>
        <time>2022-04-28T14:48:23Z</time>
      </trkpt>
      <trkpt lat="45.14247" lon="5.291">
        <ele>276.3</ele>
        <time>2022-04-28T14:48:24Z</time>
      </trkpt>
      <trkpt lat="45.14251" lon="5.29107">
        <ele>276.2</ele>
        <time>2022-04-28T14:48:25Z</time>
      </trkpt>
      <trkpt lat="45.14255" lon="5.29114">
        <ele>276.1</ele>
        <time>2022-04-28T14:48:26Z</time>
      </trkpt>
      <trkpt lat="45.14259" lon="5.2912">
        <ele>275.9</ele>
        <time>2022-04-28T14:48:27Z</time>
      </trkpt>
      <trkpt lat="45.14262" lon="5.29127">
        <ele>275.8</ele>
        <time>2022-04-28T14:48:28Z</time>
      </trkpt>
      <trkpt lat="45.14266" lon="5.29133">
        <ele>275.7</ele>
        <time>2022-04-28T14:48:29Z</time>
      </trkpt>
      <trkpt lat="45.14269" lon="5.2914">
        <ele>275.6</ele>
        <time>2022-04-28T14:48:30Z</time>
      </trkpt>
      <trkpt lat="45.14272" lon="5.29145">
        <ele>275.5</ele>
        <time>2022-04-28T14:48:31Z</time>
      </trkpt>
      <trkpt lat="45.14275" lon="5.29151">
        <ele>275.4</ele>
        <time>2022-04-28T14:48:32Z</time>
      </trkpt>
      <trkpt lat="45.14279" lon="5.29156">
        <ele>275.4</ele>
        <time>2022-04-28T14:48:33Z</time>
      </trkpt>
      <trkpt lat="45.14282" lon="5.29162">
        <ele>275.3</ele>
        <time>2022-04-28T14:48:34Z</time>
      </trkpt>
      <trkpt lat="45.14285" lon="5.29168">
        <ele>275.2</ele>
        <time>2022-04-28T14:48:35Z</time>
      </trkpt>
      <trkpt lat="45.14288" lon="5.29174">
        <ele>275.2</ele>
        <time>2022-04-28T14:48:36Z</time>
      </trkpt>
      <trkpt lat="45.14291" lon="5.2918">
        <ele>275.1</ele>
        <time>2022-04-28T14:48:37Z</time>
      </trkpt>
      <trkpt lat="45.14295" lon="5.29185">
        <ele>275.1</ele>
        <time>2022-04-28T14:48:38Z</time>
      </trkpt>
      <trkpt lat="45.14297" lon="5.2919">
        <ele>275</ele>
        <time>2022-04-28T14:48:39Z</time>
      </trkpt>
      <trkpt lat="45.143" lon="5.29195">
        <ele>275</ele>
        <time>2022-04-28T14:48:40Z</time>
      </trkpt>
      <trkpt lat="45.14303" lon="5.292">
        <ele>275</ele>
        <time>2022-04-28T14:48:41Z</time>
      </trkpt>
      <trkpt lat="45.14305" lon="5.29204">
        <ele>274.9</ele>
        <time>2022-04-28T14:48:42Z</time>
      </trkpt>
      <trkpt lat="45.14308" lon="5.2921">
        <ele>274.9</ele>
        <time>2022-04-28T14:48:43Z</time>
      </trkpt>
      <trkpt lat="45.14312" lon="5.29215">
        <ele>274.9</ele>
        <time>2022-04-28T14:48:44Z</time>
      </trkpt>
      <trkpt lat="45.14316" lon="5.29221">
        <ele>274.8</ele>
        <time>2022-04-28T14:48:45Z</time>
      </trkpt>
      <trkpt lat="45.14319" lon="5.29227">
        <ele>274.8</ele>
        <time>2022-04-28T14:48:46Z</time>
      </trkpt>
      <trkpt lat="45.14322" lon="5.29233">
        <ele>274.8</ele>
        <time>2022-04-28T14:48:47Z</time>
      </trkpt>
      <trkpt lat="45.14325" lon="5.29239">
        <ele>274.7</ele>
        <time>2022-04-28T14:48:48Z</time>
      </trkpt>
      <trkpt lat="45.14328" lon="5.29244">
        <ele>274.7</ele>
        <time>2022-04-28T14:48:49Z</time>
      </trkpt>
      <trkpt lat="45.14331" lon="5.2925">
        <ele>274.7</ele>
        <time>2022-04-28T14:48:50Z</time>
      </trkpt>
      <trkpt lat="45.14334" lon="5.29256">
        <ele>274.7</ele>
        <time>2022-04-28T14:48:51Z</time>
      </trkpt>
      <trkpt lat="45.14338" lon="5.29261">
        <ele>274.7</ele>
        <time>2022-04-28T14:48:52Z</time>
      </trkpt>
      <trkpt lat="45.14341" lon="5.29267">
        <ele>274.6</ele>
        <time>2022-04-28T14:48:53Z</time>
      </trkpt>
      <trkpt lat="45.14345" lon="5.29272">
        <ele>274.6</ele>
        <time>2022-04-28T14:48:54Z</time>
      </trkpt>
      <trkpt lat="45.14348" lon="5.29278">
        <ele>274.6</ele>
        <time>2022-04-28T14:48:55Z</time>
      </trkpt>
      <trkpt lat="45.14351" lon="5.29284">
        <ele>274.6</ele>
        <time>2022-04-28T14:48:56Z</time>
      </trkpt>
      <trkpt lat="45.14355" lon="5.29291">
        <ele>274.6</ele>
        <time>2022-04-28T14:48:57Z</time>
      </trkpt>
      <trkpt lat="45.14358" lon="5.29297">
        <ele>274.6</ele>
        <time>2022-04-28T14:48:58Z</time>
      </trkpt>
      <trkpt lat="45.14361" lon="5.29302">
        <ele>274.6</ele>
        <time>2022-04-28T14:48:59Z</time>
      </trkpt>
      <trkpt lat="45.14365" lon="5.29309">
        <ele>274.6</ele>
        <time>2022-04-28T14:49:00Z</time>
      </trkpt>
      <trkpt lat="45.14368" lon="5.29314">
        <ele>274.6</ele>
        <time>2022-04-28T14:49:01Z</time>
      </trkpt>
      <trkpt lat="45.14371" lon="5.2932">
        <ele>274.6</ele>
        <time>2022-04-28T14:49:02Z</time>
      </trkpt>
      <trkpt lat="45.14375" lon="5.29326">
        <ele>274.6</ele>
        <time>2022-04-28T14:49:03Z</time>
      </trkpt>
      <trkpt lat="45.14378" lon="5.29332">
        <ele>274.6</ele>
        <time>2022-04-28T14:49:04Z</time>
      </trkpt>
      <trkpt lat="45.14381" lon="5.29337">
        <ele>274.6</ele>
        <time>2022-04-28T14:49:05Z</time>
      </trkpt>
      <trkpt lat="45.14384" lon="5.29343">
        <ele>274.6</ele>
        <time>2022-04-28T14:49:06Z</time>
      </trkpt>
      <trkpt lat="45.14388" lon="5.29349">
        <ele>274.5</ele>
        <time>2022-04-28T14:49:07Z</time>
      </trkpt>
      <trkpt lat="45.1439" lon="5.29355">
        <ele>274.5</ele>
        <time>2022-04-28T14:49:08Z</time>
      </trkpt>
      <trkpt lat="45.14393" lon="5.2936">
        <ele>274.5</ele>
        <time>2022-04-28T14:49:09Z</time>
      </trkpt>
      <trkpt lat="45.14396" lon="5.29365">
        <ele>274.5</ele>
        <time>2022-04-28T14:49:10Z</time>
      </trkpt>
      <trkpt lat="45.144" lon="5.29371">
        <ele>274.4</ele>
        <time>2022-04-28T14:49:11Z</time>
      </trkpt>
      <trkpt lat="45.14403" lon="5.29376">
        <ele>274.4</ele>
        <time>2022-04-28T14:49:12Z</time>
      </trkpt>
      <trkpt lat="45.14407" lon="5.29382">
        <ele>274.4</ele>
        <time>2022-04-28T14:49:13Z</time>
      </trkpt>
      <trkpt lat="45.1441" lon="5.29388">
        <ele>274.4</ele>
        <time>2022-04-28T14:49:14Z</time>
      </trkpt>
      <trkpt lat="45.14414" lon="5.29394">
        <ele>274.3</ele>
        <time>2022-04-28T14:49:15Z</time>
      </trkpt>
      <trkpt lat="45.14417" lon="5.294">
        <ele>274.3</ele>
        <time>2022-04-28T14:49:16Z</time>
      </trkpt>
      <trkpt lat="45.1442" lon="5.29406">
        <ele>274.3</ele>
        <time>2022-04-28T14:49:17Z</time>
      </trkpt>
      <trkpt lat="45.14423" lon="5.29412">
        <ele>274.3</ele>
        <time>2022-04-28T14:49:18Z</time>
      </trkpt>
      <trkpt lat="45.14426" lon="5.29418">
        <ele>274.3</ele>
        <time>2022-04-28T14:49:19Z</time>
      </trkpt>
      <trkpt lat="45.1443" lon="5.29424">
        <ele>274.3</ele>
        <time>2022-04-28T14:49:20Z</time>
      </trkpt>
      <trkpt lat="45.14433" lon="5.2943">
        <ele>274.3</ele>
        <time>2022-04-28T14:49:21Z</time>
      </trkpt>
      <trkpt lat="45.14436" lon="5.29436">
        <ele>274.3</ele>
        <time>2022-04-28T14:49:22Z</time>
      </trkpt>
      <trkpt lat="45.1444" lon="5.29442">
        <ele>274.4</ele>
        <time>2022-04-28T14:49:23Z</time>
      </trkpt>
      <trkpt lat="45.14443" lon="5.29447">
        <ele>274.4</ele>
        <time>2022-04-28T14:49:24Z</time>
      </trkpt>
      <trkpt lat="45.14446" lon="5.29453">
        <ele>274.4</ele>
        <time>2022-04-28T14:49:25Z</time>
      </trkpt>
      <trkpt lat="45.1445" lon="5.29459">
        <ele>274.5</ele>
        <time>2022-04-28T14:49:26Z</time>
      </trkpt>
      <trkpt lat="45.14456" lon="5.2947">
        <ele>274.5</ele>
        <time>2022-04-28T14:49:28Z</time>
      </trkpt>
      <trkpt lat="45.1446" lon="5.29476">
        <ele>274.6</ele>
        <time>2022-04-28T14:49:29Z</time>
      </trkpt>
      <trkpt lat="45.14464" lon="5.29482">
        <ele>274.6</ele>
        <time>2022-04-28T14:49:30Z</time>
      </trkpt>
      <trkpt lat="45.14467" lon="5.29488">
        <ele>274.7</ele>
        <time>2022-04-28T14:49:31Z</time>
      </trkpt>
      <trkpt lat="45.1447" lon="5.29493">
        <ele>274.7</ele>
        <time>2022-04-28T14:49:32Z</time>
      </trkpt>
      <trkpt lat="45.14473" lon="5.29499">
        <ele>274.7</ele>
        <time>2022-04-28T14:49:33Z</time>
      </trkpt>
      <trkpt lat="45.14477" lon="5.29505">
        <ele>274.8</ele>
        <time>2022-04-28T14:49:34Z</time>
      </trkpt>
      <trkpt lat="45.1448" lon="5.29511">
        <ele>274.8</ele>
        <time>2022-04-28T14:49:35Z</time>
      </trkpt>
      <trkpt lat="45.14483" lon="5.29516">
        <ele>274.8</ele>
        <time>2022-04-28T14:49:36Z</time>
      </trkpt>
      <trkpt lat="45.14486" lon="5.29522">
        <ele>274.8</ele>
        <time>2022-04-28T14:49:37Z</time>
      </trkpt>
      <trkpt lat="45.1449" lon="5.29527">
        <ele>274.9</ele>
        <time>2022-04-28T14:49:38Z</time>
      </trkpt>
      <trkpt lat="45.14493" lon="5.29533">
        <ele>274.9</ele>
        <time>2022-04-28T14:49:39Z</time>
      </trkpt>
      <trkpt lat="45.14496" lon="5.29539">
        <ele>275</ele>
        <time>2022-04-28T14:49:40Z</time>
      </trkpt>
      <trkpt lat="45.14499" lon="5.29544">
        <ele>275</ele>
        <time>2022-04-28T14:49:41Z</time>
      </trkpt>
      <trkpt lat="45.14503" lon="5.2955">
        <ele>275</ele>
        <time>2022-04-28T14:49:42Z</time>
      </trkpt>
      <trkpt lat="45.14506" lon="5.29555">
        <ele>275.1</ele>
        <time>2022-04-28T14:49:43Z</time>
      </trkpt>
      <trkpt lat="45.14508" lon="5.2956">
        <ele>275.1</ele>
        <time>2022-04-28T14:49:44Z</time>
      </trkpt>
      <trkpt lat="45.14511" lon="5.29566">
        <ele>275.1</ele>
        <time>2022-04-28T14:49:45Z</time>
      </trkpt>
      <trkpt lat="45.14514" lon="5.29572">
        <ele>275.2</ele>
        <time>2022-04-28T14:49:46Z</time>
      </trkpt>
      <trkpt lat="45.14517" lon="5.29578">
        <ele>275.2</ele>
        <time>2022-04-28T14:49:47Z</time>
      </trkpt>
      <trkpt lat="45.14519" lon="5.29584">
        <ele>275.2</ele>
        <time>2022-04-28T14:49:48Z</time>
      </trkpt>
      <trkpt lat="45.14522" lon="5.29591">
        <ele>275.1</ele>
        <time>2022-04-28T14:49:49Z</time>
      </trkpt>
      <trkpt lat="45.14524" lon="5.29598">
        <ele>275.1</ele>
        <time>2022-04-28T14:49:50Z</time>
      </trkpt>
      <trkpt lat="45.14526" lon="5.29605">
        <ele>275.1</ele>
        <time>2022-04-28T14:49:51Z</time>
      </trkpt>
      <trkpt lat="45.14528" lon="5.29612">
        <ele>275.1</ele>
        <time>2022-04-28T14:49:52Z</time>
      </trkpt>
      <trkpt lat="45.14529" lon="5.2962">
        <ele>275</ele>
        <time>2022-04-28T14:49:53Z</time>
      </trkpt>
      <trkpt lat="45.1453" lon="5.29628">
        <ele>275</ele>
        <time>2022-04-28T14:49:54Z</time>
      </trkpt>
      <trkpt lat="45.14531" lon="5.29635">
        <ele>275</ele>
        <time>2022-04-28T14:49:55Z</time>
      </trkpt>
      <trkpt lat="45.14532" lon="5.29643">
        <ele>274.9</ele>
        <time>2022-04-28T14:49:56Z</time>
      </trkpt>
      <trkpt lat="45.14533" lon="5.29651">
        <ele>274.9</ele>
        <time>2022-04-28T14:49:57Z</time>
      </trkpt>
      <trkpt lat="45.14534" lon="5.29659">
        <ele>274.8</ele>
        <time>2022-04-28T14:49:58Z</time>
      </trkpt>
      <trkpt lat="45.14534" lon="5.29666">
        <ele>274.8</ele>
        <time>2022-04-28T14:49:59Z</time>
      </trkpt>
      <trkpt lat="45.14535" lon="5.29674">
        <ele>274.8</ele>
        <time>2022-04-28T14:50:00Z</time>
      </trkpt>
      <trkpt lat="45.14536" lon="5.29682">
        <ele>274.8</ele>
        <time>2022-04-28T14:50:01Z</time>
      </trkpt>
      <trkpt lat="45.14536" lon="5.2969">
        <ele>274.7</ele>
        <time>2022-04-28T14:50:02Z</time>
      </trkpt>
      <trkpt lat="45.14537" lon="5.29698">
        <ele>274.7</ele>
        <time>2022-04-28T14:50:03Z</time>
      </trkpt>
      <trkpt lat="45.14538" lon="5.29706">
        <ele>274.7</ele>
        <time>2022-04-28T14:50:04Z</time>
      </trkpt>
      <trkpt lat="45.14539" lon="5.29714">
        <ele>274.6</ele>
        <time>2022-04-28T14:50:05Z</time>
      </trkpt>
      <trkpt lat="45.1454" lon="5.29722">
        <ele>274.6</ele>
        <time>2022-04-28T14:50:06Z</time>
      </trkpt>
      <trkpt lat="45.1454" lon="5.2973">
        <ele>274.6</ele>
        <time>2022-04-28T14:50:07Z</time>
      </trkpt>
      <trkpt lat="45.1454" lon="5.29738">
        <ele>274.6</ele>
        <time>2022-04-28T14:50:08Z</time>
      </trkpt>
      <trkpt lat="45.1454" lon="5.29746">
        <ele>274.5</ele>
        <time>2022-04-28T14:50:09Z</time>
      </trkpt>
      <trkpt lat="45.14541" lon="5.29754">
        <ele>274.5</ele>
        <time>2022-04-28T14:50:10Z</time>
      </trkpt>
      <trkpt lat="45.14542" lon="5.29762">
        <ele>274.5</ele>
        <time>2022-04-28T14:50:11Z</time>
      </trkpt>
      <trkpt lat="45.14542" lon="5.29769">
        <ele>274.5</ele>
        <time>2022-04-28T14:50:12Z</time>
      </trkpt>
      <trkpt lat="45.14544" lon="5.29777">
        <ele>274.5</ele>
        <time>2022-04-28T14:50:13Z</time>
      </trkpt>
      <trkpt lat="45.14545" lon="5.29785">
        <ele>274.5</ele>
        <time>2022-04-28T14:50:14Z</time>
      </trkpt>
      <trkpt lat="45.14546" lon="5.29792">
        <ele>274.5</ele>
        <time>2022-04-28T14:50:15Z</time>
      </trkpt>
      <trkpt lat="45.14546" lon="5.298">
        <ele>274.5</ele>
        <time>2022-04-28T14:50:16Z</time>
      </trkpt>
      <trkpt lat="45.14546" lon="5.29807">
        <ele>274.5</ele>
        <time>2022-04-28T14:50:17Z</time>
      </trkpt>
      <trkpt lat="45.14548" lon="5.29814">
        <ele>274.6</ele>
        <time>2022-04-28T14:50:18Z</time>
      </trkpt>
      <trkpt lat="45.14548" lon="5.29822">
        <ele>274.6</ele>
        <time>2022-04-28T14:50:19Z</time>
      </trkpt>
      <trkpt lat="45.14548" lon="5.29829">
        <ele>274.6</ele>
        <time>2022-04-28T14:50:20Z</time>
      </trkpt>
      <trkpt lat="45.14549" lon="5.29836">
        <ele>274.6</ele>
        <time>2022-04-28T14:50:21Z</time>
      </trkpt>
      <trkpt lat="45.1455" lon="5.29843">
        <ele>274.6</ele>
        <time>2022-04-28T14:50:22Z</time>
      </trkpt>
      <trkpt lat="45.1455" lon="5.2985">
        <ele>274.6</ele>
        <time>2022-04-28T14:50:23Z</time>
      </trkpt>
      <trkpt lat="45.14551" lon="5.29857">
        <ele>274.6</ele>
        <time>2022-04-28T14:50:24Z</time>
      </trkpt>
      <trkpt lat="45.14552" lon="5.29864">
        <ele>274.5</ele>
        <time>2022-04-28T14:50:25Z</time>
      </trkpt>
      <trkpt lat="45.14553" lon="5.29871">
        <ele>274.5</ele>
        <time>2022-04-28T14:50:26Z</time>
      </trkpt>
      <trkpt lat="45.14553" lon="5.29879">
        <ele>274.5</ele>
        <time>2022-04-28T14:50:27Z</time>
      </trkpt>
      <trkpt lat="45.14554" lon="5.29886">
        <ele>274.5</ele>
        <time>2022-04-28T14:50:28Z</time>
      </trkpt>
      <trkpt lat="45.14555" lon="5.29893">
        <ele>274.5</ele>
        <time>2022-04-28T14:50:29Z</time>
      </trkpt>
      <trkpt lat="45.14555" lon="5.299">
        <ele>274.5</ele>
        <time>2022-04-28T14:50:30Z</time>
      </trkpt>
      <trkpt lat="45.14555" lon="5.29908">
        <ele>274.5</ele>
        <time>2022-04-28T14:50:31Z</time>
      </trkpt>
      <trkpt lat="45.14556" lon="5.29915">
        <ele>274.5</ele>
        <time>2022-04-28T14:50:32Z</time>
      </trkpt>
      <trkpt lat="45.14557" lon="5.29922">
        <ele>274.5</ele>
        <time>2022-04-28T14:50:33Z</time>
      </trkpt>
      <trkpt lat="45.14557" lon="5.29929">
        <ele>274.5</ele>
        <time>2022-04-28T14:50:34Z</time>
      </trkpt>
      <trkpt lat="45.14557" lon="5.29936">
        <ele>274.5</ele>
        <time>2022-04-28T14:50:35Z</time>
      </trkpt>
      <trkpt lat="45.14558" lon="5.29943">
        <ele>274.5</ele>
        <time>2022-04-28T14:50:36Z</time>
      </trkpt>
      <trkpt lat="45.14559" lon="5.29949">
        <ele>274.5</ele>
        <time>2022-04-28T14:50:37Z</time>
      </trkpt>
      <trkpt lat="45.1456" lon="5.29956">
        <ele>274.5</ele>
        <time>2022-04-28T14:50:38Z</time>
      </trkpt>
      <trkpt lat="45.1456" lon="5.29963">
        <ele>274.5</ele>
        <time>2022-04-28T14:50:39Z</time>
      </trkpt>
      <trkpt lat="45.1456" lon="5.2997">
        <ele>274.5</ele>
        <time>2022-04-28T14:50:40Z</time>
      </trkpt>
      <trkpt lat="45.1456" lon="5.29977">
        <ele>274.5</ele>
        <time>2022-04-28T14:50:41Z</time>
      </trkpt>
      <trkpt lat="45.14561" lon="5.29985">
        <ele>274.5</ele>
        <time>2022-04-28T14:50:42Z</time>
      </trkpt>
      <trkpt lat="45.14561" lon="5.29992">
        <ele>274.5</ele>
        <time>2022-04-28T14:50:43Z</time>
      </trkpt>
      <trkpt lat="45.14562" lon="5.29999">
        <ele>274.5</ele>
        <time>2022-04-28T14:50:44Z</time>
      </trkpt>
      <trkpt lat="45.14563" lon="5.30007">
        <ele>274.6</ele>
        <time>2022-04-28T14:50:45Z</time>
      </trkpt>
      <trkpt lat="45.14563" lon="5.30015">
        <ele>274.5</ele>
        <time>2022-04-28T14:50:46Z</time>
      </trkpt>
      <trkpt lat="45.14563" lon="5.30023">
        <ele>274.5</ele>
        <time>2022-04-28T14:50:47Z</time>
      </trkpt>
      <trkpt lat="45.14564" lon="5.3003">
        <ele>274.5</ele>
        <time>2022-04-28T14:50:48Z</time>
      </trkpt>
      <trkpt lat="45.14564" lon="5.30038">
        <ele>274.5</ele>
        <time>2022-04-28T14:50:49Z</time>
      </trkpt>
      <trkpt lat="45.14565" lon="5.30046">
        <ele>274.5</ele>
        <time>2022-04-28T14:50:50Z</time>
      </trkpt>
      <trkpt lat="45.14566" lon="5.30054">
        <ele>274.4</ele>
        <time>2022-04-28T14:50:51Z</time>
      </trkpt>
      <trkpt lat="45.14567" lon="5.30061">
        <ele>274.4</ele>
        <time>2022-04-28T14:50:52Z</time>
      </trkpt>
      <trkpt lat="45.14567" lon="5.30069">
        <ele>274.4</ele>
        <time>2022-04-28T14:50:53Z</time>
      </trkpt>
      <trkpt lat="45.14568" lon="5.30077">
        <ele>274.4</ele>
        <time>2022-04-28T14:50:54Z</time>
      </trkpt>
      <trkpt lat="45.14568" lon="5.30084">
        <ele>274.3</ele>
        <time>2022-04-28T14:50:55Z</time>
      </trkpt>
      <trkpt lat="45.14569" lon="5.30092">
        <ele>274.3</ele>
        <time>2022-04-28T14:50:56Z</time>
      </trkpt>
      <trkpt lat="45.1457" lon="5.30099">
        <ele>274.3</ele>
        <time>2022-04-28T14:50:57Z</time>
      </trkpt>
      <trkpt lat="45.1457" lon="5.30107">
        <ele>274.3</ele>
        <time>2022-04-28T14:50:58Z</time>
      </trkpt>
      <trkpt lat="45.14571" lon="5.30114">
        <ele>274.3</ele>
        <time>2022-04-28T14:50:59Z</time>
      </trkpt>
      <trkpt lat="45.14572" lon="5.30122">
        <ele>274.3</ele>
        <time>2022-04-28T14:51:00Z</time>
      </trkpt>
      <trkpt lat="45.14573" lon="5.30129">
        <ele>274.3</ele>
        <time>2022-04-28T14:51:01Z</time>
      </trkpt>
      <trkpt lat="45.14573" lon="5.30137">
        <ele>274.3</ele>
        <time>2022-04-28T14:51:02Z</time>
      </trkpt>
      <trkpt lat="45.14574" lon="5.30145">
        <ele>274.3</ele>
        <time>2022-04-28T14:51:03Z</time>
      </trkpt>
      <trkpt lat="45.14574" lon="5.30152">
        <ele>274.4</ele>
        <time>2022-04-28T14:51:04Z</time>
      </trkpt>
      <trkpt lat="45.14575" lon="5.3016">
        <ele>274.4</ele>
        <time>2022-04-28T14:51:05Z</time>
      </trkpt>
      <trkpt lat="45.14576" lon="5.30167">
        <ele>274.4</ele>
        <time>2022-04-28T14:51:06Z</time>
      </trkpt>
      <trkpt lat="45.14577" lon="5.30174">
        <ele>274.4</ele>
        <time>2022-04-28T14:51:07Z</time>
      </trkpt>
      <trkpt lat="45.14578" lon="5.3018">
        <ele>274.4</ele>
        <time>2022-04-28T14:51:08Z</time>
      </trkpt>
      <trkpt lat="45.1458" lon="5.30187">
        <ele>274.4</ele>
        <time>2022-04-28T14:51:09Z</time>
      </trkpt>
      <trkpt lat="45.14581" lon="5.30195">
        <ele>274.4</ele>
        <time>2022-04-28T14:51:10Z</time>
      </trkpt>
      <trkpt lat="45.14582" lon="5.30202">
        <ele>274.4</ele>
        <time>2022-04-28T14:51:11Z</time>
      </trkpt>
      <trkpt lat="45.14584" lon="5.30209">
        <ele>274.4</ele>
        <time>2022-04-28T14:51:12Z</time>
      </trkpt>
      <trkpt lat="45.14586" lon="5.30216">
        <ele>274.4</ele>
        <time>2022-04-28T14:51:13Z</time>
      </trkpt>
      <trkpt lat="45.14588" lon="5.30223">
        <ele>274.4</ele>
        <time>2022-04-28T14:51:14Z</time>
      </trkpt>
      <trkpt lat="45.1459" lon="5.3023">
        <ele>274.4</ele>
        <time>2022-04-28T14:51:15Z</time>
      </trkpt>
      <trkpt lat="45.14591" lon="5.30237">
        <ele>274.5</ele>
        <time>2022-04-28T14:51:16Z</time>
      </trkpt>
      <trkpt lat="45.14593" lon="5.30244">
        <ele>274.5</ele>
        <time>2022-04-28T14:51:17Z</time>
      </trkpt>
      <trkpt lat="45.14595" lon="5.30251">
        <ele>274.5</ele>
        <time>2022-04-28T14:51:18Z</time>
      </trkpt>
      <trkpt lat="45.14597" lon="5.30258">
        <ele>274.6</ele>
        <time>2022-04-28T14:51:19Z</time>
      </trkpt>
      <trkpt lat="45.14599" lon="5.30264">
        <ele>274.6</ele>
        <time>2022-04-28T14:51:20Z</time>
      </trkpt>
      <trkpt lat="45.14601" lon="5.3027">
        <ele>274.7</ele>
        <time>2022-04-28T14:51:21Z</time>
      </trkpt>
      <trkpt lat="45.14603" lon="5.30276">
        <ele>274.7</ele>
        <time>2022-04-28T14:51:22Z</time>
      </trkpt>
      <trkpt lat="45.14604" lon="5.30282">
        <ele>274.8</ele>
        <time>2022-04-28T14:51:23Z</time>
      </trkpt>
      <trkpt lat="45.14606" lon="5.30289">
        <ele>274.8</ele>
        <time>2022-04-28T14:51:24Z</time>
      </trkpt>
      <trkpt lat="45.14607" lon="5.30295">
        <ele>274.9</ele>
        <time>2022-04-28T14:51:25Z</time>
      </trkpt>
      <trkpt lat="45.14607" lon="5.30301">
        <ele>275</ele>
        <time>2022-04-28T14:51:26Z</time>
      </trkpt>
      <trkpt lat="45.14608" lon="5.30306">
        <ele>275</ele>
        <time>2022-04-28T14:51:27Z</time>
      </trkpt>
      <trkpt lat="45.14609" lon="5.30312">
        <ele>275</ele>
        <time>2022-04-28T14:51:28Z</time>
      </trkpt>
      <trkpt lat="45.14611" lon="5.30318">
        <ele>275.1</ele>
        <time>2022-04-28T14:51:29Z</time>
      </trkpt>
      <trkpt lat="45.14613" lon="5.30324">
        <ele>275.2</ele>
        <time>2022-04-28T14:51:30Z</time>
      </trkpt>
      <trkpt lat="45.14615" lon="5.3033">
        <ele>275.2</ele>
        <time>2022-04-28T14:51:31Z</time>
      </trkpt>
      <trkpt lat="45.14617" lon="5.30334">
        <ele>275.2</ele>
        <time>2022-04-28T14:51:32Z</time>
      </trkpt>
      <trkpt lat="45.1462" lon="5.30341">
        <ele>275.2</ele>
        <time>2022-04-28T14:51:33Z</time>
      </trkpt>
      <trkpt lat="45.14622" lon="5.30348">
        <ele>275.2</ele>
        <time>2022-04-28T14:51:34Z</time>
      </trkpt>
      <trkpt lat="45.14624" lon="5.30355">
        <ele>275.1</ele>
        <time>2022-04-28T14:51:35Z</time>
      </trkpt>
      <trkpt lat="45.14626" lon="5.30362">
        <ele>275.1</ele>
        <time>2022-04-28T14:51:36Z</time>
      </trkpt>
      <trkpt lat="45.14628" lon="5.30369">
        <ele>275.1</ele>
        <time>2022-04-28T14:51:37Z</time>
      </trkpt>
      <trkpt lat="45.1463" lon="5.30376">
        <ele>275.1</ele>
        <time>2022-04-28T14:51:38Z</time>
      </trkpt>
      <trkpt lat="45.14631" lon="5.30382">
        <ele>275.1</ele>
        <time>2022-04-28T14:51:39Z</time>
      </trkpt>
      <trkpt lat="45.14632" lon="5.30388">
        <ele>275</ele>
        <time>2022-04-28T14:51:40Z</time>
      </trkpt>
      <trkpt lat="45.14635" lon="5.30395">
        <ele>275</ele>
        <time>2022-04-28T14:51:41Z</time>
      </trkpt>
      <trkpt lat="45.14637" lon="5.30402">
        <ele>275</ele>
        <time>2022-04-28T14:51:42Z</time>
      </trkpt>
      <trkpt lat="45.14639" lon="5.30408">
        <ele>275</ele>
        <time>2022-04-28T14:51:43Z</time>
      </trkpt>
      <trkpt lat="45.14641" lon="5.30414">
        <ele>275</ele>
        <time>2022-04-28T14:51:44Z</time>
      </trkpt>
      <trkpt lat="45.14643" lon="5.3042">
        <ele>275</ele>
        <time>2022-04-28T14:51:45Z</time>
      </trkpt>
      <trkpt lat="45.14645" lon="5.30426">
        <ele>275.1</ele>
        <time>2022-04-28T14:51:46Z</time>
      </trkpt>
      <trkpt lat="45.14647" lon="5.30432">
        <ele>275.1</ele>
        <time>2022-04-28T14:51:47Z</time>
      </trkpt>
      <trkpt lat="45.14649" lon="5.30438">
        <ele>275.1</ele>
        <time>2022-04-28T14:51:48Z</time>
      </trkpt>
      <trkpt lat="45.14651" lon="5.30442">
        <ele>275.2</ele>
        <time>2022-04-28T14:51:49Z</time>
      </trkpt>
      <trkpt lat="45.14653" lon="5.30448">
        <ele>275.2</ele>
        <time>2022-04-28T14:51:50Z</time>
      </trkpt>
      <trkpt lat="45.14655" lon="5.30454">
        <ele>275.2</ele>
        <time>2022-04-28T14:51:51Z</time>
      </trkpt>
      <trkpt lat="45.14656" lon="5.3046">
        <ele>275.3</ele>
        <time>2022-04-28T14:51:52Z</time>
      </trkpt>
      <trkpt lat="45.14657" lon="5.30465">
        <ele>275.3</ele>
        <time>2022-04-28T14:51:53Z</time>
      </trkpt>
      <trkpt lat="45.14658" lon="5.30471">
        <ele>275.3</ele>
        <time>2022-04-28T14:51:54Z</time>
      </trkpt>
      <trkpt lat="45.14659" lon="5.30477">
        <ele>275.3</ele>
        <time>2022-04-28T14:51:56Z</time>
      </trkpt>
      <trkpt lat="45.14662" lon="5.30484">
        <ele>275.4</ele>
        <time>2022-04-28T14:51:57Z</time>
      </trkpt>
      <trkpt lat="45.14665" lon="5.3049">
        <ele>275.4</ele>
        <time>2022-04-28T14:51:58Z</time>
      </trkpt>
      <trkpt lat="45.14669" lon="5.30501">
        <ele>275.4</ele>
        <time>2022-04-28T14:51:59Z</time>
      </trkpt>
      <trkpt lat="45.14671" lon="5.30507">
        <ele>275.4</ele>
        <time>2022-04-28T14:52:00Z</time>
      </trkpt>
      <trkpt lat="45.14672" lon="5.30513">
        <ele>275.5</ele>
        <time>2022-04-28T14:52:01Z</time>
      </trkpt>
      <trkpt lat="45.14674" lon="5.30519">
        <ele>275.5</ele>
        <time>2022-04-28T14:52:02Z</time>
      </trkpt>
      <trkpt lat="45.14673" lon="5.30524">
        <ele>275.5</ele>
        <time>2022-04-28T14:52:03Z</time>
      </trkpt>
      <trkpt lat="45.14675" lon="5.30531">
        <ele>275.5</ele>
        <time>2022-04-28T14:52:04Z</time>
      </trkpt>
      <trkpt lat="45.14677" lon="5.30537">
        <ele>275.5</ele>
        <time>2022-04-28T14:52:05Z</time>
      </trkpt>
      <trkpt lat="45.1468" lon="5.30543">
        <ele>275.6</ele>
        <time>2022-04-28T14:52:06Z</time>
      </trkpt>
      <trkpt lat="45.14682" lon="5.30549">
        <ele>275.6</ele>
        <time>2022-04-28T14:52:07Z</time>
      </trkpt>
      <trkpt lat="45.14683" lon="5.30555">
        <ele>275.7</ele>
        <time>2022-04-28T14:52:08Z</time>
      </trkpt>
      <trkpt lat="45.14685" lon="5.30561">
        <ele>275.7</ele>
        <time>2022-04-28T14:52:09Z</time>
      </trkpt>
      <trkpt lat="45.14686" lon="5.30566">
        <ele>275.7</ele>
        <time>2022-04-28T14:52:10Z</time>
      </trkpt>
      <trkpt lat="45.14687" lon="5.30572">
        <ele>275.7</ele>
        <time>2022-04-28T14:52:11Z</time>
      </trkpt>
      <trkpt lat="45.14689" lon="5.30578">
        <ele>275.8</ele>
        <time>2022-04-28T14:52:12Z</time>
      </trkpt>
      <trkpt lat="45.14691" lon="5.30583">
        <ele>275.8</ele>
        <time>2022-04-28T14:52:14Z</time>
      </trkpt>
      <trkpt lat="45.14692" lon="5.30588">
        <ele>275.8</ele>
        <time>2022-04-28T14:52:15Z</time>
      </trkpt>
      <trkpt lat="45.14694" lon="5.30596">
        <ele>275.9</ele>
        <time>2022-04-28T14:52:16Z</time>
      </trkpt>
      <trkpt lat="45.14696" lon="5.30604">
        <ele>275.9</ele>
        <time>2022-04-28T14:52:17Z</time>
      </trkpt>
      <trkpt lat="45.14698" lon="5.30615">
        <ele>276</ele>
        <time>2022-04-28T14:52:19Z</time>
      </trkpt>
      <trkpt lat="45.14703" lon="5.30624">
        <ele>276.1</ele>
        <time>2022-04-28T14:52:20Z</time>
      </trkpt>
      <trkpt lat="45.14704" lon="5.30628">
        <ele>276.1</ele>
        <time>2022-04-28T14:52:21Z</time>
      </trkpt>
      <trkpt lat="45.14707" lon="5.30636">
        <ele>276.2</ele>
        <time>2022-04-28T14:52:23Z</time>
      </trkpt>
      <trkpt lat="45.1471" lon="5.30644">
        <ele>276.2</ele>
        <time>2022-04-28T14:52:24Z</time>
      </trkpt>
      <trkpt lat="45.14712" lon="5.3065">
        <ele>276.3</ele>
        <time>2022-04-28T14:52:25Z</time>
      </trkpt>
      <trkpt lat="45.14713" lon="5.30655">
        <ele>276.3</ele>
        <time>2022-04-28T14:52:26Z</time>
      </trkpt>
      <trkpt lat="45.14717" lon="5.30663">
        <ele>276.4</ele>
        <time>2022-04-28T14:52:28Z</time>
      </trkpt>
      <trkpt lat="45.1472" lon="5.3067">
        <ele>276.4</ele>
        <time>2022-04-28T14:52:29Z</time>
      </trkpt>
      <trkpt lat="45.14722" lon="5.30676">
        <ele>276.5</ele>
        <time>2022-04-28T14:52:30Z</time>
      </trkpt>
      <trkpt lat="45.14723" lon="5.30683">
        <ele>276.5</ele>
        <time>2022-04-28T14:52:31Z</time>
      </trkpt>
      <trkpt lat="45.14724" lon="5.30689">
        <ele>276.6</ele>
        <time>2022-04-28T14:52:32Z</time>
      </trkpt>
      <trkpt lat="45.14724" lon="5.30699">
        <ele>276.6</ele>
        <time>2022-04-28T14:52:33Z</time>
      </trkpt>
      <trkpt lat="45.14724" lon="5.30706">
        <ele>276.6</ele>
        <time>2022-04-28T14:52:34Z</time>
      </trkpt>
      <trkpt lat="45.14724" lon="5.30713">
        <ele>276.6</ele>
        <time>2022-04-28T14:52:35Z</time>
      </trkpt>
      <trkpt lat="45.14724" lon="5.3072">
        <ele>276.6</ele>
        <time>2022-04-28T14:52:36Z</time>
      </trkpt>
      <trkpt lat="45.14725" lon="5.30726">
        <ele>276.6</ele>
        <time>2022-04-28T14:52:37Z</time>
      </trkpt>
      <trkpt lat="45.14727" lon="5.30729">
        <ele>276.6</ele>
        <time>2022-04-28T14:52:38Z</time>
      </trkpt>
      <trkpt lat="45.14735" lon="5.30731">
        <ele>276.5</ele>
        <time>2022-04-28T14:52:39Z</time>
      </trkpt>
      <trkpt lat="45.14741" lon="5.30732">
        <ele>276.5</ele>
        <time>2022-04-28T14:52:40Z</time>
      </trkpt>
      <trkpt lat="45.14746" lon="5.30733">
        <ele>276.5</ele>
        <time>2022-04-28T14:52:41Z</time>
      </trkpt>
      <trkpt lat="45.14751" lon="5.30735">
        <ele>276.5</ele>
        <time>2022-04-28T14:52:42Z</time>
      </trkpt>
      <trkpt lat="45.14755" lon="5.30739">
        <ele>276.5</ele>
        <time>2022-04-28T14:52:43Z</time>
      </trkpt>
      <trkpt lat="45.14758" lon="5.30744">
        <ele>276.5</ele>
        <time>2022-04-28T14:52:44Z</time>
      </trkpt>
      <trkpt lat="45.14761" lon="5.3075">
        <ele>276.5</ele>
        <time>2022-04-28T14:52:45Z</time>
      </trkpt>
      <trkpt lat="45.14764" lon="5.30754">
        <ele>276.5</ele>
        <time>2022-04-28T14:52:46Z</time>
      </trkpt>
      <trkpt lat="45.14768" lon="5.30759">
        <ele>276.5</ele>
        <time>2022-04-28T14:52:47Z</time>
      </trkpt>
      <trkpt lat="45.14772" lon="5.30764">
        <ele>276.5</ele>
        <time>2022-04-28T14:52:48Z</time>
      </trkpt>
      <trkpt lat="45.14775" lon="5.30768">
        <ele>276.5</ele>
        <time>2022-04-28T14:52:49Z</time>
      </trkpt>
      <trkpt lat="45.14779" lon="5.30773">
        <ele>276.5</ele>
        <time>2022-04-28T14:52:50Z</time>
      </trkpt>
      <trkpt lat="45.14783" lon="5.30777">
        <ele>276.5</ele>
        <time>2022-04-28T14:52:51Z</time>
      </trkpt>
      <trkpt lat="45.14787" lon="5.30781">
        <ele>276.5</ele>
        <time>2022-04-28T14:52:52Z</time>
      </trkpt>
      <trkpt lat="45.14791" lon="5.30785">
        <ele>276.5</ele>
        <time>2022-04-28T14:52:53Z</time>
      </trkpt>
      <trkpt lat="45.14795" lon="5.30789">
        <ele>276.5</ele>
        <time>2022-04-28T14:52:54Z</time>
      </trkpt>
      <trkpt lat="45.14799" lon="5.30794">
        <ele>276.6</ele>
        <time>2022-04-28T14:52:55Z</time>
      </trkpt>
      <trkpt lat="45.14803" lon="5.30798">
        <ele>276.6</ele>
        <time>2022-04-28T14:52:56Z</time>
      </trkpt>
      <trkpt lat="45.14806" lon="5.30802">
        <ele>276.6</ele>
        <time>2022-04-28T14:52:57Z</time>
      </trkpt>
      <trkpt lat="45.1481" lon="5.30806">
        <ele>276.6</ele>
        <time>2022-04-28T14:52:58Z</time>
      </trkpt>
      <trkpt lat="45.14813" lon="5.30811">
        <ele>276.6</ele>
        <time>2022-04-28T14:52:59Z</time>
      </trkpt>
      <trkpt lat="45.14817" lon="5.30816">
        <ele>276.6</ele>
        <time>2022-04-28T14:53:00Z</time>
      </trkpt>
      <trkpt lat="45.1482" lon="5.30819">
        <ele>276.6</ele>
        <time>2022-04-28T14:53:01Z</time>
      </trkpt>
      <trkpt lat="45.14824" lon="5.30824">
        <ele>276.7</ele>
        <time>2022-04-28T14:53:02Z</time>
      </trkpt>
      <trkpt lat="45.14828" lon="5.30828">
        <ele>276.7</ele>
        <time>2022-04-28T14:53:03Z</time>
      </trkpt>
      <trkpt lat="45.14833" lon="5.30833">
        <ele>276.7</ele>
        <time>2022-04-28T14:53:04Z</time>
      </trkpt>
      <trkpt lat="45.14837" lon="5.30838">
        <ele>276.8</ele>
        <time>2022-04-28T14:53:05Z</time>
      </trkpt>
      <trkpt lat="45.14841" lon="5.30843">
        <ele>276.8</ele>
        <time>2022-04-28T14:53:06Z</time>
      </trkpt>
      <trkpt lat="45.14846" lon="5.30847">
        <ele>276.8</ele>
        <time>2022-04-28T14:53:07Z</time>
      </trkpt>
      <trkpt lat="45.1485" lon="5.30852">
        <ele>276.9</ele>
        <time>2022-04-28T14:53:08Z</time>
      </trkpt>
      <trkpt lat="45.14854" lon="5.30855">
        <ele>276.9</ele>
        <time>2022-04-28T14:53:09Z</time>
      </trkpt>
      <trkpt lat="45.14858" lon="5.3086">
        <ele>276.9</ele>
        <time>2022-04-28T14:53:10Z</time>
      </trkpt>
      <trkpt lat="45.14862" lon="5.30864">
        <ele>276.9</ele>
        <time>2022-04-28T14:53:11Z</time>
      </trkpt>
      <trkpt lat="45.14866" lon="5.30868">
        <ele>277</ele>
        <time>2022-04-28T14:53:12Z</time>
      </trkpt>
      <trkpt lat="45.14869" lon="5.30872">
        <ele>277</ele>
        <time>2022-04-28T14:53:13Z</time>
      </trkpt>
      <trkpt lat="45.14872" lon="5.30876">
        <ele>277</ele>
        <time>2022-04-28T14:53:14Z</time>
      </trkpt>
      <trkpt lat="45.14876" lon="5.3088">
        <ele>277</ele>
        <time>2022-04-28T14:53:15Z</time>
      </trkpt>
      <trkpt lat="45.14879" lon="5.30885">
        <ele>277</ele>
        <time>2022-04-28T14:53:16Z</time>
      </trkpt>
      <trkpt lat="45.14882" lon="5.3089">
        <ele>277.1</ele>
        <time>2022-04-28T14:53:17Z</time>
      </trkpt>
      <trkpt lat="45.14885" lon="5.30895">
        <ele>277.1</ele>
        <time>2022-04-28T14:53:18Z</time>
      </trkpt>
      <trkpt lat="45.14888" lon="5.30899">
        <ele>277.1</ele>
        <time>2022-04-28T14:53:19Z</time>
      </trkpt>
      <trkpt lat="45.14891" lon="5.30904">
        <ele>277.1</ele>
        <time>2022-04-28T14:53:20Z</time>
      </trkpt>
      <trkpt lat="45.14893" lon="5.30909">
        <ele>277.2</ele>
        <time>2022-04-28T14:53:21Z</time>
      </trkpt>
      <trkpt lat="45.14897" lon="5.30914">
        <ele>277.2</ele>
        <time>2022-04-28T14:53:22Z</time>
      </trkpt>
      <trkpt lat="45.149" lon="5.30919">
        <ele>277.2</ele>
        <time>2022-04-28T14:53:23Z</time>
      </trkpt>
      <trkpt lat="45.14902" lon="5.30923">
        <ele>277.2</ele>
        <time>2022-04-28T14:53:24Z</time>
      </trkpt>
      <trkpt lat="45.14904" lon="5.30927">
        <ele>277.3</ele>
        <time>2022-04-28T14:53:25Z</time>
      </trkpt>
      <trkpt lat="45.14906" lon="5.30932">
        <ele>277.3</ele>
        <time>2022-04-28T14:53:26Z</time>
      </trkpt>
      <trkpt lat="45.14908" lon="5.30936">
        <ele>277.3</ele>
        <time>2022-04-28T14:53:27Z</time>
      </trkpt>
      <trkpt lat="45.14911" lon="5.30941">
        <ele>277.3</ele>
        <time>2022-04-28T14:53:28Z</time>
      </trkpt>
      <trkpt lat="45.14914" lon="5.30946">
        <ele>277.4</ele>
        <time>2022-04-28T14:53:29Z</time>
      </trkpt>
      <trkpt lat="45.14919" lon="5.30951">
        <ele>277.4</ele>
        <time>2022-04-28T14:53:31Z</time>
      </trkpt>
      <trkpt lat="45.1492" lon="5.30955">
        <ele>277.4</ele>
        <time>2022-04-28T14:53:32Z</time>
      </trkpt>
      <trkpt lat="45.14923" lon="5.30963">
        <ele>277.5</ele>
        <time>2022-04-28T14:53:33Z</time>
      </trkpt>
      <trkpt lat="45.14925" lon="5.3097">
        <ele>277.5</ele>
        <time>2022-04-28T14:53:34Z</time>
      </trkpt>
      <trkpt lat="45.14928" lon="5.30975">
        <ele>277.5</ele>
        <time>2022-04-28T14:53:35Z</time>
      </trkpt>
      <trkpt lat="45.14931" lon="5.30986">
        <ele>277.6</ele>
        <time>2022-04-28T14:53:37Z</time>
      </trkpt>
      <trkpt lat="45.14934" lon="5.30994">
        <ele>277.6</ele>
        <time>2022-04-28T14:53:38Z</time>
      </trkpt>
      <trkpt lat="45.14936" lon="5.30999">
        <ele>277.7</ele>
        <time>2022-04-28T14:53:39Z</time>
      </trkpt>
      <trkpt lat="45.14938" lon="5.31005">
        <ele>277.7</ele>
        <time>2022-04-28T14:53:40Z</time>
      </trkpt>
      <trkpt lat="45.14941" lon="5.31013">
        <ele>277.7</ele>
        <time>2022-04-28T14:53:42Z</time>
      </trkpt>
      <trkpt lat="45.14942" lon="5.31018">
        <ele>277.7</ele>
        <time>2022-04-28T14:53:43Z</time>
      </trkpt>
      <trkpt lat="45.14944" lon="5.31025">
        <ele>277.8</ele>
        <time>2022-04-28T14:53:44Z</time>
      </trkpt>
      <trkpt lat="45.14946" lon="5.31031">
        <ele>277.8</ele>
        <time>2022-04-28T14:53:45Z</time>
      </trkpt>
      <trkpt lat="45.14948" lon="5.31037">
        <ele>277.8</ele>
        <time>2022-04-28T14:53:46Z</time>
      </trkpt>
      <trkpt lat="45.1495" lon="5.31043">
        <ele>277.8</ele>
        <time>2022-04-28T14:53:47Z</time>
      </trkpt>
      <trkpt lat="45.14952" lon="5.3105">
        <ele>277.9</ele>
        <time>2022-04-28T14:53:48Z</time>
      </trkpt>
      <trkpt lat="45.14953" lon="5.31055">
        <ele>277.9</ele>
        <time>2022-04-28T14:53:49Z</time>
      </trkpt>
      <trkpt lat="45.14955" lon="5.31061">
        <ele>277.9</ele>
        <time>2022-04-28T14:53:50Z</time>
      </trkpt>
      <trkpt lat="45.14956" lon="5.31067">
        <ele>277.9</ele>
        <time>2022-04-28T14:53:51Z</time>
      </trkpt>
      <trkpt lat="45.14959" lon="5.31073">
        <ele>278</ele>
        <time>2022-04-28T14:53:52Z</time>
      </trkpt>
      <trkpt lat="45.14962" lon="5.31081">
        <ele>278</ele>
        <time>2022-04-28T14:53:54Z</time>
      </trkpt>
      <trkpt lat="45.14964" lon="5.31088">
        <ele>278</ele>
        <time>2022-04-28T14:53:55Z</time>
      </trkpt>
      <trkpt lat="45.14968" lon="5.31098">
        <ele>278</ele>
        <time>2022-04-28T14:53:56Z</time>
      </trkpt>
      <trkpt lat="45.1497" lon="5.31104">
        <ele>278.1</ele>
        <time>2022-04-28T14:53:57Z</time>
      </trkpt>
      <trkpt lat="45.14972" lon="5.3111">
        <ele>278.1</ele>
        <time>2022-04-28T14:53:58Z</time>
      </trkpt>
      <trkpt lat="45.14973" lon="5.31117">
        <ele>278.1</ele>
        <time>2022-04-28T14:53:59Z</time>
      </trkpt>
      <trkpt lat="45.14975" lon="5.31123">
        <ele>278.2</ele>
        <time>2022-04-28T14:54:00Z</time>
      </trkpt>
      <trkpt lat="45.14977" lon="5.31129">
        <ele>278.2</ele>
        <time>2022-04-28T14:54:01Z</time>
      </trkpt>
      <trkpt lat="45.14979" lon="5.31135">
        <ele>278.2</ele>
        <time>2022-04-28T14:54:02Z</time>
      </trkpt>
      <trkpt lat="45.1498" lon="5.31142">
        <ele>278.2</ele>
        <time>2022-04-28T14:54:03Z</time>
      </trkpt>
      <trkpt lat="45.14982" lon="5.31148">
        <ele>278.3</ele>
        <time>2022-04-28T14:54:04Z</time>
      </trkpt>
      <trkpt lat="45.14983" lon="5.31154">
        <ele>278.3</ele>
        <time>2022-04-28T14:54:05Z</time>
      </trkpt>
      <trkpt lat="45.14985" lon="5.3116">
        <ele>278.3</ele>
        <time>2022-04-28T14:54:06Z</time>
      </trkpt>
      <trkpt lat="45.14986" lon="5.31167">
        <ele>278.3</ele>
        <time>2022-04-28T14:54:07Z</time>
      </trkpt>
      <trkpt lat="45.14988" lon="5.31174">
        <ele>278.3</ele>
        <time>2022-04-28T14:54:08Z</time>
      </trkpt>
      <trkpt lat="45.1499" lon="5.31181">
        <ele>278.4</ele>
        <time>2022-04-28T14:54:09Z</time>
      </trkpt>
      <trkpt lat="45.14991" lon="5.31187">
        <ele>278.4</ele>
        <time>2022-04-28T14:54:10Z</time>
      </trkpt>
      <trkpt lat="45.14993" lon="5.31194">
        <ele>278.4</ele>
        <time>2022-04-28T14:54:11Z</time>
      </trkpt>
      <trkpt lat="45.14995" lon="5.312">
        <ele>278.4</ele>
        <time>2022-04-28T14:54:12Z</time>
      </trkpt>
      <trkpt lat="45.14997" lon="5.31206">
        <ele>278.5</ele>
        <time>2022-04-28T14:54:13Z</time>
      </trkpt>
      <trkpt lat="45.15" lon="5.31211">
        <ele>278.5</ele>
        <time>2022-04-28T14:54:14Z</time>
      </trkpt>
      <trkpt lat="45.15002" lon="5.31214">
        <ele>278.5</ele>
        <time>2022-04-28T14:54:15Z</time>
      </trkpt>
      <trkpt lat="45.15004" lon="5.31217">
        <ele>278.5</ele>
        <time>2022-04-28T14:54:16Z</time>
      </trkpt>
      <trkpt lat="45.15008" lon="5.31221">
        <ele>278.5</ele>
        <time>2022-04-28T14:54:17Z</time>
      </trkpt>
      <trkpt lat="45.15012" lon="5.31226">
        <ele>278.5</ele>
        <time>2022-04-28T14:54:18Z</time>
      </trkpt>
      <trkpt lat="45.15015" lon="5.31231">
        <ele>278.5</ele>
        <time>2022-04-28T14:54:19Z</time>
      </trkpt>
      <trkpt lat="45.15019" lon="5.31236">
        <ele>278.5</ele>
        <time>2022-04-28T14:54:20Z</time>
      </trkpt>
      <trkpt lat="45.15023" lon="5.31241">
        <ele>278.5</ele>
        <time>2022-04-28T14:54:21Z</time>
      </trkpt>
      <trkpt lat="45.15026" lon="5.31246">
        <ele>278.5</ele>
        <time>2022-04-28T14:54:22Z</time>
      </trkpt>
      <trkpt lat="45.15029" lon="5.31251">
        <ele>278.5</ele>
        <time>2022-04-28T14:54:23Z</time>
      </trkpt>
      <trkpt lat="45.15031" lon="5.31256">
        <ele>278.5</ele>
        <time>2022-04-28T14:54:24Z</time>
      </trkpt>
      <trkpt lat="45.15034" lon="5.31262">
        <ele>278.5</ele>
        <time>2022-04-28T14:54:25Z</time>
      </trkpt>
      <trkpt lat="45.15036" lon="5.31268">
        <ele>278.5</ele>
        <time>2022-04-28T14:54:26Z</time>
      </trkpt>
      <trkpt lat="45.15038" lon="5.31273">
        <ele>278.5</ele>
        <time>2022-04-28T14:54:27Z</time>
      </trkpt>
      <trkpt lat="45.15041" lon="5.31275">
        <ele>278.5</ele>
        <time>2022-04-28T14:54:28Z</time>
      </trkpt>
      <trkpt lat="45.15045" lon="5.31279">
        <ele>278.6</ele>
        <time>2022-04-28T14:54:29Z</time>
      </trkpt>
      <trkpt lat="45.1505" lon="5.31279">
        <ele>278.6</ele>
        <time>2022-04-28T14:54:31Z</time>
      </trkpt>
      <trkpt lat="45.15056" lon="5.31289">
        <ele>278.6</ele>
        <time>2022-04-28T14:54:32Z</time>
      </trkpt>
      <trkpt lat="45.15059" lon="5.31294">
        <ele>278.6</ele>
        <time>2022-04-28T14:54:33Z</time>
      </trkpt>
      <trkpt lat="45.15063" lon="5.31299">
        <ele>278.6</ele>
        <time>2022-04-28T14:54:34Z</time>
      </trkpt>
      <trkpt lat="45.15066" lon="5.31304">
        <ele>278.6</ele>
        <time>2022-04-28T14:54:35Z</time>
      </trkpt>
      <trkpt lat="45.1507" lon="5.31309">
        <ele>278.6</ele>
        <time>2022-04-28T14:54:36Z</time>
      </trkpt>
      <trkpt lat="45.15074" lon="5.31315">
        <ele>278.6</ele>
        <time>2022-04-28T14:54:37Z</time>
      </trkpt>
      <trkpt lat="45.15078" lon="5.31321">
        <ele>278.6</ele>
        <time>2022-04-28T14:54:38Z</time>
      </trkpt>
      <trkpt lat="45.15081" lon="5.31326">
        <ele>278.7</ele>
        <time>2022-04-28T14:54:39Z</time>
      </trkpt>
      <trkpt lat="45.15085" lon="5.31331">
        <ele>278.7</ele>
        <time>2022-04-28T14:54:40Z</time>
      </trkpt>
      <trkpt lat="45.15088" lon="5.31337">
        <ele>278.7</ele>
        <time>2022-04-28T14:54:41Z</time>
      </trkpt>
      <trkpt lat="45.15091" lon="5.31341">
        <ele>278.7</ele>
        <time>2022-04-28T14:54:42Z</time>
      </trkpt>
      <trkpt lat="45.15093" lon="5.31344">
        <ele>278.7</ele>
        <time>2022-04-28T14:54:43Z</time>
      </trkpt>
      <trkpt lat="45.15098" lon="5.31349">
        <ele>278.7</ele>
        <time>2022-04-28T14:54:44Z</time>
      </trkpt>
      <trkpt lat="45.15101" lon="5.31353">
        <ele>278.7</ele>
        <time>2022-04-28T14:54:45Z</time>
      </trkpt>
      <trkpt lat="45.15104" lon="5.31357">
        <ele>278.8</ele>
        <time>2022-04-28T14:54:46Z</time>
      </trkpt>
      <trkpt lat="45.15107" lon="5.31362">
        <ele>278.8</ele>
        <time>2022-04-28T14:54:47Z</time>
      </trkpt>
      <trkpt lat="45.15111" lon="5.31366">
        <ele>278.8</ele>
        <time>2022-04-28T14:54:48Z</time>
      </trkpt>
      <trkpt lat="45.15114" lon="5.3137">
        <ele>278.8</ele>
        <time>2022-04-28T14:54:49Z</time>
      </trkpt>
      <trkpt lat="45.15118" lon="5.31375">
        <ele>278.8</ele>
        <time>2022-04-28T14:54:50Z</time>
      </trkpt>
      <trkpt lat="45.15122" lon="5.31379">
        <ele>278.8</ele>
        <time>2022-04-28T14:54:51Z</time>
      </trkpt>
      <trkpt lat="45.15126" lon="5.31383">
        <ele>278.8</ele>
        <time>2022-04-28T14:54:52Z</time>
      </trkpt>
      <trkpt lat="45.1513" lon="5.31388">
        <ele>278.9</ele>
        <time>2022-04-28T14:54:53Z</time>
      </trkpt>
      <trkpt lat="45.15133" lon="5.31392">
        <ele>278.9</ele>
        <time>2022-04-28T14:54:54Z</time>
      </trkpt>
      <trkpt lat="45.15136" lon="5.31397">
        <ele>278.9</ele>
        <time>2022-04-28T14:54:55Z</time>
      </trkpt>
      <trkpt lat="45.15139" lon="5.31401">
        <ele>278.9</ele>
        <time>2022-04-28T14:54:56Z</time>
      </trkpt>
      <trkpt lat="45.15142" lon="5.31406">
        <ele>279</ele>
        <time>2022-04-28T14:54:57Z</time>
      </trkpt>
      <trkpt lat="45.15146" lon="5.31411">
        <ele>279</ele>
        <time>2022-04-28T14:54:58Z</time>
      </trkpt>
      <trkpt lat="45.15149" lon="5.31417">
        <ele>279</ele>
        <time>2022-04-28T14:54:59Z</time>
      </trkpt>
      <trkpt lat="45.15153" lon="5.31418">
        <ele>279</ele>
        <time>2022-04-28T14:55:00Z</time>
      </trkpt>
      <trkpt lat="45.15158" lon="5.31423">
        <ele>279.1</ele>
        <time>2022-04-28T14:55:01Z</time>
      </trkpt>
      <trkpt lat="45.15161" lon="5.31427">
        <ele>279.1</ele>
        <time>2022-04-28T14:55:02Z</time>
      </trkpt>
      <trkpt lat="45.15164" lon="5.31431">
        <ele>279.1</ele>
        <time>2022-04-28T14:55:03Z</time>
      </trkpt>
      <trkpt lat="45.15167" lon="5.31436">
        <ele>279.1</ele>
        <time>2022-04-28T14:55:04Z</time>
      </trkpt>
      <trkpt lat="45.1517" lon="5.31442">
        <ele>279.1</ele>
        <time>2022-04-28T14:55:05Z</time>
      </trkpt>
      <trkpt lat="45.15173" lon="5.31446">
        <ele>279.2</ele>
        <time>2022-04-28T14:55:06Z</time>
      </trkpt>
      <trkpt lat="45.15176" lon="5.31452">
        <ele>279.2</ele>
        <time>2022-04-28T14:55:07Z</time>
      </trkpt>
      <trkpt lat="45.15178" lon="5.31456">
        <ele>279.2</ele>
        <time>2022-04-28T14:55:08Z</time>
      </trkpt>
      <trkpt lat="45.15182" lon="5.31462">
        <ele>279.2</ele>
        <time>2022-04-28T14:55:09Z</time>
      </trkpt>
      <trkpt lat="45.15186" lon="5.31469">
        <ele>279.3</ele>
        <time>2022-04-28T14:55:10Z</time>
      </trkpt>
      <trkpt lat="45.1519" lon="5.31475">
        <ele>279.3</ele>
        <time>2022-04-28T14:55:11Z</time>
      </trkpt>
      <trkpt lat="45.15193" lon="5.3148">
        <ele>279.3</ele>
        <time>2022-04-28T14:55:12Z</time>
      </trkpt>
      <trkpt lat="45.15197" lon="5.31487">
        <ele>279.3</ele>
        <time>2022-04-28T14:55:13Z</time>
      </trkpt>
      <trkpt lat="45.152" lon="5.31491">
        <ele>279.4</ele>
        <time>2022-04-28T14:55:14Z</time>
      </trkpt>
      <trkpt lat="45.15204" lon="5.31495">
        <ele>279.4</ele>
        <time>2022-04-28T14:55:15Z</time>
      </trkpt>
      <trkpt lat="45.15207" lon="5.31499">
        <ele>279.4</ele>
        <time>2022-04-28T14:55:16Z</time>
      </trkpt>
      <trkpt lat="45.1521" lon="5.31501">
        <ele>279.4</ele>
        <time>2022-04-28T14:55:17Z</time>
      </trkpt>
      <trkpt lat="45.15213" lon="5.31505">
        <ele>279.5</ele>
        <time>2022-04-28T14:55:18Z</time>
      </trkpt>
      <trkpt lat="45.15217" lon="5.3151">
        <ele>279.5</ele>
        <time>2022-04-28T14:55:19Z</time>
      </trkpt>
      <trkpt lat="45.15221" lon="5.31515">
        <ele>279.5</ele>
        <time>2022-04-28T14:55:20Z</time>
      </trkpt>
      <trkpt lat="45.15225" lon="5.3152">
        <ele>279.6</ele>
        <time>2022-04-28T14:55:21Z</time>
      </trkpt>
      <trkpt lat="45.15228" lon="5.31525">
        <ele>279.6</ele>
        <time>2022-04-28T14:55:22Z</time>
      </trkpt>
      <trkpt lat="45.1523" lon="5.31529">
        <ele>279.6</ele>
        <time>2022-04-28T14:55:23Z</time>
      </trkpt>
      <trkpt lat="45.15233" lon="5.31533">
        <ele>279.7</ele>
        <time>2022-04-28T14:55:24Z</time>
      </trkpt>
      <trkpt lat="45.15237" lon="5.31538">
        <ele>279.7</ele>
        <time>2022-04-28T14:55:25Z</time>
      </trkpt>
      <trkpt lat="45.1524" lon="5.31543">
        <ele>279.7</ele>
        <time>2022-04-28T14:55:26Z</time>
      </trkpt>
      <trkpt lat="45.15244" lon="5.31547">
        <ele>279.8</ele>
        <time>2022-04-28T14:55:27Z</time>
      </trkpt>
      <trkpt lat="45.15248" lon="5.31552">
        <ele>279.8</ele>
        <time>2022-04-28T14:55:28Z</time>
      </trkpt>
      <trkpt lat="45.15251" lon="5.31556">
        <ele>279.8</ele>
        <time>2022-04-28T14:55:29Z</time>
      </trkpt>
      <trkpt lat="45.15254" lon="5.31561">
        <ele>279.9</ele>
        <time>2022-04-28T14:55:30Z</time>
      </trkpt>
      <trkpt lat="45.15258" lon="5.31567">
        <ele>279.9</ele>
        <time>2022-04-28T14:55:31Z</time>
      </trkpt>
      <trkpt lat="45.15262" lon="5.31572">
        <ele>280</ele>
        <time>2022-04-28T14:55:32Z</time>
      </trkpt>
      <trkpt lat="45.15265" lon="5.31577">
        <ele>280</ele>
        <time>2022-04-28T14:55:33Z</time>
      </trkpt>
      <trkpt lat="45.15269" lon="5.31581">
        <ele>280.1</ele>
        <time>2022-04-28T14:55:34Z</time>
      </trkpt>
      <trkpt lat="45.15272" lon="5.31585">
        <ele>280.1</ele>
        <time>2022-04-28T14:55:35Z</time>
      </trkpt>
      <trkpt lat="45.15276" lon="5.31588">
        <ele>280.2</ele>
        <time>2022-04-28T14:55:36Z</time>
      </trkpt>
      <trkpt lat="45.1528" lon="5.31593">
        <ele>280.2</ele>
        <time>2022-04-28T14:55:37Z</time>
      </trkpt>
      <trkpt lat="45.15284" lon="5.31599">
        <ele>280.3</ele>
        <time>2022-04-28T14:55:38Z</time>
      </trkpt>
      <trkpt lat="45.15287" lon="5.31604">
        <ele>280.3</ele>
        <time>2022-04-28T14:55:39Z</time>
      </trkpt>
      <trkpt lat="45.1529" lon="5.31609">
        <ele>280.4</ele>
        <time>2022-04-28T14:55:40Z</time>
      </trkpt>
      <trkpt lat="45.15294" lon="5.31615">
        <ele>280.5</ele>
        <time>2022-04-28T14:55:41Z</time>
      </trkpt>
      <trkpt lat="45.15297" lon="5.3162">
        <ele>280.5</ele>
        <time>2022-04-28T14:55:42Z</time>
      </trkpt>
      <trkpt lat="45.15301" lon="5.31624">
        <ele>280.6</ele>
        <time>2022-04-28T14:55:43Z</time>
      </trkpt>
      <trkpt lat="45.15304" lon="5.31627">
        <ele>280.6</ele>
        <time>2022-04-28T14:55:44Z</time>
      </trkpt>
      <trkpt lat="45.15308" lon="5.31631">
        <ele>280.7</ele>
        <time>2022-04-28T14:55:45Z</time>
      </trkpt>
      <trkpt lat="45.15311" lon="5.31636">
        <ele>280.7</ele>
        <time>2022-04-28T14:55:46Z</time>
      </trkpt>
      <trkpt lat="45.15315" lon="5.3164">
        <ele>280.8</ele>
        <time>2022-04-28T14:55:47Z</time>
      </trkpt>
      <trkpt lat="45.15318" lon="5.31644">
        <ele>280.9</ele>
        <time>2022-04-28T14:55:48Z</time>
      </trkpt>
      <trkpt lat="45.15321" lon="5.31648">
        <ele>280.9</ele>
        <time>2022-04-28T14:55:49Z</time>
      </trkpt>
      <trkpt lat="45.15323" lon="5.31652">
        <ele>281</ele>
        <time>2022-04-28T14:55:50Z</time>
      </trkpt>
      <trkpt lat="45.15326" lon="5.31656">
        <ele>281.1</ele>
        <time>2022-04-28T14:55:51Z</time>
      </trkpt>
      <trkpt lat="45.1533" lon="5.3166">
        <ele>281.1</ele>
        <time>2022-04-28T14:55:52Z</time>
      </trkpt>
      <trkpt lat="45.15332" lon="5.31663">
        <ele>281.2</ele>
        <time>2022-04-28T14:55:53Z</time>
      </trkpt>
      <trkpt lat="45.15336" lon="5.31668">
        <ele>281.3</ele>
        <time>2022-04-28T14:55:54Z</time>
      </trkpt>
      <trkpt lat="45.15339" lon="5.31673">
        <ele>281.4</ele>
        <time>2022-04-28T14:55:55Z</time>
      </trkpt>
      <trkpt lat="45.15341" lon="5.31677">
        <ele>281.5</ele>
        <time>2022-04-28T14:55:56Z</time>
      </trkpt>
      <trkpt lat="45.15345" lon="5.31677">
        <ele>281.6</ele>
        <time>2022-04-28T14:55:58Z</time>
      </trkpt>
      <trkpt lat="45.15349" lon="5.31683">
        <ele>281.7</ele>
        <time>2022-04-28T14:55:59Z</time>
      </trkpt>
      <trkpt lat="45.15354" lon="5.31691">
        <ele>281.9</ele>
        <time>2022-04-28T14:56:00Z</time>
      </trkpt>
      <trkpt lat="45.15356" lon="5.31696">
        <ele>282</ele>
        <time>2022-04-28T14:56:01Z</time>
      </trkpt>
      <trkpt lat="45.15361" lon="5.31703">
        <ele>282.1</ele>
        <time>2022-04-28T14:56:03Z</time>
      </trkpt>
      <trkpt lat="45.15365" lon="5.31708">
        <ele>282.2</ele>
        <time>2022-04-28T14:56:04Z</time>
      </trkpt>
      <trkpt lat="45.15371" lon="5.31715">
        <ele>282.3</ele>
        <time>2022-04-28T14:56:06Z</time>
      </trkpt>
      <trkpt lat="45.15374" lon="5.31719">
        <ele>282.4</ele>
        <time>2022-04-28T14:56:07Z</time>
      </trkpt>
      <trkpt lat="45.15376" lon="5.31721">
        <ele>282.5</ele>
        <time>2022-04-28T14:56:08Z</time>
      </trkpt>
      <trkpt lat="45.15379" lon="5.31723">
        <ele>282.5</ele>
        <time>2022-04-28T14:56:09Z</time>
      </trkpt>
      <trkpt lat="45.15381" lon="5.31726">
        <ele>282.6</ele>
        <time>2022-04-28T14:56:10Z</time>
      </trkpt>
      <trkpt lat="45.15383" lon="5.31728">
        <ele>282.7</ele>
        <time>2022-04-28T14:56:11Z</time>
      </trkpt>
      <trkpt lat="45.15386" lon="5.3173">
        <ele>282.7</ele>
        <time>2022-04-28T14:56:12Z</time>
      </trkpt>
      <trkpt lat="45.15387" lon="5.31731">
        <ele>282.7</ele>
        <time>2022-04-28T14:56:13Z</time>
      </trkpt>
      <trkpt lat="45.15387" lon="5.31733">
        <ele>282.8</ele>
        <time>2022-04-28T14:56:14Z</time>
      </trkpt>
      <trkpt lat="45.15387" lon="5.31736">
        <ele>282.8</ele>
        <time>2022-04-28T14:56:15Z</time>
      </trkpt>
      <trkpt lat="45.15387" lon="5.31737">
        <ele>282.8</ele>
        <time>2022-04-28T14:56:16Z</time>
      </trkpt>
      <trkpt lat="45.15387" lon="5.31738">
        <ele>282.9</ele>
        <time>2022-04-28T14:56:17Z</time>
      </trkpt>
      <trkpt lat="45.15387" lon="5.31739">
        <ele>282.9</ele>
        <time>2022-04-28T14:56:18Z</time>
      </trkpt>
      <trkpt lat="45.15387" lon="5.3174">
        <ele>282.9</ele>
        <time>2022-04-28T14:56:19Z</time>
      </trkpt>
      <trkpt lat="45.15387" lon="5.31741">
        <ele>282.9</ele>
        <time>2022-04-28T14:56:20Z</time>
      </trkpt>
      <trkpt lat="45.15387" lon="5.3174">
        <ele>282.9</ele>
        <time>2022-04-28T14:56:21Z</time>
      </trkpt>
      <trkpt lat="45.15387" lon="5.3174">
        <ele>282.9</ele>
        <time>2022-04-28T14:56:22Z</time>
      </trkpt>
      <trkpt lat="45.15387" lon="5.31739">
        <ele>282.9</ele>
        <time>2022-04-28T14:56:23Z</time>
      </trkpt>
      <trkpt lat="45.15387" lon="5.3174">
        <ele>282.9</ele>
        <time>2022-04-28T14:56:24Z</time>
      </trkpt>
      <trkpt lat="45.15387" lon="5.31741">
        <ele>282.9</ele>
        <time>2022-04-28T14:56:25Z</time>
      </trkpt>
      <trkpt lat="45.15387" lon="5.31742">
        <ele>283</ele>
        <time>2022-04-28T14:56:26Z</time>
      </trkpt>
      <trkpt lat="45.15387" lon="5.31743">
        <ele>283</ele>
        <time>2022-04-28T14:56:27Z</time>
      </trkpt>
      <trkpt lat="45.15387" lon="5.31744">
        <ele>283</ele>
        <time>2022-04-28T14:56:28Z</time>
      </trkpt>
      <trkpt lat="45.15387" lon="5.31744">
        <ele>283.5</ele>
        <time>2022-04-28T14:56:29Z</time>
      </trkpt>
      <trkpt lat="45.15387" lon="5.31745">
        <ele>283.5</ele>
        <time>2022-04-28T14:56:30Z</time>
      </trkpt>
      <trkpt lat="45.15387" lon="5.31746">
        <ele>283.5</ele>
        <time>2022-04-28T14:56:31Z</time>
      </trkpt>
      <trkpt lat="45.15386" lon="5.31748">
        <ele>283.5</ele>
        <time>2022-04-28T14:56:32Z</time>
      </trkpt>
      <trkpt lat="45.15385" lon="5.31749">
        <ele>283.5</ele>
        <time>2022-04-28T14:56:33Z</time>
      </trkpt>
      <trkpt lat="45.15385" lon="5.31749">
        <ele>283.5</ele>
        <time>2022-04-28T14:56:34Z</time>
      </trkpt>
      <trkpt lat="45.15385" lon="5.31749">
        <ele>283.5</ele>
        <time>2022-04-28T14:56:35Z</time>
      </trkpt>
      <trkpt lat="45.15385" lon="5.31749">
        <ele>283.5</ele>
        <time>2022-04-28T14:56:36Z</time>
      </trkpt>
      <trkpt lat="45.15385" lon="5.31749">
        <ele>283.5</ele>
        <time>2022-04-28T14:56:37Z</time>
      </trkpt>
      <trkpt lat="45.15384" lon="5.31749">
        <ele>283.5</ele>
        <time>2022-04-28T14:56:38Z</time>
      </trkpt>
      <trkpt lat="45.15384" lon="5.31749">
        <ele>283.5</ele>
        <time>2022-04-28T14:56:39Z</time>
      </trkpt>
      <trkpt lat="45.15384" lon="5.31749">
        <ele>283.5</ele>
        <time>2022-04-28T14:56:40Z</time>
      </trkpt>
      <trkpt lat="45.15384" lon="5.3175">
        <ele>283.5</ele>
        <time>2022-04-28T14:56:41Z</time>
      </trkpt>
      <trkpt lat="45.15384" lon="5.3175">
        <ele>283.5</ele>
        <time>2022-04-28T14:56:42Z</time>
      </trkpt>
      <trkpt lat="45.15384" lon="5.3175">
        <ele>283.5</ele>
        <time>2022-04-28T14:56:43Z</time>
      </trkpt>
      <trkpt lat="45.15384" lon="5.3175">
        <ele>283.5</ele>
        <time>2022-04-28T14:56:45Z</time>
      </trkpt>
      <trkpt lat="45.15383" lon="5.3175">
        <ele>283.5</ele>
        <time>2022-04-28T14:56:46Z</time>
      </trkpt>
      <trkpt lat="45.15383" lon="5.31751">
        <ele>283.5</ele>
        <time>2022-04-28T14:56:47Z</time>
      </trkpt>
      <trkpt lat="45.15383" lon="5.31752">
        <ele>283.5</ele>
        <time>2022-04-28T14:56:48Z</time>
      </trkpt>
      <trkpt lat="45.15382" lon="5.31752">
        <ele>283.5</ele>
        <time>2022-04-28T14:56:49Z</time>
      </trkpt>
      <trkpt lat="45.15381" lon="5.31753">
        <ele>283.5</ele>
        <time>2022-04-28T14:56:50Z</time>
      </trkpt>
      <trkpt lat="45.15381" lon="5.31753">
        <ele>283.5</ele>
        <time>2022-04-28T14:56:51Z</time>
      </trkpt>
      <trkpt lat="45.1538" lon="5.31754">
        <ele>283.5</ele>
        <time>2022-04-28T14:56:52Z</time>
      </trkpt>
      <trkpt lat="45.15378" lon="5.31754">
        <ele>283.4</ele>
        <time>2022-04-28T14:56:53Z</time>
      </trkpt>
      <trkpt lat="45.15377" lon="5.31754">
        <ele>283.4</ele>
        <time>2022-04-28T14:56:54Z</time>
      </trkpt>
      <trkpt lat="45.15376" lon="5.31754">
        <ele>283.4</ele>
        <time>2022-04-28T14:56:55Z</time>
      </trkpt>
      <trkpt lat="45.15374" lon="5.31754">
        <ele>283.4</ele>
        <time>2022-04-28T14:56:56Z</time>
      </trkpt>
      <trkpt lat="45.15372" lon="5.31755">
        <ele>283.4</ele>
        <time>2022-04-28T14:56:57Z</time>
      </trkpt>
      <trkpt lat="45.15368" lon="5.31754">
        <ele>283.4</ele>
        <time>2022-04-28T14:56:59Z</time>
      </trkpt>
      <trkpt lat="45.15364" lon="5.31755">
        <ele>283.3</ele>
        <time>2022-04-28T14:57:00Z</time>
      </trkpt>
      <trkpt lat="45.15362" lon="5.31755">
        <ele>283.3</ele>
        <time>2022-04-28T14:57:01Z</time>
      </trkpt>
      <trkpt lat="45.15358" lon="5.31754">
        <ele>283.3</ele>
        <time>2022-04-28T14:57:02Z</time>
      </trkpt>
      <trkpt lat="45.15352" lon="5.31754">
        <ele>283.2</ele>
        <time>2022-04-28T14:57:04Z</time>
      </trkpt>
      <trkpt lat="45.15347" lon="5.31753">
        <ele>283.2</ele>
        <time>2022-04-28T14:57:05Z</time>
      </trkpt>
      <trkpt lat="45.15342" lon="5.31753">
        <ele>283.2</ele>
        <time>2022-04-28T14:57:06Z</time>
      </trkpt>
      <trkpt lat="45.15338" lon="5.31753">
        <ele>283.1</ele>
        <time>2022-04-28T14:57:07Z</time>
      </trkpt>
      <trkpt lat="45.15332" lon="5.31752">
        <ele>283.1</ele>
        <time>2022-04-28T14:57:09Z</time>
      </trkpt>
      <trkpt lat="45.15327" lon="5.31752">
        <ele>283</ele>
        <time>2022-04-28T14:57:10Z</time>
      </trkpt>
      <trkpt lat="45.15323" lon="5.31751">
        <ele>283</ele>
        <time>2022-04-28T14:57:11Z</time>
      </trkpt>
      <trkpt lat="45.15318" lon="5.3175">
        <ele>283</ele>
        <time>2022-04-28T14:57:12Z</time>
      </trkpt>
      <trkpt lat="45.15313" lon="5.3175">
        <ele>282.9</ele>
        <time>2022-04-28T14:57:13Z</time>
      </trkpt>
      <trkpt lat="45.15309" lon="5.31749">
        <ele>282.9</ele>
        <time>2022-04-28T14:57:14Z</time>
      </trkpt>
      <trkpt lat="45.15305" lon="5.31749">
        <ele>282.8</ele>
        <time>2022-04-28T14:57:15Z</time>
      </trkpt>
      <trkpt lat="45.15302" lon="5.31749">
        <ele>282.8</ele>
        <time>2022-04-28T14:57:16Z</time>
      </trkpt>
      <trkpt lat="45.15298" lon="5.31749">
        <ele>282.8</ele>
        <time>2022-04-28T14:57:17Z</time>
      </trkpt>
      <trkpt lat="45.15294" lon="5.31749">
        <ele>282.8</ele>
        <time>2022-04-28T14:57:18Z</time>
      </trkpt>
      <trkpt lat="45.1529" lon="5.31748">
        <ele>282.7</ele>
        <time>2022-04-28T14:57:19Z</time>
      </trkpt>
      <trkpt lat="45.15286" lon="5.31747">
        <ele>282.7</ele>
        <time>2022-04-28T14:57:20Z</time>
      </trkpt>
      <trkpt lat="45.15282" lon="5.31747">
        <ele>282.7</ele>
        <time>2022-04-28T14:57:21Z</time>
      </trkpt>
      <trkpt lat="45.15279" lon="5.31746">
        <ele>282.6</ele>
        <time>2022-04-28T14:57:22Z</time>
      </trkpt>
      <trkpt lat="45.15274" lon="5.31746">
        <ele>282.6</ele>
        <time>2022-04-28T14:57:23Z</time>
      </trkpt>
      <trkpt lat="45.1527" lon="5.31746">
        <ele>282.6</ele>
        <time>2022-04-28T14:57:24Z</time>
      </trkpt>
      <trkpt lat="45.15265" lon="5.31746">
        <ele>282.5</ele>
        <time>2022-04-28T14:57:25Z</time>
      </trkpt>
      <trkpt lat="45.1526" lon="5.31745">
        <ele>282.5</ele>
        <time>2022-04-28T14:57:26Z</time>
      </trkpt>
      <trkpt lat="45.15257" lon="5.31744">
        <ele>282.5</ele>
        <time>2022-04-28T14:57:27Z</time>
      </trkpt>
      <trkpt lat="45.15252" lon="5.31743">
        <ele>282.4</ele>
        <time>2022-04-28T14:57:28Z</time>
      </trkpt>
      <trkpt lat="45.15246" lon="5.31742">
        <ele>282.4</ele>
        <time>2022-04-28T14:57:29Z</time>
      </trkpt>
      <trkpt lat="45.15241" lon="5.31742">
        <ele>282.3</ele>
        <time>2022-04-28T14:57:30Z</time>
      </trkpt>
      <trkpt lat="45.15237" lon="5.31741">
        <ele>282.3</ele>
        <time>2022-04-28T14:57:31Z</time>
      </trkpt>
      <trkpt lat="45.15231" lon="5.31741">
        <ele>282.2</ele>
        <time>2022-04-28T14:57:32Z</time>
      </trkpt>
      <trkpt lat="45.15226" lon="5.3174">
        <ele>282.2</ele>
        <time>2022-04-28T14:57:33Z</time>
      </trkpt>
      <trkpt lat="45.1522" lon="5.3174">
        <ele>282.1</ele>
        <time>2022-04-28T14:57:34Z</time>
      </trkpt>
      <trkpt lat="45.15216" lon="5.31741">
        <ele>282.1</ele>
        <time>2022-04-28T14:57:35Z</time>
      </trkpt>
      <trkpt lat="45.15211" lon="5.31741">
        <ele>282.1</ele>
        <time>2022-04-28T14:57:36Z</time>
      </trkpt>
      <trkpt lat="45.15208" lon="5.31743">
        <ele>282</ele>
        <time>2022-04-28T14:57:37Z</time>
      </trkpt>
      <trkpt lat="45.15203" lon="5.31744">
        <ele>282</ele>
        <time>2022-04-28T14:57:38Z</time>
      </trkpt>
      <trkpt lat="45.15198" lon="5.31743">
        <ele>281.9</ele>
        <time>2022-04-28T14:57:39Z</time>
      </trkpt>
      <trkpt lat="45.15194" lon="5.31742">
        <ele>281.9</ele>
        <time>2022-04-28T14:57:40Z</time>
      </trkpt>
      <trkpt lat="45.15185" lon="5.31739">
        <ele>281.8</ele>
        <time>2022-04-28T14:57:42Z</time>
      </trkpt>
      <trkpt lat="45.1518" lon="5.31739">
        <ele>281.8</ele>
        <time>2022-04-28T14:57:43Z</time>
      </trkpt>
      <trkpt lat="45.15175" lon="5.31738">
        <ele>281.8</ele>
        <time>2022-04-28T14:57:44Z</time>
      </trkpt>
      <trkpt lat="45.1517" lon="5.31738">
        <ele>281.7</ele>
        <time>2022-04-28T14:57:45Z</time>
      </trkpt>
      <trkpt lat="45.15165" lon="5.31737">
        <ele>281.7</ele>
        <time>2022-04-28T14:57:46Z</time>
      </trkpt>
      <trkpt lat="45.1516" lon="5.31737">
        <ele>281.7</ele>
        <time>2022-04-28T14:57:47Z</time>
      </trkpt>
      <trkpt lat="45.15156" lon="5.31736">
        <ele>281.7</ele>
        <time>2022-04-28T14:57:49Z</time>
      </trkpt>
      <trkpt lat="45.15152" lon="5.31735">
        <ele>281.6</ele>
        <time>2022-04-28T14:57:50Z</time>
      </trkpt>
      <trkpt lat="45.15147" lon="5.31732">
        <ele>281.6</ele>
        <time>2022-04-28T14:57:52Z</time>
      </trkpt>
      <trkpt lat="45.15145" lon="5.31731">
        <ele>281.5</ele>
        <time>2022-04-28T14:57:53Z</time>
      </trkpt>
      <trkpt lat="45.15143" lon="5.31726">
        <ele>281.5</ele>
        <time>2022-04-28T14:57:55Z</time>
      </trkpt>
      <trkpt lat="45.1514" lon="5.31723">
        <ele>281.4</ele>
        <time>2022-04-28T14:57:56Z</time>
      </trkpt>
      <trkpt lat="45.15139" lon="5.31723">
        <ele>281.4</ele>
        <time>2022-04-28T14:57:57Z</time>
      </trkpt>
      <trkpt lat="45.15135" lon="5.31721">
        <ele>281.4</ele>
        <time>2022-04-28T14:57:58Z</time>
      </trkpt>
      <trkpt lat="45.15134" lon="5.3172">
        <ele>281.4</ele>
        <time>2022-04-28T14:57:59Z</time>
      </trkpt>
      <trkpt lat="45.15132" lon="5.31719">
        <ele>281.4</ele>
        <time>2022-04-28T14:58:00Z</time>
      </trkpt>
      <trkpt lat="45.15128" lon="5.31718">
        <ele>281.4</ele>
        <time>2022-04-28T14:58:01Z</time>
      </trkpt>
      <trkpt lat="45.15124" lon="5.31718">
        <ele>281.3</ele>
        <time>2022-04-28T14:58:02Z</time>
      </trkpt>
      <trkpt lat="45.15121" lon="5.31719">
        <ele>281.3</ele>
        <time>2022-04-28T14:58:03Z</time>
      </trkpt>
      <trkpt lat="45.15116" lon="5.31723">
        <ele>281.3</ele>
        <time>2022-04-28T14:58:05Z</time>
      </trkpt>
      <trkpt lat="45.15112" lon="5.3173">
        <ele>281.3</ele>
        <time>2022-04-28T14:58:06Z</time>
      </trkpt>
      <trkpt lat="45.15111" lon="5.31736">
        <ele>281.2</ele>
        <time>2022-04-28T14:58:07Z</time>
      </trkpt>
      <trkpt lat="45.15112" lon="5.31746">
        <ele>281.2</ele>
        <time>2022-04-28T14:58:09Z</time>
      </trkpt>
      <trkpt lat="45.15114" lon="5.31753">
        <ele>281.2</ele>
        <time>2022-04-28T14:58:10Z</time>
      </trkpt>
      <trkpt lat="45.15118" lon="5.31759">
        <ele>281.2</ele>
        <time>2022-04-28T14:58:11Z</time>
      </trkpt>
      <trkpt lat="45.15122" lon="5.31762">
        <ele>281.2</ele>
        <time>2022-04-28T14:58:12Z</time>
      </trkpt>
      <trkpt lat="45.15128" lon="5.31768">
        <ele>281.2</ele>
        <time>2022-04-28T14:58:13Z</time>
      </trkpt>
      <trkpt lat="45.15132" lon="5.31774">
        <ele>281.2</ele>
        <time>2022-04-28T14:58:14Z</time>
      </trkpt>
      <trkpt lat="45.15134" lon="5.31779">
        <ele>281.1</ele>
        <time>2022-04-28T14:58:15Z</time>
      </trkpt>
      <trkpt lat="45.15136" lon="5.31786">
        <ele>281.1</ele>
        <time>2022-04-28T14:58:16Z</time>
      </trkpt>
      <trkpt lat="45.15138" lon="5.31792">
        <ele>281</ele>
        <time>2022-04-28T14:58:17Z</time>
      </trkpt>
      <trkpt lat="45.1514" lon="5.31799">
        <ele>281</ele>
        <time>2022-04-28T14:58:18Z</time>
      </trkpt>
      <trkpt lat="45.15141" lon="5.31805">
        <ele>281</ele>
        <time>2022-04-28T14:58:19Z</time>
      </trkpt>
      <trkpt lat="45.15143" lon="5.31812">
        <ele>281</ele>
        <time>2022-04-28T14:58:20Z</time>
      </trkpt>
      <trkpt lat="45.15145" lon="5.31819">
        <ele>281</ele>
        <time>2022-04-28T14:58:21Z</time>
      </trkpt>
      <trkpt lat="45.15147" lon="5.31825">
        <ele>280.9</ele>
        <time>2022-04-28T14:58:22Z</time>
      </trkpt>
      <trkpt lat="45.15149" lon="5.31832">
        <ele>280.9</ele>
        <time>2022-04-28T14:58:23Z</time>
      </trkpt>
      <trkpt lat="45.1515" lon="5.31839">
        <ele>280.9</ele>
        <time>2022-04-28T14:58:24Z</time>
      </trkpt>
      <trkpt lat="45.15152" lon="5.31846">
        <ele>280.9</ele>
        <time>2022-04-28T14:58:25Z</time>
      </trkpt>
      <trkpt lat="45.15154" lon="5.31854">
        <ele>280.8</ele>
        <time>2022-04-28T14:58:26Z</time>
      </trkpt>
      <trkpt lat="45.15155" lon="5.3186">
        <ele>280.8</ele>
        <time>2022-04-28T14:58:27Z</time>
      </trkpt>
      <trkpt lat="45.15157" lon="5.31867">
        <ele>280.8</ele>
        <time>2022-04-28T14:58:28Z</time>
      </trkpt>
      <trkpt lat="45.15159" lon="5.31874">
        <ele>280.8</ele>
        <time>2022-04-28T14:58:29Z</time>
      </trkpt>
      <trkpt lat="45.15161" lon="5.31881">
        <ele>280.8</ele>
        <time>2022-04-28T14:58:30Z</time>
      </trkpt>
      <trkpt lat="45.15163" lon="5.31889">
        <ele>280.8</ele>
        <time>2022-04-28T14:58:31Z</time>
      </trkpt>
      <trkpt lat="45.15166" lon="5.31896">
        <ele>280.8</ele>
        <time>2022-04-28T14:58:32Z</time>
      </trkpt>
      <trkpt lat="45.15167" lon="5.31902">
        <ele>280.8</ele>
        <time>2022-04-28T14:58:33Z</time>
      </trkpt>
      <trkpt lat="45.15169" lon="5.31908">
        <ele>280.8</ele>
        <time>2022-04-28T14:58:34Z</time>
      </trkpt>
      <trkpt lat="45.15171" lon="5.31915">
        <ele>280.9</ele>
        <time>2022-04-28T14:58:35Z</time>
      </trkpt>
      <trkpt lat="45.15174" lon="5.3192">
        <ele>280.9</ele>
        <time>2022-04-28T14:58:36Z</time>
      </trkpt>
      <trkpt lat="45.15176" lon="5.31926">
        <ele>280.9</ele>
        <time>2022-04-28T14:58:37Z</time>
      </trkpt>
      <trkpt lat="45.15179" lon="5.31931">
        <ele>280.9</ele>
        <time>2022-04-28T14:58:38Z</time>
      </trkpt>
      <trkpt lat="45.15181" lon="5.31937">
        <ele>281</ele>
        <time>2022-04-28T14:58:39Z</time>
      </trkpt>
      <trkpt lat="45.15184" lon="5.31943">
        <ele>281</ele>
        <time>2022-04-28T14:58:40Z</time>
      </trkpt>
      <trkpt lat="45.15186" lon="5.31948">
        <ele>281</ele>
        <time>2022-04-28T14:58:41Z</time>
      </trkpt>
      <trkpt lat="45.15189" lon="5.31954">
        <ele>281.1</ele>
        <time>2022-04-28T14:58:42Z</time>
      </trkpt>
      <trkpt lat="45.15191" lon="5.31959">
        <ele>281.1</ele>
        <time>2022-04-28T14:58:43Z</time>
      </trkpt>
      <trkpt lat="45.15193" lon="5.31965">
        <ele>281.2</ele>
        <time>2022-04-28T14:58:44Z</time>
      </trkpt>
      <trkpt lat="45.15196" lon="5.31971">
        <ele>281.2</ele>
        <time>2022-04-28T14:58:45Z</time>
      </trkpt>
      <trkpt lat="45.15199" lon="5.31977">
        <ele>281.3</ele>
        <time>2022-04-28T14:58:46Z</time>
      </trkpt>
      <trkpt lat="45.15201" lon="5.31982">
        <ele>281.3</ele>
        <time>2022-04-28T14:58:47Z</time>
      </trkpt>
      <trkpt lat="45.15203" lon="5.31988">
        <ele>281.3</ele>
        <time>2022-04-28T14:58:48Z</time>
      </trkpt>
      <trkpt lat="45.15206" lon="5.31993">
        <ele>281.3</ele>
        <time>2022-04-28T14:58:49Z</time>
      </trkpt>
      <trkpt lat="45.15209" lon="5.31997">
        <ele>281.3</ele>
        <time>2022-04-28T14:58:50Z</time>
      </trkpt>
      <trkpt lat="45.15212" lon="5.32002">
        <ele>281.3</ele>
        <time>2022-04-28T14:58:51Z</time>
      </trkpt>
      <trkpt lat="45.15214" lon="5.32005">
        <ele>281.3</ele>
        <time>2022-04-28T14:58:52Z</time>
      </trkpt>
      <trkpt lat="45.15216" lon="5.3201">
        <ele>281.3</ele>
        <time>2022-04-28T14:58:53Z</time>
      </trkpt>
      <trkpt lat="45.1522" lon="5.32015">
        <ele>281.3</ele>
        <time>2022-04-28T14:58:54Z</time>
      </trkpt>
      <trkpt lat="45.15222" lon="5.3202">
        <ele>281.3</ele>
        <time>2022-04-28T14:58:55Z</time>
      </trkpt>
      <trkpt lat="45.15226" lon="5.32026">
        <ele>281.3</ele>
        <time>2022-04-28T14:58:56Z</time>
      </trkpt>
      <trkpt lat="45.15229" lon="5.32032">
        <ele>281.3</ele>
        <time>2022-04-28T14:58:57Z</time>
      </trkpt>
      <trkpt lat="45.15231" lon="5.32037">
        <ele>281.3</ele>
        <time>2022-04-28T14:58:58Z</time>
      </trkpt>
      <trkpt lat="45.15234" lon="5.32043">
        <ele>281.3</ele>
        <time>2022-04-28T14:58:59Z</time>
      </trkpt>
      <trkpt lat="45.15234" lon="5.32048">
        <ele>281.3</ele>
        <time>2022-04-28T14:59:01Z</time>
      </trkpt>
      <trkpt lat="45.15236" lon="5.32054">
        <ele>281.3</ele>
        <time>2022-04-28T14:59:02Z</time>
      </trkpt>
      <trkpt lat="45.15238" lon="5.32061">
        <ele>281.3</ele>
        <time>2022-04-28T14:59:03Z</time>
      </trkpt>
      <trkpt lat="45.15237" lon="5.32067">
        <ele>281.3</ele>
        <time>2022-04-28T14:59:04Z</time>
      </trkpt>
      <trkpt lat="45.15232" lon="5.3207">
        <ele>281.3</ele>
        <time>2022-04-28T14:59:06Z</time>
      </trkpt>
      <trkpt lat="45.15228" lon="5.32073">
        <ele>281.2</ele>
        <time>2022-04-28T14:59:07Z</time>
      </trkpt>
      <trkpt lat="45.15224" lon="5.32077">
        <ele>281.2</ele>
        <time>2022-04-28T14:59:08Z</time>
      </trkpt>
      <trkpt lat="45.1522" lon="5.32081">
        <ele>281.2</ele>
        <time>2022-04-28T14:59:09Z</time>
      </trkpt>
      <trkpt lat="45.15215" lon="5.32084">
        <ele>281.2</ele>
        <time>2022-04-28T14:59:10Z</time>
      </trkpt>
      <trkpt lat="45.15212" lon="5.32087">
        <ele>281.1</ele>
        <time>2022-04-28T14:59:11Z</time>
      </trkpt>
      <trkpt lat="45.15206" lon="5.32092">
        <ele>281.1</ele>
        <time>2022-04-28T14:59:12Z</time>
      </trkpt>
      <trkpt lat="45.152" lon="5.32095">
        <ele>281.1</ele>
        <time>2022-04-28T14:59:14Z</time>
      </trkpt>
      <trkpt lat="45.15197" lon="5.32098">
        <ele>281.1</ele>
        <time>2022-04-28T14:59:15Z</time>
      </trkpt>
      <trkpt lat="45.15192" lon="5.32103">
        <ele>281</ele>
        <time>2022-04-28T14:59:16Z</time>
      </trkpt>
      <trkpt lat="45.15189" lon="5.32107">
        <ele>281</ele>
        <time>2022-04-28T14:59:17Z</time>
      </trkpt>
      <trkpt lat="45.15182" lon="5.32114">
        <ele>281</ele>
        <time>2022-04-28T14:59:18Z</time>
      </trkpt>
      <trkpt lat="45.15177" lon="5.32116">
        <ele>280.9</ele>
        <time>2022-04-28T14:59:19Z</time>
      </trkpt>
      <trkpt lat="45.15173" lon="5.32119">
        <ele>280.9</ele>
        <time>2022-04-28T14:59:20Z</time>
      </trkpt>
      <trkpt lat="45.1517" lon="5.32121">
        <ele>280.9</ele>
        <time>2022-04-28T14:59:21Z</time>
      </trkpt>
      <trkpt lat="45.15166" lon="5.32124">
        <ele>280.9</ele>
        <time>2022-04-28T14:59:22Z</time>
      </trkpt>
      <trkpt lat="45.1516" lon="5.32126">
        <ele>280.8</ele>
        <time>2022-04-28T14:59:23Z</time>
      </trkpt>
      <trkpt lat="45.15155" lon="5.32129">
        <ele>280.8</ele>
        <time>2022-04-28T14:59:24Z</time>
      </trkpt>
      <trkpt lat="45.15151" lon="5.32132">
        <ele>280.8</ele>
        <time>2022-04-28T14:59:25Z</time>
      </trkpt>
      <trkpt lat="45.15148" lon="5.32135">
        <ele>280.8</ele>
        <time>2022-04-28T14:59:26Z</time>
      </trkpt>
      <trkpt lat="45.15144" lon="5.32138">
        <ele>280.8</ele>
        <time>2022-04-28T14:59:27Z</time>
      </trkpt>
      <trkpt lat="45.15139" lon="5.32141">
        <ele>280.7</ele>
        <time>2022-04-28T14:59:28Z</time>
      </trkpt>
      <trkpt lat="45.15135" lon="5.32143">
        <ele>280.7</ele>
        <time>2022-04-28T14:59:29Z</time>
      </trkpt>
      <trkpt lat="45.15131" lon="5.32146">
        <ele>280.7</ele>
        <time>2022-04-28T14:59:30Z</time>
      </trkpt>
      <trkpt lat="45.15128" lon="5.32147">
        <ele>280.7</ele>
        <time>2022-04-28T14:59:32Z</time>
      </trkpt>
      <trkpt lat="45.15123" lon="5.3215">
        <ele>280.7</ele>
        <time>2022-04-28T14:59:33Z</time>
      </trkpt>
      <trkpt lat="45.15118" lon="5.32153">
        <ele>280.7</ele>
        <time>2022-04-28T14:59:34Z</time>
      </trkpt>
      <trkpt lat="45.15114" lon="5.32156">
        <ele>280.7</ele>
        <time>2022-04-28T14:59:35Z</time>
      </trkpt>
      <trkpt lat="45.1511" lon="5.32159">
        <ele>280.7</ele>
        <time>2022-04-28T14:59:36Z</time>
      </trkpt>
      <trkpt lat="45.15106" lon="5.32162">
        <ele>280.6</ele>
        <time>2022-04-28T14:59:37Z</time>
      </trkpt>
      <trkpt lat="45.151" lon="5.32165">
        <ele>280.6</ele>
        <time>2022-04-28T14:59:39Z</time>
      </trkpt>
      <trkpt lat="45.15091" lon="5.32172">
        <ele>280.6</ele>
        <time>2022-04-28T14:59:40Z</time>
      </trkpt>
      <trkpt lat="45.15086" lon="5.32175">
        <ele>280.7</ele>
        <time>2022-04-28T14:59:41Z</time>
      </trkpt>
      <trkpt lat="45.15082" lon="5.32179">
        <ele>280.7</ele>
        <time>2022-04-28T14:59:42Z</time>
      </trkpt>
      <trkpt lat="45.15077" lon="5.32182">
        <ele>280.7</ele>
        <time>2022-04-28T14:59:43Z</time>
      </trkpt>
      <trkpt lat="45.15073" lon="5.32185">
        <ele>280.7</ele>
        <time>2022-04-28T14:59:44Z</time>
      </trkpt>
      <trkpt lat="45.1507" lon="5.32188">
        <ele>280.7</ele>
        <time>2022-04-28T14:59:45Z</time>
      </trkpt>
      <trkpt lat="45.15066" lon="5.32191">
        <ele>280.7</ele>
        <time>2022-04-28T14:59:46Z</time>
      </trkpt>
      <trkpt lat="45.15062" lon="5.32193">
        <ele>280.7</ele>
        <time>2022-04-28T14:59:47Z</time>
      </trkpt>
      <trkpt lat="45.15056" lon="5.32196">
        <ele>280.7</ele>
        <time>2022-04-28T14:59:49Z</time>
      </trkpt>
      <trkpt lat="45.15051" lon="5.32201">
        <ele>280.8</ele>
        <time>2022-04-28T14:59:50Z</time>
      </trkpt>
      <trkpt lat="45.15047" lon="5.32205">
        <ele>280.8</ele>
        <time>2022-04-28T14:59:52Z</time>
      </trkpt>
      <trkpt lat="45.15045" lon="5.32209">
        <ele>280.9</ele>
        <time>2022-04-28T14:59:53Z</time>
      </trkpt>
      <trkpt lat="45.15044" lon="5.32214">
        <ele>280.9</ele>
        <time>2022-04-28T14:59:54Z</time>
      </trkpt>
      <trkpt lat="45.15046" lon="5.3222">
        <ele>281</ele>
        <time>2022-04-28T14:59:55Z</time>
      </trkpt>
      <trkpt lat="45.15049" lon="5.32228">
        <ele>281</ele>
        <time>2022-04-28T14:59:57Z</time>
      </trkpt>
      <trkpt lat="45.15052" lon="5.32235">
        <ele>281</ele>
        <time>2022-04-28T14:59:58Z</time>
      </trkpt>
      <trkpt lat="45.15056" lon="5.3224">
        <ele>281</ele>
        <time>2022-04-28T14:59:59Z</time>
      </trkpt>
      <trkpt lat="45.1506" lon="5.32246">
        <ele>281</ele>
        <time>2022-04-28T15:00:01Z</time>
      </trkpt>
      <trkpt lat="45.15064" lon="5.32254">
        <ele>281.1</ele>
        <time>2022-04-28T15:00:02Z</time>
      </trkpt>
      <trkpt lat="45.15067" lon="5.3226">
        <ele>281.1</ele>
        <time>2022-04-28T15:00:03Z</time>
      </trkpt>
      <trkpt lat="45.1507" lon="5.32267">
        <ele>281.1</ele>
        <time>2022-04-28T15:00:05Z</time>
      </trkpt>
      <trkpt lat="45.15072" lon="5.32273">
        <ele>281.2</ele>
        <time>2022-04-28T15:00:06Z</time>
      </trkpt>
      <trkpt lat="45.15072" lon="5.32279">
        <ele>281.2</ele>
        <time>2022-04-28T15:00:07Z</time>
      </trkpt>
      <trkpt lat="45.15071" lon="5.32286">
        <ele>281.1</ele>
        <time>2022-04-28T15:00:08Z</time>
      </trkpt>
      <trkpt lat="45.15071" lon="5.32293">
        <ele>281</ele>
        <time>2022-04-28T15:00:09Z</time>
      </trkpt>
      <trkpt lat="45.15071" lon="5.32298">
        <ele>280.9</ele>
        <time>2022-04-28T15:00:10Z</time>
      </trkpt>
      <trkpt lat="45.15071" lon="5.32302">
        <ele>280.9</ele>
        <time>2022-04-28T15:00:11Z</time>
      </trkpt>
      <trkpt lat="45.15071" lon="5.32303">
        <ele>280.9</ele>
        <time>2022-04-28T15:00:12Z</time>
      </trkpt>
      <trkpt lat="45.15073" lon="5.32309">
        <ele>280.9</ele>
        <time>2022-04-28T15:00:14Z</time>
      </trkpt>
      <trkpt lat="45.15074" lon="5.32311">
        <ele>281</ele>
        <time>2022-04-28T15:00:15Z</time>
      </trkpt>
      <trkpt lat="45.15075" lon="5.32313">
        <ele>281</ele>
        <time>2022-04-28T15:00:16Z</time>
      </trkpt>
      <trkpt lat="45.15077" lon="5.32316">
        <ele>281</ele>
        <time>2022-04-28T15:00:17Z</time>
      </trkpt>
      <trkpt lat="45.15078" lon="5.32317">
        <ele>281</ele>
        <time>2022-04-28T15:00:18Z</time>
      </trkpt>
      <trkpt lat="45.1508" lon="5.32321">
        <ele>281</ele>
        <time>2022-04-28T15:00:19Z</time>
      </trkpt>
      <trkpt lat="45.15081" lon="5.32323">
        <ele>281</ele>
        <time>2022-04-28T15:00:20Z</time>
      </trkpt>
      <trkpt lat="45.15081" lon="5.32327">
        <ele>281</ele>
        <time>2022-04-28T15:00:21Z</time>
      </trkpt>
      <trkpt lat="45.15081" lon="5.32329">
        <ele>281</ele>
        <time>2022-04-28T15:00:22Z</time>
      </trkpt>
      <trkpt lat="45.1508" lon="5.32333">
        <ele>281</ele>
        <time>2022-04-28T15:00:23Z</time>
      </trkpt>
      <trkpt lat="45.15079" lon="5.32334">
        <ele>281</ele>
        <time>2022-04-28T15:00:24Z</time>
      </trkpt>
      <trkpt lat="45.15077" lon="5.32335">
        <ele>281</ele>
        <time>2022-04-28T15:00:25Z</time>
      </trkpt>
      <trkpt lat="45.15077" lon="5.32335">
        <ele>281</ele>
        <time>2022-04-28T15:00:26Z</time>
      </trkpt>
      <trkpt lat="45.15076" lon="5.32336">
        <ele>281</ele>
        <time>2022-04-28T15:00:27Z</time>
      </trkpt>
      <trkpt lat="45.15075" lon="5.32335">
        <ele>281</ele>
        <time>2022-04-28T15:00:28Z</time>
      </trkpt>
      <trkpt lat="45.15073" lon="5.32335">
        <ele>280.9</ele>
        <time>2022-04-28T15:00:29Z</time>
      </trkpt>
      <trkpt lat="45.15072" lon="5.32334">
        <ele>280.9</ele>
        <time>2022-04-28T15:00:30Z</time>
      </trkpt>
      <trkpt lat="45.15073" lon="5.32334">
        <ele>280.9</ele>
        <time>2022-04-28T15:00:31Z</time>
      </trkpt>
      <trkpt lat="45.15073" lon="5.32333">
        <ele>280.9</ele>
        <time>2022-04-28T15:00:32Z</time>
      </trkpt>
      <trkpt lat="45.15073" lon="5.32333">
        <ele>280.9</ele>
        <time>2022-04-28T15:00:33Z</time>
      </trkpt>
      <trkpt lat="45.15072" lon="5.32333">
        <ele>280.9</ele>
        <time>2022-04-28T15:00:34Z</time>
      </trkpt>
      <trkpt lat="45.15072" lon="5.32333">
        <ele>280.9</ele>
        <time>2022-04-28T15:00:35Z</time>
      </trkpt>
      <trkpt lat="45.15072" lon="5.32333">
        <ele>280.9</ele>
        <time>2022-04-28T15:00:36Z</time>
      </trkpt>
      <trkpt lat="45.15072" lon="5.32332">
        <ele>280.9</ele>
        <time>2022-04-28T15:00:37Z</time>
      </trkpt>
      <trkpt lat="45.15072" lon="5.32332">
        <ele>280.9</ele>
        <time>2022-04-28T15:00:38Z</time>
      </trkpt>
      <trkpt lat="45.15072" lon="5.32332">
        <ele>280.9</ele>
        <time>2022-04-28T15:00:39Z</time>
      </trkpt>
      <trkpt lat="45.15072" lon="5.32332">
        <ele>280.9</ele>
        <time>2022-04-28T15:00:40Z</time>
      </trkpt>
      <trkpt lat="45.15072" lon="5.32331">
        <ele>280.9</ele>
        <time>2022-04-28T15:00:41Z</time>
      </trkpt>
      <trkpt lat="45.15071" lon="5.3233">
        <ele>280.9</ele>
        <time>2022-04-28T15:00:42Z</time>
      </trkpt>
      <trkpt lat="45.15071" lon="5.3233">
        <ele>280.9</ele>
        <time>2022-04-28T15:00:43Z</time>
      </trkpt>
      <trkpt lat="45.15071" lon="5.3233">
        <ele>280.9</ele>
        <time>2022-04-28T15:00:44Z</time>
      </trkpt>
      <trkpt lat="45.15071" lon="5.32329">
        <ele>280.9</ele>
        <time>2022-04-28T15:00:45Z</time>
      </trkpt>
      <trkpt lat="45.15071" lon="5.32329">
        <ele>280.9</ele>
        <time>2022-04-28T15:00:46Z</time>
      </trkpt>
      <trkpt lat="45.1507" lon="5.32329">
        <ele>280.9</ele>
        <time>2022-04-28T15:00:47Z</time>
      </trkpt>
      <trkpt lat="45.1507" lon="5.32329">
        <ele>280.9</ele>
        <time>2022-04-28T15:00:48Z</time>
      </trkpt>
      <trkpt lat="45.1507" lon="5.32329">
        <ele>280.9</ele>
        <time>2022-04-28T15:00:49Z</time>
      </trkpt>
      <trkpt lat="45.1507" lon="5.32329">
        <ele>280.9</ele>
        <time>2022-04-28T15:00:50Z</time>
      </trkpt>
      <trkpt lat="45.1507" lon="5.32329">
        <ele>280.9</ele>
        <time>2022-04-28T15:00:51Z</time>
      </trkpt>
      <trkpt lat="45.15069" lon="5.32329">
        <ele>280.9</ele>
        <time>2022-04-28T15:00:52Z</time>
      </trkpt>
      <trkpt lat="45.15067" lon="5.32328">
        <ele>280.9</ele>
        <time>2022-04-28T15:01:31Z</time>
      </trkpt>
      <trkpt lat="45.15067" lon="5.32328">
        <ele>280.9</ele>
        <time>2022-04-28T15:01:32Z</time>
      </trkpt>
      <trkpt lat="45.15067" lon="5.32327">
        <ele>280.9</ele>
        <time>2022-04-28T15:01:33Z</time>
      </trkpt>
      <trkpt lat="45.15067" lon="5.32327">
        <ele>280.9</ele>
        <time>2022-04-28T15:01:34Z</time>
      </trkpt>
      <trkpt lat="45.15067" lon="5.32327">
        <ele>280.9</ele>
        <time>2022-04-28T15:01:35Z</time>
      </trkpt>
      <trkpt lat="45.15067" lon="5.32327">
        <ele>280.9</ele>
        <time>2022-04-28T15:01:36Z</time>
      </trkpt>
      <trkpt lat="45.15067" lon="5.32327">
        <ele>280.9</ele>
        <time>2022-04-28T15:01:37Z</time>
      </trkpt>
      <trkpt lat="45.15067" lon="5.32327">
        <ele>280.9</ele>
        <time>2022-04-28T15:01:38Z</time>
      </trkpt>
      <trkpt lat="45.15067" lon="5.32327">
        <ele>280.9</ele>
        <time>2022-04-28T15:01:39Z</time>
      </trkpt>
      <trkpt lat="45.15066" lon="5.32328">
        <ele>280.9</ele>
        <time>2022-04-28T15:01:40Z</time>
      </trkpt>
      <trkpt lat="45.15066" lon="5.32328">
        <ele>280.9</ele>
        <time>2022-04-28T15:01:41Z</time>
      </trkpt>
      <trkpt lat="45.15066" lon="5.32328">
        <ele>280.9</ele>
        <time>2022-04-28T15:01:42Z</time>
      </trkpt>
      <trkpt lat="45.15066" lon="5.32327">
        <ele>280.9</ele>
        <time>2022-04-28T15:01:43Z</time>
      </trkpt>
      <trkpt lat="45.15066" lon="5.32328">
        <ele>280.9</ele>
        <time>2022-04-28T15:01:44Z</time>
      </trkpt>
      <trkpt lat="45.15066" lon="5.32327">
        <ele>280.9</ele>
        <time>2022-04-28T15:01:45Z</time>
      </trkpt>
      <trkpt lat="45.15065" lon="5.32328">
        <ele>280.9</ele>
        <time>2022-04-28T15:01:47Z</time>
      </trkpt>
      <trkpt lat="45.15065" lon="5.32328">
        <ele>280.9</ele>
        <time>2022-04-28T15:01:48Z</time>
      </trkpt>
      <trkpt lat="45.15064" lon="5.32327">
        <ele>280.9</ele>
        <time>2022-04-28T15:01:49Z</time>
      </trkpt>
      <trkpt lat="45.15064" lon="5.32326">
        <ele>280.9</ele>
        <time>2022-04-28T15:01:50Z</time>
      </trkpt>
      <trkpt lat="45.15065" lon="5.32329">
        <ele>280.9</ele>
        <time>2022-04-28T15:01:52Z</time>
      </trkpt>
      <trkpt lat="45.15065" lon="5.3233">
        <ele>280.9</ele>
        <time>2022-04-28T15:01:53Z</time>
      </trkpt>
      <trkpt lat="45.15064" lon="5.32331">
        <ele>280.9</ele>
        <time>2022-04-28T15:01:54Z</time>
      </trkpt>
      <trkpt lat="45.15064" lon="5.32331">
        <ele>280.9</ele>
        <time>2022-04-28T15:01:55Z</time>
      </trkpt>
      <trkpt lat="45.15065" lon="5.32332">
        <ele>280.9</ele>
        <time>2022-04-28T15:01:56Z</time>
      </trkpt>
      <trkpt lat="45.15066" lon="5.32331">
        <ele>280.9</ele>
        <time>2022-04-28T15:01:57Z</time>
      </trkpt>
      <trkpt lat="45.15067" lon="5.3233">
        <ele>280.9</ele>
        <time>2022-04-28T15:01:59Z</time>
      </trkpt>
      <trkpt lat="45.15067" lon="5.3233">
        <ele>280.9</ele>
        <time>2022-04-28T15:02:00Z</time>
      </trkpt>
      <trkpt lat="45.15067" lon="5.3233">
        <ele>280.9</ele>
        <time>2022-04-28T15:02:01Z</time>
      </trkpt>
      <trkpt lat="45.15067" lon="5.3233">
        <ele>280.9</ele>
        <time>2022-04-28T15:02:02Z</time>
      </trkpt>
      <trkpt lat="45.15068" lon="5.32329">
        <ele>280.9</ele>
        <time>2022-04-28T15:02:04Z</time>
      </trkpt>
      <trkpt lat="45.15068" lon="5.32329">
        <ele>280.9</ele>
        <time>2022-04-28T15:02:05Z</time>
      </trkpt>
      <trkpt lat="45.15068" lon="5.32329">
        <ele>280.9</ele>
        <time>2022-04-28T15:02:06Z</time>
      </trkpt>
      <trkpt lat="45.15064" lon="5.32331">
        <ele>280.9</ele>
        <time>2022-04-28T15:02:17Z</time>
      </trkpt>
      <trkpt lat="45.15063" lon="5.32329">
        <ele>280.9</ele>
        <time>2022-04-28T15:02:19Z</time>
      </trkpt>
      <trkpt lat="45.15063" lon="5.32328">
        <ele>280.9</ele>
        <time>2022-04-28T15:02:20Z</time>
      </trkpt>
      <trkpt lat="45.15063" lon="5.32327">
        <ele>280.9</ele>
        <time>2022-04-28T15:02:21Z</time>
      </trkpt>
      <trkpt lat="45.15062" lon="5.32328">
        <ele>280.9</ele>
        <time>2022-04-28T15:02:22Z</time>
      </trkpt>
      <trkpt lat="45.15062" lon="5.32328">
        <ele>280.9</ele>
        <time>2022-04-28T15:02:24Z</time>
      </trkpt>
      <trkpt lat="45.15062" lon="5.32328">
        <ele>280.8</ele>
        <time>2022-04-28T15:02:25Z</time>
      </trkpt>
      <trkpt lat="45.15061" lon="5.32328">
        <ele>280.8</ele>
        <time>2022-04-28T15:02:26Z</time>
      </trkpt>
      <trkpt lat="45.15061" lon="5.32327">
        <ele>280.8</ele>
        <time>2022-04-28T15:02:27Z</time>
      </trkpt>
      <trkpt lat="45.15061" lon="5.32327">
        <ele>280.8</ele>
        <time>2022-04-28T15:02:29Z</time>
      </trkpt>
      <trkpt lat="45.15061" lon="5.32326">
        <ele>280.8</ele>
        <time>2022-04-28T15:02:30Z</time>
      </trkpt>
      <trkpt lat="45.15061" lon="5.32325">
        <ele>280.8</ele>
        <time>2022-04-28T15:02:31Z</time>
      </trkpt>
      <trkpt lat="45.15061" lon="5.32325">
        <ele>280.8</ele>
        <time>2022-04-28T15:02:32Z</time>
      </trkpt>
      <trkpt lat="45.1506" lon="5.32324">
        <ele>280.8</ele>
        <time>2022-04-28T15:02:34Z</time>
      </trkpt>
      <trkpt lat="45.1506" lon="5.32323">
        <ele>280.8</ele>
        <time>2022-04-28T15:02:35Z</time>
      </trkpt>
      <trkpt lat="45.1506" lon="5.32323">
        <ele>280.8</ele>
        <time>2022-04-28T15:02:36Z</time>
      </trkpt>
      <trkpt lat="45.1506" lon="5.32322">
        <ele>280.8</ele>
        <time>2022-04-28T15:02:37Z</time>
      </trkpt>
      <trkpt lat="45.15058" lon="5.32322">
        <ele>280.8</ele>
        <time>2022-04-28T15:02:39Z</time>
      </trkpt>
      <trkpt lat="45.15058" lon="5.32322">
        <ele>280.8</ele>
        <time>2022-04-28T15:02:40Z</time>
      </trkpt>
      <trkpt lat="45.15058" lon="5.32322">
        <ele>280.8</ele>
        <time>2022-04-28T15:02:41Z</time>
      </trkpt>
      <trkpt lat="45.15058" lon="5.32323">
        <ele>280.8</ele>
        <time>2022-04-28T15:02:42Z</time>
      </trkpt>
      <trkpt lat="45.15059" lon="5.32323">
        <ele>280.8</ele>
        <time>2022-04-28T15:02:44Z</time>
      </trkpt>
      <trkpt lat="45.15061" lon="5.32321">
        <ele>280.8</ele>
        <time>2022-04-28T15:02:45Z</time>
      </trkpt>
      <trkpt lat="45.15062" lon="5.32321">
        <ele>280.8</ele>
        <time>2022-04-28T15:02:46Z</time>
      </trkpt>
      <trkpt lat="45.15062" lon="5.32319">
        <ele>280.8</ele>
        <time>2022-04-28T15:02:47Z</time>
      </trkpt>
      <trkpt lat="45.15062" lon="5.32319">
        <ele>280.8</ele>
        <time>2022-04-28T15:02:48Z</time>
      </trkpt>
      <trkpt lat="45.15062" lon="5.32318">
        <ele>280.8</ele>
        <time>2022-04-28T15:02:49Z</time>
      </trkpt>
      <trkpt lat="45.15062" lon="5.32317">
        <ele>280.8</ele>
        <time>2022-04-28T15:02:50Z</time>
      </trkpt>
      <trkpt lat="45.15061" lon="5.32316">
        <ele>280.8</ele>
        <time>2022-04-28T15:02:52Z</time>
      </trkpt>
      <trkpt lat="45.15061" lon="5.32316">
        <ele>280.8</ele>
        <time>2022-04-28T15:02:53Z</time>
      </trkpt>
      <trkpt lat="45.15061" lon="5.32316">
        <ele>280.8</ele>
        <time>2022-04-28T15:02:54Z</time>
      </trkpt>
      <trkpt lat="45.1506" lon="5.32316">
        <ele>280.8</ele>
        <time>2022-04-28T15:02:55Z</time>
      </trkpt>
      <trkpt lat="45.1506" lon="5.32316">
        <ele>280.8</ele>
        <time>2022-04-28T15:02:57Z</time>
      </trkpt>
      <trkpt lat="45.15061" lon="5.32316">
        <ele>280.8</ele>
        <time>2022-04-28T15:02:58Z</time>
      </trkpt>
      <trkpt lat="45.15061" lon="5.32317">
        <ele>280.8</ele>
        <time>2022-04-28T15:02:59Z</time>
      </trkpt>
      <trkpt lat="45.15061" lon="5.32317">
        <ele>280.8</ele>
        <time>2022-04-28T15:03:00Z</time>
      </trkpt>
      <trkpt lat="45.15061" lon="5.32317">
        <ele>280.8</ele>
        <time>2022-04-28T15:03:01Z</time>
      </trkpt>
      <trkpt lat="45.15061" lon="5.32317">
        <ele>280.8</ele>
        <time>2022-04-28T15:03:02Z</time>
      </trkpt>
      <trkpt lat="45.15061" lon="5.32317">
        <ele>280.8</ele>
        <time>2022-04-28T15:03:03Z</time>
      </trkpt>
      <trkpt lat="45.1506" lon="5.32318">
        <ele>280.8</ele>
        <time>2022-04-28T15:03:04Z</time>
      </trkpt>
      <trkpt lat="45.1506" lon="5.32319">
        <ele>280.8</ele>
        <time>2022-04-28T15:03:06Z</time>
      </trkpt>
      <trkpt lat="45.15059" lon="5.32319">
        <ele>280.8</ele>
        <time>2022-04-28T15:03:07Z</time>
      </trkpt>
      <trkpt lat="45.15059" lon="5.3232">
        <ele>280.8</ele>
        <time>2022-04-28T15:03:08Z</time>
      </trkpt>
      <trkpt lat="45.15058" lon="5.3232">
        <ele>280.8</ele>
        <time>2022-04-28T15:03:09Z</time>
      </trkpt>
      <trkpt lat="45.15058" lon="5.3232">
        <ele>280.8</ele>
        <time>2022-04-28T15:03:11Z</time>
      </trkpt>
      <trkpt lat="45.15057" lon="5.3232">
        <ele>280.8</ele>
        <time>2022-04-28T15:03:12Z</time>
      </trkpt>
      <trkpt lat="45.15056" lon="5.3232">
        <ele>280.8</ele>
        <time>2022-04-28T15:03:13Z</time>
      </trkpt>
      <trkpt lat="45.15056" lon="5.3232">
        <ele>280.8</ele>
        <time>2022-04-28T15:03:14Z</time>
      </trkpt>
      <trkpt lat="45.15055" lon="5.3232">
        <ele>280.8</ele>
        <time>2022-04-28T15:03:15Z</time>
      </trkpt>
      <trkpt lat="45.15054" lon="5.3232">
        <ele>280.8</ele>
        <time>2022-04-28T15:03:17Z</time>
      </trkpt>
      <trkpt lat="45.15053" lon="5.3232">
        <ele>280.8</ele>
        <time>2022-04-28T15:03:18Z</time>
      </trkpt>
      <trkpt lat="45.15053" lon="5.3232">
        <ele>280.8</ele>
        <time>2022-04-28T15:03:19Z</time>
      </trkpt>
      <trkpt lat="45.15052" lon="5.3232">
        <ele>280.8</ele>
        <time>2022-04-28T15:03:20Z</time>
      </trkpt>
      <trkpt lat="45.1505" lon="5.3232">
        <ele>280.8</ele>
        <time>2022-04-28T15:03:22Z</time>
      </trkpt>
      <trkpt lat="45.15048" lon="5.3232">
        <ele>280.8</ele>
        <time>2022-04-28T15:03:24Z</time>
      </trkpt>
      <trkpt lat="45.15048" lon="5.3232">
        <ele>280.8</ele>
        <time>2022-04-28T15:03:25Z</time>
      </trkpt>
      <trkpt lat="45.15047" lon="5.32319">
        <ele>280.8</ele>
        <time>2022-04-28T15:03:26Z</time>
      </trkpt>
      <trkpt lat="45.15046" lon="5.32319">
        <ele>280.8</ele>
        <time>2022-04-28T15:03:27Z</time>
      </trkpt>
      <trkpt lat="45.15046" lon="5.32318">
        <ele>280.8</ele>
        <time>2022-04-28T15:03:28Z</time>
      </trkpt>
      <trkpt lat="45.15045" lon="5.32317">
        <ele>280.8</ele>
        <time>2022-04-28T15:03:29Z</time>
      </trkpt>
      <trkpt lat="45.15044" lon="5.32316">
        <ele>280.8</ele>
        <time>2022-04-28T15:03:30Z</time>
      </trkpt>
      <trkpt lat="45.15043" lon="5.32315">
        <ele>280.7</ele>
        <time>2022-04-28T15:03:31Z</time>
      </trkpt>
      <trkpt lat="45.15043" lon="5.32313">
        <ele>280.7</ele>
        <time>2022-04-28T15:03:32Z</time>
      </trkpt>
      <trkpt lat="45.15043" lon="5.32312">
        <ele>280.7</ele>
        <time>2022-04-28T15:03:33Z</time>
      </trkpt>
      <trkpt lat="45.15043" lon="5.32312">
        <ele>280.7</ele>
        <time>2022-04-28T15:03:34Z</time>
      </trkpt>
      <trkpt lat="45.15043" lon="5.3231">
        <ele>280.7</ele>
        <time>2022-04-28T15:03:35Z</time>
      </trkpt>
      <trkpt lat="45.15044" lon="5.32309">
        <ele>280.7</ele>
        <time>2022-04-28T15:03:36Z</time>
      </trkpt>
      <trkpt lat="45.15044" lon="5.32306">
        <ele>280.7</ele>
        <time>2022-04-28T15:03:37Z</time>
      </trkpt>
      <trkpt lat="45.15043" lon="5.32303">
        <ele>280.7</ele>
        <time>2022-04-28T15:03:38Z</time>
      </trkpt>
      <trkpt lat="45.15042" lon="5.32302">
        <ele>280.7</ele>
        <time>2022-04-28T15:03:39Z</time>
      </trkpt>
      <trkpt lat="45.15039" lon="5.32299">
        <ele>280.7</ele>
        <time>2022-04-28T15:03:40Z</time>
      </trkpt>
      <trkpt lat="45.15038" lon="5.32298">
        <ele>280.7</ele>
        <time>2022-04-28T15:03:41Z</time>
      </trkpt>
      <trkpt lat="45.15035" lon="5.32295">
        <ele>280.7</ele>
        <time>2022-04-28T15:03:42Z</time>
      </trkpt>
      <trkpt lat="45.15034" lon="5.32294">
        <ele>280.7</ele>
        <time>2022-04-28T15:03:43Z</time>
      </trkpt>
      <trkpt lat="45.15033" lon="5.32292">
        <ele>280.7</ele>
        <time>2022-04-28T15:03:44Z</time>
      </trkpt>
      <trkpt lat="45.15032" lon="5.32291">
        <ele>280.6</ele>
        <time>2022-04-28T15:03:45Z</time>
      </trkpt>
      <trkpt lat="45.1503" lon="5.32287">
        <ele>280.5</ele>
        <time>2022-04-28T15:03:46Z</time>
      </trkpt>
      <trkpt lat="45.15029" lon="5.32286">
        <ele>280.5</ele>
        <time>2022-04-28T15:03:47Z</time>
      </trkpt>
      <trkpt lat="45.15027" lon="5.32283">
        <ele>280.5</ele>
        <time>2022-04-28T15:03:48Z</time>
      </trkpt>
      <trkpt lat="45.15026" lon="5.32283">
        <ele>280.5</ele>
        <time>2022-04-28T15:03:49Z</time>
      </trkpt>
      <trkpt lat="45.15023" lon="5.32279">
        <ele>280.5</ele>
        <time>2022-04-28T15:03:51Z</time>
      </trkpt>
      <trkpt lat="45.15023" lon="5.32278">
        <ele>280.5</ele>
        <time>2022-04-28T15:03:52Z</time>
      </trkpt>
      <trkpt lat="45.15021" lon="5.32275">
        <ele>280.5</ele>
        <time>2022-04-28T15:03:53Z</time>
      </trkpt>
      <trkpt lat="45.1502" lon="5.32274">
        <ele>280.4</ele>
        <time>2022-04-28T15:03:54Z</time>
      </trkpt>
      <trkpt lat="45.15018" lon="5.32271">
        <ele>280.4</ele>
        <time>2022-04-28T15:03:56Z</time>
      </trkpt>
      <trkpt lat="45.15017" lon="5.32268">
        <ele>280.3</ele>
        <time>2022-04-28T15:03:57Z</time>
      </trkpt>
      <trkpt lat="45.15015" lon="5.32265">
        <ele>280.3</ele>
        <time>2022-04-28T15:03:59Z</time>
      </trkpt>
      <trkpt lat="45.15014" lon="5.32262">
        <ele>280.3</ele>
        <time>2022-04-28T15:04:00Z</time>
      </trkpt>
      <trkpt lat="45.15013" lon="5.32261">
        <ele>280.3</ele>
        <time>2022-04-28T15:04:01Z</time>
      </trkpt>
      <trkpt lat="45.15012" lon="5.32259">
        <ele>280.3</ele>
        <time>2022-04-28T15:04:02Z</time>
      </trkpt>
      <trkpt lat="45.1501" lon="5.32256">
        <ele>280.3</ele>
        <time>2022-04-28T15:04:04Z</time>
      </trkpt>
      <trkpt lat="45.15009" lon="5.32255">
        <ele>280.3</ele>
        <time>2022-04-28T15:04:05Z</time>
      </trkpt>
      <trkpt lat="45.15008" lon="5.32254">
        <ele>280.2</ele>
        <time>2022-04-28T15:04:06Z</time>
      </trkpt>
      <trkpt lat="45.15005" lon="5.32251">
        <ele>280</ele>
        <time>2022-04-28T15:04:07Z</time>
      </trkpt>
      <trkpt lat="45.15005" lon="5.32251">
        <ele>280</ele>
        <time>2022-04-28T15:04:08Z</time>
      </trkpt>
      <trkpt lat="45.15004" lon="5.3225">
        <ele>280</ele>
        <time>2022-04-28T15:04:09Z</time>
      </trkpt>
      <trkpt lat="45.15004" lon="5.32249">
        <ele>280</ele>
        <time>2022-04-28T15:04:10Z</time>
      </trkpt>
      <trkpt lat="45.15003" lon="5.32249">
        <ele>280</ele>
        <time>2022-04-28T15:04:12Z</time>
      </trkpt>
      <trkpt lat="45.15003" lon="5.32249">
        <ele>280</ele>
        <time>2022-04-28T15:04:13Z</time>
      </trkpt>
      <trkpt lat="45.15003" lon="5.32249">
        <ele>280</ele>
        <time>2022-04-28T15:04:14Z</time>
      </trkpt>
      <trkpt lat="45.15003" lon="5.32249">
        <ele>280</ele>
        <time>2022-04-28T15:04:15Z</time>
      </trkpt>
      <trkpt lat="45.15003" lon="5.3225">
        <ele>280</ele>
        <time>2022-04-28T15:04:16Z</time>
      </trkpt>
      <trkpt lat="45.15003" lon="5.3225">
        <ele>280</ele>
        <time>2022-04-28T15:04:17Z</time>
      </trkpt>
      <trkpt lat="45.15004" lon="5.32251">
        <ele>280</ele>
        <time>2022-04-28T15:04:19Z</time>
      </trkpt>
      <trkpt lat="45.15004" lon="5.32251">
        <ele>280</ele>
        <time>2022-04-28T15:04:20Z</time>
      </trkpt>
      <trkpt lat="45.15004" lon="5.32252">
        <ele>280</ele>
        <time>2022-04-28T15:04:21Z</time>
      </trkpt>
      <trkpt lat="45.15004" lon="5.32251">
        <ele>280</ele>
        <time>2022-04-28T15:04:22Z</time>
      </trkpt>
      <trkpt lat="45.15004" lon="5.32252">
        <ele>280</ele>
        <time>2022-04-28T15:04:23Z</time>
      </trkpt>
      <trkpt lat="45.15004" lon="5.32252">
        <ele>280</ele>
        <time>2022-04-28T15:04:24Z</time>
      </trkpt>
      <trkpt lat="45.15004" lon="5.32252">
        <ele>280</ele>
        <time>2022-04-28T15:04:25Z</time>
      </trkpt>
      <trkpt lat="45.15004" lon="5.32253">
        <ele>280</ele>
        <time>2022-04-28T15:04:26Z</time>
      </trkpt>
      <trkpt lat="45.15004" lon="5.32253">
        <ele>280</ele>
        <time>2022-04-28T15:04:27Z</time>
      </trkpt>
      <trkpt lat="45.15003" lon="5.32253">
        <ele>280</ele>
        <time>2022-04-28T15:04:28Z</time>
      </trkpt>
      <trkpt lat="45.15003" lon="5.32253">
        <ele>280</ele>
        <time>2022-04-28T15:04:29Z</time>
      </trkpt>
      <trkpt lat="45.15004" lon="5.32254">
        <ele>280.2</ele>
        <time>2022-04-28T15:04:30Z</time>
      </trkpt>
      <trkpt lat="45.15004" lon="5.32254">
        <ele>280.2</ele>
        <time>2022-04-28T15:04:31Z</time>
      </trkpt>
      <trkpt lat="45.15004" lon="5.32254">
        <ele>280.2</ele>
        <time>2022-04-28T15:04:32Z</time>
      </trkpt>
      <trkpt lat="45.15004" lon="5.32254">
        <ele>280.2</ele>
        <time>2022-04-28T15:04:33Z</time>
      </trkpt>
      <trkpt lat="45.15004" lon="5.32254">
        <ele>280.2</ele>
        <time>2022-04-28T15:04:34Z</time>
      </trkpt>
      <trkpt lat="45.15004" lon="5.32254">
        <ele>280.2</ele>
        <time>2022-04-28T15:04:35Z</time>
      </trkpt>
    </trkseg>
  </trk>
</gpx>